<?xml version="1.0" encoding="UTF-8" standalone="no" ?>
<gpx xmlns="http://www.topografix.com/GPX/1/1" creator="MapSource 6.16.3" version="1.1" xmlns:xsi="http://www.w3.org/2001/XMLSchema-instance" xsi:schemaLocation="http://www.topografix.com/GPX/1/1 http://www.topografix.com/GPX/1/1/gpx.xsd">

  <metadata>
    <link href="http://www.garmin.com">
      <text>Garmin International</text>
    </link>
    <time>2012-10-22T16:29:03Z</time>
    <bounds maxlat="48.233100883662701" maxlon="14.553768122568727" minlat="47.880603801459074" minlon="14.349000910297036"/>
  </metadata>

  <trk>
    <name>ENNSRADWEG</name>
    <trkseg>
      <trkpt lat="47.886634832248092" lon="14.54947373829782">
        <ele>372.60000610351602</ele>
        <time>2012-10-22T06:42:01Z</time>
      </trkpt>
      <trkpt lat="47.886665342375636" lon="14.549478515982628">
        <ele>372.60000610351602</ele>
        <time>2012-10-22T06:42:05Z</time>
      </trkpt>
      <trkpt lat="47.886676825582981" lon="14.549486143514514">
        <ele>372.20001220703102</ele>
        <time>2012-10-22T06:42:06Z</time>
      </trkpt>
      <trkpt lat="47.886714963242412" lon="14.549507182091475">
        <ele>372.20001220703102</ele>
        <time>2012-10-22T06:42:09Z</time>
      </trkpt>
      <trkpt lat="47.886741617694497" lon="14.549560574814677">
        <ele>372.20001220703102</ele>
        <time>2012-10-22T06:42:12Z</time>
      </trkpt>
      <trkpt lat="47.886745473369956" lon="14.549582451581955">
        <ele>372.20001220703102</ele>
        <time>2012-10-22T06:42:13Z</time>
      </trkpt>
      <trkpt lat="47.886730218306184" lon="14.549724608659744">
        <ele>372.20001220703102</ele>
        <time>2012-10-22T06:42:18Z</time>
      </trkpt>
      <trkpt lat="47.886707335710526" lon="14.54995159059763">
        <ele>372.20001220703102</ele>
        <time>2012-10-22T06:42:25Z</time>
      </trkpt>
      <trkpt lat="47.886695852503181" lon="14.550186116248369">
        <ele>372.20001220703102</ele>
        <time>2012-10-22T06:42:32Z</time>
      </trkpt>
      <trkpt lat="47.886665342375636" lon="14.550478896126151">
        <ele>372.20001220703102</ele>
        <time>2012-10-22T06:42:38Z</time>
      </trkpt>
      <trkpt lat="47.886627204716206" lon="14.550652485340834">
        <ele>372.20001220703102</ele>
        <time>2012-10-22T06:42:41Z</time>
      </trkpt>
      <trkpt lat="47.886573811993003" lon="14.550848035141826">
        <ele>372.20001220703102</ele>
        <time>2012-10-22T06:42:44Z</time>
      </trkpt>
      <trkpt lat="47.886466942727566" lon="14.551364863291383">
        <ele>372.20001220703102</ele>
        <time>2012-10-22T06:42:51Z</time>
      </trkpt>
      <trkpt lat="47.886371640488505" lon="14.551806421950459">
        <ele>371.79998779296898</ele>
        <time>2012-10-22T06:42:57Z</time>
      </trkpt>
      <trkpt lat="47.886356385424733" lon="14.551882781088352">
        <ele>371.39999389648398</ele>
        <time>2012-10-22T06:42:58Z</time>
      </trkpt>
      <trkpt lat="47.886341130360961" lon="14.551958050578833">
        <ele>371</ele>
        <time>2012-10-22T06:42:59Z</time>
      </trkpt>
      <trkpt lat="47.886329647153616" lon="14.552038181573153">
        <ele>370.60000610351602</ele>
        <time>2012-10-22T06:43:00Z</time>
      </trkpt>
      <trkpt lat="47.886318247765303" lon="14.552119234576821">
        <ele>370.20001220703102</ele>
        <time>2012-10-22T06:43:01Z</time>
      </trkpt>
      <trkpt lat="47.886268626898527" lon="14.552366249263287">
        <ele>370.20001220703102</ele>
        <time>2012-10-22T06:43:04Z</time>
      </trkpt>
      <trkpt lat="47.886196123436093" lon="14.552620891481638">
        <ele>369.79998779296898</ele>
        <time>2012-10-22T06:43:07Z</time>
      </trkpt>
      <trkpt lat="47.886161841452122" lon="14.552704794332385">
        <ele>369.39999389648398</ele>
        <time>2012-10-22T06:43:08Z</time>
      </trkpt>
      <trkpt lat="47.886127475649118" lon="14.552799258381128">
        <ele>369</ele>
        <time>2012-10-22T06:43:09Z</time>
      </trkpt>
      <trkpt lat="47.886096965521574" lon="14.552889782935381">
        <ele>368.60000610351602</ele>
        <time>2012-10-22T06:43:10Z</time>
      </trkpt>
      <trkpt lat="47.886062599718571" lon="14.552979469299316">
        <ele>368.20001220703102</ele>
        <time>2012-10-22T06:43:11Z</time>
      </trkpt>
      <trkpt lat="47.885929076001048" lon="14.553340896964073">
        <ele>367.79998779296898</ele>
        <time>2012-10-22T06:43:15Z</time>
      </trkpt>
      <trkpt lat="47.885894794017076" lon="14.553429577499628">
        <ele>367.39999389648398</ele>
        <time>2012-10-22T06:43:16Z</time>
      </trkpt>
      <trkpt lat="47.885856656357646" lon="14.553517336025834">
        <ele>367</ele>
        <time>2012-10-22T06:43:17Z</time>
      </trkpt>
      <trkpt lat="47.885814663022757" lon="14.553587911650538">
        <ele>366.60000610351602</ele>
        <time>2012-10-22T06:43:18Z</time>
      </trkpt>
      <trkpt lat="47.885765042155981" lon="14.5536451600492">
        <ele>366.20001220703102</ele>
        <time>2012-10-22T06:43:19Z</time>
      </trkpt>
      <trkpt lat="47.885658256709576" lon="14.553714729845524">
        <ele>366.20001220703102</ele>
        <time>2012-10-22T06:43:21Z</time>
      </trkpt>
      <trkpt lat="47.885475195944309" lon="14.55376342870295">
        <ele>366.20001220703102</ele>
        <time>2012-10-22T06:43:24Z</time>
      </trkpt>
      <trkpt lat="47.885417947545648" lon="14.553768122568727">
        <ele>366.20001220703102</ele>
        <time>2012-10-22T06:43:25Z</time>
      </trkpt>
      <trkpt lat="47.88529590703547" lon="14.553759573027492">
        <ele>366.20001220703102</ele>
        <time>2012-10-22T06:43:27Z</time>
      </trkpt>
      <trkpt lat="47.885231031104922" lon="14.55374046228826">
        <ele>365.60000610351602</ele>
        <time>2012-10-22T06:43:28Z</time>
      </trkpt>
      <trkpt lat="47.885170010849833" lon="14.55370232462883">
        <ele>365.20001220703102</ele>
        <time>2012-10-22T06:43:29Z</time>
      </trkpt>
      <trkpt lat="47.885112762451172" lon="14.553647004067898">
        <ele>364.79998779296898</ele>
        <time>2012-10-22T06:43:30Z</time>
      </trkpt>
      <trkpt lat="47.885063141584396" lon="14.553567878901958">
        <ele>364.20001220703102</ele>
        <time>2012-10-22T06:43:31Z</time>
      </trkpt>
      <trkpt lat="47.88501737639308" lon="14.553475342690945">
        <ele>363.79998779296898</ele>
        <time>2012-10-22T06:43:32Z</time>
      </trkpt>
      <trkpt lat="47.885005977004766" lon="14.553361851722002">
        <ele>363.39999389648398</ele>
        <time>2012-10-22T06:43:33Z</time>
      </trkpt>
      <trkpt lat="47.885005977004766" lon="14.553231261670589">
        <ele>362.79998779296898</ele>
        <time>2012-10-22T06:43:34Z</time>
      </trkpt>
      <trkpt lat="47.885013604536653" lon="14.553100587800145">
        <ele>362.39999389648398</ele>
        <time>2012-10-22T06:43:35Z</time>
      </trkpt>
      <trkpt lat="47.885021232068539" lon="14.552962286397815">
        <ele>361.79998779296898</ele>
        <time>2012-10-22T06:43:36Z</time>
      </trkpt>
      <trkpt lat="47.885036487132311" lon="14.552825912833214">
        <ele>361.20001220703102</ele>
        <time>2012-10-22T06:43:37Z</time>
      </trkpt>
      <trkpt lat="47.885059369727969" lon="14.552672356367111">
        <ele>360.39999389648398</ele>
        <time>2012-10-22T06:43:38Z</time>
      </trkpt>
      <trkpt lat="47.885086024180055" lon="14.552524583414197">
        <ele>359.79998779296898</ele>
        <time>2012-10-22T06:43:39Z</time>
      </trkpt>
      <trkpt lat="47.885108906775713" lon="14.552371948957443">
        <ele>359</ele>
        <time>2012-10-22T06:43:40Z</time>
      </trkpt>
      <trkpt lat="47.885120389983058" lon="14.552214620634913">
        <ele>358</ele>
        <time>2012-10-22T06:43:41Z</time>
      </trkpt>
      <trkpt lat="47.885131873190403" lon="14.552061064168811">
        <ele>357.20001220703102</ele>
        <time>2012-10-22T06:43:42Z</time>
      </trkpt>
      <trkpt lat="47.88513564504683" lon="14.551906585693359">
        <ele>356.20001220703102</ele>
        <time>2012-10-22T06:43:43Z</time>
      </trkpt>
      <trkpt lat="47.885147128254175" lon="14.551751101389527">
        <ele>355.20001220703102</ele>
        <time>2012-10-22T06:43:44Z</time>
      </trkpt>
      <trkpt lat="47.885162383317947" lon="14.551592851057649">
        <ele>354.20001220703102</ele>
        <time>2012-10-22T06:43:45Z</time>
      </trkpt>
      <trkpt lat="47.88517763838172" lon="14.551433594897389">
        <ele>353.39999389648398</ele>
        <time>2012-10-22T06:43:46Z</time>
      </trkpt>
      <trkpt lat="47.885200520977378" lon="14.551278110593557">
        <ele>351.20001220703102</ele>
        <time>2012-10-22T06:43:47Z</time>
      </trkpt>
      <trkpt lat="47.885231031104922" lon="14.551113154739141">
        <ele>350</ele>
        <time>2012-10-22T06:43:48Z</time>
      </trkpt>
      <trkpt lat="47.885246286168694" lon="14.550954820588231">
        <ele>349</ele>
        <time>2012-10-22T06:43:49Z</time>
      </trkpt>
      <trkpt lat="47.885246286168694" lon="14.550789864733815">
        <ele>347.79998779296898</ele>
        <time>2012-10-22T06:43:50Z</time>
      </trkpt>
      <trkpt lat="47.885227175429463" lon="14.550624825060368">
        <ele>346.60000610351602</ele>
        <time>2012-10-22T06:43:51Z</time>
      </trkpt>
      <trkpt lat="47.885211920365691" lon="14.550453163683414">
        <ele>345.60000610351602</ele>
        <time>2012-10-22T06:43:52Z</time>
      </trkpt>
      <trkpt lat="47.885185265913606" lon="14.550277730450034">
        <ele>344.60000610351602</ele>
        <time>2012-10-22T06:43:53Z</time>
      </trkpt>
      <trkpt lat="47.885158527642488" lon="14.550102213397622">
        <ele>343.39999389648398</ele>
        <time>2012-10-22T06:43:54Z</time>
      </trkpt>
      <trkpt lat="47.885131873190403" lon="14.549910519272089">
        <ele>342.39999389648398</ele>
        <time>2012-10-22T06:43:55Z</time>
      </trkpt>
      <trkpt lat="47.885105134919286" lon="14.549736008048058">
        <ele>341.20001220703102</ele>
        <time>2012-10-22T06:43:56Z</time>
      </trkpt>
      <trkpt lat="47.885074624791741" lon="14.549566274508834">
        <ele>340</ele>
        <time>2012-10-22T06:43:57Z</time>
      </trkpt>
      <trkpt lat="47.885036487132311" lon="14.549406012520194">
        <ele>338.79998779296898</ele>
        <time>2012-10-22T06:43:58Z</time>
      </trkpt>
      <trkpt lat="47.884994493797421" lon="14.549261089414358">
        <ele>337.60000610351602</ele>
        <time>2012-10-22T06:43:59Z</time>
      </trkpt>
      <trkpt lat="47.884944956749678" lon="14.549123793840408">
        <ele>336.39999389648398</ele>
        <time>2012-10-22T06:44:00Z</time>
      </trkpt>
      <trkpt lat="47.884899107739329" lon="14.548995969817042">
        <ele>335.20001220703102</ele>
        <time>2012-10-22T06:44:01Z</time>
      </trkpt>
      <trkpt lat="47.884857198223472" lon="14.548850040882826">
        <ele>334</ele>
        <time>2012-10-22T06:44:02Z</time>
      </trkpt>
      <trkpt lat="47.884826688095927" lon="14.548717522993684">
        <ele>333</ele>
        <time>2012-10-22T06:44:03Z</time>
      </trkpt>
      <trkpt lat="47.884803805500269" lon="14.548594476655126">
        <ele>331.79998779296898</ele>
        <time>2012-10-22T06:44:04Z</time>
      </trkpt>
      <trkpt lat="47.884773295372725" lon="14.548480063676834">
        <ele>330.79998779296898</ele>
        <time>2012-10-22T06:44:05Z</time>
      </trkpt>
      <trkpt lat="47.884742701426148" lon="14.548378977924585">
        <ele>329.60000610351602</ele>
        <time>2012-10-22T06:44:06Z</time>
      </trkpt>
      <trkpt lat="47.884712191298604" lon="14.548297841101885">
        <ele>328.79998779296898</ele>
        <time>2012-10-22T06:44:07Z</time>
      </trkpt>
      <trkpt lat="47.884666426107287" lon="14.548235898837447">
        <ele>327.79998779296898</ele>
        <time>2012-10-22T06:44:08Z</time>
      </trkpt>
      <trkpt lat="47.884616889059544" lon="14.548192983493209">
        <ele>326.79998779296898</ele>
        <time>2012-10-22T06:44:09Z</time>
      </trkpt>
      <trkpt lat="47.884567268192768" lon="14.548152917996049">
        <ele>326</ele>
        <time>2012-10-22T06:44:10Z</time>
      </trkpt>
      <trkpt lat="47.884517647325993" lon="14.548129113391042">
        <ele>325</ele>
        <time>2012-10-22T06:44:11Z</time>
      </trkpt>
      <trkpt lat="47.884479509666562" lon="14.548107152804732">
        <ele>324.60000610351602</ele>
        <time>2012-10-22T06:44:12Z</time>
      </trkpt>
      <trkpt lat="47.884456627070904" lon="14.548087120056152">
        <ele>324.20001220703102</ele>
        <time>2012-10-22T06:44:13Z</time>
      </trkpt>
      <trkpt lat="47.884437600150704" lon="14.548069015145302">
        <ele>323.60000610351602</ele>
        <time>2012-10-22T06:44:14Z</time>
      </trkpt>
      <trkpt lat="47.884437600150704" lon="14.548055687919259">
        <ele>323.20001220703102</ele>
        <time>2012-10-22T06:44:15Z</time>
      </trkpt>
      <trkpt lat="47.884433744475245" lon="14.548044204711914">
        <ele>322.79998779296898</ele>
        <time>2012-10-22T06:44:16Z</time>
      </trkpt>
      <trkpt lat="47.884395606815815" lon="14.547910680994391">
        <ele>322.79998779296898</ele>
        <time>2012-10-22T06:44:19Z</time>
      </trkpt>
      <trkpt lat="47.884345985949039" lon="14.547583619132638">
        <ele>322.79998779296898</ele>
        <time>2012-10-22T06:44:24Z</time>
      </trkpt>
      <trkpt lat="47.884277338162065" lon="14.547299388796091">
        <ele>322.39999389648398</ele>
        <time>2012-10-22T06:44:28Z</time>
      </trkpt>
      <trkpt lat="47.884254455566406" lon="14.547224957495928">
        <ele>322</ele>
        <time>2012-10-22T06:44:29Z</time>
      </trkpt>
      <trkpt lat="47.884231572970748" lon="14.547147760167718">
        <ele>321.60000610351602</ele>
        <time>2012-10-22T06:44:30Z</time>
      </trkpt>
      <trkpt lat="47.884201062843204" lon="14.547071484848857">
        <ele>321.20001220703102</ele>
        <time>2012-10-22T06:44:31Z</time>
      </trkpt>
      <trkpt lat="47.8841666970402" lon="14.546998059377074">
        <ele>320.79998779296898</ele>
        <time>2012-10-22T06:44:32Z</time>
      </trkpt>
      <trkpt lat="47.884006518870592" lon="14.546695724129677">
        <ele>319.79998779296898</ele>
        <time>2012-10-22T06:44:36Z</time>
      </trkpt>
      <trkpt lat="47.883960753679276" lon="14.546626070514321">
        <ele>319.39999389648398</ele>
        <time>2012-10-22T06:44:37Z</time>
      </trkpt>
      <trkpt lat="47.8839111328125" lon="14.546556500717998">
        <ele>318.79998779296898</ele>
        <time>2012-10-22T06:44:38Z</time>
      </trkpt>
      <trkpt lat="47.883853884413838" lon="14.546482069417834">
        <ele>318.39999389648398</ele>
        <time>2012-10-22T06:44:39Z</time>
      </trkpt>
      <trkpt lat="47.883789092302322" lon="14.546403866261244">
        <ele>318</ele>
        <time>2012-10-22T06:44:40Z</time>
      </trkpt>
      <trkpt lat="47.883724216371775" lon="14.546324741095304">
        <ele>317.60000610351602</ele>
        <time>2012-10-22T06:44:41Z</time>
      </trkpt>
      <trkpt lat="47.883659340441227" lon="14.546252237632871">
        <ele>317.20001220703102</ele>
        <time>2012-10-22T06:44:42Z</time>
      </trkpt>
      <trkpt lat="47.883598320186138" lon="14.546178812161088">
        <ele>316.79998779296898</ele>
        <time>2012-10-22T06:44:43Z</time>
      </trkpt>
      <trkpt lat="47.88353344425559" lon="14.546108236536384">
        <ele>316.39999389648398</ele>
        <time>2012-10-22T06:44:44Z</time>
      </trkpt>
      <trkpt lat="47.883480051532388" lon="14.546040510758758">
        <ele>315.79998779296898</ele>
        <time>2012-10-22T06:44:45Z</time>
      </trkpt>
      <trkpt lat="47.883430514484644" lon="14.545979490503669">
        <ele>315.39999389648398</ele>
        <time>2012-10-22T06:44:46Z</time>
      </trkpt>
      <trkpt lat="47.883384665474296" lon="14.545923247933388">
        <ele>315</ele>
        <time>2012-10-22T06:44:47Z</time>
      </trkpt>
      <trkpt lat="47.883338900282979" lon="14.545872705057263">
        <ele>314.60000610351602</ele>
        <time>2012-10-22T06:44:48Z</time>
      </trkpt>
      <trkpt lat="47.883300762623549" lon="14.545823084190488">
        <ele>314.20001220703102</ele>
        <time>2012-10-22T06:44:49Z</time>
      </trkpt>
      <trkpt lat="47.883182493969798" lon="14.545699115842581">
        <ele>314.20001220703102</ele>
        <time>2012-10-22T06:44:52Z</time>
      </trkpt>
      <trkpt lat="47.883098591119051" lon="14.545711521059275">
        <ele>314.20001220703102</ele>
        <time>2012-10-22T06:44:54Z</time>
      </trkpt>
      <trkpt lat="47.883003205060959" lon="14.545807829126716">
        <ele>314.20001220703102</ele>
        <time>2012-10-22T06:44:57Z</time>
      </trkpt>
      <trkpt lat="47.882972694933414" lon="14.545832639560103">
        <ele>314.20001220703102</ele>
        <time>2012-10-22T06:44:58Z</time>
      </trkpt>
      <trkpt lat="47.882797261700034" lon="14.545972784981132">
        <ele>314.20001220703102</ele>
        <time>2012-10-22T06:45:04Z</time>
      </trkpt>
      <trkpt lat="47.882614117115736" lon="14.546105386689305">
        <ele>314.20001220703102</ele>
        <time>2012-10-22T06:45:10Z</time>
      </trkpt>
      <trkpt lat="47.882457710802555" lon="14.546215021982789">
        <ele>314.20001220703102</ele>
        <time>2012-10-22T06:45:15Z</time>
      </trkpt>
      <trkpt lat="47.882411945611238" lon="14.546225583180785">
        <ele>314.20001220703102</ele>
        <time>2012-10-22T06:45:17Z</time>
      </trkpt>
      <trkpt lat="47.882366180419922" lon="14.546204544603825">
        <ele>314.20001220703102</ele>
        <time>2012-10-22T06:45:19Z</time>
      </trkpt>
      <trkpt lat="47.882320415228605" lon="14.546179734170437">
        <ele>314.20001220703102</ele>
        <time>2012-10-22T06:45:21Z</time>
      </trkpt>
      <trkpt lat="47.882259394973516" lon="14.546048138290644">
        <ele>314.20001220703102</ele>
        <time>2012-10-22T06:45:25Z</time>
      </trkpt>
      <trkpt lat="47.882236512377858" lon="14.54595853574574">
        <ele>314.20001220703102</ele>
        <time>2012-10-22T06:45:28Z</time>
      </trkpt>
      <trkpt lat="47.882221257314086" lon="14.545903215184808">
        <ele>314.20001220703102</ele>
        <time>2012-10-22T06:45:30Z</time>
      </trkpt>
      <trkpt lat="47.882164008915424" lon="14.545727698132396">
        <ele>314.20001220703102</ele>
        <time>2012-10-22T06:45:35Z</time>
      </trkpt>
      <trkpt lat="47.882080106064677" lon="14.545470206066966">
        <ele>314.20001220703102</ele>
        <time>2012-10-22T06:45:41Z</time>
      </trkpt>
      <trkpt lat="47.881961837410927" lon="14.54520508646965">
        <ele>314.20001220703102</ele>
        <time>2012-10-22T06:45:48Z</time>
      </trkpt>
      <trkpt lat="47.881946582347155" lon="14.545171726495028">
        <ele>314.60000610351602</ele>
        <time>2012-10-22T06:45:49Z</time>
      </trkpt>
      <trkpt lat="47.881923699751496" lon="14.545144066214561">
        <ele>315</ele>
        <time>2012-10-22T06:45:50Z</time>
      </trkpt>
      <trkpt lat="47.881908444687724" lon="14.54510978423059">
        <ele>315.39999389648398</ele>
        <time>2012-10-22T06:45:51Z</time>
      </trkpt>
      <trkpt lat="47.881889333948493" lon="14.545073490589857">
        <ele>316.20001220703102</ele>
        <time>2012-10-22T06:45:52Z</time>
      </trkpt>
      <trkpt lat="47.881858823820949" lon="14.544999143108726">
        <ele>316.20001220703102</ele>
        <time>2012-10-22T06:45:54Z</time>
      </trkpt>
      <trkpt lat="47.881740555167198" lon="14.544738801196218">
        <ele>316.20001220703102</ele>
        <time>2012-10-22T06:46:02Z</time>
      </trkpt>
      <trkpt lat="47.881694789975882" lon="14.544636709615588">
        <ele>316.60000610351602</ele>
        <time>2012-10-22T06:46:05Z</time>
      </trkpt>
      <trkpt lat="47.88167567923665" lon="14.544604271650314">
        <ele>317</ele>
        <time>2012-10-22T06:46:06Z</time>
      </trkpt>
      <trkpt lat="47.881664279848337" lon="14.544572839513421">
        <ele>317.39999389648398</ele>
        <time>2012-10-22T06:46:07Z</time>
      </trkpt>
      <trkpt lat="47.881652796640992" lon="14.544535623863339">
        <ele>318</ele>
        <time>2012-10-22T06:46:08Z</time>
      </trkpt>
      <trkpt lat="47.881641397252679" lon="14.544499414041638">
        <ele>318.39999389648398</ele>
        <time>2012-10-22T06:46:09Z</time>
      </trkpt>
      <trkpt lat="47.881572749465704" lon="14.544165646657348">
        <ele>318.39999389648398</ele>
        <time>2012-10-22T06:46:16Z</time>
      </trkpt>
      <trkpt lat="47.881504017859697" lon="14.543759375810623">
        <ele>318.39999389648398</ele>
        <time>2012-10-22T06:46:22Z</time>
      </trkpt>
      <trkpt lat="47.881473507732153" lon="14.54334924928844">
        <ele>318.39999389648398</ele>
        <time>2012-10-22T06:46:28Z</time>
      </trkpt>
      <trkpt lat="47.881473507732153" lon="14.543286301195621">
        <ele>318.39999389648398</ele>
        <time>2012-10-22T06:46:29Z</time>
      </trkpt>
      <trkpt lat="47.881439225748181" lon="14.542624466121197">
        <ele>318.39999389648398</ele>
        <time>2012-10-22T06:46:41Z</time>
      </trkpt>
      <trkpt lat="47.881439225748181" lon="14.5425586681813">
        <ele>318.39999389648398</ele>
        <time>2012-10-22T06:46:42Z</time>
      </trkpt>
      <trkpt lat="47.881469735875726" lon="14.542052233591676">
        <ele>318.39999389648398</ele>
        <time>2012-10-22T06:46:49Z</time>
      </trkpt>
      <trkpt lat="47.881477363407612" lon="14.541975958272815">
        <ele>318</ele>
        <time>2012-10-22T06:46:50Z</time>
      </trkpt>
      <trkpt lat="47.881488762795925" lon="14.541899682953954">
        <ele>317.60000610351602</ele>
        <time>2012-10-22T06:46:51Z</time>
      </trkpt>
      <trkpt lat="47.881492618471384" lon="14.541825335472822">
        <ele>317.20001220703102</ele>
        <time>2012-10-22T06:46:52Z</time>
      </trkpt>
      <trkpt lat="47.88150024600327" lon="14.541751826182008">
        <ele>316.79998779296898</ele>
        <time>2012-10-22T06:46:53Z</time>
      </trkpt>
      <trkpt lat="47.881504017859697" lon="14.541680328547955">
        <ele>316.39999389648398</ele>
        <time>2012-10-22T06:46:54Z</time>
      </trkpt>
      <trkpt lat="47.881511729210615" lon="14.541533477604389">
        <ele>316.39999389648398</ele>
        <time>2012-10-22T06:46:56Z</time>
      </trkpt>
      <trkpt lat="47.88154223933816" lon="14.541027043014765">
        <ele>316.39999389648398</ele>
        <time>2012-10-22T06:47:03Z</time>
      </trkpt>
      <trkpt lat="47.881538383662701" lon="14.540957473218441">
        <ele>316.39999389648398</ele>
        <time>2012-10-22T06:47:04Z</time>
      </trkpt>
      <trkpt lat="47.881534611806273" lon="14.540664693340659">
        <ele>316.39999389648398</ele>
        <time>2012-10-22T06:47:08Z</time>
      </trkpt>
      <trkpt lat="47.881645169109106" lon="14.540466293692589">
        <ele>316.39999389648398</ele>
        <time>2012-10-22T06:47:12Z</time>
      </trkpt>
      <trkpt lat="47.881786320358515" lon="14.540376691147685">
        <ele>316.39999389648398</ele>
        <time>2012-10-22T06:47:15Z</time>
      </trkpt>
      <trkpt lat="47.881839713081717" lon="14.540340397506952">
        <ele>316</ele>
        <time>2012-10-22T06:47:16Z</time>
      </trkpt>
      <trkpt lat="47.881889333948493" lon="14.540303265675902">
        <ele>315.60000610351602</ele>
        <time>2012-10-22T06:47:17Z</time>
      </trkpt>
      <trkpt lat="47.88193509913981" lon="14.540264122188091">
        <ele>315.20001220703102</ele>
        <time>2012-10-22T06:47:18Z</time>
      </trkpt>
      <trkpt lat="47.881977092474699" lon="14.540220284834504">
        <ele>314.60000610351602</ele>
        <time>2012-10-22T06:47:19Z</time>
      </trkpt>
      <trkpt lat="47.882011374458671" lon="14.54016781412065">
        <ele>314.20001220703102</ele>
        <time>2012-10-22T06:47:20Z</time>
      </trkpt>
      <trkpt lat="47.882076250389218" lon="14.540088688954711">
        <ele>314.20001220703102</ele>
        <time>2012-10-22T06:47:22Z</time>
      </trkpt>
      <trkpt lat="47.882179263979197" lon="14.539960864931345">
        <ele>314.20001220703102</ele>
        <time>2012-10-22T06:47:27Z</time>
      </trkpt>
      <trkpt lat="47.882240284234285" lon="14.539881739765406">
        <ele>314.79998779296898</ele>
        <time>2012-10-22T06:47:31Z</time>
      </trkpt>
      <trkpt lat="47.88225176744163" lon="14.539855923503637">
        <ele>315.60000610351602</ele>
        <time>2012-10-22T06:47:32Z</time>
      </trkpt>
      <trkpt lat="47.882259394973516" lon="14.53983404673636">
        <ele>316</ele>
        <time>2012-10-22T06:47:33Z</time>
      </trkpt>
      <trkpt lat="47.882274650037289" lon="14.539813008159399">
        <ele>316.39999389648398</ele>
        <time>2012-10-22T06:47:34Z</time>
      </trkpt>
      <trkpt lat="47.882335670292377" lon="14.539722483605146">
        <ele>316.79998779296898</ele>
        <time>2012-10-22T06:47:38Z</time>
      </trkpt>
      <trkpt lat="47.88235092535615" lon="14.539697673171759">
        <ele>317.20001220703102</ele>
        <time>2012-10-22T06:47:39Z</time>
      </trkpt>
      <trkpt lat="47.882366180419922" lon="14.539675712585449">
        <ele>317.60000610351602</ele>
        <time>2012-10-22T06:47:40Z</time>
      </trkpt>
      <trkpt lat="47.882377663627267" lon="14.539655679836869">
        <ele>318</ele>
        <time>2012-10-22T06:47:41Z</time>
      </trkpt>
      <trkpt lat="47.882392918691039" lon="14.539642352610826">
        <ele>318.39999389648398</ele>
        <time>2012-10-22T06:47:42Z</time>
      </trkpt>
      <trkpt lat="47.882465338334441" lon="14.539539339020848">
        <ele>319</ele>
        <time>2012-10-22T06:47:47Z</time>
      </trkpt>
      <trkpt lat="47.882480593398213" lon="14.539521234109998">
        <ele>319.39999389648398</ele>
        <time>2012-10-22T06:47:48Z</time>
      </trkpt>
      <trkpt lat="47.882492076605558" lon="14.539510756731033">
        <ele>319.79998779296898</ele>
        <time>2012-10-22T06:47:49Z</time>
      </trkpt>
      <trkpt lat="47.882507331669331" lon="14.539506901055574">
        <ele>320.20001220703102</ele>
        <time>2012-10-22T06:47:50Z</time>
      </trkpt>
      <trkpt lat="47.882518731057644" lon="14.539490723982453">
        <ele>320.60000610351602</ele>
        <time>2012-10-22T06:47:51Z</time>
      </trkpt>
      <trkpt lat="47.882583606988192" lon="14.539440181106329">
        <ele>321</ele>
        <time>2012-10-22T06:47:55Z</time>
      </trkpt>
      <trkpt lat="47.882598862051964" lon="14.539432553574443">
        <ele>321.39999389648398</ele>
        <time>2012-10-22T06:47:56Z</time>
      </trkpt>
      <trkpt lat="47.882614117115736" lon="14.539420148357749">
        <ele>322.39999389648398</ele>
        <time>2012-10-22T06:47:57Z</time>
      </trkpt>
      <trkpt lat="47.882633227854967" lon="14.539407743141055">
        <ele>322.79998779296898</ele>
        <time>2012-10-22T06:47:58Z</time>
      </trkpt>
      <trkpt lat="47.882713358849287" lon="14.539346722885966">
        <ele>323.20001220703102</ele>
        <time>2012-10-22T06:48:03Z</time>
      </trkpt>
      <trkpt lat="47.8827247582376" lon="14.5393380895257">
        <ele>323.60000610351602</ele>
        <time>2012-10-22T06:48:04Z</time>
      </trkpt>
      <trkpt lat="47.882740013301373" lon="14.539329539984465">
        <ele>324</ele>
        <time>2012-10-22T06:48:05Z</time>
      </trkpt>
      <trkpt lat="47.882751496508718" lon="14.539330461993814">
        <ele>324.39999389648398</ele>
        <time>2012-10-22T06:48:06Z</time>
      </trkpt>
      <trkpt lat="47.882762895897031" lon="14.539324762299657">
        <ele>324.79998779296898</ele>
        <time>2012-10-22T06:48:07Z</time>
      </trkpt>
      <trkpt lat="47.88280488923192" lon="14.539294252172112">
        <ele>324.79998779296898</ele>
        <time>2012-10-22T06:48:09Z</time>
      </trkpt>
      <trkpt lat="47.882930785417557" lon="14.539190316572785">
        <ele>325.20001220703102</ele>
        <time>2012-10-22T06:48:15Z</time>
      </trkpt>
      <trkpt lat="47.882946040481329" lon="14.539177911356091">
        <ele>325.60000610351602</ele>
        <time>2012-10-22T06:48:16Z</time>
      </trkpt>
      <trkpt lat="47.882965067401528" lon="14.539163578301668">
        <ele>326.20001220703102</ele>
        <time>2012-10-22T06:48:17Z</time>
      </trkpt>
      <trkpt lat="47.882980322465301" lon="14.539141617715359">
        <ele>326.60000610351602</ele>
        <time>2012-10-22T06:48:18Z</time>
      </trkpt>
      <trkpt lat="47.882987949997187" lon="14.539122590795159">
        <ele>327</ele>
        <time>2012-10-22T06:48:19Z</time>
      </trkpt>
      <trkpt lat="47.883026087656617" lon="14.539056792855263">
        <ele>327</ele>
        <time>2012-10-22T06:48:22Z</time>
      </trkpt>
      <trkpt lat="47.883087191730738" lon="14.538893681019545">
        <ele>327</ele>
        <time>2012-10-22T06:48:28Z</time>
      </trkpt>
      <trkpt lat="47.883171094581485" lon="14.538578018546104">
        <ele>327</ele>
        <time>2012-10-22T06:48:35Z</time>
      </trkpt>
      <trkpt lat="47.883232114836574" lon="14.538212735205889">
        <ele>327</ele>
        <time>2012-10-22T06:48:40Z</time>
      </trkpt>
      <trkpt lat="47.883232114836574" lon="14.538140315562487">
        <ele>327</ele>
        <time>2012-10-22T06:48:41Z</time>
      </trkpt>
      <trkpt lat="47.883228342980146" lon="14.538060184568167">
        <ele>326.60000610351602</ele>
        <time>2012-10-22T06:48:42Z</time>
      </trkpt>
      <trkpt lat="47.883213004097342" lon="14.53797628171742">
        <ele>326</ele>
        <time>2012-10-22T06:48:43Z</time>
      </trkpt>
      <trkpt lat="47.88319774903357" lon="14.53789422288537">
        <ele>325.60000610351602</ele>
        <time>2012-10-22T06:48:44Z</time>
      </trkpt>
      <trkpt lat="47.883186349645257" lon="14.537818869575858">
        <ele>325</ele>
        <time>2012-10-22T06:48:45Z</time>
      </trkpt>
      <trkpt lat="47.883186349645257" lon="14.537747371941805">
        <ele>324.20001220703102</ele>
        <time>2012-10-22T06:48:46Z</time>
      </trkpt>
      <trkpt lat="47.883193977177143" lon="14.537674868479371">
        <ele>323.60000610351602</ele>
        <time>2012-10-22T06:48:47Z</time>
      </trkpt>
      <trkpt lat="47.883213004097342" lon="14.537613848224282">
        <ele>323.20001220703102</ele>
        <time>2012-10-22T06:48:48Z</time>
      </trkpt>
      <trkpt lat="47.883235970512033" lon="14.53755852766335">
        <ele>322.79998779296898</ele>
        <time>2012-10-22T06:48:49Z</time>
      </trkpt>
      <trkpt lat="47.883262624964118" lon="14.537508990615606">
        <ele>322.20001220703102</ele>
        <time>2012-10-22T06:48:50Z</time>
      </trkpt>
      <trkpt lat="47.883281735703349" lon="14.537456519901752">
        <ele>322.20001220703102</ele>
        <time>2012-10-22T06:48:51Z</time>
      </trkpt>
      <trkpt lat="47.883293135091662" lon="14.537397343665361">
        <ele>321.79998779296898</ele>
        <time>2012-10-22T06:48:52Z</time>
      </trkpt>
      <trkpt lat="47.883289363235235" lon="14.537344956770539">
        <ele>321.39999389648398</ele>
        <time>2012-10-22T06:48:53Z</time>
      </trkpt>
      <trkpt lat="47.88327788002789" lon="14.53730103559792">
        <ele>321</ele>
        <time>2012-10-22T06:48:54Z</time>
      </trkpt>
      <trkpt lat="47.883266480639577" lon="14.537261975929141">
        <ele>320.60000610351602</ele>
        <time>2012-10-22T06:48:55Z</time>
      </trkpt>
      <trkpt lat="47.883251225575805" lon="14.537229537963867">
        <ele>320.20001220703102</ele>
        <time>2012-10-22T06:48:56Z</time>
      </trkpt>
      <trkpt lat="47.883235970512033" lon="14.537193328142166">
        <ele>320.20001220703102</ele>
        <time>2012-10-22T06:48:57Z</time>
      </trkpt>
      <trkpt lat="47.883209232240915" lon="14.53712753020227">
        <ele>320.20001220703102</ele>
        <time>2012-10-22T06:48:59Z</time>
      </trkpt>
      <trkpt lat="47.883079564198852" lon="14.536986378952861">
        <ele>320.20001220703102</ele>
        <time>2012-10-22T06:49:05Z</time>
      </trkpt>
      <trkpt lat="47.882934557273984" lon="14.536876659840345">
        <ele>321</ele>
        <time>2012-10-22T06:49:11Z</time>
      </trkpt>
      <trkpt lat="47.882919302210212" lon="14.536856627091765">
        <ele>321.39999389648398</ele>
        <time>2012-10-22T06:49:12Z</time>
      </trkpt>
      <trkpt lat="47.882896419614553" lon="14.536839444190264">
        <ele>321.79998779296898</ele>
        <time>2012-10-22T06:49:13Z</time>
      </trkpt>
      <trkpt lat="47.88288502022624" lon="14.536820417270064">
        <ele>322.20001220703102</ele>
        <time>2012-10-22T06:49:14Z</time>
      </trkpt>
      <trkpt lat="47.882797261700034" lon="14.536707848310471">
        <ele>322.79998779296898</ele>
        <time>2012-10-22T06:49:19Z</time>
      </trkpt>
      <trkpt lat="47.882774379104376" lon="14.536690749228001">
        <ele>323.20001220703102</ele>
        <time>2012-10-22T06:49:20Z</time>
      </trkpt>
      <trkpt lat="47.882759124040604" lon="14.536672560498118">
        <ele>323.60000610351602</ele>
        <time>2012-10-22T06:49:21Z</time>
      </trkpt>
      <trkpt lat="47.882740013301373" lon="14.536657305434346">
        <ele>324</ele>
        <time>2012-10-22T06:49:22Z</time>
      </trkpt>
      <trkpt lat="47.8827247582376" lon="14.536636350676417">
        <ele>324.39999389648398</ele>
        <time>2012-10-22T06:49:23Z</time>
      </trkpt>
      <trkpt lat="47.882667509838939" lon="14.536580108106136">
        <ele>324.79998779296898</ele>
        <time>2012-10-22T06:49:26Z</time>
      </trkpt>
      <trkpt lat="47.882648482918739" lon="14.536557225510478">
        <ele>325.20001220703102</ele>
        <time>2012-10-22T06:49:27Z</time>
      </trkpt>
      <trkpt lat="47.882629372179508" lon="14.536536186933517">
        <ele>325.60000610351602</ele>
        <time>2012-10-22T06:49:28Z</time>
      </trkpt>
      <trkpt lat="47.88260648958385" lon="14.536523781716824">
        <ele>326</ele>
        <time>2012-10-22T06:49:29Z</time>
      </trkpt>
      <trkpt lat="47.882587462663651" lon="14.536504754796624">
        <ele>326.39999389648398</ele>
        <time>2012-10-22T06:49:30Z</time>
      </trkpt>
      <trkpt lat="47.88252635858953" lon="14.536458989605308">
        <ele>326.39999389648398</ele>
        <time>2012-10-22T06:49:33Z</time>
      </trkpt>
      <trkpt lat="47.882507331669331" lon="14.536442728713155">
        <ele>326.79998779296898</ele>
        <time>2012-10-22T06:49:34Z</time>
      </trkpt>
      <trkpt lat="47.882492076605558" lon="14.536420851945877">
        <ele>327.60000610351602</ele>
        <time>2012-10-22T06:49:35Z</time>
      </trkpt>
      <trkpt lat="47.882472965866327" lon="14.536405596882105">
        <ele>328.20001220703102</ele>
        <time>2012-10-22T06:49:36Z</time>
      </trkpt>
      <trkpt lat="47.882450083270669" lon="14.536396963521838">
        <ele>328.60000610351602</ele>
        <time>2012-10-22T06:49:37Z</time>
      </trkpt>
      <trkpt lat="47.88238906301558" lon="14.536366453394294">
        <ele>329</ele>
        <time>2012-10-22T06:49:40Z</time>
      </trkpt>
      <trkpt lat="47.882373807951808" lon="14.536346420645714">
        <ele>329.39999389648398</ele>
        <time>2012-10-22T06:49:41Z</time>
      </trkpt>
      <trkpt lat="47.88235092535615" lon="14.536330243572593">
        <ele>329.79998779296898</ele>
        <time>2012-10-22T06:49:42Z</time>
      </trkpt>
      <trkpt lat="47.882331814616919" lon="14.536317838355899">
        <ele>330.20001220703102</ele>
        <time>2012-10-22T06:49:43Z</time>
      </trkpt>
      <trkpt lat="47.882312787696719" lon="14.536305433139205">
        <ele>330.60000610351602</ele>
        <time>2012-10-22T06:49:44Z</time>
      </trkpt>
      <trkpt lat="47.882263166829944" lon="14.53625681810081">
        <ele>330.60000610351602</ele>
        <time>2012-10-22T06:49:47Z</time>
      </trkpt>
      <trkpt lat="47.882125871255994" lon="14.536046013236046">
        <ele>330.60000610351602</ele>
        <time>2012-10-22T06:49:54Z</time>
      </trkpt>
      <trkpt lat="47.882060995325446" lon="14.535833364352584">
        <ele>330.60000610351602</ele>
        <time>2012-10-22T06:49:58Z</time>
      </trkpt>
      <trkpt lat="47.882068622857332" lon="14.53568366356194">
        <ele>330.60000610351602</ele>
        <time>2012-10-22T06:50:00Z</time>
      </trkpt>
      <trkpt lat="47.882110616192222" lon="14.535500518977642">
        <ele>330.20001220703102</ele>
        <time>2012-10-22T06:50:02Z</time>
      </trkpt>
      <trkpt lat="47.882125871255994" lon="14.535414688289165">
        <ele>329.79998779296898</ele>
        <time>2012-10-22T06:50:03Z</time>
      </trkpt>
      <trkpt lat="47.882137270644307" lon="14.535333635285497">
        <ele>329.20001220703102</ele>
        <time>2012-10-22T06:50:04Z</time>
      </trkpt>
      <trkpt lat="47.882152525708079" lon="14.535256354138255">
        <ele>328.79998779296898</ele>
        <time>2012-10-22T06:50:05Z</time>
      </trkpt>
      <trkpt lat="47.882156381383538" lon="14.535180078819394">
        <ele>328.39999389648398</ele>
        <time>2012-10-22T06:50:06Z</time>
      </trkpt>
      <trkpt lat="47.88213349878788" lon="14.534881599247456">
        <ele>328</ele>
        <time>2012-10-22T06:50:10Z</time>
      </trkpt>
      <trkpt lat="47.882118243724108" lon="14.534802474081516">
        <ele>327.39999389648398</ele>
        <time>2012-10-22T06:50:11Z</time>
      </trkpt>
      <trkpt lat="47.882102988660336" lon="14.534726114943624">
        <ele>327</ele>
        <time>2012-10-22T06:50:12Z</time>
      </trkpt>
      <trkpt lat="47.882076250389218" lon="14.534649839624763">
        <ele>326.60000610351602</ele>
        <time>2012-10-22T06:50:13Z</time>
      </trkpt>
      <trkpt lat="47.882049595937133" lon="14.534575492143631">
        <ele>326.20001220703102</ele>
        <time>2012-10-22T06:50:14Z</time>
      </trkpt>
      <trkpt lat="47.881988491863012" lon="14.534425707533956">
        <ele>326.20001220703102</ele>
        <time>2012-10-22T06:50:16Z</time>
      </trkpt>
      <trkpt lat="47.881855051964521" lon="14.534106273204088">
        <ele>325.79998779296898</ele>
        <time>2012-10-22T06:50:20Z</time>
      </trkpt>
      <trkpt lat="47.881828313693404" lon="14.534019436687231">
        <ele>325.39999389648398</ele>
        <time>2012-10-22T06:50:21Z</time>
      </trkpt>
      <trkpt lat="47.881805431097746" lon="14.533928912132978">
        <ele>325</ele>
        <time>2012-10-22T06:50:22Z</time>
      </trkpt>
      <trkpt lat="47.881782548502088" lon="14.533834448084235">
        <ele>324.60000610351602</ele>
        <time>2012-10-22T06:50:23Z</time>
      </trkpt>
      <trkpt lat="47.881767293438315" lon="14.533736212179065">
        <ele>324.20001220703102</ele>
        <time>2012-10-22T06:50:24Z</time>
      </trkpt>
      <trkpt lat="47.881748182699084" lon="14.533528340980411">
        <ele>323.79998779296898</ele>
        <time>2012-10-22T06:50:26Z</time>
      </trkpt>
      <trkpt lat="47.881752038374543" lon="14.533425327390432">
        <ele>323.39999389648398</ele>
        <time>2012-10-22T06:50:27Z</time>
      </trkpt>
      <trkpt lat="47.88175581023097" lon="14.533325163647532">
        <ele>323</ele>
        <time>2012-10-22T06:50:28Z</time>
      </trkpt>
      <trkpt lat="47.881771065294743" lon="14.53323170542717">
        <ele>322.60000610351602</ele>
        <time>2012-10-22T06:50:29Z</time>
      </trkpt>
      <trkpt lat="47.881790176033974" lon="14.533138247206807">
        <ele>322.20001220703102</ele>
        <time>2012-10-22T06:50:30Z</time>
      </trkpt>
      <trkpt lat="47.881809202954173" lon="14.533060044050217">
        <ele>322.20001220703102</ele>
        <time>2012-10-22T06:50:31Z</time>
      </trkpt>
      <trkpt lat="47.881820686161518" lon="14.532981840893626">
        <ele>322.20001220703102</ele>
        <time>2012-10-22T06:50:32Z</time>
      </trkpt>
      <trkpt lat="47.881866451352835" lon="14.532725354656577">
        <ele>321.79998779296898</ele>
        <time>2012-10-22T06:50:35Z</time>
      </trkpt>
      <trkpt lat="47.881870307028294" lon="14.53264145180583">
        <ele>321.39999389648398</ele>
        <time>2012-10-22T06:50:36Z</time>
      </trkpt>
      <trkpt lat="47.881866451352835" lon="14.532556543126702">
        <ele>321</ele>
        <time>2012-10-22T06:50:37Z</time>
      </trkpt>
      <trkpt lat="47.881858823820949" lon="14.53248311765492">
        <ele>320.60000610351602</ele>
        <time>2012-10-22T06:50:38Z</time>
      </trkpt>
      <trkpt lat="47.88183594122529" lon="14.532413464039564">
        <ele>320</ele>
        <time>2012-10-22T06:50:39Z</time>
      </trkpt>
      <trkpt lat="47.881786320358515" lon="14.532355293631554">
        <ele>320</ele>
        <time>2012-10-22T06:50:40Z</time>
      </trkpt>
      <trkpt lat="47.881736783310771" lon="14.532299973070621">
        <ele>320</ele>
        <time>2012-10-22T06:50:41Z</time>
      </trkpt>
      <trkpt lat="47.881641397252679" lon="14.532206514850259">
        <ele>320</ele>
        <time>2012-10-22T06:50:43Z</time>
      </trkpt>
      <trkpt lat="47.881557494401932" lon="14.532084474340081">
        <ele>320</ele>
        <time>2012-10-22T06:50:45Z</time>
      </trkpt>
      <trkpt lat="47.881523128598928" lon="14.532015826553106">
        <ele>320</ele>
        <time>2012-10-22T06:50:46Z</time>
      </trkpt>
      <trkpt lat="47.881496390327811" lon="14.531953800469637">
        <ele>319.60000610351602</ele>
        <time>2012-10-22T06:50:47Z</time>
      </trkpt>
      <trkpt lat="47.881488762795925" lon="14.53188800252974">
        <ele>319.20001220703102</ele>
        <time>2012-10-22T06:50:48Z</time>
      </trkpt>
      <trkpt lat="47.88150024600327" lon="14.531815499067307">
        <ele>318.79998779296898</ele>
        <time>2012-10-22T06:50:49Z</time>
      </trkpt>
      <trkpt lat="47.881515501067042" lon="14.531747857108712">
        <ele>317.79998779296898</ele>
        <time>2012-10-22T06:50:50Z</time>
      </trkpt>
      <trkpt lat="47.881553638726473" lon="14.531609555706382">
        <ele>317.79998779296898</ele>
        <time>2012-10-22T06:50:52Z</time>
      </trkpt>
      <trkpt lat="47.881572749465704" lon="14.531531352549791">
        <ele>317.79998779296898</ele>
        <time>2012-10-22T06:50:53Z</time>
      </trkpt>
      <trkpt lat="47.881603259593248" lon="14.53137687407434">
        <ele>317.79998779296898</ele>
        <time>2012-10-22T06:50:55Z</time>
      </trkpt>
      <trkpt lat="47.881652796640992" lon="14.530982002615929">
        <ele>317.79998779296898</ele>
        <time>2012-10-22T06:50:59Z</time>
      </trkpt>
      <trkpt lat="47.881656652316451" lon="14.530888544395566">
        <ele>317.39999389648398</ele>
        <time>2012-10-22T06:51:00Z</time>
      </trkpt>
      <trkpt lat="47.881641397252679" lon="14.530801791697741">
        <ele>317</ele>
        <time>2012-10-22T06:51:01Z</time>
      </trkpt>
      <trkpt lat="47.881614658981562" lon="14.530714955180883">
        <ele>316.60000610351602</ele>
        <time>2012-10-22T06:51:02Z</time>
      </trkpt>
      <trkpt lat="47.881584148854017" lon="14.530632058158517">
        <ele>316.20001220703102</ele>
        <time>2012-10-22T06:51:03Z</time>
      </trkpt>
      <trkpt lat="47.881557494401932" lon="14.530551927164197">
        <ele>315.79998779296898</ele>
        <time>2012-10-22T06:51:04Z</time>
      </trkpt>
      <trkpt lat="47.881488762795925" lon="14.530385043472052">
        <ele>315.79998779296898</ele>
        <time>2012-10-22T06:51:06Z</time>
      </trkpt>
      <trkpt lat="47.881435370072722" lon="14.53019049949944">
        <ele>315.39999389648398</ele>
        <time>2012-10-22T06:51:08Z</time>
      </trkpt>
      <trkpt lat="47.881412487477064" lon="14.530087485909462">
        <ele>315</ele>
        <time>2012-10-22T06:51:09Z</time>
      </trkpt>
      <trkpt lat="47.881389604881406" lon="14.529980700463057">
        <ele>314.39999389648398</ele>
        <time>2012-10-22T06:51:10Z</time>
      </trkpt>
      <trkpt lat="47.881378205493093" lon="14.529876681044698">
        <ele>314</ele>
        <time>2012-10-22T06:51:11Z</time>
      </trkpt>
      <trkpt lat="47.88136295042932" lon="14.529767967760563">
        <ele>313.60000610351602</ele>
        <time>2012-10-22T06:51:12Z</time>
      </trkpt>
      <trkpt lat="47.881359094753861" lon="14.529649699106812">
        <ele>313.20001220703102</ele>
        <time>2012-10-22T06:51:13Z</time>
      </trkpt>
      <trkpt lat="47.881359094753861" lon="14.529527658596635">
        <ele>312.20001220703102</ele>
        <time>2012-10-22T06:51:14Z</time>
      </trkpt>
      <trkpt lat="47.881359094753861" lon="14.529415089637041">
        <ele>311.60000610351602</ele>
        <time>2012-10-22T06:51:15Z</time>
      </trkpt>
      <trkpt lat="47.881351467221975" lon="14.529295898973942">
        <ele>311</ele>
        <time>2012-10-22T06:51:16Z</time>
      </trkpt>
      <trkpt lat="47.881340067833662" lon="14.529173858463764">
        <ele>310.60000610351602</ele>
        <time>2012-10-22T06:51:17Z</time>
      </trkpt>
      <trkpt lat="47.881324728950858" lon="14.529059445485473">
        <ele>310</ele>
        <time>2012-10-22T06:51:18Z</time>
      </trkpt>
      <trkpt lat="47.881298074498773" lon="14.52894595451653">
        <ele>309.60000610351602</ele>
        <time>2012-10-22T06:51:19Z</time>
      </trkpt>
      <trkpt lat="47.881263708695769" lon="14.528840091079473">
        <ele>309</ele>
        <time>2012-10-22T06:51:20Z</time>
      </trkpt>
      <trkpt lat="47.881187433376908" lon="14.528629286214709">
        <ele>308.60000610351602</ele>
        <time>2012-10-22T06:51:22Z</time>
      </trkpt>
      <trkpt lat="47.881153067573905" lon="14.528529206290841">
        <ele>308.20001220703102</ele>
        <time>2012-10-22T06:51:23Z</time>
      </trkpt>
      <trkpt lat="47.881114929914474" lon="14.528425186872482">
        <ele>307.60000610351602</ele>
        <time>2012-10-22T06:51:24Z</time>
      </trkpt>
      <trkpt lat="47.881076792255044" lon="14.528319323435426">
        <ele>307.20001220703102</ele>
        <time>2012-10-22T06:51:25Z</time>
      </trkpt>
      <trkpt lat="47.881042510271072" lon="14.528220165520906">
        <ele>306.79998779296898</ele>
        <time>2012-10-22T06:51:26Z</time>
      </trkpt>
      <trkpt lat="47.880928013473749" lon="14.527859659865499">
        <ele>306.79998779296898</ele>
        <time>2012-10-22T06:51:30Z</time>
      </trkpt>
      <trkpt lat="47.880802117288113" lon="14.527379041537642">
        <ele>306.79998779296898</ele>
        <time>2012-10-22T06:51:36Z</time>
      </trkpt>
      <trkpt lat="47.880794489756227" lon="14.527302766218781">
        <ele>306.79998779296898</ele>
        <time>2012-10-22T06:51:37Z</time>
      </trkpt>
      <trkpt lat="47.880783090367913" lon="14.526964221149683">
        <ele>306.79998779296898</ele>
        <time>2012-10-22T06:51:41Z</time>
      </trkpt>
      <trkpt lat="47.880767835304141" lon="14.526658030226827">
        <ele>306.79998779296898</ele>
        <time>2012-10-22T06:51:45Z</time>
      </trkpt>
      <trkpt lat="47.880733469501138" lon="14.526524506509304">
        <ele>306.79998779296898</ele>
        <time>2012-10-22T06:51:47Z</time>
      </trkpt>
      <trkpt lat="47.880603801459074" lon="14.526038188487291">
        <ele>306.79998779296898</ele>
        <time>2012-10-22T06:51:55Z</time>
      </trkpt>
      <trkpt lat="47.88061142899096" lon="14.525959985330701">
        <ele>306.79998779296898</ele>
        <time>2012-10-22T06:51:57Z</time>
      </trkpt>
      <trkpt lat="47.880664821714163" lon="14.52592184767127">
        <ele>306.79998779296898</ele>
        <time>2012-10-22T06:51:59Z</time>
      </trkpt>
      <trkpt lat="47.880760207772255" lon="14.526001894846559">
        <ele>306.79998779296898</ele>
        <time>2012-10-22T06:52:03Z</time>
      </trkpt>
      <trkpt lat="47.880802117288113" lon="14.526075404137373">
        <ele>306.79998779296898</ele>
        <time>2012-10-22T06:52:05Z</time>
      </trkpt>
      <trkpt lat="47.880836483091116" lon="14.526147823780775">
        <ele>306.79998779296898</ele>
        <time>2012-10-22T06:52:07Z</time>
      </trkpt>
      <trkpt lat="47.880928013473749" lon="14.526429204270244">
        <ele>306.79998779296898</ele>
        <time>2012-10-22T06:52:13Z</time>
      </trkpt>
      <trkpt lat="47.880981406196952" lon="14.526669513434172">
        <ele>306.79998779296898</ele>
        <time>2012-10-22T06:52:18Z</time>
      </trkpt>
      <trkpt lat="47.881114929914474" lon="14.527000430971384">
        <ele>306.79998779296898</ele>
        <time>2012-10-22T06:52:25Z</time>
      </trkpt>
      <trkpt lat="47.881187433376908" lon="14.527155915275216">
        <ele>307.60000610351602</ele>
        <time>2012-10-22T06:52:28Z</time>
      </trkpt>
      <trkpt lat="47.881202688440681" lon="14.52720352448523">
        <ele>308</ele>
        <time>2012-10-22T06:52:29Z</time>
      </trkpt>
      <trkpt lat="47.881225571036339" lon="14.527257923036814">
        <ele>308.39999389648398</ele>
        <time>2012-10-22T06:52:30Z</time>
      </trkpt>
      <trkpt lat="47.881240826100111" lon="14.527301760390401">
        <ele>308.79998779296898</ele>
        <time>2012-10-22T06:52:31Z</time>
      </trkpt>
      <trkpt lat="47.8813018463552" lon="14.527454394847155">
        <ele>308.79998779296898</ele>
        <time>2012-10-22T06:52:34Z</time>
      </trkpt>
      <trkpt lat="47.881450625136495" lon="14.527831999585032">
        <ele>308.79998779296898</ele>
        <time>2012-10-22T06:52:42Z</time>
      </trkpt>
      <trkpt lat="47.881622286513448" lon="14.52811430208385">
        <ele>309.20001220703102</ele>
        <time>2012-10-22T06:52:49Z</time>
      </trkpt>
      <trkpt lat="47.881656652316451" lon="14.528141962364316">
        <ele>309.60000610351602</ele>
        <time>2012-10-22T06:52:50Z</time>
      </trkpt>
      <trkpt lat="47.881683390587568" lon="14.52817247249186">
        <ele>310.20001220703102</ele>
        <time>2012-10-22T06:52:51Z</time>
      </trkpt>
      <trkpt lat="47.881710045039654" lon="14.528202060610056">
        <ele>310.60000610351602</ele>
        <time>2012-10-22T06:52:52Z</time>
      </trkpt>
      <trkpt lat="47.881732927635312" lon="14.5282325707376">
        <ele>311</ele>
        <time>2012-10-22T06:52:53Z</time>
      </trkpt>
      <trkpt lat="47.881816830486059" lon="14.528348911553621">
        <ele>311</ele>
        <time>2012-10-22T06:52:57Z</time>
      </trkpt>
      <trkpt lat="47.881927471607924" lon="14.528531050309539">
        <ele>311.39999389648398</ele>
        <time>2012-10-22T06:53:03Z</time>
      </trkpt>
      <trkpt lat="47.881946582347155" lon="14.52856826595962">
        <ele>311.79998779296898</ele>
        <time>2012-10-22T06:53:04Z</time>
      </trkpt>
      <trkpt lat="47.881961837410927" lon="14.528601625934243">
        <ele>312.20001220703102</ele>
        <time>2012-10-22T06:53:05Z</time>
      </trkpt>
      <trkpt lat="47.88197323679924" lon="14.528639763593674">
        <ele>312.60000610351602</ele>
        <time>2012-10-22T06:53:06Z</time>
      </trkpt>
      <trkpt lat="47.881984720006585" lon="14.528674129396677">
        <ele>313</ele>
        <time>2012-10-22T06:53:07Z</time>
      </trkpt>
      <trkpt lat="47.88205336779356" lon="14.528931621462107">
        <ele>313</ele>
        <time>2012-10-22T06:53:14Z</time>
      </trkpt>
      <trkpt lat="47.882091505452991" lon="14.529047962278128">
        <ele>313.79998779296898</ele>
        <time>2012-10-22T06:53:18Z</time>
      </trkpt>
      <trkpt lat="47.882102988660336" lon="14.529075622558594">
        <ele>314.20001220703102</ele>
        <time>2012-10-22T06:53:19Z</time>
      </trkpt>
      <trkpt lat="47.882118243724108" lon="14.529102360829711">
        <ele>314.60000610351602</ele>
        <time>2012-10-22T06:53:20Z</time>
      </trkpt>
      <trkpt lat="47.882129643112421" lon="14.529129015281796">
        <ele>315</ele>
        <time>2012-10-22T06:53:21Z</time>
      </trkpt>
      <trkpt lat="47.882141126319766" lon="14.529155753552914">
        <ele>315</ele>
        <time>2012-10-22T06:53:22Z</time>
      </trkpt>
      <trkpt lat="47.882217401638627" lon="14.529393212869763">
        <ele>315</ele>
        <time>2012-10-22T06:53:30Z</time>
      </trkpt>
      <trkpt lat="47.882247911766171" lon="14.529548613354564">
        <ele>315.39999389648398</ele>
        <time>2012-10-22T06:53:35Z</time>
      </trkpt>
      <trkpt lat="47.88227079436183" lon="14.529588678851724">
        <ele>315.79998779296898</ele>
        <time>2012-10-22T06:53:36Z</time>
      </trkpt>
      <trkpt lat="47.882282277569175" lon="14.529620194807649">
        <ele>316.20001220703102</ele>
        <time>2012-10-22T06:53:37Z</time>
      </trkpt>
      <trkpt lat="47.882293676957488" lon="14.529648777097464">
        <ele>316.79998779296898</ele>
        <time>2012-10-22T06:53:38Z</time>
      </trkpt>
      <trkpt lat="47.88230893202126" lon="14.529678365215659">
        <ele>317.20001220703102</ele>
        <time>2012-10-22T06:53:39Z</time>
      </trkpt>
      <trkpt lat="47.882419573143125" lon="14.529788000509143">
        <ele>317.20001220703102</ele>
        <time>2012-10-22T06:53:45Z</time>
      </trkpt>
      <trkpt lat="47.882541697472334" lon="14.529877686873078">
        <ele>317.60000610351602</ele>
        <time>2012-10-22T06:53:51Z</time>
      </trkpt>
      <trkpt lat="47.882564580067992" lon="14.529891014099121">
        <ele>318</ele>
        <time>2012-10-22T06:53:52Z</time>
      </trkpt>
      <trkpt lat="47.882587462663651" lon="14.529901491478086">
        <ele>318.39999389648398</ele>
        <time>2012-10-22T06:53:53Z</time>
      </trkpt>
      <trkpt lat="47.882610345259309" lon="14.529910124838352">
        <ele>318.79998779296898</ele>
        <time>2012-10-22T06:53:54Z</time>
      </trkpt>
      <trkpt lat="47.882633227854967" lon="14.529914818704128">
        <ele>319.20001220703102</ele>
        <time>2012-10-22T06:53:55Z</time>
      </trkpt>
      <trkpt lat="47.8827247582376" lon="14.529914818704128">
        <ele>319.20001220703102</ele>
        <time>2012-10-22T06:53:59Z</time>
      </trkpt>
      <trkpt lat="47.882881164550781" lon="14.529905347153544">
        <ele>319.20001220703102</ele>
        <time>2012-10-22T06:54:06Z</time>
      </trkpt>
      <trkpt lat="47.88290404714644" lon="14.529901491478086">
        <ele>320</ele>
        <time>2012-10-22T06:54:07Z</time>
      </trkpt>
      <trkpt lat="47.882926929742098" lon="14.529895791783929">
        <ele>320.39999389648398</ele>
        <time>2012-10-22T06:54:08Z</time>
      </trkpt>
      <trkpt lat="47.882949812337756" lon="14.529890092089772">
        <ele>320.79998779296898</ele>
        <time>2012-10-22T06:54:09Z</time>
      </trkpt>
      <trkpt lat="47.882972694933414" lon="14.529884308576584">
        <ele>321.20001220703102</ele>
        <time>2012-10-22T06:54:10Z</time>
      </trkpt>
      <trkpt lat="47.883094819262624" lon="14.529835693538189">
        <ele>321.20001220703102</ele>
        <time>2012-10-22T06:54:15Z</time>
      </trkpt>
      <trkpt lat="47.883224487304688" lon="14.529726980254054">
        <ele>321.20001220703102</ele>
        <time>2012-10-22T06:54:20Z</time>
      </trkpt>
      <trkpt lat="47.883373266085982" lon="14.529571495950222">
        <ele>321.20001220703102</ele>
        <time>2012-10-22T06:54:25Z</time>
      </trkpt>
      <trkpt lat="47.883583065122366" lon="14.529262538999319">
        <ele>320.79998779296898</ele>
        <time>2012-10-22T06:54:31Z</time>
      </trkpt>
      <trkpt lat="47.883617430925369" lon="14.529209146276116">
        <ele>320</ele>
        <time>2012-10-22T06:54:32Z</time>
      </trkpt>
      <trkpt lat="47.8836555685848" lon="14.529156675562263">
        <ele>319.60000610351602</ele>
        <time>2012-10-22T06:54:33Z</time>
      </trkpt>
      <trkpt lat="47.883689850568771" lon="14.529105210676789">
        <ele>319.20001220703102</ele>
        <time>2012-10-22T06:54:34Z</time>
      </trkpt>
      <trkpt lat="47.883819602429867" lon="14.528883928433061">
        <ele>318.79998779296898</ele>
        <time>2012-10-22T06:54:38Z</time>
      </trkpt>
      <trkpt lat="47.883850112557411" lon="14.528831457719207">
        <ele>318.39999389648398</ele>
        <time>2012-10-22T06:54:39Z</time>
      </trkpt>
      <trkpt lat="47.883884394541383" lon="14.528779992833734">
        <ele>318</ele>
        <time>2012-10-22T06:54:40Z</time>
      </trkpt>
      <trkpt lat="47.883918760344386" lon="14.528729449957609">
        <ele>317.39999389648398</ele>
        <time>2012-10-22T06:54:41Z</time>
      </trkpt>
      <trkpt lat="47.883953126147389" lon="14.528676979243755">
        <ele>317</ele>
        <time>2012-10-22T06:54:42Z</time>
      </trkpt>
      <trkpt lat="47.884021773934364" lon="14.528567343950272">
        <ele>316.60000610351602</ele>
        <time>2012-10-22T06:54:44Z</time>
      </trkpt>
      <trkpt lat="47.884059911593795" lon="14.528512023389339">
        <ele>316.20001220703102</ele>
        <time>2012-10-22T06:54:45Z</time>
      </trkpt>
      <trkpt lat="47.884094277396798" lon="14.528459552675486">
        <ele>315.79998779296898</ele>
        <time>2012-10-22T06:54:46Z</time>
      </trkpt>
      <trkpt lat="47.884136186912656" lon="14.528404232114553">
        <ele>315.39999389648398</ele>
        <time>2012-10-22T06:54:47Z</time>
      </trkpt>
      <trkpt lat="47.884174324572086" lon="14.528354611247778">
        <ele>315</ele>
        <time>2012-10-22T06:54:48Z</time>
      </trkpt>
      <trkpt lat="47.884216317906976" lon="14.528305074200034">
        <ele>315</ele>
        <time>2012-10-22T06:54:49Z</time>
      </trkpt>
      <trkpt lat="47.884365096688271" lon="14.528207760304213">
        <ele>314.60000610351602</ele>
        <time>2012-10-22T06:54:51Z</time>
      </trkpt>
      <trkpt lat="47.884441372007132" lon="14.52815436758101">
        <ele>314</ele>
        <time>2012-10-22T06:54:52Z</time>
      </trkpt>
      <trkpt lat="47.884578667581081" lon="14.528072392567992">
        <ele>313.60000610351602</ele>
        <time>2012-10-22T06:54:53Z</time>
      </trkpt>
      <trkpt lat="47.884689308702946" lon="14.527990333735943">
        <ele>313.20001220703102</ele>
        <time>2012-10-22T06:54:54Z</time>
      </trkpt>
      <trkpt lat="47.884822832420468" lon="14.527911208570004">
        <ele>312.79998779296898</ele>
        <time>2012-10-22T06:54:55Z</time>
      </trkpt>
      <trkpt lat="47.885101279243827" lon="14.527766201645136">
        <ele>312.79998779296898</ele>
        <time>2012-10-22T06:54:57Z</time>
      </trkpt>
      <trkpt lat="47.885524732992053" lon="14.527597390115261">
        <ele>312.79998779296898</ele>
        <time>2012-10-22T06:55:00Z</time>
      </trkpt>
      <trkpt lat="47.885795552283525" lon="14.52718349173665">
        <ele>312.79998779296898</ele>
        <time>2012-10-22T06:55:05Z</time>
      </trkpt>
      <trkpt lat="47.885856656357646" lon="14.527034796774387">
        <ele>312.39999389648398</ele>
        <time>2012-10-22T06:55:07Z</time>
      </trkpt>
      <trkpt lat="47.885883310809731" lon="14.526962293311954">
        <ele>312</ele>
        <time>2012-10-22T06:55:08Z</time>
      </trkpt>
      <trkpt lat="47.885910049080849" lon="14.526893645524979">
        <ele>311.60000610351602</ele>
        <time>2012-10-22T06:55:09Z</time>
      </trkpt>
      <trkpt lat="47.885929076001048" lon="14.52683069743216">
        <ele>311.20001220703102</ele>
        <time>2012-10-22T06:55:10Z</time>
      </trkpt>
      <trkpt lat="47.885951958596706" lon="14.526766743510962">
        <ele>310.79998779296898</ele>
        <time>2012-10-22T06:55:11Z</time>
      </trkpt>
      <trkpt lat="47.886047344654799" lon="14.526367178186774">
        <ele>310.79998779296898</ele>
        <time>2012-10-22T06:55:18Z</time>
      </trkpt>
      <trkpt lat="47.886077854782343" lon="14.526224099099636">
        <ele>311.20001220703102</ele>
        <time>2012-10-22T06:55:21Z</time>
      </trkpt>
      <trkpt lat="47.886089337989688" lon="14.526176489889622">
        <ele>311.60000610351602</ele>
        <time>2012-10-22T06:55:22Z</time>
      </trkpt>
      <trkpt lat="47.886096965521574" lon="14.526130640879273">
        <ele>312</ele>
        <time>2012-10-22T06:55:23Z</time>
      </trkpt>
      <trkpt lat="47.886108364909887" lon="14.526084875687957">
        <ele>312.39999389648398</ele>
        <time>2012-10-22T06:55:24Z</time>
      </trkpt>
      <trkpt lat="47.886115992441773" lon="14.526038188487291">
        <ele>312.79998779296898</ele>
        <time>2012-10-22T06:55:25Z</time>
      </trkpt>
      <trkpt lat="47.886131247505546" lon="14.525950429961085">
        <ele>312.79998779296898</ele>
        <time>2012-10-22T06:55:27Z</time>
      </trkpt>
      <trkpt lat="47.88618472404778" lon="14.525631917640567">
        <ele>313.20001220703102</ele>
        <time>2012-10-22T06:55:35Z</time>
      </trkpt>
      <trkpt lat="47.886188495904207" lon="14.525592774152756">
        <ele>313.60000610351602</ele>
        <time>2012-10-22T06:55:36Z</time>
      </trkpt>
      <trkpt lat="47.886196123436093" lon="14.525551786646247">
        <ele>314</ele>
        <time>2012-10-22T06:55:37Z</time>
      </trkpt>
      <trkpt lat="47.886203750967979" lon="14.525511721149087">
        <ele>314.60000610351602</ele>
        <time>2012-10-22T06:55:38Z</time>
      </trkpt>
      <trkpt lat="47.886207606643438" lon="14.525474589318037">
        <ele>315</ele>
        <time>2012-10-22T06:55:39Z</time>
      </trkpt>
      <trkpt lat="47.886219006031752" lon="14.525299072265625">
        <ele>315</ele>
        <time>2012-10-22T06:55:44Z</time>
      </trkpt>
      <trkpt lat="47.886230489239097" lon="14.525193208828568">
        <ele>315.39999389648398</ele>
        <time>2012-10-22T06:55:47Z</time>
      </trkpt>
      <trkpt lat="47.886238116770983" lon="14.525158843025565">
        <ele>315.79998779296898</ele>
        <time>2012-10-22T06:55:48Z</time>
      </trkpt>
      <trkpt lat="47.88624188862741" lon="14.525123555213213">
        <ele>316.20001220703102</ele>
        <time>2012-10-22T06:55:49Z</time>
      </trkpt>
      <trkpt lat="47.886245744302869" lon="14.525086423382163">
        <ele>316.60000610351602</ele>
        <time>2012-10-22T06:55:50Z</time>
      </trkpt>
      <trkpt lat="47.886249516159296" lon="14.52505306340754">
        <ele>317</ele>
        <time>2012-10-22T06:55:51Z</time>
      </trkpt>
      <trkpt lat="47.886253371834755" lon="14.525018697604537">
        <ele>317</ele>
        <time>2012-10-22T06:55:52Z</time>
      </trkpt>
      <trkpt lat="47.886272398754954" lon="14.524758355692029">
        <ele>317.39999389648398</ele>
        <time>2012-10-22T06:56:00Z</time>
      </trkpt>
      <trkpt lat="47.88628002628684" lon="14.524729689583182">
        <ele>317.79998779296898</ele>
        <time>2012-10-22T06:56:01Z</time>
      </trkpt>
      <trkpt lat="47.886283881962299" lon="14.52469733543694">
        <ele>318.20001220703102</ele>
        <time>2012-10-22T06:56:02Z</time>
      </trkpt>
      <trkpt lat="47.886283881962299" lon="14.524663891643286">
        <ele>318.60000610351602</ele>
        <time>2012-10-22T06:56:03Z</time>
      </trkpt>
      <trkpt lat="47.886276254430413" lon="14.524631537497044">
        <ele>319</ele>
        <time>2012-10-22T06:56:04Z</time>
      </trkpt>
      <trkpt lat="47.886264771223068" lon="14.524544700980186">
        <ele>319</ele>
        <time>2012-10-22T06:56:07Z</time>
      </trkpt>
      <trkpt lat="47.886268626898527" lon="14.524410255253315">
        <ele>319.60000610351602</ele>
        <time>2012-10-22T06:56:12Z</time>
      </trkpt>
      <trkpt lat="47.886268626898527" lon="14.524379745125771">
        <ele>320</ele>
        <time>2012-10-22T06:56:13Z</time>
      </trkpt>
      <trkpt lat="47.886268626898527" lon="14.524348229169846">
        <ele>320.39999389648398</ele>
        <time>2012-10-22T06:56:14Z</time>
      </trkpt>
      <trkpt lat="47.886272398754954" lon="14.524316797032952">
        <ele>320.79998779296898</ele>
        <time>2012-10-22T06:56:15Z</time>
      </trkpt>
      <trkpt lat="47.886276254430413" lon="14.524290058761835">
        <ele>321.20001220703102</ele>
        <time>2012-10-22T06:56:16Z</time>
      </trkpt>
      <trkpt lat="47.886291509494185" lon="14.524190900847316">
        <ele>321.20001220703102</ele>
        <time>2012-10-22T06:56:21Z</time>
      </trkpt>
      <trkpt lat="47.886306764557958" lon="14.524130802601576">
        <ele>321.20001220703102</ele>
        <time>2012-10-22T06:56:24Z</time>
      </trkpt>
      <trkpt lat="47.886314392089844" lon="14.524113619700074">
        <ele>321.60000610351602</ele>
        <time>2012-10-22T06:56:25Z</time>
      </trkpt>
      <trkpt lat="47.88632201962173" lon="14.524096520617604">
        <ele>322</ele>
        <time>2012-10-22T06:56:26Z</time>
      </trkpt>
      <trkpt lat="47.886329647153616" lon="14.524078331887722">
        <ele>322.39999389648398</ele>
        <time>2012-10-22T06:56:27Z</time>
      </trkpt>
      <trkpt lat="47.886333502829075" lon="14.52406408265233">
        <ele>322.79998779296898</ele>
        <time>2012-10-22T06:56:28Z</time>
      </trkpt>
      <trkpt lat="47.886337274685502" lon="14.524052599444985">
        <ele>323.20001220703102</ele>
        <time>2012-10-22T06:56:29Z</time>
      </trkpt>
      <trkpt lat="47.88636015728116" lon="14.52394581399858">
        <ele>323.20001220703102</ele>
        <time>2012-10-22T06:56:34Z</time>
      </trkpt>
      <trkpt lat="47.886383039876819" lon="14.52388571575284">
        <ele>323.20001220703102</ele>
        <time>2012-10-22T06:56:38Z</time>
      </trkpt>
      <trkpt lat="47.886405922472477" lon="14.523844728246331">
        <ele>323.20001220703102</ele>
        <time>2012-10-22T06:56:40Z</time>
      </trkpt>
      <trkpt lat="47.886428805068135" lon="14.523806590586901">
        <ele>323.60000610351602</ele>
        <time>2012-10-22T06:56:42Z</time>
      </trkpt>
      <trkpt lat="47.88644028827548" lon="14.52378555200994">
        <ele>324.20001220703102</ele>
        <time>2012-10-22T06:56:43Z</time>
      </trkpt>
      <trkpt lat="47.886447915807366" lon="14.523760825395584">
        <ele>324.60000610351602</ele>
        <time>2012-10-22T06:56:44Z</time>
      </trkpt>
      <trkpt lat="47.88645931519568" lon="14.523738864809275">
        <ele>325</ele>
        <time>2012-10-22T06:56:45Z</time>
      </trkpt>
      <trkpt lat="47.886466942727566" lon="14.523717910051346">
        <ele>325.39999389648398</ele>
        <time>2012-10-22T06:56:46Z</time>
      </trkpt>
      <trkpt lat="47.886474570259452" lon="14.523679772391915">
        <ele>325.39999389648398</ele>
        <time>2012-10-22T06:56:48Z</time>
      </trkpt>
      <trkpt lat="47.886478425934911" lon="14.523656805977225">
        <ele>325.39999389648398</ele>
        <time>2012-10-22T06:56:49Z</time>
      </trkpt>
      <trkpt lat="47.8865204192698" lon="14.523476595059037">
        <ele>325.39999389648398</ele>
        <time>2012-10-22T06:56:55Z</time>
      </trkpt>
      <trkpt lat="47.886547073721886" lon="14.523348771035671">
        <ele>326.20001220703102</ele>
        <time>2012-10-22T06:57:00Z</time>
      </trkpt>
      <trkpt lat="47.886550929397345" lon="14.523326894268394">
        <ele>326.60000610351602</ele>
        <time>2012-10-22T06:57:01Z</time>
      </trkpt>
      <trkpt lat="47.886550929397345" lon="14.523305855691433">
        <ele>327</ele>
        <time>2012-10-22T06:57:02Z</time>
      </trkpt>
      <trkpt lat="47.886554701253772" lon="14.523282973095775">
        <ele>327.39999389648398</ele>
        <time>2012-10-22T06:57:03Z</time>
      </trkpt>
      <trkpt lat="47.886581439524889" lon="14.523131344467402">
        <ele>327.39999389648398</ele>
        <time>2012-10-22T06:57:09Z</time>
      </trkpt>
      <trkpt lat="47.886604322120547" lon="14.52299689874053">
        <ele>327.39999389648398</ele>
        <time>2012-10-22T06:57:15Z</time>
      </trkpt>
      <trkpt lat="47.886608093976974" lon="14.5229587610811">
        <ele>327.79998779296898</ele>
        <time>2012-10-22T06:57:17Z</time>
      </trkpt>
      <trkpt lat="47.886611949652433" lon="14.522939650341868">
        <ele>328.20001220703102</ele>
        <time>2012-10-22T06:57:18Z</time>
      </trkpt>
      <trkpt lat="47.886615721508861" lon="14.52291869558394">
        <ele>328.60000610351602</ele>
        <time>2012-10-22T06:57:19Z</time>
      </trkpt>
      <trkpt lat="47.886615721508861" lon="14.522897740826011">
        <ele>329</ele>
        <time>2012-10-22T06:57:20Z</time>
      </trkpt>
      <trkpt lat="47.886615721508861" lon="14.522874858230352">
        <ele>329.39999389648398</ele>
        <time>2012-10-22T06:57:21Z</time>
      </trkpt>
      <trkpt lat="47.886608093976974" lon="14.522834792733192">
        <ele>329.39999389648398</ele>
        <time>2012-10-22T06:57:23Z</time>
      </trkpt>
      <trkpt lat="47.886611949652433" lon="14.522713674232364">
        <ele>329.39999389648398</ele>
        <time>2012-10-22T06:57:28Z</time>
      </trkpt>
      <trkpt lat="47.886611949652433" lon="14.522660281509161">
        <ele>329.39999389648398</ele>
        <time>2012-10-22T06:57:30Z</time>
      </trkpt>
      <trkpt lat="47.886623349040747" lon="14.522557267919183">
        <ele>329.79998779296898</ele>
        <time>2012-10-22T06:57:34Z</time>
      </trkpt>
      <trkpt lat="47.886630976572633" lon="14.522528685629368">
        <ele>330.20001220703102</ele>
        <time>2012-10-22T06:57:35Z</time>
      </trkpt>
      <trkpt lat="47.886642459779978" lon="14.522498091682792">
        <ele>330.60000610351602</ele>
        <time>2012-10-22T06:57:36Z</time>
      </trkpt>
      <trkpt lat="47.886653859168291" lon="14.522470515221357">
        <ele>331</ele>
        <time>2012-10-22T06:57:37Z</time>
      </trkpt>
      <trkpt lat="47.886672969907522" lon="14.522438999265432">
        <ele>331.39999389648398</ele>
        <time>2012-10-22T06:57:38Z</time>
      </trkpt>
      <trkpt lat="47.886730218306184" lon="14.522264488041401">
        <ele>331.39999389648398</ele>
        <time>2012-10-22T06:57:45Z</time>
      </trkpt>
      <trkpt lat="47.886825520545244" lon="14.522135742008686">
        <ele>332.20001220703102</ele>
        <time>2012-10-22T06:57:50Z</time>
      </trkpt>
      <trkpt lat="47.886840859428048" lon="14.522110009565949">
        <ele>332.60000610351602</ele>
        <time>2012-10-22T06:57:51Z</time>
      </trkpt>
      <trkpt lat="47.88685611449182" lon="14.522085199132562">
        <ele>333</ele>
        <time>2012-10-22T06:57:52Z</time>
      </trkpt>
      <trkpt lat="47.886867513880134" lon="14.522059466689825">
        <ele>333.39999389648398</ele>
        <time>2012-10-22T06:57:53Z</time>
      </trkpt>
      <trkpt lat="47.886943789198995" lon="14.521914459764957">
        <ele>333.39999389648398</ele>
        <time>2012-10-22T06:57:59Z</time>
      </trkpt>
      <trkpt lat="47.887001037597656" lon="14.521755203604698">
        <ele>333.79998779296898</ele>
        <time>2012-10-22T06:58:05Z</time>
      </trkpt>
      <trkpt lat="47.887004893273115" lon="14.521726621314883">
        <ele>334.39999389648398</ele>
        <time>2012-10-22T06:58:06Z</time>
      </trkpt>
      <trkpt lat="47.887008665129542" lon="14.521699883043766">
        <ele>334.79998779296898</ele>
        <time>2012-10-22T06:58:07Z</time>
      </trkpt>
      <trkpt lat="47.887016292661428" lon="14.521674150601029">
        <ele>335.20001220703102</ele>
        <time>2012-10-22T06:58:08Z</time>
      </trkpt>
      <trkpt lat="47.887020148336887" lon="14.521647412329912">
        <ele>335.60000610351602</ele>
        <time>2012-10-22T06:58:09Z</time>
      </trkpt>
      <trkpt lat="47.887081168591976" lon="14.521399475634098">
        <ele>335.60000610351602</ele>
        <time>2012-10-22T06:58:16Z</time>
      </trkpt>
      <trkpt lat="47.887134561315179" lon="14.521282212808728">
        <ele>336</ele>
        <time>2012-10-22T06:58:21Z</time>
      </trkpt>
      <trkpt lat="47.887142188847065" lon="14.521260252222419">
        <ele>336.39999389648398</ele>
        <time>2012-10-22T06:58:22Z</time>
      </trkpt>
      <trkpt lat="47.887149816378951" lon="14.52123929746449">
        <ele>336.79998779296898</ele>
        <time>2012-10-22T06:58:23Z</time>
      </trkpt>
      <trkpt lat="47.887161215767264" lon="14.521218258887529">
        <ele>337.20001220703102</ele>
        <time>2012-10-22T06:58:24Z</time>
      </trkpt>
      <trkpt lat="47.887172698974609" lon="14.521203003823757">
        <ele>337.60000610351602</ele>
        <time>2012-10-22T06:58:25Z</time>
      </trkpt>
      <trkpt lat="47.887184182181954" lon="14.521186826750636">
        <ele>337.60000610351602</ele>
        <time>2012-10-22T06:58:26Z</time>
      </trkpt>
      <trkpt lat="47.887256601825356" lon="14.521074257791042">
        <ele>338</ele>
        <time>2012-10-22T06:58:33Z</time>
      </trkpt>
      <trkpt lat="47.887268085032701" lon="14.52105900272727">
        <ele>338.39999389648398</ele>
        <time>2012-10-22T06:58:34Z</time>
      </trkpt>
      <trkpt lat="47.887279484421015" lon="14.52103896997869">
        <ele>339</ele>
        <time>2012-10-22T06:58:35Z</time>
      </trkpt>
      <trkpt lat="47.88729096762836" lon="14.521017093211412">
        <ele>339.39999389648398</ele>
        <time>2012-10-22T06:58:36Z</time>
      </trkpt>
      <trkpt lat="47.887298595160246" lon="14.520995132625103">
        <ele>339.79998779296898</ele>
        <time>2012-10-22T06:58:37Z</time>
      </trkpt>
      <trkpt lat="47.887332877144217" lon="14.520889269188046">
        <ele>339.79998779296898</ele>
        <time>2012-10-22T06:58:41Z</time>
      </trkpt>
      <trkpt lat="47.887359615415335" lon="14.520737640559673">
        <ele>340.20001220703102</ele>
        <time>2012-10-22T06:58:47Z</time>
      </trkpt>
      <trkpt lat="47.887359615415335" lon="14.520714757964015">
        <ele>340.60000610351602</ele>
        <time>2012-10-22T06:58:48Z</time>
      </trkpt>
      <trkpt lat="47.887367242947221" lon="14.520694725215435">
        <ele>341</ele>
        <time>2012-10-22T06:58:49Z</time>
      </trkpt>
      <trkpt lat="47.887374870479107" lon="14.520670920610428">
        <ele>341.39999389648398</ele>
        <time>2012-10-22T06:58:50Z</time>
      </trkpt>
      <trkpt lat="47.887386353686452" lon="14.52064803801477">
        <ele>341.79998779296898</ele>
        <time>2012-10-22T06:58:51Z</time>
      </trkpt>
      <trkpt lat="47.887435890734196" lon="14.52052784152329">
        <ele>341.79998779296898</ele>
        <time>2012-10-22T06:58:57Z</time>
      </trkpt>
      <trkpt lat="47.88746640086174" lon="14.520463971421123">
        <ele>342.20001220703102</ele>
        <time>2012-10-22T06:59:01Z</time>
      </trkpt>
      <trkpt lat="47.887470256537199" lon="14.520444860681891">
        <ele>342.60000610351602</ele>
        <time>2012-10-22T06:59:02Z</time>
      </trkpt>
      <trkpt lat="47.887474028393626" lon="14.520423905923963">
        <ele>343</ele>
        <time>2012-10-22T06:59:03Z</time>
      </trkpt>
      <trkpt lat="47.887489283457398" lon="14.520404795184731">
        <ele>343.79998779296898</ele>
        <time>2012-10-22T06:59:04Z</time>
      </trkpt>
      <trkpt lat="47.887504538521171" lon="14.520383840426803">
        <ele>343.79998779296898</ele>
        <time>2012-10-22T06:59:05Z</time>
      </trkpt>
      <trkpt lat="47.887584669515491" lon="14.520171191543341">
        <ele>343.79998779296898</ele>
        <time>2012-10-22T06:59:14Z</time>
      </trkpt>
      <trkpt lat="47.887599924579263" lon="14.520127270370722">
        <ele>344.39999389648398</ele>
        <time>2012-10-22T06:59:16Z</time>
      </trkpt>
      <trkpt lat="47.887603780254722" lon="14.520109165459871">
        <ele>344.79998779296898</ele>
        <time>2012-10-22T06:59:17Z</time>
      </trkpt>
      <trkpt lat="47.887611407786608" lon="14.520091060549021">
        <ele>345.20001220703102</ele>
        <time>2012-10-22T06:59:18Z</time>
      </trkpt>
      <trkpt lat="47.887619035318494" lon="14.520069099962711">
        <ele>345.60000610351602</ele>
        <time>2012-10-22T06:59:19Z</time>
      </trkpt>
      <trkpt lat="47.887622807174921" lon="14.520047223195434">
        <ele>346</ele>
        <time>2012-10-22T06:59:20Z</time>
      </trkpt>
      <trkpt lat="47.887695310637355" lon="14.519871706143022">
        <ele>346</ele>
        <time>2012-10-22T06:59:28Z</time>
      </trkpt>
      <trkpt lat="47.887737303972244" lon="14.519771542400122">
        <ele>346.39999389648398</ele>
        <time>2012-10-22T06:59:32Z</time>
      </trkpt>
      <trkpt lat="47.887748703360558" lon="14.519748659804463">
        <ele>346.79998779296898</ele>
        <time>2012-10-22T06:59:33Z</time>
      </trkpt>
      <trkpt lat="47.887760186567903" lon="14.519728627055883">
        <ele>347.20001220703102</ele>
        <time>2012-10-22T06:59:34Z</time>
      </trkpt>
      <trkpt lat="47.887771585956216" lon="14.519706750288606">
        <ele>347.60000610351602</ele>
        <time>2012-10-22T06:59:35Z</time>
      </trkpt>
      <trkpt lat="47.887783069163561" lon="14.519685711711645">
        <ele>348</ele>
        <time>2012-10-22T06:59:36Z</time>
      </trkpt>
      <trkpt lat="47.887847861275077" lon="14.519537938758731">
        <ele>348</ele>
        <time>2012-10-22T06:59:43Z</time>
      </trkpt>
      <trkpt lat="47.887912737205625" lon="14.519426375627518">
        <ele>348.39999389648398</ele>
        <time>2012-10-22T06:59:50Z</time>
      </trkpt>
      <trkpt lat="47.88792422041297" lon="14.519412042573094">
        <ele>348.79998779296898</ele>
        <time>2012-10-22T06:59:51Z</time>
      </trkpt>
      <trkpt lat="47.887931847944856" lon="14.519392931833863">
        <ele>349.20001220703102</ele>
        <time>2012-10-22T06:59:52Z</time>
      </trkpt>
      <trkpt lat="47.887939475476742" lon="14.519372899085283">
        <ele>349.60000610351602</ele>
        <time>2012-10-22T06:59:53Z</time>
      </trkpt>
      <trkpt lat="47.887947103008628" lon="14.519356722012162">
        <ele>350.20001220703102</ele>
        <time>2012-10-22T06:59:54Z</time>
      </trkpt>
      <trkpt lat="47.8879623580724" lon="14.51930332928896">
        <ele>350.20001220703102</ele>
        <time>2012-10-22T06:59:57Z</time>
      </trkpt>
      <trkpt lat="47.887996640056372" lon="14.51914600096643">
        <ele>350.20001220703102</ele>
        <time>2012-10-22T07:00:04Z</time>
      </trkpt>
      <trkpt lat="47.888004267588258" lon="14.519118340685964">
        <ele>350.60000610351602</ele>
        <time>2012-10-22T07:00:05Z</time>
      </trkpt>
      <trkpt lat="47.888008123263717" lon="14.519096380099654">
        <ele>351</ele>
        <time>2012-10-22T07:00:06Z</time>
      </trkpt>
      <trkpt lat="47.888015750795603" lon="14.519064864143729">
        <ele>351.39999389648398</ele>
        <time>2012-10-22T07:00:07Z</time>
      </trkpt>
      <trkpt lat="47.888015750795603" lon="14.519039131700993">
        <ele>351.79998779296898</ele>
        <time>2012-10-22T07:00:08Z</time>
      </trkpt>
      <trkpt lat="47.888023378327489" lon="14.519018176943064">
        <ele>352.20001220703102</ele>
        <time>2012-10-22T07:00:09Z</time>
      </trkpt>
      <trkpt lat="47.888046260923147" lon="14.518944751471281">
        <ele>352.20001220703102</ele>
        <time>2012-10-22T07:00:12Z</time>
      </trkpt>
      <trkpt lat="47.888088254258037" lon="14.518780717626214">
        <ele>352.20001220703102</ele>
        <time>2012-10-22T07:00:19Z</time>
      </trkpt>
      <trkpt lat="47.888088254258037" lon="14.518753057345748">
        <ele>352.60000610351602</ele>
        <time>2012-10-22T07:00:20Z</time>
      </trkpt>
      <trkpt lat="47.888084398582578" lon="14.518725397065282">
        <ele>353.20001220703102</ele>
        <time>2012-10-22T07:00:21Z</time>
      </trkpt>
      <trkpt lat="47.888080626726151" lon="14.518699664622545">
        <ele>353.60000610351602</ele>
        <time>2012-10-22T07:00:22Z</time>
      </trkpt>
      <trkpt lat="47.888088254258037" lon="14.518672004342079">
        <ele>354</ele>
        <time>2012-10-22T07:00:23Z</time>
      </trkpt>
      <trkpt lat="47.888092026114464" lon="14.518644344061613">
        <ele>354.39999389648398</ele>
        <time>2012-10-22T07:00:24Z</time>
      </trkpt>
      <trkpt lat="47.888103509321809" lon="14.51854988001287">
        <ele>354.39999389648398</ele>
        <time>2012-10-22T07:00:27Z</time>
      </trkpt>
      <trkpt lat="47.888134019449353" lon="14.518389701843262">
        <ele>354.39999389648398</ele>
        <time>2012-10-22T07:00:34Z</time>
      </trkpt>
      <trkpt lat="47.888168301433325" lon="14.518299093469977">
        <ele>354.79998779296898</ele>
        <time>2012-10-22T07:00:39Z</time>
      </trkpt>
      <trkpt lat="47.88817978464067" lon="14.518281910568476">
        <ele>355.20001220703102</ele>
        <time>2012-10-22T07:00:40Z</time>
      </trkpt>
      <trkpt lat="47.888191184028983" lon="14.518266655504704">
        <ele>355.60000610351602</ele>
        <time>2012-10-22T07:00:41Z</time>
      </trkpt>
      <trkpt lat="47.888202667236328" lon="14.518248550593853">
        <ele>356</ele>
        <time>2012-10-22T07:00:42Z</time>
      </trkpt>
      <trkpt lat="47.888214150443673" lon="14.518231367692351">
        <ele>356.39999389648398</ele>
        <time>2012-10-22T07:00:43Z</time>
      </trkpt>
      <trkpt lat="47.888267543166876" lon="14.518138915300369">
        <ele>356.39999389648398</ele>
        <time>2012-10-22T07:00:49Z</time>
      </trkpt>
      <trkpt lat="47.888336190953851" lon="14.518008241429925">
        <ele>357</ele>
        <time>2012-10-22T07:00:55Z</time>
      </trkpt>
      <trkpt lat="47.888343818485737" lon="14.517987286671996">
        <ele>357.39999389648398</ele>
        <time>2012-10-22T07:00:56Z</time>
      </trkpt>
      <trkpt lat="47.888351446017623" lon="14.517961470410228">
        <ele>357.79998779296898</ele>
        <time>2012-10-22T07:00:57Z</time>
      </trkpt>
      <trkpt lat="47.88835521787405" lon="14.517936743795872">
        <ele>358.20001220703102</ele>
        <time>2012-10-22T07:00:58Z</time>
      </trkpt>
      <trkpt lat="47.888359073549509" lon="14.517917633056641">
        <ele>358.60000610351602</ele>
        <time>2012-10-22T07:00:59Z</time>
      </trkpt>
      <trkpt lat="47.888401066884398" lon="14.517806069925427">
        <ele>358.60000610351602</ele>
        <time>2012-10-22T07:01:04Z</time>
      </trkpt>
      <trkpt lat="47.888450603932142" lon="14.517646813765168">
        <ele>358.60000610351602</ele>
        <time>2012-10-22T07:01:11Z</time>
      </trkpt>
      <trkpt lat="47.888458231464028" lon="14.517627703025937">
        <ele>359.20001220703102</ele>
        <time>2012-10-22T07:01:12Z</time>
      </trkpt>
      <trkpt lat="47.888465858995914" lon="14.517612447962165">
        <ele>359.60000610351602</ele>
        <time>2012-10-22T07:01:13Z</time>
      </trkpt>
      <trkpt lat="47.888465858995914" lon="14.517600042745471">
        <ele>360</ele>
        <time>2012-10-22T07:01:14Z</time>
      </trkpt>
      <trkpt lat="47.888469714671373" lon="14.517581015825272">
        <ele>360.39999389648398</ele>
        <time>2012-10-22T07:01:15Z</time>
      </trkpt>
      <trkpt lat="47.888473486527801" lon="14.517559055238962">
        <ele>360.79998779296898</ele>
        <time>2012-10-22T07:01:16Z</time>
      </trkpt>
      <trkpt lat="47.888503996655345" lon="14.517491329461336">
        <ele>360.79998779296898</ele>
        <time>2012-10-22T07:01:19Z</time>
      </trkpt>
      <trkpt lat="47.888523107394576" lon="14.517311118543148">
        <ele>360.79998779296898</ele>
        <time>2012-10-22T07:01:27Z</time>
      </trkpt>
      <trkpt lat="47.888523107394576" lon="14.51728823594749">
        <ele>361.20001220703102</ele>
        <time>2012-10-22T07:01:28Z</time>
      </trkpt>
      <trkpt lat="47.888526879251003" lon="14.517264347523451">
        <ele>361.60000610351602</ele>
        <time>2012-10-22T07:01:29Z</time>
      </trkpt>
      <trkpt lat="47.888530734926462" lon="14.517242470756173">
        <ele>362</ele>
        <time>2012-10-22T07:01:30Z</time>
      </trkpt>
      <trkpt lat="47.888534506782889" lon="14.517220510169864">
        <ele>362.39999389648398</ele>
        <time>2012-10-22T07:01:31Z</time>
      </trkpt>
      <trkpt lat="47.888534506782889" lon="14.517196621745825">
        <ele>362.79998779296898</ele>
        <time>2012-10-22T07:01:32Z</time>
      </trkpt>
      <trkpt lat="47.888538362458348" lon="14.517092686146498">
        <ele>362.79998779296898</ele>
        <time>2012-10-22T07:01:36Z</time>
      </trkpt>
      <trkpt lat="47.88859561085701" lon="14.516948685050011">
        <ele>363.20001220703102</ele>
        <time>2012-10-22T07:01:43Z</time>
      </trkpt>
      <trkpt lat="47.888603238388896" lon="14.516927730292082">
        <ele>363.60000610351602</ele>
        <time>2012-10-22T07:01:44Z</time>
      </trkpt>
      <trkpt lat="47.888607010245323" lon="14.516905769705772">
        <ele>364</ele>
        <time>2012-10-22T07:01:45Z</time>
      </trkpt>
      <trkpt lat="47.888610865920782" lon="14.516883809119463">
        <ele>364.60000610351602</ele>
        <time>2012-10-22T07:01:46Z</time>
      </trkpt>
      <trkpt lat="47.888614637777209" lon="14.516857154667377">
        <ele>365</ele>
        <time>2012-10-22T07:01:47Z</time>
      </trkpt>
      <trkpt lat="47.888641376048326" lon="14.516734108328819">
        <ele>365</ele>
        <time>2012-10-22T07:01:53Z</time>
      </trkpt>
      <trkpt lat="47.888679513707757" lon="14.516631094738841">
        <ele>365.39999389648398</ele>
        <time>2012-10-22T07:01:58Z</time>
      </trkpt>
      <trkpt lat="47.888687141239643" lon="14.516617767512798">
        <ele>365.79998779296898</ele>
        <time>2012-10-22T07:01:59Z</time>
      </trkpt>
      <trkpt lat="47.88869091309607" lon="14.516603434458375">
        <ele>366.20001220703102</ele>
        <time>2012-10-22T07:02:00Z</time>
      </trkpt>
      <trkpt lat="47.888698540627956" lon="14.516583401709795">
        <ele>366.60000610351602</ele>
        <time>2012-10-22T07:02:01Z</time>
      </trkpt>
      <trkpt lat="47.888702396303415" lon="14.516560519114137">
        <ele>367</ele>
        <time>2012-10-22T07:02:02Z</time>
      </trkpt>
      <trkpt lat="47.88873290643096" lon="14.516412746161222">
        <ele>367</ele>
        <time>2012-10-22T07:02:08Z</time>
      </trkpt>
      <trkpt lat="47.888755789026618" lon="14.516274444758892">
        <ele>367.39999389648398</ele>
        <time>2012-10-22T07:02:14Z</time>
      </trkpt>
      <trkpt lat="47.888755789026618" lon="14.516261117532849">
        <ele>367.79998779296898</ele>
        <time>2012-10-22T07:02:15Z</time>
      </trkpt>
      <trkpt lat="47.888759644702077" lon="14.516248712316155">
        <ele>368.20001220703102</ele>
        <time>2012-10-22T07:02:16Z</time>
      </trkpt>
      <trkpt lat="47.888763416558504" lon="14.516228679567575">
        <ele>368.60000610351602</ele>
        <time>2012-10-22T07:02:17Z</time>
      </trkpt>
      <trkpt lat="47.888763416558504" lon="14.516210574656725">
        <ele>369</ele>
        <time>2012-10-22T07:02:18Z</time>
      </trkpt>
      <trkpt lat="47.88877104409039" lon="14.516136143356562">
        <ele>369</ele>
        <time>2012-10-22T07:02:21Z</time>
      </trkpt>
      <trkpt lat="47.888805409893394" lon="14.515993148088455">
        <ele>369</ele>
        <time>2012-10-22T07:02:28Z</time>
      </trkpt>
      <trkpt lat="47.888816809281707" lon="14.515862474218011">
        <ele>369.39999389648398</ele>
        <time>2012-10-22T07:02:33Z</time>
      </trkpt>
      <trkpt lat="47.888820664957166" lon="14.515846213325858">
        <ele>369.79998779296898</ele>
        <time>2012-10-22T07:02:34Z</time>
      </trkpt>
      <trkpt lat="47.888820664957166" lon="14.51582626439631">
        <ele>370.20001220703102</ele>
        <time>2012-10-22T07:02:35Z</time>
      </trkpt>
      <trkpt lat="47.888832064345479" lon="14.515798604115844">
        <ele>370.79998779296898</ele>
        <time>2012-10-22T07:02:36Z</time>
      </trkpt>
      <trkpt lat="47.888843547552824" lon="14.515773793682456">
        <ele>371.20001220703102</ele>
        <time>2012-10-22T07:02:37Z</time>
      </trkpt>
      <trkpt lat="47.888858802616596" lon="14.515687962993979">
        <ele>371.20001220703102</ele>
        <time>2012-10-22T07:02:41Z</time>
      </trkpt>
      <trkpt lat="47.888862574473023" lon="14.51554580591619">
        <ele>371.60000610351602</ele>
        <time>2012-10-22T07:02:48Z</time>
      </trkpt>
      <trkpt lat="47.888862574473023" lon="14.515530550852418">
        <ele>372</ele>
        <time>2012-10-22T07:02:49Z</time>
      </trkpt>
      <trkpt lat="47.888862574473023" lon="14.515513451769948">
        <ele>372.39999389648398</ele>
        <time>2012-10-22T07:02:50Z</time>
      </trkpt>
      <trkpt lat="47.888866430148482" lon="14.51549056917429">
        <ele>372.79998779296898</ele>
        <time>2012-10-22T07:02:51Z</time>
      </trkpt>
      <trkpt lat="47.888862574473023" lon="14.515469530597329">
        <ele>373.20001220703102</ele>
        <time>2012-10-22T07:02:52Z</time>
      </trkpt>
      <trkpt lat="47.888862574473023" lon="14.515398032963276">
        <ele>373.20001220703102</ele>
        <time>2012-10-22T07:02:55Z</time>
      </trkpt>
      <trkpt lat="47.888874057680368" lon="14.515208266675472">
        <ele>373.20001220703102</ele>
        <time>2012-10-22T07:03:03Z</time>
      </trkpt>
      <trkpt lat="47.888877829536796" lon="14.515120508149266">
        <ele>373.60000610351602</ele>
        <time>2012-10-22T07:03:06Z</time>
      </trkpt>
      <trkpt lat="47.888885457068682" lon="14.5150928478688">
        <ele>374</ele>
        <time>2012-10-22T07:03:07Z</time>
      </trkpt>
      <trkpt lat="47.888889312744141" lon="14.515068037435412">
        <ele>374.39999389648398</ele>
        <time>2012-10-22T07:03:08Z</time>
      </trkpt>
      <trkpt lat="47.888896940276027" lon="14.515041382983327">
        <ele>374.79998779296898</ele>
        <time>2012-10-22T07:03:09Z</time>
      </trkpt>
      <trkpt lat="47.888904567807913" lon="14.51501464471221">
        <ele>375.20001220703102</ele>
        <time>2012-10-22T07:03:10Z</time>
      </trkpt>
      <trkpt lat="47.888919822871685" lon="14.514989834278822">
        <ele>375.20001220703102</ele>
        <time>2012-10-22T07:03:11Z</time>
      </trkpt>
      <trkpt lat="47.889003725722432" lon="14.514865865930915">
        <ele>375.20001220703102</ele>
        <time>2012-10-22T07:03:17Z</time>
      </trkpt>
      <trkpt lat="47.889034235849977" lon="14.514811551198363">
        <ele>375.60000610351602</ele>
        <time>2012-10-22T07:03:20Z</time>
      </trkpt>
      <trkpt lat="47.889041863381863" lon="14.514792440459132">
        <ele>376.20001220703102</ele>
        <time>2012-10-22T07:03:21Z</time>
      </trkpt>
      <trkpt lat="47.889053346589208" lon="14.51477718539536">
        <ele>376.60000610351602</ele>
        <time>2012-10-22T07:03:22Z</time>
      </trkpt>
      <trkpt lat="47.889064829796553" lon="14.514761008322239">
        <ele>377</ele>
        <time>2012-10-22T07:03:23Z</time>
      </trkpt>
      <trkpt lat="47.889076229184866" lon="14.514744747430086">
        <ele>377.39999389648398</ele>
        <time>2012-10-22T07:03:24Z</time>
      </trkpt>
      <trkpt lat="47.889129621908069" lon="14.514634106308222">
        <ele>377.39999389648398</ele>
        <time>2012-10-22T07:03:31Z</time>
      </trkpt>
      <trkpt lat="47.889179242774844" lon="14.514497732743621">
        <ele>377.79998779296898</ele>
        <time>2012-10-22T07:03:37Z</time>
      </trkpt>
      <trkpt lat="47.88918687030673" lon="14.514473928138614">
        <ele>378.20001220703102</ele>
        <time>2012-10-22T07:03:38Z</time>
      </trkpt>
      <trkpt lat="47.88918687030673" lon="14.514451045542955">
        <ele>378.60000610351602</ele>
        <time>2012-10-22T07:03:39Z</time>
      </trkpt>
      <trkpt lat="47.88918687030673" lon="14.514428162947297">
        <ele>379</ele>
        <time>2012-10-22T07:03:40Z</time>
      </trkpt>
      <trkpt lat="47.88918687030673" lon="14.514405280351639">
        <ele>379.39999389648398</ele>
        <time>2012-10-22T07:03:41Z</time>
      </trkpt>
      <trkpt lat="47.889202125370502" lon="14.514285083860159">
        <ele>379.39999389648398</ele>
        <time>2012-10-22T07:03:47Z</time>
      </trkpt>
      <trkpt lat="47.889247890561819" lon="14.514121050015092">
        <ele>380</ele>
        <time>2012-10-22T07:03:54Z</time>
      </trkpt>
      <trkpt lat="47.889255518093705" lon="14.514104872941971">
        <ele>380.39999389648398</ele>
        <time>2012-10-22T07:03:55Z</time>
      </trkpt>
      <trkpt lat="47.88926700130105" lon="14.514082912355661">
        <ele>380.79998779296898</ele>
        <time>2012-10-22T07:03:56Z</time>
      </trkpt>
      <trkpt lat="47.889278400689363" lon="14.51406380161643">
        <ele>381.20001220703102</ele>
        <time>2012-10-22T07:03:57Z</time>
      </trkpt>
      <trkpt lat="47.88928602822125" lon="14.514044774696231">
        <ele>381.60000610351602</ele>
        <time>2012-10-22T07:03:58Z</time>
      </trkpt>
      <trkpt lat="47.889312766492367" lon="14.513895073905587">
        <ele>381.60000610351602</ele>
        <time>2012-10-22T07:04:04Z</time>
      </trkpt>
      <trkpt lat="47.889305138960481" lon="14.51378820464015">
        <ele>382</ele>
        <time>2012-10-22T07:04:07Z</time>
      </trkpt>
      <trkpt lat="47.889301283285022" lon="14.513754844665527">
        <ele>382.39999389648398</ele>
        <time>2012-10-22T07:04:08Z</time>
      </trkpt>
      <trkpt lat="47.889301283285022" lon="14.513725256547332">
        <ele>382.79998779296898</ele>
        <time>2012-10-22T07:04:09Z</time>
      </trkpt>
      <trkpt lat="47.889293655753136" lon="14.513701451942325">
        <ele>383.20001220703102</ele>
        <time>2012-10-22T07:04:10Z</time>
      </trkpt>
      <trkpt lat="47.889289883896708" lon="14.513680497184396">
        <ele>383.60000610351602</ele>
        <time>2012-10-22T07:04:11Z</time>
      </trkpt>
      <trkpt lat="47.88928602822125" lon="14.513656608760357">
        <ele>383.60000610351602</ele>
        <time>2012-10-22T07:04:12Z</time>
      </trkpt>
      <trkpt lat="47.88928602822125" lon="14.513614615425467">
        <ele>383.60000610351602</ele>
        <time>2012-10-22T07:04:14Z</time>
      </trkpt>
      <trkpt lat="47.889247890561819" lon="14.513486875221133">
        <ele>383.60000610351602</ele>
        <time>2012-10-22T07:04:19Z</time>
      </trkpt>
      <trkpt lat="47.889228779822588" lon="14.513440104201436">
        <ele>384</ele>
        <time>2012-10-22T07:04:21Z</time>
      </trkpt>
      <trkpt lat="47.889221152290702" lon="14.513417221605778">
        <ele>384.39999389648398</ele>
        <time>2012-10-22T07:04:22Z</time>
      </trkpt>
      <trkpt lat="47.88920589722693" lon="14.513393417000771">
        <ele>384.79998779296898</ele>
        <time>2012-10-22T07:04:23Z</time>
      </trkpt>
      <trkpt lat="47.889198269695044" lon="14.513372462242842">
        <ele>385.20001220703102</ele>
        <time>2012-10-22T07:04:24Z</time>
      </trkpt>
      <trkpt lat="47.88918687030673" lon="14.513352429494262">
        <ele>385.79998779296898</ele>
        <time>2012-10-22T07:04:25Z</time>
      </trkpt>
      <trkpt lat="47.889183014631271" lon="14.513330468907952">
        <ele>385.79998779296898</ele>
        <time>2012-10-22T07:04:26Z</time>
      </trkpt>
      <trkpt lat="47.889175387099385" lon="14.513170206919312">
        <ele>385.79998779296898</ele>
        <time>2012-10-22T07:04:32Z</time>
      </trkpt>
      <trkpt lat="47.889175387099385" lon="14.513038611039519">
        <ele>386.20001220703102</ele>
        <time>2012-10-22T07:04:37Z</time>
      </trkpt>
      <trkpt lat="47.88918687030673" lon="14.51301958411932">
        <ele>386.60000610351602</ele>
        <time>2012-10-22T07:04:38Z</time>
      </trkpt>
      <trkpt lat="47.889194497838616" lon="14.513000473380089">
        <ele>387</ele>
        <time>2012-10-22T07:04:39Z</time>
      </trkpt>
      <trkpt lat="47.889198269695044" lon="14.512976668775082">
        <ele>387.39999389648398</ele>
        <time>2012-10-22T07:04:40Z</time>
      </trkpt>
      <trkpt lat="47.88920589722693" lon="14.512953786179423">
        <ele>387.79998779296898</ele>
        <time>2012-10-22T07:04:41Z</time>
      </trkpt>
      <trkpt lat="47.889251746237278" lon="14.512883210554719">
        <ele>387.79998779296898</ele>
        <time>2012-10-22T07:04:46Z</time>
      </trkpt>
      <trkpt lat="47.889320394024253" lon="14.512835517525673">
        <ele>388.20001220703102</ele>
        <time>2012-10-22T07:04:51Z</time>
      </trkpt>
      <trkpt lat="47.889328021556139" lon="14.512825962156057">
        <ele>388.60000610351602</ele>
        <time>2012-10-22T07:04:52Z</time>
      </trkpt>
      <trkpt lat="47.889339420944452" lon="14.512814562767744">
        <ele>389</ele>
        <time>2012-10-22T07:04:53Z</time>
      </trkpt>
      <trkpt lat="47.889347048476338" lon="14.51280215755105">
        <ele>389.60000610351602</ele>
        <time>2012-10-22T07:04:54Z</time>
      </trkpt>
      <trkpt lat="47.889354676008224" lon="14.512789752334356">
        <ele>390</ele>
        <time>2012-10-22T07:04:55Z</time>
      </trkpt>
      <trkpt lat="47.889373786747456" lon="14.512718170881271">
        <ele>390</ele>
        <time>2012-10-22T07:05:00Z</time>
      </trkpt>
      <trkpt lat="47.889385186135769" lon="14.512633346021175">
        <ele>390.39999389648398</ele>
        <time>2012-10-22T07:05:04Z</time>
      </trkpt>
      <trkpt lat="47.889392813667655" lon="14.512610463425517">
        <ele>390.79998779296898</ele>
        <time>2012-10-22T07:05:05Z</time>
      </trkpt>
      <trkpt lat="47.889400441199541" lon="14.512588502839208">
        <ele>391.20001220703102</ele>
        <time>2012-10-22T07:05:06Z</time>
      </trkpt>
      <trkpt lat="47.889404296875" lon="14.512568470090628">
        <ele>391.60000610351602</ele>
        <time>2012-10-22T07:05:07Z</time>
      </trkpt>
      <trkpt lat="47.889411924406886" lon="14.512546509504318">
        <ele>392</ele>
        <time>2012-10-22T07:05:08Z</time>
      </trkpt>
      <trkpt lat="47.889415780082345" lon="14.512521782889962">
        <ele>392</ele>
        <time>2012-10-22T07:05:09Z</time>
      </trkpt>
      <trkpt lat="47.889419551938772" lon="14.512497894465923">
        <ele>392</ele>
        <time>2012-10-22T07:05:10Z</time>
      </trkpt>
      <trkpt lat="47.889461545273662" lon="14.512367220595479">
        <ele>392</ele>
        <time>2012-10-22T07:05:17Z</time>
      </trkpt>
      <trkpt lat="47.88948442786932" lon="14.512305278331041">
        <ele>392.39999389648398</ele>
        <time>2012-10-22T07:05:20Z</time>
      </trkpt>
      <trkpt lat="47.889495827257633" lon="14.512276612222195">
        <ele>393</ele>
        <time>2012-10-22T07:05:21Z</time>
      </trkpt>
      <trkpt lat="47.889499682933092" lon="14.512248951941729">
        <ele>393.39999389648398</ele>
        <time>2012-10-22T07:05:22Z</time>
      </trkpt>
      <trkpt lat="47.889503454789519" lon="14.512220369651914">
        <ele>393.79998779296898</ele>
        <time>2012-10-22T07:05:23Z</time>
      </trkpt>
      <trkpt lat="47.889511082321405" lon="14.512198409065604">
        <ele>394.20001220703102</ele>
        <time>2012-10-22T07:05:24Z</time>
      </trkpt>
      <trkpt lat="47.889507310464978" lon="14.512047786265612">
        <ele>394.20001220703102</ele>
        <time>2012-10-22T07:05:31Z</time>
      </trkpt>
      <trkpt lat="47.889526337385178" lon="14.511875119060278">
        <ele>394.60000610351602</ele>
        <time>2012-10-22T07:05:39Z</time>
      </trkpt>
      <trkpt lat="47.889518709853292" lon="14.511855086311698">
        <ele>395.39999389648398</ele>
        <time>2012-10-22T07:05:40Z</time>
      </trkpt>
      <trkpt lat="47.889511082321405" lon="14.51183220371604">
        <ele>395.79998779296898</ele>
        <time>2012-10-22T07:05:41Z</time>
      </trkpt>
      <trkpt lat="47.889507310464978" lon="14.511806471273303">
        <ele>396.39999389648398</ele>
        <time>2012-10-22T07:05:42Z</time>
      </trkpt>
      <trkpt lat="47.889476800337434" lon="14.511708235368133">
        <ele>396.39999389648398</ele>
        <time>2012-10-22T07:05:46Z</time>
      </trkpt>
      <trkpt lat="47.889461545273662" lon="14.511643443256617">
        <ele>396.39999389648398</ele>
        <time>2012-10-22T07:05:49Z</time>
      </trkpt>
      <trkpt lat="47.889427179470658" lon="14.511450743302703">
        <ele>396.79998779296898</ele>
        <time>2012-10-22T07:05:56Z</time>
      </trkpt>
      <trkpt lat="47.889423407614231" lon="14.511420233175159">
        <ele>397.20001220703102</ele>
        <time>2012-10-22T07:05:57Z</time>
      </trkpt>
      <trkpt lat="47.889423407614231" lon="14.511387795209885">
        <ele>397.60000610351602</ele>
        <time>2012-10-22T07:05:58Z</time>
      </trkpt>
      <trkpt lat="47.889431035146117" lon="14.511351585388184">
        <ele>398</ele>
        <time>2012-10-22T07:05:59Z</time>
      </trkpt>
      <trkpt lat="47.889442434534431" lon="14.51131721958518">
        <ele>398.39999389648398</ele>
        <time>2012-10-22T07:06:00Z</time>
      </trkpt>
      <trkpt lat="47.889461545273662" lon="14.511236166581511">
        <ele>398.39999389648398</ele>
        <time>2012-10-22T07:06:03Z</time>
      </trkpt>
      <trkpt lat="47.889575958251953" lon="14.511058805510402">
        <ele>398.39999389648398</ele>
        <time>2012-10-22T07:06:11Z</time>
      </trkpt>
      <trkpt lat="47.889678971841931" lon="14.510831823572516">
        <ele>398.39999389648398</ele>
        <time>2012-10-22T07:06:17Z</time>
      </trkpt>
      <trkpt lat="47.889751475304365" lon="14.510627724230289">
        <ele>397.79998779296898</ele>
        <time>2012-10-22T07:06:21Z</time>
      </trkpt>
      <trkpt lat="47.889770502224565" lon="14.510581959038973">
        <ele>397.39999389648398</ele>
        <time>2012-10-22T07:06:22Z</time>
      </trkpt>
      <trkpt lat="47.889793384820223" lon="14.510531416162848">
        <ele>397</ele>
        <time>2012-10-22T07:06:23Z</time>
      </trkpt>
      <trkpt lat="47.889812495559454" lon="14.510484728962183">
        <ele>396.60000610351602</ele>
        <time>2012-10-22T07:06:24Z</time>
      </trkpt>
      <trkpt lat="47.889850633218884" lon="14.51040836982429">
        <ele>396.20001220703102</ele>
        <time>2012-10-22T07:06:25Z</time>
      </trkpt>
      <trkpt lat="47.889884915202856" lon="14.510352127254009">
        <ele>395.79998779296898</ele>
        <time>2012-10-22T07:06:26Z</time>
      </trkpt>
      <trkpt lat="47.889923136681318" lon="14.51029303483665">
        <ele>395.39999389648398</ele>
        <time>2012-10-22T07:06:27Z</time>
      </trkpt>
      <trkpt lat="47.889972673729062" lon="14.510230086743832">
        <ele>395</ele>
        <time>2012-10-22T07:06:28Z</time>
      </trkpt>
      <trkpt lat="47.890041321516037" lon="14.510161438956857">
        <ele>394.60000610351602</ele>
        <time>2012-10-22T07:06:29Z</time>
      </trkpt>
      <trkpt lat="47.890113824978471" lon="14.510098490864038">
        <ele>393.39999389648398</ele>
        <time>2012-10-22T07:06:30Z</time>
      </trkpt>
      <trkpt lat="47.89017484523356" lon="14.51005264185369">
        <ele>392.79998779296898</ele>
        <time>2012-10-22T07:06:31Z</time>
      </trkpt>
      <trkpt lat="47.890239721164107" lon="14.510008804500103">
        <ele>392.39999389648398</ele>
        <time>2012-10-22T07:06:32Z</time>
      </trkpt>
      <trkpt lat="47.890300741419196" lon="14.5099744386971">
        <ele>391.79998779296898</ele>
        <time>2012-10-22T07:06:33Z</time>
      </trkpt>
      <trkpt lat="47.890357989817858" lon="14.50993537902832">
        <ele>391.20001220703102</ele>
        <time>2012-10-22T07:06:34Z</time>
      </trkpt>
      <trkpt lat="47.890415154397488" lon="14.50987720862031">
        <ele>390.79998779296898</ele>
        <time>2012-10-22T07:06:35Z</time>
      </trkpt>
      <trkpt lat="47.890461003407836" lon="14.509813338518143">
        <ele>390.20001220703102</ele>
        <time>2012-10-22T07:06:36Z</time>
      </trkpt>
      <trkpt lat="47.89051054045558" lon="14.509749384596944">
        <ele>389.79998779296898</ele>
        <time>2012-10-22T07:06:37Z</time>
      </trkpt>
      <trkpt lat="47.890617409721017" lon="14.509602533653378">
        <ele>389.20001220703102</ele>
        <time>2012-10-22T07:06:39Z</time>
      </trkpt>
      <trkpt lat="47.89067080244422" lon="14.509514775127172">
        <ele>388.79998779296898</ele>
        <time>2012-10-22T07:06:40Z</time>
      </trkpt>
      <trkpt lat="47.890720339491963" lon="14.509423244744539">
        <ele>388.39999389648398</ele>
        <time>2012-10-22T07:06:41Z</time>
      </trkpt>
      <trkpt lat="47.890769960358739" lon="14.509327858686447">
        <ele>387.79998779296898</ele>
        <time>2012-10-22T07:06:42Z</time>
      </trkpt>
      <trkpt lat="47.890823353081942" lon="14.509229622781277">
        <ele>387.39999389648398</ele>
        <time>2012-10-22T07:06:43Z</time>
      </trkpt>
      <trkpt lat="47.890930138528347" lon="14.509041784331203">
        <ele>387</ele>
        <time>2012-10-22T07:06:45Z</time>
      </trkpt>
      <trkpt lat="47.890995014458895" lon="14.508950253948569">
        <ele>386.39999389648398</ele>
        <time>2012-10-22T07:06:46Z</time>
      </trkpt>
      <trkpt lat="47.891056034713984" lon="14.508860567584634">
        <ele>386</ele>
        <time>2012-10-22T07:06:47Z</time>
      </trkpt>
      <trkpt lat="47.891120910644531" lon="14.508772809058428">
        <ele>385.60000610351602</ele>
        <time>2012-10-22T07:06:48Z</time>
      </trkpt>
      <trkpt lat="47.891185786575079" lon="14.508685134351254">
        <ele>385.20001220703102</ele>
        <time>2012-10-22T07:06:49Z</time>
      </trkpt>
      <trkpt lat="47.891250578686595" lon="14.508599303662777">
        <ele>384.79998779296898</ele>
        <time>2012-10-22T07:06:50Z</time>
      </trkpt>
      <trkpt lat="47.891311682760715" lon="14.508508695289493">
        <ele>384.20001220703102</ele>
        <time>2012-10-22T07:06:51Z</time>
      </trkpt>
      <trkpt lat="47.891368847340345" lon="14.508420936763287">
        <ele>383.79998779296898</ele>
        <time>2012-10-22T07:06:52Z</time>
      </trkpt>
      <trkpt lat="47.891422240063548" lon="14.50833510607481">
        <ele>383.39999389648398</ele>
        <time>2012-10-22T07:06:53Z</time>
      </trkpt>
      <trkpt lat="47.891471860930324" lon="14.508250197395682">
        <ele>383</ele>
        <time>2012-10-22T07:06:54Z</time>
      </trkpt>
      <trkpt lat="47.89151762612164" lon="14.508163444697857">
        <ele>383</ele>
        <time>2012-10-22T07:06:55Z</time>
      </trkpt>
      <trkpt lat="47.89173505268991" lon="14.507759101688862">
        <ele>383</ele>
        <time>2012-10-22T07:07:00Z</time>
      </trkpt>
      <trkpt lat="47.891990700736642" lon="14.507292732596397">
        <ele>383</ele>
        <time>2012-10-22T07:07:06Z</time>
      </trkpt>
      <trkpt lat="47.892051720991731" lon="14.507238417863846">
        <ele>382.60000610351602</ele>
        <time>2012-10-22T07:07:07Z</time>
      </trkpt>
      <trkpt lat="47.892116513103247" lon="14.507196424528956">
        <ele>382.20001220703102</ele>
        <time>2012-10-22T07:07:08Z</time>
      </trkpt>
      <trkpt lat="47.892181389033794" lon="14.507163986563683">
        <ele>381.79998779296898</ele>
        <time>2012-10-22T07:07:09Z</time>
      </trkpt>
      <trkpt lat="47.892250036820769" lon="14.507138254120946">
        <ele>381.39999389648398</ele>
        <time>2012-10-22T07:07:10Z</time>
      </trkpt>
      <trkpt lat="47.892314912751317" lon="14.507113443687558">
        <ele>381</ele>
        <time>2012-10-22T07:07:11Z</time>
      </trkpt>
      <trkpt lat="47.892654379829764" lon="14.506964664906263">
        <ele>381</ele>
        <time>2012-10-22T07:07:16Z</time>
      </trkpt>
      <trkpt lat="47.892719255760312" lon="14.506928455084562">
        <ele>380.60000610351602</ele>
        <time>2012-10-22T07:07:17Z</time>
      </trkpt>
      <trkpt lat="47.892776504158974" lon="14.506884533911943">
        <ele>380.20001220703102</ele>
        <time>2012-10-22T07:07:18Z</time>
      </trkpt>
      <trkpt lat="47.892829896882176" lon="14.506831141188741">
        <ele>379.79998779296898</ele>
        <time>2012-10-22T07:07:19Z</time>
      </trkpt>
      <trkpt lat="47.892879517748952" lon="14.506776826456189">
        <ele>379</ele>
        <time>2012-10-22T07:07:20Z</time>
      </trkpt>
      <trkpt lat="47.89292142726481" lon="14.50671480037272">
        <ele>379</ele>
        <time>2012-10-22T07:07:21Z</time>
      </trkpt>
      <trkpt lat="47.893062578514218" lon="14.50642017647624">
        <ele>379</ele>
        <time>2012-10-22T07:07:26Z</time>
      </trkpt>
      <trkpt lat="47.893230468034744" lon="14.505969062447548">
        <ele>379</ele>
        <time>2012-10-22T07:07:33Z</time>
      </trkpt>
      <trkpt lat="47.893283860757947" lon="14.505835538730025">
        <ele>379</ele>
        <time>2012-10-22T07:07:35Z</time>
      </trkpt>
      <trkpt lat="47.893314370885491" lon="14.505775440484285">
        <ele>378.60000610351602</ele>
        <time>2012-10-22T07:07:36Z</time>
      </trkpt>
      <trkpt lat="47.893352508544922" lon="14.50572581961751">
        <ele>378.20001220703102</ele>
        <time>2012-10-22T07:07:37Z</time>
      </trkpt>
      <trkpt lat="47.893390646204352" lon="14.505691537633538">
        <ele>377.79998779296898</ele>
        <time>2012-10-22T07:07:38Z</time>
      </trkpt>
      <trkpt lat="47.893432639539242" lon="14.505699165165424">
        <ele>377.20001220703102</ele>
        <time>2012-10-22T07:07:39Z</time>
      </trkpt>
      <trkpt lat="47.893474549055099" lon="14.5057487860322">
        <ele>376.79998779296898</ele>
        <time>2012-10-22T07:07:40Z</time>
      </trkpt>
      <trkpt lat="47.89351268671453" lon="14.505812656134367">
        <ele>376.39999389648398</ele>
        <time>2012-10-22T07:07:41Z</time>
      </trkpt>
      <trkpt lat="47.893543280661106" lon="14.505888931453228">
        <ele>375.79998779296898</ele>
        <time>2012-10-22T07:07:42Z</time>
      </trkpt>
      <trkpt lat="47.893566163256764" lon="14.50598624534905">
        <ele>375.39999389648398</ele>
        <time>2012-10-22T07:07:43Z</time>
      </trkpt>
      <trkpt lat="47.893589045852423" lon="14.506094958633184">
        <ele>374.20001220703102</ele>
        <time>2012-10-22T07:07:44Z</time>
      </trkpt>
      <trkpt lat="47.893611928448081" lon="14.50621984899044">
        <ele>373.60000610351602</ele>
        <time>2012-10-22T07:07:45Z</time>
      </trkpt>
      <trkpt lat="47.893638582900167" lon="14.506344823166728">
        <ele>373</ele>
        <time>2012-10-22T07:07:46Z</time>
      </trkpt>
      <trkpt lat="47.893665321171284" lon="14.506472563371062">
        <ele>372.20001220703102</ele>
        <time>2012-10-22T07:07:47Z</time>
      </trkpt>
      <trkpt lat="47.893691975623369" lon="14.506601309403777">
        <ele>371.60000610351602</ele>
        <time>2012-10-22T07:07:48Z</time>
      </trkpt>
      <trkpt lat="47.893714942038059" lon="14.506731983274221">
        <ele>370.60000610351602</ele>
        <time>2012-10-22T07:07:49Z</time>
      </trkpt>
      <trkpt lat="47.893733968958259" lon="14.506860729306936">
        <ele>369.79998779296898</ele>
        <time>2012-10-22T07:07:50Z</time>
      </trkpt>
      <trkpt lat="47.89375307969749" lon="14.506991403177381">
        <ele>368.79998779296898</ele>
        <time>2012-10-22T07:07:51Z</time>
      </trkpt>
      <trkpt lat="47.893768334761262" lon="14.507109671831131">
        <ele>367.79998779296898</ele>
        <time>2012-10-22T07:07:52Z</time>
      </trkpt>
      <trkpt lat="47.893775962293148" lon="14.507226012647152">
        <ele>366.79998779296898</ele>
        <time>2012-10-22T07:07:53Z</time>
      </trkpt>
      <trkpt lat="47.893775962293148" lon="14.507342353463173">
        <ele>365.60000610351602</ele>
        <time>2012-10-22T07:07:54Z</time>
      </trkpt>
      <trkpt lat="47.893772106617689" lon="14.507460622116923">
        <ele>364.60000610351602</ele>
        <time>2012-10-22T07:07:55Z</time>
      </trkpt>
      <trkpt lat="47.893760707229376" lon="14.507578890770674">
        <ele>363.79998779296898</ele>
        <time>2012-10-22T07:07:56Z</time>
      </trkpt>
      <trkpt lat="47.893745452165604" lon="14.507699003443122">
        <ele>362.79998779296898</ele>
        <time>2012-10-22T07:07:57Z</time>
      </trkpt>
      <trkpt lat="47.893726341426373" lon="14.507820121943951">
        <ele>361.79998779296898</ele>
        <time>2012-10-22T07:07:58Z</time>
      </trkpt>
      <trkpt lat="47.893703458830714" lon="14.507947945967317">
        <ele>360.79998779296898</ele>
        <time>2012-10-22T07:07:59Z</time>
      </trkpt>
      <trkpt lat="47.893676720559597" lon="14.508066214621067">
        <ele>360</ele>
        <time>2012-10-22T07:08:00Z</time>
      </trkpt>
      <trkpt lat="47.893646210432053" lon="14.508181549608707">
        <ele>359</ele>
        <time>2012-10-22T07:08:01Z</time>
      </trkpt>
      <trkpt lat="47.893623327836394" lon="14.508289340883493">
        <ele>358</ele>
        <time>2012-10-22T07:08:02Z</time>
      </trkpt>
      <trkpt lat="47.893596673384309" lon="14.508386570960283">
        <ele>357</ele>
        <time>2012-10-22T07:08:03Z</time>
      </trkpt>
      <trkpt lat="47.893569935113192" lon="14.508476257324219">
        <ele>356</ele>
        <time>2012-10-22T07:08:04Z</time>
      </trkpt>
      <trkpt lat="47.893543280661106" lon="14.508564937859774">
        <ele>355</ele>
        <time>2012-10-22T07:08:05Z</time>
      </trkpt>
      <trkpt lat="47.893508914858103" lon="14.508655546233058">
        <ele>354</ele>
        <time>2012-10-22T07:08:06Z</time>
      </trkpt>
      <trkpt lat="47.893474549055099" lon="14.50875286012888">
        <ele>353</ele>
        <time>2012-10-22T07:08:07Z</time>
      </trkpt>
      <trkpt lat="47.893440267071128" lon="14.508847240358591">
        <ele>352</ele>
        <time>2012-10-22T07:08:08Z</time>
      </trkpt>
      <trkpt lat="47.893409756943583" lon="14.508937848731875">
        <ele>350.20001220703102</ele>
        <time>2012-10-22T07:08:09Z</time>
      </trkpt>
      <trkpt lat="47.89337539114058" lon="14.509031306952238">
        <ele>349.39999389648398</ele>
        <time>2012-10-22T07:08:10Z</time>
      </trkpt>
      <trkpt lat="47.893344881013036" lon="14.50912669301033">
        <ele>348.39999389648398</ele>
        <time>2012-10-22T07:08:11Z</time>
      </trkpt>
      <trkpt lat="47.893306743353605" lon="14.50922585092485">
        <ele>347.60000610351602</ele>
        <time>2012-10-22T07:08:12Z</time>
      </trkpt>
      <trkpt lat="47.893272377550602" lon="14.509330708533525">
        <ele>346.79998779296898</ele>
        <time>2012-10-22T07:08:13Z</time>
      </trkpt>
      <trkpt lat="47.893241867423058" lon="14.50944134965539">
        <ele>345.79998779296898</ele>
        <time>2012-10-22T07:08:14Z</time>
      </trkpt>
      <trkpt lat="47.893211357295513" lon="14.509543441236019">
        <ele>344.79998779296898</ele>
        <time>2012-10-22T07:08:15Z</time>
      </trkpt>
      <trkpt lat="47.89317699149251" lon="14.50964167714119">
        <ele>344</ele>
        <time>2012-10-22T07:08:16Z</time>
      </trkpt>
      <trkpt lat="47.893150337040424" lon="14.509731279686093">
        <ele>343</ele>
        <time>2012-10-22T07:08:17Z</time>
      </trkpt>
      <trkpt lat="47.893123598769307" lon="14.50981711037457">
        <ele>342</ele>
        <time>2012-10-22T07:08:18Z</time>
      </trkpt>
      <trkpt lat="47.893096944317222" lon="14.509905790910125">
        <ele>341.20001220703102</ele>
        <time>2012-10-22T07:08:19Z</time>
      </trkpt>
      <trkpt lat="47.893062578514218" lon="14.50999740511179">
        <ele>340.39999389648398</ele>
        <time>2012-10-22T07:08:20Z</time>
      </trkpt>
      <trkpt lat="47.893032068386674" lon="14.510082229971886">
        <ele>339.60000610351602</ele>
        <time>2012-10-22T07:08:21Z</time>
      </trkpt>
      <trkpt lat="47.892993930727243" lon="14.510169066488743">
        <ele>338.79998779296898</ele>
        <time>2012-10-22T07:08:22Z</time>
      </trkpt>
      <trkpt lat="47.89295956492424" lon="14.510245341807604">
        <ele>338</ele>
        <time>2012-10-22T07:08:23Z</time>
      </trkpt>
      <trkpt lat="47.892890917137265" lon="14.510305440053344">
        <ele>337.20001220703102</ele>
        <time>2012-10-22T07:08:24Z</time>
      </trkpt>
      <trkpt lat="47.892841380089521" lon="14.510376015678048">
        <ele>336.39999389648398</ele>
        <time>2012-10-22T07:08:25Z</time>
      </trkpt>
      <trkpt lat="47.892780276015401" lon="14.510437957942486">
        <ele>335.60000610351602</ele>
        <time>2012-10-22T07:08:26Z</time>
      </trkpt>
      <trkpt lat="47.892723111435771" lon="14.510498056188226">
        <ele>335</ele>
        <time>2012-10-22T07:08:27Z</time>
      </trkpt>
      <trkpt lat="47.892658235505223" lon="14.510547677055001">
        <ele>334.39999389648398</ele>
        <time>2012-10-22T07:08:28Z</time>
      </trkpt>
      <trkpt lat="47.892589587718248" lon="14.51058866456151">
        <ele>333.60000610351602</ele>
        <time>2012-10-22T07:08:29Z</time>
      </trkpt>
      <trkpt lat="47.892509456723928" lon="14.510614397004247">
        <ele>333</ele>
        <time>2012-10-22T07:08:30Z</time>
      </trkpt>
      <trkpt lat="47.892425553873181" lon="14.510625880211592">
        <ele>332.39999389648398</ele>
        <time>2012-10-22T07:08:31Z</time>
      </trkpt>
      <trkpt lat="47.892353050410748" lon="14.510644907131791">
        <ele>331.60000610351602</ele>
        <time>2012-10-22T07:08:32Z</time>
      </trkpt>
      <trkpt lat="47.892292030155659" lon="14.510670639574528">
        <ele>330.20001220703102</ele>
        <time>2012-10-22T07:08:33Z</time>
      </trkpt>
      <trkpt lat="47.892238637432456" lon="14.510709783062339">
        <ele>329.39999389648398</ele>
        <time>2012-10-22T07:08:34Z</time>
      </trkpt>
      <trkpt lat="47.892189016565681" lon="14.510762253776193">
        <ele>328.79998779296898</ele>
        <time>2012-10-22T07:08:35Z</time>
      </trkpt>
      <trkpt lat="47.89215087890625" lon="14.510821346193552">
        <ele>328</ele>
        <time>2012-10-22T07:08:36Z</time>
      </trkpt>
      <trkpt lat="47.892131768167019" lon="14.510875660926104">
        <ele>327.60000610351602</ele>
        <time>2012-10-22T07:08:37Z</time>
      </trkpt>
      <trkpt lat="47.892131768167019" lon="14.510918576270342">
        <ele>327.20001220703102</ele>
        <time>2012-10-22T07:08:38Z</time>
      </trkpt>
      <trkpt lat="47.89215087890625" lon="14.510942464694381">
        <ele>326.60000610351602</ele>
        <time>2012-10-22T07:08:39Z</time>
      </trkpt>
      <trkpt lat="47.892196644097567" lon="14.510938609018922">
        <ele>326.20001220703102</ele>
        <time>2012-10-22T07:08:40Z</time>
      </trkpt>
      <trkpt lat="47.892227154225111" lon="14.510939614847302">
        <ele>325.79998779296898</ele>
        <time>2012-10-22T07:08:41Z</time>
      </trkpt>
      <trkpt lat="47.892295802012086" lon="14.51092628762126">
        <ele>325.79998779296898</ele>
        <time>2012-10-22T07:08:43Z</time>
      </trkpt>
      <trkpt lat="47.892345422878861" lon="14.510914804413915">
        <ele>325.79998779296898</ele>
        <time>2012-10-22T07:08:44Z</time>
      </trkpt>
      <trkpt lat="47.892398815602064" lon="14.510896699503064">
        <ele>325.20001220703102</ele>
        <time>2012-10-22T07:08:45Z</time>
      </trkpt>
      <trkpt lat="47.892456064000726" lon="14.510871889069676">
        <ele>324.79998779296898</ele>
        <time>2012-10-22T07:08:46Z</time>
      </trkpt>
      <trkpt lat="47.892513312399387" lon="14.510834673419595">
        <ele>324.39999389648398</ele>
        <time>2012-10-22T07:08:47Z</time>
      </trkpt>
      <trkpt lat="47.892578104510903" lon="14.510774575173855">
        <ele>323.79998779296898</ele>
        <time>2012-10-22T07:08:48Z</time>
      </trkpt>
      <trkpt lat="47.892635352909565" lon="14.510715482756495">
        <ele>323.20001220703102</ele>
        <time>2012-10-22T07:08:49Z</time>
      </trkpt>
      <trkpt lat="47.892696373164654" lon="14.510652534663677">
        <ele>322.79998779296898</ele>
        <time>2012-10-22T07:08:50Z</time>
      </trkpt>
      <trkpt lat="47.892757393419743" lon="14.51059059239924">
        <ele>322.20001220703102</ele>
        <time>2012-10-22T07:08:51Z</time>
      </trkpt>
      <trkpt lat="47.892818413674831" lon="14.510535271838307">
        <ele>321.39999389648398</ele>
        <time>2012-10-22T07:08:52Z</time>
      </trkpt>
      <trkpt lat="47.892879517748952" lon="14.510484728962183">
        <ele>320.79998779296898</ele>
        <time>2012-10-22T07:08:53Z</time>
      </trkpt>
      <trkpt lat="47.892944309860468" lon="14.510433180257678">
        <ele>320</ele>
        <time>2012-10-22T07:08:54Z</time>
      </trkpt>
      <trkpt lat="47.893009185791016" lon="14.510384565219283">
        <ele>319.20001220703102</ele>
        <time>2012-10-22T07:08:55Z</time>
      </trkpt>
      <trkpt lat="47.893074061721563" lon="14.510334944352508">
        <ele>318.60000610351602</ele>
        <time>2012-10-22T07:08:56Z</time>
      </trkpt>
      <trkpt lat="47.893138853833079" lon="14.510286329314113">
        <ele>317.79998779296898</ele>
        <time>2012-10-22T07:08:57Z</time>
      </trkpt>
      <trkpt lat="47.893203729763627" lon="14.510237714275718">
        <ele>316.20001220703102</ele>
        <time>2012-10-22T07:08:58Z</time>
      </trkpt>
      <trkpt lat="47.893268605694175" lon="14.510189015418291">
        <ele>315.39999389648398</ele>
        <time>2012-10-22T07:08:59Z</time>
      </trkpt>
      <trkpt lat="47.893333397805691" lon="14.510141406208277">
        <ele>314.39999389648398</ele>
        <time>2012-10-22T07:09:00Z</time>
      </trkpt>
      <trkpt lat="47.893402129411697" lon="14.510089857503772">
        <ele>313.60000610351602</ele>
        <time>2012-10-22T07:09:01Z</time>
      </trkpt>
      <trkpt lat="47.893466921523213" lon="14.510043170303106">
        <ele>312.79998779296898</ele>
        <time>2012-10-22T07:09:02Z</time>
      </trkpt>
      <trkpt lat="47.893524169921875" lon="14.509998327121139">
        <ele>311.79998779296898</ele>
        <time>2012-10-22T07:09:03Z</time>
      </trkpt>
      <trkpt lat="47.893585190176964" lon="14.509951556101441">
        <ele>311.20001220703102</ele>
        <time>2012-10-22T07:09:04Z</time>
      </trkpt>
      <trkpt lat="47.893646210432053" lon="14.509901013225317">
        <ele>310.60000610351602</ele>
        <time>2012-10-22T07:09:05Z</time>
      </trkpt>
      <trkpt lat="47.893707314506173" lon="14.509839070960879">
        <ele>309.79998779296898</ele>
        <time>2012-10-22T07:09:06Z</time>
      </trkpt>
      <trkpt lat="47.893764479085803" lon="14.509772267192602">
        <ele>309.20001220703102</ele>
        <time>2012-10-22T07:09:07Z</time>
      </trkpt>
      <trkpt lat="47.89381024427712" lon="14.509702697396278">
        <ele>308.60000610351602</ele>
        <time>2012-10-22T07:09:08Z</time>
      </trkpt>
      <trkpt lat="47.893863637000322" lon="14.509617788717151">
        <ele>308</ele>
        <time>2012-10-22T07:09:09Z</time>
      </trkpt>
      <trkpt lat="47.893913257867098" lon="14.509543441236019">
        <ele>307.60000610351602</ele>
        <time>2012-10-22T07:09:10Z</time>
      </trkpt>
      <trkpt lat="47.893955251201987" lon="14.50948242098093">
        <ele>307</ele>
        <time>2012-10-22T07:09:11Z</time>
      </trkpt>
      <trkpt lat="47.893981905654073" lon="14.509433722123504">
        <ele>306.60000610351602</ele>
        <time>2012-10-22T07:09:12Z</time>
      </trkpt>
      <trkpt lat="47.89400864392519" lon="14.509391812607646">
        <ele>306</ele>
        <time>2012-10-22T07:09:13Z</time>
      </trkpt>
      <trkpt lat="47.894031526520848" lon="14.509359374642372">
        <ele>305.60000610351602</ele>
        <time>2012-10-22T07:09:14Z</time>
      </trkpt>
      <trkpt lat="47.894054409116507" lon="14.50936415232718">
        <ele>305</ele>
        <time>2012-10-22T07:09:15Z</time>
      </trkpt>
      <trkpt lat="47.894077291712165" lon="14.509391812607646">
        <ele>304.60000610351602</ele>
        <time>2012-10-22T07:09:16Z</time>
      </trkpt>
      <trkpt lat="47.894104029983282" lon="14.509416539222002">
        <ele>304</ele>
        <time>2012-10-22T07:09:17Z</time>
      </trkpt>
      <trkpt lat="47.894199332222342" lon="14.509474793449044">
        <ele>304</ele>
        <time>2012-10-22T07:09:22Z</time>
      </trkpt>
      <trkpt lat="47.894268063828349" lon="14.509446127340198">
        <ele>304</ele>
        <time>2012-10-22T07:09:27Z</time>
      </trkpt>
      <trkpt lat="47.894290946424007" lon="14.509395584464073">
        <ele>304</ele>
        <time>2012-10-22T07:09:29Z</time>
      </trkpt>
      <trkpt lat="47.894325228407979" lon="14.509282093495131">
        <ele>304</ele>
        <time>2012-10-22T07:09:32Z</time>
      </trkpt>
      <trkpt lat="47.894405359402299" lon="14.509038012474775">
        <ele>304</ele>
        <time>2012-10-22T07:09:37Z</time>
      </trkpt>
      <trkpt lat="47.894554138183594" lon="14.508511545136571">
        <ele>304</ele>
        <time>2012-10-22T07:09:45Z</time>
      </trkpt>
      <trkpt lat="47.894626641646028" lon="14.508185405284166">
        <ele>304</ele>
        <time>2012-10-22T07:09:51Z</time>
      </trkpt>
      <trkpt lat="47.894802074879408" lon="14.50782397761941">
        <ele>304</ele>
        <time>2012-10-22T07:09:58Z</time>
      </trkpt>
      <trkpt lat="47.894855467602611" lon="14.507690453901887">
        <ele>304.39999389648398</ele>
        <time>2012-10-22T07:10:01Z</time>
      </trkpt>
      <trkpt lat="47.894863095134497" lon="14.507636055350304">
        <ele>304.79998779296898</ele>
        <time>2012-10-22T07:10:02Z</time>
      </trkpt>
      <trkpt lat="47.894870722666383" lon="14.507585512474179">
        <ele>305.20001220703102</ele>
        <time>2012-10-22T07:10:03Z</time>
      </trkpt>
      <trkpt lat="47.894866950809956" lon="14.507537819445133">
        <ele>305.60000610351602</ele>
        <time>2012-10-22T07:10:04Z</time>
      </trkpt>
      <trkpt lat="47.894859323278069" lon="14.507492054253817">
        <ele>306.20001220703102</ele>
        <time>2012-10-22T07:10:05Z</time>
      </trkpt>
      <trkpt lat="47.894840212538838" lon="14.507376635447145">
        <ele>306.20001220703102</ele>
        <time>2012-10-22T07:10:08Z</time>
      </trkpt>
      <trkpt lat="47.894805930554867" lon="14.507226934656501">
        <ele>306.60000610351602</ele>
        <time>2012-10-22T07:10:12Z</time>
      </trkpt>
      <trkpt lat="47.894805930554867" lon="14.507186869159341">
        <ele>307</ele>
        <time>2012-10-22T07:10:13Z</time>
      </trkpt>
      <trkpt lat="47.894809702411294" lon="14.507146803662181">
        <ele>307.39999389648398</ele>
        <time>2012-10-22T07:10:14Z</time>
      </trkpt>
      <trkpt lat="47.894813558086753" lon="14.50711059384048">
        <ele>307.79998779296898</ele>
        <time>2012-10-22T07:10:15Z</time>
      </trkpt>
      <trkpt lat="47.89481732994318" lon="14.507079161703587">
        <ele>308.20001220703102</ele>
        <time>2012-10-22T07:10:16Z</time>
      </trkpt>
      <trkpt lat="47.894863095134497" lon="14.50687506236136">
        <ele>308.20001220703102</ele>
        <time>2012-10-22T07:10:21Z</time>
      </trkpt>
      <trkpt lat="47.894912716001272" lon="14.506592759862542">
        <ele>308.20001220703102</ele>
        <time>2012-10-22T07:10:27Z</time>
      </trkpt>
      <trkpt lat="47.895004246383905" lon="14.506254214793444">
        <ele>308.20001220703102</ele>
        <time>2012-10-22T07:10:35Z</time>
      </trkpt>
      <trkpt lat="47.895080605521798" lon="14.50602438300848">
        <ele>308.60000610351602</ele>
        <time>2012-10-22T07:10:41Z</time>
      </trkpt>
      <trkpt lat="47.89509586058557" lon="14.505990017205477">
        <ele>309</ele>
        <time>2012-10-22T07:10:42Z</time>
      </trkpt>
      <trkpt lat="47.89511488750577" lon="14.505954729393125">
        <ele>309.60000610351602</ele>
        <time>2012-10-22T07:10:43Z</time>
      </trkpt>
      <trkpt lat="47.895130142569542" lon="14.505918519571424">
        <ele>310</ele>
        <time>2012-10-22T07:10:44Z</time>
      </trkpt>
      <trkpt lat="47.895145397633314" lon="14.505883231759071">
        <ele>310.39999389648398</ele>
        <time>2012-10-22T07:10:45Z</time>
      </trkpt>
      <trkpt lat="47.895229300484061" lon="14.505665805190802">
        <ele>310.39999389648398</ele>
        <time>2012-10-22T07:10:51Z</time>
      </trkpt>
      <trkpt lat="47.895290404558182" lon="14.505441673099995">
        <ele>310.39999389648398</ele>
        <time>2012-10-22T07:10:57Z</time>
      </trkpt>
      <trkpt lat="47.895305659621954" lon="14.505275711417198">
        <ele>310.79998779296898</ele>
        <time>2012-10-22T07:11:01Z</time>
      </trkpt>
      <trkpt lat="47.895309431478381" lon="14.505229946225882">
        <ele>311.20001220703102</ele>
        <time>2012-10-22T07:11:02Z</time>
      </trkpt>
      <trkpt lat="47.895309431478381" lon="14.505187952890992">
        <ele>311.60000610351602</ele>
        <time>2012-10-22T07:11:03Z</time>
      </trkpt>
      <trkpt lat="47.89531328715384" lon="14.505147971212864">
        <ele>312</ele>
        <time>2012-10-22T07:11:04Z</time>
      </trkpt>
      <trkpt lat="47.89531328715384" lon="14.505106899887323">
        <ele>312.39999389648398</ele>
        <time>2012-10-22T07:11:05Z</time>
      </trkpt>
      <trkpt lat="47.895305659621954" lon="14.504859885200858">
        <ele>312.39999389648398</ele>
        <time>2012-10-22T07:11:11Z</time>
      </trkpt>
      <trkpt lat="47.895286548882723" lon="14.504488985985518">
        <ele>312.39999389648398</ele>
        <time>2012-10-22T07:11:20Z</time>
      </trkpt>
      <trkpt lat="47.895286548882723" lon="14.504449842497706">
        <ele>312.79998779296898</ele>
        <time>2012-10-22T07:11:21Z</time>
      </trkpt>
      <trkpt lat="47.895286548882723" lon="14.504409777000546">
        <ele>313.20001220703102</ele>
        <time>2012-10-22T07:11:22Z</time>
      </trkpt>
      <trkpt lat="47.895286548882723" lon="14.504371639341116">
        <ele>313.60000610351602</ele>
        <time>2012-10-22T07:11:23Z</time>
      </trkpt>
      <trkpt lat="47.895286548882723" lon="14.504333501681685">
        <ele>314</ele>
        <time>2012-10-22T07:11:24Z</time>
      </trkpt>
      <trkpt lat="47.895286548882723" lon="14.504294358193874">
        <ele>314.39999389648398</ele>
        <time>2012-10-22T07:11:25Z</time>
      </trkpt>
      <trkpt lat="47.895282777026296" lon="14.504151362925768">
        <ele>314.39999389648398</ele>
        <time>2012-10-22T07:11:29Z</time>
      </trkpt>
      <trkpt lat="47.89527514949441" lon="14.504001578316092">
        <ele>314.79998779296898</ele>
        <time>2012-10-22T07:11:33Z</time>
      </trkpt>
      <trkpt lat="47.895271293818951" lon="14.503964446485043">
        <ele>315.20001220703102</ele>
        <time>2012-10-22T07:11:34Z</time>
      </trkpt>
      <trkpt lat="47.895271293818951" lon="14.503927230834961">
        <ele>315.79998779296898</ele>
        <time>2012-10-22T07:11:35Z</time>
      </trkpt>
      <trkpt lat="47.895271293818951" lon="14.503888171166182">
        <ele>316.20001220703102</ele>
        <time>2012-10-22T07:11:36Z</time>
      </trkpt>
      <trkpt lat="47.895267521962523" lon="14.5038509555161">
        <ele>316.60000610351602</ele>
        <time>2012-10-22T07:11:37Z</time>
      </trkpt>
      <trkpt lat="47.895263666287065" lon="14.503812817856669">
        <ele>316.60000610351602</ele>
        <time>2012-10-22T07:11:38Z</time>
      </trkpt>
      <trkpt lat="47.89523315615952" lon="14.503618273884058">
        <ele>316.60000610351602</ele>
        <time>2012-10-22T07:11:44Z</time>
      </trkpt>
      <trkpt lat="47.895210273563862" lon="14.503358853980899">
        <ele>316.60000610351602</ele>
        <time>2012-10-22T07:11:51Z</time>
      </trkpt>
      <trkpt lat="47.895156880840659" lon="14.503042185679078">
        <ele>316.60000610351602</ele>
        <time>2012-10-22T07:11:59Z</time>
      </trkpt>
      <trkpt lat="47.895111115649343" lon="14.50280187651515">
        <ele>316.60000610351602</ele>
        <time>2012-10-22T07:12:05Z</time>
      </trkpt>
      <trkpt lat="47.895092004910111" lon="14.502647398039699">
        <ele>317</ele>
        <time>2012-10-22T07:12:09Z</time>
      </trkpt>
      <trkpt lat="47.895084377378225" lon="14.502607332542539">
        <ele>317.39999389648398</ele>
        <time>2012-10-22T07:12:10Z</time>
      </trkpt>
      <trkpt lat="47.895080605521798" lon="14.502565423026681">
        <ele>317.79998779296898</ele>
        <time>2012-10-22T07:12:11Z</time>
      </trkpt>
      <trkpt lat="47.895076749846339" lon="14.502523429691792">
        <ele>318.20001220703102</ele>
        <time>2012-10-22T07:12:12Z</time>
      </trkpt>
      <trkpt lat="47.895069122314453" lon="14.502478586509824">
        <ele>318.60000610351602</ele>
        <time>2012-10-22T07:12:13Z</time>
      </trkpt>
      <trkpt lat="47.895053867250681" lon="14.502247832715511">
        <ele>318.60000610351602</ele>
        <time>2012-10-22T07:12:18Z</time>
      </trkpt>
      <trkpt lat="47.895027128979564" lon="14.501927392557263">
        <ele>318.60000610351602</ele>
        <time>2012-10-22T07:12:24Z</time>
      </trkpt>
      <trkpt lat="47.895008102059364" lon="14.501462951302528">
        <ele>318.60000610351602</ele>
        <time>2012-10-22T07:12:32Z</time>
      </trkpt>
      <trkpt lat="47.894981363788247" lon="14.501067157834768">
        <ele>318.60000610351602</ele>
        <time>2012-10-22T07:12:39Z</time>
      </trkpt>
      <trkpt lat="47.894996618852019" lon="14.500745795667171">
        <ele>318.60000610351602</ele>
        <time>2012-10-22T07:12:44Z</time>
      </trkpt>
      <trkpt lat="47.895030984655023" lon="14.500602716580033">
        <ele>318.60000610351602</ele>
        <time>2012-10-22T07:12:46Z</time>
      </trkpt>
      <trkpt lat="47.895126370713115" lon="14.500373806804419">
        <ele>318.60000610351602</ele>
        <time>2012-10-22T07:12:49Z</time>
      </trkpt>
      <trkpt lat="47.895164508372545" lon="14.500289903953671">
        <ele>318.60000610351602</ele>
        <time>2012-10-22T07:12:50Z</time>
      </trkpt>
      <trkpt lat="47.895240783691406" lon="14.500118242576718">
        <ele>318.20001220703102</ele>
        <time>2012-10-22T07:12:52Z</time>
      </trkpt>
      <trkpt lat="47.89527514949441" lon="14.500023862347007">
        <ele>317.79998779296898</ele>
        <time>2012-10-22T07:12:53Z</time>
      </trkpt>
      <trkpt lat="47.895309431478381" lon="14.499921770766377">
        <ele>317.20001220703102</ele>
        <time>2012-10-22T07:12:54Z</time>
      </trkpt>
      <trkpt lat="47.895332314074039" lon="14.499809285625815">
        <ele>316.79998779296898</ele>
        <time>2012-10-22T07:12:55Z</time>
      </trkpt>
      <trkpt lat="47.895351424813271" lon="14.499693866819143">
        <ele>316.39999389648398</ele>
        <time>2012-10-22T07:12:56Z</time>
      </trkpt>
      <trkpt lat="47.89537045173347" lon="14.499450707808137">
        <ele>315.79998779296898</ele>
        <time>2012-10-22T07:12:58Z</time>
      </trkpt>
      <trkpt lat="47.895374307408929" lon="14.499329589307308">
        <ele>315.39999389648398</ele>
        <time>2012-10-22T07:12:59Z</time>
      </trkpt>
      <trkpt lat="47.895374307408929" lon="14.499210398644209">
        <ele>315</ele>
        <time>2012-10-22T07:13:00Z</time>
      </trkpt>
      <trkpt lat="47.89537045173347" lon="14.49908928014338">
        <ele>314.39999389648398</ele>
        <time>2012-10-22T07:13:01Z</time>
      </trkpt>
      <trkpt lat="47.895366679877043" lon="14.498967155814171">
        <ele>314</ele>
        <time>2012-10-22T07:13:02Z</time>
      </trkpt>
      <trkpt lat="47.895309431478381" lon="14.498343458399177">
        <ele>313.60000610351602</ele>
        <time>2012-10-22T07:13:07Z</time>
      </trkpt>
      <trkpt lat="47.895290404558182" lon="14.49821949005127">
        <ele>313.20001220703102</ele>
        <time>2012-10-22T07:13:08Z</time>
      </trkpt>
      <trkpt lat="47.895267521962523" lon="14.4981022272259">
        <ele>312.79998779296898</ele>
        <time>2012-10-22T07:13:09Z</time>
      </trkpt>
      <trkpt lat="47.895244639366865" lon="14.497983958572149">
        <ele>312.39999389648398</ele>
        <time>2012-10-22T07:13:10Z</time>
      </trkpt>
      <trkpt lat="47.895221672952175" lon="14.497872311621904">
        <ele>311.79998779296898</ele>
        <time>2012-10-22T07:13:11Z</time>
      </trkpt>
      <trkpt lat="47.8951530251652" lon="14.497565282508731">
        <ele>311.79998779296898</ele>
        <time>2012-10-22T07:13:14Z</time>
      </trkpt>
      <trkpt lat="47.894958481192589" lon="14.496809989213943">
        <ele>311.79998779296898</ele>
        <time>2012-10-22T07:13:22Z</time>
      </trkpt>
      <trkpt lat="47.89481732994318" lon="14.49624253436923">
        <ele>311.79998779296898</ele>
        <time>2012-10-22T07:13:29Z</time>
      </trkpt>
      <trkpt lat="47.894672406837344" lon="14.495663680136204">
        <ele>311.79998779296898</ele>
        <time>2012-10-22T07:13:37Z</time>
      </trkpt>
      <trkpt lat="47.894531255587935" lon="14.495205860584974">
        <ele>311.79998779296898</ele>
        <time>2012-10-22T07:13:44Z</time>
      </trkpt>
      <trkpt lat="47.894504517316818" lon="14.495148696005344">
        <ele>312.39999389648398</ele>
        <time>2012-10-22T07:13:45Z</time>
      </trkpt>
      <trkpt lat="47.894474007189274" lon="14.495093375444412">
        <ele>312.79998779296898</ele>
        <time>2012-10-22T07:13:46Z</time>
      </trkpt>
      <trkpt lat="47.894447352737188" lon="14.495040904730558">
        <ele>313.20001220703102</ele>
        <time>2012-10-22T07:13:47Z</time>
      </trkpt>
      <trkpt lat="47.89442447014153" lon="14.494988434016705">
        <ele>313.60000610351602</ele>
        <time>2012-10-22T07:13:48Z</time>
      </trkpt>
      <trkpt lat="47.894405359402299" lon="14.494933113455772">
        <ele>314</ele>
        <time>2012-10-22T07:13:49Z</time>
      </trkpt>
      <trkpt lat="47.894382476806641" lon="14.494876870885491">
        <ele>314</ele>
        <time>2012-10-22T07:13:50Z</time>
      </trkpt>
      <trkpt lat="47.894313829019666" lon="14.494734797626734">
        <ele>314.39999389648398</ele>
        <time>2012-10-22T07:13:53Z</time>
      </trkpt>
      <trkpt lat="47.894287090748549" lon="14.494696576148272">
        <ele>314.79998779296898</ele>
        <time>2012-10-22T07:13:54Z</time>
      </trkpt>
      <trkpt lat="47.894260436296463" lon="14.494659444317222">
        <ele>315.60000610351602</ele>
        <time>2012-10-22T07:13:55Z</time>
      </trkpt>
      <trkpt lat="47.894233698025346" lon="14.494628934189677">
        <ele>316</ele>
        <time>2012-10-22T07:13:56Z</time>
      </trkpt>
      <trkpt lat="47.894092546775937" lon="14.494565986096859">
        <ele>316</ele>
        <time>2012-10-22T07:14:00Z</time>
      </trkpt>
      <trkpt lat="47.894058264791965" lon="14.494537319988012">
        <ele>316</ele>
        <time>2012-10-22T07:14:01Z</time>
      </trkpt>
      <trkpt lat="47.893951395526528" lon="14.494361886754632">
        <ele>316</ele>
        <time>2012-10-22T07:14:05Z</time>
      </trkpt>
      <trkpt lat="47.893920885398984" lon="14.494261723011732">
        <ele>316</ele>
        <time>2012-10-22T07:14:07Z</time>
      </trkpt>
      <trkpt lat="47.893882747739553" lon="14.494101544842124">
        <ele>316</ele>
        <time>2012-10-22T07:14:10Z</time>
      </trkpt>
      <trkpt lat="47.893859865143895" lon="14.494048152118921">
        <ele>316</ele>
        <time>2012-10-22T07:14:11Z</time>
      </trkpt>
      <trkpt lat="47.893745452165604" lon="14.493814464658499">
        <ele>316</ele>
        <time>2012-10-22T07:14:15Z</time>
      </trkpt>
      <trkpt lat="47.89367294870317" lon="14.493553200736642">
        <ele>316</ele>
        <time>2012-10-22T07:14:18Z</time>
      </trkpt>
      <trkpt lat="47.893657693639398" lon="14.493448259308934">
        <ele>316</ele>
        <time>2012-10-22T07:14:19Z</time>
      </trkpt>
      <trkpt lat="47.893638582900167" lon="14.493217505514622">
        <ele>315.60000610351602</ele>
        <time>2012-10-22T07:14:21Z</time>
      </trkpt>
      <trkpt lat="47.893623327836394" lon="14.493098231032491">
        <ele>315.20001220703102</ele>
        <time>2012-10-22T07:14:22Z</time>
      </trkpt>
      <trkpt lat="47.89359281770885" lon="14.492971412837505">
        <ele>314.79998779296898</ele>
        <time>2012-10-22T07:14:23Z</time>
      </trkpt>
      <trkpt lat="47.893558535724878" lon="14.492840738967061">
        <ele>314.20001220703102</ele>
        <time>2012-10-22T07:14:24Z</time>
      </trkpt>
      <trkpt lat="47.893520314246416" lon="14.492709143087268">
        <ele>313.60000610351602</ele>
        <time>2012-10-22T07:14:25Z</time>
      </trkpt>
      <trkpt lat="47.893474549055099" lon="14.492573775351048">
        <ele>313</ele>
        <time>2012-10-22T07:14:26Z</time>
      </trkpt>
      <trkpt lat="47.893428783863783" lon="14.492442095652223">
        <ele>312.39999389648398</ele>
        <time>2012-10-22T07:14:27Z</time>
      </trkpt>
      <trkpt lat="47.893383018672466" lon="14.49231150560081">
        <ele>311.79998779296898</ele>
        <time>2012-10-22T07:14:28Z</time>
      </trkpt>
      <trkpt lat="47.893341025337577" lon="14.492179909721017">
        <ele>311.20001220703102</ele>
        <time>2012-10-22T07:14:29Z</time>
      </trkpt>
      <trkpt lat="47.89329526014626" lon="14.492053007707">
        <ele>310.79998779296898</ele>
        <time>2012-10-22T07:14:30Z</time>
      </trkpt>
      <trkpt lat="47.893253350630403" lon="14.491925267502666">
        <ele>310.20001220703102</ele>
        <time>2012-10-22T07:14:31Z</time>
      </trkpt>
      <trkpt lat="47.893207585439086" lon="14.491803143173456">
        <ele>309.60000610351602</ele>
        <time>2012-10-22T07:14:32Z</time>
      </trkpt>
      <trkpt lat="47.893165592104197" lon="14.491683952510357">
        <ele>309.20001220703102</ele>
        <time>2012-10-22T07:14:33Z</time>
      </trkpt>
      <trkpt lat="47.893127454444766" lon="14.491567611694336">
        <ele>308.60000610351602</ele>
        <time>2012-10-22T07:14:34Z</time>
      </trkpt>
      <trkpt lat="47.893085461109877" lon="14.491447415202856">
        <ele>308</ele>
        <time>2012-10-22T07:14:35Z</time>
      </trkpt>
      <trkpt lat="47.893054950982332" lon="14.491332080215216">
        <ele>307.60000610351602</ele>
        <time>2012-10-22T07:14:36Z</time>
      </trkpt>
      <trkpt lat="47.893020668998361" lon="14.491211883723736">
        <ele>307</ele>
        <time>2012-10-22T07:14:37Z</time>
      </trkpt>
      <trkpt lat="47.892955793067813" lon="14.490965874865651">
        <ele>306.60000610351602</ele>
        <time>2012-10-22T07:14:39Z</time>
      </trkpt>
      <trkpt lat="47.89292142726481" lon="14.490837128832936">
        <ele>306.20001220703102</ele>
        <time>2012-10-22T07:14:40Z</time>
      </trkpt>
      <trkpt lat="47.892890917137265" lon="14.490704527124763">
        <ele>305.60000610351602</ele>
        <time>2012-10-22T07:14:41Z</time>
      </trkpt>
      <trkpt lat="47.89286426268518" lon="14.490567231550813">
        <ele>305.20001220703102</ele>
        <time>2012-10-22T07:14:42Z</time>
      </trkpt>
      <trkpt lat="47.892841380089521" lon="14.490417446941137">
        <ele>304.60000610351602</ele>
        <time>2012-10-22T07:14:43Z</time>
      </trkpt>
      <trkpt lat="47.892818413674831" lon="14.490269673988223">
        <ele>303.39999389648398</ele>
        <time>2012-10-22T07:14:44Z</time>
      </trkpt>
      <trkpt lat="47.892799386754632" lon="14.490120895206928">
        <ele>302.79998779296898</ele>
        <time>2012-10-22T07:14:45Z</time>
      </trkpt>
      <trkpt lat="47.892780276015401" lon="14.489974966272712">
        <ele>302</ele>
        <time>2012-10-22T07:14:46Z</time>
      </trkpt>
      <trkpt lat="47.892780276015401" lon="14.489828115329146">
        <ele>301.20001220703102</ele>
        <time>2012-10-22T07:14:47Z</time>
      </trkpt>
      <trkpt lat="47.892787903547287" lon="14.489688891917467">
        <ele>300.60000610351602</ele>
        <time>2012-10-22T07:14:48Z</time>
      </trkpt>
      <trkpt lat="47.892787903547287" lon="14.489554446190596">
        <ele>299.79998779296898</ele>
        <time>2012-10-22T07:14:49Z</time>
      </trkpt>
      <trkpt lat="47.892772648483515" lon="14.489295026287436">
        <ele>299.79998779296898</ele>
        <time>2012-10-22T07:14:51Z</time>
      </trkpt>
      <trkpt lat="47.89270400069654" lon="14.488636963069439">
        <ele>299.79998779296898</ele>
        <time>2012-10-22T07:14:57Z</time>
      </trkpt>
      <trkpt lat="47.892620097845793" lon="14.487887369468808">
        <ele>299.79998779296898</ele>
        <time>2012-10-22T07:15:05Z</time>
      </trkpt>
      <trkpt lat="47.892551450058818" lon="14.487440111115575">
        <ele>299.79998779296898</ele>
        <time>2012-10-22T07:15:11Z</time>
      </trkpt>
      <trkpt lat="47.892501829192042" lon="14.487257972359657">
        <ele>299.79998779296898</ele>
        <time>2012-10-22T07:15:14Z</time>
      </trkpt>
      <trkpt lat="47.892467463389039" lon="14.487151186913252">
        <ele>300.20001220703102</ele>
        <time>2012-10-22T07:15:16Z</time>
      </trkpt>
      <trkpt lat="47.892452208325267" lon="14.487101566046476">
        <ele>300.60000610351602</ele>
        <time>2012-10-22T07:15:17Z</time>
      </trkpt>
      <trkpt lat="47.892433181405067" lon="14.487054795026779">
        <ele>301</ele>
        <time>2012-10-22T07:15:18Z</time>
      </trkpt>
      <trkpt lat="47.89240644313395" lon="14.487009029835463">
        <ele>301.39999389648398</ele>
        <time>2012-10-22T07:15:19Z</time>
      </trkpt>
      <trkpt lat="47.892387416213751" lon="14.486956559121609">
        <ele>301.79998779296898</ele>
        <time>2012-10-22T07:15:20Z</time>
      </trkpt>
      <trkpt lat="47.89234927855432" lon="14.486852623522282">
        <ele>301.79998779296898</ele>
        <time>2012-10-22T07:15:22Z</time>
      </trkpt>
      <trkpt lat="47.892185244709253" lon="14.486475018784404">
        <ele>301.79998779296898</ele>
        <time>2012-10-22T07:15:30Z</time>
      </trkpt>
      <trkpt lat="47.891998328268528" lon="14.486143095418811">
        <ele>301.79998779296898</ele>
        <time>2012-10-22T07:15:37Z</time>
      </trkpt>
      <trkpt lat="47.891811411827803" lon="14.485766412690282">
        <ele>301.79998779296898</ele>
        <time>2012-10-22T07:15:44Z</time>
      </trkpt>
      <trkpt lat="47.891666404902935" lon="14.485425017774105">
        <ele>301.79998779296898</ele>
        <time>2012-10-22T07:15:50Z</time>
      </trkpt>
      <trkpt lat="47.89161678403616" lon="14.485311526805162">
        <ele>301.79998779296898</ele>
        <time>2012-10-22T07:15:52Z</time>
      </trkpt>
      <trkpt lat="47.891460377722979" lon="14.484845157712698">
        <ele>302.20001220703102</ele>
        <time>2012-10-22T07:16:00Z</time>
      </trkpt>
      <trkpt lat="47.891448978334665" lon="14.484788915142417">
        <ele>302.79998779296898</ele>
        <time>2012-10-22T07:16:01Z</time>
      </trkpt>
      <trkpt lat="47.891433723270893" lon="14.484737366437912">
        <ele>303.20001220703102</ele>
        <time>2012-10-22T07:16:02Z</time>
      </trkpt>
      <trkpt lat="47.891422240063548" lon="14.484689673408866">
        <ele>303.60000610351602</ele>
        <time>2012-10-22T07:16:03Z</time>
      </trkpt>
      <trkpt lat="47.891410840675235" lon="14.484639130532742">
        <ele>304</ele>
        <time>2012-10-22T07:16:04Z</time>
      </trkpt>
      <trkpt lat="47.891368847340345" lon="14.484432181343436">
        <ele>304</ele>
        <time>2012-10-22T07:16:08Z</time>
      </trkpt>
      <trkpt lat="47.891353592276573" lon="14.483987772837281">
        <ele>304</ele>
        <time>2012-10-22T07:16:15Z</time>
      </trkpt>
      <trkpt lat="47.891315454617143" lon="14.48349567130208">
        <ele>304</ele>
        <time>2012-10-22T07:16:22Z</time>
      </trkpt>
      <trkpt lat="47.891193414106965" lon="14.483039863407612">
        <ele>304</ele>
        <time>2012-10-22T07:16:29Z</time>
      </trkpt>
      <trkpt lat="47.891078917309642" lon="14.482521023601294">
        <ele>304</ele>
        <time>2012-10-22T07:16:36Z</time>
      </trkpt>
      <trkpt lat="47.891071289777756" lon="14.482442820444703">
        <ele>304</ele>
        <time>2012-10-22T07:16:37Z</time>
      </trkpt>
      <trkpt lat="47.89106366224587" lon="14.482150040566921">
        <ele>304</ele>
        <time>2012-10-22T07:16:41Z</time>
      </trkpt>
      <trkpt lat="47.891082772985101" lon="14.481944097205997">
        <ele>304</ele>
        <time>2012-10-22T07:16:45Z</time>
      </trkpt>
      <trkpt lat="47.891090400516987" lon="14.481694232672453">
        <ele>304</ele>
        <time>2012-10-22T07:16:50Z</time>
      </trkpt>
      <trkpt lat="47.891090400516987" lon="14.481526343151927">
        <ele>304</ele>
        <time>2012-10-22T07:16:54Z</time>
      </trkpt>
      <trkpt lat="47.891098028048873" lon="14.481373792514205">
        <ele>304.39999389648398</ele>
        <time>2012-10-22T07:16:58Z</time>
      </trkpt>
      <trkpt lat="47.8911017999053" lon="14.481335654854774">
        <ele>305</ele>
        <time>2012-10-22T07:16:59Z</time>
      </trkpt>
      <trkpt lat="47.891105655580759" lon="14.481301289051771">
        <ele>305.39999389648398</ele>
        <time>2012-10-22T07:17:00Z</time>
      </trkpt>
      <trkpt lat="47.891113283112645" lon="14.481262229382992">
        <ele>305.79998779296898</ele>
        <time>2012-10-22T07:17:01Z</time>
      </trkpt>
      <trkpt lat="47.891117054969072" lon="14.48122501373291">
        <ele>306.20001220703102</ele>
        <time>2012-10-22T07:17:02Z</time>
      </trkpt>
      <trkpt lat="47.891132393851876" lon="14.48102661408484">
        <ele>306.20001220703102</ele>
        <time>2012-10-22T07:17:08Z</time>
      </trkpt>
      <trkpt lat="47.891132393851876" lon="14.480970371514559">
        <ele>306.60000610351602</ele>
        <time>2012-10-22T07:17:10Z</time>
      </trkpt>
      <trkpt lat="47.891132393851876" lon="14.480943717062473">
        <ele>307.39999389648398</ele>
        <time>2012-10-22T07:17:11Z</time>
      </trkpt>
      <trkpt lat="47.891128538176417" lon="14.480922678485513">
        <ele>307.79998779296898</ele>
        <time>2012-10-22T07:17:12Z</time>
      </trkpt>
      <trkpt lat="47.891120910644531" lon="14.480898873880506">
        <ele>308.20001220703102</ele>
        <time>2012-10-22T07:17:13Z</time>
      </trkpt>
      <trkpt lat="47.891098028048873" lon="14.480775827541947">
        <ele>308.20001220703102</ele>
        <time>2012-10-22T07:17:17Z</time>
      </trkpt>
      <trkpt lat="47.891075145453215" lon="14.480684297159314">
        <ele>308.20001220703102</ele>
        <time>2012-10-22T07:17:20Z</time>
      </trkpt>
      <trkpt lat="47.891075145453215" lon="14.480658564716578">
        <ele>308.20001220703102</ele>
        <time>2012-10-22T07:17:21Z</time>
      </trkpt>
      <trkpt lat="47.891071289777756" lon="14.480630904436111">
        <ele>308.79998779296898</ele>
        <time>2012-10-22T07:17:22Z</time>
      </trkpt>
      <trkpt lat="47.891067517921329" lon="14.480604166164994">
        <ele>309.20001220703102</ele>
        <time>2012-10-22T07:17:23Z</time>
      </trkpt>
      <trkpt lat="47.891056034713984" lon="14.480579355731606">
        <ele>309.60000610351602</ele>
        <time>2012-10-22T07:17:24Z</time>
      </trkpt>
      <trkpt lat="47.891048407182097" lon="14.480557478964329">
        <ele>310</ele>
        <time>2012-10-22T07:17:25Z</time>
      </trkpt>
      <trkpt lat="47.89104463532567" lon="14.480534512549639">
        <ele>310.39999389648398</ele>
        <time>2012-10-22T07:17:26Z</time>
      </trkpt>
      <trkpt lat="47.891025524586439" lon="14.480403922498226">
        <ele>310.39999389648398</ele>
        <time>2012-10-22T07:17:31Z</time>
      </trkpt>
      <trkpt lat="47.890975987538695" lon="14.480134025216103">
        <ele>310.39999389648398</ele>
        <time>2012-10-22T07:17:38Z</time>
      </trkpt>
      <trkpt lat="47.890922510996461" lon="14.47990226559341">
        <ele>310.79998779296898</ele>
        <time>2012-10-22T07:17:43Z</time>
      </trkpt>
      <trkpt lat="47.890914883464575" lon="14.47986320592463">
        <ele>311.20001220703102</ele>
        <time>2012-10-22T07:17:44Z</time>
      </trkpt>
      <trkpt lat="47.890907255932689" lon="14.47982314042747">
        <ele>311.60000610351602</ele>
        <time>2012-10-22T07:17:45Z</time>
      </trkpt>
      <trkpt lat="47.890903484076262" lon="14.479781147092581">
        <ele>312.20001220703102</ele>
        <time>2012-10-22T07:17:46Z</time>
      </trkpt>
      <trkpt lat="47.890888229012489" lon="14.47974493727088">
        <ele>312.60000610351602</ele>
        <time>2012-10-22T07:17:47Z</time>
      </trkpt>
      <trkpt lat="47.890827208757401" lon="14.479586603119969">
        <ele>312.60000610351602</ele>
        <time>2012-10-22T07:17:52Z</time>
      </trkpt>
      <trkpt lat="47.890758477151394" lon="14.479355849325657">
        <ele>312.60000610351602</ele>
        <time>2012-10-22T07:17:58Z</time>
      </trkpt>
      <trkpt lat="47.890750849619508" lon="14.479062063619494">
        <ele>312.60000610351602</ele>
        <time>2012-10-22T07:18:04Z</time>
      </trkpt>
      <trkpt lat="47.890747077763081" lon="14.478824604302645">
        <ele>312.60000610351602</ele>
        <time>2012-10-22T07:18:08Z</time>
      </trkpt>
      <trkpt lat="47.890754705294967" lon="14.478751178830862">
        <ele>312.60000610351602</ele>
        <time>2012-10-22T07:18:09Z</time>
      </trkpt>
      <trkpt lat="47.890781443566084" lon="14.47822093963623">
        <ele>312.60000610351602</ele>
        <time>2012-10-22T07:18:15Z</time>
      </trkpt>
      <trkpt lat="47.890781443566084" lon="14.478034023195505">
        <ele>312</ele>
        <time>2012-10-22T07:18:17Z</time>
      </trkpt>
      <trkpt lat="47.890781443566084" lon="14.477932015433908">
        <ele>311.60000610351602</ele>
        <time>2012-10-22T07:18:18Z</time>
      </trkpt>
      <trkpt lat="47.890777587890625" lon="14.477836629375815">
        <ele>311.20001220703102</ele>
        <time>2012-10-22T07:18:19Z</time>
      </trkpt>
      <trkpt lat="47.890773732215166" lon="14.477737387642264">
        <ele>310.79998779296898</ele>
        <time>2012-10-22T07:18:20Z</time>
      </trkpt>
      <trkpt lat="47.890769960358739" lon="14.477639235556126">
        <ele>310.39999389648398</ele>
        <time>2012-10-22T07:18:21Z</time>
      </trkpt>
      <trkpt lat="47.890750849619508" lon="14.477242436259985">
        <ele>310</ele>
        <time>2012-10-22T07:18:25Z</time>
      </trkpt>
      <trkpt lat="47.890747077763081" lon="14.477145206183195">
        <ele>309.39999389648398</ele>
        <time>2012-10-22T07:18:26Z</time>
      </trkpt>
      <trkpt lat="47.890747077763081" lon="14.477043114602566">
        <ele>309</ele>
        <time>2012-10-22T07:18:27Z</time>
      </trkpt>
      <trkpt lat="47.890750849619508" lon="14.476943956688046">
        <ele>308.60000610351602</ele>
        <time>2012-10-22T07:18:28Z</time>
      </trkpt>
      <trkpt lat="47.890762332826853" lon="14.476846726611257">
        <ele>308.20001220703102</ele>
        <time>2012-10-22T07:18:29Z</time>
      </trkpt>
      <trkpt lat="47.890819581225514" lon="14.476392762735486">
        <ele>308.20001220703102</ele>
        <time>2012-10-22T07:18:34Z</time>
      </trkpt>
      <trkpt lat="47.890960732474923" lon="14.475880628451705">
        <ele>308.20001220703102</ele>
        <time>2012-10-22T07:18:40Z</time>
      </trkpt>
      <trkpt lat="47.890998870134354" lon="14.475688934326172">
        <ele>307.79998779296898</ele>
        <time>2012-10-22T07:18:42Z</time>
      </trkpt>
      <trkpt lat="47.891014125198126" lon="14.475587848573923">
        <ele>307.39999389648398</ele>
        <time>2012-10-22T07:18:43Z</time>
      </trkpt>
      <trkpt lat="47.891029380261898" lon="14.475484834983945">
        <ele>307</ele>
        <time>2012-10-22T07:18:44Z</time>
      </trkpt>
      <trkpt lat="47.891040779650211" lon="14.475378049537539">
        <ele>306.39999389648398</ele>
        <time>2012-10-22T07:18:45Z</time>
      </trkpt>
      <trkpt lat="47.891052262857556" lon="14.475269336253405">
        <ele>306</ele>
        <time>2012-10-22T07:18:46Z</time>
      </trkpt>
      <trkpt lat="47.891078917309642" lon="14.474930791184306">
        <ele>305.60000610351602</ele>
        <time>2012-10-22T07:18:49Z</time>
      </trkpt>
      <trkpt lat="47.891082772985101" lon="14.474812522530556">
        <ele>304.79998779296898</ele>
        <time>2012-10-22T07:18:50Z</time>
      </trkpt>
      <trkpt lat="47.891086544841528" lon="14.474699953570962">
        <ele>304.20001220703102</ele>
        <time>2012-10-22T07:18:51Z</time>
      </trkpt>
      <trkpt lat="47.891086544841528" lon="14.474589312449098">
        <ele>303.79998779296898</ele>
        <time>2012-10-22T07:18:52Z</time>
      </trkpt>
      <trkpt lat="47.891094172373414" lon="14.474481604993343">
        <ele>303.79998779296898</ele>
        <time>2012-10-22T07:18:53Z</time>
      </trkpt>
      <trkpt lat="47.891136165708303" lon="14.474049601703882">
        <ele>303.39999389648398</ele>
        <time>2012-10-22T07:18:57Z</time>
      </trkpt>
      <trkpt lat="47.891140021383762" lon="14.47395614348352">
        <ele>303</ele>
        <time>2012-10-22T07:18:58Z</time>
      </trkpt>
      <trkpt lat="47.89114379324019" lon="14.47387408465147">
        <ele>302.39999389648398</ele>
        <time>2012-10-22T07:18:59Z</time>
      </trkpt>
      <trkpt lat="47.891147648915648" lon="14.473798731341958">
        <ele>302</ele>
        <time>2012-10-22T07:19:00Z</time>
      </trkpt>
      <trkpt lat="47.891151420772076" lon="14.473731005564332">
        <ele>301.60000610351602</ele>
        <time>2012-10-22T07:19:01Z</time>
      </trkpt>
      <trkpt lat="47.89114379324019" lon="14.473588932305574">
        <ele>301.60000610351602</ele>
        <time>2012-10-22T07:19:04Z</time>
      </trkpt>
      <trkpt lat="47.891078917309642" lon="14.473473513498902">
        <ele>301.60000610351602</ele>
        <time>2012-10-22T07:19:09Z</time>
      </trkpt>
      <trkpt lat="47.890998870134354" lon="14.473344767466187">
        <ele>301.60000610351602</ele>
        <time>2012-10-22T07:19:13Z</time>
      </trkpt>
      <trkpt lat="47.89096450433135" lon="14.473265642300248">
        <ele>301.60000610351602</ele>
        <time>2012-10-22T07:19:15Z</time>
      </trkpt>
      <trkpt lat="47.890945393592119" lon="14.473227504640818">
        <ele>302</ele>
        <time>2012-10-22T07:19:16Z</time>
      </trkpt>
      <trkpt lat="47.89092636667192" lon="14.473191294819117">
        <ele>302.60000610351602</ele>
        <time>2012-10-22T07:19:17Z</time>
      </trkpt>
      <trkpt lat="47.890907255932689" lon="14.473153073340654">
        <ele>303</ele>
        <time>2012-10-22T07:19:18Z</time>
      </trkpt>
      <trkpt lat="47.890892000868917" lon="14.473113091662526">
        <ele>303.39999389648398</ele>
        <time>2012-10-22T07:19:19Z</time>
      </trkpt>
      <trkpt lat="47.890872973948717" lon="14.473070176318288">
        <ele>303.79998779296898</ele>
        <time>2012-10-22T07:19:20Z</time>
      </trkpt>
      <trkpt lat="47.890853863209486" lon="14.472978562116623">
        <ele>303.79998779296898</ele>
        <time>2012-10-22T07:19:22Z</time>
      </trkpt>
      <trkpt lat="47.890834836289287" lon="14.47262953966856">
        <ele>303.79998779296898</ele>
        <time>2012-10-22T07:19:29Z</time>
      </trkpt>
      <trkpt lat="47.890823353081942" lon="14.472103156149387">
        <ele>303.79998779296898</ele>
        <time>2012-10-22T07:19:38Z</time>
      </trkpt>
      <trkpt lat="47.890823353081942" lon="14.471989665180445">
        <ele>304.60000610351602</ele>
        <time>2012-10-22T07:19:40Z</time>
      </trkpt>
      <trkpt lat="47.890823353081942" lon="14.471933338791132">
        <ele>305</ele>
        <time>2012-10-22T07:19:41Z</time>
      </trkpt>
      <trkpt lat="47.890823353081942" lon="14.471876174211502">
        <ele>305.39999389648398</ele>
        <time>2012-10-22T07:19:42Z</time>
      </trkpt>
      <trkpt lat="47.890823353081942" lon="14.471821775659919">
        <ele>305.79998779296898</ele>
        <time>2012-10-22T07:19:43Z</time>
      </trkpt>
      <trkpt lat="47.890815725550056" lon="14.471653969958425">
        <ele>305.79998779296898</ele>
        <time>2012-10-22T07:19:46Z</time>
      </trkpt>
      <trkpt lat="47.890808098018169" lon="14.471176117658615">
        <ele>305.79998779296898</ele>
        <time>2012-10-22T07:19:54Z</time>
      </trkpt>
      <trkpt lat="47.890773732215166" lon="14.470668761059642">
        <ele>305.79998779296898</ele>
        <time>2012-10-22T07:20:04Z</time>
      </trkpt>
      <trkpt lat="47.890792842954397" lon="14.470290150493383">
        <ele>305.79998779296898</ele>
        <time>2012-10-22T07:20:11Z</time>
      </trkpt>
      <trkpt lat="47.890876745805144" lon="14.469911539927125">
        <ele>305.79998779296898</ele>
        <time>2012-10-22T07:20:18Z</time>
      </trkpt>
      <trkpt lat="47.890899628400803" lon="14.469797126948833">
        <ele>305.79998779296898</ele>
        <time>2012-10-22T07:20:20Z</time>
      </trkpt>
      <trkpt lat="47.890914883464575" lon="14.46947006508708">
        <ele>305.79998779296898</ele>
        <time>2012-10-22T07:20:25Z</time>
      </trkpt>
      <trkpt lat="47.890899628400803" lon="14.469000846147537">
        <ele>305.79998779296898</ele>
        <time>2012-10-22T07:20:32Z</time>
      </trkpt>
      <trkpt lat="47.890892000868917" lon="14.468519221991301">
        <ele>305.79998779296898</ele>
        <time>2012-10-22T07:20:39Z</time>
      </trkpt>
      <trkpt lat="47.89088437333703" lon="14.467948917299509">
        <ele>305.79998779296898</ele>
        <time>2012-10-22T07:20:47Z</time>
      </trkpt>
      <trkpt lat="47.890872973948717" lon="14.467372912913561">
        <ele>305.79998779296898</ele>
        <time>2012-10-22T07:20:55Z</time>
      </trkpt>
      <trkpt lat="47.890865346416831" lon="14.466731110587716">
        <ele>305.79998779296898</ele>
        <time>2012-10-22T07:21:04Z</time>
      </trkpt>
      <trkpt lat="47.890857718884945" lon="14.466197937726974">
        <ele>305.79998779296898</ele>
        <time>2012-10-22T07:21:12Z</time>
      </trkpt>
      <trkpt lat="47.890857718884945" lon="14.465786973014474">
        <ele>305.79998779296898</ele>
        <time>2012-10-22T07:21:18Z</time>
      </trkpt>
      <trkpt lat="47.8908462356776" lon="14.465658226981759">
        <ele>305.79998779296898</ele>
        <time>2012-10-22T07:21:20Z</time>
      </trkpt>
      <trkpt lat="47.890838608145714" lon="14.465404506772757">
        <ele>305.79998779296898</ele>
        <time>2012-10-22T07:21:24Z</time>
      </trkpt>
      <trkpt lat="47.890838608145714" lon="14.465277688577771">
        <ele>305.79998779296898</ele>
        <time>2012-10-22T07:21:26Z</time>
      </trkpt>
      <trkpt lat="47.890834836289287" lon="14.464789358898997">
        <ele>305.79998779296898</ele>
        <time>2012-10-22T07:21:34Z</time>
      </trkpt>
      <trkpt lat="47.890830980613828" lon="14.464549049735069">
        <ele>306.20001220703102</ele>
        <time>2012-10-22T07:21:38Z</time>
      </trkpt>
      <trkpt lat="47.890827208757401" lon="14.46448802947998">
        <ele>306.79998779296898</ele>
        <time>2012-10-22T07:21:39Z</time>
      </trkpt>
      <trkpt lat="47.890823353081942" lon="14.464427009224892">
        <ele>307.20001220703102</ele>
        <time>2012-10-22T07:21:40Z</time>
      </trkpt>
      <trkpt lat="47.890823353081942" lon="14.464370766654611">
        <ele>307.60000610351602</ele>
        <time>2012-10-22T07:21:41Z</time>
      </trkpt>
      <trkpt lat="47.890823353081942" lon="14.464307818561792">
        <ele>308</ele>
        <time>2012-10-22T07:21:42Z</time>
      </trkpt>
      <trkpt lat="47.890804326161742" lon="14.463945385068655">
        <ele>308</ele>
        <time>2012-10-22T07:21:48Z</time>
      </trkpt>
      <trkpt lat="47.890773732215166" lon="14.463465688750148">
        <ele>308</ele>
        <time>2012-10-22T07:21:56Z</time>
      </trkpt>
      <trkpt lat="47.890735594555736" lon="14.463006025180221">
        <ele>308</ele>
        <time>2012-10-22T07:22:04Z</time>
      </trkpt>
      <trkpt lat="47.890682201832533" lon="14.462538734078407">
        <ele>308</ele>
        <time>2012-10-22T07:22:11Z</time>
      </trkpt>
      <trkpt lat="47.890636436641216" lon="14.462241176515818">
        <ele>308</ele>
        <time>2012-10-22T07:22:15Z</time>
      </trkpt>
      <trkpt lat="47.890575416386127" lon="14.462113352492452">
        <ele>308</ele>
        <time>2012-10-22T07:22:17Z</time>
      </trkpt>
      <trkpt lat="47.890499141067266" lon="14.461990389972925">
        <ele>308</ele>
        <time>2012-10-22T07:22:19Z</time>
      </trkpt>
      <trkpt lat="47.890457147732377" lon="14.461925514042377">
        <ele>307.39999389648398</ele>
        <time>2012-10-22T07:22:20Z</time>
      </trkpt>
      <trkpt lat="47.89041138254106" lon="14.461862565949559">
        <ele>306.79998779296898</ele>
        <time>2012-10-22T07:22:21Z</time>
      </trkpt>
      <trkpt lat="47.890369389206171" lon="14.4618034735322">
        <ele>306.39999389648398</ele>
        <time>2012-10-22T07:22:22Z</time>
      </trkpt>
      <trkpt lat="47.890323624014854" lon="14.46174337528646">
        <ele>305.79998779296898</ele>
        <time>2012-10-22T07:22:23Z</time>
      </trkpt>
      <trkpt lat="47.890281714498997" lon="14.461679421365261">
        <ele>305</ele>
        <time>2012-10-22T07:22:24Z</time>
      </trkpt>
      <trkpt lat="47.890239721164107" lon="14.461612701416016">
        <ele>304.39999389648398</ele>
        <time>2012-10-22T07:22:25Z</time>
      </trkpt>
      <trkpt lat="47.890197727829218" lon="14.46154497563839">
        <ele>303.60000610351602</ele>
        <time>2012-10-22T07:22:26Z</time>
      </trkpt>
      <trkpt lat="47.890159590169787" lon="14.461469622328877">
        <ele>303</ele>
        <time>2012-10-22T07:22:27Z</time>
      </trkpt>
      <trkpt lat="47.890125308185816" lon="14.461395274847746">
        <ele>302.20001220703102</ele>
        <time>2012-10-22T07:22:28Z</time>
      </trkpt>
      <trkpt lat="47.890090942382813" lon="14.461317993700504">
        <ele>301.60000610351602</ele>
        <time>2012-10-22T07:22:29Z</time>
      </trkpt>
      <trkpt lat="47.890056576579809" lon="14.461232163012028">
        <ele>300.79998779296898</ele>
        <time>2012-10-22T07:22:30Z</time>
      </trkpt>
      <trkpt lat="47.890026066452265" lon="14.461144488304853">
        <ele>300.20001220703102</ele>
        <time>2012-10-22T07:22:31Z</time>
      </trkpt>
      <trkpt lat="47.890003183856606" lon="14.461050946265459">
        <ele>299.39999389648398</ele>
        <time>2012-10-22T07:22:32Z</time>
      </trkpt>
      <trkpt lat="47.889984156936407" lon="14.460967043414712">
        <ele>298</ele>
        <time>2012-10-22T07:22:33Z</time>
      </trkpt>
      <trkpt lat="47.889965046197176" lon="14.46089462377131">
        <ele>297.20001220703102</ele>
        <time>2012-10-22T07:22:34Z</time>
      </trkpt>
      <trkpt lat="47.889946019276977" lon="14.460826897993684">
        <ele>296.39999389648398</ele>
        <time>2012-10-22T07:22:35Z</time>
      </trkpt>
      <trkpt lat="47.889930764213204" lon="14.460766799747944">
        <ele>295.60000610351602</ele>
        <time>2012-10-22T07:22:36Z</time>
      </trkpt>
      <trkpt lat="47.8899154253304" lon="14.460712401196361">
        <ele>294.79998779296898</ele>
        <time>2012-10-22T07:22:37Z</time>
      </trkpt>
      <trkpt lat="47.889904025942087" lon="14.460660014301538">
        <ele>294.20001220703102</ele>
        <time>2012-10-22T07:22:38Z</time>
      </trkpt>
      <trkpt lat="47.889888770878315" lon="14.460608465597034">
        <ele>293.60000610351602</ele>
        <time>2012-10-22T07:22:39Z</time>
      </trkpt>
      <trkpt lat="47.889881143346429" lon="14.460546523332596">
        <ele>292.79998779296898</ele>
        <time>2012-10-22T07:22:40Z</time>
      </trkpt>
      <trkpt lat="47.889865888282657" lon="14.460474941879511">
        <ele>292.20001220703102</ele>
        <time>2012-10-22T07:22:41Z</time>
      </trkpt>
      <trkpt lat="47.889854405075312" lon="14.460392966866493">
        <ele>291.60000610351602</ele>
        <time>2012-10-22T07:22:42Z</time>
      </trkpt>
      <trkpt lat="47.889839150011539" lon="14.460302358493209">
        <ele>291</ele>
        <time>2012-10-22T07:22:43Z</time>
      </trkpt>
      <trkpt lat="47.889823894947767" lon="14.460217449814081">
        <ele>290.60000610351602</ele>
        <time>2012-10-22T07:22:44Z</time>
      </trkpt>
      <trkpt lat="47.889797240495682" lon="14.460131619125605">
        <ele>290</ele>
        <time>2012-10-22T07:22:45Z</time>
      </trkpt>
      <trkpt lat="47.889770502224565" lon="14.460044866427779">
        <ele>289.60000610351602</ele>
        <time>2012-10-22T07:22:46Z</time>
      </trkpt>
      <trkpt lat="47.88973999209702" lon="14.459957107901573">
        <ele>289</ele>
        <time>2012-10-22T07:22:47Z</time>
      </trkpt>
      <trkpt lat="47.889705626294017" lon="14.459871277213097">
        <ele>288.20001220703102</ele>
        <time>2012-10-22T07:22:48Z</time>
      </trkpt>
      <trkpt lat="47.889675116166472" lon="14.459791146218777">
        <ele>287.60000610351602</ele>
        <time>2012-10-22T07:22:49Z</time>
      </trkpt>
      <trkpt lat="47.889644606038928" lon="14.459711099043489">
        <ele>287</ele>
        <time>2012-10-22T07:22:50Z</time>
      </trkpt>
      <trkpt lat="47.889617951586843" lon="14.459634739905596">
        <ele>286.20001220703102</ele>
        <time>2012-10-22T07:22:51Z</time>
      </trkpt>
      <trkpt lat="47.889595068991184" lon="14.459563242271543">
        <ele>285.39999389648398</ele>
        <time>2012-10-22T07:22:52Z</time>
      </trkpt>
      <trkpt lat="47.889572102576494" lon="14.459495516493917">
        <ele>284.60000610351602</ele>
        <time>2012-10-22T07:22:53Z</time>
      </trkpt>
      <trkpt lat="47.889556847512722" lon="14.459424018859863">
        <ele>284</ele>
        <time>2012-10-22T07:22:54Z</time>
      </trkpt>
      <trkpt lat="47.889549219980836" lon="14.459355371072888">
        <ele>283.20001220703102</ele>
        <time>2012-10-22T07:22:55Z</time>
      </trkpt>
      <trkpt lat="47.889545448124409" lon="14.459302900359035">
        <ele>282.39999389648398</ele>
        <time>2012-10-22T07:22:56Z</time>
      </trkpt>
      <trkpt lat="47.889545448124409" lon="14.459263840690255">
        <ele>281.60000610351602</ele>
        <time>2012-10-22T07:22:57Z</time>
      </trkpt>
      <trkpt lat="47.889591213315725" lon="14.459153199568391">
        <ele>281.60000610351602</ele>
        <time>2012-10-22T07:23:00Z</time>
      </trkpt>
      <trkpt lat="47.88960269652307" lon="14.459104500710964">
        <ele>281.20001220703102</ele>
        <time>2012-10-22T07:23:01Z</time>
      </trkpt>
      <trkpt lat="47.889598840847611" lon="14.45905689150095">
        <ele>280.79998779296898</ele>
        <time>2012-10-22T07:23:02Z</time>
      </trkpt>
      <trkpt lat="47.889587441459298" lon="14.459004420787096">
        <ele>280.39999389648398</ele>
        <time>2012-10-22T07:23:03Z</time>
      </trkpt>
      <trkpt lat="47.889568330720067" lon="14.458955805748701">
        <ele>280</ele>
        <time>2012-10-22T07:23:04Z</time>
      </trkpt>
      <trkpt lat="47.889545448124409" lon="14.458904257044196">
        <ele>279.60000610351602</ele>
        <time>2012-10-22T07:23:05Z</time>
      </trkpt>
      <trkpt lat="47.889423407614231" lon="14.458637209609151">
        <ele>279.60000610351602</ele>
        <time>2012-10-22T07:23:11Z</time>
      </trkpt>
      <trkpt lat="47.889301283285022" lon="14.458350213244557">
        <ele>279.60000610351602</ele>
        <time>2012-10-22T07:23:17Z</time>
      </trkpt>
      <trkpt lat="47.889263145625591" lon="14.458247199654579">
        <ele>279.60000610351602</ele>
        <time>2012-10-22T07:23:19Z</time>
      </trkpt>
      <trkpt lat="47.889156360179186" lon="14.457966824993491">
        <ele>279.60000610351602</ele>
        <time>2012-10-22T07:23:24Z</time>
      </trkpt>
      <trkpt lat="47.889060974121094" lon="14.457679744809866">
        <ele>279.60000610351602</ele>
        <time>2012-10-22T07:23:30Z</time>
      </trkpt>
      <trkpt lat="47.889022836461663" lon="14.45761009119451">
        <ele>279.60000610351602</ele>
        <time>2012-10-22T07:23:34Z</time>
      </trkpt>
      <trkpt lat="47.889007581397891" lon="14.457548148930073">
        <ele>279.60000610351602</ele>
        <time>2012-10-22T07:23:36Z</time>
      </trkpt>
      <trkpt lat="47.888900795951486" lon="14.457317311316729">
        <ele>279.60000610351602</ele>
        <time>2012-10-22T07:23:42Z</time>
      </trkpt>
      <trkpt lat="47.888729134574533" lon="14.45702075958252">
        <ele>279.60000610351602</ele>
        <time>2012-10-22T07:23:49Z</time>
      </trkpt>
      <trkpt lat="47.888702396303415" lon="14.456974994391203">
        <ele>279.60000610351602</ele>
        <time>2012-10-22T07:23:50Z</time>
      </trkpt>
      <trkpt lat="47.888607010245323" lon="14.456835770979524">
        <ele>279.60000610351602</ele>
        <time>2012-10-22T07:23:53Z</time>
      </trkpt>
      <trkpt lat="47.888538362458348" lon="14.456749940291047">
        <ele>279.60000610351602</ele>
        <time>2012-10-22T07:23:55Z</time>
      </trkpt>
      <trkpt lat="47.888202667236328" lon="14.456396140158176">
        <ele>279.60000610351602</ele>
        <time>2012-10-22T07:24:04Z</time>
      </trkpt>
      <trkpt lat="47.887912737205625" lon="14.456205368041992">
        <ele>279.60000610351602</ele>
        <time>2012-10-22T07:24:11Z</time>
      </trkpt>
      <trkpt lat="47.887798324227333" lon="14.456112831830978">
        <ele>279.60000610351602</ele>
        <time>2012-10-22T07:24:14Z</time>
      </trkpt>
      <trkpt lat="47.887596152722836" lon="14.455967908725142">
        <ele>279.60000610351602</ele>
        <time>2012-10-22T07:24:19Z</time>
      </trkpt>
      <trkpt lat="47.887336732819676" lon="14.455798175185919">
        <ele>279.60000610351602</ele>
        <time>2012-10-22T07:24:26Z</time>
      </trkpt>
      <trkpt lat="47.887165071442723" lon="14.455686528235674">
        <ele>280</ele>
        <time>2012-10-22T07:24:31Z</time>
      </trkpt>
      <trkpt lat="47.887134561315179" lon="14.455666579306126">
        <ele>280.39999389648398</ele>
        <time>2012-10-22T07:24:32Z</time>
      </trkpt>
      <trkpt lat="47.887111678719521" lon="14.455651324242353">
        <ele>281</ele>
        <time>2012-10-22T07:24:33Z</time>
      </trkpt>
      <trkpt lat="47.887088796123862" lon="14.455640763044357">
        <ele>281.39999389648398</ele>
        <time>2012-10-22T07:24:34Z</time>
      </trkpt>
      <trkpt lat="47.88707354106009" lon="14.455634141340852">
        <ele>281.79998779296898</ele>
        <time>2012-10-22T07:24:35Z</time>
      </trkpt>
      <trkpt lat="47.887054430320859" lon="14.455637913197279">
        <ele>281.79998779296898</ele>
        <time>2012-10-22T07:24:36Z</time>
      </trkpt>
      <trkpt lat="47.887039175257087" lon="14.455663645640016">
        <ele>281.79998779296898</ele>
        <time>2012-10-22T07:24:38Z</time>
      </trkpt>
      <trkpt lat="47.887050658464432" lon="14.455750482156873">
        <ele>281.79998779296898</ele>
        <time>2012-10-22T07:24:42Z</time>
      </trkpt>
      <trkpt lat="47.887054430320859" lon="14.455752409994602">
        <ele>281.79998779296898</ele>
        <time>2012-10-22T07:24:43Z</time>
      </trkpt>
      <trkpt lat="47.887058285996318" lon="14.4557542540133">
        <ele>281.79998779296898</ele>
        <time>2012-10-22T07:24:49Z</time>
      </trkpt>
      <trkpt lat="47.887058285996318" lon="14.4557542540133">
        <ele>281.79998779296898</ele>
        <time>2012-10-22T07:25:08Z</time>
      </trkpt>
      <trkpt lat="47.887058285996318" lon="14.455748554319143">
        <ele>281.79998779296898</ele>
        <time>2012-10-22T07:25:18Z</time>
      </trkpt>
      <trkpt lat="47.887058285996318" lon="14.455748554319143">
        <ele>281.79998779296898</ele>
        <time>2012-10-22T07:25:30Z</time>
      </trkpt>
      <trkpt lat="47.887058285996318" lon="14.455749476328492">
        <ele>281.79998779296898</ele>
        <time>2012-10-22T07:25:40Z</time>
      </trkpt>
      <trkpt lat="47.887058285996318" lon="14.455749476328492">
        <ele>281.79998779296898</ele>
        <time>2012-10-22T07:25:50Z</time>
      </trkpt>
      <trkpt lat="47.887058285996318" lon="14.455749476328492">
        <ele>281.79998779296898</ele>
        <time>2012-10-22T07:26:02Z</time>
      </trkpt>
      <trkpt lat="47.887058285996318" lon="14.455749476328492">
        <ele>281.79998779296898</ele>
        <time>2012-10-22T07:26:14Z</time>
      </trkpt>
      <trkpt lat="47.887069685384631" lon="14.455719972029328">
        <ele>281.79998779296898</ele>
        <time>2012-10-22T07:26:20Z</time>
      </trkpt>
      <trkpt lat="47.887081168591976" lon="14.455690383911133">
        <ele>281.79998779296898</ele>
        <time>2012-10-22T07:26:26Z</time>
      </trkpt>
      <trkpt lat="47.887107823044062" lon="14.455668423324823">
        <ele>281.79998779296898</ele>
        <time>2012-10-22T07:26:28Z</time>
      </trkpt>
      <trkpt lat="47.887138333171606" lon="14.455688456073403">
        <ele>281.79998779296898</ele>
        <time>2012-10-22T07:26:30Z</time>
      </trkpt>
      <trkpt lat="47.887207064777613" lon="14.455710416659713">
        <ele>281.79998779296898</ele>
        <time>2012-10-22T07:26:33Z</time>
      </trkpt>
      <trkpt lat="47.887264229357243" lon="14.455749476328492">
        <ele>281.79998779296898</ele>
        <time>2012-10-22T07:26:36Z</time>
      </trkpt>
      <trkpt lat="47.88742826320231" lon="14.455878222361207">
        <ele>281.79998779296898</ele>
        <time>2012-10-22T07:26:43Z</time>
      </trkpt>
      <trkpt lat="47.887599924579263" lon="14.456001268699765">
        <ele>281.79998779296898</ele>
        <time>2012-10-22T07:26:50Z</time>
      </trkpt>
      <trkpt lat="47.887805951759219" lon="14.45615004748106">
        <ele>281.79998779296898</ele>
        <time>2012-10-22T07:26:58Z</time>
      </trkpt>
      <trkpt lat="47.888072999194264" lon="14.456336963921785">
        <ele>281.79998779296898</ele>
        <time>2012-10-22T07:27:07Z</time>
      </trkpt>
      <trkpt lat="47.888290425762534" lon="14.456521952524781">
        <ele>281.79998779296898</ele>
        <time>2012-10-22T07:27:14Z</time>
      </trkpt>
      <trkpt lat="47.888427721336484" lon="14.456654554232955">
        <ele>281.79998779296898</ele>
        <time>2012-10-22T07:27:20Z</time>
      </trkpt>
      <trkpt lat="47.888446832075715" lon="14.45664307102561">
        <ele>281.79998779296898</ele>
        <time>2012-10-22T07:27:21Z</time>
      </trkpt>
      <trkpt lat="47.888507852330804" lon="14.456618344411254">
        <ele>281.79998779296898</ele>
        <time>2012-10-22T07:27:24Z</time>
      </trkpt>
      <trkpt lat="47.888557473197579" lon="14.456640221178532">
        <ele>281.79998779296898</ele>
        <time>2012-10-22T07:27:26Z</time>
      </trkpt>
      <trkpt lat="47.888641376048326" lon="14.456699397414923">
        <ele>281.79998779296898</ele>
        <time>2012-10-22T07:27:29Z</time>
      </trkpt>
      <trkpt lat="47.888824436813593" lon="14.456820515915751">
        <ele>281.39999389648398</ele>
        <time>2012-10-22T07:27:35Z</time>
      </trkpt>
      <trkpt lat="47.88885117508471" lon="14.456836692988873">
        <ele>281</ele>
        <time>2012-10-22T07:27:36Z</time>
      </trkpt>
      <trkpt lat="47.888881685212255" lon="14.456856725737453">
        <ele>280.39999389648398</ele>
        <time>2012-10-22T07:27:37Z</time>
      </trkpt>
      <trkpt lat="47.888908423483372" lon="14.456878686323762">
        <ele>280</ele>
        <time>2012-10-22T07:27:38Z</time>
      </trkpt>
      <trkpt lat="47.888935077935457" lon="14.456908190622926">
        <ele>279.60000610351602</ele>
        <time>2012-10-22T07:27:39Z</time>
      </trkpt>
      <trkpt lat="47.889072457328439" lon="14.457033164799213">
        <ele>279.60000610351602</ele>
        <time>2012-10-22T07:27:44Z</time>
      </trkpt>
      <trkpt lat="47.889213524758816" lon="14.457180937752128">
        <ele>279.60000610351602</ele>
        <time>2012-10-22T07:27:51Z</time>
      </trkpt>
      <trkpt lat="47.889232635498047" lon="14.45725629106164">
        <ele>279.60000610351602</ele>
        <time>2012-10-22T07:27:55Z</time>
      </trkpt>
      <trkpt lat="47.889144876971841" lon="14.457452762871981">
        <ele>279.60000610351602</ele>
        <time>2012-10-22T07:28:00Z</time>
      </trkpt>
      <trkpt lat="47.889087712392211" lon="14.457679744809866">
        <ele>279.60000610351602</ele>
        <time>2012-10-22T07:28:06Z</time>
      </trkpt>
      <trkpt lat="47.889137249439955" lon="14.457918126136065">
        <ele>279.60000610351602</ele>
        <time>2012-10-22T07:28:11Z</time>
      </trkpt>
      <trkpt lat="47.889228779822588" lon="14.458270082250237">
        <ele>279.60000610351602</ele>
        <time>2012-10-22T07:28:18Z</time>
      </trkpt>
      <trkpt lat="47.889343276619911" lon="14.458645842969418">
        <ele>279.60000610351602</ele>
        <time>2012-10-22T07:28:26Z</time>
      </trkpt>
      <trkpt lat="47.889461545273662" lon="14.45887659676373">
        <ele>279.60000610351602</ele>
        <time>2012-10-22T07:28:33Z</time>
      </trkpt>
      <trkpt lat="47.889537820592523" lon="14.459094023332">
        <ele>279.60000610351602</ele>
        <time>2012-10-22T07:28:38Z</time>
      </trkpt>
      <trkpt lat="47.889690371230245" lon="14.459364926442504">
        <ele>279.60000610351602</ele>
        <time>2012-10-22T07:28:44Z</time>
      </trkpt>
      <trkpt lat="47.889846777543426" lon="14.459614790976048">
        <ele>279.60000610351602</ele>
        <time>2012-10-22T07:28:50Z</time>
      </trkpt>
      <trkpt lat="47.890010811388493" lon="14.459791146218777">
        <ele>279.60000610351602</ele>
        <time>2012-10-22T07:28:55Z</time>
      </trkpt>
      <trkpt lat="47.890060432255268" lon="14.45984554477036">
        <ele>279.60000610351602</ele>
        <time>2012-10-22T07:28:57Z</time>
      </trkpt>
      <trkpt lat="47.890140563249588" lon="14.459793074056506">
        <ele>279.60000610351602</ele>
        <time>2012-10-22T07:29:00Z</time>
      </trkpt>
      <trkpt lat="47.89017484523356" lon="14.459757786244154">
        <ele>279.60000610351602</ele>
        <time>2012-10-22T07:29:01Z</time>
      </trkpt>
      <trkpt lat="47.890312224626541" lon="14.45964714512229">
        <ele>279.60000610351602</ele>
        <time>2012-10-22T07:29:05Z</time>
      </trkpt>
      <trkpt lat="47.890499141067266" lon="14.459546059370041">
        <ele>279.60000610351602</ele>
        <time>2012-10-22T07:29:12Z</time>
      </trkpt>
      <trkpt lat="47.890678429976106" lon="14.45946785621345">
        <ele>279.60000610351602</ele>
        <time>2012-10-22T07:29:18Z</time>
      </trkpt>
      <trkpt lat="47.890747077763081" lon="14.459425946697593">
        <ele>280</ele>
        <time>2012-10-22T07:29:21Z</time>
      </trkpt>
      <trkpt lat="47.890769960358739" lon="14.459417313337326">
        <ele>280.39999389648398</ele>
        <time>2012-10-22T07:29:22Z</time>
      </trkpt>
      <trkpt lat="47.890792842954397" lon="14.45940968580544">
        <ele>281</ele>
        <time>2012-10-22T07:29:23Z</time>
      </trkpt>
      <trkpt lat="47.890823353081942" lon="14.459403986111283">
        <ele>281.39999389648398</ele>
        <time>2012-10-22T07:29:24Z</time>
      </trkpt>
      <trkpt lat="47.890853863209486" lon="14.459407841786742">
        <ele>281.79998779296898</ele>
        <time>2012-10-22T07:29:25Z</time>
      </trkpt>
      <trkpt lat="47.890987386927009" lon="14.459387809038162">
        <ele>281.79998779296898</ele>
        <time>2012-10-22T07:29:30Z</time>
      </trkpt>
      <trkpt lat="47.891048407182097" lon="14.459382025524974">
        <ele>282.20001220703102</ele>
        <time>2012-10-22T07:29:33Z</time>
      </trkpt>
      <trkpt lat="47.891071289777756" lon="14.459383031353354">
        <ele>282.60000610351602</ele>
        <time>2012-10-22T07:29:34Z</time>
      </trkpt>
      <trkpt lat="47.891090400516987" lon="14.459384959191084">
        <ele>283</ele>
        <time>2012-10-22T07:29:35Z</time>
      </trkpt>
      <trkpt lat="47.891109427437186" lon="14.459390658885241">
        <ele>283.39999389648398</ele>
        <time>2012-10-22T07:29:36Z</time>
      </trkpt>
      <trkpt lat="47.89112476631999" lon="14.459403986111283">
        <ele>283.79998779296898</ele>
        <time>2012-10-22T07:29:37Z</time>
      </trkpt>
      <trkpt lat="47.891220068559051" lon="14.459436424076557">
        <ele>283.79998779296898</ele>
        <time>2012-10-22T07:29:42Z</time>
      </trkpt>
      <trkpt lat="47.891307827085257" lon="14.459473639726639">
        <ele>284.20001220703102</ele>
        <time>2012-10-22T07:29:47Z</time>
      </trkpt>
      <trkpt lat="47.891323082149029" lon="14.459486966952682">
        <ele>284.60000610351602</ele>
        <time>2012-10-22T07:29:48Z</time>
      </trkpt>
      <trkpt lat="47.891338337212801" lon="14.459496522322297">
        <ele>285</ele>
        <time>2012-10-22T07:29:49Z</time>
      </trkpt>
      <trkpt lat="47.891353592276573" lon="14.459502222016454">
        <ele>285.39999389648398</ele>
        <time>2012-10-22T07:29:50Z</time>
      </trkpt>
      <trkpt lat="47.891368847340345" lon="14.459518399089575">
        <ele>285.79998779296898</ele>
        <time>2012-10-22T07:29:51Z</time>
      </trkpt>
      <trkpt lat="47.891418468207121" lon="14.45956801995635">
        <ele>285.79998779296898</ele>
        <time>2012-10-22T07:29:55Z</time>
      </trkpt>
      <trkpt lat="47.891460377722979" lon="14.459662400186062">
        <ele>286.20001220703102</ele>
        <time>2012-10-22T07:30:00Z</time>
      </trkpt>
      <trkpt lat="47.891471860930324" lon="14.459678661078215">
        <ele>286.60000610351602</ele>
        <time>2012-10-22T07:30:01Z</time>
      </trkpt>
      <trkpt lat="47.891483344137669" lon="14.459700621664524">
        <ele>287</ele>
        <time>2012-10-22T07:30:02Z</time>
      </trkpt>
      <trkpt lat="47.891498599201441" lon="14.459722498431802">
        <ele>287.39999389648398</ele>
        <time>2012-10-22T07:30:03Z</time>
      </trkpt>
      <trkpt lat="47.891509998589754" lon="14.459731131792068">
        <ele>287.79998779296898</ele>
        <time>2012-10-22T07:30:04Z</time>
      </trkpt>
      <trkpt lat="47.891567246988416" lon="14.459790224209428">
        <ele>287.79998779296898</ele>
        <time>2012-10-22T07:30:08Z</time>
      </trkpt>
      <trkpt lat="47.891578646376729" lon="14.459806401282549">
        <ele>288.20001220703102</ele>
        <time>2012-10-22T07:30:09Z</time>
      </trkpt>
      <trkpt lat="47.891590129584074" lon="14.459822662174702">
        <ele>288.60000610351602</ele>
        <time>2012-10-22T07:30:10Z</time>
      </trkpt>
      <trkpt lat="47.89159775711596" lon="14.459836995229125">
        <ele>289</ele>
        <time>2012-10-22T07:30:11Z</time>
      </trkpt>
      <trkpt lat="47.891605384647846" lon="14.459859877824783">
        <ele>289.39999389648398</ele>
        <time>2012-10-22T07:30:12Z</time>
      </trkpt>
      <trkpt lat="47.89161678403616" lon="14.459877982735634">
        <ele>289.79998779296898</ele>
        <time>2012-10-22T07:30:13Z</time>
      </trkpt>
      <trkpt lat="47.89163975045085" lon="14.459916120395064">
        <ele>289.79998779296898</ele>
        <time>2012-10-22T07:30:15Z</time>
      </trkpt>
      <trkpt lat="47.891647377982736" lon="14.459937075152993">
        <ele>290.20001220703102</ele>
        <time>2012-10-22T07:30:16Z</time>
      </trkpt>
      <trkpt lat="47.891658777371049" lon="14.459959035739303">
        <ele>290.60000610351602</ele>
        <time>2012-10-22T07:30:17Z</time>
      </trkpt>
      <trkpt lat="47.891670260578394" lon="14.459976218640804">
        <ele>291.20001220703102</ele>
        <time>2012-10-22T07:30:18Z</time>
      </trkpt>
      <trkpt lat="47.89167788811028" lon="14.459995245561004">
        <ele>291.60000610351602</ele>
        <time>2012-10-22T07:30:19Z</time>
      </trkpt>
      <trkpt lat="47.891685515642166" lon="14.460013350471854">
        <ele>292</ele>
        <time>2012-10-22T07:30:20Z</time>
      </trkpt>
      <trkpt lat="47.891716025769711" lon="14.460039166733623">
        <ele>292.39999389648398</ele>
        <time>2012-10-22T07:30:22Z</time>
      </trkpt>
      <trkpt lat="47.891731280833483" lon="14.460048638284206">
        <ele>292.79998779296898</ele>
        <time>2012-10-22T07:30:23Z</time>
      </trkpt>
      <trkpt lat="47.891746535897255" lon="14.460055343806744">
        <ele>293.20001220703102</ele>
        <time>2012-10-22T07:30:24Z</time>
      </trkpt>
      <trkpt lat="47.891765562817454" lon="14.460054421797395">
        <ele>293.60000610351602</ele>
        <time>2012-10-22T07:30:25Z</time>
      </trkpt>
      <trkpt lat="47.891780817881227" lon="14.460050566121936">
        <ele>294</ele>
        <time>2012-10-22T07:30:26Z</time>
      </trkpt>
      <trkpt lat="47.891819039359689" lon="14.46004293859005">
        <ele>294</ele>
        <time>2012-10-22T07:30:29Z</time>
      </trkpt>
      <trkpt lat="47.891902942210436" lon="14.459960963577032">
        <ele>294</ele>
        <time>2012-10-22T07:30:36Z</time>
      </trkpt>
      <trkpt lat="47.891918197274208" lon="14.459960963577032">
        <ele>294</ele>
        <time>2012-10-22T07:30:37Z</time>
      </trkpt>
      <trkpt lat="47.892002100124955" lon="14.459991473704576">
        <ele>294</ele>
        <time>2012-10-22T07:30:41Z</time>
      </trkpt>
      <trkpt lat="47.892147023230791" lon="14.460098259150982">
        <ele>294</ele>
        <time>2012-10-22T07:30:48Z</time>
      </trkpt>
      <trkpt lat="47.892295802012086" lon="14.460102114826441">
        <ele>294</ele>
        <time>2012-10-22T07:30:52Z</time>
      </trkpt>
      <trkpt lat="47.892337795346975" lon="14.460083926096559">
        <ele>294</ele>
        <time>2012-10-22T07:30:53Z</time>
      </trkpt>
      <trkpt lat="47.892494201660156" lon="14.45996280759573">
        <ele>293.39999389648398</ele>
        <time>2012-10-22T07:30:56Z</time>
      </trkpt>
      <trkpt lat="47.892559077590704" lon="14.459918970242143">
        <ele>293</ele>
        <time>2012-10-22T07:30:57Z</time>
      </trkpt>
      <trkpt lat="47.89262386970222" lon="14.459876976907253">
        <ele>292.39999389648398</ele>
        <time>2012-10-22T07:30:58Z</time>
      </trkpt>
      <trkpt lat="47.892696373164654" lon="14.459829367697239">
        <ele>291.79998779296898</ele>
        <time>2012-10-22T07:30:59Z</time>
      </trkpt>
      <trkpt lat="47.892768876627088" lon="14.459778824821115">
        <ele>291</ele>
        <time>2012-10-22T07:31:00Z</time>
      </trkpt>
      <trkpt lat="47.892845151945949" lon="14.459730125963688">
        <ele>290.39999389648398</ele>
        <time>2012-10-22T07:31:01Z</time>
      </trkpt>
      <trkpt lat="47.892925282940269" lon="14.459681510925293">
        <ele>289.79998779296898</ele>
        <time>2012-10-22T07:31:02Z</time>
      </trkpt>
      <trkpt lat="47.893009185791016" lon="14.4596500787884">
        <ele>289</ele>
        <time>2012-10-22T07:31:03Z</time>
      </trkpt>
      <trkpt lat="47.893089316785336" lon="14.459634739905596">
        <ele>288.39999389648398</ele>
        <time>2012-10-22T07:31:04Z</time>
      </trkpt>
      <trkpt lat="47.893173219636083" lon="14.459613785147667">
        <ele>287.60000610351602</ele>
        <time>2012-10-22T07:31:05Z</time>
      </trkpt>
      <trkpt lat="47.893260978162289" lon="14.459591824561357">
        <ele>287</ele>
        <time>2012-10-22T07:31:06Z</time>
      </trkpt>
      <trkpt lat="47.893344881013036" lon="14.459565170109272">
        <ele>286.60000610351602</ele>
        <time>2012-10-22T07:31:07Z</time>
      </trkpt>
      <trkpt lat="47.893428783863783" lon="14.459542287513614">
        <ele>286</ele>
        <time>2012-10-22T07:31:08Z</time>
      </trkpt>
      <trkpt lat="47.893505059182644" lon="14.459534659981728">
        <ele>285.39999389648398</ele>
        <time>2012-10-22T07:31:09Z</time>
      </trkpt>
      <trkpt lat="47.893585190176964" lon="14.459534659981728">
        <ele>284.79998779296898</ele>
        <time>2012-10-22T07:31:10Z</time>
      </trkpt>
      <trkpt lat="47.893657693639398" lon="14.45952795445919">
        <ele>284.79998779296898</ele>
        <time>2012-10-22T07:31:11Z</time>
      </trkpt>
      <trkpt lat="47.893859865143895" lon="14.459508927538991">
        <ele>284.79998779296898</ele>
        <time>2012-10-22T07:31:15Z</time>
      </trkpt>
      <trkpt lat="47.894115429371595" lon="14.459526026621461">
        <ele>284.79998779296898</ele>
        <time>2012-10-22T07:31:21Z</time>
      </trkpt>
      <trkpt lat="47.894161194562912" lon="14.459539437666535">
        <ele>284.79998779296898</ele>
        <time>2012-10-22T07:31:22Z</time>
      </trkpt>
      <trkpt lat="47.894351966679096" lon="14.459591824561357">
        <ele>284.79998779296898</ele>
        <time>2012-10-22T07:31:26Z</time>
      </trkpt>
      <trkpt lat="47.894695289433002" lon="14.45974538102746">
        <ele>284.79998779296898</ele>
        <time>2012-10-22T07:31:33Z</time>
      </trkpt>
      <trkpt lat="47.894981363788247" lon="14.459942858666182">
        <ele>284.79998779296898</ele>
        <time>2012-10-22T07:31:40Z</time>
      </trkpt>
      <trkpt lat="47.895286548882723" lon="14.460198422893882">
        <ele>284.79998779296898</ele>
        <time>2012-10-22T07:31:47Z</time>
      </trkpt>
      <trkpt lat="47.895462065935135" lon="14.460293808951974">
        <ele>284.79998779296898</ele>
        <time>2012-10-22T07:31:51Z</time>
      </trkpt>
      <trkpt lat="47.895545968785882" lon="14.46029850281775">
        <ele>284.79998779296898</ele>
        <time>2012-10-22T07:31:53Z</time>
      </trkpt>
      <trkpt lat="47.895801533013582" lon="14.460279475897551">
        <ele>285.20001220703102</ele>
        <time>2012-10-22T07:31:59Z</time>
      </trkpt>
      <trkpt lat="47.895839670673013" lon="14.460268998518586">
        <ele>285.60000610351602</ele>
        <time>2012-10-22T07:32:00Z</time>
      </trkpt>
      <trkpt lat="47.895877808332443" lon="14.460253743454814">
        <ele>286.39999389648398</ele>
        <time>2012-10-22T07:32:01Z</time>
      </trkpt>
      <trkpt lat="47.895915945991874" lon="14.460238488391042">
        <ele>286.79998779296898</ele>
        <time>2012-10-22T07:32:02Z</time>
      </trkpt>
      <trkpt lat="47.896148711442947" lon="14.460152657702565">
        <ele>286.79998779296898</ele>
        <time>2012-10-22T07:32:08Z</time>
      </trkpt>
      <trkpt lat="47.896373765543103" lon="14.460089709609747">
        <ele>286.79998779296898</ele>
        <time>2012-10-22T07:32:14Z</time>
      </trkpt>
      <trkpt lat="47.896591192111373" lon="14.460093481466174">
        <ele>286.79998779296898</ele>
        <time>2012-10-22T07:32:19Z</time>
      </trkpt>
      <trkpt lat="47.896678950637579" lon="14.460089709609747">
        <ele>287.20001220703102</ele>
        <time>2012-10-22T07:32:21Z</time>
      </trkpt>
      <trkpt lat="47.896713232621551" lon="14.460089709609747">
        <ele>287.60000610351602</ele>
        <time>2012-10-22T07:32:22Z</time>
      </trkpt>
      <trkpt lat="47.896747598424554" lon="14.460095409303904">
        <ele>288</ele>
        <time>2012-10-22T07:32:23Z</time>
      </trkpt>
      <trkpt lat="47.896785736083984" lon="14.46010110899806">
        <ele>288.39999389648398</ele>
        <time>2012-10-22T07:32:24Z</time>
      </trkpt>
      <trkpt lat="47.896820101886988" lon="14.460104964673519">
        <ele>288.79998779296898</ele>
        <time>2012-10-22T07:32:25Z</time>
      </trkpt>
      <trkpt lat="47.897018417716026" lon="14.460140252485871">
        <ele>288.79998779296898</ele>
        <time>2012-10-22T07:32:32Z</time>
      </trkpt>
      <trkpt lat="47.897083293646574" lon="14.460158357396722">
        <ele>289.20001220703102</ele>
        <time>2012-10-22T07:32:35Z</time>
      </trkpt>
      <trkpt lat="47.897102320566773" lon="14.460158357396722">
        <ele>289.60000610351602</ele>
        <time>2012-10-22T07:32:36Z</time>
      </trkpt>
      <trkpt lat="47.897125203162432" lon="14.460159279406071">
        <ele>290</ele>
        <time>2012-10-22T07:32:37Z</time>
      </trkpt>
      <trkpt lat="47.897144313901663" lon="14.460165062919259">
        <ele>290.39999389648398</ele>
        <time>2012-10-22T07:32:38Z</time>
      </trkpt>
      <trkpt lat="47.897167196497321" lon="14.460165984928608">
        <ele>290.79998779296898</ele>
        <time>2012-10-22T07:32:39Z</time>
      </trkpt>
      <trkpt lat="47.897239699959755" lon="14.460166906937957">
        <ele>291.39999389648398</ele>
        <time>2012-10-22T07:32:43Z</time>
      </trkpt>
      <trkpt lat="47.897254955023527" lon="14.460164057090878">
        <ele>291.79998779296898</ele>
        <time>2012-10-22T07:32:44Z</time>
      </trkpt>
      <trkpt lat="47.89726635441184" lon="14.4601612072438">
        <ele>292.20001220703102</ele>
        <time>2012-10-22T07:32:45Z</time>
      </trkpt>
      <trkpt lat="47.897285465151072" lon="14.460156429558992">
        <ele>292.60000610351602</ele>
        <time>2012-10-22T07:32:46Z</time>
      </trkpt>
      <trkpt lat="47.897300720214844" lon="14.460144024342299">
        <ele>293</ele>
        <time>2012-10-22T07:32:47Z</time>
      </trkpt>
      <trkpt lat="47.897354112938046" lon="14.460125919431448">
        <ele>293.39999389648398</ele>
        <time>2012-10-22T07:32:50Z</time>
      </trkpt>
      <trkpt lat="47.897376995533705" lon="14.460115442052484">
        <ele>294.20001220703102</ele>
        <time>2012-10-22T07:32:51Z</time>
      </trkpt>
      <trkpt lat="47.897392250597477" lon="14.460102114826441">
        <ele>294.60000610351602</ele>
        <time>2012-10-22T07:32:52Z</time>
      </trkpt>
      <trkpt lat="47.897399878129363" lon="14.460089709609747">
        <ele>295</ele>
        <time>2012-10-22T07:32:53Z</time>
      </trkpt>
      <trkpt lat="47.897457126528025" lon="14.460045788437128">
        <ele>295</ele>
        <time>2012-10-22T07:32:57Z</time>
      </trkpt>
      <trkpt lat="47.897487636655569" lon="14.460016284137964">
        <ele>295.39999389648398</ele>
        <time>2012-10-22T07:32:59Z</time>
      </trkpt>
      <trkpt lat="47.897499119862914" lon="14.459998095408082">
        <ele>296</ele>
        <time>2012-10-22T07:33:00Z</time>
      </trkpt>
      <trkpt lat="47.897514374926686" lon="14.45998284034431">
        <ele>296.39999389648398</ele>
        <time>2012-10-22T07:33:01Z</time>
      </trkpt>
      <trkpt lat="47.897529629990458" lon="14.459973368793726">
        <ele>296.79998779296898</ele>
        <time>2012-10-22T07:33:02Z</time>
      </trkpt>
      <trkpt lat="47.897541029378772" lon="14.459955180063844">
        <ele>297.20001220703102</ele>
        <time>2012-10-22T07:33:03Z</time>
      </trkpt>
      <trkpt lat="47.897552512586117" lon="14.459938080981374">
        <ele>297.20001220703102</ele>
        <time>2012-10-22T07:33:04Z</time>
      </trkpt>
      <trkpt lat="47.897594422101974" lon="14.459887538105249">
        <ele>297.60000610351602</ele>
        <time>2012-10-22T07:33:07Z</time>
      </trkpt>
      <trkpt lat="47.897605905309319" lon="14.459874127060175">
        <ele>298</ele>
        <time>2012-10-22T07:33:08Z</time>
      </trkpt>
      <trkpt lat="47.897613532841206" lon="14.459860799834132">
        <ele>298.39999389648398</ele>
        <time>2012-10-22T07:33:09Z</time>
      </trkpt>
      <trkpt lat="47.897628787904978" lon="14.459838839247823">
        <ele>298.79998779296898</ele>
        <time>2012-10-22T07:33:10Z</time>
      </trkpt>
      <trkpt lat="47.89764404296875" lon="14.459826434031129">
        <ele>299.20001220703102</ele>
        <time>2012-10-22T07:33:11Z</time>
      </trkpt>
      <trkpt lat="47.897651670500636" lon="14.459814112633467">
        <ele>299.20001220703102</ele>
        <time>2012-10-22T07:33:12Z</time>
      </trkpt>
      <trkpt lat="47.897739429026842" lon="14.459696765989065">
        <ele>299.20001220703102</ele>
        <time>2012-10-22T07:33:19Z</time>
      </trkpt>
      <trkpt lat="47.897754684090614" lon="14.459676733240485">
        <ele>299.60000610351602</ele>
        <time>2012-10-22T07:33:20Z</time>
      </trkpt>
      <trkpt lat="47.897769939154387" lon="14.459657706320286">
        <ele>300</ele>
        <time>2012-10-22T07:33:21Z</time>
      </trkpt>
      <trkpt lat="47.8977813385427" lon="14.459637673571706">
        <ele>300.39999389648398</ele>
        <time>2012-10-22T07:33:22Z</time>
      </trkpt>
      <trkpt lat="47.897796593606472" lon="14.459614790976048">
        <ele>300.79998779296898</ele>
        <time>2012-10-22T07:33:23Z</time>
      </trkpt>
      <trkpt lat="47.897811848670244" lon="14.459591824561357">
        <ele>301.20001220703102</ele>
        <time>2012-10-22T07:33:24Z</time>
      </trkpt>
      <trkpt lat="47.897827187553048" lon="14.45956994779408">
        <ele>301.20001220703102</ele>
        <time>2012-10-22T07:33:25Z</time>
      </trkpt>
      <trkpt lat="47.897975882515311" lon="14.459365848451853">
        <ele>301.20001220703102</ele>
        <time>2012-10-22T07:33:33Z</time>
      </trkpt>
      <trkpt lat="47.898113261908293" lon="14.459136016666889">
        <ele>301.20001220703102</ele>
        <time>2012-10-22T07:33:40Z</time>
      </trkpt>
      <trkpt lat="47.89819716475904" lon="14.458847008645535">
        <ele>301.20001220703102</ele>
        <time>2012-10-22T07:33:47Z</time>
      </trkpt>
      <trkpt lat="47.898239158093929" lon="14.45852086879313">
        <ele>301.20001220703102</ele>
        <time>2012-10-22T07:33:54Z</time>
      </trkpt>
      <trkpt lat="47.898300178349018" lon="14.458241499960423">
        <ele>301.20001220703102</ele>
        <time>2012-10-22T07:34:00Z</time>
      </trkpt>
      <trkpt lat="47.898418447002769" lon="14.457791307941079">
        <ele>301.20001220703102</ele>
        <time>2012-10-22T07:34:10Z</time>
      </trkpt>
      <trkpt lat="47.898487094789743" lon="14.45747472345829">
        <ele>301.20001220703102</ele>
        <time>2012-10-22T07:34:17Z</time>
      </trkpt>
      <trkpt lat="47.898548115044832" lon="14.457204826176167">
        <ele>301.60000610351602</ele>
        <time>2012-10-22T07:34:24Z</time>
      </trkpt>
      <trkpt lat="47.898555742576718" lon="14.457162832841277">
        <ele>302</ele>
        <time>2012-10-22T07:34:25Z</time>
      </trkpt>
      <trkpt lat="47.898563370108604" lon="14.457120923325419">
        <ele>302.39999389648398</ele>
        <time>2012-10-22T07:34:26Z</time>
      </trkpt>
      <trkpt lat="47.898574853315949" lon="14.457082785665989">
        <ele>302.79998779296898</ele>
        <time>2012-10-22T07:34:27Z</time>
      </trkpt>
      <trkpt lat="47.898590108379722" lon="14.457035092636943">
        <ele>303.20001220703102</ele>
        <time>2012-10-22T07:34:28Z</time>
      </trkpt>
      <trkpt lat="47.898616762831807" lon="14.456952111795545">
        <ele>303.20001220703102</ele>
        <time>2012-10-22T07:34:30Z</time>
      </trkpt>
      <trkpt lat="47.898696893826127" lon="14.456648854538798">
        <ele>303.20001220703102</ele>
        <time>2012-10-22T07:34:37Z</time>
      </trkpt>
      <trkpt lat="47.898712148889899" lon="14.456558246165514">
        <ele>303.79998779296898</ele>
        <time>2012-10-22T07:34:39Z</time>
      </trkpt>
      <trkpt lat="47.898719776421785" lon="14.456510553136468">
        <ele>304.20001220703102</ele>
        <time>2012-10-22T07:34:40Z</time>
      </trkpt>
      <trkpt lat="47.89873125962913" lon="14.456463782116771">
        <ele>304.60000610351602</ele>
        <time>2012-10-22T07:34:41Z</time>
      </trkpt>
      <trkpt lat="47.898746514692903" lon="14.456421872600913">
        <ele>305</ele>
        <time>2012-10-22T07:34:42Z</time>
      </trkpt>
      <trkpt lat="47.898757914081216" lon="14.456380885094404">
        <ele>305.39999389648398</ele>
        <time>2012-10-22T07:34:43Z</time>
      </trkpt>
      <trkpt lat="47.898838045075536" lon="14.456100426614285">
        <ele>305.39999389648398</ele>
        <time>2012-10-22T07:34:50Z</time>
      </trkpt>
      <trkpt lat="47.898887665942311" lon="14.455925915390253">
        <ele>305.79998779296898</ele>
        <time>2012-10-22T07:34:55Z</time>
      </trkpt>
      <trkpt lat="47.898899065330625" lon="14.455889705568552">
        <ele>306.20001220703102</ele>
        <time>2012-10-22T07:34:56Z</time>
      </trkpt>
      <trkpt lat="47.898906692862511" lon="14.455860117450356">
        <ele>306.60000610351602</ele>
        <time>2012-10-22T07:34:57Z</time>
      </trkpt>
      <trkpt lat="47.898921947926283" lon="14.455821979790926">
        <ele>307</ele>
        <time>2012-10-22T07:34:58Z</time>
      </trkpt>
      <trkpt lat="47.898933431133628" lon="14.455780992284417">
        <ele>307.39999389648398</ele>
        <time>2012-10-22T07:34:59Z</time>
      </trkpt>
      <trkpt lat="47.898971568793058" lon="14.455625507980585">
        <ele>307.39999389648398</ele>
        <time>2012-10-22T07:35:03Z</time>
      </trkpt>
      <trkpt lat="47.899074582383037" lon="14.455292662605643">
        <ele>307.79998779296898</ele>
        <time>2012-10-22T07:35:12Z</time>
      </trkpt>
      <trkpt lat="47.899082209914923" lon="14.455258380621672">
        <ele>308.20001220703102</ele>
        <time>2012-10-22T07:35:13Z</time>
      </trkpt>
      <trkpt lat="47.899089837446809" lon="14.45522116497159">
        <ele>308.60000610351602</ele>
        <time>2012-10-22T07:35:14Z</time>
      </trkpt>
      <trkpt lat="47.899101236835122" lon="14.455187804996967">
        <ele>309.20001220703102</ele>
        <time>2012-10-22T07:35:15Z</time>
      </trkpt>
      <trkpt lat="47.899112720042467" lon="14.455152517184615">
        <ele>309.60000610351602</ele>
        <time>2012-10-22T07:35:16Z</time>
      </trkpt>
      <trkpt lat="47.899162257090211" lon="14.454990411177278">
        <ele>309.60000610351602</ele>
        <time>2012-10-22T07:35:20Z</time>
      </trkpt>
      <trkpt lat="47.899208106100559" lon="14.454793939366937">
        <ele>310</ele>
        <time>2012-10-22T07:35:25Z</time>
      </trkpt>
      <trkpt lat="47.899215733632445" lon="14.454758651554585">
        <ele>310.39999389648398</ele>
        <time>2012-10-22T07:35:26Z</time>
      </trkpt>
      <trkpt lat="47.899227133020759" lon="14.454720513895154">
        <ele>310.79998779296898</ele>
        <time>2012-10-22T07:35:27Z</time>
      </trkpt>
      <trkpt lat="47.899238616228104" lon="14.454685226082802">
        <ele>311.20001220703102</ele>
        <time>2012-10-22T07:35:28Z</time>
      </trkpt>
      <trkpt lat="47.89924624375999" lon="14.454648932442069">
        <ele>311.60000610351602</ele>
        <time>2012-10-22T07:35:29Z</time>
      </trkpt>
      <trkpt lat="47.899314891546965" lon="14.454407701268792">
        <ele>311.60000610351602</ele>
        <time>2012-10-22T07:35:35Z</time>
      </trkpt>
      <trkpt lat="47.899375911802053" lon="14.45415398105979">
        <ele>311.60000610351602</ele>
        <time>2012-10-22T07:35:41Z</time>
      </trkpt>
      <trkpt lat="47.899471297860146" lon="14.453893639147282">
        <ele>311.20001220703102</ele>
        <time>2012-10-22T07:35:45Z</time>
      </trkpt>
      <trkpt lat="47.899490324780345" lon="14.453809736296535">
        <ele>310.79998779296898</ele>
        <time>2012-10-22T07:35:46Z</time>
      </trkpt>
      <trkpt lat="47.899509435519576" lon="14.453722983598709">
        <ele>310.39999389648398</ele>
        <time>2012-10-22T07:35:47Z</time>
      </trkpt>
      <trkpt lat="47.899524690583348" lon="14.453633297234774">
        <ele>309.79998779296898</ele>
        <time>2012-10-22T07:35:48Z</time>
      </trkpt>
      <trkpt lat="47.899543801322579" lon="14.453542688861489">
        <ele>309.20001220703102</ele>
        <time>2012-10-22T07:35:49Z</time>
      </trkpt>
      <trkpt lat="47.899551428854465" lon="14.453454930335283">
        <ele>308.60000610351602</ele>
        <time>2012-10-22T07:35:50Z</time>
      </trkpt>
      <trkpt lat="47.899562828242779" lon="14.453367255628109">
        <ele>307.79998779296898</ele>
        <time>2012-10-22T07:35:51Z</time>
      </trkpt>
      <trkpt lat="47.899578083306551" lon="14.453270947560668">
        <ele>307</ele>
        <time>2012-10-22T07:35:52Z</time>
      </trkpt>
      <trkpt lat="47.899589566513896" lon="14.453177489340305">
        <ele>306</ele>
        <time>2012-10-22T07:35:53Z</time>
      </trkpt>
      <trkpt lat="47.899604821577668" lon="14.453072547912598">
        <ele>305.20001220703102</ele>
        <time>2012-10-22T07:35:54Z</time>
      </trkpt>
      <trkpt lat="47.899616220965981" lon="14.452973389998078">
        <ele>304</ele>
        <time>2012-10-22T07:35:55Z</time>
      </trkpt>
      <trkpt lat="47.899627704173326" lon="14.45287230424583">
        <ele>303</ele>
        <time>2012-10-22T07:35:56Z</time>
      </trkpt>
      <trkpt lat="47.899642959237099" lon="14.452764512971044">
        <ele>302</ele>
        <time>2012-10-22T07:35:57Z</time>
      </trkpt>
      <trkpt lat="47.899658214300871" lon="14.452641466632485">
        <ele>301</ele>
        <time>2012-10-22T07:35:58Z</time>
      </trkpt>
      <trkpt lat="47.899673469364643" lon="14.452508948743343">
        <ele>300</ele>
        <time>2012-10-22T07:35:59Z</time>
      </trkpt>
      <trkpt lat="47.899692496284842" lon="14.452370647341013">
        <ele>299</ele>
        <time>2012-10-22T07:36:00Z</time>
      </trkpt>
      <trkpt lat="47.899711607024074" lon="14.452224718406796">
        <ele>298</ele>
        <time>2012-10-22T07:36:01Z</time>
      </trkpt>
      <trkpt lat="47.899730717763305" lon="14.452095050364733">
        <ele>297.20001220703102</ele>
        <time>2012-10-22T07:36:02Z</time>
      </trkpt>
      <trkpt lat="47.899749744683504" lon="14.451969154179096">
        <ele>296.39999389648398</ele>
        <time>2012-10-22T07:36:03Z</time>
      </trkpt>
      <trkpt lat="47.899776482954621" lon="14.45184133015573">
        <ele>295.60000610351602</ele>
        <time>2012-10-22T07:36:04Z</time>
      </trkpt>
      <trkpt lat="47.899803137406707" lon="14.451711662113667">
        <ele>294.60000610351602</ele>
        <time>2012-10-22T07:36:05Z</time>
      </trkpt>
      <trkpt lat="47.899833647534251" lon="14.45158576592803">
        <ele>293.79998779296898</ele>
        <time>2012-10-22T07:36:06Z</time>
      </trkpt>
      <trkpt lat="47.899868013337255" lon="14.451475124806166">
        <ele>292.60000610351602</ele>
        <time>2012-10-22T07:36:07Z</time>
      </trkpt>
      <trkpt lat="47.899890895932913" lon="14.451372111216187">
        <ele>291.79998779296898</ele>
        <time>2012-10-22T07:36:08Z</time>
      </trkpt>
      <trkpt lat="47.899910006672144" lon="14.45126817561686">
        <ele>291.20001220703102</ele>
        <time>2012-10-22T07:36:09Z</time>
      </trkpt>
      <trkpt lat="47.899932889267802" lon="14.451161390170455">
        <ele>290.39999389648398</ele>
        <time>2012-10-22T07:36:10Z</time>
      </trkpt>
      <trkpt lat="47.899959543719888" lon="14.45105267688632">
        <ele>290</ele>
        <time>2012-10-22T07:36:11Z</time>
      </trkpt>
      <trkpt lat="47.899986281991005" lon="14.450943963602185">
        <ele>289.60000610351602</ele>
        <time>2012-10-22T07:36:12Z</time>
      </trkpt>
      <trkpt lat="47.900009164586663" lon="14.450838100165129">
        <ele>289</ele>
        <time>2012-10-22T07:36:13Z</time>
      </trkpt>
      <trkpt lat="47.900035819038749" lon="14.45073701441288">
        <ele>288.60000610351602</ele>
        <time>2012-10-22T07:36:14Z</time>
      </trkpt>
      <trkpt lat="47.900062557309866" lon="14.450645484030247">
        <ele>288</ele>
        <time>2012-10-22T07:36:15Z</time>
      </trkpt>
      <trkpt lat="47.900085439905524" lon="14.450555797666311">
        <ele>287.39999389648398</ele>
        <time>2012-10-22T07:36:16Z</time>
      </trkpt>
      <trkpt lat="47.900112178176641" lon="14.450470888987184">
        <ele>286.79998779296898</ele>
        <time>2012-10-22T07:36:17Z</time>
      </trkpt>
      <trkpt lat="47.900138832628727" lon="14.450386064127088">
        <ele>286</ele>
        <time>2012-10-22T07:36:18Z</time>
      </trkpt>
      <trkpt lat="47.900161715224385" lon="14.45030115544796">
        <ele>285.39999389648398</ele>
        <time>2012-10-22T07:36:19Z</time>
      </trkpt>
      <trkpt lat="47.900176970288157" lon="14.450215324759483">
        <ele>284.79998779296898</ele>
        <time>2012-10-22T07:36:20Z</time>
      </trkpt>
      <trkpt lat="47.900188453495502" lon="14.450129494071007">
        <ele>284</ele>
        <time>2012-10-22T07:36:21Z</time>
      </trkpt>
      <trkpt lat="47.900196081027389" lon="14.450038885697722">
        <ele>283.39999389648398</ele>
        <time>2012-10-22T07:36:22Z</time>
      </trkpt>
      <trkpt lat="47.900203708559275" lon="14.449947355315089">
        <ele>282.60000610351602</ele>
        <time>2012-10-22T07:36:23Z</time>
      </trkpt>
      <trkpt lat="47.900207480415702" lon="14.449851047247648">
        <ele>281.79998779296898</ele>
        <time>2012-10-22T07:36:24Z</time>
      </trkpt>
      <trkpt lat="47.900211336091161" lon="14.449751889333129">
        <ele>281.20001220703102</ele>
        <time>2012-10-22T07:36:25Z</time>
      </trkpt>
      <trkpt lat="47.900207480415702" lon="14.449656503275037">
        <ele>280.79998779296898</ele>
        <time>2012-10-22T07:36:26Z</time>
      </trkpt>
      <trkpt lat="47.900203708559275" lon="14.449561117216945">
        <ele>280.39999389648398</ele>
        <time>2012-10-22T07:36:27Z</time>
      </trkpt>
      <trkpt lat="47.900203708559275" lon="14.44947050884366">
        <ele>280</ele>
        <time>2012-10-22T07:36:28Z</time>
      </trkpt>
      <trkpt lat="47.900199852883816" lon="14.44939037784934">
        <ele>279.60000610351602</ele>
        <time>2012-10-22T07:36:29Z</time>
      </trkpt>
      <trkpt lat="47.900199852883816" lon="14.449310330674052">
        <ele>279</ele>
        <time>2012-10-22T07:36:30Z</time>
      </trkpt>
      <trkpt lat="47.900215107947588" lon="14.449146296828985">
        <ele>279</ele>
        <time>2012-10-22T07:36:33Z</time>
      </trkpt>
      <trkpt lat="47.900291467085481" lon="14.449008917436004">
        <ele>279</ele>
        <time>2012-10-22T07:36:37Z</time>
      </trkpt>
      <trkpt lat="47.900363886728883" lon="14.448874471709132">
        <ele>279</ele>
        <time>2012-10-22T07:36:42Z</time>
      </trkpt>
      <trkpt lat="47.900352487340569" lon="14.448724770918489">
        <ele>279</ele>
        <time>2012-10-22T07:36:48Z</time>
      </trkpt>
      <trkpt lat="47.900344859808683" lon="14.448677077889442">
        <ele>279.39999389648398</ele>
        <time>2012-10-22T07:36:50Z</time>
      </trkpt>
      <trkpt lat="47.900344859808683" lon="14.448649417608976">
        <ele>279.79998779296898</ele>
        <time>2012-10-22T07:36:51Z</time>
      </trkpt>
      <trkpt lat="47.900337232276797" lon="14.448617901653051">
        <ele>280.20001220703102</ele>
        <time>2012-10-22T07:36:52Z</time>
      </trkpt>
      <trkpt lat="47.900333376601338" lon="14.448596024885774">
        <ele>280.60000610351602</ele>
        <time>2012-10-22T07:36:53Z</time>
      </trkpt>
      <trkpt lat="47.900333376601338" lon="14.448570292443037">
        <ele>281</ele>
        <time>2012-10-22T07:36:54Z</time>
      </trkpt>
      <trkpt lat="47.900325749069452" lon="14.448476750403643">
        <ele>281.60000610351602</ele>
        <time>2012-10-22T07:36:58Z</time>
      </trkpt>
      <trkpt lat="47.900325749069452" lon="14.448451017960906">
        <ele>282</ele>
        <time>2012-10-22T07:36:59Z</time>
      </trkpt>
      <trkpt lat="47.900325749069452" lon="14.44842335768044">
        <ele>282.39999389648398</ele>
        <time>2012-10-22T07:37:00Z</time>
      </trkpt>
      <trkpt lat="47.900321977213025" lon="14.448397625237703">
        <ele>282.79998779296898</ele>
        <time>2012-10-22T07:37:01Z</time>
      </trkpt>
      <trkpt lat="47.900321977213025" lon="14.448373820632696">
        <ele>283.20001220703102</ele>
        <time>2012-10-22T07:37:02Z</time>
      </trkpt>
      <trkpt lat="47.900333376601338" lon="14.448276506736875">
        <ele>283.60000610351602</ele>
        <time>2012-10-22T07:37:06Z</time>
      </trkpt>
      <trkpt lat="47.900333376601338" lon="14.448246918618679">
        <ele>284</ele>
        <time>2012-10-22T07:37:07Z</time>
      </trkpt>
      <trkpt lat="47.900329604744911" lon="14.448221186175942">
        <ele>284.39999389648398</ele>
        <time>2012-10-22T07:37:08Z</time>
      </trkpt>
      <trkpt lat="47.900325749069452" lon="14.448197381570935">
        <ele>284.79998779296898</ele>
        <time>2012-10-22T07:37:09Z</time>
      </trkpt>
      <trkpt lat="47.900329604744911" lon="14.448177348822355">
        <ele>285.20001220703102</ele>
        <time>2012-10-22T07:37:10Z</time>
      </trkpt>
      <trkpt lat="47.900333376601338" lon="14.448090512305498">
        <ele>285.20001220703102</ele>
        <time>2012-10-22T07:37:14Z</time>
      </trkpt>
      <trkpt lat="47.900329604744911" lon="14.448066707700491">
        <ele>285.60000610351602</ele>
        <time>2012-10-22T07:37:15Z</time>
      </trkpt>
      <trkpt lat="47.900333376601338" lon="14.448043825104833">
        <ele>286.20001220703102</ele>
        <time>2012-10-22T07:37:16Z</time>
      </trkpt>
      <trkpt lat="47.900337232276797" lon="14.448019014671445">
        <ele>286.60000610351602</ele>
        <time>2012-10-22T07:37:17Z</time>
      </trkpt>
      <trkpt lat="47.900341004133224" lon="14.448000909760594">
        <ele>287</ele>
        <time>2012-10-22T07:37:18Z</time>
      </trkpt>
      <trkpt lat="47.900344859808683" lon="14.447978949174285">
        <ele>287.39999389648398</ele>
        <time>2012-10-22T07:37:19Z</time>
      </trkpt>
      <trkpt lat="47.900352487340569" lon="14.447934189811349">
        <ele>287.39999389648398</ele>
        <time>2012-10-22T07:37:21Z</time>
      </trkpt>
      <trkpt lat="47.900356259196997" lon="14.447861686348915">
        <ele>287.79998779296898</ele>
        <time>2012-10-22T07:37:25Z</time>
      </trkpt>
      <trkpt lat="47.900360114872456" lon="14.447839725762606">
        <ele>288.20001220703102</ele>
        <time>2012-10-22T07:37:26Z</time>
      </trkpt>
      <trkpt lat="47.900356259196997" lon="14.44781307131052">
        <ele>288.60000610351602</ele>
        <time>2012-10-22T07:37:27Z</time>
      </trkpt>
      <trkpt lat="47.900356259196997" lon="14.447791110724211">
        <ele>289</ele>
        <time>2012-10-22T07:37:28Z</time>
      </trkpt>
      <trkpt lat="47.900360114872456" lon="14.447777783498168">
        <ele>289.39999389648398</ele>
        <time>2012-10-22T07:37:29Z</time>
      </trkpt>
      <trkpt lat="47.900363886728883" lon="14.447676697745919">
        <ele>289.39999389648398</ele>
        <time>2012-10-22T07:37:34Z</time>
      </trkpt>
      <trkpt lat="47.900382997468114" lon="14.447615593671799">
        <ele>289.79998779296898</ele>
        <time>2012-10-22T07:37:37Z</time>
      </trkpt>
      <trkpt lat="47.900394480675459" lon="14.44759463891387">
        <ele>290.20001220703102</ele>
        <time>2012-10-22T07:37:38Z</time>
      </trkpt>
      <trkpt lat="47.900405880063772" lon="14.447571756318212">
        <ele>290.60000610351602</ele>
        <time>2012-10-22T07:37:39Z</time>
      </trkpt>
      <trkpt lat="47.900413507595658" lon="14.447551723569632">
        <ele>291</ele>
        <time>2012-10-22T07:37:40Z</time>
      </trkpt>
      <trkpt lat="47.900421135127544" lon="14.4475326128304">
        <ele>291.39999389648398</ele>
        <time>2012-10-22T07:37:41Z</time>
      </trkpt>
      <trkpt lat="47.900421135127544" lon="14.447507886216044">
        <ele>291.39999389648398</ele>
        <time>2012-10-22T07:37:42Z</time>
      </trkpt>
      <trkpt lat="47.900444017723203" lon="14.447443932294846">
        <ele>291.39999389648398</ele>
        <time>2012-10-22T07:37:45Z</time>
      </trkpt>
      <trkpt lat="47.900482155382633" lon="14.44733714684844">
        <ele>291.79998779296898</ele>
        <time>2012-10-22T07:37:50Z</time>
      </trkpt>
      <trkpt lat="47.900489782914519" lon="14.447313342243433">
        <ele>292.20001220703102</ele>
        <time>2012-10-22T07:37:51Z</time>
      </trkpt>
      <trkpt lat="47.900497410446405" lon="14.447291381657124">
        <ele>292.60000610351602</ele>
        <time>2012-10-22T07:37:52Z</time>
      </trkpt>
      <trkpt lat="47.900505037978292" lon="14.447267493233085">
        <ele>293</ele>
        <time>2012-10-22T07:37:53Z</time>
      </trkpt>
      <trkpt lat="47.900512665510178" lon="14.447248466312885">
        <ele>293.39999389648398</ele>
        <time>2012-10-22T07:37:54Z</time>
      </trkpt>
      <trkpt lat="47.90052792057395" lon="14.447186440229416">
        <ele>293.39999389648398</ele>
        <time>2012-10-22T07:37:57Z</time>
      </trkpt>
      <trkpt lat="47.900581397116184" lon="14.447049144655466">
        <ele>293.39999389648398</ele>
        <time>2012-10-22T07:38:03Z</time>
      </trkpt>
      <trkpt lat="47.900650044903159" lon="14.446811685338616">
        <ele>293.39999389648398</ele>
        <time>2012-10-22T07:38:08Z</time>
      </trkpt>
      <trkpt lat="47.900829333811998" lon="14.446345316246152">
        <ele>293.39999389648398</ele>
        <time>2012-10-22T07:38:15Z</time>
      </trkpt>
      <trkpt lat="47.901042904704809" lon="14.445879952982068">
        <ele>293.39999389648398</ele>
        <time>2012-10-22T07:38:22Z</time>
      </trkpt>
      <trkpt lat="47.901069642975926" lon="14.445809377357364">
        <ele>293</ele>
        <time>2012-10-22T07:38:23Z</time>
      </trkpt>
      <trkpt lat="47.901096381247044" lon="14.44573687389493">
        <ele>292.60000610351602</ele>
        <time>2012-10-22T07:38:24Z</time>
      </trkpt>
      <trkpt lat="47.901123035699129" lon="14.445670153945684">
        <ele>292.20001220703102</ele>
        <time>2012-10-22T07:38:25Z</time>
      </trkpt>
      <trkpt lat="47.901145918294787" lon="14.445604356005788">
        <ele>291.79998779296898</ele>
        <time>2012-10-22T07:38:26Z</time>
      </trkpt>
      <trkpt lat="47.901180284097791" lon="14.445544257760048">
        <ele>291.39999389648398</ele>
        <time>2012-10-22T07:38:27Z</time>
      </trkpt>
      <trkpt lat="47.901206938549876" lon="14.445485081523657">
        <ele>291.39999389648398</ele>
        <time>2012-10-22T07:38:28Z</time>
      </trkpt>
      <trkpt lat="47.901382455602288" lon="14.445169419050217">
        <ele>291.39999389648398</ele>
        <time>2012-10-22T07:38:34Z</time>
      </trkpt>
      <trkpt lat="47.901565516367555" lon="14.444922488182783">
        <ele>291.39999389648398</ele>
        <time>2012-10-22T07:38:40Z</time>
      </trkpt>
      <trkpt lat="47.901599882170558" lon="14.444887200370431">
        <ele>291.39999389648398</ele>
        <time>2012-10-22T07:38:41Z</time>
      </trkpt>
      <trkpt lat="47.90177539922297" lon="14.44463255815208">
        <ele>291.39999389648398</ele>
        <time>2012-10-22T07:38:47Z</time>
      </trkpt>
      <trkpt lat="47.901920322328806" lon="14.444460896775126">
        <ele>291.39999389648398</ele>
        <time>2012-10-22T07:38:52Z</time>
      </trkpt>
      <trkpt lat="47.902069101110101" lon="14.444340700283647">
        <ele>291.79998779296898</ele>
        <time>2012-10-22T07:38:57Z</time>
      </trkpt>
      <trkpt lat="47.902095755562186" lon="14.444316895678639">
        <ele>292.39999389648398</ele>
        <time>2012-10-22T07:38:58Z</time>
      </trkpt>
      <trkpt lat="47.902122493833303" lon="14.444295857101679">
        <ele>293.20001220703102</ele>
        <time>2012-10-22T07:38:59Z</time>
      </trkpt>
      <trkpt lat="47.902153003960848" lon="14.444270124658942">
        <ele>293.60000610351602</ele>
        <time>2012-10-22T07:39:00Z</time>
      </trkpt>
      <trkpt lat="47.90228652767837" lon="14.444152861833572">
        <ele>293.60000610351602</ele>
        <time>2012-10-22T07:39:05Z</time>
      </trkpt>
      <trkpt lat="47.902458189055324" lon="14.444029815495014">
        <ele>293.60000610351602</ele>
        <time>2012-10-22T07:39:11Z</time>
      </trkpt>
      <trkpt lat="47.902641333639622" lon="14.44391917437315">
        <ele>294</ele>
        <time>2012-10-22T07:39:17Z</time>
      </trkpt>
      <trkpt lat="47.902671843767166" lon="14.443909619003534">
        <ele>294.60000610351602</ele>
        <time>2012-10-22T07:39:18Z</time>
      </trkpt>
      <trkpt lat="47.902702353894711" lon="14.44389914162457">
        <ele>295</ele>
        <time>2012-10-22T07:39:19Z</time>
      </trkpt>
      <trkpt lat="47.902732864022255" lon="14.443895369768143">
        <ele>295.39999389648398</ele>
        <time>2012-10-22T07:39:20Z</time>
      </trkpt>
      <trkpt lat="47.902771001681685" lon="14.443895369768143">
        <ele>295.79998779296898</ele>
        <time>2012-10-22T07:39:21Z</time>
      </trkpt>
      <trkpt lat="47.902900669723749" lon="14.443903919309378">
        <ele>295.79998779296898</ele>
        <time>2012-10-22T07:39:25Z</time>
      </trkpt>
      <trkpt lat="47.903171572834253" lon="14.443962089717388">
        <ele>295.79998779296898</ele>
        <time>2012-10-22T07:39:31Z</time>
      </trkpt>
      <trkpt lat="47.903495784848928" lon="14.444005927070975">
        <ele>295.39999389648398</ele>
        <time>2012-10-22T07:39:36Z</time>
      </trkpt>
      <trkpt lat="47.903572060167789" lon="14.444016488268971">
        <ele>294.79998779296898</ele>
        <time>2012-10-22T07:39:37Z</time>
      </trkpt>
      <trkpt lat="47.903644563630223" lon="14.444030737504363">
        <ele>294.39999389648398</ele>
        <time>2012-10-22T07:39:38Z</time>
      </trkpt>
      <trkpt lat="47.903724694624543" lon="14.444046998396516">
        <ele>294</ele>
        <time>2012-10-22T07:39:39Z</time>
      </trkpt>
      <trkpt lat="47.903804741799831" lon="14.444066025316715">
        <ele>293.39999389648398</ele>
        <time>2012-10-22T07:39:40Z</time>
      </trkpt>
      <trkpt lat="47.903884872794151" lon="14.44407943636179">
        <ele>293</ele>
        <time>2012-10-22T07:39:41Z</time>
      </trkpt>
      <trkpt lat="47.903965003788471" lon="14.44409754127264">
        <ele>292.60000610351602</ele>
        <time>2012-10-22T07:39:42Z</time>
      </trkpt>
      <trkpt lat="47.904052762314677" lon="14.444110868498683">
        <ele>292</ele>
        <time>2012-10-22T07:39:43Z</time>
      </trkpt>
      <trkpt lat="47.904140437021852" lon="14.444128051400185">
        <ele>291.39999389648398</ele>
        <time>2012-10-22T07:39:44Z</time>
      </trkpt>
      <trkpt lat="47.904232051223516" lon="14.444144228473306">
        <ele>290.79998779296898</ele>
        <time>2012-10-22T07:39:45Z</time>
      </trkpt>
      <trkpt lat="47.90432358160615" lon="14.444169038906693">
        <ele>290</ele>
        <time>2012-10-22T07:39:46Z</time>
      </trkpt>
      <trkpt lat="47.904422739520669" lon="14.444209104403853">
        <ele>289.39999389648398</ele>
        <time>2012-10-22T07:39:47Z</time>
      </trkpt>
      <trkpt lat="47.90452198125422" lon="14.444252019748092">
        <ele>287.79998779296898</ele>
        <time>2012-10-22T07:39:48Z</time>
      </trkpt>
      <trkpt lat="47.904621139168739" lon="14.444299712777138">
        <ele>286.79998779296898</ele>
        <time>2012-10-22T07:39:49Z</time>
      </trkpt>
      <trkpt lat="47.904712669551373" lon="14.444346399977803">
        <ele>286</ele>
        <time>2012-10-22T07:39:50Z</time>
      </trkpt>
      <trkpt lat="47.904800428077579" lon="14.444391243159771">
        <ele>285.20001220703102</ele>
        <time>2012-10-22T07:39:51Z</time>
      </trkpt>
      <trkpt lat="47.904888186603785" lon="14.444427452981472">
        <ele>284.39999389648398</ele>
        <time>2012-10-22T07:39:52Z</time>
      </trkpt>
      <trkpt lat="47.904968233779073" lon="14.444456119090319">
        <ele>283.60000610351602</ele>
        <time>2012-10-22T07:39:53Z</time>
      </trkpt>
      <trkpt lat="47.905216254293919" lon="14.444541949778795">
        <ele>283</ele>
        <time>2012-10-22T07:39:56Z</time>
      </trkpt>
      <trkpt lat="47.90529252961278" lon="14.444582937285304">
        <ele>282.60000610351602</ele>
        <time>2012-10-22T07:39:57Z</time>
      </trkpt>
      <trkpt lat="47.905368804931641" lon="14.444642029702663">
        <ele>282.20001220703102</ele>
        <time>2012-10-22T07:39:58Z</time>
      </trkpt>
      <trkpt lat="47.905437452718616" lon="14.444707911461592">
        <ele>281.79998779296898</ele>
        <time>2012-10-22T07:39:59Z</time>
      </trkpt>
      <trkpt lat="47.905498472973704" lon="14.444771781563759">
        <ele>281.39999389648398</ele>
        <time>2012-10-22T07:40:00Z</time>
      </trkpt>
      <trkpt lat="47.90574649348855" lon="14.445011168718338">
        <ele>281.39999389648398</ele>
        <time>2012-10-22T07:40:04Z</time>
      </trkpt>
      <trkpt lat="47.905960064381361" lon="14.445277210325003">
        <ele>281.39999389648398</ele>
        <time>2012-10-22T07:40:09Z</time>
      </trkpt>
      <trkpt lat="47.906078333035111" lon="14.445437472313643">
        <ele>281.79998779296898</ele>
        <time>2012-10-22T07:40:13Z</time>
      </trkpt>
      <trkpt lat="47.906097443774343" lon="14.445475609973073">
        <ele>282.20001220703102</ele>
        <time>2012-10-22T07:40:14Z</time>
      </trkpt>
      <trkpt lat="47.906120326370001" lon="14.445513747632504">
        <ele>282.60000610351602</ele>
        <time>2012-10-22T07:40:15Z</time>
      </trkpt>
      <trkpt lat="47.906143208965659" lon="14.445548029616475">
        <ele>283</ele>
        <time>2012-10-22T07:40:16Z</time>
      </trkpt>
      <trkpt lat="47.906162235885859" lon="14.445583317428827">
        <ele>283.39999389648398</ele>
        <time>2012-10-22T07:40:17Z</time>
      </trkpt>
      <trkpt lat="47.906173719093204" lon="14.445620533078909">
        <ele>283.79998779296898</ele>
        <time>2012-10-22T07:40:18Z</time>
      </trkpt>
      <trkpt lat="47.906192746013403" lon="14.445663448423147">
        <ele>284.20001220703102</ele>
        <time>2012-10-22T07:40:19Z</time>
      </trkpt>
      <trkpt lat="47.906211856752634" lon="14.445704435929656">
        <ele>284.60000610351602</ele>
        <time>2012-10-22T07:40:20Z</time>
      </trkpt>
      <trkpt lat="47.906234739348292" lon="14.445747351273894">
        <ele>285</ele>
        <time>2012-10-22T07:40:21Z</time>
      </trkpt>
      <trkpt lat="47.906253850087523" lon="14.445791272446513">
        <ele>285.39999389648398</ele>
        <time>2012-10-22T07:40:22Z</time>
      </trkpt>
      <trkpt lat="47.906360635533929" lon="14.44599537178874">
        <ele>285.39999389648398</ele>
        <time>2012-10-22T07:40:26Z</time>
      </trkpt>
      <trkpt lat="47.906486531719565" lon="14.446311956271529">
        <ele>285.39999389648398</ele>
        <time>2012-10-22T07:40:31Z</time>
      </trkpt>
      <trkpt lat="47.90651704184711" lon="14.446378676220775">
        <ele>285.39999389648398</ele>
        <time>2012-10-22T07:40:32Z</time>
      </trkpt>
      <trkpt lat="47.906707730144262" lon="14.446676233783364">
        <ele>285.39999389648398</ele>
        <time>2012-10-22T07:40:38Z</time>
      </trkpt>
      <trkpt lat="47.906837482005358" lon="14.446889888495207">
        <ele>285.39999389648398</ele>
        <time>2012-10-22T07:40:44Z</time>
      </trkpt>
      <trkpt lat="47.90690990164876" lon="14.447047216817737">
        <ele>285.79998779296898</ele>
        <time>2012-10-22T07:40:49Z</time>
      </trkpt>
      <trkpt lat="47.906925240531564" lon="14.447073955088854">
        <ele>286.20001220703102</ele>
        <time>2012-10-22T07:40:50Z</time>
      </trkpt>
      <trkpt lat="47.906936639919877" lon="14.447096837684512">
        <ele>286.60000610351602</ele>
        <time>2012-10-22T07:40:51Z</time>
      </trkpt>
      <trkpt lat="47.906951894983649" lon="14.4471216481179">
        <ele>287</ele>
        <time>2012-10-22T07:40:52Z</time>
      </trkpt>
      <trkpt lat="47.906967150047421" lon="14.447140675038099">
        <ele>287.60000610351602</ele>
        <time>2012-10-22T07:40:53Z</time>
      </trkpt>
      <trkpt lat="47.907012915238738" lon="14.44721988402307">
        <ele>287.60000610351602</ele>
        <time>2012-10-22T07:40:56Z</time>
      </trkpt>
      <trkpt lat="47.90710830129683" lon="14.447360951453447">
        <ele>287.60000610351602</ele>
        <time>2012-10-22T07:41:01Z</time>
      </trkpt>
      <trkpt lat="47.907230341807008" lon="14.4475326128304">
        <ele>287.60000610351602</ele>
        <time>2012-10-22T07:41:07Z</time>
      </trkpt>
      <trkpt lat="47.9073257278651" lon="14.447659514844418">
        <ele>287.60000610351602</ele>
        <time>2012-10-22T07:41:13Z</time>
      </trkpt>
      <trkpt lat="47.907379120588303" lon="14.447711985558271">
        <ele>288</ele>
        <time>2012-10-22T07:41:16Z</time>
      </trkpt>
      <trkpt lat="47.907398231327534" lon="14.447722462937236">
        <ele>288.39999389648398</ele>
        <time>2012-10-22T07:41:17Z</time>
      </trkpt>
      <trkpt lat="47.907417258247733" lon="14.447735790163279">
        <ele>288.79998779296898</ele>
        <time>2012-10-22T07:41:18Z</time>
      </trkpt>
      <trkpt lat="47.907440224662423" lon="14.447745345532894">
        <ele>289.20001220703102</ele>
        <time>2012-10-22T07:41:19Z</time>
      </trkpt>
      <trkpt lat="47.907463107258081" lon="14.44775297306478">
        <ele>289.60000610351602</ele>
        <time>2012-10-22T07:41:20Z</time>
      </trkpt>
      <trkpt lat="47.90760425850749" lon="14.447769150137901">
        <ele>289.60000610351602</ele>
        <time>2012-10-22T07:41:26Z</time>
      </trkpt>
      <trkpt lat="47.907688161358237" lon="14.447778705507517">
        <ele>290</ele>
        <time>2012-10-22T07:41:30Z</time>
      </trkpt>
      <trkpt lat="47.907711043953896" lon="14.447776777669787">
        <ele>290.39999389648398</ele>
        <time>2012-10-22T07:41:31Z</time>
      </trkpt>
      <trkpt lat="47.907737698405981" lon="14.447777783498168">
        <ele>290.79998779296898</ele>
        <time>2012-10-22T07:41:32Z</time>
      </trkpt>
      <trkpt lat="47.907760581001639" lon="14.447779627516866">
        <ele>291.20001220703102</ele>
        <time>2012-10-22T07:41:33Z</time>
      </trkpt>
      <trkpt lat="47.907787319272757" lon="14.447777783498168">
        <ele>291.60000610351602</ele>
        <time>2012-10-22T07:41:34Z</time>
      </trkpt>
      <trkpt lat="47.907894104719162" lon="14.447761522606015">
        <ele>291.60000610351602</ele>
        <time>2012-10-22T07:41:40Z</time>
      </trkpt>
      <trkpt lat="47.908050511032343" lon="14.447796810418367">
        <ele>292</ele>
        <time>2012-10-22T07:41:47Z</time>
      </trkpt>
      <trkpt lat="47.908084876835346" lon="14.447816843166947">
        <ele>292.39999389648398</ele>
        <time>2012-10-22T07:41:48Z</time>
      </trkpt>
      <trkpt lat="47.908111531287432" lon="14.447834026068449">
        <ele>292.79998779296898</ele>
        <time>2012-10-22T07:41:49Z</time>
      </trkpt>
      <trkpt lat="47.908134497702122" lon="14.447838803753257">
        <ele>293.20001220703102</ele>
        <time>2012-10-22T07:41:50Z</time>
      </trkpt>
      <trkpt lat="47.90815738029778" lon="14.44785020314157">
        <ele>293.60000610351602</ele>
        <time>2012-10-22T07:41:51Z</time>
      </trkpt>
      <trkpt lat="47.908363323658705" lon="14.447926562279463">
        <ele>293.60000610351602</ele>
        <time>2012-10-22T07:41:58Z</time>
      </trkpt>
      <trkpt lat="47.908538840711117" lon="14.448031419888139">
        <ele>293.60000610351602</ele>
        <time>2012-10-22T07:42:04Z</time>
      </trkpt>
      <trkpt lat="47.908760039135814" lon="14.448182126507163">
        <ele>293.60000610351602</ele>
        <time>2012-10-22T07:42:11Z</time>
      </trkpt>
      <trkpt lat="47.908977549523115" lon="14.448354709893465">
        <ele>293.60000610351602</ele>
        <time>2012-10-22T07:42:18Z</time>
      </trkpt>
      <trkpt lat="47.90910336188972" lon="14.448437690734863">
        <ele>293.60000610351602</ele>
        <time>2012-10-22T07:42:24Z</time>
      </trkpt>
      <trkpt lat="47.909156838431954" lon="14.448430063202977">
        <ele>293.60000610351602</ele>
        <time>2012-10-22T07:42:26Z</time>
      </trkpt>
      <trkpt lat="47.909210231155157" lon="14.448405252769589">
        <ele>294</ele>
        <time>2012-10-22T07:42:28Z</time>
      </trkpt>
      <trkpt lat="47.909233113750815" lon="14.448396703228354">
        <ele>294.39999389648398</ele>
        <time>2012-10-22T07:42:29Z</time>
      </trkpt>
      <trkpt lat="47.909248368814588" lon="14.448384298011661">
        <ele>295</ele>
        <time>2012-10-22T07:42:30Z</time>
      </trkpt>
      <trkpt lat="47.90926362387836" lon="14.448365187272429">
        <ele>295.39999389648398</ele>
        <time>2012-10-22T07:42:31Z</time>
      </trkpt>
      <trkpt lat="47.909278878942132" lon="14.448349932208657">
        <ele>295.79998779296898</ele>
        <time>2012-10-22T07:42:32Z</time>
      </trkpt>
      <trkpt lat="47.909366637468338" lon="14.448222192004323">
        <ele>295.79998779296898</ele>
        <time>2012-10-22T07:42:38Z</time>
      </trkpt>
      <trkpt lat="47.909378036856651" lon="14.448205009102821">
        <ele>296.20001220703102</ele>
        <time>2012-10-22T07:42:39Z</time>
      </trkpt>
      <trkpt lat="47.909389520063996" lon="14.448192603886127">
        <ele>296.60000610351602</ele>
        <time>2012-10-22T07:42:40Z</time>
      </trkpt>
      <trkpt lat="47.909393291920424" lon="14.448168715462089">
        <ele>297</ele>
        <time>2012-10-22T07:42:41Z</time>
      </trkpt>
      <trkpt lat="47.909393291920424" lon="14.44814583286643">
        <ele>297.79998779296898</ele>
        <time>2012-10-22T07:42:42Z</time>
      </trkpt>
      <trkpt lat="47.909404775127769" lon="14.448098223656416">
        <ele>297.79998779296898</ele>
        <time>2012-10-22T07:42:45Z</time>
      </trkpt>
      <trkpt lat="47.909416174516082" lon="14.448056230321527">
        <ele>298.20001220703102</ele>
        <time>2012-10-22T07:42:48Z</time>
      </trkpt>
      <trkpt lat="47.909420030191541" lon="14.448040975257754">
        <ele>298.60000610351602</ele>
        <time>2012-10-22T07:42:49Z</time>
      </trkpt>
      <trkpt lat="47.909423802047968" lon="14.448020942509174">
        <ele>299</ele>
        <time>2012-10-22T07:42:50Z</time>
      </trkpt>
      <trkpt lat="47.909431429579854" lon="14.448005687445402">
        <ele>299.39999389648398</ele>
        <time>2012-10-22T07:42:51Z</time>
      </trkpt>
      <trkpt lat="47.909442912787199" lon="14.447992360219359">
        <ele>299.79998779296898</ele>
        <time>2012-10-22T07:42:52Z</time>
      </trkpt>
      <trkpt lat="47.909450540319085" lon="14.447975177317858">
        <ele>299.79998779296898</ele>
        <time>2012-10-22T07:42:53Z</time>
      </trkpt>
      <trkpt lat="47.909465795382857" lon="14.447945589199662">
        <ele>299.79998779296898</ele>
        <time>2012-10-22T07:42:55Z</time>
      </trkpt>
      <trkpt lat="47.909515416249633" lon="14.44787023589015">
        <ele>300.39999389648398</ele>
        <time>2012-10-22T07:43:00Z</time>
      </trkpt>
      <trkpt lat="47.909534443169832" lon="14.447853052988648">
        <ele>300.79998779296898</ele>
        <time>2012-10-22T07:43:01Z</time>
      </trkpt>
      <trkpt lat="47.909542070701718" lon="14.447831176221371">
        <ele>301.20001220703102</ele>
        <time>2012-10-22T07:43:02Z</time>
      </trkpt>
      <trkpt lat="47.909557325765491" lon="14.447815921157598">
        <ele>301.60000610351602</ele>
        <time>2012-10-22T07:43:03Z</time>
      </trkpt>
      <trkpt lat="47.909564953297377" lon="14.447802510112524">
        <ele>302</ele>
        <time>2012-10-22T07:43:04Z</time>
      </trkpt>
      <trkpt lat="47.909591691568494" lon="14.447769150137901">
        <ele>302</ele>
        <time>2012-10-22T07:43:06Z</time>
      </trkpt>
      <trkpt lat="47.909664195030928" lon="14.447677619755268">
        <ele>302.39999389648398</ele>
        <time>2012-10-22T07:43:12Z</time>
      </trkpt>
      <trkpt lat="47.9096794500947" lon="14.447658509016037">
        <ele>302.79998779296898</ele>
        <time>2012-10-22T07:43:13Z</time>
      </trkpt>
      <trkpt lat="47.909694705158472" lon="14.447639482095838">
        <ele>303.20001220703102</ele>
        <time>2012-10-22T07:43:14Z</time>
      </trkpt>
      <trkpt lat="47.909706104546785" lon="14.447624227032065">
        <ele>303.60000610351602</ele>
        <time>2012-10-22T07:43:15Z</time>
      </trkpt>
      <trkpt lat="47.909713732078671" lon="14.447605116292834">
        <ele>304</ele>
        <time>2012-10-22T07:43:16Z</time>
      </trkpt>
      <trkpt lat="47.909759497269988" lon="14.447524985298514">
        <ele>304</ele>
        <time>2012-10-22T07:43:21Z</time>
      </trkpt>
      <trkpt lat="47.909793863072991" lon="14.447468742728233">
        <ele>304.39999389648398</ele>
        <time>2012-10-22T07:43:25Z</time>
      </trkpt>
      <trkpt lat="47.909797634929419" lon="14.447456337511539">
        <ele>304.79998779296898</ele>
        <time>2012-10-22T07:43:26Z</time>
      </trkpt>
      <trkpt lat="47.909805262461305" lon="14.447440160438418">
        <ele>305.20001220703102</ele>
        <time>2012-10-22T07:43:27Z</time>
      </trkpt>
      <trkpt lat="47.90981674566865" lon="14.447432532906532">
        <ele>305.60000610351602</ele>
        <time>2012-10-22T07:43:28Z</time>
      </trkpt>
      <trkpt lat="47.909824373200536" lon="14.447422055527568">
        <ele>306</ele>
        <time>2012-10-22T07:43:29Z</time>
      </trkpt>
      <trkpt lat="47.909923531115055" lon="14.447307558730245">
        <ele>306</ele>
        <time>2012-10-22T07:43:37Z</time>
      </trkpt>
      <trkpt lat="47.90999217890203" lon="14.447176968678832">
        <ele>306.39999389648398</ele>
        <time>2012-10-22T07:43:44Z</time>
      </trkpt>
      <trkpt lat="47.910003662109375" lon="14.44715877994895">
        <ele>306.79998779296898</ele>
        <time>2012-10-22T07:43:45Z</time>
      </trkpt>
      <trkpt lat="47.91001514531672" lon="14.447144530713558">
        <ele>307.20001220703102</ele>
        <time>2012-10-22T07:43:46Z</time>
      </trkpt>
      <trkpt lat="47.910030400380492" lon="14.447129275649786">
        <ele>307.79998779296898</ele>
        <time>2012-10-22T07:43:47Z</time>
      </trkpt>
      <trkpt lat="47.910041799768806" lon="14.447104465216398">
        <ele>308.20001220703102</ele>
        <time>2012-10-22T07:43:48Z</time>
      </trkpt>
      <trkpt lat="47.910083793103695" lon="14.447043444961309">
        <ele>308.20001220703102</ele>
        <time>2012-10-22T07:43:51Z</time>
      </trkpt>
      <trkpt lat="47.910182951018214" lon="14.446900365874171">
        <ele>308.20001220703102</ele>
        <time>2012-10-22T07:43:58Z</time>
      </trkpt>
      <trkpt lat="47.910198206081986" lon="14.446897516027093">
        <ele>308.20001220703102</ele>
        <time>2012-10-22T07:44:03Z</time>
      </trkpt>
      <trkpt lat="47.910198206081986" lon="14.446897516027093">
        <ele>308.20001220703102</ele>
        <time>2012-10-22T07:44:06Z</time>
      </trkpt>
      <trkpt lat="47.910243971273303" lon="14.44682601839304">
        <ele>308.20001220703102</ele>
        <time>2012-10-22T07:44:14Z</time>
      </trkpt>
      <trkpt lat="47.910381350666285" lon="14.446651423349977">
        <ele>308.20001220703102</ele>
        <time>2012-10-22T07:44:21Z</time>
      </trkpt>
      <trkpt lat="47.910598777234554" lon="14.446505578234792">
        <ele>308.20001220703102</ele>
        <time>2012-10-22T07:44:28Z</time>
      </trkpt>
      <trkpt lat="47.91082383133471" lon="14.446393009275198">
        <ele>308.20001220703102</ele>
        <time>2012-10-22T07:44:36Z</time>
      </trkpt>
      <trkpt lat="47.910896334797144" lon="14.446351015940309">
        <ele>308.60000610351602</ele>
        <time>2012-10-22T07:44:39Z</time>
      </trkpt>
      <trkpt lat="47.910919217392802" lon="14.446334838867187">
        <ele>309</ele>
        <time>2012-10-22T07:44:40Z</time>
      </trkpt>
      <trkpt lat="47.910949727520347" lon="14.446320505812764">
        <ele>309.39999389648398</ele>
        <time>2012-10-22T07:44:41Z</time>
      </trkpt>
      <trkpt lat="47.910980237647891" lon="14.446304328739643">
        <ele>309.79998779296898</ele>
        <time>2012-10-22T07:44:42Z</time>
      </trkpt>
      <trkpt lat="47.911014519631863" lon="14.446289073675871">
        <ele>310.20001220703102</ele>
        <time>2012-10-22T07:44:43Z</time>
      </trkpt>
      <trkpt lat="47.911140415817499" lon="14.446245152503252">
        <ele>310.20001220703102</ele>
        <time>2012-10-22T07:44:46Z</time>
      </trkpt>
      <trkpt lat="47.911251056939363" lon="14.446251858025789">
        <ele>310.20001220703102</ele>
        <time>2012-10-22T07:44:48Z</time>
      </trkpt>
      <trkpt lat="47.911308305338025" lon="14.446258563548326">
        <ele>309.60000610351602</ele>
        <time>2012-10-22T07:44:49Z</time>
      </trkpt>
      <trkpt lat="47.911369325593114" lon="14.44626996293664">
        <ele>309.20001220703102</ele>
        <time>2012-10-22T07:44:50Z</time>
      </trkpt>
      <trkpt lat="47.911430345848203" lon="14.44628806784749">
        <ele>308.60000610351602</ele>
        <time>2012-10-22T07:44:51Z</time>
      </trkpt>
      <trkpt lat="47.911483738571405" lon="14.446305250748992">
        <ele>308.20001220703102</ele>
        <time>2012-10-22T07:44:52Z</time>
      </trkpt>
      <trkpt lat="47.911537131294608" lon="14.44630810059607">
        <ele>307.60000610351602</ele>
        <time>2012-10-22T07:44:53Z</time>
      </trkpt>
      <trkpt lat="47.911579124629498" lon="14.446325283497572">
        <ele>307</ele>
        <time>2012-10-22T07:44:54Z</time>
      </trkpt>
      <trkpt lat="47.911624889820814" lon="14.446346322074533">
        <ele>306.60000610351602</ele>
        <time>2012-10-22T07:44:55Z</time>
      </trkpt>
      <trkpt lat="47.911666883155704" lon="14.446379682049155">
        <ele>306</ele>
        <time>2012-10-22T07:44:56Z</time>
      </trkpt>
      <trkpt lat="47.91171264834702" lon="14.446429219096899">
        <ele>305.39999389648398</ele>
        <time>2012-10-22T07:44:57Z</time>
      </trkpt>
      <trkpt lat="47.911747014150023" lon="14.446489317342639">
        <ele>305</ele>
        <time>2012-10-22T07:44:58Z</time>
      </trkpt>
      <trkpt lat="47.911762269213796" lon="14.446537010371685">
        <ele>304.60000610351602</ele>
        <time>2012-10-22T07:44:59Z</time>
      </trkpt>
      <trkpt lat="47.911781296133995" lon="14.446608508005738">
        <ele>304</ele>
        <time>2012-10-22T07:45:00Z</time>
      </trkpt>
      <trkpt lat="47.911796551197767" lon="14.446668606251478">
        <ele>303.60000610351602</ele>
        <time>2012-10-22T07:45:01Z</time>
      </trkpt>
      <trkpt lat="47.911811806261539" lon="14.446739181876183">
        <ele>303</ele>
        <time>2012-10-22T07:45:02Z</time>
      </trkpt>
      <trkpt lat="47.911838544532657" lon="14.44680305197835">
        <ele>302.60000610351602</ele>
        <time>2012-10-22T07:45:03Z</time>
      </trkpt>
      <trkpt lat="47.911880454048514" lon="14.446851750835776">
        <ele>302.20001220703102</ele>
        <time>2012-10-22T07:45:04Z</time>
      </trkpt>
      <trkpt lat="47.911914819851518" lon="14.446872705593705">
        <ele>301.79998779296898</ele>
        <time>2012-10-22T07:45:05Z</time>
      </trkpt>
      <trkpt lat="47.911956813186407" lon="14.446880333125591">
        <ele>301.39999389648398</ele>
        <time>2012-10-22T07:45:06Z</time>
      </trkpt>
      <trkpt lat="47.91201020590961" lon="14.446875555440784">
        <ele>301</ele>
        <time>2012-10-22T07:45:07Z</time>
      </trkpt>
      <trkpt lat="47.912105591967702" lon="14.446846973150969">
        <ele>300.60000610351602</ele>
        <time>2012-10-22T07:45:09Z</time>
      </trkpt>
      <trkpt lat="47.912158984690905" lon="14.446816463023424">
        <ele>300.20001220703102</ele>
        <time>2012-10-22T07:45:10Z</time>
      </trkpt>
      <trkpt lat="47.912208521738648" lon="14.446781175211072">
        <ele>299.39999389648398</ele>
        <time>2012-10-22T07:45:11Z</time>
      </trkpt>
      <trkpt lat="47.912269625812769" lon="14.446735410019755">
        <ele>298.79998779296898</ele>
        <time>2012-10-22T07:45:12Z</time>
      </trkpt>
      <trkpt lat="47.912326790392399" lon="14.44668578915298">
        <ele>298.39999389648398</ele>
        <time>2012-10-22T07:45:13Z</time>
      </trkpt>
      <trkpt lat="47.91238403879106" lon="14.446634324267507">
        <ele>297.79998779296898</ele>
        <time>2012-10-22T07:45:14Z</time>
      </trkpt>
      <trkpt lat="47.912445059046149" lon="14.446579003706574">
        <ele>297.39999389648398</ele>
        <time>2012-10-22T07:45:15Z</time>
      </trkpt>
      <trkpt lat="47.912509934976697" lon="14.446524605154991">
        <ele>296.79998779296898</ele>
        <time>2012-10-22T07:45:16Z</time>
      </trkpt>
      <trkpt lat="47.912574727088213" lon="14.44647029042244">
        <ele>296.20001220703102</ele>
        <time>2012-10-22T07:45:17Z</time>
      </trkpt>
      <trkpt lat="47.91264345869422" lon="14.446418741717935">
        <ele>295.60000610351602</ele>
        <time>2012-10-22T07:45:18Z</time>
      </trkpt>
      <trkpt lat="47.912719734013081" lon="14.446371048688889">
        <ele>295</ele>
        <time>2012-10-22T07:45:19Z</time>
      </trkpt>
      <trkpt lat="47.912799865007401" lon="14.446323355659842">
        <ele>294.39999389648398</ele>
        <time>2012-10-22T07:45:20Z</time>
      </trkpt>
      <trkpt lat="47.912879912182689" lon="14.446267113089561">
        <ele>293.60000610351602</ele>
        <time>2012-10-22T07:45:21Z</time>
      </trkpt>
      <trkpt lat="47.912963898852468" lon="14.446200393140316">
        <ele>292.79998779296898</ele>
        <time>2012-10-22T07:45:22Z</time>
      </trkpt>
      <trkpt lat="47.913047801703215" lon="14.446122189983726">
        <ele>292.20001220703102</ele>
        <time>2012-10-22T07:45:23Z</time>
      </trkpt>
      <trkpt lat="47.913127932697535" lon="14.446040131151676">
        <ele>291.39999389648398</ele>
        <time>2012-10-22T07:45:24Z</time>
      </trkpt>
      <trkpt lat="47.913204208016396" lon="14.445956228300929">
        <ele>290.79998779296898</ele>
        <time>2012-10-22T07:45:25Z</time>
      </trkpt>
      <trkpt lat="47.913261372596025" lon="14.445860842242837">
        <ele>290.20001220703102</ele>
        <time>2012-10-22T07:45:26Z</time>
      </trkpt>
      <trkpt lat="47.91331484913826" lon="14.445769311860204">
        <ele>289.60000610351602</ele>
        <time>2012-10-22T07:45:27Z</time>
      </trkpt>
      <trkpt lat="47.913364386186004" lon="14.445675853639841">
        <ele>289</ele>
        <time>2012-10-22T07:45:28Z</time>
      </trkpt>
      <trkpt lat="47.913566557690501" lon="14.445230523124337">
        <ele>289</ele>
        <time>2012-10-22T07:45:33Z</time>
      </trkpt>
      <trkpt lat="47.91378783993423" lon="14.444878567010164">
        <ele>289</ele>
        <time>2012-10-22T07:45:38Z</time>
      </trkpt>
      <trkpt lat="47.914077769964933" lon="14.44451043382287">
        <ele>289</ele>
        <time>2012-10-22T07:45:45Z</time>
      </trkpt>
      <trkpt lat="47.914188411086798" lon="14.444361655041575">
        <ele>289</ele>
        <time>2012-10-22T07:45:48Z</time>
      </trkpt>
      <trkpt lat="47.914299052208662" lon="14.444251097738743">
        <ele>289</ele>
        <time>2012-10-22T07:45:51Z</time>
      </trkpt>
      <trkpt lat="47.914466857910156" lon="14.44403937086463">
        <ele>289</ele>
        <time>2012-10-22T07:45:57Z</time>
      </trkpt>
      <trkpt lat="47.914684284478426" lon="14.443780872970819">
        <ele>289</ele>
        <time>2012-10-22T07:46:04Z</time>
      </trkpt>
      <trkpt lat="47.914920821785927" lon="14.443546263501048">
        <ele>289</ele>
        <time>2012-10-22T07:46:10Z</time>
      </trkpt>
      <trkpt lat="47.915126765146852" lon="14.443340320140123">
        <ele>289</ele>
        <time>2012-10-22T07:46:16Z</time>
      </trkpt>
      <trkpt lat="47.915153503417969" lon="14.443310732021928">
        <ele>289.39999389648398</ele>
        <time>2012-10-22T07:46:17Z</time>
      </trkpt>
      <trkpt lat="47.9151726141572" lon="14.443286927416921">
        <ele>289.79998779296898</ele>
        <time>2012-10-22T07:46:18Z</time>
      </trkpt>
      <trkpt lat="47.915191641077399" lon="14.443264966830611">
        <ele>290.20001220703102</ele>
        <time>2012-10-22T07:46:19Z</time>
      </trkpt>
      <trkpt lat="47.91521075181663" lon="14.443241078406572">
        <ele>290.79998779296898</ele>
        <time>2012-10-22T07:46:20Z</time>
      </trkpt>
      <trkpt lat="47.91522977873683" lon="14.443216351792216">
        <ele>291.20001220703102</ele>
        <time>2012-10-22T07:46:21Z</time>
      </trkpt>
      <trkpt lat="47.915245033800602" lon="14.443193469196558">
        <ele>291.20001220703102</ele>
        <time>2012-10-22T07:46:22Z</time>
      </trkpt>
      <trkpt lat="47.915367158129811" lon="14.443092383444309">
        <ele>291.60000610351602</ele>
        <time>2012-10-22T07:46:28Z</time>
      </trkpt>
      <trkpt lat="47.915378557518125" lon="14.443076122552156">
        <ele>292</ele>
        <time>2012-10-22T07:46:29Z</time>
      </trkpt>
      <trkpt lat="47.915386185050011" lon="14.443065645173192">
        <ele>292.39999389648398</ele>
        <time>2012-10-22T07:46:30Z</time>
      </trkpt>
      <trkpt lat="47.915401440113783" lon="14.443046534433961">
        <ele>292.79998779296898</ele>
        <time>2012-10-22T07:46:31Z</time>
      </trkpt>
      <trkpt lat="47.915416695177555" lon="14.44303035736084">
        <ele>293.20001220703102</ele>
        <time>2012-10-22T07:46:32Z</time>
      </trkpt>
      <trkpt lat="47.915447205305099" lon="14.442993141710758">
        <ele>293.20001220703102</ele>
        <time>2012-10-22T07:46:35Z</time>
      </trkpt>
      <trkpt lat="47.915492970496416" lon="14.442943604663014">
        <ele>293.60000610351602</ele>
        <time>2012-10-22T07:46:38Z</time>
      </trkpt>
      <trkpt lat="47.915504453703761" lon="14.44293019361794">
        <ele>294</ele>
        <time>2012-10-22T07:46:39Z</time>
      </trkpt>
      <trkpt lat="47.915519708767533" lon="14.442914938554168">
        <ele>294.39999389648398</ele>
        <time>2012-10-22T07:46:40Z</time>
      </trkpt>
      <trkpt lat="47.915531191974878" lon="14.442897755652666">
        <ele>294.79998779296898</ele>
        <time>2012-10-22T07:46:41Z</time>
      </trkpt>
      <trkpt lat="47.915542591363192" lon="14.442881578579545">
        <ele>295.20001220703102</ele>
        <time>2012-10-22T07:46:42Z</time>
      </trkpt>
      <trkpt lat="47.915557846426964" lon="14.442863473668694">
        <ele>295.20001220703102</ele>
        <time>2012-10-22T07:46:43Z</time>
      </trkpt>
      <trkpt lat="47.915660860016942" lon="14.442767165601254">
        <ele>295.60000610351602</ele>
        <time>2012-10-22T07:46:49Z</time>
      </trkpt>
      <trkpt lat="47.915672343224287" lon="14.442756688222289">
        <ele>296.60000610351602</ele>
        <time>2012-10-22T07:46:50Z</time>
      </trkpt>
      <trkpt lat="47.915687598288059" lon="14.442749060690403">
        <ele>297</ele>
        <time>2012-10-22T07:46:51Z</time>
      </trkpt>
      <trkpt lat="47.915698997676373" lon="14.442739505320787">
        <ele>297.39999389648398</ele>
        <time>2012-10-22T07:46:52Z</time>
      </trkpt>
      <trkpt lat="47.915798155590892" lon="14.442695584148169">
        <ele>297.39999389648398</ele>
        <time>2012-10-22T07:46:58Z</time>
      </trkpt>
      <trkpt lat="47.915824893862009" lon="14.442683178931475">
        <ele>297.79998779296898</ele>
        <time>2012-10-22T07:47:00Z</time>
      </trkpt>
      <trkpt lat="47.915836293250322" lon="14.442671779543161">
        <ele>298.20001220703102</ele>
        <time>2012-10-22T07:47:01Z</time>
      </trkpt>
      <trkpt lat="47.915847776457667" lon="14.442663230001926">
        <ele>298.60000610351602</ele>
        <time>2012-10-22T07:47:02Z</time>
      </trkpt>
      <trkpt lat="47.91586303152144" lon="14.442651746794581">
        <ele>299</ele>
        <time>2012-10-22T07:47:03Z</time>
      </trkpt>
      <trkpt lat="47.915878286585212" lon="14.442638419568539">
        <ele>299.39999389648398</ele>
        <time>2012-10-22T07:47:04Z</time>
      </trkpt>
      <trkpt lat="47.915962189435959" lon="14.442529706284404">
        <ele>299.39999389648398</ele>
        <time>2012-10-22T07:47:10Z</time>
      </trkpt>
      <trkpt lat="47.916053803637624" lon="14.442406659945846">
        <ele>299.39999389648398</ele>
        <time>2012-10-22T07:47:18Z</time>
      </trkpt>
      <trkpt lat="47.916076686233282" lon="14.442336084321141">
        <ele>299.79998779296898</ele>
        <time>2012-10-22T07:47:22Z</time>
      </trkpt>
      <trkpt lat="47.916084313765168" lon="14.44231890141964">
        <ele>300.20001220703102</ele>
        <time>2012-10-22T07:47:23Z</time>
      </trkpt>
      <trkpt lat="47.916091941297054" lon="14.442304652184248">
        <ele>300.60000610351602</ele>
        <time>2012-10-22T07:47:24Z</time>
      </trkpt>
      <trkpt lat="47.91609956882894" lon="14.442291241139174">
        <ele>301</ele>
        <time>2012-10-22T07:47:25Z</time>
      </trkpt>
      <trkpt lat="47.91609956882894" lon="14.442283613607287">
        <ele>301.39999389648398</ele>
        <time>2012-10-22T07:47:26Z</time>
      </trkpt>
      <trkpt lat="47.916229236871004" lon="14.442155873402953">
        <ele>301.39999389648398</ele>
        <time>2012-10-22T07:47:34Z</time>
      </trkpt>
      <trkpt lat="47.916294112801552" lon="14.442047160118818">
        <ele>301.39999389648398</ele>
        <time>2012-10-22T07:47:40Z</time>
      </trkpt>
      <trkpt lat="47.916305512189865" lon="14.442022349685431">
        <ele>301.39999389648398</ele>
        <time>2012-10-22T07:47:41Z</time>
      </trkpt>
      <trkpt lat="47.916370388120413" lon="14.441890753805637">
        <ele>301.39999389648398</ele>
        <time>2012-10-22T07:47:45Z</time>
      </trkpt>
      <trkpt lat="47.916511539369822" lon="14.441710459068418">
        <ele>301.39999389648398</ele>
        <time>2012-10-22T07:47:51Z</time>
      </trkpt>
      <trkpt lat="47.916629808023572" lon="14.441695204004645">
        <ele>301.39999389648398</ele>
        <time>2012-10-22T07:47:55Z</time>
      </trkpt>
      <trkpt lat="47.916782358661294" lon="14.441644661128521">
        <ele>301.39999389648398</ele>
        <time>2012-10-22T07:47:59Z</time>
      </trkpt>
      <trkpt lat="47.916839607059956" lon="14.44154835306108">
        <ele>301.39999389648398</ele>
        <time>2012-10-22T07:48:01Z</time>
      </trkpt>
      <trkpt lat="47.916889227926731" lon="14.441403429955244">
        <ele>301.39999389648398</ele>
        <time>2012-10-22T07:48:03Z</time>
      </trkpt>
      <trkpt lat="47.916912110522389" lon="14.44132992066443">
        <ele>301</ele>
        <time>2012-10-22T07:48:04Z</time>
      </trkpt>
      <trkpt lat="47.916938764974475" lon="14.441254651173949">
        <ele>300.39999389648398</ele>
        <time>2012-10-22T07:48:05Z</time>
      </trkpt>
      <trkpt lat="47.916973130777478" lon="14.441177370026708">
        <ele>300</ele>
        <time>2012-10-22T07:48:06Z</time>
      </trkpt>
      <trkpt lat="47.917011268436909" lon="14.441094389185309">
        <ele>299.60000610351602</ele>
        <time>2012-10-22T07:48:07Z</time>
      </trkpt>
      <trkpt lat="47.917057033628225" lon="14.441002858802676">
        <ele>299</ele>
        <time>2012-10-22T07:48:08Z</time>
      </trkpt>
      <trkpt lat="47.917099026963115" lon="14.440910322591662">
        <ele>299</ele>
        <time>2012-10-22T07:48:09Z</time>
      </trkpt>
      <trkpt lat="47.917144792154431" lon="14.440812086686492">
        <ele>298.60000610351602</ele>
        <time>2012-10-22T07:48:10Z</time>
      </trkpt>
      <trkpt lat="47.917190557345748" lon="14.440710078924894">
        <ele>298.20001220703102</ele>
        <time>2012-10-22T07:48:11Z</time>
      </trkpt>
      <trkpt lat="47.917228695005178" lon="14.440610921010375">
        <ele>297.79998779296898</ele>
        <time>2012-10-22T07:48:12Z</time>
      </trkpt>
      <trkpt lat="47.917266832664609" lon="14.440513607114553">
        <ele>297.20001220703102</ele>
        <time>2012-10-22T07:48:13Z</time>
      </trkpt>
      <trkpt lat="47.917304970324039" lon="14.440414449200034">
        <ele>296.79998779296898</ele>
        <time>2012-10-22T07:48:14Z</time>
      </trkpt>
      <trkpt lat="47.91734310798347" lon="14.440316213294864">
        <ele>296.79998779296898</ele>
        <time>2012-10-22T07:48:15Z</time>
      </trkpt>
      <trkpt lat="47.917533880099654" lon="14.439929975196719">
        <ele>296.39999389648398</ele>
        <time>2012-10-22T07:48:19Z</time>
      </trkpt>
      <trkpt lat="47.917594900354743" lon="14.43982888944447">
        <ele>295.79998779296898</ele>
        <time>2012-10-22T07:48:20Z</time>
      </trkpt>
      <trkpt lat="47.917652148753405" lon="14.439726797863841">
        <ele>295.39999389648398</ele>
        <time>2012-10-22T07:48:21Z</time>
      </trkpt>
      <trkpt lat="47.917701685801148" lon="14.439621940255165">
        <ele>295</ele>
        <time>2012-10-22T07:48:22Z</time>
      </trkpt>
      <trkpt lat="47.917747534811497" lon="14.439516998827457">
        <ele>294.39999389648398</ele>
        <time>2012-10-22T07:48:23Z</time>
      </trkpt>
      <trkpt lat="47.917789444327354" lon="14.439413985237479">
        <ele>294</ele>
        <time>2012-10-22T07:48:24Z</time>
      </trkpt>
      <trkpt lat="47.917831437662244" lon="14.43931289948523">
        <ele>293.60000610351602</ele>
        <time>2012-10-22T07:48:25Z</time>
      </trkpt>
      <trkpt lat="47.917869575321674" lon="14.439221369102597">
        <ele>293.20001220703102</ele>
        <time>2012-10-22T07:48:26Z</time>
      </trkpt>
      <trkpt lat="47.917907712981105" lon="14.43913746625185">
        <ele>292.79998779296898</ele>
        <time>2012-10-22T07:48:27Z</time>
      </trkpt>
      <trkpt lat="47.917942078784108" lon="14.439064962789416">
        <ele>292.39999389648398</ele>
        <time>2012-10-22T07:48:28Z</time>
      </trkpt>
      <trkpt lat="47.918022125959396" lon="14.438953399658203">
        <ele>292.39999389648398</ele>
        <time>2012-10-22T07:48:30Z</time>
      </trkpt>
      <trkpt lat="47.918167132884264" lon="14.438807470723987">
        <ele>292.39999389648398</ele>
        <time>2012-10-22T07:48:35Z</time>
      </trkpt>
      <trkpt lat="47.918220525607467" lon="14.438818953931332">
        <ele>292.39999389648398</ele>
        <time>2012-10-22T07:48:42Z</time>
      </trkpt>
      <trkpt lat="47.918216669932008" lon="14.438825575634837">
        <ele>292.39999389648398</ele>
        <time>2012-10-22T07:48:53Z</time>
      </trkpt>
      <trkpt lat="47.918220525607467" lon="14.438836136832833">
        <ele>292.39999389648398</ele>
        <time>2012-10-22T07:49:03Z</time>
      </trkpt>
      <trkpt lat="47.918220525607467" lon="14.438836136832833">
        <ele>292.39999389648398</ele>
        <time>2012-10-22T07:49:13Z</time>
      </trkpt>
      <trkpt lat="47.918220525607467" lon="14.438836136832833">
        <ele>292.39999389648398</ele>
        <time>2012-10-22T07:49:29Z</time>
      </trkpt>
      <trkpt lat="47.918220525607467" lon="14.438837058842182">
        <ele>292.39999389648398</ele>
        <time>2012-10-22T07:49:40Z</time>
      </trkpt>
      <trkpt lat="47.918220525607467" lon="14.438837058842182">
        <ele>292.39999389648398</ele>
        <time>2012-10-22T07:49:51Z</time>
      </trkpt>
      <trkpt lat="47.918220525607467" lon="14.438837058842182">
        <ele>292.39999389648398</ele>
        <time>2012-10-22T07:50:03Z</time>
      </trkpt>
      <trkpt lat="47.918224297463894" lon="14.438833203166723">
        <ele>292.39999389648398</ele>
        <time>2012-10-22T07:50:16Z</time>
      </trkpt>
      <trkpt lat="47.918224297463894" lon="14.438833203166723">
        <ele>292.39999389648398</ele>
        <time>2012-10-22T07:50:31Z</time>
      </trkpt>
      <trkpt lat="47.918239552527666" lon="14.438804620876908">
        <ele>292.39999389648398</ele>
        <time>2012-10-22T07:50:33Z</time>
      </trkpt>
      <trkpt lat="47.918285401538014" lon="14.438751228153706">
        <ele>292.39999389648398</ele>
        <time>2012-10-22T07:50:36Z</time>
      </trkpt>
      <trkpt lat="47.918476089835167" lon="14.438552828505635">
        <ele>292.39999389648398</ele>
        <time>2012-10-22T07:50:43Z</time>
      </trkpt>
      <trkpt lat="47.918682117015123" lon="14.438340179622173">
        <ele>292.39999389648398</ele>
        <time>2012-10-22T07:50:49Z</time>
      </trkpt>
      <trkpt lat="47.918792758136988" lon="14.438214283436537">
        <ele>292</ele>
        <time>2012-10-22T07:50:52Z</time>
      </trkpt>
      <trkpt lat="47.918838523328304" lon="14.438164746388793">
        <ele>291.60000610351602</ele>
        <time>2012-10-22T07:50:53Z</time>
      </trkpt>
      <trkpt lat="47.918880432844162" lon="14.438117975369096">
        <ele>291</ele>
        <time>2012-10-22T07:50:54Z</time>
      </trkpt>
      <trkpt lat="47.918926198035479" lon="14.438067432492971">
        <ele>290.60000610351602</ele>
        <time>2012-10-22T07:50:55Z</time>
      </trkpt>
      <trkpt lat="47.918964419513941" lon="14.438014961779118">
        <ele>290.20001220703102</ele>
        <time>2012-10-22T07:50:56Z</time>
      </trkpt>
      <trkpt lat="47.919235238805413" lon="14.43765738978982">
        <ele>290.20001220703102</ele>
        <time>2012-10-22T07:51:03Z</time>
      </trkpt>
      <trkpt lat="47.919406900182366" lon="14.43741993047297">
        <ele>290.20001220703102</ele>
        <time>2012-10-22T07:51:10Z</time>
      </trkpt>
      <trkpt lat="47.919570934027433" lon="14.437214825302362">
        <ele>290.20001220703102</ele>
        <time>2012-10-22T07:51:17Z</time>
      </trkpt>
      <trkpt lat="47.919822726398706" lon="14.436972588300705">
        <ele>290.20001220703102</ele>
        <time>2012-10-22T07:51:25Z</time>
      </trkpt>
      <trkpt lat="47.920104945078492" lon="14.436680814251304">
        <ele>290.20001220703102</ele>
        <time>2012-10-22T07:51:33Z</time>
      </trkpt>
      <trkpt lat="47.920352965593338" lon="14.436401361599565">
        <ele>290.20001220703102</ele>
        <time>2012-10-22T07:51:39Z</time>
      </trkpt>
      <trkpt lat="47.92046737857163" lon="14.436219222843647">
        <ele>290.20001220703102</ele>
        <time>2012-10-22T07:51:42Z</time>
      </trkpt>
      <trkpt lat="47.920524626970291" lon="14.436083771288395">
        <ele>290.20001220703102</ele>
        <time>2012-10-22T07:51:44Z</time>
      </trkpt>
      <trkpt lat="47.920688660815358" lon="14.435734748840332">
        <ele>290.20001220703102</ele>
        <time>2012-10-22T07:51:50Z</time>
      </trkpt>
      <trkpt lat="47.92080307379365" lon="14.435530649498105">
        <ele>290.20001220703102</ele>
        <time>2012-10-22T07:51:54Z</time>
      </trkpt>
      <trkpt lat="47.920925114303827" lon="14.435387570410967">
        <ele>290.20001220703102</ele>
        <time>2012-10-22T07:51:57Z</time>
      </trkpt>
      <trkpt lat="47.921264665201306" lon="14.434896474704146">
        <ele>290.20001220703102</ele>
        <time>2012-10-22T07:52:06Z</time>
      </trkpt>
      <trkpt lat="47.921306574717164" lon="14.434835454449058">
        <ele>289.79998779296898</ele>
        <time>2012-10-22T07:52:07Z</time>
      </trkpt>
      <trkpt lat="47.921348568052053" lon="14.434780133888125">
        <ele>289.39999389648398</ele>
        <time>2012-10-22T07:52:08Z</time>
      </trkpt>
      <trkpt lat="47.92139433324337" lon="14.434724813327193">
        <ele>289</ele>
        <time>2012-10-22T07:52:09Z</time>
      </trkpt>
      <trkpt lat="47.921440098434687" lon="14.434677120298147">
        <ele>288.39999389648398</ele>
        <time>2012-10-22T07:52:10Z</time>
      </trkpt>
      <trkpt lat="47.921485863626003" lon="14.434630433097482">
        <ele>287.60000610351602</ele>
        <time>2012-10-22T07:52:11Z</time>
      </trkpt>
      <trkpt lat="47.921535484492779" lon="14.434586511924863">
        <ele>287.20001220703102</ele>
        <time>2012-10-22T07:52:12Z</time>
      </trkpt>
      <trkpt lat="47.921588877215981" lon="14.434544602409005">
        <ele>286.79998779296898</ele>
        <time>2012-10-22T07:52:13Z</time>
      </trkpt>
      <trkpt lat="47.921646125614643" lon="14.434502609074116">
        <ele>286.39999389648398</ele>
        <time>2012-10-22T07:52:14Z</time>
      </trkpt>
      <trkpt lat="47.921707145869732" lon="14.434458771720529">
        <ele>285.79998779296898</ele>
        <time>2012-10-22T07:52:15Z</time>
      </trkpt>
      <trkpt lat="47.921768166124821" lon="14.43441292271018">
        <ele>285.39999389648398</ele>
        <time>2012-10-22T07:52:16Z</time>
      </trkpt>
      <trkpt lat="47.92182918637991" lon="14.434365313500166">
        <ele>285</ele>
        <time>2012-10-22T07:52:17Z</time>
      </trkpt>
      <trkpt lat="47.92189029045403" lon="14.434310914948583">
        <ele>284.39999389648398</ele>
        <time>2012-10-22T07:52:18Z</time>
      </trkpt>
      <trkpt lat="47.921955082565546" lon="14.434246039018035">
        <ele>283.79998779296898</ele>
        <time>2012-10-22T07:52:19Z</time>
      </trkpt>
      <trkpt lat="47.922012330964208" lon="14.434172613546252">
        <ele>283</ele>
        <time>2012-10-22T07:52:20Z</time>
      </trkpt>
      <trkpt lat="47.922069579362869" lon="14.434089632704854">
        <ele>282.39999389648398</ele>
        <time>2012-10-22T07:52:21Z</time>
      </trkpt>
      <trkpt lat="47.922130599617958" lon="14.434000952169299">
        <ele>282</ele>
        <time>2012-10-22T07:52:22Z</time>
      </trkpt>
      <trkpt lat="47.922187764197588" lon="14.433909421786666">
        <ele>281.39999389648398</ele>
        <time>2012-10-22T07:52:23Z</time>
      </trkpt>
      <trkpt lat="47.922241240739822" lon="14.433817891404033">
        <ele>280.79998779296898</ele>
        <time>2012-10-22T07:52:24Z</time>
      </trkpt>
      <trkpt lat="47.922294633463025" lon="14.433728205040097">
        <ele>280.39999389648398</ele>
        <time>2012-10-22T07:52:25Z</time>
      </trkpt>
      <trkpt lat="47.922348026186228" lon="14.433638602495193">
        <ele>279.79998779296898</ele>
        <time>2012-10-22T07:52:26Z</time>
      </trkpt>
      <trkpt lat="47.922439556568861" lon="14.433473562821746">
        <ele>279.79998779296898</ele>
        <time>2012-10-22T07:52:28Z</time>
      </trkpt>
      <trkpt lat="47.922630328685045" lon="14.433136023581028">
        <ele>279.79998779296898</ele>
        <time>2012-10-22T07:52:33Z</time>
      </trkpt>
      <trkpt lat="47.922786734998226" lon="14.432867048308253">
        <ele>279.79998779296898</ele>
        <time>2012-10-22T07:52:38Z</time>
      </trkpt>
      <trkpt lat="47.922813389450312" lon="14.43281558342278">
        <ele>279.79998779296898</ele>
        <time>2012-10-22T07:52:39Z</time>
      </trkpt>
      <trkpt lat="47.922905003651977" lon="14.432545686140656">
        <ele>279.79998779296898</ele>
        <time>2012-10-22T07:52:44Z</time>
      </trkpt>
      <trkpt lat="47.922920258715749" lon="14.432423561811447">
        <ele>279.79998779296898</ele>
        <time>2012-10-22T07:52:46Z</time>
      </trkpt>
      <trkpt lat="47.922935513779521" lon="14.432297665625811">
        <ele>279.79998779296898</ele>
        <time>2012-10-22T07:52:48Z</time>
      </trkpt>
      <trkpt lat="47.922946913167834" lon="14.431974375620484">
        <ele>279.79998779296898</ele>
        <time>2012-10-22T07:52:53Z</time>
      </trkpt>
      <trkpt lat="47.922977423295379" lon="14.431519489735365">
        <ele>279.79998779296898</ele>
        <time>2012-10-22T07:53:00Z</time>
      </trkpt>
      <trkpt lat="47.923004161566496" lon="14.43139267154038">
        <ele>279.79998779296898</ele>
        <time>2012-10-22T07:53:02Z</time>
      </trkpt>
      <trkpt lat="47.923095691949129" lon="14.43076042458415">
        <ele>279.79998779296898</ele>
        <time>2012-10-22T07:53:12Z</time>
      </trkpt>
      <trkpt lat="47.923152940347791" lon="14.430261617526412">
        <ele>279.79998779296898</ele>
        <time>2012-10-22T07:53:20Z</time>
      </trkpt>
      <trkpt lat="47.92321396060288" lon="14.429962132126093">
        <ele>279.79998779296898</ele>
        <time>2012-10-22T07:53:26Z</time>
      </trkpt>
      <trkpt lat="47.923236843198538" lon="14.429860124364495">
        <ele>280.20001220703102</ele>
        <time>2012-10-22T07:53:28Z</time>
      </trkpt>
      <trkpt lat="47.92325209826231" lon="14.4298115093261">
        <ele>280.60000610351602</ele>
        <time>2012-10-22T07:53:29Z</time>
      </trkpt>
      <trkpt lat="47.923263581469655" lon="14.429763816297054">
        <ele>281</ele>
        <time>2012-10-22T07:53:30Z</time>
      </trkpt>
      <trkpt lat="47.923278836533427" lon="14.429718973115087">
        <ele>281.39999389648398</ele>
        <time>2012-10-22T07:53:31Z</time>
      </trkpt>
      <trkpt lat="47.923294091597199" lon="14.429678907617927">
        <ele>281.79998779296898</ele>
        <time>2012-10-22T07:53:32Z</time>
      </trkpt>
      <trkpt lat="47.923320746049285" lon="14.429623587056994">
        <ele>281.79998779296898</ele>
        <time>2012-10-22T07:53:34Z</time>
      </trkpt>
      <trkpt lat="47.923355111852288" lon="14.429615959525108">
        <ele>281.79998779296898</ele>
        <time>2012-10-22T07:53:38Z</time>
      </trkpt>
      <trkpt lat="47.923355111852288" lon="14.429615959525108">
        <ele>281.79998779296898</ele>
        <time>2012-10-22T07:53:46Z</time>
      </trkpt>
      <trkpt lat="47.923355111852288" lon="14.429615959525108">
        <ele>281.79998779296898</ele>
        <time>2012-10-22T07:53:58Z</time>
      </trkpt>
      <trkpt lat="47.923355111852288" lon="14.429615959525108">
        <ele>281.79998779296898</ele>
        <time>2012-10-22T07:54:14Z</time>
      </trkpt>
      <trkpt lat="47.923355111852288" lon="14.429595926776528">
        <ele>281.79998779296898</ele>
        <time>2012-10-22T07:54:24Z</time>
      </trkpt>
      <trkpt lat="47.923358883708715" lon="14.429574050009251">
        <ele>281.79998779296898</ele>
        <time>2012-10-22T07:54:25Z</time>
      </trkpt>
      <trkpt lat="47.923423759639263" lon="14.429381350055337">
        <ele>281.79998779296898</ele>
        <time>2012-10-22T07:54:31Z</time>
      </trkpt>
      <trkpt lat="47.923538172617555" lon="14.429034255445004">
        <ele>281.79998779296898</ele>
        <time>2012-10-22T07:54:38Z</time>
      </trkpt>
      <trkpt lat="47.923660296946764" lon="14.428637539967895">
        <ele>281.79998779296898</ele>
        <time>2012-10-22T07:54:46Z</time>
      </trkpt>
      <trkpt lat="47.923717461526394" lon="14.428303688764572">
        <ele>281.79998779296898</ele>
        <time>2012-10-22T07:54:53Z</time>
      </trkpt>
      <trkpt lat="47.923751827329397" lon="14.428145438432693">
        <ele>282.20001220703102</ele>
        <time>2012-10-22T07:54:57Z</time>
      </trkpt>
      <trkpt lat="47.923763310536742" lon="14.428108222782612">
        <ele>282.60000610351602</ele>
        <time>2012-10-22T07:54:58Z</time>
      </trkpt>
      <trkpt lat="47.923770938068628" lon="14.428074862807989">
        <ele>283</ele>
        <time>2012-10-22T07:54:59Z</time>
      </trkpt>
      <trkpt lat="47.923778565600514" lon="14.428046196699142">
        <ele>283.39999389648398</ele>
        <time>2012-10-22T07:55:00Z</time>
      </trkpt>
      <trkpt lat="47.923786193132401" lon="14.428017614409328">
        <ele>283.79998779296898</ele>
        <time>2012-10-22T07:55:01Z</time>
      </trkpt>
      <trkpt lat="47.923809075728059" lon="14.427980398759246">
        <ele>283.79998779296898</ele>
        <time>2012-10-22T07:55:03Z</time>
      </trkpt>
      <trkpt lat="47.92384335771203" lon="14.427989954128861">
        <ele>283.79998779296898</ele>
        <time>2012-10-22T07:55:05Z</time>
      </trkpt>
      <trkpt lat="47.923889122903347" lon="14.428041419014335">
        <ele>283.79998779296898</ele>
        <time>2012-10-22T07:55:07Z</time>
      </trkpt>
      <trkpt lat="47.923950226977468" lon="14.428108222782612">
        <ele>283.79998779296898</ele>
        <time>2012-10-22T07:55:09Z</time>
      </trkpt>
      <trkpt lat="47.92408375069499" lon="14.42824836820364">
        <ele>283.79998779296898</ele>
        <time>2012-10-22T07:55:14Z</time>
      </trkpt>
      <trkpt lat="47.924201935529709" lon="14.428301844745874">
        <ele>283.79998779296898</ele>
        <time>2012-10-22T07:55:20Z</time>
      </trkpt>
      <trkpt lat="47.924255412071943" lon="14.428313244134188">
        <ele>283.39999389648398</ele>
        <time>2012-10-22T07:55:22Z</time>
      </trkpt>
      <trkpt lat="47.924297321587801" lon="14.428321877494454">
        <ele>283</ele>
        <time>2012-10-22T07:55:23Z</time>
      </trkpt>
      <trkpt lat="47.924354569986463" lon="14.428340904414654">
        <ele>282.60000610351602</ele>
        <time>2012-10-22T07:55:24Z</time>
      </trkpt>
      <trkpt lat="47.924411734566092" lon="14.428364792838693">
        <ele>282.20001220703102</ele>
        <time>2012-10-22T07:55:25Z</time>
      </trkpt>
      <trkpt lat="47.92447661049664" lon="14.428389519453049">
        <ele>281.79998779296898</ele>
        <time>2012-10-22T07:55:26Z</time>
      </trkpt>
      <trkpt lat="47.924606362357736" lon="14.428434362635016">
        <ele>281.39999389648398</ele>
        <time>2012-10-22T07:55:28Z</time>
      </trkpt>
      <trkpt lat="47.924678782001138" lon="14.428461100906134">
        <ele>281</ele>
        <time>2012-10-22T07:55:29Z</time>
      </trkpt>
      <trkpt lat="47.924755057319999" lon="14.428494460880756">
        <ele>280.60000610351602</ele>
        <time>2012-10-22T07:55:30Z</time>
      </trkpt>
      <trkpt lat="47.924839043989778" lon="14.42852689884603">
        <ele>280.20001220703102</ele>
        <time>2012-10-22T07:55:31Z</time>
      </trkpt>
      <trkpt lat="47.924919091165066" lon="14.428554559126496">
        <ele>279.60000610351602</ele>
        <time>2012-10-22T07:55:32Z</time>
      </trkpt>
      <trkpt lat="47.924995450302958" lon="14.428581213578582">
        <ele>279.20001220703102</ele>
        <time>2012-10-22T07:55:33Z</time>
      </trkpt>
      <trkpt lat="47.925067869946361" lon="14.42860409617424">
        <ele>278.60000610351602</ele>
        <time>2012-10-22T07:55:34Z</time>
      </trkpt>
      <trkpt lat="47.925136601552367" lon="14.428625134751201">
        <ele>278</ele>
        <time>2012-10-22T07:55:35Z</time>
      </trkpt>
      <trkpt lat="47.925197621807456" lon="14.428648017346859">
        <ele>277.39999389648398</ele>
        <time>2012-10-22T07:55:36Z</time>
      </trkpt>
      <trkpt lat="47.925254786387086" lon="14.428678527474403">
        <ele>276.79998779296898</ele>
        <time>2012-10-22T07:55:37Z</time>
      </trkpt>
      <trkpt lat="47.925312034785748" lon="14.428718592971563">
        <ele>276.20001220703102</ele>
        <time>2012-10-22T07:55:38Z</time>
      </trkpt>
      <trkpt lat="47.92536542750895" lon="14.428769135847688">
        <ele>275.60000610351602</ele>
        <time>2012-10-22T07:55:39Z</time>
      </trkpt>
      <trkpt lat="47.925418820232153" lon="14.428818672895432">
        <ele>275</ele>
        <time>2012-10-22T07:55:40Z</time>
      </trkpt>
      <trkpt lat="47.925479924306273" lon="14.428878771141171">
        <ele>274.60000610351602</ele>
        <time>2012-10-22T07:55:41Z</time>
      </trkpt>
      <trkpt lat="47.92552568949759" lon="14.428962673991919">
        <ele>274</ele>
        <time>2012-10-22T07:55:42Z</time>
      </trkpt>
      <trkpt lat="47.925544716417789" lon="14.429053282365203">
        <ele>273.39999389648398</ele>
        <time>2012-10-22T07:55:43Z</time>
      </trkpt>
      <trkpt lat="47.925533317029476" lon="14.429266937077045">
        <ele>273.39999389648398</ele>
        <time>2012-10-22T07:55:46Z</time>
      </trkpt>
      <trkpt lat="47.925506578758359" lon="14.429321251809597">
        <ele>273.39999389648398</ele>
        <time>2012-10-22T07:55:47Z</time>
      </trkpt>
      <trkpt lat="47.92540742084384" lon="14.429425271227956">
        <ele>273.39999389648398</ele>
        <time>2012-10-22T07:55:50Z</time>
      </trkpt>
      <trkpt lat="47.92532728984952" lon="14.429535828530788">
        <ele>273.39999389648398</ele>
        <time>2012-10-22T07:55:55Z</time>
      </trkpt>
      <trkpt lat="47.92530826292932" lon="14.429559716954827">
        <ele>273.79998779296898</ele>
        <time>2012-10-22T07:55:56Z</time>
      </trkpt>
      <trkpt lat="47.925285380333662" lon="14.429580671712756">
        <ele>274.20001220703102</ele>
        <time>2012-10-22T07:55:57Z</time>
      </trkpt>
      <trkpt lat="47.925258642062545" lon="14.429612187668681">
        <ele>274.60000610351602</ele>
        <time>2012-10-22T07:55:58Z</time>
      </trkpt>
      <trkpt lat="47.925231903791428" lon="14.429646469652653">
        <ele>275</ele>
        <time>2012-10-22T07:55:59Z</time>
      </trkpt>
      <trkpt lat="47.925205249339342" lon="14.429680835455656">
        <ele>275.39999389648398</ele>
        <time>2012-10-22T07:56:00Z</time>
      </trkpt>
      <trkpt lat="47.925018332898617" lon="14.429915444925427">
        <ele>275.79998779296898</ele>
        <time>2012-10-22T07:56:07Z</time>
      </trkpt>
      <trkpt lat="47.9249915946275" lon="14.429945955052972">
        <ele>276.20001220703102</ele>
        <time>2012-10-22T07:56:08Z</time>
      </trkpt>
      <trkpt lat="47.924964940175414" lon="14.429975543171167">
        <ele>276.60000610351602</ele>
        <time>2012-10-22T07:56:09Z</time>
      </trkpt>
      <trkpt lat="47.924938201904297" lon="14.43001083098352">
        <ele>277</ele>
        <time>2012-10-22T07:56:10Z</time>
      </trkpt>
      <trkpt lat="47.924915319308639" lon="14.430047040805221">
        <ele>277.60000610351602</ele>
        <time>2012-10-22T07:56:11Z</time>
      </trkpt>
      <trkpt lat="47.924880953505635" lon="14.430122394114733">
        <ele>277.60000610351602</ele>
        <time>2012-10-22T07:56:13Z</time>
      </trkpt>
      <trkpt lat="47.924839043989778" lon="14.430372258648276">
        <ele>277.60000610351602</ele>
        <time>2012-10-22T07:56:19Z</time>
      </trkpt>
      <trkpt lat="47.92491146363318" lon="14.430448533967137">
        <ele>277.60000610351602</ele>
        <time>2012-10-22T07:56:23Z</time>
      </trkpt>
      <trkpt lat="47.925064098089933" lon="14.430437050759792">
        <ele>277.60000610351602</ele>
        <time>2012-10-22T07:56:28Z</time>
      </trkpt>
      <trkpt lat="47.925098380073905" lon="14.430427579209208">
        <ele>277.60000610351602</ele>
        <time>2012-10-22T07:56:29Z</time>
      </trkpt>
      <trkpt lat="47.92536542750895" lon="14.430362703278661">
        <ele>277.60000610351602</ele>
        <time>2012-10-22T07:56:36Z</time>
      </trkpt>
      <trkpt lat="47.925632474943995" lon="14.430229179561138">
        <ele>277.60000610351602</ele>
        <time>2012-10-22T07:56:43Z</time>
      </trkpt>
      <trkpt lat="47.925811763852835" lon="14.430037485435605">
        <ele>277.60000610351602</ele>
        <time>2012-10-22T07:56:48Z</time>
      </trkpt>
      <trkpt lat="47.925846129655838" lon="14.429982164874673">
        <ele>277.60000610351602</ele>
        <time>2012-10-22T07:56:49Z</time>
      </trkpt>
      <trkpt lat="47.925869012251496" lon="14.429838163778186">
        <ele>277.60000610351602</ele>
        <time>2012-10-22T07:56:51Z</time>
      </trkpt>
      <trkpt lat="47.925903294235468" lon="14.429618809372187">
        <ele>277.60000610351602</ele>
        <time>2012-10-22T07:56:54Z</time>
      </trkpt>
      <trkpt lat="47.926120720803738" lon="14.428864438086748">
        <ele>277.60000610351602</ele>
        <time>2012-10-22T07:57:05Z</time>
      </trkpt>
      <trkpt lat="47.9261589422822" lon="14.428732842206955">
        <ele>277.60000610351602</ele>
        <time>2012-10-22T07:57:07Z</time>
      </trkpt>
      <trkpt lat="47.9261589422822" lon="14.428587919101119">
        <ele>277.60000610351602</ele>
        <time>2012-10-22T07:57:09Z</time>
      </trkpt>
      <trkpt lat="47.926071183755994" lon="14.428207380697131">
        <ele>277.60000610351602</ele>
        <time>2012-10-22T07:57:14Z</time>
      </trkpt>
      <trkpt lat="47.926063556224108" lon="14.428130183368921">
        <ele>277.60000610351602</ele>
        <time>2012-10-22T07:57:15Z</time>
      </trkpt>
      <trkpt lat="47.926086438819766" lon="14.427834469825029">
        <ele>277.60000610351602</ele>
        <time>2012-10-22T07:57:19Z</time>
      </trkpt>
      <trkpt lat="47.926128348335624" lon="14.427692396566272">
        <ele>277.60000610351602</ele>
        <time>2012-10-22T07:57:21Z</time>
      </trkpt>
      <trkpt lat="47.926265727728605" lon="14.427291909232736">
        <ele>277.60000610351602</ele>
        <time>2012-10-22T07:57:27Z</time>
      </trkpt>
      <trkpt lat="47.926395395770669" lon="14.4268464948982">
        <ele>277.60000610351602</ele>
        <time>2012-10-22T07:57:34Z</time>
      </trkpt>
      <trkpt lat="47.926525147631764" lon="14.426270490512252">
        <ele>277.60000610351602</ele>
        <time>2012-10-22T07:57:43Z</time>
      </trkpt>
      <trkpt lat="47.926525147631764" lon="14.425904285162687">
        <ele>277.60000610351602</ele>
        <time>2012-10-22T07:57:48Z</time>
      </trkpt>
      <trkpt lat="47.926513664424419" lon="14.425271954387426">
        <ele>277.60000610351602</ele>
        <time>2012-10-22T07:57:56Z</time>
      </trkpt>
      <trkpt lat="47.926464043557644" lon="14.424812290817499">
        <ele>277.60000610351602</ele>
        <time>2012-10-22T07:58:02Z</time>
      </trkpt>
      <trkpt lat="47.926387768238783" lon="14.424311639741063">
        <ele>277.60000610351602</ele>
        <time>2012-10-22T07:58:09Z</time>
      </trkpt>
      <trkpt lat="47.926235217601061" lon="14.423714596778154">
        <ele>277.60000610351602</ele>
        <time>2012-10-22T07:58:17Z</time>
      </trkpt>
      <trkpt lat="47.926090210676193" lon="14.42309089936316">
        <ele>277.60000610351602</ele>
        <time>2012-10-22T07:58:25Z</time>
      </trkpt>
      <trkpt lat="47.925941431894898" lon="14.422523528337479">
        <ele>277.60000610351602</ele>
        <time>2012-10-22T07:58:32Z</time>
      </trkpt>
      <trkpt lat="47.925899522379041" lon="14.42236041650176">
        <ele>277.60000610351602</ele>
        <time>2012-10-22T07:58:34Z</time>
      </trkpt>
      <trkpt lat="47.925846129655838" lon="14.422111473977566">
        <ele>277.60000610351602</ele>
        <time>2012-10-22T07:58:37Z</time>
      </trkpt>
      <trkpt lat="47.925819391384721" lon="14.421879798173904">
        <ele>277.60000610351602</ele>
        <time>2012-10-22T07:58:40Z</time>
      </trkpt>
      <trkpt lat="47.925838502123952" lon="14.421744346618652">
        <ele>277.60000610351602</ele>
        <time>2012-10-22T07:58:43Z</time>
      </trkpt>
      <trkpt lat="47.925865156576037" lon="14.421653738245368">
        <ele>278</ele>
        <time>2012-10-22T07:58:45Z</time>
      </trkpt>
      <trkpt lat="47.925876639783382" lon="14.421604117378592">
        <ele>278.79998779296898</ele>
        <time>2012-10-22T07:58:46Z</time>
      </trkpt>
      <trkpt lat="47.925884267315269" lon="14.421559358015656">
        <ele>279.20001220703102</ele>
        <time>2012-10-22T07:58:47Z</time>
      </trkpt>
      <trkpt lat="47.925891894847155" lon="14.421517364680767">
        <ele>279.60000610351602</ele>
        <time>2012-10-22T07:58:48Z</time>
      </trkpt>
      <trkpt lat="47.925899522379041" lon="14.421470677480102">
        <ele>279.60000610351602</ele>
        <time>2012-10-22T07:58:49Z</time>
      </trkpt>
      <trkpt lat="47.925930032506585" lon="14.421288454905152">
        <ele>279.60000610351602</ele>
        <time>2012-10-22T07:58:52Z</time>
      </trkpt>
      <trkpt lat="47.925930032506585" lon="14.421143531799316">
        <ele>279.60000610351602</ele>
        <time>2012-10-22T07:58:54Z</time>
      </trkpt>
      <trkpt lat="47.925945287570357" lon="14.420955693349242">
        <ele>279.60000610351602</ele>
        <time>2012-10-22T07:58:58Z</time>
      </trkpt>
      <trkpt lat="47.925975797697902" lon="14.420654280111194">
        <ele>279.60000610351602</ele>
        <time>2012-10-22T07:59:03Z</time>
      </trkpt>
      <trkpt lat="47.926029190421104" lon="14.420390166342258">
        <ele>279.20001220703102</ele>
        <time>2012-10-22T07:59:06Z</time>
      </trkpt>
      <trkpt lat="47.926052073016763" lon="14.420300479978323">
        <ele>278.60000610351602</ele>
        <time>2012-10-22T07:59:07Z</time>
      </trkpt>
      <trkpt lat="47.926074955612421" lon="14.420204171910882">
        <ele>278.20001220703102</ele>
        <time>2012-10-22T07:59:08Z</time>
      </trkpt>
      <trkpt lat="47.926101693883538" lon="14.420104008167982">
        <ele>277.60000610351602</ele>
        <time>2012-10-22T07:59:09Z</time>
      </trkpt>
      <trkpt lat="47.926128348335624" lon="14.419997222721577">
        <ele>277</ele>
        <time>2012-10-22T07:59:10Z</time>
      </trkpt>
      <trkpt lat="47.926162714138627" lon="14.419880881905556">
        <ele>275.60000610351602</ele>
        <time>2012-10-22T07:59:11Z</time>
      </trkpt>
      <trkpt lat="47.92619707994163" lon="14.419758757576346">
        <ele>274.79998779296898</ele>
        <time>2012-10-22T07:59:12Z</time>
      </trkpt>
      <trkpt lat="47.926235217601061" lon="14.419634789228439">
        <ele>273.79998779296898</ele>
        <time>2012-10-22T07:59:13Z</time>
      </trkpt>
      <trkpt lat="47.926277127116919" lon="14.419511826708913">
        <ele>273</ele>
        <time>2012-10-22T07:59:14Z</time>
      </trkpt>
      <trkpt lat="47.926319120451808" lon="14.419389702379704">
        <ele>272</ele>
        <time>2012-10-22T07:59:15Z</time>
      </trkpt>
      <trkpt lat="47.926364885643125" lon="14.419262884184718">
        <ele>271</ele>
        <time>2012-10-22T07:59:16Z</time>
      </trkpt>
      <trkpt lat="47.926410650834441" lon="14.419125588610768">
        <ele>270</ele>
        <time>2012-10-22T07:59:17Z</time>
      </trkpt>
      <trkpt lat="47.926460271701217" lon="14.418988209217787">
        <ele>268.79998779296898</ele>
        <time>2012-10-22T07:59:18Z</time>
      </trkpt>
      <trkpt lat="47.926513664424419" lon="14.4188442081213">
        <ele>267.60000610351602</ele>
        <time>2012-10-22T07:59:19Z</time>
      </trkpt>
      <trkpt lat="47.926563285291195" lon="14.418693501502275">
        <ele>266.60000610351602</ele>
        <time>2012-10-22T07:59:20Z</time>
      </trkpt>
      <trkpt lat="47.926612822338939" lon="14.418538101017475">
        <ele>265.39999389648398</ele>
        <time>2012-10-22T07:59:21Z</time>
      </trkpt>
      <trkpt lat="47.926658671349287" lon="14.418381694704294">
        <ele>264.20001220703102</ele>
        <time>2012-10-22T07:59:22Z</time>
      </trkpt>
      <trkpt lat="47.926692953333259" lon="14.418224366381764">
        <ele>263</ele>
        <time>2012-10-22T07:59:23Z</time>
      </trkpt>
      <trkpt lat="47.926727319136262" lon="14.418064104393125">
        <ele>261.79998779296898</ele>
        <time>2012-10-22T07:59:24Z</time>
      </trkpt>
      <trkpt lat="47.926757829263806" lon="14.417897220700979">
        <ele>260.60000610351602</ele>
        <time>2012-10-22T07:59:25Z</time>
      </trkpt>
      <trkpt lat="47.926780711859465" lon="14.417743664234877">
        <ele>259.39999389648398</ele>
        <time>2012-10-22T07:59:26Z</time>
      </trkpt>
      <trkpt lat="47.926799738779664" lon="14.417598741129041">
        <ele>258.79998779296898</ele>
        <time>2012-10-22T07:59:27Z</time>
      </trkpt>
      <trkpt lat="47.926822621375322" lon="14.417465217411518">
        <ele>258</ele>
        <time>2012-10-22T07:59:28Z</time>
      </trkpt>
      <trkpt lat="47.926845587790012" lon="14.41734217107296">
        <ele>257.39999389648398</ele>
        <time>2012-10-22T07:59:29Z</time>
      </trkpt>
      <trkpt lat="47.926868470385671" lon="14.417227758094668">
        <ele>256.60000610351602</ele>
        <time>2012-10-22T07:59:30Z</time>
      </trkpt>
      <trkpt lat="47.92688749730587" lon="14.417122816666961">
        <ele>256</ele>
        <time>2012-10-22T07:59:31Z</time>
      </trkpt>
      <trkpt lat="47.926906608045101" lon="14.417025586590171">
        <ele>256</ele>
        <time>2012-10-22T07:59:32Z</time>
      </trkpt>
      <trkpt lat="47.926933262497187" lon="14.416935900226235">
        <ele>256</ele>
        <time>2012-10-22T07:59:33Z</time>
      </trkpt>
      <trkpt lat="47.92704775929451" lon="14.416621243581176">
        <ele>256</ele>
        <time>2012-10-22T07:59:37Z</time>
      </trkpt>
      <trkpt lat="47.927246075123549" lon="14.416118580847979">
        <ele>256</ele>
        <time>2012-10-22T07:59:44Z</time>
      </trkpt>
      <trkpt lat="47.927448246628046" lon="14.415648439899087">
        <ele>256</ele>
        <time>2012-10-22T07:59:51Z</time>
      </trkpt>
      <trkpt lat="47.927471129223704" lon="14.415579792112112">
        <ele>256</ele>
        <time>2012-10-22T07:59:52Z</time>
      </trkpt>
      <trkpt lat="47.927574142813683" lon="14.41509154625237">
        <ele>256</ele>
        <time>2012-10-22T07:59:59Z</time>
      </trkpt>
      <trkpt lat="47.927650418132544" lon="14.414672870188951">
        <ele>256</ele>
        <time>2012-10-22T08:00:05Z</time>
      </trkpt>
      <trkpt lat="47.927669528871775" lon="14.414606066420674">
        <ele>256</ele>
        <time>2012-10-22T08:00:06Z</time>
      </trkpt>
      <trkpt lat="47.927677156403661" lon="14.414533646777272">
        <ele>256</ele>
        <time>2012-10-22T08:00:07Z</time>
      </trkpt>
      <trkpt lat="47.927730549126863" lon="14.414181690663099">
        <ele>256</ele>
        <time>2012-10-22T08:00:12Z</time>
      </trkpt>
      <trkpt lat="47.927806824445724" lon="14.413756392896175">
        <ele>256</ele>
        <time>2012-10-22T08:00:19Z</time>
      </trkpt>
      <trkpt lat="47.927864072844386" lon="14.413397815078497">
        <ele>256</ele>
        <time>2012-10-22T08:00:26Z</time>
      </trkpt>
      <trkpt lat="47.927879327908158" lon="14.413266219198704">
        <ele>256.39999389648398</ele>
        <time>2012-10-22T08:00:29Z</time>
      </trkpt>
      <trkpt lat="47.927886955440044" lon="14.413225147873163">
        <ele>256.79998779296898</ele>
        <time>2012-10-22T08:00:30Z</time>
      </trkpt>
      <trkpt lat="47.927894582971931" lon="14.413183238357306">
        <ele>257.20001220703102</ele>
        <time>2012-10-22T08:00:31Z</time>
      </trkpt>
      <trkpt lat="47.927906066179276" lon="14.413141245022416">
        <ele>257.60000610351602</ele>
        <time>2012-10-22T08:00:32Z</time>
      </trkpt>
      <trkpt lat="47.927917465567589" lon="14.413100257515907">
        <ele>258.20001220703102</ele>
        <time>2012-10-22T08:00:33Z</time>
      </trkpt>
      <trkpt lat="47.927959458902478" lon="14.412902863696218">
        <ele>258.60000610351602</ele>
        <time>2012-10-22T08:00:38Z</time>
      </trkpt>
      <trkpt lat="47.927970858290792" lon="14.412868497893214">
        <ele>259</ele>
        <time>2012-10-22T08:00:39Z</time>
      </trkpt>
      <trkpt lat="47.927978485822678" lon="14.412831282243133">
        <ele>259.39999389648398</ele>
        <time>2012-10-22T08:00:40Z</time>
      </trkpt>
      <trkpt lat="47.927989969030023" lon="14.412795072421432">
        <ele>259.79998779296898</ele>
        <time>2012-10-22T08:00:41Z</time>
      </trkpt>
      <trkpt lat="47.928001368418336" lon="14.412756934762001">
        <ele>260.20001220703102</ele>
        <time>2012-10-22T08:00:42Z</time>
      </trkpt>
      <trkpt lat="47.928047217428684" lon="14.412611927837133">
        <ele>260.20001220703102</ele>
        <time>2012-10-22T08:00:46Z</time>
      </trkpt>
      <trkpt lat="47.928134892135859" lon="14.412299115210772">
        <ele>260.20001220703102</ele>
        <time>2012-10-22T08:00:53Z</time>
      </trkpt>
      <trkpt lat="47.928230278193951" lon="14.412042628973722">
        <ele>260.60000610351602</ele>
        <time>2012-10-22T08:00:59Z</time>
      </trkpt>
      <trkpt lat="47.928245533257723" lon="14.412002563476562">
        <ele>261</ele>
        <time>2012-10-22T08:01:00Z</time>
      </trkpt>
      <trkpt lat="47.928260788321495" lon="14.411964425817132">
        <ele>261.39999389648398</ele>
        <time>2012-10-22T08:01:01Z</time>
      </trkpt>
      <trkpt lat="47.928276043385267" lon="14.411922432482243">
        <ele>261.79998779296898</ele>
        <time>2012-10-22T08:01:02Z</time>
      </trkpt>
      <trkpt lat="47.928287526592612" lon="14.411880522966385">
        <ele>262.20001220703102</ele>
        <time>2012-10-22T08:01:03Z</time>
      </trkpt>
      <trkpt lat="47.928310409188271" lon="14.411762254312634">
        <ele>262.20001220703102</ele>
        <time>2012-10-22T08:01:06Z</time>
      </trkpt>
      <trkpt lat="47.928333291783929" lon="14.411477101966739">
        <ele>262.20001220703102</ele>
        <time>2012-10-22T08:01:13Z</time>
      </trkpt>
      <trkpt lat="47.92839054018259" lon="14.411091785877943">
        <ele>262.20001220703102</ele>
        <time>2012-10-22T08:01:21Z</time>
      </trkpt>
      <trkpt lat="47.928401939570904" lon="14.410776123404503">
        <ele>262.20001220703102</ele>
        <time>2012-10-22T08:01:28Z</time>
      </trkpt>
      <trkpt lat="47.928325664252043" lon="14.410603540018201">
        <ele>262.20001220703102</ele>
        <time>2012-10-22T08:01:33Z</time>
      </trkpt>
      <trkpt lat="47.928226506337523" lon="14.410501448437572">
        <ele>262.79998779296898</ele>
        <time>2012-10-22T08:01:37Z</time>
      </trkpt>
      <trkpt lat="47.928207395598292" lon="14.410489043220878">
        <ele>263.20001220703102</ele>
        <time>2012-10-22T08:01:38Z</time>
      </trkpt>
      <trkpt lat="47.928176885470748" lon="14.410473788157105">
        <ele>264</ele>
        <time>2012-10-22T08:01:39Z</time>
      </trkpt>
      <trkpt lat="47.92815400287509" lon="14.410462388768792">
        <ele>264.39999389648398</ele>
        <time>2012-10-22T08:01:40Z</time>
      </trkpt>
      <trkpt lat="47.92799374088645" lon="14.410326015204191">
        <ele>264.39999389648398</ele>
        <time>2012-10-22T08:01:48Z</time>
      </trkpt>
      <trkpt lat="47.927978485822678" lon="14.410242112353444">
        <ele>264.79998779296898</ele>
        <time>2012-10-22T08:01:51Z</time>
      </trkpt>
      <trkpt lat="47.927982341498137" lon="14.410218223929405">
        <ele>265.20001220703102</ele>
        <time>2012-10-22T08:01:52Z</time>
      </trkpt>
      <trkpt lat="47.927986113354564" lon="14.410193413496017">
        <ele>265.60000610351602</ele>
        <time>2012-10-22T08:01:53Z</time>
      </trkpt>
      <trkpt lat="47.927986113354564" lon="14.41016960889101">
        <ele>266</ele>
        <time>2012-10-22T08:01:54Z</time>
      </trkpt>
      <trkpt lat="47.927989969030023" lon="14.410145720466971">
        <ele>266.39999389648398</ele>
        <time>2012-10-22T08:01:55Z</time>
      </trkpt>
      <trkpt lat="47.928020479157567" lon="14.409997947514057">
        <ele>266.79998779296898</ele>
        <time>2012-10-22T08:02:01Z</time>
      </trkpt>
      <trkpt lat="47.928028106689453" lon="14.409969365224242">
        <ele>267.20001220703102</ele>
        <time>2012-10-22T08:02:02Z</time>
      </trkpt>
      <trkpt lat="47.928031962364912" lon="14.409939777106047">
        <ele>267.60000610351602</ele>
        <time>2012-10-22T08:02:03Z</time>
      </trkpt>
      <trkpt lat="47.928043361753225" lon="14.409912116825581">
        <ele>268.39999389648398</ele>
        <time>2012-10-22T08:02:04Z</time>
      </trkpt>
      <trkpt lat="47.928062472492456" lon="14.409805331379175">
        <ele>268.39999389648398</ele>
        <time>2012-10-22T08:02:08Z</time>
      </trkpt>
      <trkpt lat="47.928062472492456" lon="14.40977574326098">
        <ele>268.39999389648398</ele>
        <time>2012-10-22T08:02:09Z</time>
      </trkpt>
      <trkpt lat="47.928119637072086" lon="14.409619336947799">
        <ele>268.79998779296898</ele>
        <time>2012-10-22T08:02:15Z</time>
      </trkpt>
      <trkpt lat="47.928131120279431" lon="14.409597376361489">
        <ele>269.20001220703102</ele>
        <time>2012-10-22T08:02:16Z</time>
      </trkpt>
      <trkpt lat="47.928138747811317" lon="14.409577343612909">
        <ele>269.60000610351602</ele>
        <time>2012-10-22T08:02:17Z</time>
      </trkpt>
      <trkpt lat="47.928142519667745" lon="14.409553539007902">
        <ele>270</ele>
        <time>2012-10-22T08:02:18Z</time>
      </trkpt>
      <trkpt lat="47.928150147199631" lon="14.409527806565166">
        <ele>270.39999389648398</ele>
        <time>2012-10-22T08:02:19Z</time>
      </trkpt>
      <trkpt lat="47.928157774731517" lon="14.409436192363501">
        <ele>270.39999389648398</ele>
        <time>2012-10-22T08:02:22Z</time>
      </trkpt>
      <trkpt lat="47.928203623741865" lon="14.409205438569188">
        <ele>270.39999389648398</ele>
        <time>2012-10-22T08:02:29Z</time>
      </trkpt>
      <trkpt lat="47.928306553512812" lon="14.408883070573211">
        <ele>270.39999389648398</ele>
        <time>2012-10-22T08:02:38Z</time>
      </trkpt>
      <trkpt lat="47.928382912650704" lon="14.408573191612959">
        <ele>270.39999389648398</ele>
        <time>2012-10-22T08:02:45Z</time>
      </trkpt>
      <trkpt lat="47.928485842421651" lon="14.408225091174245">
        <ele>270.39999389648398</ele>
        <time>2012-10-22T08:02:54Z</time>
      </trkpt>
      <trkpt lat="47.928520208224654" lon="14.408140182495117">
        <ele>271</ele>
        <time>2012-10-22T08:02:57Z</time>
      </trkpt>
      <trkpt lat="47.92852783575654" lon="14.408106822520494">
        <ele>271.39999389648398</ele>
        <time>2012-10-22T08:02:58Z</time>
      </trkpt>
      <trkpt lat="47.928535463288426" lon="14.408074384555221">
        <ele>271.79998779296898</ele>
        <time>2012-10-22T08:02:59Z</time>
      </trkpt>
      <trkpt lat="47.928531607612967" lon="14.408034319058061">
        <ele>272.20001220703102</ele>
        <time>2012-10-22T08:03:00Z</time>
      </trkpt>
      <trkpt lat="47.928531607612967" lon="14.407999031245708">
        <ele>272.60000610351602</ele>
        <time>2012-10-22T08:03:01Z</time>
      </trkpt>
      <trkpt lat="47.92856982909143" lon="14.407768277451396">
        <ele>272.60000610351602</ele>
        <time>2012-10-22T08:03:08Z</time>
      </trkpt>
      <trkpt lat="47.92856982909143" lon="14.40766048617661">
        <ele>273</ele>
        <time>2012-10-22T08:03:11Z</time>
      </trkpt>
      <trkpt lat="47.92856982909143" lon="14.407621342688799">
        <ele>273.39999389648398</ele>
        <time>2012-10-22T08:03:12Z</time>
      </trkpt>
      <trkpt lat="47.92856982909143" lon="14.407579433172941">
        <ele>273.79998779296898</ele>
        <time>2012-10-22T08:03:13Z</time>
      </trkpt>
      <trkpt lat="47.92856982909143" lon="14.40754028968513">
        <ele>274.20001220703102</ele>
        <time>2012-10-22T08:03:14Z</time>
      </trkpt>
      <trkpt lat="47.928573600947857" lon="14.4075021520257">
        <ele>274.60000610351602</ele>
        <time>2012-10-22T08:03:15Z</time>
      </trkpt>
      <trkpt lat="47.928588856011629" lon="14.407392516732216">
        <ele>274.60000610351602</ele>
        <time>2012-10-22T08:03:18Z</time>
      </trkpt>
      <trkpt lat="47.92860796675086" lon="14.407116919755936">
        <ele>274.60000610351602</ele>
        <time>2012-10-22T08:03:26Z</time>
      </trkpt>
      <trkpt lat="47.928619366139174" lon="14.406938552856445">
        <ele>275</ele>
        <time>2012-10-22T08:03:31Z</time>
      </trkpt>
      <trkpt lat="47.928619366139174" lon="14.406905192881823">
        <ele>275.39999389648398</ele>
        <time>2012-10-22T08:03:32Z</time>
      </trkpt>
      <trkpt lat="47.928623221814632" lon="14.40686889924109">
        <ele>276</ele>
        <time>2012-10-22T08:03:33Z</time>
      </trkpt>
      <trkpt lat="47.928623221814632" lon="14.406833611428738">
        <ele>276.39999389648398</ele>
        <time>2012-10-22T08:03:34Z</time>
      </trkpt>
      <trkpt lat="47.928623221814632" lon="14.406799329444766">
        <ele>276.79998779296898</ele>
        <time>2012-10-22T08:03:35Z</time>
      </trkpt>
      <trkpt lat="47.92862699367106" lon="14.406612413004041">
        <ele>276.79998779296898</ele>
        <time>2012-10-22T08:03:40Z</time>
      </trkpt>
      <trkpt lat="47.92862699367106" lon="14.406279567629099">
        <ele>276.79998779296898</ele>
        <time>2012-10-22T08:03:49Z</time>
      </trkpt>
      <trkpt lat="47.928623221814632" lon="14.406208069995046">
        <ele>277.20001220703102</ele>
        <time>2012-10-22T08:03:51Z</time>
      </trkpt>
      <trkpt lat="47.928619366139174" lon="14.406174626201391">
        <ele>277.60000610351602</ele>
        <time>2012-10-22T08:03:52Z</time>
      </trkpt>
      <trkpt lat="47.928623221814632" lon="14.406144116073847">
        <ele>278</ele>
        <time>2012-10-22T08:03:53Z</time>
      </trkpt>
      <trkpt lat="47.928619366139174" lon="14.406109834089875">
        <ele>278.39999389648398</ele>
        <time>2012-10-22T08:03:54Z</time>
      </trkpt>
      <trkpt lat="47.928619366139174" lon="14.406075468286872">
        <ele>278.79998779296898</ele>
        <time>2012-10-22T08:03:55Z</time>
      </trkpt>
      <trkpt lat="47.928623221814632" lon="14.406043030321598">
        <ele>278.79998779296898</ele>
        <time>2012-10-22T08:03:56Z</time>
      </trkpt>
      <trkpt lat="47.92862699367106" lon="14.405756955966353">
        <ele>278.79998779296898</ele>
        <time>2012-10-22T08:04:04Z</time>
      </trkpt>
      <trkpt lat="47.928638476878405" lon="14.405531901866198">
        <ele>279.20001220703102</ele>
        <time>2012-10-22T08:04:10Z</time>
      </trkpt>
      <trkpt lat="47.928638476878405" lon="14.405496614053845">
        <ele>279.60000610351602</ele>
        <time>2012-10-22T08:04:11Z</time>
      </trkpt>
      <trkpt lat="47.928642248734832" lon="14.405459398403764">
        <ele>280</ele>
        <time>2012-10-22T08:04:12Z</time>
      </trkpt>
      <trkpt lat="47.928642248734832" lon="14.405422182753682">
        <ele>280.39999389648398</ele>
        <time>2012-10-22T08:04:13Z</time>
      </trkpt>
      <trkpt lat="47.928646104410291" lon="14.405388822779059">
        <ele>280.79998779296898</ele>
        <time>2012-10-22T08:04:14Z</time>
      </trkpt>
      <trkpt lat="47.928657503798604" lon="14.405095120891929">
        <ele>280.79998779296898</ele>
        <time>2012-10-22T08:04:22Z</time>
      </trkpt>
      <trkpt lat="47.928718607872725" lon="14.404710810631514">
        <ele>280.79998779296898</ele>
        <time>2012-10-22T08:04:32Z</time>
      </trkpt>
      <trkpt lat="47.928810138255358" lon="14.404384586960077">
        <ele>280.79998779296898</ele>
        <time>2012-10-22T08:04:38Z</time>
      </trkpt>
      <trkpt lat="47.92900082655251" lon="14.403814282268286">
        <ele>280.79998779296898</ele>
        <time>2012-10-22T08:04:46Z</time>
      </trkpt>
      <trkpt lat="47.929264102131128" lon="14.403251688927412">
        <ele>280.79998779296898</ele>
        <time>2012-10-22T08:04:54Z</time>
      </trkpt>
      <trkpt lat="47.929451018571854" lon="14.403004674240947">
        <ele>280.79998779296898</ele>
        <time>2012-10-22T08:04:59Z</time>
      </trkpt>
      <trkpt lat="47.929485300555825" lon="14.402968380600214">
        <ele>280.39999389648398</ele>
        <time>2012-10-22T08:05:00Z</time>
      </trkpt>
      <trkpt lat="47.92951581068337" lon="14.402934098616242">
        <ele>279.79998779296898</ele>
        <time>2012-10-22T08:05:01Z</time>
      </trkpt>
      <trkpt lat="47.929538693279028" lon="14.402907360345125">
        <ele>279.39999389648398</ele>
        <time>2012-10-22T08:05:02Z</time>
      </trkpt>
      <trkpt lat="47.929557804018259" lon="14.40288070589304">
        <ele>279</ele>
        <time>2012-10-22T08:05:03Z</time>
      </trkpt>
      <trkpt lat="47.92957691475749" lon="14.402861595153809">
        <ele>278.60000610351602</ele>
        <time>2012-10-22T08:05:04Z</time>
      </trkpt>
      <trkpt lat="47.929672216996551" lon="14.402751959860325">
        <ele>278.60000610351602</ele>
        <time>2012-10-22T08:05:10Z</time>
      </trkpt>
      <trkpt lat="47.929763831198215" lon="14.402616508305073">
        <ele>278</ele>
        <time>2012-10-22T08:05:14Z</time>
      </trkpt>
      <trkpt lat="47.929798113182187" lon="14.402573592960835">
        <ele>277.60000610351602</ele>
        <time>2012-10-22T08:05:15Z</time>
      </trkpt>
      <trkpt lat="47.92983247898519" lon="14.402529755607247">
        <ele>277.20001220703102</ele>
        <time>2012-10-22T08:05:16Z</time>
      </trkpt>
      <trkpt lat="47.929870616644621" lon="14.402478206902742">
        <ele>276.79998779296898</ele>
        <time>2012-10-22T08:05:17Z</time>
      </trkpt>
      <trkpt lat="47.929912526160479" lon="14.402425736188889">
        <ele>276.39999389648398</ele>
        <time>2012-10-22T08:05:18Z</time>
      </trkpt>
      <trkpt lat="47.930072788149118" lon="14.402184505015612">
        <ele>276.39999389648398</ele>
        <time>2012-10-22T08:05:22Z</time>
      </trkpt>
      <trkpt lat="47.930114781484008" lon="14.402113929390907">
        <ele>276</ele>
        <time>2012-10-22T08:05:23Z</time>
      </trkpt>
      <trkpt lat="47.930152919143438" lon="14.402039498090744">
        <ele>275.60000610351602</ele>
        <time>2012-10-22T08:05:24Z</time>
      </trkpt>
      <trkpt lat="47.930191056802869" lon="14.401960372924805">
        <ele>275.20001220703102</ele>
        <time>2012-10-22T08:05:25Z</time>
      </trkpt>
      <trkpt lat="47.930229194462299" lon="14.401880241930485">
        <ele>274.60000610351602</ele>
        <time>2012-10-22T08:05:26Z</time>
      </trkpt>
      <trkpt lat="47.930259704589844" lon="14.401799188926816">
        <ele>274.20001220703102</ele>
        <time>2012-10-22T08:05:27Z</time>
      </trkpt>
      <trkpt lat="47.930286442860961" lon="14.401715286076069">
        <ele>274.20001220703102</ele>
        <time>2012-10-22T08:05:28Z</time>
      </trkpt>
      <trkpt lat="47.930408483371139" lon="14.401214634999633">
        <ele>274.20001220703102</ele>
        <time>2012-10-22T08:05:34Z</time>
      </trkpt>
      <trkpt lat="47.930526752024889" lon="14.400494545698166">
        <ele>274.20001220703102</ele>
        <time>2012-10-22T08:05:43Z</time>
      </trkpt>
      <trkpt lat="47.930549634620547" lon="14.400047287344933">
        <ele>274.20001220703102</ele>
        <time>2012-10-22T08:05:49Z</time>
      </trkpt>
      <trkpt lat="47.930542007088661" lon="14.399979561567307">
        <ele>274.20001220703102</ele>
        <time>2012-10-22T08:05:50Z</time>
      </trkpt>
      <trkpt lat="47.93052289634943" lon="14.399855593219399">
        <ele>274.20001220703102</ele>
        <time>2012-10-22T08:05:52Z</time>
      </trkpt>
      <trkpt lat="47.930442849174142" lon="14.399648644030094">
        <ele>274.20001220703102</ele>
        <time>2012-10-22T08:05:56Z</time>
      </trkpt>
      <trkpt lat="47.930423738434911" lon="14.399602878838778">
        <ele>274.20001220703102</ele>
        <time>2012-10-22T08:05:57Z</time>
      </trkpt>
      <trkpt lat="47.930286442860961" lon="14.399319654330611">
        <ele>274.20001220703102</ele>
        <time>2012-10-22T08:06:04Z</time>
      </trkpt>
      <trkpt lat="47.93026733212173" lon="14.39928243868053">
        <ele>274.60000610351602</ele>
        <time>2012-10-22T08:06:05Z</time>
      </trkpt>
      <trkpt lat="47.930252077057958" lon="14.399248156696558">
        <ele>275</ele>
        <time>2012-10-22T08:06:06Z</time>
      </trkpt>
      <trkpt lat="47.930232966318727" lon="14.399214712902904">
        <ele>275.39999389648398</ele>
        <time>2012-10-22T08:06:07Z</time>
      </trkpt>
      <trkpt lat="47.930217711254954" lon="14.399181352928281">
        <ele>275.79998779296898</ele>
        <time>2012-10-22T08:06:08Z</time>
      </trkpt>
      <trkpt lat="47.930206311866641" lon="14.399144137278199">
        <ele>276.20001220703102</ele>
        <time>2012-10-22T08:06:09Z</time>
      </trkpt>
      <trkpt lat="47.930194828659296" lon="14.399109855294228">
        <ele>276.20001220703102</ele>
        <time>2012-10-22T08:06:10Z</time>
      </trkpt>
      <trkpt lat="47.930141435936093" lon="14.398972475901246">
        <ele>276.60000610351602</ele>
        <time>2012-10-22T08:06:15Z</time>
      </trkpt>
      <trkpt lat="47.930133808404207" lon="14.398946743458509">
        <ele>277</ele>
        <time>2012-10-22T08:06:16Z</time>
      </trkpt>
      <trkpt lat="47.930126180872321" lon="14.398923860862851">
        <ele>277.60000610351602</ele>
        <time>2012-10-22T08:06:17Z</time>
      </trkpt>
      <trkpt lat="47.930118553340435" lon="14.398900978267193">
        <ele>278</ele>
        <time>2012-10-22T08:06:18Z</time>
      </trkpt>
      <trkpt lat="47.930110925808549" lon="14.398877173662186">
        <ele>278.39999389648398</ele>
        <time>2012-10-22T08:06:19Z</time>
      </trkpt>
      <trkpt lat="47.930072788149118" lon="14.398808442056179">
        <ele>278.39999389648398</ele>
        <time>2012-10-22T08:06:22Z</time>
      </trkpt>
      <trkpt lat="47.93004990555346" lon="14.398741722106934">
        <ele>278.79998779296898</ele>
        <time>2012-10-22T08:06:25Z</time>
      </trkpt>
      <trkpt lat="47.930042278021574" lon="14.398718839511275">
        <ele>279.20001220703102</ele>
        <time>2012-10-22T08:06:26Z</time>
      </trkpt>
      <trkpt lat="47.930034650489688" lon="14.398695956915617">
        <ele>279.60000610351602</ele>
        <time>2012-10-22T08:06:27Z</time>
      </trkpt>
      <trkpt lat="47.930030794814229" lon="14.398675002157688">
        <ele>280</ele>
        <time>2012-10-22T08:06:28Z</time>
      </trkpt>
      <trkpt lat="47.930027022957802" lon="14.398656813427806">
        <ele>280.39999389648398</ele>
        <time>2012-10-22T08:06:29Z</time>
      </trkpt>
      <trkpt lat="47.929977402091026" lon="14.398564361035824">
        <ele>280.39999389648398</ele>
        <time>2012-10-22T08:06:34Z</time>
      </trkpt>
      <trkpt lat="47.929962147027254" lon="14.398542400449514">
        <ele>280.79998779296898</ele>
        <time>2012-10-22T08:06:35Z</time>
      </trkpt>
      <trkpt lat="47.929950747638941" lon="14.398519517853856">
        <ele>281.79998779296898</ele>
        <time>2012-10-22T08:06:36Z</time>
      </trkpt>
      <trkpt lat="47.929943120107055" lon="14.398498563095927">
        <ele>282.20001220703102</ele>
        <time>2012-10-22T08:06:37Z</time>
      </trkpt>
      <trkpt lat="47.929943120107055" lon="14.398473752662539">
        <ele>282.60000610351602</ele>
        <time>2012-10-22T08:06:38Z</time>
      </trkpt>
      <trkpt lat="47.929920237511396" lon="14.398422203958035">
        <ele>282.60000610351602</ele>
        <time>2012-10-22T08:06:41Z</time>
      </trkpt>
      <trkpt lat="47.929870616644621" lon="14.398325895890594">
        <ele>283</ele>
        <time>2012-10-22T08:06:47Z</time>
      </trkpt>
      <trkpt lat="47.929866760969162" lon="14.398311646655202">
        <ele>283.39999389648398</ele>
        <time>2012-10-22T08:06:48Z</time>
      </trkpt>
      <trkpt lat="47.929862989112735" lon="14.398295385763049">
        <ele>283.79998779296898</ele>
        <time>2012-10-22T08:06:49Z</time>
      </trkpt>
      <trkpt lat="47.929855361580849" lon="14.398275353014469">
        <ele>284.20001220703102</ele>
        <time>2012-10-22T08:06:50Z</time>
      </trkpt>
      <trkpt lat="47.929847734048963" lon="14.398255320265889">
        <ele>284.60000610351602</ele>
        <time>2012-10-22T08:06:51Z</time>
      </trkpt>
      <trkpt lat="47.929801968857646" lon="14.398190528154373">
        <ele>284.60000610351602</ele>
        <time>2012-10-22T08:06:55Z</time>
      </trkpt>
      <trkpt lat="47.929729465395212" lon="14.398107547312975">
        <ele>285</ele>
        <time>2012-10-22T08:07:00Z</time>
      </trkpt>
      <trkpt lat="47.929717982187867" lon="14.398095142096281">
        <ele>285.39999389648398</ele>
        <time>2012-10-22T08:07:01Z</time>
      </trkpt>
      <trkpt lat="47.929706582799554" lon="14.398082736879587">
        <ele>285.79998779296898</ele>
        <time>2012-10-22T08:07:02Z</time>
      </trkpt>
      <trkpt lat="47.929691327735782" lon="14.398067481815815">
        <ele>286.20001220703102</ele>
        <time>2012-10-22T08:07:03Z</time>
      </trkpt>
      <trkpt lat="47.929679844528437" lon="14.398054154589772">
        <ele>286.60000610351602</ele>
        <time>2012-10-22T08:07:04Z</time>
      </trkpt>
      <trkpt lat="47.929607424885035" lon="14.39796069636941">
        <ele>286.60000610351602</ele>
        <time>2012-10-22T08:07:11Z</time>
      </trkpt>
      <trkpt lat="47.929569203406572" lon="14.397923480719328">
        <ele>287</ele>
        <time>2012-10-22T08:07:14Z</time>
      </trkpt>
      <trkpt lat="47.929557804018259" lon="14.397910153493285">
        <ele>287.60000610351602</ele>
        <time>2012-10-22T08:07:15Z</time>
      </trkpt>
      <trkpt lat="47.929542548954487" lon="14.397895820438862">
        <ele>288</ele>
        <time>2012-10-22T08:07:16Z</time>
      </trkpt>
      <trkpt lat="47.929531065747142" lon="14.397883415222168">
        <ele>288.39999389648398</ele>
        <time>2012-10-22T08:07:17Z</time>
      </trkpt>
      <trkpt lat="47.929519666358829" lon="14.397871932014823">
        <ele>288.79998779296898</ele>
        <time>2012-10-22T08:07:18Z</time>
      </trkpt>
      <trkpt lat="47.929462417960167" lon="14.397794734686613">
        <ele>288.79998779296898</ele>
        <time>2012-10-22T08:07:24Z</time>
      </trkpt>
      <trkpt lat="47.929412880912423" lon="14.397745113819838">
        <ele>289.20001220703102</ele>
        <time>2012-10-22T08:07:28Z</time>
      </trkpt>
      <trkpt lat="47.929397542029619" lon="14.397733714431524">
        <ele>289.60000610351602</ele>
        <time>2012-10-22T08:07:29Z</time>
      </trkpt>
      <trkpt lat="47.929386142641306" lon="14.39772323705256">
        <ele>290</ele>
        <time>2012-10-22T08:07:30Z</time>
      </trkpt>
      <trkpt lat="47.929370887577534" lon="14.397709826007485">
        <ele>290.39999389648398</ele>
        <time>2012-10-22T08:07:31Z</time>
      </trkpt>
      <trkpt lat="47.929359404370189" lon="14.397699348628521">
        <ele>290.79998779296898</ele>
        <time>2012-10-22T08:07:32Z</time>
      </trkpt>
      <trkpt lat="47.929340377449989" lon="14.397667916491628">
        <ele>290.79998779296898</ele>
        <time>2012-10-22T08:07:35Z</time>
      </trkpt>
      <trkpt lat="47.929244991391897" lon="14.397589713335037">
        <ele>290.79998779296898</ele>
        <time>2012-10-22T08:07:42Z</time>
      </trkpt>
      <trkpt lat="47.929195370525122" lon="14.39756297506392">
        <ele>291.20001220703102</ele>
        <time>2012-10-22T08:07:45Z</time>
      </trkpt>
      <trkpt lat="47.929180115461349" lon="14.397554425522685">
        <ele>291.60000610351602</ele>
        <time>2012-10-22T08:07:46Z</time>
      </trkpt>
      <trkpt lat="47.929164860397577" lon="14.397550569847226">
        <ele>292</ele>
        <time>2012-10-22T08:07:47Z</time>
      </trkpt>
      <trkpt lat="47.929149605333805" lon="14.397544870153069">
        <ele>292.39999389648398</ele>
        <time>2012-10-22T08:07:48Z</time>
      </trkpt>
      <trkpt lat="47.929134350270033" lon="14.397538164630532">
        <ele>293</ele>
        <time>2012-10-22T08:07:49Z</time>
      </trkpt>
      <trkpt lat="47.929050447419286" lon="14.397509582340717">
        <ele>293</ele>
        <time>2012-10-22T08:07:55Z</time>
      </trkpt>
      <trkpt lat="47.928993199020624" lon="14.397499104961753">
        <ele>293.39999389648398</ele>
        <time>2012-10-22T08:07:59Z</time>
      </trkpt>
      <trkpt lat="47.928981799632311" lon="14.397493321448565">
        <ele>293.79998779296898</ele>
        <time>2012-10-22T08:08:00Z</time>
      </trkpt>
      <trkpt lat="47.928966544568539" lon="14.397487621754408">
        <ele>294.20001220703102</ele>
        <time>2012-10-22T08:08:01Z</time>
      </trkpt>
      <trkpt lat="47.928951289504766" lon="14.39748477190733">
        <ele>294.79998779296898</ele>
        <time>2012-10-22T08:08:02Z</time>
      </trkpt>
      <trkpt lat="47.928939806297421" lon="14.397488627582788">
        <ele>295.20001220703102</ele>
        <time>2012-10-22T08:08:03Z</time>
      </trkpt>
      <trkpt lat="47.928886413574219" lon="14.397512432187796">
        <ele>295.20001220703102</ele>
        <time>2012-10-22T08:08:07Z</time>
      </trkpt>
      <trkpt lat="47.928855903446674" lon="14.397541014477611">
        <ele>295.60000610351602</ele>
        <time>2012-10-22T08:08:10Z</time>
      </trkpt>
      <trkpt lat="47.928840648382902" lon="14.397557275369763">
        <ele>296</ele>
        <time>2012-10-22T08:08:11Z</time>
      </trkpt>
      <trkpt lat="47.928829165175557" lon="14.397576302289963">
        <ele>296.39999389648398</ele>
        <time>2012-10-22T08:08:12Z</time>
      </trkpt>
      <trkpt lat="47.928810138255358" lon="14.397595413029194">
        <ele>296.79998779296898</ele>
        <time>2012-10-22T08:08:13Z</time>
      </trkpt>
      <trkpt lat="47.928794883191586" lon="14.397608740255237">
        <ele>297.20001220703102</ele>
        <time>2012-10-22T08:08:14Z</time>
      </trkpt>
      <trkpt lat="47.928722379729152" lon="14.397668838500977">
        <ele>297.20001220703102</ele>
        <time>2012-10-22T08:08:19Z</time>
      </trkpt>
      <trkpt lat="47.928714752197266" lon="14.397686943411827">
        <ele>297.60000610351602</ele>
        <time>2012-10-22T08:08:20Z</time>
      </trkpt>
      <trkpt lat="47.92870712466538" lon="14.397704126313329">
        <ele>298</ele>
        <time>2012-10-22T08:08:21Z</time>
      </trkpt>
      <trkpt lat="47.928695641458035" lon="14.39772130921483">
        <ele>298.39999389648398</ele>
        <time>2012-10-22T08:08:22Z</time>
      </trkpt>
      <trkpt lat="47.928680386394262" lon="14.397743185982108">
        <ele>298.79998779296898</ele>
        <time>2012-10-22T08:08:23Z</time>
      </trkpt>
      <trkpt lat="47.928672758862376" lon="14.397763218730688">
        <ele>299.20001220703102</ele>
        <time>2012-10-22T08:08:24Z</time>
      </trkpt>
      <trkpt lat="47.928634621202946" lon="14.397857682779431">
        <ele>299.20001220703102</ele>
        <time>2012-10-22T08:08:30Z</time>
      </trkpt>
      <trkpt lat="47.928596483543515" lon="14.397983578965068">
        <ele>299.20001220703102</ele>
        <time>2012-10-22T08:08:37Z</time>
      </trkpt>
      <trkpt lat="47.928470587357879" lon="14.398140907287598">
        <ele>299.20001220703102</ele>
        <time>2012-10-22T08:08:45Z</time>
      </trkpt>
      <trkpt lat="47.928325664252043" lon="14.398158090189099">
        <ele>299.20001220703102</ele>
        <time>2012-10-22T08:08:50Z</time>
      </trkpt>
      <trkpt lat="47.928302781656384" lon="14.398124730214477">
        <ele>299.20001220703102</ele>
        <time>2012-10-22T08:08:51Z</time>
      </trkpt>
      <trkpt lat="47.92827227152884" lon="14.398029344156384">
        <ele>299.20001220703102</ele>
        <time>2012-10-22T08:08:53Z</time>
      </trkpt>
      <trkpt lat="47.928241761401296" lon="14.397829016670585">
        <ele>299.20001220703102</ele>
        <time>2012-10-22T08:08:56Z</time>
      </trkpt>
      <trkpt lat="47.928249388933182" lon="14.397677388042212">
        <ele>299.20001220703102</ele>
        <time>2012-10-22T08:08:58Z</time>
      </trkpt>
      <trkpt lat="47.928279899060726" lon="14.397460967302322">
        <ele>299.20001220703102</ele>
        <time>2012-10-22T08:09:01Z</time>
      </trkpt>
      <trkpt lat="47.92832943610847" lon="14.397250162437558">
        <ele>299.20001220703102</ele>
        <time>2012-10-22T08:09:04Z</time>
      </trkpt>
      <trkpt lat="47.92839054018259" lon="14.396881107240915">
        <ele>298.79998779296898</ele>
        <time>2012-10-22T08:09:09Z</time>
      </trkpt>
      <trkpt lat="47.928398167714477" lon="14.396797204390168">
        <ele>298.39999389648398</ele>
        <time>2012-10-22T08:09:10Z</time>
      </trkpt>
      <trkpt lat="47.928405795246363" lon="14.396719001233578">
        <ele>298</ele>
        <time>2012-10-22T08:09:11Z</time>
      </trkpt>
      <trkpt lat="47.928405795246363" lon="14.396640798076987">
        <ele>297.60000610351602</ele>
        <time>2012-10-22T08:09:12Z</time>
      </trkpt>
      <trkpt lat="47.928401939570904" lon="14.396562594920397">
        <ele>297.20001220703102</ele>
        <time>2012-10-22T08:09:13Z</time>
      </trkpt>
      <trkpt lat="47.928371429443359" lon="14.396414738148451">
        <ele>297.20001220703102</ele>
        <time>2012-10-22T08:09:15Z</time>
      </trkpt>
      <trkpt lat="47.928321808576584" lon="14.396339384838939">
        <ele>297.20001220703102</ele>
        <time>2012-10-22T08:09:16Z</time>
      </trkpt>
      <trkpt lat="47.928108237683773" lon="14.396163951605558">
        <ele>297.20001220703102</ele>
        <time>2012-10-22T08:09:19Z</time>
      </trkpt>
      <trkpt lat="47.928043361753225" lon="14.396126735955477">
        <ele>297.20001220703102</ele>
        <time>2012-10-22T08:09:20Z</time>
      </trkpt>
      <trkpt lat="47.927928948774934" lon="14.396064793691039">
        <ele>297.20001220703102</ele>
        <time>2012-10-22T08:09:22Z</time>
      </trkpt>
      <trkpt lat="47.927726777270436" lon="14.395930264145136">
        <ele>297.20001220703102</ele>
        <time>2012-10-22T08:09:25Z</time>
      </trkpt>
      <trkpt lat="47.927665673196316" lon="14.395856838673353">
        <ele>297.20001220703102</ele>
        <time>2012-10-22T08:09:27Z</time>
      </trkpt>
      <trkpt lat="47.927604652941227" lon="14.395708059892058">
        <ele>297.20001220703102</ele>
        <time>2012-10-22T08:09:30Z</time>
      </trkpt>
      <trkpt lat="47.927539860829711" lon="14.395353337749839">
        <ele>297.20001220703102</ele>
        <time>2012-10-22T08:09:36Z</time>
      </trkpt>
      <trkpt lat="47.927474984899163" lon="14.394992832094431">
        <ele>297.20001220703102</ele>
        <time>2012-10-22T08:09:42Z</time>
      </trkpt>
      <trkpt lat="47.927429219707847" lon="14.394573234021664">
        <ele>297.20001220703102</ele>
        <time>2012-10-22T08:09:47Z</time>
      </trkpt>
      <trkpt lat="47.927425364032388" lon="14.394258493557572">
        <ele>296.79998779296898</ele>
        <time>2012-10-22T08:09:50Z</time>
      </trkpt>
      <trkpt lat="47.927425364032388" lon="14.394149780273438">
        <ele>296.39999389648398</ele>
        <time>2012-10-22T08:09:51Z</time>
      </trkpt>
      <trkpt lat="47.927421592175961" lon="14.394046766683459">
        <ele>296</ele>
        <time>2012-10-22T08:09:52Z</time>
      </trkpt>
      <trkpt lat="47.927417736500502" lon="14.393954314291477">
        <ele>295.60000610351602</ele>
        <time>2012-10-22T08:09:53Z</time>
      </trkpt>
      <trkpt lat="47.927410108968616" lon="14.393865549936891">
        <ele>294.39999389648398</ele>
        <time>2012-10-22T08:09:54Z</time>
      </trkpt>
      <trkpt lat="47.927387226372957" lon="14.393779719248414">
        <ele>293.79998779296898</ele>
        <time>2012-10-22T08:09:55Z</time>
      </trkpt>
      <trkpt lat="47.927352944388986" lon="14.393708221614361">
        <ele>293.20001220703102</ele>
        <time>2012-10-22T08:09:56Z</time>
      </trkpt>
      <trkpt lat="47.927307095378637" lon="14.393637645989656">
        <ele>292.79998779296898</ele>
        <time>2012-10-22T08:09:57Z</time>
      </trkpt>
      <trkpt lat="47.927219420671463" lon="14.393504122272134">
        <ele>292.20001220703102</ele>
        <time>2012-10-22T08:09:59Z</time>
      </trkpt>
      <trkpt lat="47.92718505486846" lon="14.393428768962622">
        <ele>291.79998779296898</ele>
        <time>2012-10-22T08:10:00Z</time>
      </trkpt>
      <trkpt lat="47.927162172272801" lon="14.39335442148149">
        <ele>291.39999389648398</ele>
        <time>2012-10-22T08:10:01Z</time>
      </trkpt>
      <trkpt lat="47.927150689065456" lon="14.393278146162629">
        <ele>291</ele>
        <time>2012-10-22T08:10:02Z</time>
      </trkpt>
      <trkpt lat="47.927139289677143" lon="14.393202792853117">
        <ele>290.60000610351602</ele>
        <time>2012-10-22T08:10:03Z</time>
      </trkpt>
      <trkpt lat="47.927146917209029" lon="14.39313598908484">
        <ele>290.60000610351602</ele>
        <time>2012-10-22T08:10:04Z</time>
      </trkpt>
      <trkpt lat="47.927169799804688" lon="14.393008248880506">
        <ele>290.60000610351602</ele>
        <time>2012-10-22T08:10:06Z</time>
      </trkpt>
      <trkpt lat="47.927181283012033" lon="14.392822254449129">
        <ele>290.60000610351602</ele>
        <time>2012-10-22T08:10:09Z</time>
      </trkpt>
      <trkpt lat="47.927207937464118" lon="14.392375918105245">
        <ele>290.60000610351602</ele>
        <time>2012-10-22T08:10:14Z</time>
      </trkpt>
      <trkpt lat="47.927230820059776" lon="14.392161341384053">
        <ele>290</ele>
        <time>2012-10-22T08:10:16Z</time>
      </trkpt>
      <trkpt lat="47.927242303267121" lon="14.392042150720954">
        <ele>289.60000610351602</ele>
        <time>2012-10-22T08:10:17Z</time>
      </trkpt>
      <trkpt lat="47.927257558330894" lon="14.391919104382396">
        <ele>288.79998779296898</ele>
        <time>2012-10-22T08:10:18Z</time>
      </trkpt>
      <trkpt lat="47.927268957719207" lon="14.391791364178061">
        <ele>288.39999389648398</ele>
        <time>2012-10-22T08:10:19Z</time>
      </trkpt>
      <trkpt lat="47.927276585251093" lon="14.391655912622809">
        <ele>287.79998779296898</ele>
        <time>2012-10-22T08:10:20Z</time>
      </trkpt>
      <trkpt lat="47.927284212782979" lon="14.391527166590095">
        <ele>287.39999389648398</ele>
        <time>2012-10-22T08:10:21Z</time>
      </trkpt>
      <trkpt lat="47.927291840314865" lon="14.391400348395109">
        <ele>287</ele>
        <time>2012-10-22T08:10:22Z</time>
      </trkpt>
      <trkpt lat="47.927299467846751" lon="14.391275374218822">
        <ele>286.39999389648398</ele>
        <time>2012-10-22T08:10:23Z</time>
      </trkpt>
      <trkpt lat="47.927310951054096" lon="14.391153333708644">
        <ele>286</ele>
        <time>2012-10-22T08:10:24Z</time>
      </trkpt>
      <trkpt lat="47.9273453168571" lon="14.390715630725026">
        <ele>286</ele>
        <time>2012-10-22T08:10:28Z</time>
      </trkpt>
      <trkpt lat="47.927368199452758" lon="14.390176758170128">
        <ele>286</ele>
        <time>2012-10-22T08:10:34Z</time>
      </trkpt>
      <trkpt lat="47.927318578585982" lon="14.38962078653276">
        <ele>286</ele>
        <time>2012-10-22T08:10:40Z</time>
      </trkpt>
      <trkpt lat="47.927307095378637" lon="14.389418615028262">
        <ele>285.60000610351602</ele>
        <time>2012-10-22T08:10:42Z</time>
      </trkpt>
      <trkpt lat="47.92730332352221" lon="14.38930319622159">
        <ele>284.60000610351602</ele>
        <time>2012-10-22T08:10:43Z</time>
      </trkpt>
      <trkpt lat="47.927299467846751" lon="14.389190711081028">
        <ele>284.20001220703102</ele>
        <time>2012-10-22T08:10:44Z</time>
      </trkpt>
      <trkpt lat="47.927299467846751" lon="14.389079064130783">
        <ele>283.79998779296898</ele>
        <time>2012-10-22T08:10:45Z</time>
      </trkpt>
      <trkpt lat="47.927314722910523" lon="14.388558380305767">
        <ele>283.79998779296898</ele>
        <time>2012-10-22T08:10:50Z</time>
      </trkpt>
      <trkpt lat="47.92732235044241" lon="14.388451594859362">
        <ele>283.39999389648398</ele>
        <time>2012-10-22T08:10:51Z</time>
      </trkpt>
      <trkpt lat="47.927329977974296" lon="14.388353358954191">
        <ele>282.79998779296898</ele>
        <time>2012-10-22T08:10:52Z</time>
      </trkpt>
      <trkpt lat="47.927341461181641" lon="14.38825604505837">
        <ele>282.39999389648398</ele>
        <time>2012-10-22T08:10:53Z</time>
      </trkpt>
      <trkpt lat="47.927352944388986" lon="14.38815881498158">
        <ele>282</ele>
        <time>2012-10-22T08:10:54Z</time>
      </trkpt>
      <trkpt lat="47.927360571920872" lon="14.388061501085758">
        <ele>281.60000610351602</ele>
        <time>2012-10-22T08:10:55Z</time>
      </trkpt>
      <trkpt lat="47.927375826984644" lon="14.387860335409641">
        <ele>281.60000610351602</ele>
        <time>2012-10-22T08:10:57Z</time>
      </trkpt>
      <trkpt lat="47.927394853904843" lon="14.387238482013345">
        <ele>281.20001220703102</ele>
        <time>2012-10-22T08:11:03Z</time>
      </trkpt>
      <trkpt lat="47.927394853904843" lon="14.387134546414018">
        <ele>280.79998779296898</ele>
        <time>2012-10-22T08:11:04Z</time>
      </trkpt>
      <trkpt lat="47.927398709580302" lon="14.387029688805342">
        <ele>280.39999389648398</ele>
        <time>2012-10-22T08:11:05Z</time>
      </trkpt>
      <trkpt lat="47.927402481436729" lon="14.386924747377634">
        <ele>280</ele>
        <time>2012-10-22T08:11:06Z</time>
      </trkpt>
      <trkpt lat="47.927406337112188" lon="14.386811256408691">
        <ele>279.60000610351602</ele>
        <time>2012-10-22T08:11:07Z</time>
      </trkpt>
      <trkpt lat="47.927429219707847" lon="14.386583352461457">
        <ele>279.20001220703102</ele>
        <time>2012-10-22T08:11:09Z</time>
      </trkpt>
      <trkpt lat="47.927444474771619" lon="14.38645938411355">
        <ele>278.79998779296898</ele>
        <time>2012-10-22T08:11:10Z</time>
      </trkpt>
      <trkpt lat="47.927459729835391" lon="14.386331560090184">
        <ele>278.39999389648398</ele>
        <time>2012-10-22T08:11:11Z</time>
      </trkpt>
      <trkpt lat="47.92747875675559" lon="14.386198036372662">
        <ele>278</ele>
        <time>2012-10-22T08:11:12Z</time>
      </trkpt>
      <trkpt lat="47.927494011819363" lon="14.38606258481741">
        <ele>277.39999389648398</ele>
        <time>2012-10-22T08:11:13Z</time>
      </trkpt>
      <trkpt lat="47.927513122558594" lon="14.38592528924346">
        <ele>276.79998779296898</ele>
        <time>2012-10-22T08:11:14Z</time>
      </trkpt>
      <trkpt lat="47.927532233297825" lon="14.385794615373015">
        <ele>276.20001220703102</ele>
        <time>2012-10-22T08:11:15Z</time>
      </trkpt>
      <trkpt lat="47.927547488361597" lon="14.385665869340301">
        <ele>275.39999389648398</ele>
        <time>2012-10-22T08:11:16Z</time>
      </trkpt>
      <trkpt lat="47.927566515281796" lon="14.385534273460507">
        <ele>274.79998779296898</ele>
        <time>2012-10-22T08:11:17Z</time>
      </trkpt>
      <trkpt lat="47.927589397877455" lon="14.385404605418444">
        <ele>274</ele>
        <time>2012-10-22T08:11:18Z</time>
      </trkpt>
      <trkpt lat="47.927619908004999" lon="14.385279631242156">
        <ele>273.20001220703102</ele>
        <time>2012-10-22T08:11:19Z</time>
      </trkpt>
      <trkpt lat="47.927661901339889" lon="14.385170917958021">
        <ele>272.60000610351602</ele>
        <time>2012-10-22T08:11:20Z</time>
      </trkpt>
      <trkpt lat="47.927707666531205" lon="14.385077459737659">
        <ele>271.79998779296898</ele>
        <time>2012-10-22T08:11:21Z</time>
      </trkpt>
      <trkpt lat="47.927757287397981" lon="14.384997328743339">
        <ele>271</ele>
        <time>2012-10-22T08:11:22Z</time>
      </trkpt>
      <trkpt lat="47.927795425057411" lon="14.384912503883243">
        <ele>270.20001220703102</ele>
        <time>2012-10-22T08:11:23Z</time>
      </trkpt>
      <trkpt lat="47.927825935184956" lon="14.384820973500609">
        <ele>269.39999389648398</ele>
        <time>2012-10-22T08:11:24Z</time>
      </trkpt>
      <trkpt lat="47.927848817780614" lon="14.384722737595439">
        <ele>268.60000610351602</ele>
        <time>2012-10-22T08:11:25Z</time>
      </trkpt>
      <trkpt lat="47.927860300987959" lon="14.38462165184319">
        <ele>267.79998779296898</ele>
        <time>2012-10-22T08:11:26Z</time>
      </trkpt>
      <trkpt lat="47.927864072844386" lon="14.384517632424831">
        <ele>267.39999389648398</ele>
        <time>2012-10-22T08:11:27Z</time>
      </trkpt>
      <trkpt lat="47.927860300987959" lon="14.384414702653885">
        <ele>267</ele>
        <time>2012-10-22T08:11:28Z</time>
      </trkpt>
      <trkpt lat="47.927844962105155" lon="14.384307833388448">
        <ele>266.39999389648398</ele>
        <time>2012-10-22T08:11:29Z</time>
      </trkpt>
      <trkpt lat="47.927829707041383" lon="14.384199120104313">
        <ele>266</ele>
        <time>2012-10-22T08:11:30Z</time>
      </trkpt>
      <trkpt lat="47.927814451977611" lon="14.3840875569731">
        <ele>265.60000610351602</ele>
        <time>2012-10-22T08:11:31Z</time>
      </trkpt>
      <trkpt lat="47.927768686786294" lon="14.383559245616198">
        <ele>265.60000610351602</ele>
        <time>2012-10-22T08:11:36Z</time>
      </trkpt>
      <trkpt lat="47.927745804190636" lon="14.38329890370369">
        <ele>265.60000610351602</ele>
        <time>2012-10-22T08:11:39Z</time>
      </trkpt>
      <trkpt lat="47.92771914973855" lon="14.383155824616551">
        <ele>265.60000610351602</ele>
        <time>2012-10-22T08:11:41Z</time>
      </trkpt>
      <trkpt lat="47.92763901874423" lon="14.382756259292364">
        <ele>265.60000610351602</ele>
        <time>2012-10-22T08:11:47Z</time>
      </trkpt>
      <trkpt lat="47.9276008810848" lon="14.382267007604241">
        <ele>265.60000610351602</ele>
        <time>2012-10-22T08:11:54Z</time>
      </trkpt>
      <trkpt lat="47.927581770345569" lon="14.382001888006926">
        <ele>265.60000610351602</ele>
        <time>2012-10-22T08:11:57Z</time>
      </trkpt>
      <trkpt lat="47.927547488361597" lon="14.381815893575549">
        <ele>265.60000610351602</ele>
        <time>2012-10-22T08:11:59Z</time>
      </trkpt>
      <trkpt lat="47.927432991564274" lon="14.381326641887426">
        <ele>265.60000610351602</ele>
        <time>2012-10-22T08:12:05Z</time>
      </trkpt>
      <trkpt lat="47.927352944388986" lon="14.381074933335185">
        <ele>265.60000610351602</ele>
        <time>2012-10-22T08:12:10Z</time>
      </trkpt>
      <trkpt lat="47.927295695990324" lon="14.380861278623343">
        <ele>266</ele>
        <time>2012-10-22T08:12:16Z</time>
      </trkpt>
      <trkpt lat="47.927284212782979" lon="14.380832696333528">
        <ele>266.39999389648398</ele>
        <time>2012-10-22T08:12:17Z</time>
      </trkpt>
      <trkpt lat="47.927272813394666" lon="14.380800258368254">
        <ele>266.79998779296898</ele>
        <time>2012-10-22T08:12:18Z</time>
      </trkpt>
      <trkpt lat="47.927261330187321" lon="14.380771676078439">
        <ele>267.20001220703102</ele>
        <time>2012-10-22T08:12:19Z</time>
      </trkpt>
      <trkpt lat="47.927253702655435" lon="14.380743009969592">
        <ele>267.60000610351602</ele>
        <time>2012-10-22T08:12:20Z</time>
      </trkpt>
      <trkpt lat="47.927230820059776" lon="14.380646701902151">
        <ele>268</ele>
        <time>2012-10-22T08:12:23Z</time>
      </trkpt>
      <trkpt lat="47.927219420671463" lon="14.38061049208045">
        <ele>268.39999389648398</ele>
        <time>2012-10-22T08:12:24Z</time>
      </trkpt>
      <trkpt lat="47.927219420671463" lon="14.380574198439717">
        <ele>268.79998779296898</ele>
        <time>2012-10-22T08:12:25Z</time>
      </trkpt>
      <trkpt lat="47.927215564996004" lon="14.380543688312173">
        <ele>269.20001220703102</ele>
        <time>2012-10-22T08:12:26Z</time>
      </trkpt>
      <trkpt lat="47.927215564996004" lon="14.38051225617528">
        <ele>269.60000610351602</ele>
        <time>2012-10-22T08:12:27Z</time>
      </trkpt>
      <trkpt lat="47.92718505486846" lon="14.380419719964266">
        <ele>269.60000610351602</ele>
        <time>2012-10-22T08:12:30Z</time>
      </trkpt>
      <trkpt lat="47.927146917209029" lon="14.380304301157594">
        <ele>270</ele>
        <time>2012-10-22T08:12:34Z</time>
      </trkpt>
      <trkpt lat="47.927139289677143" lon="14.380287202075124">
        <ele>270.60000610351602</ele>
        <time>2012-10-22T08:12:35Z</time>
      </trkpt>
      <trkpt lat="47.927131662145257" lon="14.380270019173622">
        <ele>271</ele>
        <time>2012-10-22T08:12:36Z</time>
      </trkpt>
      <trkpt lat="47.927127806469798" lon="14.38025283627212">
        <ele>271.39999389648398</ele>
        <time>2012-10-22T08:12:37Z</time>
      </trkpt>
      <trkpt lat="47.927127806469798" lon="14.380235653370619">
        <ele>271.79998779296898</ele>
        <time>2012-10-22T08:12:38Z</time>
      </trkpt>
      <trkpt lat="47.927124034613371" lon="14.380199443548918">
        <ele>271.79998779296898</ele>
        <time>2012-10-22T08:12:40Z</time>
      </trkpt>
      <trkpt lat="47.92710492387414" lon="14.380129789933562">
        <ele>271.79998779296898</ele>
        <time>2012-10-22T08:12:44Z</time>
      </trkpt>
      <trkpt lat="47.927101152017713" lon="14.380108835175633">
        <ele>272.20001220703102</ele>
        <time>2012-10-22T08:12:45Z</time>
      </trkpt>
      <trkpt lat="47.927101152017713" lon="14.380087880417705">
        <ele>272.60000610351602</ele>
        <time>2012-10-22T08:12:46Z</time>
      </trkpt>
      <trkpt lat="47.927097296342254" lon="14.380066841840744">
        <ele>273.39999389648398</ele>
        <time>2012-10-22T08:12:47Z</time>
      </trkpt>
      <trkpt lat="47.927089668810368" lon="14.380043959245086">
        <ele>273.79998779296898</ele>
        <time>2012-10-22T08:12:48Z</time>
      </trkpt>
      <trkpt lat="47.927078269422054" lon="14.379978161305189">
        <ele>273.79998779296898</ele>
        <time>2012-10-22T08:12:51Z</time>
      </trkpt>
      <trkpt lat="47.927013393491507" lon="14.379770290106535">
        <ele>273.79998779296898</ele>
        <time>2012-10-22T08:12:59Z</time>
      </trkpt>
      <trkpt lat="47.926979027688503" lon="14.379609106108546">
        <ele>273.79998779296898</ele>
        <time>2012-10-22T08:13:04Z</time>
      </trkpt>
      <trkpt lat="47.926921863108873" lon="14.379400229081511">
        <ele>273.79998779296898</ele>
        <time>2012-10-22T08:13:09Z</time>
      </trkpt>
      <trkpt lat="47.926837960258126" lon="14.379080794751644">
        <ele>273.79998779296898</ele>
        <time>2012-10-22T08:13:14Z</time>
      </trkpt>
      <trkpt lat="47.926738718524575" lon="14.378611575812101">
        <ele>273.79998779296898</ele>
        <time>2012-10-22T08:13:19Z</time>
      </trkpt>
      <trkpt lat="47.926692953333259" lon="14.378413176164031">
        <ele>273.39999389648398</ele>
        <time>2012-10-22T08:13:21Z</time>
      </trkpt>
      <trkpt lat="47.926673926413059" lon="14.378318795934319">
        <ele>273</ele>
        <time>2012-10-22T08:13:22Z</time>
      </trkpt>
      <trkpt lat="47.926662443205714" lon="14.378213854506612">
        <ele>272.60000610351602</ele>
        <time>2012-10-22T08:13:23Z</time>
      </trkpt>
      <trkpt lat="47.926650959998369" lon="14.378107991069555">
        <ele>272.20001220703102</ele>
        <time>2012-10-22T08:13:24Z</time>
      </trkpt>
      <trkpt lat="47.92663193307817" lon="14.378000283613801">
        <ele>271.79998779296898</ele>
        <time>2012-10-22T08:13:25Z</time>
      </trkpt>
      <trkpt lat="47.926567057147622" lon="14.377447161823511">
        <ele>271.39999389648398</ele>
        <time>2012-10-22T08:13:30Z</time>
      </trkpt>
      <trkpt lat="47.926555657759309" lon="14.377334592863917">
        <ele>271</ele>
        <time>2012-10-22T08:13:31Z</time>
      </trkpt>
      <trkpt lat="47.92655180208385" lon="14.377221101894975">
        <ele>270.60000610351602</ele>
        <time>2012-10-22T08:13:32Z</time>
      </trkpt>
      <trkpt lat="47.92655180208385" lon="14.377108532935381">
        <ele>270.20001220703102</ele>
        <time>2012-10-22T08:13:33Z</time>
      </trkpt>
      <trkpt lat="47.926548030227423" lon="14.376990348100662">
        <ele>269.79998779296898</ele>
        <time>2012-10-22T08:13:34Z</time>
      </trkpt>
      <trkpt lat="47.926555657759309" lon="14.376527750864625">
        <ele>269.39999389648398</ele>
        <time>2012-10-22T08:13:38Z</time>
      </trkpt>
      <trkpt lat="47.926559429615736" lon="14.376412415876985">
        <ele>269</ele>
        <time>2012-10-22T08:13:39Z</time>
      </trkpt>
      <trkpt lat="47.926563285291195" lon="14.376297919079661">
        <ele>268.60000610351602</ele>
        <time>2012-10-22T08:13:40Z</time>
      </trkpt>
      <trkpt lat="47.926570912823081" lon="14.376177806407213">
        <ele>268</ele>
        <time>2012-10-22T08:13:41Z</time>
      </trkpt>
      <trkpt lat="47.926578540354967" lon="14.376061465591192">
        <ele>267.60000610351602</ele>
        <time>2012-10-22T08:13:42Z</time>
      </trkpt>
      <trkpt lat="47.926647188141942" lon="14.375364342704415">
        <ele>267.20001220703102</ele>
        <time>2012-10-22T08:13:48Z</time>
      </trkpt>
      <trkpt lat="47.926662443205714" lon="14.375236518681049">
        <ele>266.79998779296898</ele>
        <time>2012-10-22T08:13:49Z</time>
      </trkpt>
      <trkpt lat="47.926681553944945" lon="14.375108694657683">
        <ele>266.39999389648398</ele>
        <time>2012-10-22T08:13:50Z</time>
      </trkpt>
      <trkpt lat="47.926696809008718" lon="14.374982798472047">
        <ele>265.79998779296898</ele>
        <time>2012-10-22T08:13:51Z</time>
      </trkpt>
      <trkpt lat="47.926715835928917" lon="14.374857908114791">
        <ele>265.39999389648398</ele>
        <time>2012-10-22T08:13:52Z</time>
      </trkpt>
      <trkpt lat="47.926731090992689" lon="14.374737711623311">
        <ele>265</ele>
        <time>2012-10-22T08:13:53Z</time>
      </trkpt>
      <trkpt lat="47.926742574200034" lon="14.374619442969561">
        <ele>264.60000610351602</ele>
        <time>2012-10-22T08:13:54Z</time>
      </trkpt>
      <trkpt lat="47.92675020173192" lon="14.374507879838347">
        <ele>264</ele>
        <time>2012-10-22T08:13:55Z</time>
      </trkpt>
      <trkpt lat="47.926757829263806" lon="14.374401094391942">
        <ele>263.60000610351602</ele>
        <time>2012-10-22T08:13:56Z</time>
      </trkpt>
      <trkpt lat="47.92676922865212" lon="14.374292381107807">
        <ele>263.20001220703102</ele>
        <time>2012-10-22T08:13:57Z</time>
      </trkpt>
      <trkpt lat="47.926841732114553" lon="14.373709671199322">
        <ele>263.20001220703102</ele>
        <time>2012-10-22T08:14:03Z</time>
      </trkpt>
      <trkpt lat="47.92688749730587" lon="14.373056385666132">
        <ele>263.20001220703102</ele>
        <time>2012-10-22T08:14:10Z</time>
      </trkpt>
      <trkpt lat="47.926940890029073" lon="14.372359262779355">
        <ele>263.20001220703102</ele>
        <time>2012-10-22T08:14:18Z</time>
      </trkpt>
      <trkpt lat="47.926929490640759" lon="14.372118953615427">
        <ele>263.20001220703102</ele>
        <time>2012-10-22T08:14:21Z</time>
      </trkpt>
      <trkpt lat="47.926906608045101" lon="14.371985429897904">
        <ele>263.20001220703102</ele>
        <time>2012-10-22T08:14:23Z</time>
      </trkpt>
      <trkpt lat="47.926841732114553" lon="14.371752748265862">
        <ele>263.20001220703102</ele>
        <time>2012-10-22T08:14:28Z</time>
      </trkpt>
      <trkpt lat="47.926792111247778" lon="14.371516210958362">
        <ele>263.60000610351602</ele>
        <time>2012-10-22T08:14:34Z</time>
      </trkpt>
      <trkpt lat="47.926784483715892" lon="14.371480001136661">
        <ele>264</ele>
        <time>2012-10-22T08:14:35Z</time>
      </trkpt>
      <trkpt lat="47.926776856184006" lon="14.371439013630152">
        <ele>264.39999389648398</ele>
        <time>2012-10-22T08:14:36Z</time>
      </trkpt>
      <trkpt lat="47.926773084327579" lon="14.371397942304611">
        <ele>264.79998779296898</ele>
        <time>2012-10-22T08:14:37Z</time>
      </trkpt>
      <trkpt lat="47.92676922865212" lon="14.37136173248291">
        <ele>265.20001220703102</ele>
        <time>2012-10-22T08:14:38Z</time>
      </trkpt>
      <trkpt lat="47.926780711859465" lon="14.371258718892932">
        <ele>265.20001220703102</ele>
        <time>2012-10-22T08:14:41Z</time>
      </trkpt>
      <trkpt lat="47.926792111247778" lon="14.371192920953035">
        <ele>265.60000610351602</ele>
        <time>2012-10-22T08:14:43Z</time>
      </trkpt>
      <trkpt lat="47.926803594455123" lon="14.371159560978413">
        <ele>266</ele>
        <time>2012-10-22T08:14:44Z</time>
      </trkpt>
      <trkpt lat="47.926814993843436" lon="14.371127123013139">
        <ele>266.39999389648398</ele>
        <time>2012-10-22T08:14:45Z</time>
      </trkpt>
      <trkpt lat="47.92683033272624" lon="14.371088985353708">
        <ele>266.79998779296898</ele>
        <time>2012-10-22T08:14:46Z</time>
      </trkpt>
      <trkpt lat="47.926845587790012" lon="14.371053697541356">
        <ele>267.20001220703102</ele>
        <time>2012-10-22T08:14:47Z</time>
      </trkpt>
      <trkpt lat="47.926860842853785" lon="14.371024109423161">
        <ele>267.20001220703102</ele>
        <time>2012-10-22T08:14:48Z</time>
      </trkpt>
      <trkpt lat="47.926898980513215" lon="14.370931657031178">
        <ele>267.79998779296898</ele>
        <time>2012-10-22T08:14:51Z</time>
      </trkpt>
      <trkpt lat="47.926910379901528" lon="14.370894441381097">
        <ele>268.20001220703102</ele>
        <time>2012-10-22T08:14:52Z</time>
      </trkpt>
      <trkpt lat="47.926918007433414" lon="14.370854375883937">
        <ele>268.60000610351602</ele>
        <time>2012-10-22T08:14:53Z</time>
      </trkpt>
      <trkpt lat="47.926925634965301" lon="14.370819088071585">
        <ele>269</ele>
        <time>2012-10-22T08:14:54Z</time>
      </trkpt>
      <trkpt lat="47.926933262497187" lon="14.370785728096962">
        <ele>269.60000610351602</ele>
        <time>2012-10-22T08:14:55Z</time>
      </trkpt>
      <trkpt lat="47.926940890029073" lon="14.370754212141037">
        <ele>269.60000610351602</ele>
        <time>2012-10-22T08:14:56Z</time>
      </trkpt>
      <trkpt lat="47.926940890029073" lon="14.370461432263255">
        <ele>269.60000610351602</ele>
        <time>2012-10-22T08:15:03Z</time>
      </trkpt>
      <trkpt lat="47.926952373236418" lon="14.37033561989665">
        <ele>270</ele>
        <time>2012-10-22T08:15:06Z</time>
      </trkpt>
      <trkpt lat="47.926952373236418" lon="14.370288848876953">
        <ele>270.39999389648398</ele>
        <time>2012-10-22T08:15:07Z</time>
      </trkpt>
      <trkpt lat="47.926952373236418" lon="14.370242077857256">
        <ele>270.79998779296898</ele>
        <time>2012-10-22T08:15:08Z</time>
      </trkpt>
      <trkpt lat="47.926956145092845" lon="14.370192540809512">
        <ele>271.20001220703102</ele>
        <time>2012-10-22T08:15:09Z</time>
      </trkpt>
      <trkpt lat="47.926956145092845" lon="14.370144847780466">
        <ele>271.60000610351602</ele>
        <time>2012-10-22T08:15:10Z</time>
      </trkpt>
      <trkpt lat="47.926990510895848" lon="14.369769087061286">
        <ele>271.60000610351602</ele>
        <time>2012-10-22T08:15:18Z</time>
      </trkpt>
      <trkpt lat="47.927043903619051" lon="14.369448646903038">
        <ele>271.60000610351602</ele>
        <time>2012-10-22T08:15:25Z</time>
      </trkpt>
      <trkpt lat="47.92710492387414" lon="14.36897087842226">
        <ele>271.60000610351602</ele>
        <time>2012-10-22T08:15:35Z</time>
      </trkpt>
      <trkpt lat="47.92714306153357" lon="14.368590340018272">
        <ele>271.60000610351602</ele>
        <time>2012-10-22T08:15:43Z</time>
      </trkpt>
      <trkpt lat="47.927188910543919" lon="14.368255650624633">
        <ele>272</ele>
        <time>2012-10-22T08:15:50Z</time>
      </trkpt>
      <trkpt lat="47.927196538075805" lon="14.368209801614285">
        <ele>272.39999389648398</ele>
        <time>2012-10-22T08:15:51Z</time>
      </trkpt>
      <trkpt lat="47.927204165607691" lon="14.368164036422968">
        <ele>272.79998779296898</ele>
        <time>2012-10-22T08:15:52Z</time>
      </trkpt>
      <trkpt lat="47.927211793139577" lon="14.368116343393922">
        <ele>273.20001220703102</ele>
        <time>2012-10-22T08:15:53Z</time>
      </trkpt>
      <trkpt lat="47.927219420671463" lon="14.368066806346178">
        <ele>273.60000610351602</ele>
        <time>2012-10-22T08:15:54Z</time>
      </trkpt>
      <trkpt lat="47.927246075123549" lon="14.367741588503122">
        <ele>273.60000610351602</ele>
        <time>2012-10-22T08:16:00Z</time>
      </trkpt>
      <trkpt lat="47.927261330187321" lon="14.367291480302811">
        <ele>273.60000610351602</ele>
        <time>2012-10-22T08:16:08Z</time>
      </trkpt>
      <trkpt lat="47.927280440926552" lon="14.366858471184969">
        <ele>273.60000610351602</ele>
        <time>2012-10-22T08:16:15Z</time>
      </trkpt>
      <trkpt lat="47.92726518586278" lon="14.366370225325227">
        <ele>273.60000610351602</ele>
        <time>2012-10-22T08:16:23Z</time>
      </trkpt>
      <trkpt lat="47.927253702655435" lon="14.365905784070492">
        <ele>274</ele>
        <time>2012-10-22T08:16:31Z</time>
      </trkpt>
      <trkpt lat="47.927253702655435" lon="14.365849457681179">
        <ele>274.39999389648398</ele>
        <time>2012-10-22T08:16:32Z</time>
      </trkpt>
      <trkpt lat="47.927257558330894" lon="14.365794220939279">
        <ele>274.79998779296898</ele>
        <time>2012-10-22T08:16:33Z</time>
      </trkpt>
      <trkpt lat="47.927261330187321" lon="14.365736972540617">
        <ele>275.20001220703102</ele>
        <time>2012-10-22T08:16:34Z</time>
      </trkpt>
      <trkpt lat="47.927272813394666" lon="14.365682573989034">
        <ele>275.60000610351602</ele>
        <time>2012-10-22T08:16:35Z</time>
      </trkpt>
      <trkpt lat="47.927310951054096" lon="14.36541460454464">
        <ele>275.60000610351602</ele>
        <time>2012-10-22T08:16:40Z</time>
      </trkpt>
      <trkpt lat="47.927364343777299" lon="14.364757547155023">
        <ele>275.60000610351602</ele>
        <time>2012-10-22T08:16:51Z</time>
      </trkpt>
      <trkpt lat="47.927398709580302" lon="14.364471472799778">
        <ele>275.60000610351602</ele>
        <time>2012-10-22T08:16:55Z</time>
      </trkpt>
      <trkpt lat="47.927425364032388" lon="14.364337949082255">
        <ele>275.60000610351602</ele>
        <time>2012-10-22T08:16:57Z</time>
      </trkpt>
      <trkpt lat="47.927536005154252" lon="14.364068973809481">
        <ele>275.60000610351602</ele>
        <time>2012-10-22T08:17:02Z</time>
      </trkpt>
      <trkpt lat="47.927722921594977" lon="14.363616015762091">
        <ele>275.60000610351602</ele>
        <time>2012-10-22T08:17:10Z</time>
      </trkpt>
      <trkpt lat="47.927925093099475" lon="14.363084770739079">
        <ele>275.60000610351602</ele>
        <time>2012-10-22T08:17:18Z</time>
      </trkpt>
      <trkpt lat="47.928142519667745" lon="14.362456295639277">
        <ele>275.60000610351602</ele>
        <time>2012-10-22T08:17:27Z</time>
      </trkpt>
      <trkpt lat="47.928298925980926" lon="14.361927984282374">
        <ele>275.60000610351602</ele>
        <time>2012-10-22T08:17:34Z</time>
      </trkpt>
      <trkpt lat="47.928455332294106" lon="14.361321469768882">
        <ele>275.20001220703102</ele>
        <time>2012-10-22T08:17:42Z</time>
      </trkpt>
      <trkpt lat="47.928474443033338" lon="14.361245194450021">
        <ele>274.79998779296898</ele>
        <time>2012-10-22T08:17:43Z</time>
      </trkpt>
      <trkpt lat="47.928493469953537" lon="14.361163135617971">
        <ele>274</ele>
        <time>2012-10-22T08:17:44Z</time>
      </trkpt>
      <trkpt lat="47.928508725017309" lon="14.361083004623652">
        <ele>273.60000610351602</ele>
        <time>2012-10-22T08:17:45Z</time>
      </trkpt>
      <trkpt lat="47.928630849346519" lon="14.360514627769589">
        <ele>273.60000610351602</ele>
        <time>2012-10-22T08:17:52Z</time>
      </trkpt>
      <trkpt lat="47.928638476878405" lon="14.360427875071764">
        <ele>273.60000610351602</ele>
        <time>2012-10-22T08:17:53Z</time>
      </trkpt>
      <trkpt lat="47.928710896521807" lon="14.359770733863115">
        <ele>273.60000610351602</ele>
        <time>2012-10-22T08:18:01Z</time>
      </trkpt>
      <trkpt lat="47.928756745532155" lon="14.359312076121569">
        <ele>273.60000610351602</ele>
        <time>2012-10-22T08:18:08Z</time>
      </trkpt>
      <trkpt lat="47.928787255659699" lon="14.358780831098557">
        <ele>273.60000610351602</ele>
        <time>2012-10-22T08:18:16Z</time>
      </trkpt>
      <trkpt lat="47.928836792707443" lon="14.358273474499583">
        <ele>273.60000610351602</ele>
        <time>2012-10-22T08:18:23Z</time>
      </trkpt>
      <trkpt lat="47.92886353097856" lon="14.358130479231477">
        <ele>273.60000610351602</ele>
        <time>2012-10-22T08:18:25Z</time>
      </trkpt>
      <trkpt lat="47.928936034440994" lon="14.357828143984079">
        <ele>273.60000610351602</ele>
        <time>2012-10-22T08:18:29Z</time>
      </trkpt>
      <trkpt lat="47.929016081616282" lon="14.357449533417821">
        <ele>272.60000610351602</ele>
        <time>2012-10-22T08:18:33Z</time>
      </trkpt>
      <trkpt lat="47.929038964211941" lon="14.357342747971416">
        <ele>272.20001220703102</ele>
        <time>2012-10-22T08:18:34Z</time>
      </trkpt>
      <trkpt lat="47.929061930626631" lon="14.357238728553057">
        <ele>271.79998779296898</ele>
        <time>2012-10-22T08:18:35Z</time>
      </trkpt>
      <trkpt lat="47.929084813222289" lon="14.357141498476267">
        <ele>271.39999389648398</ele>
        <time>2012-10-22T08:18:36Z</time>
      </trkpt>
      <trkpt lat="47.929107695817947" lon="14.357049968093634">
        <ele>271</ele>
        <time>2012-10-22T08:18:37Z</time>
      </trkpt>
      <trkpt lat="47.929130578413606" lon="14.356961287558079">
        <ele>270.39999389648398</ele>
        <time>2012-10-22T08:18:38Z</time>
      </trkpt>
      <trkpt lat="47.929153461009264" lon="14.356876378878951">
        <ele>270</ele>
        <time>2012-10-22T08:18:39Z</time>
      </trkpt>
      <trkpt lat="47.929168716073036" lon="14.356795325875282">
        <ele>269.39999389648398</ele>
        <time>2012-10-22T08:18:40Z</time>
      </trkpt>
      <trkpt lat="47.929164860397577" lon="14.356708489358425">
        <ele>269</ele>
        <time>2012-10-22T08:18:41Z</time>
      </trkpt>
      <trkpt lat="47.929145833477378" lon="14.35661980882287">
        <ele>268.60000610351602</ele>
        <time>2012-10-22T08:18:42Z</time>
      </trkpt>
      <trkpt lat="47.92912295088172" lon="14.356532134115696">
        <ele>268.20001220703102</ele>
        <time>2012-10-22T08:18:43Z</time>
      </trkpt>
      <trkpt lat="47.929092440754175" lon="14.356441525742412">
        <ele>267.79998779296898</ele>
        <time>2012-10-22T08:18:44Z</time>
      </trkpt>
      <trkpt lat="47.929065702483058" lon="14.356349911540747">
        <ele>267.39999389648398</ele>
        <time>2012-10-22T08:18:45Z</time>
      </trkpt>
      <trkpt lat="47.929035192355514" lon="14.3562469817698">
        <ele>267</ele>
        <time>2012-10-22T08:18:46Z</time>
      </trkpt>
      <trkpt lat="47.929008454084396" lon="14.356141118332744">
        <ele>266.60000610351602</ele>
        <time>2012-10-22T08:18:47Z</time>
      </trkpt>
      <trkpt lat="47.928977943956852" lon="14.35602854937315">
        <ele>266</ele>
        <time>2012-10-22T08:18:48Z</time>
      </trkpt>
      <trkpt lat="47.928951289504766" lon="14.355910280719399">
        <ele>265.60000610351602</ele>
        <time>2012-10-22T08:18:49Z</time>
      </trkpt>
      <trkpt lat="47.928920779377222" lon="14.355792012065649">
        <ele>265.20001220703102</ele>
        <time>2012-10-22T08:18:50Z</time>
      </trkpt>
      <trkpt lat="47.928890269249678" lon="14.355676677078009">
        <ele>264.60000610351602</ele>
        <time>2012-10-22T08:18:51Z</time>
      </trkpt>
      <trkpt lat="47.928859675303102" lon="14.355564108118415">
        <ele>264.20001220703102</ele>
        <time>2012-10-22T08:18:52Z</time>
      </trkpt>
      <trkpt lat="47.928833020851016" lon="14.35545539483428">
        <ele>263.60000610351602</ele>
        <time>2012-10-22T08:18:53Z</time>
      </trkpt>
      <trkpt lat="47.928806282579899" lon="14.355345759540796">
        <ele>263</ele>
        <time>2012-10-22T08:18:54Z</time>
      </trkpt>
      <trkpt lat="47.928794883191586" lon="14.355246517807245">
        <ele>262.39999389648398</ele>
        <time>2012-10-22T08:18:55Z</time>
      </trkpt>
      <trkpt lat="47.928794883191586" lon="14.355149287730455">
        <ele>262</ele>
        <time>2012-10-22T08:18:56Z</time>
      </trkpt>
      <trkpt lat="47.928798655048013" lon="14.355054823681712">
        <ele>261.60000610351602</ele>
        <time>2012-10-22T08:18:57Z</time>
      </trkpt>
      <trkpt lat="47.928806282579899" lon="14.354964215308428">
        <ele>260.79998779296898</ele>
        <time>2012-10-22T08:18:58Z</time>
      </trkpt>
      <trkpt lat="47.928813910111785" lon="14.354877462610602">
        <ele>260.39999389648398</ele>
        <time>2012-10-22T08:18:59Z</time>
      </trkpt>
      <trkpt lat="47.928840648382902" lon="14.354740167036653">
        <ele>260.39999389648398</ele>
        <time>2012-10-22T08:19:01Z</time>
      </trkpt>
      <trkpt lat="47.928874930366874" lon="14.35468484647572">
        <ele>260.39999389648398</ele>
        <time>2012-10-22T08:19:02Z</time>
      </trkpt>
      <trkpt lat="47.929031336680055" lon="14.354641931131482">
        <ele>260.39999389648398</ele>
        <time>2012-10-22T08:19:06Z</time>
      </trkpt>
      <trkpt lat="47.929187742993236" lon="14.354741089046001">
        <ele>260.39999389648398</ele>
        <time>2012-10-22T08:19:11Z</time>
      </trkpt>
      <trkpt lat="47.929214481264353" lon="14.354765899479389">
        <ele>260.39999389648398</ele>
        <time>2012-10-22T08:19:12Z</time>
      </trkpt>
      <trkpt lat="47.929370887577534" lon="14.354911828413606">
        <ele>260.79998779296898</ele>
        <time>2012-10-22T08:19:18Z</time>
      </trkpt>
      <trkpt lat="47.929397542029619" lon="14.354931861162186">
        <ele>261.20001220703102</ele>
        <time>2012-10-22T08:19:19Z</time>
      </trkpt>
      <trkpt lat="47.929424280300736" lon="14.354950888082385">
        <ele>261.60000610351602</ele>
        <time>2012-10-22T08:19:20Z</time>
      </trkpt>
      <trkpt lat="47.929451018571854" lon="14.354970920830965">
        <ele>262</ele>
        <time>2012-10-22T08:19:21Z</time>
      </trkpt>
      <trkpt lat="47.929477673023939" lon="14.354989025741816">
        <ele>262.60000610351602</ele>
        <time>2012-10-22T08:19:22Z</time>
      </trkpt>
      <trkpt lat="47.929561575874686" lon="14.355021463707089">
        <ele>262.60000610351602</ele>
        <time>2012-10-22T08:19:25Z</time>
      </trkpt>
      <trkpt lat="47.92975234799087" lon="14.355040574446321">
        <ele>263</ele>
        <time>2012-10-22T08:19:31Z</time>
      </trkpt>
      <trkpt lat="47.929782858118415" lon="14.355036718770862">
        <ele>263.39999389648398</ele>
        <time>2012-10-22T08:19:32Z</time>
      </trkpt>
      <trkpt lat="47.929813368245959" lon="14.355033868923783">
        <ele>263.79998779296898</ele>
        <time>2012-10-22T08:19:33Z</time>
      </trkpt>
      <trkpt lat="47.929843878373504" lon="14.355031941086054">
        <ele>264.20001220703102</ele>
        <time>2012-10-22T08:19:34Z</time>
      </trkpt>
      <trkpt lat="47.929874388501048" lon="14.355027163401246">
        <ele>264.60000610351602</ele>
        <time>2012-10-22T08:19:35Z</time>
      </trkpt>
      <trkpt lat="47.929920237511396" lon="14.355012914165854">
        <ele>264.60000610351602</ele>
        <time>2012-10-22T08:19:38Z</time>
      </trkpt>
      <trkpt lat="47.929939264431596" lon="14.354968992993236">
        <ele>264.60000610351602</ele>
        <time>2012-10-22T08:19:44Z</time>
      </trkpt>
      <trkpt lat="47.929920237511396" lon="14.354973770678043">
        <ele>264.60000610351602</ele>
        <time>2012-10-22T08:19:46Z</time>
      </trkpt>
      <trkpt lat="47.929878244176507" lon="14.35499950312078">
        <ele>264.60000610351602</ele>
        <time>2012-10-22T08:19:49Z</time>
      </trkpt>
      <trkpt lat="47.929820995777845" lon="14.355030097067356">
        <ele>264.60000610351602</ele>
        <time>2012-10-22T08:19:52Z</time>
      </trkpt>
      <trkpt lat="47.929733237251639" lon="14.355041496455669">
        <ele>264.60000610351602</ele>
        <time>2012-10-22T08:19:55Z</time>
      </trkpt>
      <trkpt lat="47.92949678376317" lon="14.354997659102082">
        <ele>264.60000610351602</ele>
        <time>2012-10-22T08:20:01Z</time>
      </trkpt>
      <trkpt lat="47.929340377449989" lon="14.354854580014944">
        <ele>264.60000610351602</ele>
        <time>2012-10-22T08:20:05Z</time>
      </trkpt>
      <trkpt lat="47.929271729663014" lon="14.35478207655251">
        <ele>264.20001220703102</ele>
        <time>2012-10-22T08:20:07Z</time>
      </trkpt>
      <trkpt lat="47.929237363860011" lon="14.354758271947503">
        <ele>263.60000610351602</ele>
        <time>2012-10-22T08:20:08Z</time>
      </trkpt>
      <trkpt lat="47.929206853732467" lon="14.354729689657688">
        <ele>263.20001220703102</ele>
        <time>2012-10-22T08:20:09Z</time>
      </trkpt>
      <trkpt lat="47.929168716073036" lon="14.354709656909108">
        <ele>262.79998779296898</ele>
        <time>2012-10-22T08:20:10Z</time>
      </trkpt>
      <trkpt lat="47.929130578413606" lon="14.354696245864034">
        <ele>262.39999389648398</ele>
        <time>2012-10-22T08:20:11Z</time>
      </trkpt>
      <trkpt lat="47.929035192355514" lon="14.35456657782197">
        <ele>262.39999389648398</ele>
        <time>2012-10-22T08:20:15Z</time>
      </trkpt>
      <trkpt lat="47.929035192355514" lon="14.354453086853027">
        <ele>262.39999389648398</ele>
        <time>2012-10-22T08:20:19Z</time>
      </trkpt>
      <trkpt lat="47.929073330014944" lon="14.354439759626985">
        <ele>262.39999389648398</ele>
        <time>2012-10-22T08:20:24Z</time>
      </trkpt>
      <trkpt lat="47.929107695817947" lon="14.354459792375565">
        <ele>262.39999389648398</ele>
        <time>2012-10-22T08:20:26Z</time>
      </trkpt>
      <trkpt lat="47.929183971136808" lon="14.354515112936497">
        <ele>262.39999389648398</ele>
        <time>2012-10-22T08:20:30Z</time>
      </trkpt>
      <trkpt lat="47.929252618923783" lon="14.354601865634322">
        <ele>262.79998779296898</ele>
        <time>2012-10-22T08:20:35Z</time>
      </trkpt>
      <trkpt lat="47.929264102131128" lon="14.354616198688745">
        <ele>263.20001220703102</ele>
        <time>2012-10-22T08:20:36Z</time>
      </trkpt>
      <trkpt lat="47.929271729663014" lon="14.354628603905439">
        <ele>264.20001220703102</ele>
        <time>2012-10-22T08:20:37Z</time>
      </trkpt>
      <trkpt lat="47.929283129051328" lon="14.35464670881629">
        <ele>264.60000610351602</ele>
        <time>2012-10-22T08:20:38Z</time>
      </trkpt>
      <trkpt lat="47.929370887577534" lon="14.354749638587236">
        <ele>265</ele>
        <time>2012-10-22T08:20:45Z</time>
      </trkpt>
      <trkpt lat="47.929382286965847" lon="14.35476497747004">
        <ele>265.39999389648398</ele>
        <time>2012-10-22T08:20:46Z</time>
      </trkpt>
      <trkpt lat="47.929397542029619" lon="14.354778304696083">
        <ele>265.79998779296898</ele>
        <time>2012-10-22T08:20:47Z</time>
      </trkpt>
      <trkpt lat="47.929409025236964" lon="14.354788782075047">
        <ele>266.20001220703102</ele>
        <time>2012-10-22T08:20:48Z</time>
      </trkpt>
      <trkpt lat="47.929420508444309" lon="14.354797331616282">
        <ele>266.60000610351602</ele>
        <time>2012-10-22T08:20:49Z</time>
      </trkpt>
      <trkpt lat="47.929462417960167" lon="14.354823147878051">
        <ele>266.60000610351602</ele>
        <time>2012-10-22T08:20:52Z</time>
      </trkpt>
      <trkpt lat="47.929584542289376" lon="14.354858435690403">
        <ele>267</ele>
        <time>2012-10-22T08:21:00Z</time>
      </trkpt>
      <trkpt lat="47.929599797353148" lon="14.354861285537481">
        <ele>267.60000610351602</ele>
        <time>2012-10-22T08:21:01Z</time>
      </trkpt>
      <trkpt lat="47.929611196741462" lon="14.354851730167866">
        <ele>268.39999389648398</ele>
        <time>2012-10-22T08:21:02Z</time>
      </trkpt>
      <trkpt lat="47.929626451805234" lon="14.354843180626631">
        <ele>268.79998779296898</ele>
        <time>2012-10-22T08:21:03Z</time>
      </trkpt>
      <trkpt lat="47.929664589464664" lon="14.354830775409937">
        <ele>268.79998779296898</ele>
        <time>2012-10-22T08:21:06Z</time>
      </trkpt>
      <trkpt lat="47.929679844528437" lon="14.354825997725129">
        <ele>268.79998779296898</ele>
        <time>2012-10-22T08:21:07Z</time>
      </trkpt>
      <trkpt lat="47.929756203666329" lon="14.354731533676386">
        <ele>269.20001220703102</ele>
        <time>2012-10-22T08:21:14Z</time>
      </trkpt>
      <trkpt lat="47.929763831198215" lon="14.354716278612614">
        <ele>269.60000610351602</ele>
        <time>2012-10-22T08:21:15Z</time>
      </trkpt>
      <trkpt lat="47.929771458730102" lon="14.354700101539493">
        <ele>270</ele>
        <time>2012-10-22T08:21:16Z</time>
      </trkpt>
      <trkpt lat="47.929779086261988" lon="14.354682918637991">
        <ele>270.39999389648398</ele>
        <time>2012-10-22T08:21:17Z</time>
      </trkpt>
      <trkpt lat="47.929786713793874" lon="14.354667663574219">
        <ele>270.79998779296898</ele>
        <time>2012-10-22T08:21:18Z</time>
      </trkpt>
      <trkpt lat="47.929820995777845" lon="14.354574205353856">
        <ele>270.79998779296898</ele>
        <time>2012-10-22T08:21:23Z</time>
      </trkpt>
      <trkpt lat="47.92985150590539" lon="14.35448837466538">
        <ele>271.39999389648398</ele>
        <time>2012-10-22T08:21:28Z</time>
      </trkpt>
      <trkpt lat="47.929859133437276" lon="14.354467419907451">
        <ele>271.79998779296898</ele>
        <time>2012-10-22T08:21:29Z</time>
      </trkpt>
      <trkpt lat="47.929866760969162" lon="14.354450237005949">
        <ele>272.20001220703102</ele>
        <time>2012-10-22T08:21:30Z</time>
      </trkpt>
      <trkpt lat="47.929874388501048" lon="14.354432132095098">
        <ele>272.60000610351602</ele>
        <time>2012-10-22T08:21:31Z</time>
      </trkpt>
      <trkpt lat="47.929882016032934" lon="14.354415871202946">
        <ele>273</ele>
        <time>2012-10-22T08:21:32Z</time>
      </trkpt>
      <trkpt lat="47.929946891963482" lon="14.354264242574573">
        <ele>273</ele>
        <time>2012-10-22T08:21:41Z</time>
      </trkpt>
      <trkpt lat="47.929958375170827" lon="14.354251837357879">
        <ele>273.39999389648398</ele>
        <time>2012-10-22T08:21:42Z</time>
      </trkpt>
      <trkpt lat="47.929966002702713" lon="14.354236582294106">
        <ele>273.79998779296898</ele>
        <time>2012-10-22T08:21:43Z</time>
      </trkpt>
      <trkpt lat="47.929981257766485" lon="14.354223255068064">
        <ele>274.20001220703102</ele>
        <time>2012-10-22T08:21:44Z</time>
      </trkpt>
      <trkpt lat="47.929992657154799" lon="14.354209927842021">
        <ele>274.79998779296898</ele>
        <time>2012-10-22T08:21:45Z</time>
      </trkpt>
      <trkpt lat="47.930004140362144" lon="14.354192744940519">
        <ele>275.20001220703102</ele>
        <time>2012-10-22T08:21:46Z</time>
      </trkpt>
      <trkpt lat="47.930053677409887" lon="14.354116469621658">
        <ele>275.20001220703102</ele>
        <time>2012-10-22T08:21:51Z</time>
      </trkpt>
      <trkpt lat="47.930099526420236" lon="14.354057293385267">
        <ele>275.60000610351602</ele>
        <time>2012-10-22T08:21:56Z</time>
      </trkpt>
      <trkpt lat="47.930110925808549" lon="14.354047738015652">
        <ele>276</ele>
        <time>2012-10-22T08:21:57Z</time>
      </trkpt>
      <trkpt lat="47.930122409015894" lon="14.354037260636687">
        <ele>276.39999389648398</ele>
        <time>2012-10-22T08:21:58Z</time>
      </trkpt>
      <trkpt lat="47.93013003654778" lon="14.354028711095452">
        <ele>276.79998779296898</ele>
        <time>2012-10-22T08:21:59Z</time>
      </trkpt>
      <trkpt lat="47.930137664079666" lon="14.354020077735186">
        <ele>277.20001220703102</ele>
        <time>2012-10-22T08:22:00Z</time>
      </trkpt>
      <trkpt lat="47.93022533878684" lon="14.35393525287509">
        <ele>277.20001220703102</ele>
        <time>2012-10-22T08:22:08Z</time>
      </trkpt>
      <trkpt lat="47.930232966318727" lon="14.353921925649047">
        <ele>277.60000610351602</ele>
        <time>2012-10-22T08:22:09Z</time>
      </trkpt>
      <trkpt lat="47.930244449526072" lon="14.353911364451051">
        <ele>278</ele>
        <time>2012-10-22T08:22:10Z</time>
      </trkpt>
      <trkpt lat="47.930259704589844" lon="14.353899965062737">
        <ele>278.39999389648398</ele>
        <time>2012-10-22T08:22:11Z</time>
      </trkpt>
      <trkpt lat="47.930271187797189" lon="14.353889487683773">
        <ele>278.79998779296898</ele>
        <time>2012-10-22T08:22:12Z</time>
      </trkpt>
      <trkpt lat="47.930282587185502" lon="14.353878004476428">
        <ele>279.20001220703102</ele>
        <time>2012-10-22T08:22:13Z</time>
      </trkpt>
      <trkpt lat="47.930309325456619" lon="14.35385512188077">
        <ele>279.20001220703102</ele>
        <time>2012-10-22T08:22:15Z</time>
      </trkpt>
      <trkpt lat="47.930412255227566" lon="14.353806506842375">
        <ele>279.60000610351602</ele>
        <time>2012-10-22T08:22:22Z</time>
      </trkpt>
      <trkpt lat="47.930427510291338" lon="14.353797873482108">
        <ele>280</ele>
        <time>2012-10-22T08:22:23Z</time>
      </trkpt>
      <trkpt lat="47.930442849174142" lon="14.353788401931524">
        <ele>280.39999389648398</ele>
        <time>2012-10-22T08:22:24Z</time>
      </trkpt>
      <trkpt lat="47.930454248562455" lon="14.353779768571258">
        <ele>280.79998779296898</ele>
        <time>2012-10-22T08:22:25Z</time>
      </trkpt>
      <trkpt lat="47.930473359301686" lon="14.353772141039371">
        <ele>281.20001220703102</ele>
        <time>2012-10-22T08:22:26Z</time>
      </trkpt>
      <trkpt lat="47.930553406476974" lon="14.353740708902478">
        <ele>281.20001220703102</ele>
        <time>2012-10-22T08:22:31Z</time>
      </trkpt>
      <trkpt lat="47.930606883019209" lon="14.353713970631361">
        <ele>281.60000610351602</ele>
        <time>2012-10-22T08:22:35Z</time>
      </trkpt>
      <trkpt lat="47.930618282407522" lon="14.353704415261745">
        <ele>282</ele>
        <time>2012-10-22T08:22:36Z</time>
      </trkpt>
      <trkpt lat="47.930633537471294" lon="14.353692093864083">
        <ele>282.39999389648398</ele>
        <time>2012-10-22T08:22:37Z</time>
      </trkpt>
      <trkpt lat="47.930645020678639" lon="14.353687316179276">
        <ele>282.79998779296898</ele>
        <time>2012-10-22T08:22:38Z</time>
      </trkpt>
      <trkpt lat="47.930660275742412" lon="14.353679688647389">
        <ele>283.20001220703102</ele>
        <time>2012-10-22T08:22:39Z</time>
      </trkpt>
      <trkpt lat="47.930778544396162" lon="14.353619590401649">
        <ele>283.20001220703102</ele>
        <time>2012-10-22T08:22:47Z</time>
      </trkpt>
      <trkpt lat="47.930908212438226" lon="14.353526132181287">
        <ele>283.20001220703102</ele>
        <time>2012-10-22T08:22:56Z</time>
      </trkpt>
      <trkpt lat="47.930961605161428" lon="14.353476511314511">
        <ele>283.60000610351602</ele>
        <time>2012-10-22T08:23:00Z</time>
      </trkpt>
      <trkpt lat="47.930973088368773" lon="14.353461256250739">
        <ele>284</ele>
        <time>2012-10-22T08:23:01Z</time>
      </trkpt>
      <trkpt lat="47.930988343432546" lon="14.353441223502159">
        <ele>284.60000610351602</ele>
        <time>2012-10-22T08:23:02Z</time>
      </trkpt>
      <trkpt lat="47.930999742820859" lon="14.35342219658196">
        <ele>285</ele>
        <time>2012-10-22T08:23:03Z</time>
      </trkpt>
      <trkpt lat="47.931011226028204" lon="14.35340023599565">
        <ele>285.39999389648398</ele>
        <time>2012-10-22T08:23:04Z</time>
      </trkpt>
      <trkpt lat="47.93107601813972" lon="14.353212397545576">
        <ele>285.39999389648398</ele>
        <time>2012-10-22T08:23:11Z</time>
      </trkpt>
      <trkpt lat="47.931125639006495" lon="14.353019697591662">
        <ele>285.39999389648398</ele>
        <time>2012-10-22T08:23:17Z</time>
      </trkpt>
      <trkpt lat="47.931171404197812" lon="14.352722140029073">
        <ele>285.39999389648398</ele>
        <time>2012-10-22T08:23:25Z</time>
      </trkpt>
      <trkpt lat="47.931175259873271" lon="14.352682074531913">
        <ele>285.79998779296898</ele>
        <time>2012-10-22T08:23:26Z</time>
      </trkpt>
      <trkpt lat="47.931179031729698" lon="14.352647792547941">
        <ele>286.20001220703102</ele>
        <time>2012-10-22T08:23:27Z</time>
      </trkpt>
      <trkpt lat="47.931186659261584" lon="14.35261158272624">
        <ele>286.60000610351602</ele>
        <time>2012-10-22T08:23:28Z</time>
      </trkpt>
      <trkpt lat="47.931190514937043" lon="14.352574367076159">
        <ele>287</ele>
        <time>2012-10-22T08:23:29Z</time>
      </trkpt>
      <trkpt lat="47.93119428679347" lon="14.352538073435426">
        <ele>287.39999389648398</ele>
        <time>2012-10-22T08:23:30Z</time>
      </trkpt>
      <trkpt lat="47.931217169389129" lon="14.352385522797704">
        <ele>287.39999389648398</ele>
        <time>2012-10-22T08:23:34Z</time>
      </trkpt>
      <trkpt lat="47.931247679516673" lon="14.352043122053146">
        <ele>287.39999389648398</ele>
        <time>2012-10-22T08:23:43Z</time>
      </trkpt>
      <trkpt lat="47.931285817176104" lon="14.351765597239137">
        <ele>287.79998779296898</ele>
        <time>2012-10-22T08:23:50Z</time>
      </trkpt>
      <trkpt lat="47.931289672851563" lon="14.351727459579706">
        <ele>288.20001220703102</ele>
        <time>2012-10-22T08:23:51Z</time>
      </trkpt>
      <trkpt lat="47.931289672851563" lon="14.351688399910927">
        <ele>288.60000610351602</ele>
        <time>2012-10-22T08:23:52Z</time>
      </trkpt>
      <trkpt lat="47.931297300383449" lon="14.351647412404418">
        <ele>289</ele>
        <time>2012-10-22T08:23:53Z</time>
      </trkpt>
      <trkpt lat="47.931297300383449" lon="14.351608268916607">
        <ele>289.39999389648398</ele>
        <time>2012-10-22T08:23:54Z</time>
      </trkpt>
      <trkpt lat="47.931331666186452" lon="14.351332671940327">
        <ele>289.39999389648398</ele>
        <time>2012-10-22T08:24:01Z</time>
      </trkpt>
      <trkpt lat="47.93141171336174" lon="14.350864375010133">
        <ele>289.39999389648398</ele>
        <time>2012-10-22T08:24:11Z</time>
      </trkpt>
      <trkpt lat="47.931545237079263" lon="14.350661281496286">
        <ele>289.39999389648398</ele>
        <time>2012-10-22T08:24:17Z</time>
      </trkpt>
      <trkpt lat="47.93162913993001" lon="14.350584000349045">
        <ele>289.79998779296898</ele>
        <time>2012-10-22T08:24:20Z</time>
      </trkpt>
      <trkpt lat="47.931655878201127" lon="14.350565895438194">
        <ele>290.20001220703102</ele>
        <time>2012-10-22T08:24:21Z</time>
      </trkpt>
      <trkpt lat="47.931686388328671" lon="14.350546868517995">
        <ele>290.60000610351602</ele>
        <time>2012-10-22T08:24:22Z</time>
      </trkpt>
      <trkpt lat="47.931720754131675" lon="14.350522980093956">
        <ele>291</ele>
        <time>2012-10-22T08:24:23Z</time>
      </trkpt>
      <trkpt lat="47.931755036115646" lon="14.350499175488949">
        <ele>291.39999389648398</ele>
        <time>2012-10-22T08:24:24Z</time>
      </trkpt>
      <trkpt lat="47.931785546243191" lon="14.350482914596796">
        <ele>291.39999389648398</ele>
        <time>2012-10-22T08:24:25Z</time>
      </trkpt>
      <trkpt lat="47.93204496614635" lon="14.350369423627853">
        <ele>291.39999389648398</ele>
        <time>2012-10-22T08:24:32Z</time>
      </trkpt>
      <trkpt lat="47.932159462943673" lon="14.35027789324522">
        <ele>291.39999389648398</ele>
        <time>2012-10-22T08:24:35Z</time>
      </trkpt>
      <trkpt lat="47.932266248390079" lon="14.350144369527698">
        <ele>291.39999389648398</ele>
        <time>2012-10-22T08:24:38Z</time>
      </trkpt>
      <trkpt lat="47.932521812617779" lon="14.349821079522371">
        <ele>291.39999389648398</ele>
        <time>2012-10-22T08:24:45Z</time>
      </trkpt>
      <trkpt lat="47.932788860052824" lon="14.349631313234568">
        <ele>291.39999389648398</ele>
        <time>2012-10-22T08:24:51Z</time>
      </trkpt>
      <trkpt lat="47.933036796748638" lon="14.34952930547297">
        <ele>291.39999389648398</ele>
        <time>2012-10-22T08:24:57Z</time>
      </trkpt>
      <trkpt lat="47.933315243571997" lon="14.349476834759116">
        <ele>291.39999389648398</ele>
        <time>2012-10-22T08:25:03Z</time>
      </trkpt>
      <trkpt lat="47.933628056198359" lon="14.349482534453273">
        <ele>291.39999389648398</ele>
        <time>2012-10-22T08:25:10Z</time>
      </trkpt>
      <trkpt lat="47.934005744755268" lon="14.349432913586497">
        <ele>291.39999389648398</ele>
        <time>2012-10-22T08:25:19Z</time>
      </trkpt>
      <trkpt lat="47.934341439977288" lon="14.349380526691675">
        <ele>291.39999389648398</ele>
        <time>2012-10-22T08:25:26Z</time>
      </trkpt>
      <trkpt lat="47.934726756066084" lon="14.34930894523859">
        <ele>291.39999389648398</ele>
        <time>2012-10-22T08:25:33Z</time>
      </trkpt>
      <trkpt lat="47.934997575357556" lon="14.349256474524736">
        <ele>291</ele>
        <time>2012-10-22T08:25:37Z</time>
      </trkpt>
      <trkpt lat="47.935077706351876" lon="14.349227892234921">
        <ele>290.60000610351602</ele>
        <time>2012-10-22T08:25:38Z</time>
      </trkpt>
      <trkpt lat="47.935150125995278" lon="14.349197382107377">
        <ele>290.20001220703102</ele>
        <time>2012-10-22T08:25:39Z</time>
      </trkpt>
      <trkpt lat="47.935222629457712" lon="14.349164022132754">
        <ele>289.60000610351602</ele>
        <time>2012-10-22T08:25:40Z</time>
      </trkpt>
      <trkpt lat="47.935295132920146" lon="14.349128734320402">
        <ele>289</ele>
        <time>2012-10-22T08:25:41Z</time>
      </trkpt>
      <trkpt lat="47.935371408239007" lon="14.349090596660972">
        <ele>288.39999389648398</ele>
        <time>2012-10-22T08:25:42Z</time>
      </trkpt>
      <trkpt lat="47.935451539233327" lon="14.349055308848619">
        <ele>287.60000610351602</ele>
        <time>2012-10-22T08:25:43Z</time>
      </trkpt>
      <trkpt lat="47.935531586408615" lon="14.349028570577502">
        <ele>286.79998779296898</ele>
        <time>2012-10-22T08:25:44Z</time>
      </trkpt>
      <trkpt lat="47.935615573078394" lon="14.349009543657303">
        <ele>286</ele>
        <time>2012-10-22T08:25:45Z</time>
      </trkpt>
      <trkpt lat="47.935699475929141" lon="14.349000910297036">
        <ele>285.20001220703102</ele>
        <time>2012-10-22T08:25:46Z</time>
      </trkpt>
      <trkpt lat="47.935783378779888" lon="14.349000910297036">
        <ele>284.20001220703102</ele>
        <time>2012-10-22T08:25:47Z</time>
      </trkpt>
      <trkpt lat="47.935867281630635" lon="14.34901524335146">
        <ele>283.39999389648398</ele>
        <time>2012-10-22T08:25:48Z</time>
      </trkpt>
      <trkpt lat="47.935947412624955" lon="14.349040053784847">
        <ele>282.39999389648398</ele>
        <time>2012-10-22T08:25:49Z</time>
      </trkpt>
      <trkpt lat="47.936031315475702" lon="14.349087746813893">
        <ele>281.39999389648398</ele>
        <time>2012-10-22T08:25:50Z</time>
      </trkpt>
      <trkpt lat="47.936119074001908" lon="14.349149689078331">
        <ele>280.39999389648398</ele>
        <time>2012-10-22T08:25:51Z</time>
      </trkpt>
      <trkpt lat="47.936202976852655" lon="14.349220264703035">
        <ele>279.39999389648398</ele>
        <time>2012-10-22T08:25:52Z</time>
      </trkpt>
      <trkpt lat="47.936279335990548" lon="14.349303245544434">
        <ele>278.39999389648398</ele>
        <time>2012-10-22T08:25:53Z</time>
      </trkpt>
      <trkpt lat="47.936347983777523" lon="14.349402403458953">
        <ele>277.39999389648398</ele>
        <time>2012-10-22T08:25:54Z</time>
      </trkpt>
      <trkpt lat="47.936409004032612" lon="14.349508266896009">
        <ele>276.39999389648398</ele>
        <time>2012-10-22T08:25:55Z</time>
      </trkpt>
      <trkpt lat="47.936470024287701" lon="14.349622763693333">
        <ele>275.39999389648398</ele>
        <time>2012-10-22T08:25:56Z</time>
      </trkpt>
      <trkpt lat="47.936523417010903" lon="14.349741954356432">
        <ele>274.39999389648398</ele>
        <time>2012-10-22T08:25:57Z</time>
      </trkpt>
      <trkpt lat="47.936576809734106" lon="14.349867850542068">
        <ele>273.39999389648398</ele>
        <time>2012-10-22T08:25:58Z</time>
      </trkpt>
      <trkpt lat="47.936622658744454" lon="14.349991818889976">
        <ele>271.20001220703102</ele>
        <time>2012-10-22T08:25:59Z</time>
      </trkpt>
      <trkpt lat="47.936664568260312" lon="14.350114781409502">
        <ele>270.20001220703102</ele>
        <time>2012-10-22T08:26:00Z</time>
      </trkpt>
      <trkpt lat="47.936710333451629" lon="14.350242605432868">
        <ele>269.20001220703102</ele>
        <time>2012-10-22T08:26:01Z</time>
      </trkpt>
      <trkpt lat="47.936756098642945" lon="14.350365651771426">
        <ele>268.20001220703102</ele>
        <time>2012-10-22T08:26:02Z</time>
      </trkpt>
      <trkpt lat="47.936801947653294" lon="14.350486770272255">
        <ele>267.20001220703102</ele>
        <time>2012-10-22T08:26:03Z</time>
      </trkpt>
      <trkpt lat="47.936859112232924" lon="14.350605038926005">
        <ele>266</ele>
        <time>2012-10-22T08:26:04Z</time>
      </trkpt>
      <trkpt lat="47.936923988163471" lon="14.350702269002795">
        <ele>265.20001220703102</ele>
        <time>2012-10-22T08:26:05Z</time>
      </trkpt>
      <trkpt lat="47.936988864094019" lon="14.35077091678977">
        <ele>264.20001220703102</ele>
        <time>2012-10-22T08:26:06Z</time>
      </trkpt>
      <trkpt lat="47.93706513941288" lon="14.350826237350702">
        <ele>263.20001220703102</ele>
        <time>2012-10-22T08:26:07Z</time>
      </trkpt>
      <trkpt lat="47.9371452704072" lon="14.350860603153706">
        <ele>262.39999389648398</ele>
        <time>2012-10-22T08:26:08Z</time>
      </trkpt>
      <trkpt lat="47.937225317582488" lon="14.35087108053267">
        <ele>261.60000610351602</ele>
        <time>2012-10-22T08:26:09Z</time>
      </trkpt>
      <trkpt lat="47.937305448576808" lon="14.350867308676243">
        <ele>260.79998779296898</ele>
        <time>2012-10-22T08:26:10Z</time>
      </trkpt>
      <trkpt lat="47.937381723895669" lon="14.350850125774741">
        <ele>260</ele>
        <time>2012-10-22T08:26:11Z</time>
      </trkpt>
      <trkpt lat="47.937461854889989" lon="14.350821459665895">
        <ele>259.20001220703102</ele>
        <time>2012-10-22T08:26:12Z</time>
      </trkpt>
      <trkpt lat="47.937534358352423" lon="14.350790027529001">
        <ele>259.20001220703102</ele>
        <time>2012-10-22T08:26:13Z</time>
      </trkpt>
      <trkpt lat="47.937843315303326" lon="14.350652731955051">
        <ele>259.20001220703102</ele>
        <time>2012-10-22T08:26:18Z</time>
      </trkpt>
      <trkpt lat="47.938148500397801" lon="14.350539240986109">
        <ele>259.20001220703102</ele>
        <time>2012-10-22T08:26:24Z</time>
      </trkpt>
      <trkpt lat="47.93842694722116" lon="14.350464809685946">
        <ele>259.20001220703102</ele>
        <time>2012-10-22T08:26:31Z</time>
      </trkpt>
      <trkpt lat="47.938499450683594" lon="14.350443854928017">
        <ele>259.60000610351602</ele>
        <time>2012-10-22T08:26:33Z</time>
      </trkpt>
      <trkpt lat="47.938533816486597" lon="14.350437149405479">
        <ele>260</ele>
        <time>2012-10-22T08:26:34Z</time>
      </trkpt>
      <trkpt lat="47.938571954146028" lon="14.350432371720672">
        <ele>260.39999389648398</ele>
        <time>2012-10-22T08:26:35Z</time>
      </trkpt>
      <trkpt lat="47.938610091805458" lon="14.350428599864244">
        <ele>260.79998779296898</ele>
        <time>2012-10-22T08:26:36Z</time>
      </trkpt>
      <trkpt lat="47.938648229464889" lon="14.350427594035864">
        <ele>261.20001220703102</ele>
        <time>2012-10-22T08:26:37Z</time>
      </trkpt>
      <trkpt lat="47.938758870586753" lon="14.350431449711323">
        <ele>261.20001220703102</ele>
        <time>2012-10-22T08:26:40Z</time>
      </trkpt>
      <trkpt lat="47.939037317410111" lon="14.350457182154059">
        <ele>261.20001220703102</ele>
        <time>2012-10-22T08:26:47Z</time>
      </trkpt>
      <trkpt lat="47.939075455069542" lon="14.350461959838867">
        <ele>261.60000610351602</ele>
        <time>2012-10-22T08:26:48Z</time>
      </trkpt>
      <trkpt lat="47.939113592728972" lon="14.350467659533024">
        <ele>262</ele>
        <time>2012-10-22T08:26:49Z</time>
      </trkpt>
      <trkpt lat="47.939151730388403" lon="14.350473443046212">
        <ele>262.39999389648398</ele>
        <time>2012-10-22T08:26:50Z</time>
      </trkpt>
      <trkpt lat="47.939189951866865" lon="14.350480064749718">
        <ele>262.79998779296898</ele>
        <time>2012-10-22T08:26:51Z</time>
      </trkpt>
      <trkpt lat="47.939224233850837" lon="14.350488698109984">
        <ele>263.20001220703102</ele>
        <time>2012-10-22T08:26:52Z</time>
      </trkpt>
      <trkpt lat="47.939300509169698" lon="14.350512502714992">
        <ele>263.20001220703102</ele>
        <time>2012-10-22T08:26:54Z</time>
      </trkpt>
      <trkpt lat="47.939628576859832" lon="14.35063554905355">
        <ele>263.20001220703102</ele>
        <time>2012-10-22T08:27:03Z</time>
      </trkpt>
      <trkpt lat="47.939899479970336" lon="14.35079094953835">
        <ele>263.20001220703102</ele>
        <time>2012-10-22T08:27:10Z</time>
      </trkpt>
      <trkpt lat="47.940280940383673" lon="14.351040814071894">
        <ele>263.20001220703102</ele>
        <time>2012-10-22T08:27:19Z</time>
      </trkpt>
      <trkpt lat="47.940586125478148" lon="14.35128590092063">
        <ele>263.20001220703102</ele>
        <time>2012-10-22T08:27:26Z</time>
      </trkpt>
      <trkpt lat="47.940856944769621" lon="14.351506261155009">
        <ele>263.20001220703102</ele>
        <time>2012-10-22T08:27:33Z</time>
      </trkpt>
      <trkpt lat="47.941249888390303" lon="14.351826701313257">
        <ele>263.20001220703102</ele>
        <time>2012-10-22T08:27:44Z</time>
      </trkpt>
      <trkpt lat="47.941600838676095" lon="14.352130880579352">
        <ele>263.20001220703102</ele>
        <time>2012-10-22T08:27:54Z</time>
      </trkpt>
      <trkpt lat="47.941970815882087" lon="14.352416032925248">
        <ele>263.20001220703102</ele>
        <time>2012-10-22T08:28:04Z</time>
      </trkpt>
      <trkpt lat="47.942272145301104" lon="14.352631531655788">
        <ele>263.60000610351602</ele>
        <time>2012-10-22T08:28:12Z</time>
      </trkpt>
      <trkpt lat="47.942317994311452" lon="14.352661119773984">
        <ele>264</ele>
        <time>2012-10-22T08:28:13Z</time>
      </trkpt>
      <trkpt lat="47.942352276295424" lon="14.352684002369642">
        <ele>264.39999389648398</ele>
        <time>2012-10-22T08:28:14Z</time>
      </trkpt>
      <trkpt lat="47.942390413954854" lon="14.352709734812379">
        <ele>265</ele>
        <time>2012-10-22T08:28:15Z</time>
      </trkpt>
      <trkpt lat="47.942424779757857" lon="14.352736473083496">
        <ele>265.39999389648398</ele>
        <time>2012-10-22T08:28:16Z</time>
      </trkpt>
      <trkpt lat="47.942691827192903" lon="14.352912912145257">
        <ele>265.39999389648398</ele>
        <time>2012-10-22T08:28:23Z</time>
      </trkpt>
      <trkpt lat="47.942764246836305" lon="14.352976782247424">
        <ele>265.39999389648398</ele>
        <time>2012-10-22T08:28:25Z</time>
      </trkpt>
      <trkpt lat="47.94311142526567" lon="14.353225724771619">
        <ele>265.39999389648398</ele>
        <time>2012-10-22T08:28:34Z</time>
      </trkpt>
      <trkpt lat="47.94348525814712" lon="14.353482211008668">
        <ele>265.39999389648398</ele>
        <time>2012-10-22T08:28:44Z</time>
      </trkpt>
      <trkpt lat="47.943901084363461" lon="14.353696787729859">
        <ele>265.79998779296898</ele>
        <time>2012-10-22T08:28:55Z</time>
      </trkpt>
      <trkpt lat="47.943939222022891" lon="14.353711120784283">
        <ele>266.20001220703102</ele>
        <time>2012-10-22T08:28:56Z</time>
      </trkpt>
      <trkpt lat="47.943973504006863" lon="14.353721598163247">
        <ele>266.60000610351602</ele>
        <time>2012-10-22T08:28:57Z</time>
      </trkpt>
      <trkpt lat="47.944015497341752" lon="14.353729225695133">
        <ele>267</ele>
        <time>2012-10-22T08:28:58Z</time>
      </trkpt>
      <trkpt lat="47.944053635001183" lon="14.353735009208322">
        <ele>267.39999389648398</ele>
        <time>2012-10-22T08:28:59Z</time>
      </trkpt>
      <trkpt lat="47.944194786250591" lon="14.353764513507485">
        <ele>267.39999389648398</ele>
        <time>2012-10-22T08:29:03Z</time>
      </trkpt>
      <trkpt lat="47.944412212818861" lon="14.353807428851724">
        <ele>267.39999389648398</ele>
        <time>2012-10-22T08:29:09Z</time>
      </trkpt>
      <trkpt lat="47.944595357403159" lon="14.35383508913219">
        <ele>267.79998779296898</ele>
        <time>2012-10-22T08:29:14Z</time>
      </trkpt>
      <trkpt lat="47.944629639387131" lon="14.353837938979268">
        <ele>268.20001220703102</ele>
        <time>2012-10-22T08:29:15Z</time>
      </trkpt>
      <trkpt lat="47.944664005190134" lon="14.353842716664076">
        <ele>268.60000610351602</ele>
        <time>2012-10-22T08:29:16Z</time>
      </trkpt>
      <trkpt lat="47.944698370993137" lon="14.353851350024343">
        <ele>269</ele>
        <time>2012-10-22T08:29:17Z</time>
      </trkpt>
      <trkpt lat="47.944732652977109" lon="14.353857049718499">
        <ele>269.39999389648398</ele>
        <time>2012-10-22T08:29:18Z</time>
      </trkpt>
      <trkpt lat="47.945064576342702" lon="14.353948580101132">
        <ele>269.39999389648398</ele>
        <time>2012-10-22T08:29:28Z</time>
      </trkpt>
      <trkpt lat="47.94530488550663" lon="14.354087803512812">
        <ele>269.39999389648398</ele>
        <time>2012-10-22T08:29:36Z</time>
      </trkpt>
      <trkpt lat="47.945411670953035" lon="14.3541488237679">
        <ele>269.79998779296898</ele>
        <time>2012-10-22T08:29:40Z</time>
      </trkpt>
      <trkpt lat="47.945438409224153" lon="14.354167934507132">
        <ele>270.20001220703102</ele>
        <time>2012-10-22T08:29:41Z</time>
      </trkpt>
      <trkpt lat="47.945468919351697" lon="14.354189895093441">
        <ele>270.60000610351602</ele>
        <time>2012-10-22T08:29:42Z</time>
      </trkpt>
      <trkpt lat="47.945495573803782" lon="14.354211771860719">
        <ele>271</ele>
        <time>2012-10-22T08:29:43Z</time>
      </trkpt>
      <trkpt lat="47.945526083931327" lon="14.35423088259995">
        <ele>271.39999389648398</ele>
        <time>2012-10-22T08:29:44Z</time>
      </trkpt>
      <trkpt lat="47.945751221850514" lon="14.354363400489092">
        <ele>271.39999389648398</ele>
        <time>2012-10-22T08:29:51Z</time>
      </trkpt>
      <trkpt lat="47.9460334405303" lon="14.354496924206614">
        <ele>271.39999389648398</ele>
        <time>2012-10-22T08:29:59Z</time>
      </trkpt>
      <trkpt lat="47.946334853768349" lon="14.354658108204603">
        <ele>271.39999389648398</ele>
        <time>2012-10-22T08:30:07Z</time>
      </trkpt>
      <trkpt lat="47.946479776874185" lon="14.35478400439024">
        <ele>271.39999389648398</ele>
        <time>2012-10-22T08:30:10Z</time>
      </trkpt>
      <trkpt lat="47.946586646139622" lon="14.354912750422955">
        <ele>271.39999389648398</ele>
        <time>2012-10-22T08:30:13Z</time>
      </trkpt>
      <trkpt lat="47.94674682430923" lon="14.355043424293399">
        <ele>271.39999389648398</ele>
        <time>2012-10-22T08:30:18Z</time>
      </trkpt>
      <trkpt lat="47.946926113218069" lon="14.35525992885232">
        <ele>271.39999389648398</ele>
        <time>2012-10-22T08:30:24Z</time>
      </trkpt>
      <trkpt lat="47.947094002738595" lon="14.355546003207564">
        <ele>271.39999389648398</ele>
        <time>2012-10-22T08:30:32Z</time>
      </trkpt>
      <trkpt lat="47.947151167318225" lon="14.355607023462653">
        <ele>271.79998779296898</ele>
        <time>2012-10-22T08:30:34Z</time>
      </trkpt>
      <trkpt lat="47.947216043248773" lon="14.355645161122084">
        <ele>272.60000610351602</ele>
        <time>2012-10-22T08:30:35Z</time>
      </trkpt>
      <trkpt lat="47.947254180908203" lon="14.355657566338778">
        <ele>273</ele>
        <time>2012-10-22T08:30:36Z</time>
      </trkpt>
      <trkpt lat="47.947288546711206" lon="14.355669971555471">
        <ele>273.60000610351602</ele>
        <time>2012-10-22T08:30:37Z</time>
      </trkpt>
      <trkpt lat="47.94759364798665" lon="14.355741469189525">
        <ele>273.60000610351602</ele>
        <time>2012-10-22T08:30:45Z</time>
      </trkpt>
      <trkpt lat="47.947670007124543" lon="14.355763429775834">
        <ele>273.60000610351602</ele>
        <time>2012-10-22T08:30:47Z</time>
      </trkpt>
      <trkpt lat="47.947872178629041" lon="14.355864515528083">
        <ele>273.60000610351602</ele>
        <time>2012-10-22T08:30:52Z</time>
      </trkpt>
      <trkpt lat="47.947952309623361" lon="14.355905503034592">
        <ele>273.60000610351602</ele>
        <time>2012-10-22T08:30:54Z</time>
      </trkpt>
      <trkpt lat="47.948142997920513" lon="14.356003738939762">
        <ele>273.60000610351602</ele>
        <time>2012-10-22T08:30:59Z</time>
      </trkpt>
      <trkpt lat="47.948448183014989" lon="14.356173556298018">
        <ele>273.60000610351602</ele>
        <time>2012-10-22T08:31:07Z</time>
      </trkpt>
      <trkpt lat="47.948646582663059" lon="14.356269864365458">
        <ele>273.60000610351602</ele>
        <time>2012-10-22T08:31:12Z</time>
      </trkpt>
      <trkpt lat="47.94878002256155" lon="14.356349911540747">
        <ele>273.60000610351602</ele>
        <time>2012-10-22T08:31:15Z</time>
      </trkpt>
      <trkpt lat="47.94905855320394" lon="14.356435742229223">
        <ele>273.60000610351602</ele>
        <time>2012-10-22T08:31:21Z</time>
      </trkpt>
      <trkpt lat="47.949508661404252" lon="14.356485363095999">
        <ele>273.60000610351602</ele>
        <time>2012-10-22T08:31:31Z</time>
      </trkpt>
      <trkpt lat="47.949684178456664" lon="14.356507323682308">
        <ele>273.60000610351602</ele>
        <time>2012-10-22T08:31:35Z</time>
      </trkpt>
      <trkpt lat="47.949855839833617" lon="14.356540683656931">
        <ele>273.60000610351602</ele>
        <time>2012-10-22T08:31:39Z</time>
      </trkpt>
      <trkpt lat="47.95016479678452" lon="14.356555016711354">
        <ele>273.60000610351602</ele>
        <time>2012-10-22T08:31:46Z</time>
      </trkpt>
      <trkpt lat="47.950527230277658" lon="14.356519728899002">
        <ele>273.60000610351602</ele>
        <time>2012-10-22T08:31:55Z</time>
      </trkpt>
      <trkpt lat="47.950561512261629" lon="14.35652257874608">
        <ele>273.60000610351602</ele>
        <time>2012-10-22T08:31:58Z</time>
      </trkpt>
      <trkpt lat="47.950561512261629" lon="14.3565215729177">
        <ele>274</ele>
        <time>2012-10-22T08:32:01Z</time>
      </trkpt>
      <trkpt lat="47.950561512261629" lon="14.3565215729177">
        <ele>274.39999389648398</ele>
        <time>2012-10-22T08:32:02Z</time>
      </trkpt>
      <trkpt lat="47.950561512261629" lon="14.3565215729177">
        <ele>275.39999389648398</ele>
        <time>2012-10-22T08:32:03Z</time>
      </trkpt>
      <trkpt lat="47.950561512261629" lon="14.3565215729177">
        <ele>275.79998779296898</ele>
        <time>2012-10-22T08:32:04Z</time>
      </trkpt>
      <trkpt lat="47.950561512261629" lon="14.3565215729177">
        <ele>275.79998779296898</ele>
        <time>2012-10-22T08:32:05Z</time>
      </trkpt>
      <trkpt lat="47.950557740405202" lon="14.356520650908351">
        <ele>275.20001220703102</ele>
        <time>2012-10-22T08:32:19Z</time>
      </trkpt>
      <trkpt lat="47.950557740405202" lon="14.356520650908351">
        <ele>274.79998779296898</ele>
        <time>2012-10-22T08:32:20Z</time>
      </trkpt>
      <trkpt lat="47.950557740405202" lon="14.356520650908351">
        <ele>274.39999389648398</ele>
        <time>2012-10-22T08:32:21Z</time>
      </trkpt>
      <trkpt lat="47.950557740405202" lon="14.356520650908351">
        <ele>273.79998779296898</ele>
        <time>2012-10-22T08:32:22Z</time>
      </trkpt>
      <trkpt lat="47.950565367937088" lon="14.356519728899002">
        <ele>273.39999389648398</ele>
        <time>2012-10-22T08:32:23Z</time>
      </trkpt>
      <trkpt lat="47.950607277452946" lon="14.356513023376465">
        <ele>273.39999389648398</ele>
        <time>2012-10-22T08:32:26Z</time>
      </trkpt>
      <trkpt lat="47.950767539441586" lon="14.3565025459975">
        <ele>273.39999389648398</ele>
        <time>2012-10-22T08:32:32Z</time>
      </trkpt>
      <trkpt lat="47.95097348280251" lon="14.356488212943077">
        <ele>273.39999389648398</ele>
        <time>2012-10-22T08:32:37Z</time>
      </trkpt>
      <trkpt lat="47.951236758381128" lon="14.356494918465614">
        <ele>273.39999389648398</ele>
        <time>2012-10-22T08:32:42Z</time>
      </trkpt>
      <trkpt lat="47.951652500778437" lon="14.356510173529387">
        <ele>273.39999389648398</ele>
        <time>2012-10-22T08:32:48Z</time>
      </trkpt>
      <trkpt lat="47.95180513523519" lon="14.3565025459975">
        <ele>272.79998779296898</ele>
        <time>2012-10-22T08:32:50Z</time>
      </trkpt>
      <trkpt lat="47.951885182410479" lon="14.356492990627885">
        <ele>272.39999389648398</ele>
        <time>2012-10-22T08:32:51Z</time>
      </trkpt>
      <trkpt lat="47.951961541548371" lon="14.356481591239572">
        <ele>272</ele>
        <time>2012-10-22T08:32:52Z</time>
      </trkpt>
      <trkpt lat="47.95204158872366" lon="14.356469186022878">
        <ele>271</ele>
        <time>2012-10-22T08:32:53Z</time>
      </trkpt>
      <trkpt lat="47.952114092186093" lon="14.356455774977803">
        <ele>271</ele>
        <time>2012-10-22T08:32:54Z</time>
      </trkpt>
      <trkpt lat="47.952526062726974" lon="14.356362316757441">
        <ele>271</ele>
        <time>2012-10-22T08:33:00Z</time>
      </trkpt>
      <trkpt lat="47.952720606699586" lon="14.356312779709697">
        <ele>270.60000610351602</ele>
        <time>2012-10-22T08:33:03Z</time>
      </trkpt>
      <trkpt lat="47.952781710773706" lon="14.356297524645925">
        <ele>270.20001220703102</ele>
        <time>2012-10-22T08:33:04Z</time>
      </trkpt>
      <trkpt lat="47.952846502885222" lon="14.356280341744423">
        <ele>269.79998779296898</ele>
        <time>2012-10-22T08:33:05Z</time>
      </trkpt>
      <trkpt lat="47.952907523140311" lon="14.35626408085227">
        <ele>269.39999389648398</ele>
        <time>2012-10-22T08:33:06Z</time>
      </trkpt>
      <trkpt lat="47.952968627214432" lon="14.356247903779149">
        <ele>268.79998779296898</ele>
        <time>2012-10-22T08:33:07Z</time>
      </trkpt>
      <trkpt lat="47.953025791794062" lon="14.356235498562455">
        <ele>268.79998779296898</ele>
        <time>2012-10-22T08:33:08Z</time>
      </trkpt>
      <trkpt lat="47.953411107882857" lon="14.356134412810206">
        <ele>268.79998779296898</ele>
        <time>2012-10-22T08:33:15Z</time>
      </trkpt>
      <trkpt lat="47.953704809769988" lon="14.355990411713719">
        <ele>268.79998779296898</ele>
        <time>2012-10-22T08:33:21Z</time>
      </trkpt>
      <trkpt lat="47.953857444226742" lon="14.355961829423904">
        <ele>268.79998779296898</ele>
        <time>2012-10-22T08:33:25Z</time>
      </trkpt>
      <trkpt lat="47.953929863870144" lon="14.355970378965139">
        <ele>268.39999389648398</ele>
        <time>2012-10-22T08:33:27Z</time>
      </trkpt>
      <trkpt lat="47.953952830284834" lon="14.355978006497025">
        <ele>268</ele>
        <time>2012-10-22T08:33:28Z</time>
      </trkpt>
      <trkpt lat="47.953971857205033" lon="14.355990411713719">
        <ele>267.60000610351602</ele>
        <time>2012-10-22T08:33:29Z</time>
      </trkpt>
      <trkpt lat="47.953987112268806" lon="14.356004744768143">
        <ele>267.20001220703102</ele>
        <time>2012-10-22T08:33:30Z</time>
      </trkpt>
      <trkpt lat="47.953994739800692" lon="14.356018994003534">
        <ele>266.79998779296898</ele>
        <time>2012-10-22T08:33:31Z</time>
      </trkpt>
      <trkpt lat="47.954006223008037" lon="14.356042882427573">
        <ele>266.79998779296898</ele>
        <time>2012-10-22T08:33:36Z</time>
      </trkpt>
      <trkpt lat="47.954036733135581" lon="14.356061909347773">
        <ele>266.79998779296898</ele>
        <time>2012-10-22T08:33:38Z</time>
      </trkpt>
      <trkpt lat="47.954093897715211" lon="14.356047660112381">
        <ele>266.79998779296898</ele>
        <time>2012-10-22T08:33:40Z</time>
      </trkpt>
      <trkpt lat="47.954303780570626" lon="14.355982784181833">
        <ele>266.79998779296898</ele>
        <time>2012-10-22T08:33:46Z</time>
      </trkpt>
      <trkpt lat="47.954559344798326" lon="14.355858815833926">
        <ele>266.79998779296898</ele>
        <time>2012-10-22T08:33:53Z</time>
      </trkpt>
      <trkpt lat="47.95484927482903" lon="14.355668043717742">
        <ele>266.79998779296898</ele>
        <time>2012-10-22T08:34:00Z</time>
      </trkpt>
      <trkpt lat="47.955158231779933" lon="14.3554353620857">
        <ele>266.79998779296898</ele>
        <time>2012-10-22T08:34:07Z</time>
      </trkpt>
      <trkpt lat="47.955535920336843" lon="14.35521986335516">
        <ele>266.79998779296898</ele>
        <time>2012-10-22T08:34:15Z</time>
      </trkpt>
      <trkpt lat="47.955871615558863" lon="14.35505960136652">
        <ele>266.79998779296898</ele>
        <time>2012-10-22T08:34:22Z</time>
      </trkpt>
      <trkpt lat="47.955925008282065" lon="14.355034790933132">
        <ele>266.79998779296898</ele>
        <time>2012-10-22T08:34:23Z</time>
      </trkpt>
      <trkpt lat="47.956405626609921" lon="14.354809736832976">
        <ele>266.79998779296898</ele>
        <time>2012-10-22T08:34:32Z</time>
      </trkpt>
      <trkpt lat="47.956905355677009" lon="14.354577977210283">
        <ele>266.79998779296898</ele>
        <time>2012-10-22T08:34:41Z</time>
      </trkpt>
      <trkpt lat="47.957351692020893" lon="14.354392988607287">
        <ele>266.79998779296898</ele>
        <time>2012-10-22T08:34:49Z</time>
      </trkpt>
      <trkpt lat="47.957920068874955" lon="14.354158379137516">
        <ele>266.79998779296898</ele>
        <time>2012-10-22T08:34:59Z</time>
      </trkpt>
      <trkpt lat="47.957981089130044" lon="14.354136502370238">
        <ele>266.79998779296898</ele>
        <time>2012-10-22T08:35:00Z</time>
      </trkpt>
      <trkpt lat="47.958454163745046" lon="14.353958135470748">
        <ele>266.39999389648398</ele>
        <time>2012-10-22T08:35:08Z</time>
      </trkpt>
      <trkpt lat="47.958515184000134" lon="14.353936174884439">
        <ele>266</ele>
        <time>2012-10-22T08:35:09Z</time>
      </trkpt>
      <trkpt lat="47.958576204255223" lon="14.35391329228878">
        <ele>265.60000610351602</ele>
        <time>2012-10-22T08:35:10Z</time>
      </trkpt>
      <trkpt lat="47.958629596978426" lon="14.3538932595402">
        <ele>265.20001220703102</ele>
        <time>2012-10-22T08:35:11Z</time>
      </trkpt>
      <trkpt lat="47.958686845377088" lon="14.35387322679162">
        <ele>264.79998779296898</ele>
        <time>2012-10-22T08:35:12Z</time>
      </trkpt>
      <trkpt lat="47.959190346300602" lon="14.35367776080966">
        <ele>264.79998779296898</ele>
        <time>2012-10-22T08:35:21Z</time>
      </trkpt>
      <trkpt lat="47.959632910788059" lon="14.353526132181287">
        <ele>264.79998779296898</ele>
        <time>2012-10-22T08:35:29Z</time>
      </trkpt>
      <trkpt lat="47.96014403924346" lon="14.353399313986301">
        <ele>264.79998779296898</ele>
        <time>2012-10-22T08:35:38Z</time>
      </trkpt>
      <trkpt lat="47.960723899304867" lon="14.353295294567943">
        <ele>264.79998779296898</ele>
        <time>2012-10-22T08:35:48Z</time>
      </trkpt>
      <trkpt lat="47.960777292028069" lon="14.353290516883135">
        <ele>264.79998779296898</ele>
        <time>2012-10-22T08:35:49Z</time>
      </trkpt>
      <trkpt lat="47.961250282824039" lon="14.353235280141234">
        <ele>264.79998779296898</ele>
        <time>2012-10-22T08:35:57Z</time>
      </trkpt>
      <trkpt lat="47.961811032146215" lon="14.353192364796996">
        <ele>264.79998779296898</ele>
        <time>2012-10-22T08:36:06Z</time>
      </trkpt>
      <trkpt lat="47.962364237755537" lon="14.353210469707847">
        <ele>264.79998779296898</ele>
        <time>2012-10-22T08:36:15Z</time>
      </trkpt>
      <trkpt lat="47.962905876338482" lon="14.353297222405672">
        <ele>264.79998779296898</ele>
        <time>2012-10-22T08:36:24Z</time>
      </trkpt>
      <trkpt lat="47.963489508256316" lon="14.353407863527536">
        <ele>264.79998779296898</ele>
        <time>2012-10-22T08:36:34Z</time>
      </trkpt>
      <trkpt lat="47.96393970027566" lon="14.353509871289134">
        <ele>264.79998779296898</ele>
        <time>2012-10-22T08:36:42Z</time>
      </trkpt>
      <trkpt lat="47.964317305013537" lon="14.353586230427027">
        <ele>264.79998779296898</ele>
        <time>2012-10-22T08:36:49Z</time>
      </trkpt>
      <trkpt lat="47.96466825529933" lon="14.353671055287123">
        <ele>264.79998779296898</ele>
        <time>2012-10-22T08:36:56Z</time>
      </trkpt>
      <trkpt lat="47.965064970776439" lon="14.353767363354564">
        <ele>264.79998779296898</ele>
        <time>2012-10-22T08:37:04Z</time>
      </trkpt>
      <trkpt lat="47.965435031801462" lon="14.35381505638361">
        <ele>264.79998779296898</ele>
        <time>2012-10-22T08:37:11Z</time>
      </trkpt>
      <trkpt lat="47.965854629874229" lon="14.353899043053389">
        <ele>264.79998779296898</ele>
        <time>2012-10-22T08:37:19Z</time>
      </trkpt>
      <trkpt lat="47.966201808303595" lon="14.354005828499794">
        <ele>264.79998779296898</ele>
        <time>2012-10-22T08:37:26Z</time>
      </trkpt>
      <trkpt lat="47.96652602031827" lon="14.354143124073744">
        <ele>264.79998779296898</ele>
        <time>2012-10-22T08:37:32Z</time>
      </trkpt>
      <trkpt lat="47.966945618391037" lon="14.354365328326821">
        <ele>264.79998779296898</ele>
        <time>2012-10-22T08:37:40Z</time>
      </trkpt>
      <trkpt lat="47.967227920889854" lon="14.354472197592258">
        <ele>264.79998779296898</ele>
        <time>2012-10-22T08:37:45Z</time>
      </trkpt>
      <trkpt lat="47.967285169288516" lon="14.354478819295764">
        <ele>264.79998779296898</ele>
        <time>2012-10-22T08:37:46Z</time>
      </trkpt>
      <trkpt lat="47.967399582266808" lon="14.354479825124145">
        <ele>264.79998779296898</ele>
        <time>2012-10-22T08:37:48Z</time>
      </trkpt>
      <trkpt lat="47.96757509931922" lon="14.354430204257369">
        <ele>264.79998779296898</ele>
        <time>2012-10-22T08:37:51Z</time>
      </trkpt>
      <trkpt lat="47.967815408483148" lon="14.354365328326821">
        <ele>264.79998779296898</ele>
        <time>2012-10-22T08:37:55Z</time>
      </trkpt>
      <trkpt lat="47.967998469248414" lon="14.354337668046355">
        <ele>264.79998779296898</ele>
        <time>2012-10-22T08:37:58Z</time>
      </trkpt>
      <trkpt lat="47.968059573322535" lon="14.354339595884085">
        <ele>264.79998779296898</ele>
        <time>2012-10-22T08:37:59Z</time>
      </trkpt>
      <trkpt lat="47.968120593577623" lon="14.354347223415971">
        <ele>264.39999389648398</ele>
        <time>2012-10-22T08:38:00Z</time>
      </trkpt>
      <trkpt lat="47.968177758157253" lon="14.354354850947857">
        <ele>264</ele>
        <time>2012-10-22T08:38:01Z</time>
      </trkpt>
      <trkpt lat="47.968235006555915" lon="14.354366334155202">
        <ele>263.60000610351602</ele>
        <time>2012-10-22T08:38:02Z</time>
      </trkpt>
      <trkpt lat="47.968292254954576" lon="14.354379661381245">
        <ele>263.20001220703102</ele>
        <time>2012-10-22T08:38:03Z</time>
      </trkpt>
      <trkpt lat="47.968349419534206" lon="14.354392988607287">
        <ele>262.79998779296898</ele>
        <time>2012-10-22T08:38:04Z</time>
      </trkpt>
      <trkpt lat="47.968460060656071" lon="14.354414949193597">
        <ele>262.79998779296898</ele>
        <time>2012-10-22T08:38:06Z</time>
      </trkpt>
      <trkpt lat="47.968914024531841" lon="14.354519806802273">
        <ele>262.79998779296898</ele>
        <time>2012-10-22T08:38:14Z</time>
      </trkpt>
      <trkpt lat="47.969303112477064" lon="14.354601865634322">
        <ele>262.79998779296898</ele>
        <time>2012-10-22T08:38:21Z</time>
      </trkpt>
      <trkpt lat="47.96972656622529" lon="14.35470387339592">
        <ele>262.79998779296898</ele>
        <time>2012-10-22T08:38:29Z</time>
      </trkpt>
      <trkpt lat="47.970134764909744" lon="14.354816442355514">
        <ele>262.79998779296898</ele>
        <time>2012-10-22T08:38:37Z</time>
      </trkpt>
      <trkpt lat="47.970565762370825" lon="14.354917528107762">
        <ele>262.79998779296898</ele>
        <time>2012-10-22T08:38:45Z</time>
      </trkpt>
      <trkpt lat="47.971034981310368" lon="14.355020541697741">
        <ele>262.79998779296898</ele>
        <time>2012-10-22T08:38:53Z</time>
      </trkpt>
      <trkpt lat="47.971477545797825" lon="14.355118777602911">
        <ele>262.79998779296898</ele>
        <time>2012-10-22T08:39:00Z</time>
      </trkpt>
      <trkpt lat="47.971790274605155" lon="14.355193125084043">
        <ele>262.39999389648398</ele>
        <time>2012-10-22T08:39:05Z</time>
      </trkpt>
      <trkpt lat="47.971855150535703" lon="14.355203602463007">
        <ele>262</ele>
        <time>2012-10-22T08:39:06Z</time>
      </trkpt>
      <trkpt lat="47.971916170790792" lon="14.355216007679701">
        <ele>261.39999389648398</ele>
        <time>2012-10-22T08:39:07Z</time>
      </trkpt>
      <trkpt lat="47.971981046721339" lon="14.355227490887046">
        <ele>261</ele>
        <time>2012-10-22T08:39:08Z</time>
      </trkpt>
      <trkpt lat="47.972042066976428" lon="14.35523796826601">
        <ele>260.60000610351602</ele>
        <time>2012-10-22T08:39:09Z</time>
      </trkpt>
      <trkpt lat="47.97257230617106" lon="14.355351459234953">
        <ele>260.60000610351602</ele>
        <time>2012-10-22T08:39:18Z</time>
      </trkpt>
      <trkpt lat="47.972938511520624" lon="14.35541532933712">
        <ele>260.60000610351602</ele>
        <time>2012-10-22T08:39:25Z</time>
      </trkpt>
      <trkpt lat="47.972991904243827" lon="14.355419185012579">
        <ele>260.60000610351602</ele>
        <time>2012-10-22T08:39:26Z</time>
      </trkpt>
      <trkpt lat="47.973220814019442" lon="14.355437289923429">
        <ele>260.60000610351602</ele>
        <time>2012-10-22T08:39:30Z</time>
      </trkpt>
      <trkpt lat="47.973754908889532" lon="14.355471571907401">
        <ele>260.60000610351602</ele>
        <time>2012-10-22T08:39:39Z</time>
      </trkpt>
      <trkpt lat="47.974311802536249" lon="14.355454472824931">
        <ele>260.60000610351602</ele>
        <time>2012-10-22T08:39:48Z</time>
      </trkpt>
      <trkpt lat="47.974891662597656" lon="14.355402924120426">
        <ele>260.60000610351602</ele>
        <time>2012-10-22T08:39:58Z</time>
      </trkpt>
      <trkpt lat="47.975360881537199" lon="14.355322876945138">
        <ele>260.60000610351602</ele>
        <time>2012-10-22T08:40:06Z</time>
      </trkpt>
      <trkpt lat="47.975543942302465" lon="14.355287589132786">
        <ele>260.20001220703102</ele>
        <time>2012-10-22T08:40:09Z</time>
      </trkpt>
      <trkpt lat="47.975601190701127" lon="14.355276105925441">
        <ele>259.79998779296898</ele>
        <time>2012-10-22T08:40:10Z</time>
      </trkpt>
      <trkpt lat="47.975662210956216" lon="14.355262778699398">
        <ele>259.39999389648398</ele>
        <time>2012-10-22T08:40:11Z</time>
      </trkpt>
      <trkpt lat="47.975723231211305" lon="14.355248445644975">
        <ele>259</ele>
        <time>2012-10-22T08:40:12Z</time>
      </trkpt>
      <trkpt lat="47.975784335285425" lon="14.355236040428281">
        <ele>258.60000610351602</ele>
        <time>2012-10-22T08:40:13Z</time>
      </trkpt>
      <trkpt lat="47.975845355540514" lon="14.355224641039968">
        <ele>258.60000610351602</ele>
        <time>2012-10-22T08:40:14Z</time>
      </trkpt>
      <trkpt lat="47.97640610486269" lon="14.35509966686368">
        <ele>258.60000610351602</ele>
        <time>2012-10-22T08:40:23Z</time>
      </trkpt>
      <trkpt lat="47.976856213063002" lon="14.354955665767193">
        <ele>258.20001220703102</ele>
        <time>2012-10-22T08:40:30Z</time>
      </trkpt>
      <trkpt lat="47.976924860849977" lon="14.354925155639648">
        <ele>257.79998779296898</ele>
        <time>2012-10-22T08:40:31Z</time>
      </trkpt>
      <trkpt lat="47.976989736780524" lon="14.354895567521453">
        <ele>257.39999389648398</ele>
        <time>2012-10-22T08:40:32Z</time>
      </trkpt>
      <trkpt lat="47.977050757035613" lon="14.354867907240987">
        <ele>257</ele>
        <time>2012-10-22T08:40:33Z</time>
      </trkpt>
      <trkpt lat="47.977115632966161" lon="14.354835469275713">
        <ele>256.60000610351602</ele>
        <time>2012-10-22T08:40:34Z</time>
      </trkpt>
      <trkpt lat="47.97741319052875" lon="14.354659114032984">
        <ele>256.60000610351602</ele>
        <time>2012-10-22T08:40:39Z</time>
      </trkpt>
      <trkpt lat="47.977722147479653" lon="14.35446641407907">
        <ele>256.60000610351602</ele>
        <time>2012-10-22T08:40:45Z</time>
      </trkpt>
      <trkpt lat="47.977821389213204" lon="14.354410171508789">
        <ele>256.60000610351602</ele>
        <time>2012-10-22T08:40:47Z</time>
      </trkpt>
      <trkpt lat="47.977962456643581" lon="14.354308163747191">
        <ele>256.60000610351602</ele>
        <time>2012-10-22T08:40:50Z</time>
      </trkpt>
      <trkpt lat="47.978012077510357" lon="14.354282347485423">
        <ele>257</ele>
        <time>2012-10-22T08:40:51Z</time>
      </trkpt>
      <trkpt lat="47.978054070845246" lon="14.354257620871067">
        <ele>257.60000610351602</ele>
        <time>2012-10-22T08:40:52Z</time>
      </trkpt>
      <trkpt lat="47.978099836036563" lon="14.35422895476222">
        <ele>258</ele>
        <time>2012-10-22T08:40:53Z</time>
      </trkpt>
      <trkpt lat="47.97814560122788" lon="14.354197522625327">
        <ele>258.39999389648398</ele>
        <time>2012-10-22T08:40:54Z</time>
      </trkpt>
      <trkpt lat="47.978187594562769" lon="14.35417078435421">
        <ele>258.79998779296898</ele>
        <time>2012-10-22T08:40:55Z</time>
      </trkpt>
      <trkpt lat="47.978233359754086" lon="14.354143124073744">
        <ele>258.79998779296898</ele>
        <time>2012-10-22T08:40:56Z</time>
      </trkpt>
      <trkpt lat="47.978275269269943" lon="14.354121247306466">
        <ele>258.79998779296898</ele>
        <time>2012-10-22T08:40:57Z</time>
      </trkpt>
      <trkpt lat="47.978454558178782" lon="14.354060143232346">
        <ele>258.79998779296898</ele>
        <time>2012-10-22T08:41:01Z</time>
      </trkpt>
      <trkpt lat="47.978805508464575" lon="14.354014378041029">
        <ele>258.79998779296898</ele>
        <time>2012-10-22T08:41:07Z</time>
      </trkpt>
      <trkpt lat="47.979282354936004" lon="14.354006750509143">
        <ele>258.79998779296898</ele>
        <time>2012-10-22T08:41:14Z</time>
      </trkpt>
      <trkpt lat="47.979347230866551" lon="14.354009600356221">
        <ele>258.39999389648398</ele>
        <time>2012-10-22T08:41:15Z</time>
      </trkpt>
      <trkpt lat="47.979419734328985" lon="14.35401538386941">
        <ele>257.79998779296898</ele>
        <time>2012-10-22T08:41:16Z</time>
      </trkpt>
      <trkpt lat="47.979499781504273" lon="14.354025861248374">
        <ele>257.39999389648398</ele>
        <time>2012-10-22T08:41:17Z</time>
      </trkpt>
      <trkpt lat="47.979576140642166" lon="14.35403248295188">
        <ele>257</ele>
        <time>2012-10-22T08:41:18Z</time>
      </trkpt>
      <trkpt lat="47.979648560285568" lon="14.354038266465068">
        <ele>256.60000610351602</ele>
        <time>2012-10-22T08:41:19Z</time>
      </trkpt>
      <trkpt lat="47.979721063748002" lon="14.354045893996954">
        <ele>256.60000610351602</ele>
        <time>2012-10-22T08:41:20Z</time>
      </trkpt>
      <trkpt lat="47.980010993778706" lon="14.354096436873078">
        <ele>256.20001220703102</ele>
        <time>2012-10-22T08:41:24Z</time>
      </trkpt>
      <trkpt lat="47.980083497241139" lon="14.354111691936851">
        <ele>255.60000610351599</ele>
        <time>2012-10-22T08:41:25Z</time>
      </trkpt>
      <trkpt lat="47.980163544416428" lon="14.354133568704128">
        <ele>255.19999694824199</ele>
        <time>2012-10-22T08:41:26Z</time>
      </trkpt>
      <trkpt lat="47.980243675410748" lon="14.354156535118818">
        <ele>254.80000305175801</ele>
        <time>2012-10-22T08:41:27Z</time>
      </trkpt>
      <trkpt lat="47.980323806405067" lon="14.354176484048367">
        <ele>254.39999389648401</ele>
        <time>2012-10-22T08:41:28Z</time>
      </trkpt>
      <trkpt lat="47.980495467782021" lon="14.354206072166562">
        <ele>254</ele>
        <time>2012-10-22T08:41:30Z</time>
      </trkpt>
      <trkpt lat="47.980583226308227" lon="14.354211771860719">
        <ele>253.39999389648401</ele>
        <time>2012-10-22T08:41:31Z</time>
      </trkpt>
      <trkpt lat="47.980678528547287" lon="14.354212777689099">
        <ele>252.39999389648401</ele>
        <time>2012-10-22T08:41:32Z</time>
      </trkpt>
      <trkpt lat="47.980773914605379" lon="14.35420892201364">
        <ele>251.80000305175801</ele>
        <time>2012-10-22T08:41:33Z</time>
      </trkpt>
      <trkpt lat="47.980865444988012" lon="14.354195594787598">
        <ele>251.19999694824199</ele>
        <time>2012-10-22T08:41:34Z</time>
      </trkpt>
      <trkpt lat="47.980957059189677" lon="14.35417078435421">
        <ele>250.60000610351599</ele>
        <time>2012-10-22T08:41:35Z</time>
      </trkpt>
      <trkpt lat="47.981052361428738" lon="14.354127869009972">
        <ele>249.80000305175801</ele>
        <time>2012-10-22T08:41:36Z</time>
      </trkpt>
      <trkpt lat="47.98114774748683" lon="14.354071626439691">
        <ele>249.19999694824199</ele>
        <time>2012-10-22T08:41:37Z</time>
      </trkpt>
      <trkpt lat="47.981239277869463" lon="14.354004822671413">
        <ele>248.39999389648401</ele>
        <time>2012-10-22T08:41:38Z</time>
      </trkpt>
      <trkpt lat="47.981334663927555" lon="14.353931397199631">
        <ele>247.60000610351599</ele>
        <time>2012-10-22T08:41:39Z</time>
      </trkpt>
      <trkpt lat="47.981430049985647" lon="14.353848416358232">
        <ele>247</ele>
        <time>2012-10-22T08:41:40Z</time>
      </trkpt>
      <trkpt lat="47.981517808511853" lon="14.353764513507485">
        <ele>246.19999694824199</ele>
        <time>2012-10-22T08:41:41Z</time>
      </trkpt>
      <trkpt lat="47.9816017113626" lon="14.353684466332197">
        <ele>245.80000305175801</ele>
        <time>2012-10-22T08:41:42Z</time>
      </trkpt>
      <trkpt lat="47.981685614213347" lon="14.353611962869763">
        <ele>245.19999694824199</ele>
        <time>2012-10-22T08:41:43Z</time>
      </trkpt>
      <trkpt lat="47.981769600883126" lon="14.353549936786294">
        <ele>244.60000610351599</ele>
        <time>2012-10-22T08:41:44Z</time>
      </trkpt>
      <trkpt lat="47.981845876201987" lon="14.353495622053742">
        <ele>244</ele>
        <time>2012-10-22T08:41:45Z</time>
      </trkpt>
      <trkpt lat="47.981925923377275" lon="14.353448851034045">
        <ele>243.39999389648401</ele>
        <time>2012-10-22T08:41:46Z</time>
      </trkpt>
      <trkpt lat="47.982231108471751" lon="14.353357320651412">
        <ele>243.39999389648401</ele>
        <time>2012-10-22T08:41:50Z</time>
      </trkpt>
      <trkpt lat="47.982582058757544" lon="14.353375425562263">
        <ele>243.39999389648401</ele>
        <time>2012-10-22T08:41:55Z</time>
      </trkpt>
      <trkpt lat="47.982963602989912" lon="14.353555720299482">
        <ele>243.39999389648401</ele>
        <time>2012-10-22T08:42:01Z</time>
      </trkpt>
      <trkpt lat="47.983303070068359" lon="14.353767363354564">
        <ele>243.39999389648401</ele>
        <time>2012-10-22T08:42:07Z</time>
      </trkpt>
      <trkpt lat="47.983413711190224" lon="14.353797873482108">
        <ele>243.39999389648401</ele>
        <time>2012-10-22T08:42:09Z</time>
      </trkpt>
      <trkpt lat="47.983646392822266" lon="14.353838944807649">
        <ele>243.39999389648401</ele>
        <time>2012-10-22T08:42:13Z</time>
      </trkpt>
      <trkpt lat="47.98393246717751" lon="14.353919997811317">
        <ele>243.39999389648401</ele>
        <time>2012-10-22T08:42:18Z</time>
      </trkpt>
      <trkpt lat="47.984039336442947" lon="14.353988645598292">
        <ele>243.39999389648401</ele>
        <time>2012-10-22T08:42:20Z</time>
      </trkpt>
      <trkpt lat="47.984306300058961" lon="14.354269942268729">
        <ele>243.39999389648401</ele>
        <time>2012-10-22T08:42:26Z</time>
      </trkpt>
      <trkpt lat="47.984367404133081" lon="14.354359628632665">
        <ele>243.39999389648401</ele>
        <time>2012-10-22T08:42:30Z</time>
      </trkpt>
      <trkpt lat="47.984367404133081" lon="14.354373961687088">
        <ele>243.39999389648401</ele>
        <time>2012-10-22T08:42:35Z</time>
      </trkpt>
      <trkpt lat="47.984367404133081" lon="14.354373961687088">
        <ele>243.39999389648401</ele>
        <time>2012-10-22T08:42:46Z</time>
      </trkpt>
      <trkpt lat="47.984367404133081" lon="14.354373961687088">
        <ele>243.39999389648401</ele>
        <time>2012-10-22T08:43:02Z</time>
      </trkpt>
      <trkpt lat="47.984367404133081" lon="14.354373961687088">
        <ele>243.39999389648401</ele>
        <time>2012-10-22T08:43:12Z</time>
      </trkpt>
      <trkpt lat="47.984363548457623" lon="14.354376811534166">
        <ele>243.39999389648401</ele>
        <time>2012-10-22T08:43:22Z</time>
      </trkpt>
      <trkpt lat="47.984386431053281" lon="14.354398688301444">
        <ele>243.39999389648401</ele>
        <time>2012-10-22T08:43:29Z</time>
      </trkpt>
      <trkpt lat="47.9844855889678" lon="14.354539839550853">
        <ele>243.39999389648401</ele>
        <time>2012-10-22T08:43:35Z</time>
      </trkpt>
      <trkpt lat="47.984641995280981" lon="14.354768749326468">
        <ele>243.39999389648401</ele>
        <time>2012-10-22T08:43:41Z</time>
      </trkpt>
      <trkpt lat="47.98472598195076" lon="14.354927083477378">
        <ele>243.39999389648401</ele>
        <time>2012-10-22T08:43:44Z</time>
      </trkpt>
      <trkpt lat="47.984817512333393" lon="14.355152137577534">
        <ele>243.39999389648401</ele>
        <time>2012-10-22T08:43:48Z</time>
      </trkpt>
      <trkpt lat="47.984958663582802" lon="14.355601323768497">
        <ele>243.39999389648401</ele>
        <time>2012-10-22T08:43:55Z</time>
      </trkpt>
      <trkpt lat="47.985084559768438" lon="14.356142040342093">
        <ele>243.39999389648401</ele>
        <time>2012-10-22T08:44:03Z</time>
      </trkpt>
      <trkpt lat="47.985126469284296" lon="14.356320407241583">
        <ele>243.39999389648401</ele>
        <time>2012-10-22T08:44:06Z</time>
      </trkpt>
      <trkpt lat="47.985164606943727" lon="14.356481591239572">
        <ele>243.39999389648401</ele>
        <time>2012-10-22T08:44:09Z</time>
      </trkpt>
      <trkpt lat="47.98519897274673" lon="14.356893561780453">
        <ele>243.39999389648401</ele>
        <time>2012-10-22T08:44:16Z</time>
      </trkpt>
      <trkpt lat="47.985179862007499" lon="14.357345597818494">
        <ele>243.39999389648401</ele>
        <time>2012-10-22T08:44:22Z</time>
      </trkpt>
      <trkpt lat="47.985088331624866" lon="14.358069458976388">
        <ele>243.39999389648401</ele>
        <time>2012-10-22T08:44:31Z</time>
      </trkpt>
      <trkpt lat="47.985092187300324" lon="14.358646385371685">
        <ele>243.39999389648401</ele>
        <time>2012-10-22T08:44:38Z</time>
      </trkpt>
      <trkpt lat="47.985126469284296" lon="14.359294893220067">
        <ele>243.39999389648401</ele>
        <time>2012-10-22T08:44:46Z</time>
      </trkpt>
      <trkpt lat="47.985168462619185" lon="14.359990088269114">
        <ele>243.39999389648401</ele>
        <time>2012-10-22T08:44:55Z</time>
      </trkpt>
      <trkpt lat="47.985248593613505" lon="14.360571876168251">
        <ele>243.39999389648401</ele>
        <time>2012-10-22T08:45:03Z</time>
      </trkpt>
      <trkpt lat="47.985408771783113" lon="14.361103037372231">
        <ele>243.39999389648401</ele>
        <time>2012-10-22T08:45:11Z</time>
      </trkpt>
      <trkpt lat="47.98561479896307" lon="14.361512158066034">
        <ele>243.39999389648401</ele>
        <time>2012-10-22T08:45:18Z</time>
      </trkpt>
      <trkpt lat="47.985828369855881" lon="14.361824970692396">
        <ele>243.39999389648401</ele>
        <time>2012-10-22T08:45:24Z</time>
      </trkpt>
      <trkpt lat="47.985904728993773" lon="14.361916501075029">
        <ele>243.39999389648401</ele>
        <time>2012-10-22T08:45:26Z</time>
      </trkpt>
      <trkpt lat="47.986209830269217" lon="14.362180698662996">
        <ele>243.39999389648401</ele>
        <time>2012-10-22T08:45:33Z</time>
      </trkpt>
      <trkpt lat="47.986537897959352" lon="14.362348588183522">
        <ele>243.39999389648401</ele>
        <time>2012-10-22T08:45:40Z</time>
      </trkpt>
      <trkpt lat="47.986972834914923" lon="14.362539276480675">
        <ele>243.39999389648401</ele>
        <time>2012-10-22T08:45:49Z</time>
      </trkpt>
      <trkpt lat="47.987339040264487" lon="14.362694760784507">
        <ele>243.80000305175801</ele>
        <time>2012-10-22T08:45:57Z</time>
      </trkpt>
      <trkpt lat="47.987380949780345" lon="14.362713787704706">
        <ele>244.19999694824199</ele>
        <time>2012-10-22T08:45:58Z</time>
      </trkpt>
      <trkpt lat="47.987422943115234" lon="14.362730048596859">
        <ele>244.60000610351599</ele>
        <time>2012-10-22T08:45:59Z</time>
      </trkpt>
      <trkpt lat="47.987464936450124" lon="14.362750081345439">
        <ele>245</ele>
        <time>2012-10-22T08:46:00Z</time>
      </trkpt>
      <trkpt lat="47.987506845965981" lon="14.362768186256289">
        <ele>245.39999389648401</ele>
        <time>2012-10-22T08:46:01Z</time>
      </trkpt>
      <trkpt lat="47.98774715512991" lon="14.362879749387503">
        <ele>245.39999389648401</ele>
        <time>2012-10-22T08:46:07Z</time>
      </trkpt>
      <trkpt lat="47.988037085160613" lon="14.363020900636911">
        <ele>245.39999389648401</ele>
        <time>2012-10-22T08:46:15Z</time>
      </trkpt>
      <trkpt lat="47.988071450963616" lon="14.363034227862954">
        <ele>245.80000305175801</ele>
        <time>2012-10-22T08:46:16Z</time>
      </trkpt>
      <trkpt lat="47.988105732947588" lon="14.363044705241919">
        <ele>246.39999389648401</ele>
        <time>2012-10-22T08:46:17Z</time>
      </trkpt>
      <trkpt lat="47.988140098750591" lon="14.363055266439915">
        <ele>246.80000305175801</ele>
        <time>2012-10-22T08:46:18Z</time>
      </trkpt>
      <trkpt lat="47.988178236410022" lon="14.363066665828228">
        <ele>247.19999694824199</ele>
        <time>2012-10-22T08:46:19Z</time>
      </trkpt>
      <trkpt lat="47.988212602213025" lon="14.363080998882651">
        <ele>247.60000610351599</ele>
        <time>2012-10-22T08:46:20Z</time>
      </trkpt>
      <trkpt lat="47.988311760127544" lon="14.363121064379811">
        <ele>247.60000610351599</ele>
        <time>2012-10-22T08:46:23Z</time>
      </trkpt>
      <trkpt lat="47.988636055961251" lon="14.363142941147089">
        <ele>247.60000610351599</ele>
        <time>2012-10-22T08:46:32Z</time>
      </trkpt>
      <trkpt lat="47.988960267975926" lon="14.363088626414537">
        <ele>248</ele>
        <time>2012-10-22T08:46:41Z</time>
      </trkpt>
      <trkpt lat="47.98899463377893" lon="14.363076221197844">
        <ele>248.39999389648401</ele>
        <time>2012-10-22T08:46:42Z</time>
      </trkpt>
      <trkpt lat="47.989028915762901" lon="14.363062893971801">
        <ele>248.80000305175801</ele>
        <time>2012-10-22T08:46:43Z</time>
      </trkpt>
      <trkpt lat="47.989063281565905" lon="14.363044705241919">
        <ele>249.19999694824199</ele>
        <time>2012-10-22T08:46:44Z</time>
      </trkpt>
      <trkpt lat="47.989097563549876" lon="14.363027606159449">
        <ele>249.60000610351599</ele>
        <time>2012-10-22T08:46:45Z</time>
      </trkpt>
      <trkpt lat="47.989276852458715" lon="14.362952252849936">
        <ele>249.60000610351599</ele>
        <time>2012-10-22T08:46:50Z</time>
      </trkpt>
      <trkpt lat="47.98958589322865" lon="14.362840689718723">
        <ele>249.60000610351599</ele>
        <time>2012-10-22T08:46:58Z</time>
      </trkpt>
      <trkpt lat="47.989826202392578" lon="14.362811101600528">
        <ele>249.60000610351599</ele>
        <time>2012-10-22T08:47:05Z</time>
      </trkpt>
      <trkpt lat="47.98988345079124" lon="14.362796768546104">
        <ele>250</ele>
        <time>2012-10-22T08:47:08Z</time>
      </trkpt>
      <trkpt lat="47.989913960918784" lon="14.362796768546104">
        <ele>250.39999389648401</ele>
        <time>2012-10-22T08:47:09Z</time>
      </trkpt>
      <trkpt lat="47.98994061537087" lon="14.362796768546104">
        <ele>250.80000305175801</ele>
        <time>2012-10-22T08:47:10Z</time>
      </trkpt>
      <trkpt lat="47.989971125498414" lon="14.362797774374485">
        <ele>251.19999694824199</ele>
        <time>2012-10-22T08:47:11Z</time>
      </trkpt>
      <trkpt lat="47.989994008094072" lon="14.362797774374485">
        <ele>251.80000305175801</ele>
        <time>2012-10-22T08:47:12Z</time>
      </trkpt>
      <trkpt lat="47.99017715267837" lon="14.362820656970143">
        <ele>252.19999694824199</ele>
        <time>2012-10-22T08:47:19Z</time>
      </trkpt>
      <trkpt lat="47.990200035274029" lon="14.362827278673649">
        <ele>252.60000610351599</ele>
        <time>2012-10-22T08:47:20Z</time>
      </trkpt>
      <trkpt lat="47.990222917869687" lon="14.362833062186837">
        <ele>253</ele>
        <time>2012-10-22T08:47:21Z</time>
      </trkpt>
      <trkpt lat="47.990245800465345" lon="14.362833062186837">
        <ele>253.39999389648401</ele>
        <time>2012-10-22T08:47:22Z</time>
      </trkpt>
      <trkpt lat="47.990268683061004" lon="14.362836834043264">
        <ele>253.80000305175801</ele>
        <time>2012-10-22T08:47:23Z</time>
      </trkpt>
      <trkpt lat="47.990371696650982" lon="14.362860638648272">
        <ele>253.80000305175801</ele>
        <time>2012-10-22T08:47:27Z</time>
      </trkpt>
      <trkpt lat="47.990524331107736" lon="14.362921742722392">
        <ele>254.19999694824199</ele>
        <time>2012-10-22T08:47:33Z</time>
      </trkpt>
      <trkpt lat="47.990547213703394" lon="14.362934147939086">
        <ele>254.60000610351599</ele>
        <time>2012-10-22T08:47:34Z</time>
      </trkpt>
      <trkpt lat="47.990570096299052" lon="14.362947475165129">
        <ele>255</ele>
        <time>2012-10-22T08:47:35Z</time>
      </trkpt>
      <trkpt lat="47.990596750751138" lon="14.362955102697015">
        <ele>255.39999389648401</ele>
        <time>2012-10-22T08:47:36Z</time>
      </trkpt>
      <trkpt lat="47.990623489022255" lon="14.362965580075979">
        <ele>256</ele>
        <time>2012-10-22T08:47:37Z</time>
      </trkpt>
      <trkpt lat="47.990798922255635" lon="14.363040933385491">
        <ele>256</ele>
        <time>2012-10-22T08:47:44Z</time>
      </trkpt>
      <trkpt lat="47.990982066839933" lon="14.363113436847925">
        <ele>256</ele>
        <time>2012-10-22T08:47:51Z</time>
      </trkpt>
      <trkpt lat="47.99124525859952" lon="14.36326221562922">
        <ele>256</ele>
        <time>2012-10-22T08:48:00Z</time>
      </trkpt>
      <trkpt lat="47.991508450359106" lon="14.363462459295988">
        <ele>256</ele>
        <time>2012-10-22T08:48:07Z</time>
      </trkpt>
      <trkpt lat="47.991718333214521" lon="14.363682735711336">
        <ele>256</ele>
        <time>2012-10-22T08:48:13Z</time>
      </trkpt>
      <trkpt lat="47.991752615198493" lon="14.363720873370767">
        <ele>256</ele>
        <time>2012-10-22T08:48:14Z</time>
      </trkpt>
      <trkpt lat="47.99203491769731" lon="14.364069979637861">
        <ele>256</ele>
        <time>2012-10-22T08:48:22Z</time>
      </trkpt>
      <trkpt lat="47.992256199941039" lon="14.36440852470696">
        <ele>256</ele>
        <time>2012-10-22T08:48:28Z</time>
      </trkpt>
      <trkpt lat="47.992511764168739" lon="14.364940607920289">
        <ele>256</ele>
        <time>2012-10-22T08:48:36Z</time>
      </trkpt>
      <trkpt lat="47.992698680609465" lon="14.365435559302568">
        <ele>256</ele>
        <time>2012-10-22T08:48:43Z</time>
      </trkpt>
      <trkpt lat="47.992866486310959" lon="14.366010641679168">
        <ele>256</ele>
        <time>2012-10-22T08:48:51Z</time>
      </trkpt>
      <trkpt lat="47.993011493235826" lon="14.366510370746255">
        <ele>256</ele>
        <time>2012-10-22T08:48:58Z</time>
      </trkpt>
      <trkpt lat="47.993202181532979" lon="14.367179833352566">
        <ele>256</ele>
        <time>2012-10-22T08:49:07Z</time>
      </trkpt>
      <trkpt lat="47.993373842909932" lon="14.36776539310813">
        <ele>256</ele>
        <time>2012-10-22T08:49:15Z</time>
      </trkpt>
      <trkpt lat="47.993591269478202" lon="14.36855505220592">
        <ele>256</ele>
        <time>2012-10-22T08:49:26Z</time>
      </trkpt>
      <trkpt lat="47.993717165663838" lon="14.368976578116417">
        <ele>256</ele>
        <time>2012-10-22T08:49:32Z</time>
      </trkpt>
      <trkpt lat="47.993926964700222" lon="14.369524922221899">
        <ele>256</ele>
        <time>2012-10-22T08:49:40Z</time>
      </trkpt>
      <trkpt lat="47.994010951370001" lon="14.369831113144755">
        <ele>255.60000610351599</ele>
        <time>2012-10-22T08:49:44Z</time>
      </trkpt>
      <trkpt lat="47.9940299782902" lon="14.369914093986154">
        <ele>255</ele>
        <time>2012-10-22T08:49:45Z</time>
      </trkpt>
      <trkpt lat="47.994041461497545" lon="14.36999891884625">
        <ele>254.60000610351599</ele>
        <time>2012-10-22T08:49:46Z</time>
      </trkpt>
      <trkpt lat="47.994049089029431" lon="14.370087599381804">
        <ele>253.80000305175801</ele>
        <time>2012-10-22T08:49:47Z</time>
      </trkpt>
      <trkpt lat="47.994045233353972" lon="14.3706283159554">
        <ele>253.80000305175801</ele>
        <time>2012-10-22T08:49:53Z</time>
      </trkpt>
      <trkpt lat="47.994007095694542" lon="14.371357876807451">
        <ele>253.80000305175801</ele>
        <time>2012-10-22T08:50:01Z</time>
      </trkpt>
      <trkpt lat="47.993968958035111" lon="14.371953997761011">
        <ele>253.39999389648401</ele>
        <time>2012-10-22T08:50:08Z</time>
      </trkpt>
      <trkpt lat="47.993965186178684" lon="14.372037900611758">
        <ele>253</ele>
        <time>2012-10-22T08:50:09Z</time>
      </trkpt>
      <trkpt lat="47.993957558646798" lon="14.372118953615427">
        <ele>252.60000610351599</ele>
        <time>2012-10-22T08:50:10Z</time>
      </trkpt>
      <trkpt lat="47.993953702971339" lon="14.372199084609747">
        <ele>252.19999694824199</ele>
        <time>2012-10-22T08:50:11Z</time>
      </trkpt>
      <trkpt lat="47.993949931114912" lon="14.372280137613416">
        <ele>251.80000305175801</ele>
        <time>2012-10-22T08:50:12Z</time>
      </trkpt>
      <trkpt lat="47.993915565311909" lon="14.372993437573314">
        <ele>251.80000305175801</ele>
        <time>2012-10-22T08:50:21Z</time>
      </trkpt>
      <trkpt lat="47.993904082104564" lon="14.373741187155247">
        <ele>251.80000305175801</ele>
        <time>2012-10-22T08:50:30Z</time>
      </trkpt>
      <trkpt lat="47.993930820375681" lon="14.374391539022326">
        <ele>251.80000305175801</ele>
        <time>2012-10-22T08:50:37Z</time>
      </trkpt>
      <trkpt lat="47.993995696306229" lon="14.374774005264044">
        <ele>251.39999389648401</ele>
        <time>2012-10-22T08:50:41Z</time>
      </trkpt>
      <trkpt lat="47.994018578901887" lon="14.374875091016293">
        <ele>251</ele>
        <time>2012-10-22T08:50:42Z</time>
      </trkpt>
      <trkpt lat="47.994045233353972" lon="14.374975170940161">
        <ele>250.60000610351599</ele>
        <time>2012-10-22T08:50:43Z</time>
      </trkpt>
      <trkpt lat="47.994075743481517" lon="14.375081034377217">
        <ele>250</ele>
        <time>2012-10-22T08:50:44Z</time>
      </trkpt>
      <trkpt lat="47.994106253609061" lon="14.375178348273039">
        <ele>249.60000610351599</ele>
        <time>2012-10-22T08:50:45Z</time>
      </trkpt>
      <trkpt lat="47.9942855425179" lon="14.375734319910407">
        <ele>249.60000610351599</ele>
        <time>2012-10-22T08:50:51Z</time>
      </trkpt>
      <trkpt lat="47.994453432038426" lon="14.376339912414551">
        <ele>249.60000610351599</ele>
        <time>2012-10-22T08:50:58Z</time>
      </trkpt>
      <trkpt lat="47.994628865271807" lon="14.376984564587474">
        <ele>249.60000610351599</ele>
        <time>2012-10-22T08:51:06Z</time>
      </trkpt>
      <trkpt lat="47.994750989601016" lon="14.37760541215539">
        <ele>249.60000610351599</ele>
        <time>2012-10-22T08:51:14Z</time>
      </trkpt>
      <trkpt lat="47.99480052664876" lon="14.378252997994423">
        <ele>249.60000610351599</ele>
        <time>2012-10-22T08:51:22Z</time>
      </trkpt>
      <trkpt lat="47.994808237999678" lon="14.378631608560681">
        <ele>249.19999694824199</ele>
        <time>2012-10-22T08:51:26Z</time>
      </trkpt>
      <trkpt lat="47.994808237999678" lon="14.37873168848455">
        <ele>248.80000305175801</ele>
        <time>2012-10-22T08:51:27Z</time>
      </trkpt>
      <trkpt lat="47.994812009856105" lon="14.378833780065179">
        <ele>248.39999389648401</ele>
        <time>2012-10-22T08:51:28Z</time>
      </trkpt>
      <trkpt lat="47.994815865531564" lon="14.378942493349314">
        <ele>248</ele>
        <time>2012-10-22T08:51:29Z</time>
      </trkpt>
      <trkpt lat="47.994819637387991" lon="14.379049278795719">
        <ele>247.39999389648401</ele>
        <time>2012-10-22T08:51:30Z</time>
      </trkpt>
      <trkpt lat="47.994838748127222" lon="14.379577673971653">
        <ele>247</ele>
        <time>2012-10-22T08:51:35Z</time>
      </trkpt>
      <trkpt lat="47.994842519983649" lon="14.379676831886172">
        <ele>246.60000610351599</ele>
        <time>2012-10-22T08:51:36Z</time>
      </trkpt>
      <trkpt lat="47.994850147515535" lon="14.379780767485499">
        <ele>246.19999694824199</ele>
        <time>2012-10-22T08:51:37Z</time>
      </trkpt>
      <trkpt lat="47.994854003190994" lon="14.379879925400019">
        <ele>245.80000305175801</ele>
        <time>2012-10-22T08:51:38Z</time>
      </trkpt>
      <trkpt lat="47.994857775047421" lon="14.379973383620381">
        <ele>245.39999389648401</ele>
        <time>2012-10-22T08:51:39Z</time>
      </trkpt>
      <trkpt lat="47.994895912706852" lon="14.380320562049747">
        <ele>245.39999389648401</ele>
        <time>2012-10-22T08:51:43Z</time>
      </trkpt>
      <trkpt lat="47.994976043701172" lon="14.380941409617662">
        <ele>245.39999389648401</ele>
        <time>2012-10-22T08:51:51Z</time>
      </trkpt>
      <trkpt lat="47.995044691488147" lon="14.381365785375237">
        <ele>245.39999389648401</ele>
        <time>2012-10-22T08:51:57Z</time>
      </trkpt>
      <trkpt lat="47.995056174695492" lon="14.381433511152864">
        <ele>245.39999389648401</ele>
        <time>2012-10-22T08:51:58Z</time>
      </trkpt>
      <trkpt lat="47.995166815817356" lon="14.382043797522783">
        <ele>245.39999389648401</ele>
        <time>2012-10-22T08:52:07Z</time>
      </trkpt>
      <trkpt lat="47.995201097801328" lon="14.382258374243975">
        <ele>245.39999389648401</ele>
        <time>2012-10-22T08:52:10Z</time>
      </trkpt>
      <trkpt lat="47.995243091136217" lon="14.382617957890034">
        <ele>245.39999389648401</ele>
        <time>2012-10-22T08:52:15Z</time>
      </trkpt>
      <trkpt lat="47.99525449052453" lon="14.382761958986521">
        <ele>245.39999389648401</ele>
        <time>2012-10-22T08:52:17Z</time>
      </trkpt>
      <trkpt lat="47.995277373120189" lon="14.38311668112874">
        <ele>245.39999389648401</ele>
        <time>2012-10-22T08:52:22Z</time>
      </trkpt>
      <trkpt lat="47.995269745588303" lon="14.383622193709016">
        <ele>245.39999389648401</ele>
        <time>2012-10-22T08:52:29Z</time>
      </trkpt>
      <trkpt lat="47.995243091136217" lon="14.384283106774092">
        <ele>245.39999389648401</ele>
        <time>2012-10-22T08:52:38Z</time>
      </trkpt>
      <trkpt lat="47.995235463604331" lon="14.384870510548353">
        <ele>245.39999389648401</ele>
        <time>2012-10-22T08:52:46Z</time>
      </trkpt>
      <trkpt lat="47.995258346199989" lon="14.385349284857512">
        <ele>245.39999389648401</ele>
        <time>2012-10-22T08:52:53Z</time>
      </trkpt>
      <trkpt lat="47.995269745588303" lon="14.385417932644486">
        <ele>245.39999389648401</ele>
        <time>2012-10-22T08:52:54Z</time>
      </trkpt>
      <trkpt lat="47.995292628183961" lon="14.385655391961336">
        <ele>245.80000305175801</ele>
        <time>2012-10-22T08:52:58Z</time>
      </trkpt>
      <trkpt lat="47.995300255715847" lon="14.385712640359998">
        <ele>246.39999389648401</ele>
        <time>2012-10-22T08:52:59Z</time>
      </trkpt>
      <trkpt lat="47.995307883247733" lon="14.385770810768008">
        <ele>246.80000305175801</ele>
        <time>2012-10-22T08:53:00Z</time>
      </trkpt>
      <trkpt lat="47.995315510779619" lon="14.385822275653481">
        <ele>247.19999694824199</ele>
        <time>2012-10-22T08:53:01Z</time>
      </trkpt>
      <trkpt lat="47.995326993986964" lon="14.385879524052143">
        <ele>247.60000610351599</ele>
        <time>2012-10-22T08:53:02Z</time>
      </trkpt>
      <trkpt lat="47.995346104726195" lon="14.386035930365324">
        <ele>247.60000610351599</ele>
        <time>2012-10-22T08:53:05Z</time>
      </trkpt>
      <trkpt lat="47.995365131646395" lon="14.386137938126922">
        <ele>248</ele>
        <time>2012-10-22T08:53:07Z</time>
      </trkpt>
      <trkpt lat="47.99537661485374" lon="14.386190408840775">
        <ele>248.39999389648401</ele>
        <time>2012-10-22T08:53:08Z</time>
      </trkpt>
      <trkpt lat="47.995388014242053" lon="14.386242879554629">
        <ele>248.80000305175801</ele>
        <time>2012-10-22T08:53:09Z</time>
      </trkpt>
      <trkpt lat="47.995399497449398" lon="14.386297194287181">
        <ele>249.19999694824199</ele>
        <time>2012-10-22T08:53:10Z</time>
      </trkpt>
      <trkpt lat="47.995407124981284" lon="14.386351592838764">
        <ele>249.60000610351599</ele>
        <time>2012-10-22T08:53:11Z</time>
      </trkpt>
      <trkpt lat="47.995437635108829" lon="14.38651847653091">
        <ele>249.60000610351599</ele>
        <time>2012-10-22T08:53:14Z</time>
      </trkpt>
      <trkpt lat="47.995521537959576" lon="14.386958107352257">
        <ele>249.60000610351599</ele>
        <time>2012-10-22T08:53:22Z</time>
      </trkpt>
      <trkpt lat="47.995609296485782" lon="14.387242337688804">
        <ele>249.60000610351599</ele>
        <time>2012-10-22T08:53:28Z</time>
      </trkpt>
      <trkpt lat="47.995731336995959" lon="14.387614242732525">
        <ele>249.60000610351599</ele>
        <time>2012-10-22T08:53:34Z</time>
      </trkpt>
      <trkpt lat="47.995902998372912" lon="14.38809678889811">
        <ele>249.60000610351599</ele>
        <time>2012-10-22T08:53:40Z</time>
      </trkpt>
      <trkpt lat="47.996166190132499" lon="14.388785362243652">
        <ele>249.60000610351599</ele>
        <time>2012-10-22T08:53:49Z</time>
      </trkpt>
      <trkpt lat="47.996341707184911" lon="14.38920496031642">
        <ele>249.60000610351599</ele>
        <time>2012-10-22T08:53:56Z</time>
      </trkpt>
      <trkpt lat="47.996479002758861" lon="14.389559766277671">
        <ele>249.60000610351599</ele>
        <time>2012-10-22T08:54:03Z</time>
      </trkpt>
      <trkpt lat="47.996643036603928" lon="14.389922115951777">
        <ele>249.60000610351599</ele>
        <time>2012-10-22T08:54:11Z</time>
      </trkpt>
      <trkpt lat="47.996833808720112" lon="14.390250183641911">
        <ele>249.60000610351599</ele>
        <time>2012-10-22T08:54:18Z</time>
      </trkpt>
      <trkpt lat="47.997062718495727" lon="14.39052770845592">
        <ele>249.60000610351599</ele>
        <time>2012-10-22T08:54:24Z</time>
      </trkpt>
      <trkpt lat="47.99740981310606" lon="14.390936829149723">
        <ele>249.60000610351599</ele>
        <time>2012-10-22T08:54:33Z</time>
      </trkpt>
      <trkpt lat="47.997623467817903" lon="14.391178144142032">
        <ele>249.60000610351599</ele>
        <time>2012-10-22T08:54:39Z</time>
      </trkpt>
      <trkpt lat="47.997734108939767" lon="14.391317367553711">
        <ele>249.60000610351599</ele>
        <time>2012-10-22T08:54:42Z</time>
      </trkpt>
      <trkpt lat="47.997898142784834" lon="14.391482323408127">
        <ele>249.60000610351599</ele>
        <time>2012-10-22T08:54:46Z</time>
      </trkpt>
      <trkpt lat="47.997974418103695" lon="14.391568154096603">
        <ele>249.60000610351599</ele>
        <time>2012-10-22T08:54:48Z</time>
      </trkpt>
      <trkpt lat="47.99812319688499" lon="14.391745598986745">
        <ele>249.60000610351599</ele>
        <time>2012-10-22T08:54:52Z</time>
      </trkpt>
      <trkpt lat="47.998424526304007" lon="14.392106020823121">
        <ele>249.60000610351599</ele>
        <time>2012-10-22T08:54:58Z</time>
      </trkpt>
      <trkpt lat="47.998737338930368" lon="14.392521847039461">
        <ele>249.19999694824199</ele>
        <time>2012-10-22T08:55:04Z</time>
      </trkpt>
      <trkpt lat="47.99879458732903" lon="14.39260290004313">
        <ele>248.80000305175801</ele>
        <time>2012-10-22T08:55:05Z</time>
      </trkpt>
      <trkpt lat="47.99885175190866" lon="14.39268303103745">
        <ele>248.39999389648401</ele>
        <time>2012-10-22T08:55:06Z</time>
      </trkpt>
      <trkpt lat="47.998912772163749" lon="14.39276123419404">
        <ele>248</ele>
        <time>2012-10-22T08:55:07Z</time>
      </trkpt>
      <trkpt lat="47.998973876237869" lon="14.392837509512901">
        <ele>247.60000610351599</ele>
        <time>2012-10-22T08:55:08Z</time>
      </trkpt>
      <trkpt lat="47.999038668349385" lon="14.392916718497872">
        <ele>247</ele>
        <time>2012-10-22T08:55:09Z</time>
      </trkpt>
      <trkpt lat="47.999099772423506" lon="14.392999615520239">
        <ele>246.60000610351599</ele>
        <time>2012-10-22T08:55:10Z</time>
      </trkpt>
      <trkpt lat="47.999156937003136" lon="14.393085446208715">
        <ele>246.19999694824199</ele>
        <time>2012-10-22T08:55:11Z</time>
      </trkpt>
      <trkpt lat="47.999221812933683" lon="14.393173204734921">
        <ele>245.80000305175801</ele>
        <time>2012-10-22T08:55:12Z</time>
      </trkpt>
      <trkpt lat="47.999282833188772" lon="14.393255263566971">
        <ele>245.39999389648401</ele>
        <time>2012-10-22T08:55:13Z</time>
      </trkpt>
      <trkpt lat="47.999473605304956" lon="14.393522227182984">
        <ele>245.39999389648401</ele>
        <time>2012-10-22T08:55:17Z</time>
      </trkpt>
      <trkpt lat="47.999641411006451" lon="14.393771169707179">
        <ele>245.39999389648401</ele>
        <time>2012-10-22T08:55:22Z</time>
      </trkpt>
      <trkpt lat="47.999813072383404" lon="14.394014328718185">
        <ele>245.39999389648401</ele>
        <time>2012-10-22T08:55:28Z</time>
      </trkpt>
      <trkpt lat="47.999885575845838" lon="14.39412496984005">
        <ele>245.80000305175801</ele>
        <time>2012-10-22T08:55:31Z</time>
      </trkpt>
      <trkpt lat="47.999912230297923" lon="14.394160257652402">
        <ele>246.19999694824199</ele>
        <time>2012-10-22T08:55:32Z</time>
      </trkpt>
      <trkpt lat="47.999935112893581" lon="14.394193617627025">
        <ele>246.60000610351599</ele>
        <time>2012-10-22T08:55:33Z</time>
      </trkpt>
      <trkpt lat="47.999958079308271" lon="14.394227061420679">
        <ele>247.60000610351599</ele>
        <time>2012-10-22T08:55:34Z</time>
      </trkpt>
      <trkpt lat="47.999999988824129" lon="14.394296631217003">
        <ele>247.60000610351599</ele>
        <time>2012-10-22T08:55:36Z</time>
      </trkpt>
      <trkpt lat="48.00011825747788" lon="14.394507436081767">
        <ele>248</ele>
        <time>2012-10-22T08:55:42Z</time>
      </trkpt>
      <trkpt lat="48.000141140073538" lon="14.394547501578927">
        <ele>248.39999389648401</ele>
        <time>2012-10-22T08:55:43Z</time>
      </trkpt>
      <trkpt lat="48.000160250812769" lon="14.394586561247706">
        <ele>248.80000305175801</ele>
        <time>2012-10-22T08:55:44Z</time>
      </trkpt>
      <trkpt lat="48.000175505876541" lon="14.394622771069407">
        <ele>249.19999694824199</ele>
        <time>2012-10-22T08:55:45Z</time>
      </trkpt>
      <trkpt lat="48.000198388472199" lon="14.394656214863062">
        <ele>249.60000610351599</ele>
        <time>2012-10-22T08:55:46Z</time>
      </trkpt>
      <trkpt lat="48.000297546386719" lon="14.394844053313136">
        <ele>249.60000610351599</ele>
        <time>2012-10-22T08:55:51Z</time>
      </trkpt>
      <trkpt lat="48.000488318502903" lon="14.395190225914121">
        <ele>249.60000610351599</ele>
        <time>2012-10-22T08:56:00Z</time>
      </trkpt>
      <trkpt lat="48.000686634331942" lon="14.395564058795571">
        <ele>249.60000610351599</ele>
        <time>2012-10-22T08:56:08Z</time>
      </trkpt>
      <trkpt lat="48.000835413113236" lon="14.395840661600232">
        <ele>249.60000610351599</ele>
        <time>2012-10-22T08:56:13Z</time>
      </trkpt>
      <trkpt lat="48.001018557697535" lon="14.396170657128096">
        <ele>249.60000610351599</ele>
        <time>2012-10-22T08:56:18Z</time>
      </trkpt>
      <trkpt lat="48.001132970675826" lon="14.396409038454294">
        <ele>249.60000610351599</ele>
        <time>2012-10-22T08:56:21Z</time>
      </trkpt>
      <trkpt lat="48.001201618462801" lon="14.396571144461632">
        <ele>249.60000610351599</ele>
        <time>2012-10-22T08:56:23Z</time>
      </trkpt>
      <trkpt lat="48.001228356733918" lon="14.396655047312379">
        <ele>249.19999694824199</ele>
        <time>2012-10-22T08:56:24Z</time>
      </trkpt>
      <trkpt lat="48.001251239329576" lon="14.396739033982158">
        <ele>248.80000305175801</ele>
        <time>2012-10-22T08:56:25Z</time>
      </trkpt>
      <trkpt lat="48.001277893781662" lon="14.396822014823556">
        <ele>248.39999389648401</ele>
        <time>2012-10-22T08:56:26Z</time>
      </trkpt>
      <trkpt lat="48.001304632052779" lon="14.396906839683652">
        <ele>248</ele>
        <time>2012-10-22T08:56:27Z</time>
      </trkpt>
      <trkpt lat="48.001327514648438" lon="14.396986970677972">
        <ele>247.60000610351599</ele>
        <time>2012-10-22T08:56:28Z</time>
      </trkpt>
      <trkpt lat="48.001373279839754" lon="14.397164331749082">
        <ele>247.60000610351599</ele>
        <time>2012-10-22T08:56:30Z</time>
      </trkpt>
      <trkpt lat="48.001453410834074" lon="14.397472366690636">
        <ele>247.19999694824199</ele>
        <time>2012-10-22T08:56:33Z</time>
      </trkpt>
      <trkpt lat="48.00148006528616" lon="14.397587785497308">
        <ele>246.80000305175801</ele>
        <time>2012-10-22T08:56:34Z</time>
      </trkpt>
      <trkpt lat="48.00150303170085" lon="14.397710831835866">
        <ele>246.39999389648401</ele>
        <time>2012-10-22T08:56:35Z</time>
      </trkpt>
      <trkpt lat="48.001518286764622" lon="14.397833794355392">
        <ele>246</ele>
        <time>2012-10-22T08:56:36Z</time>
      </trkpt>
      <trkpt lat="48.001529686152935" lon="14.397970167919993">
        <ele>245.39999389648401</ele>
        <time>2012-10-22T08:56:37Z</time>
      </trkpt>
      <trkpt lat="48.001537313684821" lon="14.398104697465897">
        <ele>244.80000305175801</ele>
        <time>2012-10-22T08:56:38Z</time>
      </trkpt>
      <trkpt lat="48.001537313684821" lon="14.398243920877576">
        <ele>244.19999694824199</ele>
        <time>2012-10-22T08:56:39Z</time>
      </trkpt>
      <trkpt lat="48.001529686152935" lon="14.398385994136333">
        <ele>243.39999389648401</ele>
        <time>2012-10-22T08:56:40Z</time>
      </trkpt>
      <trkpt lat="48.001518286764622" lon="14.398529073223472">
        <ele>242.80000305175801</ele>
        <time>2012-10-22T08:56:41Z</time>
      </trkpt>
      <trkpt lat="48.001495320349932" lon="14.39867022447288">
        <ele>242.19999694824199</ele>
        <time>2012-10-22T08:56:42Z</time>
      </trkpt>
      <trkpt lat="48.001464810222387" lon="14.398812297731638">
        <ele>241.60000610351599</ele>
        <time>2012-10-22T08:56:43Z</time>
      </trkpt>
      <trkpt lat="48.00142290070653" lon="14.398953448981047">
        <ele>240.80000305175801</ele>
        <time>2012-10-22T08:56:44Z</time>
      </trkpt>
      <trkpt lat="48.001384763047099" lon="14.399099377915263">
        <ele>240.19999694824199</ele>
        <time>2012-10-22T08:56:45Z</time>
      </trkpt>
      <trkpt lat="48.001350397244096" lon="14.399238601326942">
        <ele>239.60000610351599</ele>
        <time>2012-10-22T08:56:46Z</time>
      </trkpt>
      <trkpt lat="48.001319887116551" lon="14.399385452270508">
        <ele>239</ele>
        <time>2012-10-22T08:56:47Z</time>
      </trkpt>
      <trkpt lat="48.001293148845434" lon="14.399528531357646">
        <ele>237.80000305175801</ele>
        <time>2012-10-22T08:56:48Z</time>
      </trkpt>
      <trkpt lat="48.001266494393349" lon="14.399667754769325">
        <ele>237.19999694824199</ele>
        <time>2012-10-22T08:56:49Z</time>
      </trkpt>
      <trkpt lat="48.00124361179769" lon="14.399804128333926">
        <ele>236.60000610351599</ele>
        <time>2012-10-22T08:56:50Z</time>
      </trkpt>
      <trkpt lat="48.001174964010715" lon="14.400266641750932">
        <ele>236.60000610351599</ele>
        <time>2012-10-22T08:56:54Z</time>
      </trkpt>
      <trkpt lat="48.00112534314394" lon="14.400681462138891">
        <ele>236.60000610351599</ele>
        <time>2012-10-22T08:56:59Z</time>
      </trkpt>
      <trkpt lat="48.001090977340937" lon="14.401144059374928">
        <ele>237</ele>
        <time>2012-10-22T08:57:06Z</time>
      </trkpt>
      <trkpt lat="48.001083349809051" lon="14.401206001639366">
        <ele>237.39999389648401</ele>
        <time>2012-10-22T08:57:07Z</time>
      </trkpt>
      <trkpt lat="48.001079577952623" lon="14.401266099885106">
        <ele>237.80000305175801</ele>
        <time>2012-10-22T08:57:08Z</time>
      </trkpt>
      <trkpt lat="48.001071950420737" lon="14.401315720751882">
        <ele>238.19999694824199</ele>
        <time>2012-10-22T08:57:09Z</time>
      </trkpt>
      <trkpt lat="48.001068094745278" lon="14.401371963322163">
        <ele>238.60000610351599</ele>
        <time>2012-10-22T08:57:10Z</time>
      </trkpt>
      <trkpt lat="48.001056695356965" lon="14.401533147320151">
        <ele>238.60000610351599</ele>
        <time>2012-10-22T08:57:13Z</time>
      </trkpt>
      <trkpt lat="48.00098804756999" lon="14.401927012950182">
        <ele>238.60000610351599</ele>
        <time>2012-10-22T08:57:19Z</time>
      </trkpt>
      <trkpt lat="48.000888805836439" lon="14.402376199141145">
        <ele>238.19999694824199</ele>
        <time>2012-10-22T08:57:25Z</time>
      </trkpt>
      <trkpt lat="48.000873550772667" lon="14.402440991252661">
        <ele>237.80000305175801</ele>
        <time>2012-10-22T08:57:26Z</time>
      </trkpt>
      <trkpt lat="48.00086977891624" lon="14.402500167489052">
        <ele>237.39999389648401</ele>
        <time>2012-10-22T08:57:27Z</time>
      </trkpt>
      <trkpt lat="48.000865923240781" lon="14.402550710365176">
        <ele>236.80000305175801</ele>
        <time>2012-10-22T08:57:28Z</time>
      </trkpt>
      <trkpt lat="48.000865923240781" lon="14.402587926015258">
        <ele>236.39999389648401</ele>
        <time>2012-10-22T08:57:29Z</time>
      </trkpt>
      <trkpt lat="48.000865923240781" lon="14.40264031291008">
        <ele>236</ele>
        <time>2012-10-22T08:57:31Z</time>
      </trkpt>
      <trkpt lat="48.000865923240781" lon="14.402633691206574">
        <ele>235.60000610351599</ele>
        <time>2012-10-22T08:57:32Z</time>
      </trkpt>
      <trkpt lat="48.000865923240781" lon="14.402634613215923">
        <ele>235.19999694824199</ele>
        <time>2012-10-22T08:57:33Z</time>
      </trkpt>
      <trkpt lat="48.000865923240781" lon="14.402634613215923">
        <ele>234.80000305175801</ele>
        <time>2012-10-22T08:57:34Z</time>
      </trkpt>
      <trkpt lat="48.000865923240781" lon="14.402634613215923">
        <ele>234.19999694824199</ele>
        <time>2012-10-22T08:57:35Z</time>
      </trkpt>
      <trkpt lat="48.000881178304553" lon="14.402746176347136">
        <ele>234.19999694824199</ele>
        <time>2012-10-22T08:57:39Z</time>
      </trkpt>
      <trkpt lat="48.000953681766987" lon="14.40293787047267">
        <ele>234.19999694824199</ele>
        <time>2012-10-22T08:57:44Z</time>
      </trkpt>
      <trkpt lat="48.001113859936595" lon="14.403235428035259">
        <ele>234.19999694824199</ele>
        <time>2012-10-22T08:57:51Z</time>
      </trkpt>
      <trkpt lat="48.001327514648438" lon="14.403580678626895">
        <ele>234.19999694824199</ele>
        <time>2012-10-22T08:57:59Z</time>
      </trkpt>
      <trkpt lat="48.001533541828394" lon="14.403853425756097">
        <ele>234.19999694824199</ele>
        <time>2012-10-22T08:58:06Z</time>
      </trkpt>
      <trkpt lat="48.001743340864778" lon="14.404115695506334">
        <ele>234.19999694824199</ele>
        <time>2012-10-22T08:58:13Z</time>
      </trkpt>
      <trkpt lat="48.002021787688136" lon="14.404396992176771">
        <ele>234.19999694824199</ele>
        <time>2012-10-22T08:58:22Z</time>
      </trkpt>
      <trkpt lat="48.002090435475111" lon="14.40442088060081">
        <ele>234.60000610351599</ele>
        <time>2012-10-22T08:58:24Z</time>
      </trkpt>
      <trkpt lat="48.002124801278114" lon="14.404433285817504">
        <ele>235</ele>
        <time>2012-10-22T08:58:25Z</time>
      </trkpt>
      <trkpt lat="48.002159083262086" lon="14.404447535052896">
        <ele>235.39999389648401</ele>
        <time>2012-10-22T08:58:26Z</time>
      </trkpt>
      <trkpt lat="48.002189677208662" lon="14.404469495639205">
        <ele>236.39999389648401</ele>
        <time>2012-10-22T08:58:27Z</time>
      </trkpt>
      <trkpt lat="48.002372737973928" lon="14.404641157016158">
        <ele>236.39999389648401</ele>
        <time>2012-10-22T08:58:33Z</time>
      </trkpt>
      <trkpt lat="48.002582537010312" lon="14.404840478673577">
        <ele>236.39999389648401</ele>
        <time>2012-10-22T08:58:40Z</time>
      </trkpt>
      <trkpt lat="48.002799963578582" lon="14.405033094808459">
        <ele>236.39999389648401</ele>
        <time>2012-10-22T08:58:47Z</time>
      </trkpt>
      <trkpt lat="48.003067011013627" lon="14.405282037332654">
        <ele>236.39999389648401</ele>
        <time>2012-10-22T08:58:55Z</time>
      </trkpt>
      <trkpt lat="48.00328066572547" lon="14.405458476394415">
        <ele>236.39999389648401</ele>
        <time>2012-10-22T08:59:01Z</time>
      </trkpt>
      <trkpt lat="48.003589622676373" lon="14.405714962631464">
        <ele>236.39999389648401</ele>
        <time>2012-10-22T08:59:10Z</time>
      </trkpt>
      <trkpt lat="48.00365449860692" lon="14.405770283192396">
        <ele>236.80000305175801</ele>
        <time>2012-10-22T08:59:12Z</time>
      </trkpt>
      <trkpt lat="48.003692636266351" lon="14.40580272115767">
        <ele>237.19999694824199</ele>
        <time>2012-10-22T08:59:13Z</time>
      </trkpt>
      <trkpt lat="48.003723146393895" lon="14.405836081132293">
        <ele>237.60000610351599</ele>
        <time>2012-10-22T08:59:14Z</time>
      </trkpt>
      <trkpt lat="48.00375365652144" lon="14.40586281940341">
        <ele>238</ele>
        <time>2012-10-22T08:59:15Z</time>
      </trkpt>
      <trkpt lat="48.003788022324443" lon="14.405889473855495">
        <ele>238.39999389648401</ele>
        <time>2012-10-22T08:59:16Z</time>
      </trkpt>
      <trkpt lat="48.003822304308414" lon="14.405917134135962">
        <ele>238.39999389648401</ele>
        <time>2012-10-22T08:59:17Z</time>
      </trkpt>
      <trkpt lat="48.004096979275346" lon="14.406154593452811">
        <ele>238.39999389648401</ele>
        <time>2012-10-22T08:59:25Z</time>
      </trkpt>
      <trkpt lat="48.004341144114733" lon="14.406366320326924">
        <ele>238.39999389648401</ele>
        <time>2012-10-22T08:59:32Z</time>
      </trkpt>
      <trkpt lat="48.004611963406205" lon="14.406558014452457">
        <ele>238.39999389648401</ele>
        <time>2012-10-22T08:59:40Z</time>
      </trkpt>
      <trkpt lat="48.004928547888994" lon="14.406721126288176">
        <ele>238.39999389648401</ele>
        <time>2012-10-22T08:59:49Z</time>
      </trkpt>
      <trkpt lat="48.005172712728381" lon="14.406788852065802">
        <ele>238.80000305175801</ele>
        <time>2012-10-22T08:59:56Z</time>
      </trkpt>
      <trkpt lat="48.005207078531384" lon="14.406801257282495">
        <ele>239.19999694824199</ele>
        <time>2012-10-22T08:59:57Z</time>
      </trkpt>
      <trkpt lat="48.005241360515356" lon="14.406806956976652">
        <ele>239.60000610351599</ele>
        <time>2012-10-22T08:59:58Z</time>
      </trkpt>
      <trkpt lat="48.005279581993818" lon="14.406810728833079">
        <ele>240</ele>
        <time>2012-10-22T08:59:59Z</time>
      </trkpt>
      <trkpt lat="48.00531386397779" lon="14.406815506517887">
        <ele>240.39999389648401</ele>
        <time>2012-10-22T09:00:00Z</time>
      </trkpt>
      <trkpt lat="48.005458870902658" lon="14.406835539266467">
        <ele>240.39999389648401</ele>
        <time>2012-10-22T09:00:04Z</time>
      </trkpt>
      <trkpt lat="48.005741089582443" lon="14.406832689419389">
        <ele>240.39999389648401</ele>
        <time>2012-10-22T09:00:12Z</time>
      </trkpt>
      <trkpt lat="48.006061529740691" lon="14.406778374686837">
        <ele>240.80000305175801</ele>
        <time>2012-10-22T09:00:21Z</time>
      </trkpt>
      <trkpt lat="48.006095895543694" lon="14.406770747154951">
        <ele>241.19999694824199</ele>
        <time>2012-10-22T09:00:22Z</time>
      </trkpt>
      <trkpt lat="48.006134033203125" lon="14.406764041632414">
        <ele>241.60000610351599</ele>
        <time>2012-10-22T09:00:23Z</time>
      </trkpt>
      <trkpt lat="48.006172170862556" lon="14.406758341938257">
        <ele>242</ele>
        <time>2012-10-22T09:00:24Z</time>
      </trkpt>
      <trkpt lat="48.006210308521986" lon="14.40675163641572">
        <ele>242.39999389648401</ele>
        <time>2012-10-22T09:00:25Z</time>
      </trkpt>
      <trkpt lat="48.006423963233829" lon="14.406694388017058">
        <ele>242.39999389648401</ele>
        <time>2012-10-22T09:00:31Z</time>
      </trkpt>
      <trkpt lat="48.00673677586019" lon="14.406638145446777">
        <ele>242.39999389648401</ele>
        <time>2012-10-22T09:00:39Z</time>
      </trkpt>
      <trkpt lat="48.007019078359008" lon="14.406609563156962">
        <ele>242.39999389648401</ele>
        <time>2012-10-22T09:00:46Z</time>
      </trkpt>
      <trkpt lat="48.007331807166338" lon="14.40657427534461">
        <ele>242.39999389648401</ele>
        <time>2012-10-22T09:00:54Z</time>
      </trkpt>
      <trkpt lat="48.007408166304231" lon="14.40655424259603">
        <ele>242.39999389648401</ele>
        <time>2012-10-22T09:00:58Z</time>
      </trkpt>
      <trkpt lat="48.007408166304231" lon="14.406575197353959">
        <ele>242.39999389648401</ele>
        <time>2012-10-22T09:01:03Z</time>
      </trkpt>
      <trkpt lat="48.007431048899889" lon="14.406604785472155">
        <ele>242.39999389648401</ele>
        <time>2012-10-22T09:01:10Z</time>
      </trkpt>
      <trkpt lat="48.007453931495547" lon="14.406604785472155">
        <ele>242.39999389648401</ele>
        <time>2012-10-22T09:01:11Z</time>
      </trkpt>
      <trkpt lat="48.007595082744956" lon="14.406596152111888">
        <ele>242.39999389648401</ele>
        <time>2012-10-22T09:01:16Z</time>
      </trkpt>
      <trkpt lat="48.007854502648115" lon="14.406561870127916">
        <ele>242.39999389648401</ele>
        <time>2012-10-22T09:01:23Z</time>
      </trkpt>
      <trkpt lat="48.008155832067132" lon="14.406506549566984">
        <ele>242.39999389648401</ele>
        <time>2012-10-22T09:01:30Z</time>
      </trkpt>
      <trkpt lat="48.008491527289152" lon="14.406475033611059">
        <ele>242.39999389648401</ele>
        <time>2012-10-22T09:01:37Z</time>
      </trkpt>
      <trkpt lat="48.008914981037378" lon="14.406467406079173">
        <ele>242.39999389648401</ele>
        <time>2012-10-22T09:01:45Z</time>
      </trkpt>
      <trkpt lat="48.009372716769576" lon="14.406517026945949">
        <ele>242.39999389648401</ele>
        <time>2012-10-22T09:01:54Z</time>
      </trkpt>
      <trkpt lat="48.009796170517802" lon="14.40661333501339">
        <ele>242.39999389648401</ele>
        <time>2012-10-22T09:02:02Z</time>
      </trkpt>
      <trkpt lat="48.010292043909431" lon="14.406766891479492">
        <ele>242.39999389648401</ele>
        <time>2012-10-22T09:02:11Z</time>
      </trkpt>
      <trkpt lat="48.010349292308092" lon="14.406787846237421">
        <ele>242</ele>
        <time>2012-10-22T09:02:12Z</time>
      </trkpt>
      <trkpt lat="48.010406456887722" lon="14.406807878986001">
        <ele>241.60000610351599</ele>
        <time>2012-10-22T09:02:13Z</time>
      </trkpt>
      <trkpt lat="48.010463705286384" lon="14.406828917562962">
        <ele>241.19999694824199</ele>
        <time>2012-10-22T09:02:14Z</time>
      </trkpt>
      <trkpt lat="48.010517098009586" lon="14.406847022473812">
        <ele>240.80000305175801</ele>
        <time>2012-10-22T09:02:15Z</time>
      </trkpt>
      <trkpt lat="48.010574346408248" lon="14.406864205375314">
        <ele>240.39999389648401</ele>
        <time>2012-10-22T09:02:16Z</time>
      </trkpt>
      <trkpt lat="48.010738380253315" lon="14.406922375783324">
        <ele>240.39999389648401</ele>
        <time>2012-10-22T09:02:19Z</time>
      </trkpt>
      <trkpt lat="48.011157978326082" lon="14.407060593366623">
        <ele>240.39999389648401</ele>
        <time>2012-10-22T09:02:26Z</time>
      </trkpt>
      <trkpt lat="48.011356377974153" lon="14.407135024666786">
        <ele>240</ele>
        <time>2012-10-22T09:02:29Z</time>
      </trkpt>
      <trkpt lat="48.011425025761127" lon="14.407157907262444">
        <ele>239.39999389648401</ele>
        <time>2012-10-22T09:02:30Z</time>
      </trkpt>
      <trkpt lat="48.011497529223561" lon="14.407179867848754">
        <ele>239</ele>
        <time>2012-10-22T09:02:31Z</time>
      </trkpt>
      <trkpt lat="48.011573804542422" lon="14.407201744616032">
        <ele>238.60000610351599</ele>
        <time>2012-10-22T09:02:32Z</time>
      </trkpt>
      <trkpt lat="48.011657707393169" lon="14.407226555049419">
        <ele>238</ele>
        <time>2012-10-22T09:02:33Z</time>
      </trkpt>
      <trkpt lat="48.011737838387489" lon="14.407252287492156">
        <ele>237.19999694824199</ele>
        <time>2012-10-22T09:02:34Z</time>
      </trkpt>
      <trkpt lat="48.011821741238236" lon="14.407281875610352">
        <ele>236.80000305175801</ele>
        <time>2012-10-22T09:02:35Z</time>
      </trkpt>
      <trkpt lat="48.011909499764442" lon="14.407313307747245">
        <ele>236.39999389648401</ele>
        <time>2012-10-22T09:02:36Z</time>
      </trkpt>
      <trkpt lat="48.011989630758762" lon="14.407340968027711">
        <ele>236</ele>
        <time>2012-10-22T09:02:37Z</time>
      </trkpt>
      <trkpt lat="48.012065906077623" lon="14.407369634136558">
        <ele>235.60000610351599</ele>
        <time>2012-10-22T09:02:38Z</time>
      </trkpt>
      <trkpt lat="48.012142181396484" lon="14.407395366579294">
        <ele>235.19999694824199</ele>
        <time>2012-10-22T09:02:39Z</time>
      </trkpt>
      <trkpt lat="48.012214684858918" lon="14.40742495469749">
        <ele>234.60000610351599</ele>
        <time>2012-10-22T09:02:40Z</time>
      </trkpt>
      <trkpt lat="48.01228710450232" lon="14.40744498744607">
        <ele>234.19999694824199</ele>
        <time>2012-10-22T09:02:41Z</time>
      </trkpt>
      <trkpt lat="48.012355836108327" lon="14.407457392662764">
        <ele>233.80000305175801</ele>
        <time>2012-10-22T09:02:42Z</time>
      </trkpt>
      <trkpt lat="48.012504614889622" lon="14.407476419582963">
        <ele>233.80000305175801</ele>
        <time>2012-10-22T09:02:44Z</time>
      </trkpt>
      <trkpt lat="48.012973750010133" lon="14.407453536987305">
        <ele>233.80000305175801</ele>
        <time>2012-10-22T09:02:51Z</time>
      </trkpt>
      <trkpt lat="48.013339955359697" lon="14.407317163422704">
        <ele>233.80000305175801</ele>
        <time>2012-10-22T09:02:57Z</time>
      </trkpt>
      <trkpt lat="48.013797774910927" lon="14.407044416293502">
        <ele>233.80000305175801</ele>
        <time>2012-10-22T09:03:05Z</time>
      </trkpt>
      <trkpt lat="48.014183007180691" lon="14.406820284202695">
        <ele>233.80000305175801</ele>
        <time>2012-10-22T09:03:12Z</time>
      </trkpt>
      <trkpt lat="48.014236483722925" lon="14.406787846237421">
        <ele>233.39999389648401</ele>
        <time>2012-10-22T09:03:13Z</time>
      </trkpt>
      <trkpt lat="48.014289876446128" lon="14.406763035804033">
        <ele>233</ele>
        <time>2012-10-22T09:03:14Z</time>
      </trkpt>
      <trkpt lat="48.014350896701217" lon="14.406724898144603">
        <ele>232.60000610351599</ele>
        <time>2012-10-22T09:03:15Z</time>
      </trkpt>
      <trkpt lat="48.014404289424419" lon="14.406688688322902">
        <ele>232</ele>
        <time>2012-10-22T09:03:16Z</time>
      </trkpt>
      <trkpt lat="48.014457682147622" lon="14.406655328348279">
        <ele>231.60000610351599</ele>
        <time>2012-10-22T09:03:17Z</time>
      </trkpt>
      <trkpt lat="48.014514930546284" lon="14.406623812392354">
        <ele>231.60000610351599</ele>
        <time>2012-10-22T09:03:18Z</time>
      </trkpt>
      <trkpt lat="48.01485825330019" lon="14.406511327251792">
        <ele>231.60000610351599</ele>
        <time>2012-10-22T09:03:24Z</time>
      </trkpt>
      <trkpt lat="48.015262596309185" lon="14.406457934528589">
        <ele>231.60000610351599</ele>
        <time>2012-10-22T09:03:31Z</time>
      </trkpt>
      <trkpt lat="48.015647912397981" lon="14.406524654477835">
        <ele>231.60000610351599</ele>
        <time>2012-10-22T09:03:38Z</time>
      </trkpt>
      <trkpt lat="48.016010262072086" lon="14.406598079949617">
        <ele>231.60000610351599</ele>
        <time>2012-10-22T09:03:45Z</time>
      </trkpt>
      <trkpt lat="48.016304047778249" lon="14.406581902876496">
        <ele>231.60000610351599</ele>
        <time>2012-10-22T09:03:51Z</time>
      </trkpt>
      <trkpt lat="48.016674024984241" lon="14.40651417709887">
        <ele>231.60000610351599</ele>
        <time>2012-10-22T09:03:58Z</time>
      </trkpt>
      <trkpt lat="48.017143243923783" lon="14.406433124095201">
        <ele>231.60000610351599</ele>
        <time>2012-10-22T09:04:07Z</time>
      </trkpt>
      <trkpt lat="48.017498049885035" lon="14.406390208750963">
        <ele>231.60000610351599</ele>
        <time>2012-10-22T09:04:14Z</time>
      </trkpt>
      <trkpt lat="48.017768869176507" lon="14.406369170174003">
        <ele>231.60000610351599</ele>
        <time>2012-10-22T09:04:20Z</time>
      </trkpt>
      <trkpt lat="48.018001550808549" lon="14.406322482973337">
        <ele>231.60000610351599</ele>
        <time>2012-10-22T09:04:27Z</time>
      </trkpt>
      <trkpt lat="48.018070198595524" lon="14.406303372234106">
        <ele>231.60000610351599</ele>
        <time>2012-10-22T09:04:32Z</time>
      </trkpt>
      <trkpt lat="48.018100708723068" lon="14.406291972845793">
        <ele>231.60000610351599</ele>
        <time>2012-10-22T09:04:38Z</time>
      </trkpt>
      <trkpt lat="48.018135074526072" lon="14.406312927603722">
        <ele>231.60000610351599</ele>
        <time>2012-10-22T09:04:40Z</time>
      </trkpt>
      <trkpt lat="48.018142702057958" lon="14.40639398060739">
        <ele>231.60000610351599</ele>
        <time>2012-10-22T09:04:43Z</time>
      </trkpt>
      <trkpt lat="48.018154185265303" lon="14.406441673636436">
        <ele>231.60000610351599</ele>
        <time>2012-10-22T09:04:44Z</time>
      </trkpt>
      <trkpt lat="48.01815795712173" lon="14.406496994197369">
        <ele>231.19999694824199</ele>
        <time>2012-10-22T09:04:45Z</time>
      </trkpt>
      <trkpt lat="48.018169440329075" lon="14.406547537073493">
        <ele>230.80000305175801</ele>
        <time>2012-10-22T09:04:46Z</time>
      </trkpt>
      <trkpt lat="48.018173212185502" lon="14.406604785472155">
        <ele>230.39999389648401</ele>
        <time>2012-10-22T09:04:47Z</time>
      </trkpt>
      <trkpt lat="48.018184695392847" lon="14.406667733564973">
        <ele>230</ele>
        <time>2012-10-22T09:04:48Z</time>
      </trkpt>
      <trkpt lat="48.01819609478116" lon="14.406735459342599">
        <ele>229.60000610351599</ele>
        <time>2012-10-22T09:04:49Z</time>
      </trkpt>
      <trkpt lat="48.018211349844933" lon="14.406808884814382">
        <ele>229.60000610351599</ele>
        <time>2012-10-22T09:04:50Z</time>
      </trkpt>
      <trkpt lat="48.018291480839252" lon="14.40728573128581">
        <ele>229.60000610351599</ele>
        <time>2012-10-22T09:04:56Z</time>
      </trkpt>
      <trkpt lat="48.018310507759452" lon="14.40744498744607">
        <ele>229.19999694824199</ele>
        <time>2012-10-22T09:04:58Z</time>
      </trkpt>
      <trkpt lat="48.018321990966797" lon="14.407532662153244">
        <ele>228.80000305175801</ele>
        <time>2012-10-22T09:04:59Z</time>
      </trkpt>
      <trkpt lat="48.018337246030569" lon="14.407624276354909">
        <ele>228.39999389648401</ele>
        <time>2012-10-22T09:05:00Z</time>
      </trkpt>
      <trkpt lat="48.018352501094341" lon="14.407714884728193">
        <ele>228</ele>
        <time>2012-10-22T09:05:01Z</time>
      </trkpt>
      <trkpt lat="48.018367756158113" lon="14.40780071541667">
        <ele>227.60000610351599</ele>
        <time>2012-10-22T09:05:02Z</time>
      </trkpt>
      <trkpt lat="48.018436403945088" lon="14.408214529976249">
        <ele>227.60000610351599</ele>
        <time>2012-10-22T09:05:07Z</time>
      </trkpt>
      <trkpt lat="48.018550900742412" lon="14.408651310950518">
        <ele>227.60000610351599</ele>
        <time>2012-10-22T09:05:14Z</time>
      </trkpt>
      <trkpt lat="48.018653830513358" lon="14.409029921516776">
        <ele>227.60000610351599</ele>
        <time>2012-10-22T09:05:21Z</time>
      </trkpt>
      <trkpt lat="48.018737817183137" lon="14.409330328926444">
        <ele>227.60000610351599</ele>
        <time>2012-10-22T09:05:27Z</time>
      </trkpt>
      <trkpt lat="48.018821720033884" lon="14.409634592011571">
        <ele>227.60000610351599</ele>
        <time>2012-10-22T09:05:34Z</time>
      </trkpt>
      <trkpt lat="48.018863713368773" lon="14.409797703847289">
        <ele>228</ele>
        <time>2012-10-22T09:05:38Z</time>
      </trkpt>
      <trkpt lat="48.018878968432546" lon="14.409841541200876">
        <ele>228.39999389648401</ele>
        <time>2012-10-22T09:05:39Z</time>
      </trkpt>
      <trkpt lat="48.018886595964432" lon="14.409888228401542">
        <ele>228.80000305175801</ele>
        <time>2012-10-22T09:05:40Z</time>
      </trkpt>
      <trkpt lat="48.018901851028204" lon="14.409933071583509">
        <ele>229.19999694824199</ele>
        <time>2012-10-22T09:05:41Z</time>
      </trkpt>
      <trkpt lat="48.018917106091976" lon="14.409986464306712">
        <ele>229.60000610351599</ele>
        <time>2012-10-22T09:05:42Z</time>
      </trkpt>
      <trkpt lat="48.01896664313972" lon="14.410172458738089">
        <ele>229.60000610351599</ele>
        <time>2012-10-22T09:05:46Z</time>
      </trkpt>
      <trkpt lat="48.019035374745727" lon="14.410428022965789">
        <ele>229.60000610351599</ele>
        <time>2012-10-22T09:05:52Z</time>
      </trkpt>
      <trkpt lat="48.019138304516673" lon="14.410729436203837">
        <ele>229.60000610351599</ele>
        <time>2012-10-22T09:05:59Z</time>
      </trkpt>
      <trkpt lat="48.019153559580445" lon="14.410811411216855">
        <ele>230</ele>
        <time>2012-10-22T09:06:01Z</time>
      </trkpt>
      <trkpt lat="48.019172670319676" lon="14.410847704857588">
        <ele>230.39999389648401</ele>
        <time>2012-10-22T09:06:02Z</time>
      </trkpt>
      <trkpt lat="48.019199408590794" lon="14.410871509462595">
        <ele>230.80000305175801</ele>
        <time>2012-10-22T09:06:03Z</time>
      </trkpt>
      <trkpt lat="48.019229918718338" lon="14.410876287147403">
        <ele>231.19999694824199</ele>
        <time>2012-10-22T09:06:04Z</time>
      </trkpt>
      <trkpt lat="48.019252801313996" lon="14.410864803940058">
        <ele>231.60000610351599</ele>
        <time>2012-10-22T09:06:05Z</time>
      </trkpt>
      <trkpt lat="48.019336704164743" lon="14.410861954092979">
        <ele>231.60000610351599</ele>
        <time>2012-10-22T09:06:08Z</time>
      </trkpt>
      <trkpt lat="48.019412979483604" lon="14.410885842517018">
        <ele>231.60000610351599</ele>
        <time>2012-10-22T09:06:10Z</time>
      </trkpt>
      <trkpt lat="48.019485482946038" lon="14.411008805036545">
        <ele>231.60000610351599</ele>
        <time>2012-10-22T09:06:12Z</time>
      </trkpt>
      <trkpt lat="48.019504509866238" lon="14.411213910207152">
        <ele>231.19999694824199</ele>
        <time>2012-10-22T09:06:14Z</time>
      </trkpt>
      <trkpt lat="48.019508365541697" lon="14.411304434761405">
        <ele>230.80000305175801</ele>
        <time>2012-10-22T09:06:15Z</time>
      </trkpt>
      <trkpt lat="48.019504509866238" lon="14.411385571584105">
        <ele>230.39999389648401</ele>
        <time>2012-10-22T09:06:16Z</time>
      </trkpt>
      <trkpt lat="48.019504509866238" lon="14.411459919065237">
        <ele>229.39999389648401</ele>
        <time>2012-10-22T09:06:17Z</time>
      </trkpt>
      <trkpt lat="48.019508365541697" lon="14.411522867158055">
        <ele>229</ele>
        <time>2012-10-22T09:06:18Z</time>
      </trkpt>
      <trkpt lat="48.019504509866238" lon="14.411574332043529">
        <ele>228.39999389648401</ele>
        <time>2012-10-22T09:06:19Z</time>
      </trkpt>
      <trkpt lat="48.019504509866238" lon="14.411625880748034">
        <ele>227.80000305175801</ele>
        <time>2012-10-22T09:06:20Z</time>
      </trkpt>
      <trkpt lat="48.019504509866238" lon="14.411666868254542">
        <ele>227.39999389648401</ele>
        <time>2012-10-22T09:06:21Z</time>
      </trkpt>
      <trkpt lat="48.019504509866238" lon="14.41169360652566">
        <ele>227</ele>
        <time>2012-10-22T09:06:22Z</time>
      </trkpt>
      <trkpt lat="48.01950073800981" lon="14.411716489121318">
        <ele>226.60000610351599</ele>
        <time>2012-10-22T09:06:23Z</time>
      </trkpt>
      <trkpt lat="48.01950073800981" lon="14.411736521869898">
        <ele>226.19999694824199</ele>
        <time>2012-10-22T09:06:24Z</time>
      </trkpt>
      <trkpt lat="48.01950073800981" lon="14.411756554618478">
        <ele>225.80000305175801</ele>
        <time>2012-10-22T09:06:25Z</time>
      </trkpt>
      <trkpt lat="48.01950073800981" lon="14.411780359223485">
        <ele>225.39999389648401</ele>
        <time>2012-10-22T09:06:26Z</time>
      </trkpt>
      <trkpt lat="48.019515993073583" lon="14.411884294822812">
        <ele>225.39999389648401</ele>
        <time>2012-10-22T09:06:30Z</time>
      </trkpt>
      <trkpt lat="48.019557986408472" lon="14.412088394165039">
        <ele>225.39999389648401</ele>
        <time>2012-10-22T09:06:35Z</time>
      </trkpt>
      <trkpt lat="48.019577013328671" lon="14.412341108545661">
        <ele>225.39999389648401</ele>
        <time>2012-10-22T09:06:41Z</time>
      </trkpt>
      <trkpt lat="48.01959989592433" lon="14.412641515955329">
        <ele>225.39999389648401</ele>
        <time>2012-10-22T09:06:47Z</time>
      </trkpt>
      <trkpt lat="48.019607523456216" lon="14.412949550896883">
        <ele>225.39999389648401</ele>
        <time>2012-10-22T09:06:53Z</time>
      </trkpt>
      <trkpt lat="48.019645661115646" lon="14.413242330774665">
        <ele>225.39999389648401</ele>
        <time>2012-10-22T09:06:59Z</time>
      </trkpt>
      <trkpt lat="48.019645661115646" lon="14.413440730422735">
        <ele>225.39999389648401</ele>
        <time>2012-10-22T09:07:04Z</time>
      </trkpt>
      <trkpt lat="48.019630406051874" lon="14.413508456200361">
        <ele>225.39999389648401</ele>
        <time>2012-10-22T09:07:07Z</time>
      </trkpt>
      <trkpt lat="48.019584640860558" lon="14.413508456200361">
        <ele>225.39999389648401</ele>
        <time>2012-10-22T09:07:09Z</time>
      </trkpt>
      <trkpt lat="48.019397724419832" lon="14.413556065410376">
        <ele>225.39999389648401</ele>
        <time>2012-10-22T09:07:15Z</time>
      </trkpt>
      <trkpt lat="48.019184153527021" lon="14.413697216659784">
        <ele>225.39999389648401</ele>
        <time>2012-10-22T09:07:22Z</time>
      </trkpt>
      <trkpt lat="48.019058257341385" lon="14.413989996537566">
        <ele>225.39999389648401</ele>
        <time>2012-10-22T09:07:28Z</time>
      </trkpt>
      <trkpt lat="48.019012492150068" lon="14.414337174966931">
        <ele>225.39999389648401</ele>
        <time>2012-10-22T09:07:34Z</time>
      </trkpt>
      <trkpt lat="48.019016264006495" lon="14.414732968434691">
        <ele>225</ele>
        <time>2012-10-22T09:07:40Z</time>
      </trkpt>
      <trkpt lat="48.019023891538382" lon="14.414807315915823">
        <ele>224.60000610351599</ele>
        <time>2012-10-22T09:07:41Z</time>
      </trkpt>
      <trkpt lat="48.019031519070268" lon="14.414890296757221">
        <ele>224.19999694824199</ele>
        <time>2012-10-22T09:07:42Z</time>
      </trkpt>
      <trkpt lat="48.01904677413404" lon="14.414972271770239">
        <ele>223.80000305175801</ele>
        <time>2012-10-22T09:07:43Z</time>
      </trkpt>
      <trkpt lat="48.019062029197812" lon="14.41505148075521">
        <ele>223.39999389648401</ele>
        <time>2012-10-22T09:07:44Z</time>
      </trkpt>
      <trkpt lat="48.019092539325356" lon="14.415214508771896">
        <ele>223.39999389648401</ele>
        <time>2012-10-22T09:07:46Z</time>
      </trkpt>
      <trkpt lat="48.019130676984787" lon="14.415348032489419">
        <ele>223.39999389648401</ele>
        <time>2012-10-22T09:07:48Z</time>
      </trkpt>
      <trkpt lat="48.019195552915335" lon="14.415469150990248">
        <ele>223.39999389648401</ele>
        <time>2012-10-22T09:07:50Z</time>
      </trkpt>
      <trkpt lat="48.019409207627177" lon="14.415746675804257">
        <ele>223.39999389648401</ele>
        <time>2012-10-22T09:07:56Z</time>
      </trkpt>
      <trkpt lat="48.019741047173738" lon="14.416034677997231">
        <ele>223.39999389648401</ele>
        <time>2012-10-22T09:08:04Z</time>
      </trkpt>
      <trkpt lat="48.019783040508628" lon="14.416055716574192">
        <ele>223.39999389648401</ele>
        <time>2012-10-22T09:08:05Z</time>
      </trkpt>
      <trkpt lat="48.01987842656672" lon="14.416088070720434">
        <ele>223</ele>
        <time>2012-10-22T09:08:07Z</time>
      </trkpt>
      <trkpt lat="48.019920336082578" lon="14.416103325784206">
        <ele>222.60000610351599</ele>
        <time>2012-10-22T09:08:08Z</time>
      </trkpt>
      <trkpt lat="48.019958473742008" lon="14.416113886982203">
        <ele>222.19999694824199</ele>
        <time>2012-10-22T09:08:09Z</time>
      </trkpt>
      <trkpt lat="48.020004238933325" lon="14.416124364361167">
        <ele>221.80000305175801</ele>
        <time>2012-10-22T09:08:10Z</time>
      </trkpt>
      <trkpt lat="48.020046232268214" lon="14.416139619424939">
        <ele>221.39999389648401</ele>
        <time>2012-10-22T09:08:11Z</time>
      </trkpt>
      <trkpt lat="48.020324679091573" lon="14.41621782258153">
        <ele>221.39999389648401</ele>
        <time>2012-10-22T09:08:17Z</time>
      </trkpt>
      <trkpt lat="48.020416293293238" lon="14.416239699348807">
        <ele>221.39999389648401</ele>
        <time>2012-10-22T09:08:19Z</time>
      </trkpt>
      <trkpt lat="48.020553588867188" lon="14.416259732097387">
        <ele>221.39999389648401</ele>
        <time>2012-10-22T09:08:22Z</time>
      </trkpt>
      <trkpt lat="48.020595582202077" lon="14.41625596024096">
        <ele>221.39999389648401</ele>
        <time>2012-10-22T09:08:23Z</time>
      </trkpt>
      <trkpt lat="48.020759616047144" lon="14.416280770674348">
        <ele>221.39999389648401</ele>
        <time>2012-10-22T09:08:27Z</time>
      </trkpt>
      <trkpt lat="48.021076200529933" lon="14.416365595534444">
        <ele>221.39999389648401</ele>
        <time>2012-10-22T09:08:34Z</time>
      </trkpt>
      <trkpt lat="48.021347019821405" lon="14.416351346299052">
        <ele>221.39999389648401</ele>
        <time>2012-10-22T09:08:40Z</time>
      </trkpt>
      <trkpt lat="48.021671315655112" lon="14.416322680190206">
        <ele>221.39999389648401</ele>
        <time>2012-10-22T09:08:47Z</time>
      </trkpt>
      <trkpt lat="48.021999383345246" lon="14.416271215304732">
        <ele>221.39999389648401</ele>
        <time>2012-10-22T09:08:54Z</time>
      </trkpt>
      <trkpt lat="48.022369360551238" lon="14.416221594437957">
        <ele>221.39999389648401</ele>
        <time>2012-10-22T09:09:02Z</time>
      </trkpt>
      <trkpt lat="48.022697428241372" lon="14.416149174794555">
        <ele>221.39999389648401</ele>
        <time>2012-10-22T09:09:09Z</time>
      </trkpt>
      <trkpt lat="48.022743193432689" lon="14.416130986064672">
        <ele>221.39999389648401</ele>
        <time>2012-10-22T09:09:10Z</time>
      </trkpt>
      <trkpt lat="48.022930109873414" lon="14.416061416268349">
        <ele>221.39999389648401</ele>
        <time>2012-10-22T09:09:14Z</time>
      </trkpt>
      <trkpt lat="48.023227667436004" lon="14.415973657742143">
        <ele>221.39999389648401</ele>
        <time>2012-10-22T09:09:20Z</time>
      </trkpt>
      <trkpt lat="48.023601500317454" lon="14.415834434330463">
        <ele>221.39999389648401</ele>
        <time>2012-10-22T09:09:27Z</time>
      </trkpt>
      <trkpt lat="48.0238495208323" lon="14.415724715217948">
        <ele>221.39999389648401</ele>
        <time>2012-10-22T09:09:32Z</time>
      </trkpt>
      <trkpt lat="48.023899057880044" lon="14.415698060765862">
        <ele>221.39999389648401</ele>
        <time>2012-10-22T09:09:33Z</time>
      </trkpt>
      <trkpt lat="48.024230981245637" lon="14.415566464886069">
        <ele>221.39999389648401</ele>
        <time>2012-10-22T09:09:40Z</time>
      </trkpt>
      <trkpt lat="48.024555193260312" lon="14.415434869006276">
        <ele>221.39999389648401</ele>
        <time>2012-10-22T09:09:47Z</time>
      </trkpt>
      <trkpt lat="48.02483749575913" lon="14.415307966992259">
        <ele>221.39999389648401</ele>
        <time>2012-10-22T09:09:53Z</time>
      </trkpt>
      <trkpt lat="48.025184590369463" lon="14.415143933147192">
        <ele>221.39999389648401</ele>
        <time>2012-10-22T09:10:00Z</time>
      </trkpt>
      <trkpt lat="48.025432610884309" lon="14.415028598159552">
        <ele>221.39999389648401</ele>
        <time>2012-10-22T09:10:05Z</time>
      </trkpt>
      <trkpt lat="48.025573762133718" lon="14.414958944544196">
        <ele>221.39999389648401</ele>
        <time>2012-10-22T09:10:08Z</time>
      </trkpt>
      <trkpt lat="48.025703430175781" lon="14.414906473830342">
        <ele>221.39999389648401</ele>
        <time>2012-10-22T09:10:11Z</time>
      </trkpt>
      <trkpt lat="48.025825470685959" lon="14.414845453575253">
        <ele>221.39999389648401</ele>
        <time>2012-10-22T09:10:14Z</time>
      </trkpt>
      <trkpt lat="48.026069635525346" lon="14.41473581828177">
        <ele>221.39999389648401</ele>
        <time>2012-10-22T09:10:20Z</time>
      </trkpt>
      <trkpt lat="48.026405330747366" lon="14.414591817185283">
        <ele>221.39999389648401</ele>
        <time>2012-10-22T09:10:27Z</time>
      </trkpt>
      <trkpt lat="48.026721915230155" lon="14.414445888251066">
        <ele>221.39999389648401</ele>
        <time>2012-10-22T09:10:34Z</time>
      </trkpt>
      <trkpt lat="48.026966080069542" lon="14.414354357868433">
        <ele>221.39999389648401</ele>
        <time>2012-10-22T09:10:40Z</time>
      </trkpt>
      <trkpt lat="48.027313258498907" lon="14.414270371198654">
        <ele>221.39999389648401</ele>
        <time>2012-10-22T09:10:48Z</time>
      </trkpt>
      <trkpt lat="48.027385678142309" lon="14.414271377027035">
        <ele>221</ele>
        <time>2012-10-22T09:10:49Z</time>
      </trkpt>
      <trkpt lat="48.027450554072857" lon="14.414284704253078">
        <ele>220.60000610351599</ele>
        <time>2012-10-22T09:10:50Z</time>
      </trkpt>
      <trkpt lat="48.027507802471519" lon="14.414291409775615">
        <ele>220</ele>
        <time>2012-10-22T09:10:51Z</time>
      </trkpt>
      <trkpt lat="48.027564967051148" lon="14.41429803147912">
        <ele>219.60000610351599</ele>
        <time>2012-10-22T09:10:52Z</time>
      </trkpt>
      <trkpt lat="48.027618443593383" lon="14.414310436695814">
        <ele>219.19999694824199</ele>
        <time>2012-10-22T09:10:53Z</time>
      </trkpt>
      <trkpt lat="48.027729000896215" lon="14.414319070056081">
        <ele>219.19999694824199</ele>
        <time>2012-10-22T09:10:55Z</time>
      </trkpt>
      <trkpt lat="48.028125800192356" lon="14.414375312626362">
        <ele>219.19999694824199</ele>
        <time>2012-10-22T09:11:03Z</time>
      </trkpt>
      <trkpt lat="48.028545398265123" lon="14.414443960413337">
        <ele>219.19999694824199</ele>
        <time>2012-10-22T09:11:12Z</time>
      </trkpt>
      <trkpt lat="48.028835328295827" lon="14.414505986496806">
        <ele>219.19999694824199</ele>
        <time>2012-10-22T09:11:19Z</time>
      </trkpt>
      <trkpt lat="48.029254926368594" lon="14.414563151076436">
        <ele>219.19999694824199</ele>
        <time>2012-10-22T09:11:28Z</time>
      </trkpt>
      <trkpt lat="48.029628759250045" lon="14.414607994258404">
        <ele>219.19999694824199</ele>
        <time>2012-10-22T09:11:36Z</time>
      </trkpt>
      <trkpt lat="48.029762282967567" lon="14.414627104997635">
        <ele>219.19999694824199</ele>
        <time>2012-10-22T09:11:39Z</time>
      </trkpt>
      <trkpt lat="48.029983481392264" lon="14.414625177159905">
        <ele>219.19999694824199</ele>
        <time>2012-10-22T09:11:43Z</time>
      </trkpt>
      <trkpt lat="48.030387908220291" lon="14.414628027006984">
        <ele>219.19999694824199</ele>
        <time>2012-10-22T09:11:51Z</time>
      </trkpt>
      <trkpt lat="48.030570968985558" lon="14.414646131917834">
        <ele>219.19999694824199</ele>
        <time>2012-10-22T09:11:55Z</time>
      </trkpt>
      <trkpt lat="48.030719747766852" lon="14.414648981764913">
        <ele>219.19999694824199</ele>
        <time>2012-10-22T09:11:58Z</time>
      </trkpt>
      <trkpt lat="48.031044043600559" lon="14.414700530469418">
        <ele>219.19999694824199</ele>
        <time>2012-10-22T09:12:05Z</time>
      </trkpt>
      <trkpt lat="48.031135573983192" lon="14.41471578553319">
        <ele>219.19999694824199</ele>
        <time>2012-10-22T09:12:07Z</time>
      </trkpt>
      <trkpt lat="48.031330117955804" lon="14.41471578553319">
        <ele>219.19999694824199</ele>
        <time>2012-10-22T09:12:11Z</time>
      </trkpt>
      <trkpt lat="48.031627675518394" lon="14.414736740291119">
        <ele>219.19999694824199</ele>
        <time>2012-10-22T09:12:17Z</time>
      </trkpt>
      <trkpt lat="48.03167344070971" lon="14.414747217670083">
        <ele>219.19999694824199</ele>
        <time>2012-10-22T09:12:18Z</time>
      </trkpt>
      <trkpt lat="48.032062528654933" lon="14.414835898205638">
        <ele>219.19999694824199</ele>
        <time>2012-10-22T09:12:26Z</time>
      </trkpt>
      <trkpt lat="48.032402079552412" lon="14.414924662560225">
        <ele>219.19999694824199</ele>
        <time>2012-10-22T09:12:33Z</time>
      </trkpt>
      <trkpt lat="48.032772056758404" lon="14.415007559582591">
        <ele>219.19999694824199</ele>
        <time>2012-10-22T09:12:41Z</time>
      </trkpt>
      <trkpt lat="48.033157372847199" lon="14.41514971666038">
        <ele>219.19999694824199</ele>
        <time>2012-10-22T09:12:49Z</time>
      </trkpt>
      <trkpt lat="48.033248903229833" lon="14.415183076635003">
        <ele>219.19999694824199</ele>
        <time>2012-10-22T09:12:51Z</time>
      </trkpt>
      <trkpt lat="48.033432047814131" lon="14.415272679179907">
        <ele>219.19999694824199</ele>
        <time>2012-10-22T09:12:55Z</time>
      </trkpt>
      <trkpt lat="48.033615108579397" lon="14.415390947833657">
        <ele>219.19999694824199</ele>
        <time>2012-10-22T09:12:59Z</time>
      </trkpt>
      <trkpt lat="48.03374863229692" lon="14.415470156818628">
        <ele>219.19999694824199</ele>
        <time>2012-10-22T09:13:02Z</time>
      </trkpt>
      <trkpt lat="48.034103354439139" lon="14.415694205090404">
        <ele>219.19999694824199</ele>
        <time>2012-10-22T09:13:10Z</time>
      </trkpt>
      <trkpt lat="48.03438188508153" lon="14.415843989700079">
        <ele>219.19999694824199</ele>
        <time>2012-10-22T09:13:16Z</time>
      </trkpt>
      <trkpt lat="48.034606939181685" lon="14.415992768481374">
        <ele>219.19999694824199</ele>
        <time>2012-10-22T09:13:21Z</time>
      </trkpt>
      <trkpt lat="48.034690842032433" lon="14.416060410439968">
        <ele>219.19999694824199</ele>
        <time>2012-10-22T09:13:23Z</time>
      </trkpt>
      <trkpt lat="48.034812966361642" lon="14.416167279705405">
        <ele>219.19999694824199</ele>
        <time>2012-10-22T09:13:26Z</time>
      </trkpt>
      <trkpt lat="48.035034164786339" lon="14.416334163397551">
        <ele>219.19999694824199</ele>
        <time>2012-10-22T09:13:31Z</time>
      </trkpt>
      <trkpt lat="48.03535083308816" lon="14.416666002944112">
        <ele>219.19999694824199</ele>
        <time>2012-10-22T09:13:39Z</time>
      </trkpt>
      <trkpt lat="48.035598769783974" lon="14.416924500837922">
        <ele>219.19999694824199</ele>
        <time>2012-10-22T09:13:45Z</time>
      </trkpt>
      <trkpt lat="48.035770431160927" lon="14.417102783918381">
        <ele>219.19999694824199</ele>
        <time>2012-10-22T09:13:50Z</time>
      </trkpt>
      <trkpt lat="48.035835307091475" lon="14.417188614606857">
        <ele>219.19999694824199</ele>
        <time>2012-10-22T09:13:54Z</time>
      </trkpt>
      <trkpt lat="48.035915354266763" lon="14.417287856340408">
        <ele>219.19999694824199</ele>
        <time>2012-10-22T09:13:58Z</time>
      </trkpt>
      <trkpt lat="48.036071760579944" lon="14.417477622628212">
        <ele>219.19999694824199</ele>
        <time>2012-10-22T09:14:05Z</time>
      </trkpt>
      <trkpt lat="48.036186257377267" lon="14.417618773877621">
        <ele>219.19999694824199</ele>
        <time>2012-10-22T09:14:11Z</time>
      </trkpt>
      <trkpt lat="48.036338808014989" lon="14.417837122455239">
        <ele>219.19999694824199</ele>
        <time>2012-10-22T09:14:19Z</time>
      </trkpt>
      <trkpt lat="48.036491358652711" lon="14.417969724163413">
        <ele>219.19999694824199</ele>
        <time>2012-10-22T09:14:26Z</time>
      </trkpt>
      <trkpt lat="48.036567717790604" lon="14.417985901236534">
        <ele>219.19999694824199</ele>
        <time>2012-10-22T09:14:31Z</time>
      </trkpt>
      <trkpt lat="48.036579117178917" lon="14.417967796325684">
        <ele>219.19999694824199</ele>
        <time>2012-10-22T09:14:32Z</time>
      </trkpt>
      <trkpt lat="48.036651620641351" lon="14.417807618156075">
        <ele>219.19999694824199</ele>
        <time>2012-10-22T09:14:38Z</time>
      </trkpt>
      <trkpt lat="48.036701241508126" lon="14.417645428329706">
        <ele>219.19999694824199</ele>
        <time>2012-10-22T09:14:44Z</time>
      </trkpt>
      <trkpt lat="48.036720268428326" lon="14.417523387819529">
        <ele>219.60000610351599</ele>
        <time>2012-10-22T09:14:47Z</time>
      </trkpt>
      <trkpt lat="48.036724124103785" lon="14.417476616799831">
        <ele>220</ele>
        <time>2012-10-22T09:14:48Z</time>
      </trkpt>
      <trkpt lat="48.036727895960212" lon="14.417435629293323">
        <ele>220.60000610351599</ele>
        <time>2012-10-22T09:14:49Z</time>
      </trkpt>
      <trkpt lat="48.036727895960212" lon="14.417392713949084">
        <ele>221</ele>
        <time>2012-10-22T09:14:50Z</time>
      </trkpt>
      <trkpt lat="48.036716496571898" lon="14.417346948757768">
        <ele>221.39999389648401</ele>
        <time>2012-10-22T09:14:51Z</time>
      </trkpt>
      <trkpt lat="48.036628738045692" lon="14.417128600180149">
        <ele>221.39999389648401</ele>
        <time>2012-10-22T09:14:56Z</time>
      </trkpt>
      <trkpt lat="48.036552462726831" lon="14.416905390098691">
        <ele>221.39999389648401</ele>
        <time>2012-10-22T09:15:02Z</time>
      </trkpt>
      <trkpt lat="48.036514241248369" lon="14.416803382337093">
        <ele>221.80000305175801</ele>
        <time>2012-10-22T09:15:05Z</time>
      </trkpt>
      <trkpt lat="48.036514241248369" lon="14.416770022362471">
        <ele>222.19999694824199</ele>
        <time>2012-10-22T09:15:06Z</time>
      </trkpt>
      <trkpt lat="48.036514241248369" lon="14.416736578568816">
        <ele>222.60000610351599</ele>
        <time>2012-10-22T09:15:07Z</time>
      </trkpt>
      <trkpt lat="48.036521952599287" lon="14.416703218594193">
        <ele>223</ele>
        <time>2012-10-22T09:15:08Z</time>
      </trkpt>
      <trkpt lat="48.036529580131173" lon="14.416667008772492">
        <ele>223.39999389648401</ele>
        <time>2012-10-22T09:15:09Z</time>
      </trkpt>
      <trkpt lat="48.036601999774575" lon="14.416514374315739">
        <ele>223.39999389648401</ele>
        <time>2012-10-22T09:15:14Z</time>
      </trkpt>
      <trkpt lat="48.036666875705123" lon="14.416279764845967">
        <ele>223.39999389648401</ele>
        <time>2012-10-22T09:15:21Z</time>
      </trkpt>
      <trkpt lat="48.036697385832667" lon="14.416191084310412">
        <ele>223.80000305175801</ele>
        <time>2012-10-22T09:15:24Z</time>
      </trkpt>
      <trkpt lat="48.036708869040012" lon="14.416165351867676">
        <ele>224.39999389648401</ele>
        <time>2012-10-22T09:15:25Z</time>
      </trkpt>
      <trkpt lat="48.036720268428326" lon="14.416133919730783">
        <ele>224.80000305175801</ele>
        <time>2012-10-22T09:15:26Z</time>
      </trkpt>
      <trkpt lat="48.036727895960212" lon="14.416099553927779">
        <ele>225.19999694824199</ele>
        <time>2012-10-22T09:15:27Z</time>
      </trkpt>
      <trkpt lat="48.036739379167557" lon="14.416067115962505">
        <ele>225.60000610351599</ele>
        <time>2012-10-22T09:15:28Z</time>
      </trkpt>
      <trkpt lat="48.03683090955019" lon="14.4159603305161">
        <ele>225.60000610351599</ele>
        <time>2012-10-22T09:15:33Z</time>
      </trkpt>
      <trkpt lat="48.036884302273393" lon="14.415779113769531">
        <ele>226</ele>
        <time>2012-10-22T09:15:40Z</time>
      </trkpt>
      <trkpt lat="48.036884302273393" lon="14.415753381326795">
        <ele>226.39999389648401</ele>
        <time>2012-10-22T09:15:41Z</time>
      </trkpt>
      <trkpt lat="48.036884302273393" lon="14.415730498731136">
        <ele>226.80000305175801</ele>
        <time>2012-10-22T09:15:42Z</time>
      </trkpt>
      <trkpt lat="48.036884302273393" lon="14.41570283845067">
        <ele>227.19999694824199</ele>
        <time>2012-10-22T09:15:43Z</time>
      </trkpt>
      <trkpt lat="48.036880530416965" lon="14.415683727711439">
        <ele>227.60000610351599</ele>
        <time>2012-10-22T09:15:44Z</time>
      </trkpt>
      <trkpt lat="48.03686904720962" lon="14.415607452392578">
        <ele>227.60000610351599</ele>
        <time>2012-10-22T09:15:47Z</time>
      </trkpt>
      <trkpt lat="48.036796543747187" lon="14.415453895926476">
        <ele>227.60000610351599</ele>
        <time>2012-10-22T09:15:54Z</time>
      </trkpt>
      <trkpt lat="48.036781288683414" lon="14.415435791015625">
        <ele>228</ele>
        <time>2012-10-22T09:15:55Z</time>
      </trkpt>
      <trkpt lat="48.036769889295101" lon="14.415425313636661">
        <ele>228.60000610351599</ele>
        <time>2012-10-22T09:15:56Z</time>
      </trkpt>
      <trkpt lat="48.036758406087756" lon="14.415413830429316">
        <ele>229</ele>
        <time>2012-10-22T09:15:57Z</time>
      </trkpt>
      <trkpt lat="48.036747006699443" lon="14.415395725518465">
        <ele>229.39999389648401</ele>
        <time>2012-10-22T09:15:58Z</time>
      </trkpt>
      <trkpt lat="48.036735523492098" lon="14.415380470454693">
        <ele>229.80000305175801</ele>
        <time>2012-10-22T09:15:59Z</time>
      </trkpt>
      <trkpt lat="48.036727895960212" lon="14.415370915085077">
        <ele>229.80000305175801</ele>
        <time>2012-10-22T09:16:00Z</time>
      </trkpt>
      <trkpt lat="48.036655392497778" lon="14.415244096890092">
        <ele>230.19999694824199</ele>
        <time>2012-10-22T09:16:08Z</time>
      </trkpt>
      <trkpt lat="48.036636365577579" lon="14.415212664753199">
        <ele>230.60000610351599</ele>
        <time>2012-10-22T09:16:09Z</time>
      </trkpt>
      <trkpt lat="48.036617254838347" lon="14.415179220959544">
        <ele>231.60000610351599</ele>
        <time>2012-10-22T09:16:10Z</time>
      </trkpt>
      <trkpt lat="48.036598227918148" lon="14.415153488516808">
        <ele>232</ele>
        <time>2012-10-22T09:16:11Z</time>
      </trkpt>
      <trkpt lat="48.036483731120825" lon="14.415041003376245">
        <ele>232</ele>
        <time>2012-10-22T09:16:18Z</time>
      </trkpt>
      <trkpt lat="48.036430338397622" lon="14.41501141525805">
        <ele>232.39999389648401</ele>
        <time>2012-10-22T09:16:20Z</time>
      </trkpt>
      <trkpt lat="48.036407455801964" lon="14.414996160194278">
        <ele>232.80000305175801</ele>
        <time>2012-10-22T09:16:21Z</time>
      </trkpt>
      <trkpt lat="48.036388428881764" lon="14.414981827139854">
        <ele>233.19999694824199</ele>
        <time>2012-10-22T09:16:22Z</time>
      </trkpt>
      <trkpt lat="48.036369318142533" lon="14.414966572076082">
        <ele>233.60000610351599</ele>
        <time>2012-10-22T09:16:23Z</time>
      </trkpt>
      <trkpt lat="48.036346435546875" lon="14.414955172687769">
        <ele>234.19999694824199</ele>
        <time>2012-10-22T09:16:24Z</time>
      </trkpt>
      <trkpt lat="48.036327324807644" lon="14.414937989786267">
        <ele>234.19999694824199</ele>
        <time>2012-10-22T09:16:25Z</time>
      </trkpt>
      <trkpt lat="48.036235794425011" lon="14.414850231260061">
        <ele>234.19999694824199</ele>
        <time>2012-10-22T09:16:31Z</time>
      </trkpt>
      <trkpt lat="48.036220539361238" lon="14.41483304835856">
        <ele>234.60000610351599</ele>
        <time>2012-10-22T09:16:32Z</time>
      </trkpt>
      <trkpt lat="48.036205284297466" lon="14.414814943447709">
        <ele>235</ele>
        <time>2012-10-22T09:16:33Z</time>
      </trkpt>
      <trkpt lat="48.036186257377267" lon="14.414797760546207">
        <ele>235.80000305175801</ele>
        <time>2012-10-22T09:16:34Z</time>
      </trkpt>
      <trkpt lat="48.036167146638036" lon="14.414784433320165">
        <ele>236.19999694824199</ele>
        <time>2012-10-22T09:16:35Z</time>
      </trkpt>
      <trkpt lat="48.036071760579944" lon="14.414728190749884">
        <ele>236.19999694824199</ele>
        <time>2012-10-22T09:16:40Z</time>
      </trkpt>
      <trkpt lat="48.035945864394307" lon="14.414643282070756">
        <ele>236.60000610351599</ele>
        <time>2012-10-22T09:16:47Z</time>
      </trkpt>
      <trkpt lat="48.035930609330535" lon="14.41463565453887">
        <ele>237</ele>
        <time>2012-10-22T09:16:48Z</time>
      </trkpt>
      <trkpt lat="48.035911582410336" lon="14.414628027006984">
        <ele>237.39999389648401</ele>
        <time>2012-10-22T09:16:49Z</time>
      </trkpt>
      <trkpt lat="48.035892471671104" lon="14.414617549628019">
        <ele>237.80000305175801</ele>
        <time>2012-10-22T09:16:50Z</time>
      </trkpt>
      <trkpt lat="48.035869589075446" lon="14.414608916267753">
        <ele>238.19999694824199</ele>
        <time>2012-10-22T09:16:51Z</time>
      </trkpt>
      <trkpt lat="48.035819968208671" lon="14.414574634283781">
        <ele>238.19999694824199</ele>
        <time>2012-10-22T09:16:54Z</time>
      </trkpt>
      <trkpt lat="48.035812340676785" lon="14.414556529372931">
        <ele>238.19999694824199</ele>
        <time>2012-10-22T09:16:55Z</time>
      </trkpt>
      <trkpt lat="48.035816196352243" lon="14.414511686190963">
        <ele>238.19999694824199</ele>
        <time>2012-10-22T09:16:59Z</time>
      </trkpt>
      <trkpt lat="48.035816196352243" lon="14.414511686190963">
        <ele>238.19999694824199</ele>
        <time>2012-10-22T09:17:09Z</time>
      </trkpt>
      <trkpt lat="48.035831451416016" lon="14.4145183917135">
        <ele>238.19999694824199</ele>
        <time>2012-10-22T09:17:13Z</time>
      </trkpt>
      <trkpt lat="48.035842934623361" lon="14.414530713111162">
        <ele>238.19999694824199</ele>
        <time>2012-10-22T09:17:14Z</time>
      </trkpt>
      <trkpt lat="48.035987857729197" lon="14.414649987593293">
        <ele>238.19999694824199</ele>
        <time>2012-10-22T09:17:23Z</time>
      </trkpt>
      <trkpt lat="48.036098498851061" lon="14.414731962606311">
        <ele>238.19999694824199</ele>
        <time>2012-10-22T09:17:30Z</time>
      </trkpt>
      <trkpt lat="48.036266304552555" lon="14.414860708639026">
        <ele>238.19999694824199</ele>
        <time>2012-10-22T09:17:36Z</time>
      </trkpt>
      <trkpt lat="48.036483731120825" lon="14.414989454671741">
        <ele>238.19999694824199</ele>
        <time>2012-10-22T09:17:42Z</time>
      </trkpt>
      <trkpt lat="48.03657534532249" lon="14.415140161290765">
        <ele>238.19999694824199</ele>
        <time>2012-10-22T09:17:47Z</time>
      </trkpt>
      <trkpt lat="48.036544835194945" lon="14.415352810174227">
        <ele>238.19999694824199</ele>
        <time>2012-10-22T09:17:52Z</time>
      </trkpt>
      <trkpt lat="48.036529580131173" lon="14.415401425212622">
        <ele>238.19999694824199</ele>
        <time>2012-10-22T09:17:53Z</time>
      </trkpt>
      <trkpt lat="48.036441821604967" lon="14.415672328323126">
        <ele>238.19999694824199</ele>
        <time>2012-10-22T09:17:58Z</time>
      </trkpt>
      <trkpt lat="48.036392200738192" lon="14.415797218680382">
        <ele>237.80000305175801</ele>
        <time>2012-10-22T09:18:00Z</time>
      </trkpt>
      <trkpt lat="48.036369318142533" lon="14.415861088782549">
        <ele>237.39999389648401</ele>
        <time>2012-10-22T09:18:01Z</time>
      </trkpt>
      <trkpt lat="48.036342579871416" lon="14.415927892550826">
        <ele>237</ele>
        <time>2012-10-22T09:18:02Z</time>
      </trkpt>
      <trkpt lat="48.036315925419331" lon="14.415999390184879">
        <ele>236.60000610351599</ele>
        <time>2012-10-22T09:18:03Z</time>
      </trkpt>
      <trkpt lat="48.036289187148213" lon="14.416067115962505">
        <ele>236</ele>
        <time>2012-10-22T09:18:04Z</time>
      </trkpt>
      <trkpt lat="48.036262532696128" lon="14.416134841740131">
        <ele>235.60000610351599</ele>
        <time>2012-10-22T09:18:05Z</time>
      </trkpt>
      <trkpt lat="48.03623965010047" lon="14.416207345202565">
        <ele>235.19999694824199</ele>
        <time>2012-10-22T09:18:06Z</time>
      </trkpt>
      <trkpt lat="48.036212911829352" lon="14.41627792082727">
        <ele>234.80000305175801</ele>
        <time>2012-10-22T09:18:07Z</time>
      </trkpt>
      <trkpt lat="48.036190029233694" lon="14.416344640776515">
        <ele>234.39999389648401</ele>
        <time>2012-10-22T09:18:08Z</time>
      </trkpt>
      <trkpt lat="48.036167146638036" lon="14.416410438716412">
        <ele>233.80000305175801</ele>
        <time>2012-10-22T09:18:09Z</time>
      </trkpt>
      <trkpt lat="48.036148035898805" lon="14.416476236656308">
        <ele>233.39999389648401</ele>
        <time>2012-10-22T09:18:10Z</time>
      </trkpt>
      <trkpt lat="48.036125153303146" lon="14.416542034596205">
        <ele>232.80000305175801</ele>
        <time>2012-10-22T09:18:11Z</time>
      </trkpt>
      <trkpt lat="48.036102270707488" lon="14.416599282994866">
        <ele>232.39999389648401</ele>
        <time>2012-10-22T09:18:12Z</time>
      </trkpt>
      <trkpt lat="48.03607938811183" lon="14.41665175370872">
        <ele>231.80000305175801</ele>
        <time>2012-10-22T09:18:13Z</time>
      </trkpt>
      <trkpt lat="48.03606036119163" lon="14.416696513071656">
        <ele>231.39999389648401</ele>
        <time>2012-10-22T09:18:14Z</time>
      </trkpt>
      <trkpt lat="48.036041250452399" lon="14.416735656559467">
        <ele>231</ele>
        <time>2012-10-22T09:18:15Z</time>
      </trkpt>
      <trkpt lat="48.036025995388627" lon="14.416771866381168">
        <ele>230.60000610351599</ele>
        <time>2012-10-22T09:18:16Z</time>
      </trkpt>
      <trkpt lat="48.036014596000314" lon="14.416805226355791">
        <ele>230.19999694824199</ele>
        <time>2012-10-22T09:18:17Z</time>
      </trkpt>
      <trkpt lat="48.036003112792969" lon="14.416839592158794">
        <ele>229.80000305175801</ele>
        <time>2012-10-22T09:18:18Z</time>
      </trkpt>
      <trkpt lat="48.035976374521852" lon="14.41694738343358">
        <ele>229.80000305175801</ele>
        <time>2012-10-22T09:18:22Z</time>
      </trkpt>
      <trkpt lat="48.035976374521852" lon="14.416963560506701">
        <ele>229.80000305175801</ele>
        <time>2012-10-22T09:18:27Z</time>
      </trkpt>
      <trkpt lat="48.035976374521852" lon="14.416963560506701">
        <ele>229.80000305175801</ele>
        <time>2012-10-22T09:18:39Z</time>
      </trkpt>
      <trkpt lat="48.035976374521852" lon="14.416963560506701">
        <ele>229.80000305175801</ele>
        <time>2012-10-22T09:18:51Z</time>
      </trkpt>
      <trkpt lat="48.035976374521852" lon="14.416984599083662">
        <ele>229.80000305175801</ele>
        <time>2012-10-22T09:18:55Z</time>
      </trkpt>
      <trkpt lat="48.035984002053738" lon="14.417033214122057">
        <ele>229.80000305175801</ele>
        <time>2012-10-22T09:18:57Z</time>
      </trkpt>
      <trkpt lat="48.035953491926193" lon="14.41716673783958">
        <ele>229.80000305175801</ele>
        <time>2012-10-22T09:19:01Z</time>
      </trkpt>
      <trkpt lat="48.036003112792969" lon="14.417237313464284">
        <ele>229.80000305175801</ele>
        <time>2012-10-22T09:19:04Z</time>
      </trkpt>
      <trkpt lat="48.036037478595972" lon="14.417258268222213">
        <ele>229.39999389648401</ele>
        <time>2012-10-22T09:19:05Z</time>
      </trkpt>
      <trkpt lat="48.036067988723516" lon="14.417284000664949">
        <ele>229</ele>
        <time>2012-10-22T09:19:06Z</time>
      </trkpt>
      <trkpt lat="48.036098498851061" lon="14.417313588783145">
        <ele>228.60000610351599</ele>
        <time>2012-10-22T09:19:07Z</time>
      </trkpt>
      <trkpt lat="48.036129008978605" lon="14.417355498299003">
        <ele>228.19999694824199</ele>
        <time>2012-10-22T09:19:08Z</time>
      </trkpt>
      <trkpt lat="48.036148035898805" lon="14.417404197156429">
        <ele>227.80000305175801</ele>
        <time>2012-10-22T09:19:09Z</time>
      </trkpt>
      <trkpt lat="48.036216767504811" lon="14.417549120262265">
        <ele>227.80000305175801</ele>
        <time>2012-10-22T09:19:12Z</time>
      </trkpt>
      <trkpt lat="48.036281559616327" lon="14.41763972863555">
        <ele>227.80000305175801</ele>
        <time>2012-10-22T09:19:14Z</time>
      </trkpt>
      <trkpt lat="48.03635791875422" lon="14.417733186855912">
        <ele>227.80000305175801</ele>
        <time>2012-10-22T09:19:16Z</time>
      </trkpt>
      <trkpt lat="48.036449449136853" lon="14.417832344770432">
        <ele>227.19999694824199</ele>
        <time>2012-10-22T09:19:18Z</time>
      </trkpt>
      <trkpt lat="48.036502841860056" lon="14.417880037799478">
        <ele>226.80000305175801</ele>
        <time>2012-10-22T09:19:19Z</time>
      </trkpt>
      <trkpt lat="48.036556234583259" lon="14.417923958972096">
        <ele>226.39999389648401</ele>
        <time>2012-10-22T09:19:20Z</time>
      </trkpt>
      <trkpt lat="48.03661348298192" lon="14.417963018640876">
        <ele>226</ele>
        <time>2012-10-22T09:19:21Z</time>
      </trkpt>
      <trkpt lat="48.03667064756155" lon="14.417994534596801">
        <ele>225.39999389648401</ele>
        <time>2012-10-22T09:19:22Z</time>
      </trkpt>
      <trkpt lat="48.036781288683414" lon="14.418045077472925">
        <ele>225.39999389648401</ele>
        <time>2012-10-22T09:19:24Z</time>
      </trkpt>
      <trkpt lat="48.036891929805279" lon="14.418050777167082">
        <ele>225.39999389648401</ele>
        <time>2012-10-22T09:19:27Z</time>
      </trkpt>
      <trkpt lat="48.037040708586574" lon="14.41805555485189">
        <ele>225.39999389648401</ele>
        <time>2012-10-22T09:19:33Z</time>
      </trkpt>
      <trkpt lat="48.037250507622957" lon="14.418131830170751">
        <ele>225.39999389648401</ele>
        <time>2012-10-22T09:19:42Z</time>
      </trkpt>
      <trkpt lat="48.037437424063683" lon="14.418230066075921">
        <ele>225.39999389648401</ele>
        <time>2012-10-22T09:19:51Z</time>
      </trkpt>
      <trkpt lat="48.037513699382544" lon="14.418295864015818">
        <ele>225.39999389648401</ele>
        <time>2012-10-22T09:19:57Z</time>
      </trkpt>
      <trkpt lat="48.037620568647981" lon="14.41839125007391">
        <ele>225.39999389648401</ele>
        <time>2012-10-22T09:20:02Z</time>
      </trkpt>
      <trkpt lat="48.037845622748137" lon="14.418491329997778">
        <ele>225.39999389648401</ele>
        <time>2012-10-22T09:20:09Z</time>
      </trkpt>
      <trkpt lat="48.038036311045289" lon="14.418589565902948">
        <ele>225.39999389648401</ele>
        <time>2012-10-22T09:20:17Z</time>
      </trkpt>
      <trkpt lat="48.038207972422242" lon="14.41872694529593">
        <ele>225.39999389648401</ele>
        <time>2012-10-22T09:20:26Z</time>
      </trkpt>
      <trkpt lat="48.038368234410882" lon="14.418836580589414">
        <ele>225.39999389648401</ele>
        <time>2012-10-22T09:20:33Z</time>
      </trkpt>
      <trkpt lat="48.038524640724063" lon="14.418939594179392">
        <ele>225.39999389648401</ele>
        <time>2012-10-22T09:20:40Z</time>
      </trkpt>
      <trkpt lat="48.038578033447266" lon="14.418989215046167">
        <ele>225.39999389648401</ele>
        <time>2012-10-22T09:20:45Z</time>
      </trkpt>
      <trkpt lat="48.038578033447266" lon="14.418989215046167">
        <ele>225.39999389648401</ele>
        <time>2012-10-22T09:20:58Z</time>
      </trkpt>
      <trkpt lat="48.038578033447266" lon="14.418989215046167">
        <ele>225.39999389648401</ele>
        <time>2012-10-22T09:21:13Z</time>
      </trkpt>
      <trkpt lat="48.038578033447266" lon="14.418989215046167">
        <ele>225.39999389648401</ele>
        <time>2012-10-22T09:21:21Z</time>
      </trkpt>
      <trkpt lat="48.038578033447266" lon="14.418989215046167">
        <ele>225.39999389648401</ele>
        <time>2012-10-22T09:21:36Z</time>
      </trkpt>
      <trkpt lat="48.038578033447266" lon="14.418989215046167">
        <ele>225.39999389648401</ele>
        <time>2012-10-22T09:21:46Z</time>
      </trkpt>
      <trkpt lat="48.038578033447266" lon="14.418989215046167">
        <ele>225.39999389648401</ele>
        <time>2012-10-22T09:22:00Z</time>
      </trkpt>
      <trkpt lat="48.038578033447266" lon="14.418989215046167">
        <ele>225.39999389648401</ele>
        <time>2012-10-22T09:22:11Z</time>
      </trkpt>
      <trkpt lat="48.038578033447266" lon="14.418989215046167">
        <ele>225.39999389648401</ele>
        <time>2012-10-22T09:22:26Z</time>
      </trkpt>
      <trkpt lat="48.038578033447266" lon="14.418989215046167">
        <ele>225.39999389648401</ele>
        <time>2012-10-22T09:22:37Z</time>
      </trkpt>
      <trkpt lat="48.038612399250269" lon="14.41902257502079">
        <ele>225.39999389648401</ele>
        <time>2012-10-22T09:22:46Z</time>
      </trkpt>
      <trkpt lat="48.038719184696674" lon="14.419097928330302">
        <ele>225.39999389648401</ele>
        <time>2012-10-22T09:22:53Z</time>
      </trkpt>
      <trkpt lat="48.038822198286653" lon="14.419161798432469">
        <ele>225.39999389648401</ele>
        <time>2012-10-22T09:23:00Z</time>
      </trkpt>
      <trkpt lat="48.03886410780251" lon="14.419176131486893">
        <ele>225.39999389648401</ele>
        <time>2012-10-22T09:23:02Z</time>
      </trkpt>
      <trkpt lat="48.038883218541741" lon="14.419195158407092">
        <ele>225</ele>
        <time>2012-10-22T09:23:03Z</time>
      </trkpt>
      <trkpt lat="48.038902245461941" lon="14.419213263317943">
        <ele>224.60000610351599</ele>
        <time>2012-10-22T09:23:04Z</time>
      </trkpt>
      <trkpt lat="48.038917500525713" lon="14.419233296066523">
        <ele>224.19999694824199</ele>
        <time>2012-10-22T09:23:05Z</time>
      </trkpt>
      <trkpt lat="48.03894423879683" lon="14.419250478968024">
        <ele>223.80000305175801</ele>
        <time>2012-10-22T09:23:06Z</time>
      </trkpt>
      <trkpt lat="48.038970977067947" lon="14.419264812022448">
        <ele>223.39999389648401</ele>
        <time>2012-10-22T09:23:07Z</time>
      </trkpt>
      <trkpt lat="48.039039624854922" lon="14.419272439554334">
        <ele>223.39999389648401</ele>
        <time>2012-10-22T09:23:10Z</time>
      </trkpt>
      <trkpt lat="48.039218913763762" lon="14.419293394312263">
        <ele>223.39999389648401</ele>
        <time>2012-10-22T09:23:18Z</time>
      </trkpt>
      <trkpt lat="48.039337182417512" lon="14.419364891946316">
        <ele>223.39999389648401</ele>
        <time>2012-10-22T09:23:24Z</time>
      </trkpt>
      <trkpt lat="48.039485961198807" lon="14.419463127851486">
        <ele>223.39999389648401</ele>
        <time>2012-10-22T09:23:32Z</time>
      </trkpt>
      <trkpt lat="48.039638511836529" lon="14.419542336836457">
        <ele>223.39999389648401</ele>
        <time>2012-10-22T09:23:39Z</time>
      </trkpt>
      <trkpt lat="48.039806401357055" lon="14.419666305184364">
        <ele>223.39999389648401</ele>
        <time>2012-10-22T09:23:47Z</time>
      </trkpt>
      <trkpt lat="48.040000945329666" lon="14.419760685414076">
        <ele>223.39999389648401</ele>
        <time>2012-10-22T09:23:55Z</time>
      </trkpt>
      <trkpt lat="48.040107730776072" lon="14.419829333201051">
        <ele>223</ele>
        <time>2012-10-22T09:23:59Z</time>
      </trkpt>
      <trkpt lat="48.040134469047189" lon="14.419848443940282">
        <ele>222.19999694824199</ele>
        <time>2012-10-22T09:24:00Z</time>
      </trkpt>
      <trkpt lat="48.040164979174733" lon="14.419866548851132">
        <ele>221.80000305175801</ele>
        <time>2012-10-22T09:24:01Z</time>
      </trkpt>
      <trkpt lat="48.040191633626819" lon="14.419882809743285">
        <ele>221.39999389648401</ele>
        <time>2012-10-22T09:24:02Z</time>
      </trkpt>
      <trkpt lat="48.040218371897936" lon="14.419890437275171">
        <ele>221.39999389648401</ele>
        <time>2012-10-22T09:24:03Z</time>
      </trkpt>
      <trkpt lat="48.040363295003772" lon="14.419977189972997">
        <ele>221.39999389648401</ele>
        <time>2012-10-22T09:24:10Z</time>
      </trkpt>
      <trkpt lat="48.040515929460526" lon="14.420003928244114">
        <ele>221.39999389648401</ele>
        <time>2012-10-22T09:24:17Z</time>
      </trkpt>
      <trkpt lat="48.040649453178048" lon="14.420045837759972">
        <ele>221.39999389648401</ele>
        <time>2012-10-22T09:24:25Z</time>
      </trkpt>
      <trkpt lat="48.040744755417109" lon="14.420118341222405">
        <ele>221.39999389648401</ele>
        <time>2012-10-22T09:24:33Z</time>
      </trkpt>
      <trkpt lat="48.040874507278204" lon="14.420159328728914">
        <ele>221.39999389648401</ele>
        <time>2012-10-22T09:24:42Z</time>
      </trkpt>
      <trkpt lat="48.041084306314588" lon="14.420398715883493">
        <ele>221.39999389648401</ele>
        <time>2012-10-22T09:24:50Z</time>
      </trkpt>
      <trkpt lat="48.041240712627769" lon="14.420435931533575">
        <ele>221.39999389648401</ele>
        <time>2012-10-22T09:24:57Z</time>
      </trkpt>
      <trkpt lat="48.041481021791697" lon="14.420442553237081">
        <ele>221.39999389648401</ele>
        <time>2012-10-22T09:25:08Z</time>
      </trkpt>
      <trkpt lat="48.041614545509219" lon="14.420520756393671">
        <ele>221.39999389648401</ele>
        <time>2012-10-22T09:25:16Z</time>
      </trkpt>
      <trkpt lat="48.041789978742599" lon="14.420653358101845">
        <ele>221.39999389648401</ele>
        <time>2012-10-22T09:25:25Z</time>
      </trkpt>
      <trkpt lat="48.041961640119553" lon="14.42086030729115">
        <ele>221.39999389648401</ele>
        <time>2012-10-22T09:25:35Z</time>
      </trkpt>
      <trkpt lat="48.042022744193673" lon="14.420910850167274">
        <ele>221.39999389648401</ele>
        <time>2012-10-22T09:25:42Z</time>
      </trkpt>
      <trkpt lat="48.0420265160501" lon="14.420947059988976">
        <ele>221.39999389648401</ele>
        <time>2012-10-22T09:25:44Z</time>
      </trkpt>
      <trkpt lat="48.041969267651439" lon="14.421128276735544">
        <ele>221.39999389648401</ele>
        <time>2012-10-22T09:25:48Z</time>
      </trkpt>
      <trkpt lat="48.041915874928236" lon="14.421228440478444">
        <ele>221.39999389648401</ele>
        <time>2012-10-22T09:25:52Z</time>
      </trkpt>
      <trkpt lat="48.041915874928236" lon="14.421285605058074">
        <ele>221.39999389648401</ele>
        <time>2012-10-22T09:25:54Z</time>
      </trkpt>
      <trkpt lat="48.041866337880492" lon="14.42153362557292">
        <ele>221.39999389648401</ele>
        <time>2012-10-22T09:26:01Z</time>
      </trkpt>
      <trkpt lat="48.041820488870144" lon="14.421782484278083">
        <ele>221.39999389648401</ele>
        <time>2012-10-22T09:26:08Z</time>
      </trkpt>
      <trkpt lat="48.041759468615055" lon="14.422042826190591">
        <ele>221.80000305175801</ele>
        <time>2012-10-22T09:26:15Z</time>
      </trkpt>
      <trkpt lat="48.041751841083169" lon="14.422077191993594">
        <ele>222.19999694824199</ele>
        <time>2012-10-22T09:26:16Z</time>
      </trkpt>
      <trkpt lat="48.041744213551283" lon="14.422115329653025">
        <ele>222.60000610351599</ele>
        <time>2012-10-22T09:26:17Z</time>
      </trkpt>
      <trkpt lat="48.041736586019397" lon="14.422155395150185">
        <ele>223</ele>
        <time>2012-10-22T09:26:18Z</time>
      </trkpt>
      <trkpt lat="48.041728958487511" lon="14.422190682962537">
        <ele>223.39999389648401</ele>
        <time>2012-10-22T09:26:19Z</time>
      </trkpt>
      <trkpt lat="48.041698448359966" lon="14.422348011285067">
        <ele>223.39999389648401</ele>
        <time>2012-10-22T09:26:23Z</time>
      </trkpt>
      <trkpt lat="48.041641199961305" lon="14.422628385946155">
        <ele>223.39999389648401</ele>
        <time>2012-10-22T09:26:31Z</time>
      </trkpt>
      <trkpt lat="48.041622173041105" lon="14.422812452539802">
        <ele>223.39999389648401</ele>
        <time>2012-10-22T09:26:37Z</time>
      </trkpt>
      <trkpt lat="48.041675565764308" lon="14.423020323738456">
        <ele>223.39999389648401</ele>
        <time>2012-10-22T09:26:44Z</time>
      </trkpt>
      <trkpt lat="48.041709931567311" lon="14.42319106310606">
        <ele>223.80000305175801</ele>
        <time>2012-10-22T09:26:51Z</time>
      </trkpt>
      <trkpt lat="48.041713703423738" lon="14.423212017863989">
        <ele>224.19999694824199</ele>
        <time>2012-10-22T09:26:52Z</time>
      </trkpt>
      <trkpt lat="48.041721330955625" lon="14.423237834125757">
        <ele>225.19999694824199</ele>
        <time>2012-10-22T09:26:53Z</time>
      </trkpt>
      <trkpt lat="48.04173281416297" lon="14.423262560740113">
        <ele>225.60000610351599</ele>
        <time>2012-10-22T09:26:54Z</time>
      </trkpt>
      <trkpt lat="48.041782351210713" lon="14.423435227945447">
        <ele>225.60000610351599</ele>
        <time>2012-10-22T09:27:01Z</time>
      </trkpt>
      <trkpt lat="48.041824344545603" lon="14.423518208786845">
        <ele>225.60000610351599</ele>
        <time>2012-10-22T09:27:09Z</time>
      </trkpt>
      <trkpt lat="48.041862482205033" lon="14.423663131892681">
        <ele>225.60000610351599</ele>
        <time>2012-10-22T09:27:17Z</time>
      </trkpt>
      <trkpt lat="48.041919730603695" lon="14.42394258454442">
        <ele>225.60000610351599</ele>
        <time>2012-10-22T09:27:26Z</time>
      </trkpt>
      <trkpt lat="48.041969267651439" lon="14.424111396074295">
        <ele>225.60000610351599</ele>
        <time>2012-10-22T09:27:31Z</time>
      </trkpt>
      <trkpt lat="48.042015116661787" lon="14.424380287528038">
        <ele>225.60000610351599</ele>
        <time>2012-10-22T09:27:37Z</time>
      </trkpt>
      <trkpt lat="48.042045626789331" lon="14.424501406028867">
        <ele>225.60000610351599</ele>
        <time>2012-10-22T09:27:42Z</time>
      </trkpt>
      <trkpt lat="48.042064653709531" lon="14.424559576436877">
        <ele>225.60000610351599</ele>
        <time>2012-10-22T09:27:48Z</time>
      </trkpt>
      <trkpt lat="48.042129529640079" lon="14.424686394631863">
        <ele>225.60000610351599</ele>
        <time>2012-10-22T09:27:53Z</time>
      </trkpt>
      <trkpt lat="48.042160039767623" lon="14.424724616110325">
        <ele>225.60000610351599</ele>
        <time>2012-10-22T09:27:58Z</time>
      </trkpt>
      <trkpt lat="48.042232543230057" lon="14.424802819266915">
        <ele>225.60000610351599</ele>
        <time>2012-10-22T09:28:05Z</time>
      </trkpt>
      <trkpt lat="48.042308818548918" lon="14.42498872987926">
        <ele>225.60000610351599</ele>
        <time>2012-10-22T09:28:11Z</time>
      </trkpt>
      <trkpt lat="48.042396577075124" lon="14.425250077620149">
        <ele>225.60000610351599</ele>
        <time>2012-10-22T09:28:18Z</time>
      </trkpt>
      <trkpt lat="48.042453741654754" lon="14.425496086478233">
        <ele>225.60000610351599</ele>
        <time>2012-10-22T09:28:25Z</time>
      </trkpt>
      <trkpt lat="48.042503362521529" lon="14.425806049257517">
        <ele>225.60000610351599</ele>
        <time>2012-10-22T09:28:33Z</time>
      </trkpt>
      <trkpt lat="48.042510990053415" lon="14.426162699237466">
        <ele>225.60000610351599</ele>
        <time>2012-10-22T09:28:41Z</time>
      </trkpt>
      <trkpt lat="48.042583493515849" lon="14.426576597616076">
        <ele>225.60000610351599</ele>
        <time>2012-10-22T09:28:50Z</time>
      </trkpt>
      <trkpt lat="48.042602520436049" lon="14.426655806601048">
        <ele>226</ele>
        <time>2012-10-22T09:28:52Z</time>
      </trkpt>
      <trkpt lat="48.042614003643394" lon="14.426697716116905">
        <ele>226.39999389648401</ele>
        <time>2012-10-22T09:28:53Z</time>
      </trkpt>
      <trkpt lat="48.042617775499821" lon="14.426740631461143">
        <ele>226.80000305175801</ele>
        <time>2012-10-22T09:28:54Z</time>
      </trkpt>
      <trkpt lat="48.042625403031707" lon="14.426785474643111">
        <ele>227.19999694824199</ele>
        <time>2012-10-22T09:28:55Z</time>
      </trkpt>
      <trkpt lat="48.042633030563593" lon="14.42682838998735">
        <ele>227.60000610351599</ele>
        <time>2012-10-22T09:28:56Z</time>
      </trkpt>
      <trkpt lat="48.042636886239052" lon="14.426932325586677">
        <ele>227.60000610351599</ele>
        <time>2012-10-22T09:28:58Z</time>
      </trkpt>
      <trkpt lat="48.04262163117528" lon="14.427356701344252">
        <ele>227.60000610351599</ele>
        <time>2012-10-22T09:29:06Z</time>
      </trkpt>
      <trkpt lat="48.042537728324533" lon="14.427620898932219">
        <ele>227.60000610351599</ele>
        <time>2012-10-22T09:29:11Z</time>
      </trkpt>
      <trkpt lat="48.042537728324533" lon="14.427934633567929">
        <ele>227.60000610351599</ele>
        <time>2012-10-22T09:29:17Z</time>
      </trkpt>
      <trkpt lat="48.042564382776618" lon="14.428289439529181">
        <ele>227.60000610351599</ele>
        <time>2012-10-22T09:29:24Z</time>
      </trkpt>
      <trkpt lat="48.042560610920191" lon="14.428659416735172">
        <ele>227.60000610351599</ele>
        <time>2012-10-22T09:29:31Z</time>
      </trkpt>
      <trkpt lat="48.042545355856419" lon="14.429028471931815">
        <ele>227.60000610351599</ele>
        <time>2012-10-22T09:29:38Z</time>
      </trkpt>
      <trkpt lat="48.042537728324533" lon="14.429362323135138">
        <ele>227.60000610351599</ele>
        <time>2012-10-22T09:29:45Z</time>
      </trkpt>
      <trkpt lat="48.042556755244732" lon="14.429520573467016">
        <ele>227.60000610351599</ele>
        <time>2012-10-22T09:29:51Z</time>
      </trkpt>
      <trkpt lat="48.042610147967935" lon="14.429612187668681">
        <ele>227.60000610351599</ele>
        <time>2012-10-22T09:29:55Z</time>
      </trkpt>
      <trkpt lat="48.042617775499821" lon="14.429638842120767">
        <ele>227.60000610351599</ele>
        <time>2012-10-22T09:29:56Z</time>
      </trkpt>
      <trkpt lat="48.042709389701486" lon="14.429669352248311">
        <ele>227.60000610351599</ele>
        <time>2012-10-22T09:30:00Z</time>
      </trkpt>
      <trkpt lat="48.042755154892802" lon="14.429662730544806">
        <ele>227.60000610351599</ele>
        <time>2012-10-22T09:30:02Z</time>
      </trkpt>
      <trkpt lat="48.042770409956574" lon="14.429645547643304">
        <ele>227.60000610351599</ele>
        <time>2012-10-22T09:30:03Z</time>
      </trkpt>
      <trkpt lat="48.042774181813002" lon="14.429615037515759">
        <ele>227.60000610351599</ele>
        <time>2012-10-22T09:30:04Z</time>
      </trkpt>
      <trkpt lat="48.042793292552233" lon="14.429412866011262">
        <ele>227.60000610351599</ele>
        <time>2012-10-22T09:30:08Z</time>
      </trkpt>
      <trkpt lat="48.04279706440866" lon="14.429354695603251">
        <ele>227.60000610351599</ele>
        <time>2012-10-22T09:30:09Z</time>
      </trkpt>
      <trkpt lat="48.042816175147891" lon="14.429226871579885">
        <ele>227.19999694824199</ele>
        <time>2012-10-22T09:30:12Z</time>
      </trkpt>
      <trkpt lat="48.042827574536204" lon="14.429211616516113">
        <ele>226.80000305175801</ele>
        <time>2012-10-22T09:30:13Z</time>
      </trkpt>
      <trkpt lat="48.042839057743549" lon="14.429214466363192">
        <ele>226.39999389648401</ele>
        <time>2012-10-22T09:30:14Z</time>
      </trkpt>
      <trkpt lat="48.042850457131863" lon="14.429223099723458">
        <ele>225.80000305175801</ele>
        <time>2012-10-22T09:30:15Z</time>
      </trkpt>
      <trkpt lat="48.042858084663749" lon="14.42923734895885">
        <ele>225.39999389648401</ele>
        <time>2012-10-22T09:30:16Z</time>
      </trkpt>
      <trkpt lat="48.042858084663749" lon="14.429263081401587">
        <ele>225.39999389648401</ele>
        <time>2012-10-22T09:30:17Z</time>
      </trkpt>
      <trkpt lat="48.042861940339208" lon="14.429336506873369">
        <ele>225.39999389648401</ele>
        <time>2012-10-22T09:30:19Z</time>
      </trkpt>
      <trkpt lat="48.042861940339208" lon="14.429483441635966">
        <ele>225.39999389648401</ele>
        <time>2012-10-22T09:30:22Z</time>
      </trkpt>
      <trkpt lat="48.04287719540298" lon="14.429618809372187">
        <ele>225.39999389648401</ele>
        <time>2012-10-22T09:30:26Z</time>
      </trkpt>
      <trkpt lat="48.042896306142211" lon="14.42963314242661">
        <ele>225</ele>
        <time>2012-10-22T09:30:27Z</time>
      </trkpt>
      <trkpt lat="48.042919188737869" lon="14.429647475481033">
        <ele>224.60000610351599</ele>
        <time>2012-10-22T09:30:28Z</time>
      </trkpt>
      <trkpt lat="48.042945843189955" lon="14.42965317517519">
        <ele>224.19999694824199</ele>
        <time>2012-10-22T09:30:29Z</time>
      </trkpt>
      <trkpt lat="48.042968725785613" lon="14.429660802707076">
        <ele>223.80000305175801</ele>
        <time>2012-10-22T09:30:30Z</time>
      </trkpt>
      <trkpt lat="48.042987836524844" lon="14.429660802707076">
        <ele>223.39999389648401</ele>
        <time>2012-10-22T09:30:31Z</time>
      </trkpt>
      <trkpt lat="48.043003091588616" lon="14.429655103012919">
        <ele>223.39999389648401</ele>
        <time>2012-10-22T09:30:32Z</time>
      </trkpt>
      <trkpt lat="48.04313275963068" lon="14.429581677541137">
        <ele>223.39999389648401</ele>
        <time>2012-10-22T09:30:39Z</time>
      </trkpt>
      <trkpt lat="48.043251028284431" lon="14.429516801610589">
        <ele>223.39999389648401</ele>
        <time>2012-10-22T09:30:45Z</time>
      </trkpt>
      <trkpt lat="48.043323531746864" lon="14.429481513798237">
        <ele>223.39999389648401</ele>
        <time>2012-10-22T09:30:51Z</time>
      </trkpt>
      <trkpt lat="48.043327303603292" lon="14.429488219320774">
        <ele>223.39999389648401</ele>
        <time>2012-10-22T09:30:58Z</time>
      </trkpt>
      <trkpt lat="48.043327303603292" lon="14.429498696699739">
        <ele>223.39999389648401</ele>
        <time>2012-10-22T09:31:07Z</time>
      </trkpt>
      <trkpt lat="48.043327303603292" lon="14.429498696699739">
        <ele>223.39999389648401</ele>
        <time>2012-10-22T09:31:17Z</time>
      </trkpt>
      <trkpt lat="48.043357813730836" lon="14.429511101916432">
        <ele>223.39999389648401</ele>
        <time>2012-10-22T09:31:25Z</time>
      </trkpt>
      <trkpt lat="48.043472310528159" lon="14.429419487714767">
        <ele>223.39999389648401</ele>
        <time>2012-10-22T09:31:30Z</time>
      </trkpt>
      <trkpt lat="48.043640116229653" lon="14.429289819672704">
        <ele>223.39999389648401</ele>
        <time>2012-10-22T09:31:35Z</time>
      </trkpt>
      <trkpt lat="48.043880425393581" lon="14.429135341197252">
        <ele>223.39999389648401</ele>
        <time>2012-10-22T09:31:43Z</time>
      </trkpt>
      <trkpt lat="48.044044459238648" lon="14.429038027301431">
        <ele>223.39999389648401</ele>
        <time>2012-10-22T09:31:50Z</time>
      </trkpt>
      <trkpt lat="48.044078825041652" lon="14.428995111957192">
        <ele>223.39999389648401</ele>
        <time>2012-10-22T09:31:55Z</time>
      </trkpt>
      <trkpt lat="48.044082680717111" lon="14.428992262110114">
        <ele>223.80000305175801</ele>
        <time>2012-10-22T09:32:00Z</time>
      </trkpt>
      <trkpt lat="48.044082680717111" lon="14.428992262110114">
        <ele>224.39999389648401</ele>
        <time>2012-10-22T09:32:01Z</time>
      </trkpt>
      <trkpt lat="48.044082680717111" lon="14.428992262110114">
        <ele>224.80000305175801</ele>
        <time>2012-10-22T09:32:02Z</time>
      </trkpt>
      <trkpt lat="48.044082680717111" lon="14.428992262110114">
        <ele>225.39999389648401</ele>
        <time>2012-10-22T09:32:03Z</time>
      </trkpt>
      <trkpt lat="48.044082680717111" lon="14.428992262110114">
        <ele>225.80000305175801</ele>
        <time>2012-10-22T09:32:04Z</time>
      </trkpt>
      <trkpt lat="48.044082680717111" lon="14.428992262110114">
        <ele>225.39999389648401</ele>
        <time>2012-10-22T09:32:05Z</time>
      </trkpt>
      <trkpt lat="48.044082680717111" lon="14.428992262110114">
        <ele>225</ele>
        <time>2012-10-22T09:32:06Z</time>
      </trkpt>
      <trkpt lat="48.044082680717111" lon="14.428992262110114">
        <ele>224.60000610351599</ele>
        <time>2012-10-22T09:32:07Z</time>
      </trkpt>
      <trkpt lat="48.044082680717111" lon="14.428992262110114">
        <ele>224.19999694824199</ele>
        <time>2012-10-22T09:32:08Z</time>
      </trkpt>
      <trkpt lat="48.044082680717111" lon="14.428992262110114">
        <ele>223.80000305175801</ele>
        <time>2012-10-22T09:32:09Z</time>
      </trkpt>
      <trkpt lat="48.044082680717111" lon="14.428992262110114">
        <ele>223.80000305175801</ele>
        <time>2012-10-22T09:32:22Z</time>
      </trkpt>
      <trkpt lat="48.044082680717111" lon="14.428992262110114">
        <ele>223.80000305175801</ele>
        <time>2012-10-22T09:32:38Z</time>
      </trkpt>
      <trkpt lat="48.044082680717111" lon="14.428993184119463">
        <ele>223.19999694824199</ele>
        <time>2012-10-22T09:32:52Z</time>
      </trkpt>
      <trkpt lat="48.044082680717111" lon="14.428993184119463">
        <ele>223.39999389648401</ele>
        <time>2012-10-22T09:32:53Z</time>
      </trkpt>
      <trkpt lat="48.04410170763731" lon="14.428997961804271">
        <ele>223.60000610351599</ele>
        <time>2012-10-22T09:32:54Z</time>
      </trkpt>
      <trkpt lat="48.044113190844655" lon="14.428989412263036">
        <ele>224.39999389648401</ele>
        <time>2012-10-22T09:32:55Z</time>
      </trkpt>
      <trkpt lat="48.044124590232968" lon="14.428982706740499">
        <ele>224.60000610351599</ele>
        <time>2012-10-22T09:32:56Z</time>
      </trkpt>
      <trkpt lat="48.044139845296741" lon="14.428972229361534">
        <ele>224.80000305175801</ele>
        <time>2012-10-22T09:32:57Z</time>
      </trkpt>
      <trkpt lat="48.044155100360513" lon="14.428953202441335">
        <ele>225</ele>
        <time>2012-10-22T09:32:58Z</time>
      </trkpt>
      <trkpt lat="48.044170355424285" lon="14.428931241855025">
        <ele>225.19999694824199</ele>
        <time>2012-10-22T09:32:59Z</time>
      </trkpt>
      <trkpt lat="48.044197093695402" lon="14.428912131115794">
        <ele>225.39999389648401</ele>
        <time>2012-10-22T09:33:00Z</time>
      </trkpt>
      <trkpt lat="48.044265741482377" lon="14.428853960707784">
        <ele>225.39999389648401</ele>
        <time>2012-10-22T09:33:03Z</time>
      </trkpt>
      <trkpt lat="48.044288624078035" lon="14.428833927959204">
        <ele>225.39999389648401</ele>
        <time>2012-10-22T09:33:04Z</time>
      </trkpt>
      <trkpt lat="48.044322989881039" lon="14.428820600733161">
        <ele>225.39999389648401</ele>
        <time>2012-10-22T09:33:06Z</time>
      </trkpt>
      <trkpt lat="48.044342016801238" lon="14.428833005949855">
        <ele>225.39999389648401</ele>
        <time>2012-10-22T09:33:08Z</time>
      </trkpt>
      <trkpt lat="48.044368755072355" lon="14.428990334272385">
        <ele>224.80000305175801</ele>
        <time>2012-10-22T09:33:13Z</time>
      </trkpt>
      <trkpt lat="48.044391637668014" lon="14.42903995513916">
        <ele>224.39999389648401</ele>
        <time>2012-10-22T09:33:14Z</time>
      </trkpt>
      <trkpt lat="48.044414520263672" lon="14.429086726158857">
        <ele>223.60000610351599</ele>
        <time>2012-10-22T09:33:15Z</time>
      </trkpt>
      <trkpt lat="48.04443740285933" lon="14.429129641503096">
        <ele>223</ele>
        <time>2012-10-22T09:33:16Z</time>
      </trkpt>
      <trkpt lat="48.044509906321764" lon="14.429142968729138">
        <ele>223</ele>
        <time>2012-10-22T09:33:18Z</time>
      </trkpt>
      <trkpt lat="48.044578554108739" lon="14.429090498015285">
        <ele>223</ele>
        <time>2012-10-22T09:33:20Z</time>
      </trkpt>
      <trkpt lat="48.044673940166831" lon="14.428991340100765">
        <ele>223</ele>
        <time>2012-10-22T09:33:23Z</time>
      </trkpt>
      <trkpt lat="48.044841745868325" lon="14.428789168596268">
        <ele>223</ele>
        <time>2012-10-22T09:33:30Z</time>
      </trkpt>
      <trkpt lat="48.045024890452623" lon="14.428582219406962">
        <ele>223</ele>
        <time>2012-10-22T09:33:38Z</time>
      </trkpt>
      <trkpt lat="48.04507065564394" lon="14.428499238565564">
        <ele>223</ele>
        <time>2012-10-22T09:33:42Z</time>
      </trkpt>
      <trkpt lat="48.045082055032253" lon="14.428480127826333">
        <ele>223</ele>
        <time>2012-10-22T09:33:43Z</time>
      </trkpt>
      <trkpt lat="48.045146930962801" lon="14.428515415638685">
        <ele>223</ele>
        <time>2012-10-22T09:33:46Z</time>
      </trkpt>
      <trkpt lat="48.045196551829576" lon="14.428596468642354">
        <ele>223</ele>
        <time>2012-10-22T09:33:48Z</time>
      </trkpt>
      <trkpt lat="48.045284310355783" lon="14.428785312920809">
        <ele>223</ele>
        <time>2012-10-22T09:33:52Z</time>
      </trkpt>
      <trkpt lat="48.045478854328394" lon="14.429149590432644">
        <ele>223</ele>
        <time>2012-10-22T09:34:00Z</time>
      </trkpt>
      <trkpt lat="48.045688653364778" lon="14.429591149091721">
        <ele>223</ele>
        <time>2012-10-22T09:34:08Z</time>
      </trkpt>
      <trkpt lat="48.045738190412521" lon="14.42969131283462">
        <ele>223</ele>
        <time>2012-10-22T09:34:10Z</time>
      </trkpt>
      <trkpt lat="48.045825948938727" lon="14.429889712482691">
        <ele>223</ele>
        <time>2012-10-22T09:34:14Z</time>
      </trkpt>
      <trkpt lat="48.045951845124364" lon="14.429978393018246">
        <ele>223</ele>
        <time>2012-10-22T09:34:18Z</time>
      </trkpt>
      <trkpt lat="48.046150244772434" lon="14.429922066628933">
        <ele>223</ele>
        <time>2012-10-22T09:34:23Z</time>
      </trkpt>
      <trkpt lat="48.046329533681273" lon="14.429863896220922">
        <ele>223</ele>
        <time>2012-10-22T09:34:29Z</time>
      </trkpt>
      <trkpt lat="48.046600352972746" lon="14.42979147657752">
        <ele>223</ele>
        <time>2012-10-22T09:34:36Z</time>
      </trkpt>
      <trkpt lat="48.04692842066288" lon="14.429722744971514">
        <ele>223</ele>
        <time>2012-10-22T09:34:44Z</time>
      </trkpt>
      <trkpt lat="48.047168729826808" lon="14.429679829627275">
        <ele>223</ele>
        <time>2012-10-22T09:34:50Z</time>
      </trkpt>
      <trkpt lat="48.047374757006764" lon="14.429663652554154">
        <ele>223</ele>
        <time>2012-10-22T09:34:55Z</time>
      </trkpt>
      <trkpt lat="48.047550190240145" lon="14.429621659219265">
        <ele>223</ele>
        <time>2012-10-22T09:35:00Z</time>
      </trkpt>
      <trkpt lat="48.047847747802734" lon="14.429546389728785">
        <ele>223</ele>
        <time>2012-10-22T09:35:08Z</time>
      </trkpt>
      <trkpt lat="48.048110939562321" lon="14.429517723619938">
        <ele>223</ele>
        <time>2012-10-22T09:35:15Z</time>
      </trkpt>
      <trkpt lat="48.048244463279843" lon="14.42955301143229">
        <ele>223</ele>
        <time>2012-10-22T09:35:20Z</time>
      </trkpt>
      <trkpt lat="48.04840849712491" lon="14.429580671712756">
        <ele>223</ele>
        <time>2012-10-22T09:35:25Z</time>
      </trkpt>
      <trkpt lat="48.048690799623728" lon="14.429619815200567">
        <ele>223</ele>
        <time>2012-10-22T09:35:32Z</time>
      </trkpt>
      <trkpt lat="48.048988357186317" lon="14.429670358076692">
        <ele>223</ele>
        <time>2012-10-22T09:35:39Z</time>
      </trkpt>
      <trkpt lat="48.049072260037065" lon="14.429677985608578">
        <ele>223</ele>
        <time>2012-10-22T09:35:41Z</time>
      </trkpt>
      <trkpt lat="48.049251548945904" lon="14.429695168510079">
        <ele>223</ele>
        <time>2012-10-22T09:35:45Z</time>
      </trkpt>
      <trkpt lat="48.049568217247725" lon="14.429726600646973">
        <ele>223</ele>
        <time>2012-10-22T09:35:52Z</time>
      </trkpt>
      <trkpt lat="48.049663519486785" lon="14.42973137833178">
        <ele>223</ele>
        <time>2012-10-22T09:35:55Z</time>
      </trkpt>
      <trkpt lat="48.049690257757902" lon="14.429704640060663">
        <ele>223</ele>
        <time>2012-10-22T09:35:56Z</time>
      </trkpt>
      <trkpt lat="48.049728395417333" lon="14.429505318403244">
        <ele>223</ele>
        <time>2012-10-22T09:36:00Z</time>
      </trkpt>
      <trkpt lat="48.04973216727376" lon="14.429449075832963">
        <ele>223</ele>
        <time>2012-10-22T09:36:01Z</time>
      </trkpt>
      <trkpt lat="48.049751278012991" lon="14.429097203537822">
        <ele>223</ele>
        <time>2012-10-22T09:36:07Z</time>
      </trkpt>
      <trkpt lat="48.049770388752222" lon="14.428737619891763">
        <ele>223</ele>
        <time>2012-10-22T09:36:13Z</time>
      </trkpt>
      <trkpt lat="48.049770388752222" lon="14.428300838917494">
        <ele>223</ele>
        <time>2012-10-22T09:36:21Z</time>
      </trkpt>
      <trkpt lat="48.049823781475425" lon="14.428073856979609">
        <ele>223</ele>
        <time>2012-10-22T09:36:26Z</time>
      </trkpt>
      <trkpt lat="48.050029724836349" lon="14.427978554740548">
        <ele>223</ele>
        <time>2012-10-22T09:36:31Z</time>
      </trkpt>
      <trkpt lat="48.05034639313817" lon="14.427810665220022">
        <ele>223</ele>
        <time>2012-10-22T09:36:38Z</time>
      </trkpt>
      <trkpt lat="48.050689715892076" lon="14.427631376311183">
        <ele>223</ele>
        <time>2012-10-22T09:36:45Z</time>
      </trkpt>
      <trkpt lat="48.050731625407934" lon="14.427600866183639">
        <ele>223</ele>
        <time>2012-10-22T09:36:46Z</time>
      </trkpt>
      <trkpt lat="48.050865149125457" lon="14.427521741017699">
        <ele>223</ele>
        <time>2012-10-22T09:36:49Z</time>
      </trkpt>
      <trkpt lat="48.050910914316773" lon="14.427487375214696">
        <ele>223</ele>
        <time>2012-10-22T09:36:50Z</time>
      </trkpt>
      <trkpt lat="48.051021555438638" lon="14.427355779334903">
        <ele>223</ele>
        <time>2012-10-22T09:36:53Z</time>
      </trkpt>
      <trkpt lat="48.051052065566182" lon="14.427291909232736">
        <ele>223</ele>
        <time>2012-10-22T09:36:54Z</time>
      </trkpt>
      <trkpt lat="48.05107494816184" lon="14.427227033302188">
        <ele>222.60000610351599</ele>
        <time>2012-10-22T09:36:55Z</time>
      </trkpt>
      <trkpt lat="48.051097830757499" lon="14.427161235362291">
        <ele>222.19999694824199</ele>
        <time>2012-10-22T09:36:56Z</time>
      </trkpt>
      <trkpt lat="48.05111694149673" lon="14.427093509584665">
        <ele>221.80000305175801</ele>
        <time>2012-10-22T09:36:57Z</time>
      </trkpt>
      <trkpt lat="48.051132196560502" lon="14.427033411338925">
        <ele>221</ele>
        <time>2012-10-22T09:36:58Z</time>
      </trkpt>
      <trkpt lat="48.051158934831619" lon="14.426922770217061">
        <ele>221</ele>
        <time>2012-10-22T09:37:00Z</time>
      </trkpt>
      <trkpt lat="48.051238982006907" lon="14.426529910415411">
        <ele>221</ele>
        <time>2012-10-22T09:37:08Z</time>
      </trkpt>
      <trkpt lat="48.051242837682366" lon="14.42648883908987">
        <ele>221.39999389648401</ele>
        <time>2012-10-22T09:37:09Z</time>
      </trkpt>
      <trkpt lat="48.051242837682366" lon="14.426454557105899">
        <ele>221.80000305175801</ele>
        <time>2012-10-22T09:37:10Z</time>
      </trkpt>
      <trkpt lat="48.051246609538794" lon="14.426424046978354">
        <ele>222.39999389648401</ele>
        <time>2012-10-22T09:37:11Z</time>
      </trkpt>
      <trkpt lat="48.05125423707068" lon="14.426400158554316">
        <ele>222.80000305175801</ele>
        <time>2012-10-22T09:37:12Z</time>
      </trkpt>
      <trkpt lat="48.051265720278025" lon="14.426381131634116">
        <ele>223.19999694824199</ele>
        <time>2012-10-22T09:37:13Z</time>
      </trkpt>
      <trkpt lat="48.051345851272345" lon="14.426380125805736">
        <ele>223.19999694824199</ele>
        <time>2012-10-22T09:37:16Z</time>
      </trkpt>
      <trkpt lat="48.051422126591206" lon="14.426405942067504">
        <ele>223.19999694824199</ele>
        <time>2012-10-22T09:37:18Z</time>
      </trkpt>
      <trkpt lat="48.051555650308728" lon="14.426455479115248">
        <ele>223.19999694824199</ele>
        <time>2012-10-22T09:37:21Z</time>
      </trkpt>
      <trkpt lat="48.051864607259631" lon="14.426534688100219">
        <ele>223.19999694824199</ele>
        <time>2012-10-22T09:37:27Z</time>
      </trkpt>
      <trkpt lat="48.052207930013537" lon="14.426575675606728">
        <ele>222.80000305175801</ele>
        <time>2012-10-22T09:37:33Z</time>
      </trkpt>
      <trkpt lat="48.052265178412199" lon="14.426598558202386">
        <ele>222.39999389648401</ele>
        <time>2012-10-22T09:37:34Z</time>
      </trkpt>
      <trkpt lat="48.052322426810861" lon="14.426617585122585">
        <ele>222</ele>
        <time>2012-10-22T09:37:35Z</time>
      </trkpt>
      <trkpt lat="48.052379591390491" lon="14.426629990339279">
        <ele>221.60000610351599</ele>
        <time>2012-10-22T09:37:36Z</time>
      </trkpt>
      <trkpt lat="48.052425356581807" lon="14.426637617871165">
        <ele>221.19999694824199</ele>
        <time>2012-10-22T09:37:37Z</time>
      </trkpt>
      <trkpt lat="48.052562735974789" lon="14.42667106166482">
        <ele>221.19999694824199</ele>
        <time>2012-10-22T09:37:40Z</time>
      </trkpt>
      <trkpt lat="48.052738169208169" lon="14.426638623699546">
        <ele>221.19999694824199</ele>
        <time>2012-10-22T09:37:45Z</time>
      </trkpt>
      <trkpt lat="48.052921313792467" lon="14.426565198227763">
        <ele>221.19999694824199</ele>
        <time>2012-10-22T09:37:51Z</time>
      </trkpt>
      <trkpt lat="48.053161622956395" lon="14.42649177275598">
        <ele>221.19999694824199</ele>
        <time>2012-10-22T09:37:57Z</time>
      </trkpt>
      <trkpt lat="48.053466808050871" lon="14.426408791914582">
        <ele>221.19999694824199</ele>
        <time>2012-10-22T09:38:04Z</time>
      </trkpt>
      <trkpt lat="48.053768137469888" lon="14.426316255703568">
        <ele>221.19999694824199</ele>
        <time>2012-10-22T09:38:11Z</time>
      </trkpt>
      <trkpt lat="48.053939798846841" lon="14.426301922649145">
        <ele>221.19999694824199</ele>
        <time>2012-10-22T09:38:16Z</time>
      </trkpt>
      <trkpt lat="48.054206846281886" lon="14.426382053643465">
        <ele>221.19999694824199</ele>
        <time>2012-10-22T09:38:24Z</time>
      </trkpt>
      <trkpt lat="48.054481521248817" lon="14.426494622603059">
        <ele>221.19999694824199</ele>
        <time>2012-10-22T09:38:32Z</time>
      </trkpt>
      <trkpt lat="48.05475234054029" lon="14.426554720848799">
        <ele>221.19999694824199</ele>
        <time>2012-10-22T09:38:38Z</time>
      </trkpt>
      <trkpt lat="48.055042270570993" lon="14.426559414714575">
        <ele>221.19999694824199</ele>
        <time>2012-10-22T09:38:44Z</time>
      </trkpt>
      <trkpt lat="48.055358855053782" lon="14.426545165479183">
        <ele>221.19999694824199</ele>
        <time>2012-10-22T09:38:51Z</time>
      </trkpt>
      <trkpt lat="48.055515261366963" lon="14.426574669778347">
        <ele>221.19999694824199</ele>
        <time>2012-10-22T09:38:54Z</time>
      </trkpt>
      <trkpt lat="48.055622130632401" lon="14.42661096341908">
        <ele>221.19999694824199</ele>
        <time>2012-10-22T09:38:56Z</time>
      </trkpt>
      <trkpt lat="48.05597685277462" lon="14.426696794107556">
        <ele>221.19999694824199</ele>
        <time>2012-10-22T09:39:03Z</time>
      </trkpt>
      <trkpt lat="48.056308776140213" lon="14.426778769120574">
        <ele>221.19999694824199</ele>
        <time>2012-10-22T09:39:10Z</time>
      </trkpt>
      <trkpt lat="48.05664824321866" lon="14.426794024184346">
        <ele>221.19999694824199</ele>
        <time>2012-10-22T09:39:17Z</time>
      </trkpt>
      <trkpt lat="48.056957283988595" lon="14.426825540140271">
        <ele>221.19999694824199</ele>
        <time>2012-10-22T09:39:23Z</time>
      </trkpt>
      <trkpt lat="48.057208992540836" lon="14.426836939528584">
        <ele>221.19999694824199</ele>
        <time>2012-10-22T09:39:28Z</time>
      </trkpt>
      <trkpt lat="48.057434046640992" lon="14.426902737468481">
        <ele>221.19999694824199</ele>
        <time>2012-10-22T09:39:34Z</time>
      </trkpt>
      <trkpt lat="48.057609563693404" lon="14.427029639482498">
        <ele>221.19999694824199</ele>
        <time>2012-10-22T09:39:40Z</time>
      </trkpt>
      <trkpt lat="48.057884238660336" lon="14.427148830145597">
        <ele>221.19999694824199</ele>
        <time>2012-10-22T09:39:47Z</time>
      </trkpt>
      <trkpt lat="48.058166541159153" lon="14.427267098799348">
        <ele>221.19999694824199</ele>
        <time>2012-10-22T09:39:54Z</time>
      </trkpt>
      <trkpt lat="48.058380112051964" lon="14.427348151803017">
        <ele>221.19999694824199</ele>
        <time>2012-10-22T09:40:00Z</time>
      </trkpt>
      <trkpt lat="48.058612793684006" lon="14.427486453205347">
        <ele>221.19999694824199</ele>
        <time>2012-10-22T09:40:06Z</time>
      </trkpt>
      <trkpt lat="48.058982854709029" lon="14.427732462063432">
        <ele>221.19999694824199</ele>
        <time>2012-10-22T09:40:14Z</time>
      </trkpt>
      <trkpt lat="48.059280412271619" lon="14.427847880870104">
        <ele>221.19999694824199</ele>
        <time>2012-10-22T09:40:21Z</time>
      </trkpt>
      <trkpt lat="48.059452073648572" lon="14.427882162854075">
        <ele>221.19999694824199</ele>
        <time>2012-10-22T09:40:27Z</time>
      </trkpt>
      <trkpt lat="48.059558859094977" lon="14.427759200334549">
        <ele>221.19999694824199</ele>
        <time>2012-10-22T09:40:32Z</time>
      </trkpt>
      <trkpt lat="48.059593224897981" lon="14.427511179819703">
        <ele>221.19999694824199</ele>
        <time>2012-10-22T09:40:38Z</time>
      </trkpt>
      <trkpt lat="48.059661872684956" lon="14.427394839003682">
        <ele>221.19999694824199</ele>
        <time>2012-10-22T09:40:43Z</time>
      </trkpt>
      <trkpt lat="48.059700010344386" lon="14.427391067147255">
        <ele>221.60000610351599</ele>
        <time>2012-10-22T09:40:45Z</time>
      </trkpt>
      <trkpt lat="48.059722892940044" lon="14.427394839003682">
        <ele>222</ele>
        <time>2012-10-22T09:40:46Z</time>
      </trkpt>
      <trkpt lat="48.059742003679276" lon="14.427393916994333">
        <ele>222.39999389648401</ele>
        <time>2012-10-22T09:40:47Z</time>
      </trkpt>
      <trkpt lat="48.059764886274934" lon="14.427391989156604">
        <ele>222.80000305175801</ele>
        <time>2012-10-22T09:40:48Z</time>
      </trkpt>
      <trkpt lat="48.059791540727019" lon="14.427392994984984">
        <ele>223.19999694824199</ele>
        <time>2012-10-22T09:40:49Z</time>
      </trkpt>
      <trkpt lat="48.059970829635859" lon="14.427389139309525">
        <ele>223.19999694824199</ele>
        <time>2012-10-22T09:40:56Z</time>
      </trkpt>
      <trkpt lat="48.060134863480926" lon="14.427396766841412">
        <ele>223.19999694824199</ele>
        <time>2012-10-22T09:41:02Z</time>
      </trkpt>
      <trkpt lat="48.060329407453537" lon="14.427402466535568">
        <ele>223.19999694824199</ele>
        <time>2012-10-22T09:41:08Z</time>
      </trkpt>
      <trkpt lat="48.060398139059544" lon="14.427409172058105">
        <ele>223.60000610351599</ele>
        <time>2012-10-22T09:41:10Z</time>
      </trkpt>
      <trkpt lat="48.060428649187088" lon="14.427410094067454">
        <ele>224</ele>
        <time>2012-10-22T09:41:11Z</time>
      </trkpt>
      <trkpt lat="48.060466786846519" lon="14.427413027733564">
        <ele>224.60000610351599</ele>
        <time>2012-10-22T09:41:12Z</time>
      </trkpt>
      <trkpt lat="48.060508696362376" lon="14.427416799589992">
        <ele>225</ele>
        <time>2012-10-22T09:41:13Z</time>
      </trkpt>
      <trkpt lat="48.060546834021807" lon="14.427418727427721">
        <ele>225.39999389648401</ele>
        <time>2012-10-22T09:41:14Z</time>
      </trkpt>
      <trkpt lat="48.060615565627813" lon="14.427441610023379">
        <ele>225.39999389648401</ele>
        <time>2012-10-22T09:41:16Z</time>
      </trkpt>
      <trkpt lat="48.060936005786061" lon="14.42755987867713">
        <ele>225.39999389648401</ele>
        <time>2012-10-22T09:41:25Z</time>
      </trkpt>
      <trkpt lat="48.061305982992053" lon="14.427692396566272">
        <ele>225.39999389648401</ele>
        <time>2012-10-22T09:41:34Z</time>
      </trkpt>
      <trkpt lat="48.061565402895212" lon="14.427764900028706">
        <ele>225.39999389648401</ele>
        <time>2012-10-22T09:41:40Z</time>
      </trkpt>
      <trkpt lat="48.061801940202713" lon="14.427843103185296">
        <ele>225.39999389648401</ele>
        <time>2012-10-22T09:41:46Z</time>
      </trkpt>
      <trkpt lat="48.062015511095524" lon="14.427914600819349">
        <ele>225.39999389648401</ele>
        <time>2012-10-22T09:41:52Z</time>
      </trkpt>
      <trkpt lat="48.062339806929231" lon="14.428024319931865">
        <ele>225.39999389648401</ele>
        <time>2012-10-22T09:42:00Z</time>
      </trkpt>
      <trkpt lat="48.062423709779978" lon="14.428064385429025">
        <ele>225.39999389648401</ele>
        <time>2012-10-22T09:42:02Z</time>
      </trkpt>
      <trkpt lat="48.062595371156931" lon="14.42813110537827">
        <ele>225.39999389648401</ele>
        <time>2012-10-22T09:42:06Z</time>
      </trkpt>
      <trkpt lat="48.062934838235378" lon="14.428255995735526">
        <ele>225.39999389648401</ele>
        <time>2012-10-22T09:42:14Z</time>
      </trkpt>
      <trkpt lat="48.063316382467747" lon="14.428351381793618">
        <ele>225.39999389648401</ele>
        <time>2012-10-22T09:42:23Z</time>
      </trkpt>
      <trkpt lat="48.063617711886764" lon="14.428443918004632">
        <ele>225.39999389648401</ele>
        <time>2012-10-22T09:42:30Z</time>
      </trkpt>
      <trkpt lat="48.063655849546194" lon="14.428469650447369">
        <ele>225.39999389648401</ele>
        <time>2012-10-22T09:42:31Z</time>
      </trkpt>
      <trkpt lat="48.063854249194264" lon="14.428567886352539">
        <ele>225.39999389648401</ele>
        <time>2012-10-22T09:42:36Z</time>
      </trkpt>
      <trkpt lat="48.064212827011943" lon="14.428741475567222">
        <ele>225.39999389648401</ele>
        <time>2012-10-22T09:42:44Z</time>
      </trkpt>
      <trkpt lat="48.064556149765849" lon="14.428905509412289">
        <ele>225.39999389648401</ele>
        <time>2012-10-22T09:42:52Z</time>
      </trkpt>
      <trkpt lat="48.064918499439955" lon="14.42901992239058">
        <ele>225.39999389648401</ele>
        <time>2012-10-22T09:43:01Z</time>
      </trkpt>
      <trkpt lat="48.065197030082345" lon="14.429007517173886">
        <ele>225.39999389648401</ele>
        <time>2012-10-22T09:43:08Z</time>
      </trkpt>
      <trkpt lat="48.065273305401206" lon="14.429011372849345">
        <ele>225.80000305175801</ele>
        <time>2012-10-22T09:43:10Z</time>
      </trkpt>
      <trkpt lat="48.065311443060637" lon="14.429014222696424">
        <ele>226.19999694824199</ele>
        <time>2012-10-22T09:43:11Z</time>
      </trkpt>
      <trkpt lat="48.065349580720067" lon="14.429020844399929">
        <ele>226.60000610351599</ele>
        <time>2012-10-22T09:43:12Z</time>
      </trkpt>
      <trkpt lat="48.06538394652307" lon="14.429027549922466">
        <ele>227</ele>
        <time>2012-10-22T09:43:13Z</time>
      </trkpt>
      <trkpt lat="48.065422084182501" lon="14.429038027301431">
        <ele>227.39999389648401</ele>
        <time>2012-10-22T09:43:14Z</time>
      </trkpt>
      <trkpt lat="48.065624255686998" lon="14.429100975394249">
        <ele>227.39999389648401</ele>
        <time>2012-10-22T09:43:20Z</time>
      </trkpt>
      <trkpt lat="48.065876048058271" lon="14.429198289290071">
        <ele>227.39999389648401</ele>
        <time>2012-10-22T09:43:28Z</time>
      </trkpt>
      <trkpt lat="48.065933212637901" lon="14.42923542112112">
        <ele>227.80000305175801</ele>
        <time>2012-10-22T09:43:30Z</time>
      </trkpt>
      <trkpt lat="48.065963722765446" lon="14.429253609851003">
        <ele>228.19999694824199</ele>
        <time>2012-10-22T09:43:31Z</time>
      </trkpt>
      <trkpt lat="48.06599423289299" lon="14.429272636771202">
        <ele>229</ele>
        <time>2012-10-22T09:43:32Z</time>
      </trkpt>
      <trkpt lat="48.066020971164107" lon="14.429290741682053">
        <ele>229.39999389648401</ele>
        <time>2012-10-22T09:43:33Z</time>
      </trkpt>
      <trkpt lat="48.066101102158427" lon="14.429353689774871">
        <ele>229.39999389648401</ele>
        <time>2012-10-22T09:43:36Z</time>
      </trkpt>
      <trkpt lat="48.066295646131039" lon="14.429549239575863">
        <ele>229.39999389648401</ele>
        <time>2012-10-22T09:43:43Z</time>
      </trkpt>
      <trkpt lat="48.066459679976106" lon="14.429757110774517">
        <ele>229.39999389648401</ele>
        <time>2012-10-22T09:43:50Z</time>
      </trkpt>
      <trkpt lat="48.066589348018169" lon="14.429896334186196">
        <ele>229.39999389648401</ele>
        <time>2012-10-22T09:43:56Z</time>
      </trkpt>
      <trkpt lat="48.066608458757401" lon="14.429914439097047">
        <ele>229.80000305175801</ele>
        <time>2012-10-22T09:43:57Z</time>
      </trkpt>
      <trkpt lat="48.066623713821173" lon="14.429938327521086">
        <ele>230.19999694824199</ele>
        <time>2012-10-22T09:43:58Z</time>
      </trkpt>
      <trkpt lat="48.066646596416831" lon="14.429957354441285">
        <ele>230.80000305175801</ele>
        <time>2012-10-22T09:43:59Z</time>
      </trkpt>
      <trkpt lat="48.066661851480603" lon="14.429972609505057">
        <ele>231.19999694824199</ele>
        <time>2012-10-22T09:44:00Z</time>
      </trkpt>
      <trkpt lat="48.066677106544375" lon="14.429986942559481">
        <ele>231.60000610351599</ele>
        <time>2012-10-22T09:44:01Z</time>
      </trkpt>
      <trkpt lat="48.066696133464575" lon="14.430002197623253">
        <ele>231.60000610351599</ele>
        <time>2012-10-22T09:44:02Z</time>
      </trkpt>
      <trkpt lat="48.066848767921329" lon="14.430124321952462">
        <ele>232</ele>
        <time>2012-10-22T09:44:11Z</time>
      </trkpt>
      <trkpt lat="48.066864022985101" lon="14.430129015818238">
        <ele>232.39999389648401</ele>
        <time>2012-10-22T09:44:12Z</time>
      </trkpt>
      <trkpt lat="48.066875422373414" lon="14.430137649178505">
        <ele>232.80000305175801</ele>
        <time>2012-10-22T09:44:13Z</time>
      </trkpt>
      <trkpt lat="48.066890677437186" lon="14.430141421034932">
        <ele>233.19999694824199</ele>
        <time>2012-10-22T09:44:14Z</time>
      </trkpt>
      <trkpt lat="48.066902160644531" lon="14.430150976404548">
        <ele>233.60000610351599</ele>
        <time>2012-10-22T09:44:15Z</time>
      </trkpt>
      <trkpt lat="48.066932670772076" lon="14.430169081315398">
        <ele>233.60000610351599</ele>
        <time>2012-10-22T09:44:17Z</time>
      </trkpt>
      <trkpt lat="48.066978435963392" lon="14.430198669433594">
        <ele>234.19999694824199</ele>
        <time>2012-10-22T09:44:20Z</time>
      </trkpt>
      <trkpt lat="48.066993691027164" lon="14.430207218974829">
        <ele>235</ele>
        <time>2012-10-22T09:44:21Z</time>
      </trkpt>
      <trkpt lat="48.067008946090937" lon="14.430214846506715">
        <ele>235.39999389648401</ele>
        <time>2012-10-22T09:44:22Z</time>
      </trkpt>
      <trkpt lat="48.067028056830168" lon="14.43022632971406">
        <ele>235.80000305175801</ele>
        <time>2012-10-22T09:44:23Z</time>
      </trkpt>
      <trkpt lat="48.06704331189394" lon="14.430241584777832">
        <ele>235.80000305175801</ele>
        <time>2012-10-22T09:44:24Z</time>
      </trkpt>
      <trkpt lat="48.067127214744687" lon="14.430348370224237">
        <ele>236.19999694824199</ele>
        <time>2012-10-22T09:44:30Z</time>
      </trkpt>
      <trkpt lat="48.067142469808459" lon="14.430372258648276">
        <ele>236.60000610351599</ele>
        <time>2012-10-22T09:44:31Z</time>
      </trkpt>
      <trkpt lat="48.067157724872231" lon="14.430388435721397">
        <ele>237.19999694824199</ele>
        <time>2012-10-22T09:44:32Z</time>
      </trkpt>
      <trkpt lat="48.067172979936004" lon="14.43040369078517">
        <ele>237.60000610351599</ele>
        <time>2012-10-22T09:44:33Z</time>
      </trkpt>
      <trkpt lat="48.067184463143349" lon="14.43042179569602">
        <ele>238</ele>
        <time>2012-10-22T09:44:34Z</time>
      </trkpt>
      <trkpt lat="48.06726073846221" lon="14.430537214502692">
        <ele>238</ele>
        <time>2012-10-22T09:44:39Z</time>
      </trkpt>
      <trkpt lat="48.067337013781071" lon="14.43073745816946">
        <ele>238</ele>
        <time>2012-10-22T09:44:45Z</time>
      </trkpt>
      <trkpt lat="48.06745913811028" lon="14.430987322703004">
        <ele>238</ele>
        <time>2012-10-22T09:44:52Z</time>
      </trkpt>
      <trkpt lat="48.067573551088572" lon="14.431221932172775">
        <ele>238</ele>
        <time>2012-10-22T09:44:59Z</time>
      </trkpt>
      <trkpt lat="48.067695591598749" lon="14.431356461718678">
        <ele>238</ele>
        <time>2012-10-22T09:45:05Z</time>
      </trkpt>
      <trkpt lat="48.067840598523617" lon="14.431361239403486">
        <ele>238</ele>
        <time>2012-10-22T09:45:10Z</time>
      </trkpt>
      <trkpt lat="48.068027514964342" lon="14.431329723447561">
        <ele>238</ele>
        <time>2012-10-22T09:45:16Z</time>
      </trkpt>
      <trkpt lat="48.068210575729609" lon="14.431374566629529">
        <ele>238</ele>
        <time>2012-10-22T09:45:21Z</time>
      </trkpt>
      <trkpt lat="48.068531015887856" lon="14.431520495563745">
        <ele>238</ele>
        <time>2012-10-22T09:45:29Z</time>
      </trkpt>
      <trkpt lat="48.068729415535927" lon="14.431597692891955">
        <ele>238</ele>
        <time>2012-10-22T09:45:33Z</time>
      </trkpt>
      <trkpt lat="48.068813318386674" lon="14.431624431163073">
        <ele>238</ele>
        <time>2012-10-22T09:45:35Z</time>
      </trkpt>
      <trkpt lat="48.069072738289833" lon="14.431640608236194">
        <ele>238</ele>
        <time>2012-10-22T09:45:40Z</time>
      </trkpt>
      <trkpt lat="48.069133758544922" lon="14.431640608236194">
        <ele>237.60000610351599</ele>
        <time>2012-10-22T09:45:41Z</time>
      </trkpt>
      <trkpt lat="48.069202406331897" lon="14.431650163605809">
        <ele>237</ele>
        <time>2012-10-22T09:45:42Z</time>
      </trkpt>
      <trkpt lat="48.069271054118872" lon="14.431659718975425">
        <ele>236.60000610351599</ele>
        <time>2012-10-22T09:45:43Z</time>
      </trkpt>
      <trkpt lat="48.069335930049419" lon="14.431664496660233">
        <ele>236</ele>
        <time>2012-10-22T09:45:44Z</time>
      </trkpt>
      <trkpt lat="48.069408433511853" lon="14.43166927434504">
        <ele>235.60000610351599</ele>
        <time>2012-10-22T09:45:45Z</time>
      </trkpt>
      <trkpt lat="48.069480936974287" lon="14.431672124192119">
        <ele>235.19999694824199</ele>
        <time>2012-10-22T09:45:46Z</time>
      </trkpt>
      <trkpt lat="48.069553356617689" lon="14.431675896048546">
        <ele>234.80000305175801</ele>
        <time>2012-10-22T09:45:47Z</time>
      </trkpt>
      <trkpt lat="48.069625860080123" lon="14.431680673733354">
        <ele>234.19999694824199</ele>
        <time>2012-10-22T09:45:48Z</time>
      </trkpt>
      <trkpt lat="48.069698363542557" lon="14.431687379255891">
        <ele>233.80000305175801</ele>
        <time>2012-10-22T09:45:49Z</time>
      </trkpt>
      <trkpt lat="48.069774638861418" lon="14.431690229102969">
        <ele>233.39999389648401</ele>
        <time>2012-10-22T09:45:50Z</time>
      </trkpt>
      <trkpt lat="48.069976810365915" lon="14.431699784472585">
        <ele>233.39999389648401</ele>
        <time>2012-10-22T09:45:53Z</time>
      </trkpt>
      <trkpt lat="48.07020572014153" lon="14.431692156940699">
        <ele>233.39999389648401</ele>
        <time>2012-10-22T09:45:58Z</time>
      </trkpt>
      <trkpt lat="48.070442173629999" lon="14.431653935462236">
        <ele>233.39999389648401</ele>
        <time>2012-10-22T09:46:05Z</time>
      </trkpt>
      <trkpt lat="48.070674855262041" lon="14.43160817027092">
        <ele>233.80000305175801</ele>
        <time>2012-10-22T09:46:12Z</time>
      </trkpt>
      <trkpt lat="48.070716848596931" lon="14.4316091760993">
        <ele>234.19999694824199</ele>
        <time>2012-10-22T09:46:13Z</time>
      </trkpt>
      <trkpt lat="48.070751214399934" lon="14.431611020117998">
        <ele>234.60000610351599</ele>
        <time>2012-10-22T09:46:14Z</time>
      </trkpt>
      <trkpt lat="48.070785496383905" lon="14.431620575487614">
        <ele>235.19999694824199</ele>
        <time>2012-10-22T09:46:15Z</time>
      </trkpt>
      <trkpt lat="48.070823634043336" lon="14.43162920884788">
        <ele>235.60000610351599</ele>
        <time>2012-10-22T09:46:16Z</time>
      </trkpt>
      <trkpt lat="48.071048771962523" lon="14.431772204115987">
        <ele>235.60000610351599</ele>
        <time>2012-10-22T09:46:23Z</time>
      </trkpt>
      <trkpt lat="48.071144074201584" lon="14.431877145543694">
        <ele>235.60000610351599</ele>
        <time>2012-10-22T09:46:28Z</time>
      </trkpt>
      <trkpt lat="48.071285225450993" lon="14.43186666816473">
        <ele>235.60000610351599</ele>
        <time>2012-10-22T09:46:34Z</time>
      </trkpt>
      <trkpt lat="48.07139209471643" lon="14.431751249358058">
        <ele>235.60000610351599</ele>
        <time>2012-10-22T09:46:39Z</time>
      </trkpt>
      <trkpt lat="48.071495024487376" lon="14.431684529408813">
        <ele>235.60000610351599</ele>
        <time>2012-10-22T09:46:43Z</time>
      </trkpt>
      <trkpt lat="48.07152939029038" lon="14.431699784472585">
        <ele>235.60000610351599</ele>
        <time>2012-10-22T09:46:44Z</time>
      </trkpt>
      <trkpt lat="48.071624776348472" lon="14.431745549663901">
        <ele>235.60000610351599</ele>
        <time>2012-10-22T09:46:47Z</time>
      </trkpt>
      <trkpt lat="48.071796437725425" lon="14.43192383274436">
        <ele>235.60000610351599</ele>
        <time>2012-10-22T09:46:53Z</time>
      </trkpt>
      <trkpt lat="48.071922333911061" lon="14.432271011173725">
        <ele>235.60000610351599</ele>
        <time>2012-10-22T09:47:00Z</time>
      </trkpt>
      <trkpt lat="48.07204051874578" lon="14.432616261765361">
        <ele>236</ele>
        <time>2012-10-22T09:47:07Z</time>
      </trkpt>
      <trkpt lat="48.072055857628584" lon="14.432660099118948">
        <ele>236.39999389648401</ele>
        <time>2012-10-22T09:47:08Z</time>
      </trkpt>
      <trkpt lat="48.072074884548783" lon="14.432706870138645">
        <ele>236.80000305175801</ele>
        <time>2012-10-22T09:47:09Z</time>
      </trkpt>
      <trkpt lat="48.072086367756128" lon="14.43275741301477">
        <ele>237.19999694824199</ele>
        <time>2012-10-22T09:47:10Z</time>
      </trkpt>
      <trkpt lat="48.072101622819901" lon="14.432810805737972">
        <ele>237.60000610351599</ele>
        <time>2012-10-22T09:47:11Z</time>
      </trkpt>
      <trkpt lat="48.072177898138762" lon="14.433062514290214">
        <ele>237.60000610351599</ele>
        <time>2012-10-22T09:47:16Z</time>
      </trkpt>
      <trkpt lat="48.072265656664968" lon="14.43344590254128">
        <ele>237.60000610351599</ele>
        <time>2012-10-22T09:47:23Z</time>
      </trkpt>
      <trkpt lat="48.072368586435914" lon="14.433910343796015">
        <ele>237.60000610351599</ele>
        <time>2012-10-22T09:47:30Z</time>
      </trkpt>
      <trkpt lat="48.072509737685323" lon="14.434548374265432">
        <ele>237.60000610351599</ele>
        <time>2012-10-22T09:47:40Z</time>
      </trkpt>
      <trkpt lat="48.072601351886988" lon="14.435024298727512">
        <ele>237.60000610351599</ele>
        <time>2012-10-22T09:47:47Z</time>
      </trkpt>
      <trkpt lat="48.072608979418874" lon="14.435096718370914">
        <ele>237.60000610351599</ele>
        <time>2012-10-22T09:47:48Z</time>
      </trkpt>
      <trkpt lat="48.072666143998504" lon="14.435504917055368">
        <ele>237.60000610351599</ele>
        <time>2012-10-22T09:47:54Z</time>
      </trkpt>
      <trkpt lat="48.072799667716026" lon="14.4361353199929">
        <ele>237.60000610351599</ele>
        <time>2012-10-22T09:48:04Z</time>
      </trkpt>
      <trkpt lat="48.072971329092979" lon="14.436584506183863">
        <ele>237.60000610351599</ele>
        <time>2012-10-22T09:48:12Z</time>
      </trkpt>
      <trkpt lat="48.073051460087299" lon="14.436799082905054">
        <ele>237.60000610351599</ele>
        <time>2012-10-22T09:48:16Z</time>
      </trkpt>
      <trkpt lat="48.073142990469933" lon="14.43708423525095">
        <ele>237.60000610351599</ele>
        <time>2012-10-22T09:48:21Z</time>
      </trkpt>
      <trkpt lat="48.073219265788794" lon="14.437420852482319">
        <ele>237.60000610351599</ele>
        <time>2012-10-22T09:48:28Z</time>
      </trkpt>
      <trkpt lat="48.073246004059911" lon="14.437666861340404">
        <ele>237.60000610351599</ele>
        <time>2012-10-22T09:48:34Z</time>
      </trkpt>
      <trkpt lat="48.073246004059911" lon="14.437701227143407">
        <ele>238</ele>
        <time>2012-10-22T09:48:35Z</time>
      </trkpt>
      <trkpt lat="48.073249775916338" lon="14.437737436965108">
        <ele>238.39999389648401</ele>
        <time>2012-10-22T09:48:36Z</time>
      </trkpt>
      <trkpt lat="48.073253631591797" lon="14.437776580452919">
        <ele>238.80000305175801</ele>
        <time>2012-10-22T09:48:37Z</time>
      </trkpt>
      <trkpt lat="48.073249775916338" lon="14.437815640121698">
        <ele>239.39999389648401</ele>
        <time>2012-10-22T09:48:38Z</time>
      </trkpt>
      <trkpt lat="48.073249775916338" lon="14.437844306230545">
        <ele>239.80000305175801</ele>
        <time>2012-10-22T09:48:39Z</time>
      </trkpt>
      <trkpt lat="48.073242148384452" lon="14.437873810529709">
        <ele>239.80000305175801</ele>
        <time>2012-10-22T09:48:40Z</time>
      </trkpt>
      <trkpt lat="48.07322689332068" lon="14.437959641218185">
        <ele>240.19999694824199</ele>
        <time>2012-10-22T09:48:44Z</time>
      </trkpt>
      <trkpt lat="48.073219265788794" lon="14.437978751957417">
        <ele>240.60000610351599</ele>
        <time>2012-10-22T09:48:45Z</time>
      </trkpt>
      <trkpt lat="48.073223121464252" lon="14.438004484400153">
        <ele>241</ele>
        <time>2012-10-22T09:48:46Z</time>
      </trkpt>
      <trkpt lat="48.073219265788794" lon="14.438036000356078">
        <ele>241.39999389648401</ele>
        <time>2012-10-22T09:48:47Z</time>
      </trkpt>
      <trkpt lat="48.07320786640048" lon="14.438067432492971">
        <ele>241.80000305175801</ele>
        <time>2012-10-22T09:48:48Z</time>
      </trkpt>
      <trkpt lat="48.073173500597477" lon="14.438215289264917">
        <ele>242.19999694824199</ele>
        <time>2012-10-22T09:48:53Z</time>
      </trkpt>
      <trkpt lat="48.073165873065591" lon="14.438243871554732">
        <ele>243</ele>
        <time>2012-10-22T09:48:54Z</time>
      </trkpt>
      <trkpt lat="48.073165873065591" lon="14.438271531835198">
        <ele>243.39999389648401</ele>
        <time>2012-10-22T09:48:55Z</time>
      </trkpt>
      <trkpt lat="48.073162101209164" lon="14.438295336440206">
        <ele>243.80000305175801</ele>
        <time>2012-10-22T09:48:56Z</time>
      </trkpt>
      <trkpt lat="48.073150618001819" lon="14.438427938148379">
        <ele>244.19999694824199</ele>
        <time>2012-10-22T09:49:01Z</time>
      </trkpt>
      <trkpt lat="48.073154473677278" lon="14.438459370285273">
        <ele>244.80000305175801</ele>
        <time>2012-10-22T09:49:02Z</time>
      </trkpt>
      <trkpt lat="48.073158245533705" lon="14.438489880412817">
        <ele>245.19999694824199</ele>
        <time>2012-10-22T09:49:03Z</time>
      </trkpt>
      <trkpt lat="48.073162101209164" lon="14.438527096062899">
        <ele>245.60000610351599</ele>
        <time>2012-10-22T09:49:04Z</time>
      </trkpt>
      <trkpt lat="48.073165873065591" lon="14.438559534028172">
        <ele>246</ele>
        <time>2012-10-22T09:49:05Z</time>
      </trkpt>
      <trkpt lat="48.073177356272936" lon="14.438685430213809">
        <ele>246</ele>
        <time>2012-10-22T09:49:10Z</time>
      </trkpt>
      <trkpt lat="48.073181128129363" lon="14.438851391896605">
        <ele>246.39999389648401</ele>
        <time>2012-10-22T09:49:16Z</time>
      </trkpt>
      <trkpt lat="48.073181128129363" lon="14.438880896195769">
        <ele>246.80000305175801</ele>
        <time>2012-10-22T09:49:17Z</time>
      </trkpt>
      <trkpt lat="48.073177356272936" lon="14.438909562304616">
        <ele>247.60000610351599</ele>
        <time>2012-10-22T09:49:18Z</time>
      </trkpt>
      <trkpt lat="48.073177356272936" lon="14.438938144594431">
        <ele>248</ele>
        <time>2012-10-22T09:49:19Z</time>
      </trkpt>
      <trkpt lat="48.073177356272936" lon="14.439072590321302">
        <ele>248</ele>
        <time>2012-10-22T09:49:24Z</time>
      </trkpt>
      <trkpt lat="48.073154473677278" lon="14.439284317195415">
        <ele>248</ele>
        <time>2012-10-22T09:49:30Z</time>
      </trkpt>
      <trkpt lat="48.073150618001819" lon="14.439487494528294">
        <ele>248</ele>
        <time>2012-10-22T09:49:36Z</time>
      </trkpt>
      <trkpt lat="48.073188755661249" lon="14.439739203080535">
        <ele>248</ele>
        <time>2012-10-22T09:49:44Z</time>
      </trkpt>
      <trkpt lat="48.073200238868594" lon="14.439764935523272">
        <ele>248.39999389648401</ele>
        <time>2012-10-22T09:49:45Z</time>
      </trkpt>
      <trkpt lat="48.07320786640048" lon="14.439793601632118">
        <ele>248.80000305175801</ele>
        <time>2012-10-22T09:49:46Z</time>
      </trkpt>
      <trkpt lat="48.073215493932366" lon="14.439825033769011">
        <ele>249.19999694824199</ele>
        <time>2012-10-22T09:49:47Z</time>
      </trkpt>
      <trkpt lat="48.073223121464252" lon="14.439857471734285">
        <ele>249.60000610351599</ele>
        <time>2012-10-22T09:49:48Z</time>
      </trkpt>
      <trkpt lat="48.073234520852566" lon="14.439889909699559">
        <ele>250</ele>
        <time>2012-10-22T09:49:49Z</time>
      </trkpt>
      <trkpt lat="48.073280369862914" lon="14.440016727894545">
        <ele>250</ele>
        <time>2012-10-22T09:49:53Z</time>
      </trkpt>
      <trkpt lat="48.073398554697633" lon="14.440347645431757">
        <ele>250</ele>
        <time>2012-10-22T09:50:03Z</time>
      </trkpt>
      <trkpt lat="48.073478685691953" lon="14.440615614876151">
        <ele>250</ele>
        <time>2012-10-22T09:50:10Z</time>
      </trkpt>
      <trkpt lat="48.073570216074586" lon="14.440931361168623">
        <ele>250</ele>
        <time>2012-10-22T09:50:17Z</time>
      </trkpt>
      <trkpt lat="48.073638947680593" lon="14.441124899312854">
        <ele>250</ele>
        <time>2012-10-22T09:50:23Z</time>
      </trkpt>
      <trkpt lat="48.073654202744365" lon="14.44113353267312">
        <ele>250</ele>
        <time>2012-10-22T09:50:25Z</time>
      </trkpt>
      <trkpt lat="48.073654202744365" lon="14.441157337278128">
        <ele>250</ele>
        <time>2012-10-22T09:50:27Z</time>
      </trkpt>
      <trkpt lat="48.073654202744365" lon="14.441160187125206">
        <ele>250</ele>
        <time>2012-10-22T09:50:33Z</time>
      </trkpt>
      <trkpt lat="48.073654202744365" lon="14.441160187125206">
        <ele>250</ele>
        <time>2012-10-22T09:50:44Z</time>
      </trkpt>
      <trkpt lat="48.073654202744365" lon="14.441160187125206">
        <ele>250</ele>
        <time>2012-10-22T09:50:56Z</time>
      </trkpt>
      <trkpt lat="48.073650347068906" lon="14.441158259287477">
        <ele>250</ele>
        <time>2012-10-22T09:51:10Z</time>
      </trkpt>
      <trkpt lat="48.073650347068906" lon="14.441158259287477">
        <ele>250</ele>
        <time>2012-10-22T09:51:23Z</time>
      </trkpt>
      <trkpt lat="48.073650347068906" lon="14.441158259287477">
        <ele>250</ele>
        <time>2012-10-22T09:51:37Z</time>
      </trkpt>
      <trkpt lat="48.073650347068906" lon="14.441158259287477">
        <ele>250</ele>
        <time>2012-10-22T09:51:48Z</time>
      </trkpt>
      <trkpt lat="48.073650347068906" lon="14.441159265115857">
        <ele>250</ele>
        <time>2012-10-22T09:52:01Z</time>
      </trkpt>
      <trkpt lat="48.073650347068906" lon="14.441159265115857">
        <ele>250</ele>
        <time>2012-10-22T09:52:06Z</time>
      </trkpt>
      <trkpt lat="48.07368085719645" lon="14.441144932061434">
        <ele>250</ele>
        <time>2012-10-22T09:55:27Z</time>
      </trkpt>
      <trkpt lat="48.07368085719645" lon="14.441144932061434">
        <ele>250</ele>
        <time>2012-10-22T09:55:32Z</time>
      </trkpt>
      <trkpt lat="48.073711367323995" lon="14.441164964810014">
        <ele>250</ele>
        <time>2012-10-22T09:55:36Z</time>
      </trkpt>
      <trkpt lat="48.073711367323995" lon="14.441176448017359">
        <ele>250</ele>
        <time>2012-10-22T09:55:37Z</time>
      </trkpt>
      <trkpt lat="48.073753360658884" lon="14.441218357533216">
        <ele>250</ele>
        <time>2012-10-22T09:55:40Z</time>
      </trkpt>
      <trkpt lat="48.073795353993773" lon="14.441253645345569">
        <ele>250</ele>
        <time>2012-10-22T09:55:42Z</time>
      </trkpt>
      <trkpt lat="48.073967015370727" lon="14.441421534866095">
        <ele>250</ele>
        <time>2012-10-22T09:55:49Z</time>
      </trkpt>
      <trkpt lat="48.074146304279566" lon="14.441616078838706">
        <ele>250</ele>
        <time>2012-10-22T09:55:56Z</time>
      </trkpt>
      <trkpt lat="48.074336992576718" lon="14.441982284188271">
        <ele>250</ele>
        <time>2012-10-22T09:56:04Z</time>
      </trkpt>
      <trkpt lat="48.074424751102924" lon="14.442367516458035">
        <ele>250</ele>
        <time>2012-10-22T09:56:11Z</time>
      </trkpt>
      <trkpt lat="48.074462888762355" lon="14.442904461175203">
        <ele>250</ele>
        <time>2012-10-22T09:56:20Z</time>
      </trkpt>
      <trkpt lat="48.074481999501586" lon="14.443493876606226">
        <ele>250</ele>
        <time>2012-10-22T09:56:30Z</time>
      </trkpt>
      <trkpt lat="48.074497254565358" lon="14.443983044475317">
        <ele>250.39999389648401</ele>
        <time>2012-10-22T09:56:38Z</time>
      </trkpt>
      <trkpt lat="48.074501026421785" lon="14.444043142721057">
        <ele>250.80000305175801</ele>
        <time>2012-10-22T09:56:39Z</time>
      </trkpt>
      <trkpt lat="48.074501026421785" lon="14.444105168804526">
        <ele>251.19999694824199</ele>
        <time>2012-10-22T09:56:40Z</time>
      </trkpt>
      <trkpt lat="48.074501026421785" lon="14.444167111068964">
        <ele>251.60000610351599</ele>
        <time>2012-10-22T09:56:41Z</time>
      </trkpt>
      <trkpt lat="48.074501026421785" lon="14.444227209314704">
        <ele>252</ele>
        <time>2012-10-22T09:56:42Z</time>
      </trkpt>
      <trkpt lat="48.074508653953671" lon="14.444581009447575">
        <ele>252</ele>
        <time>2012-10-22T09:56:48Z</time>
      </trkpt>
      <trkpt lat="48.074523909017444" lon="14.445111248642206">
        <ele>252</ele>
        <time>2012-10-22T09:56:57Z</time>
      </trkpt>
      <trkpt lat="48.074558274820447" lon="14.445364968851209">
        <ele>252</ele>
        <time>2012-10-22T09:57:01Z</time>
      </trkpt>
      <trkpt lat="48.074623066931963" lon="14.445553813129663">
        <ele>252</ele>
        <time>2012-10-22T09:57:04Z</time>
      </trkpt>
      <trkpt lat="48.074771845713258" lon="14.445743579417467">
        <ele>252</ele>
        <time>2012-10-22T09:57:08Z</time>
      </trkpt>
      <trkpt lat="48.075107540935278" lon="14.446051614359021">
        <ele>252</ele>
        <time>2012-10-22T09:57:16Z</time>
      </trkpt>
      <trkpt lat="48.075355561450124" lon="14.446372976526618">
        <ele>252</ele>
        <time>2012-10-22T09:57:23Z</time>
      </trkpt>
      <trkpt lat="48.075630152598023" lon="14.446707749739289">
        <ele>252</ele>
        <time>2012-10-22T09:57:31Z</time>
      </trkpt>
      <trkpt lat="48.075946820899844" lon="14.447118798270822">
        <ele>252</ele>
        <time>2012-10-22T09:57:39Z</time>
      </trkpt>
      <trkpt lat="48.076164247468114" lon="14.447430605068803">
        <ele>251.60000610351599</ele>
        <time>2012-10-22T09:57:44Z</time>
      </trkpt>
      <trkpt lat="48.076210012659431" lon="14.447498330846429">
        <ele>251.19999694824199</ele>
        <time>2012-10-22T09:57:45Z</time>
      </trkpt>
      <trkpt lat="48.076255777850747" lon="14.447565050795674">
        <ele>250.60000610351599</ele>
        <time>2012-10-22T09:57:46Z</time>
      </trkpt>
      <trkpt lat="48.076301543042064" lon="14.447631854563951">
        <ele>250.19999694824199</ele>
        <time>2012-10-22T09:57:47Z</time>
      </trkpt>
      <trkpt lat="48.076351163908839" lon="14.447696646675467">
        <ele>249.80000305175801</ele>
        <time>2012-10-22T09:57:48Z</time>
      </trkpt>
      <trkpt lat="48.076663976535201" lon="14.448139211162925">
        <ele>249.39999389648401</ele>
        <time>2012-10-22T09:57:55Z</time>
      </trkpt>
      <trkpt lat="48.076702114194632" lon="14.448198303580284">
        <ele>249</ele>
        <time>2012-10-22T09:57:56Z</time>
      </trkpt>
      <trkpt lat="48.076736479997635" lon="14.448245074599981">
        <ele>248.60000610351599</ele>
        <time>2012-10-22T09:57:57Z</time>
      </trkpt>
      <trkpt lat="48.076766990125179" lon="14.448288911953568">
        <ele>247.80000305175801</ele>
        <time>2012-10-22T09:57:58Z</time>
      </trkpt>
      <trkpt lat="48.076828010380268" lon="14.448374742642045">
        <ele>247.80000305175801</ele>
        <time>2012-10-22T09:58:01Z</time>
      </trkpt>
      <trkpt lat="48.076900513842702" lon="14.448610274121165">
        <ele>247.80000305175801</ele>
        <time>2012-10-22T09:58:06Z</time>
      </trkpt>
      <trkpt lat="48.076946279034019" lon="14.448854438960552">
        <ele>247.80000305175801</ele>
        <time>2012-10-22T09:58:11Z</time>
      </trkpt>
      <trkpt lat="48.077148450538516" lon="14.44909474812448">
        <ele>247.80000305175801</ele>
        <time>2012-10-22T09:58:17Z</time>
      </trkpt>
      <trkpt lat="48.077323883771896" lon="14.449227349832654">
        <ele>247.80000305175801</ele>
        <time>2012-10-22T09:58:21Z</time>
      </trkpt>
      <trkpt lat="48.077457407489419" lon="14.449288370087743">
        <ele>247.80000305175801</ele>
        <time>2012-10-22T09:58:24Z</time>
      </trkpt>
      <trkpt lat="48.077838867902756" lon="14.449399011209607">
        <ele>247.80000305175801</ele>
        <time>2012-10-22T09:58:32Z</time>
      </trkpt>
      <trkpt lat="48.077884633094072" lon="14.449419043958187">
        <ele>247.80000305175801</ele>
        <time>2012-10-22T09:58:33Z</time>
      </trkpt>
      <trkpt lat="48.078163163736463" lon="14.449563045054674">
        <ele>247.80000305175801</ele>
        <time>2012-10-22T09:58:39Z</time>
      </trkpt>
      <trkpt lat="48.078517885878682" lon="14.44976806640625">
        <ele>247.80000305175801</ele>
        <time>2012-10-22T09:58:47Z</time>
      </trkpt>
      <trkpt lat="48.078559879213572" lon="14.449787177145481">
        <ele>247.80000305175801</ele>
        <time>2012-10-22T09:58:48Z</time>
      </trkpt>
      <trkpt lat="48.078815443441272" lon="14.449928244575858">
        <ele>247.80000305175801</ele>
        <time>2012-10-22T09:58:54Z</time>
      </trkpt>
      <trkpt lat="48.079200759530067" lon="14.450126644223928">
        <ele>247.80000305175801</ele>
        <time>2012-10-22T09:59:03Z</time>
      </trkpt>
      <trkpt lat="48.079357165843248" lon="14.450217252597213">
        <ele>247.80000305175801</ele>
        <time>2012-10-22T09:59:07Z</time>
      </trkpt>
      <trkpt lat="48.079425813630223" lon="14.450280200690031">
        <ele>247.80000305175801</ele>
        <time>2012-10-22T09:59:09Z</time>
      </trkpt>
      <trkpt lat="48.07968900538981" lon="14.450554875656962">
        <ele>247.80000305175801</ele>
        <time>2012-10-22T09:59:16Z</time>
      </trkpt>
      <trkpt lat="48.079963680356741" lon="14.450837094336748">
        <ele>247.39999389648401</ele>
        <time>2012-10-22T09:59:23Z</time>
      </trkpt>
      <trkpt lat="48.080001818016171" lon="14.45087531581521">
        <ele>247</ele>
        <time>2012-10-22T09:59:24Z</time>
      </trkpt>
      <trkpt lat="48.080039955675602" lon="14.45091244764626">
        <ele>246.60000610351599</ele>
        <time>2012-10-22T09:59:25Z</time>
      </trkpt>
      <trkpt lat="48.080078093335032" lon="14.450948741286993">
        <ele>246.19999694824199</ele>
        <time>2012-10-22T09:59:26Z</time>
      </trkpt>
      <trkpt lat="48.080116230994463" lon="14.450980173423886">
        <ele>245.80000305175801</ele>
        <time>2012-10-22T09:59:27Z</time>
      </trkpt>
      <trkpt lat="48.080364251509309" lon="14.451192822307348">
        <ele>245.80000305175801</ele>
        <time>2012-10-22T09:59:33Z</time>
      </trkpt>
      <trkpt lat="48.080665580928326" lon="14.451400777325034">
        <ele>245.80000305175801</ele>
        <time>2012-10-22T09:59:40Z</time>
      </trkpt>
      <trkpt lat="48.08089449070394" lon="14.451537150889635">
        <ele>245.80000305175801</ele>
        <time>2012-10-22T09:59:45Z</time>
      </trkpt>
      <trkpt lat="48.080970766022801" lon="14.451608648523688">
        <ele>245.80000305175801</ele>
        <time>2012-10-22T09:59:47Z</time>
      </trkpt>
      <trkpt lat="48.081047041341662" lon="14.451678302139044">
        <ele>245.80000305175801</ele>
        <time>2012-10-22T09:59:49Z</time>
      </trkpt>
      <trkpt lat="48.081253068521619" lon="14.451837558299303">
        <ele>245.80000305175801</ele>
        <time>2012-10-22T09:59:54Z</time>
      </trkpt>
      <trkpt lat="48.081470495089889" lon="14.451968232169747">
        <ele>245.80000305175801</ele>
        <time>2012-10-22T09:59:59Z</time>
      </trkpt>
      <trkpt lat="48.081733686849475" lon="14.452115083113313">
        <ele>245.80000305175801</ele>
        <time>2012-10-22T10:00:05Z</time>
      </trkpt>
      <trkpt lat="48.08204272761941" lon="14.452330581843853">
        <ele>245.80000305175801</ele>
        <time>2012-10-22T10:00:13Z</time>
      </trkpt>
      <trkpt lat="48.082290664315224" lon="14.452505093067884">
        <ele>245.80000305175801</ele>
        <time>2012-10-22T10:00:19Z</time>
      </trkpt>
      <trkpt lat="48.082412704825401" lon="14.452620511874557">
        <ele>245.80000305175801</ele>
        <time>2012-10-22T10:00:22Z</time>
      </trkpt>
      <trkpt lat="48.082744628190994" lon="14.452982861548662">
        <ele>245.80000305175801</ele>
        <time>2012-10-22T10:00:30Z</time>
      </trkpt>
      <trkpt lat="48.083015447482467" lon="14.453242281451821">
        <ele>245.80000305175801</ele>
        <time>2012-10-22T10:00:38Z</time>
      </trkpt>
      <trkpt lat="48.083248129114509" lon="14.453370105475187">
        <ele>245.80000305175801</ele>
        <time>2012-10-22T10:00:45Z</time>
      </trkpt>
      <trkpt lat="48.083366397768259" lon="14.453422576189041">
        <ele>245.80000305175801</ele>
        <time>2012-10-22T10:00:49Z</time>
      </trkpt>
      <trkpt lat="48.083538059145212" lon="14.453460713848472">
        <ele>245.80000305175801</ele>
        <time>2012-10-22T10:00:55Z</time>
      </trkpt>
      <trkpt lat="48.083759341388941" lon="14.453394915908575">
        <ele>245.80000305175801</ele>
        <time>2012-10-22T10:01:01Z</time>
      </trkpt>
      <trkpt lat="48.08407592587173" lon="14.453308079391718">
        <ele>245.80000305175801</ele>
        <time>2012-10-22T10:01:08Z</time>
      </trkpt>
      <trkpt lat="48.084125546738505" lon="14.453311935067177">
        <ele>245.19999694824199</ele>
        <time>2012-10-22T10:01:09Z</time>
      </trkpt>
      <trkpt lat="48.084175083786249" lon="14.453317634761333">
        <ele>244.80000305175801</ele>
        <time>2012-10-22T10:01:10Z</time>
      </trkpt>
      <trkpt lat="48.084224704653025" lon="14.453333895653486">
        <ele>244.39999389648401</ele>
        <time>2012-10-22T10:01:11Z</time>
      </trkpt>
      <trkpt lat="48.084270469844341" lon="14.453357700258493">
        <ele>244</ele>
        <time>2012-10-22T10:01:12Z</time>
      </trkpt>
      <trkpt lat="48.084316235035658" lon="14.453384438529611">
        <ele>243.60000610351599</ele>
        <time>2012-10-22T10:01:13Z</time>
      </trkpt>
      <trkpt lat="48.084579426795244" lon="14.453575126826763">
        <ele>243.60000610351599</ele>
        <time>2012-10-22T10:01:19Z</time>
      </trkpt>
      <trkpt lat="48.084693923592567" lon="14.453718205913901">
        <ele>243.60000610351599</ele>
        <time>2012-10-22T10:01:23Z</time>
      </trkpt>
      <trkpt lat="48.084686296060681" lon="14.45391652174294">
        <ele>243.60000610351599</ele>
        <time>2012-10-22T10:01:27Z</time>
      </trkpt>
      <trkpt lat="48.084636675193906" lon="14.454253222793341">
        <ele>243.60000610351599</ele>
        <time>2012-10-22T10:01:34Z</time>
      </trkpt>
      <trkpt lat="48.084705322980881" lon="14.454411473125219">
        <ele>243.60000610351599</ele>
        <time>2012-10-22T10:01:38Z</time>
      </trkpt>
      <trkpt lat="48.084907494485378" lon="14.454498309642076">
        <ele>243.60000610351599</ele>
        <time>2012-10-22T10:01:43Z</time>
      </trkpt>
      <trkpt lat="48.085243189707398" lon="14.454694781452417">
        <ele>243.60000610351599</ele>
        <time>2012-10-22T10:01:51Z</time>
      </trkpt>
      <trkpt lat="48.085624733939767" lon="14.454907430335879">
        <ele>243.60000610351599</ele>
        <time>2012-10-22T10:02:00Z</time>
      </trkpt>
      <trkpt lat="48.085990939289331" lon="14.45510289631784">
        <ele>243.60000610351599</ele>
        <time>2012-10-22T10:02:08Z</time>
      </trkpt>
      <trkpt lat="48.086437191814184" lon="14.455342283472419">
        <ele>243.60000610351599</ele>
        <time>2012-10-22T10:02:17Z</time>
      </trkpt>
      <trkpt lat="48.086883528158069" lon="14.455590220168233">
        <ele>243.60000610351599</ele>
        <time>2012-10-22T10:02:26Z</time>
      </trkpt>
      <trkpt lat="48.086925521492958" lon="14.455629363656044">
        <ele>243.19999694824199</ele>
        <time>2012-10-22T10:02:27Z</time>
      </trkpt>
      <trkpt lat="48.086971286684275" lon="14.455669429153204">
        <ele>242.19999694824199</ele>
        <time>2012-10-22T10:02:28Z</time>
      </trkpt>
      <trkpt lat="48.087013280019164" lon="14.455701867118478">
        <ele>241.80000305175801</ele>
        <time>2012-10-22T10:02:29Z</time>
      </trkpt>
      <trkpt lat="48.087051417678595" lon="14.455727599561214">
        <ele>241.39999389648401</ele>
        <time>2012-10-22T10:02:30Z</time>
      </trkpt>
      <trkpt lat="48.087089555338025" lon="14.455749476328492">
        <ele>241.39999389648401</ele>
        <time>2012-10-22T10:02:31Z</time>
      </trkpt>
      <trkpt lat="48.087383257225156" lon="14.455935470759869">
        <ele>241.39999389648401</ele>
        <time>2012-10-22T10:02:38Z</time>
      </trkpt>
      <trkpt lat="48.087696069851518" lon="14.456073772162199">
        <ele>241.39999389648401</ele>
        <time>2012-10-22T10:02:46Z</time>
      </trkpt>
      <trkpt lat="48.087913496419787" lon="14.456183407455683">
        <ele>241.39999389648401</ele>
        <time>2012-10-22T10:02:52Z</time>
      </trkpt>
      <trkpt lat="48.088180543854833" lon="14.456294048577547">
        <ele>241.39999389648401</ele>
        <time>2012-10-22T10:02:59Z</time>
      </trkpt>
      <trkpt lat="48.08838271535933" lon="14.456397062167525">
        <ele>241.39999389648401</ele>
        <time>2012-10-22T10:03:04Z</time>
      </trkpt>
      <trkpt lat="48.088687900453806" lon="14.456530585885048">
        <ele>241.39999389648401</ele>
        <time>2012-10-22T10:03:10Z</time>
      </trkpt>
      <trkpt lat="48.089088471606374" lon="14.456685064360499">
        <ele>241.39999389648401</ele>
        <time>2012-10-22T10:03:18Z</time>
      </trkpt>
      <trkpt lat="48.089332552626729" lon="14.456699397414923">
        <ele>241.39999389648401</ele>
        <time>2012-10-22T10:03:24Z</time>
      </trkpt>
      <trkpt lat="48.089633965864778" lon="14.456739462912083">
        <ele>241.39999389648401</ele>
        <time>2012-10-22T10:03:32Z</time>
      </trkpt>
      <trkpt lat="48.089908640831709" lon="14.456857647746801">
        <ele>241.39999389648401</ele>
        <time>2012-10-22T10:03:39Z</time>
      </trkpt>
      <trkpt lat="48.090209970250726" lon="14.45698169991374">
        <ele>241.39999389648401</ele>
        <time>2012-10-22T10:03:45Z</time>
      </trkpt>
      <trkpt lat="48.090587574988604" lon="14.457188565284014">
        <ele>241.39999389648401</ele>
        <time>2012-10-22T10:03:53Z</time>
      </trkpt>
      <trkpt lat="48.090923270210624" lon="14.457404147833586">
        <ele>241.39999389648401</ele>
        <time>2012-10-22T10:04:00Z</time>
      </trkpt>
      <trkpt lat="48.09101102873683" lon="14.457446057349443">
        <ele>241.39999389648401</ele>
        <time>2012-10-22T10:04:02Z</time>
      </trkpt>
      <trkpt lat="48.09109115973115" lon="14.457483272999525">
        <ele>241.39999389648401</ele>
        <time>2012-10-22T10:04:04Z</time>
      </trkpt>
      <trkpt lat="48.091133153066039" lon="14.457509005442262">
        <ele>241.39999389648401</ele>
        <time>2012-10-22T10:04:05Z</time>
      </trkpt>
      <trkpt lat="48.091396344825625" lon="14.457643534988165">
        <ele>241</ele>
        <time>2012-10-22T10:04:11Z</time>
      </trkpt>
      <trkpt lat="48.091445881873369" lon="14.457664489746094">
        <ele>240.60000610351599</ele>
        <time>2012-10-22T10:04:12Z</time>
      </trkpt>
      <trkpt lat="48.091495502740145" lon="14.457687372341752">
        <ele>240.19999694824199</ele>
        <time>2012-10-22T10:04:13Z</time>
      </trkpt>
      <trkpt lat="48.091548895463347" lon="14.457715954631567">
        <ele>239.80000305175801</ele>
        <time>2012-10-22T10:04:14Z</time>
      </trkpt>
      <trkpt lat="48.091594660654664" lon="14.457737915217876">
        <ele>239.39999389648401</ele>
        <time>2012-10-22T10:04:15Z</time>
      </trkpt>
      <trkpt lat="48.091693902388215" lon="14.457779908552766">
        <ele>239.39999389648401</ele>
        <time>2012-10-22T10:04:17Z</time>
      </trkpt>
      <trkpt lat="48.091835053637624" lon="14.457833301275969">
        <ele>239.39999389648401</ele>
        <time>2012-10-22T10:04:20Z</time>
      </trkpt>
      <trkpt lat="48.091964721679688" lon="14.457924831658602">
        <ele>239.39999389648401</ele>
        <time>2012-10-22T10:04:23Z</time>
      </trkpt>
      <trkpt lat="48.092193631455302" lon="14.458120381459594">
        <ele>239.39999389648401</ele>
        <time>2012-10-22T10:04:29Z</time>
      </trkpt>
      <trkpt lat="48.09251407161355" lon="14.458419783040881">
        <ele>239.39999389648401</ele>
        <time>2012-10-22T10:04:37Z</time>
      </trkpt>
      <trkpt lat="48.092845911160111" lon="14.458692530170083">
        <ele>239.39999389648401</ele>
        <time>2012-10-22T10:04:45Z</time>
      </trkpt>
      <trkpt lat="48.093139613047242" lon="14.458867041394114">
        <ele>239.39999389648401</ele>
        <time>2012-10-22T10:04:52Z</time>
      </trkpt>
      <trkpt lat="48.093486791476607" lon="14.459040630608797">
        <ele>239.39999389648401</ele>
        <time>2012-10-22T10:05:00Z</time>
      </trkpt>
      <trkpt lat="48.093791976571083" lon="14.459231402724981">
        <ele>239.39999389648401</ele>
        <time>2012-10-22T10:05:08Z</time>
      </trkpt>
      <trkpt lat="48.094120044261217" lon="14.459464084357023">
        <ele>239.39999389648401</ele>
        <time>2012-10-22T10:05:16Z</time>
      </trkpt>
      <trkpt lat="48.094505276530981" lon="14.459752086549997">
        <ele>239.39999389648401</ele>
        <time>2012-10-22T10:05:25Z</time>
      </trkpt>
      <trkpt lat="48.094753297045827" lon="14.459951408207417">
        <ele>239.39999389648401</ele>
        <time>2012-10-22T10:05:31Z</time>
      </trkpt>
      <trkpt lat="48.095012633129954" lon="14.460185011848807">
        <ele>239.39999389648401</ele>
        <time>2012-10-22T10:05:38Z</time>
      </trkpt>
      <trkpt lat="48.095226287841797" lon="14.460381483659148">
        <ele>239.39999389648401</ele>
        <time>2012-10-22T10:05:44Z</time>
      </trkpt>
      <trkpt lat="48.095493335276842" lon="14.460622798651457">
        <ele>239.39999389648401</ele>
        <time>2012-10-22T10:05:50Z</time>
      </trkpt>
      <trkpt lat="48.095748899504542" lon="14.460847852751613">
        <ele>239.39999389648401</ele>
        <time>2012-10-22T10:05:56Z</time>
      </trkpt>
      <trkpt lat="48.096023574471474" lon="14.461174998432398">
        <ele>239.39999389648401</ele>
        <time>2012-10-22T10:06:03Z</time>
      </trkpt>
      <trkpt lat="48.096324903890491" lon="14.461517315357924">
        <ele>239.39999389648401</ele>
        <time>2012-10-22T10:06:11Z</time>
      </trkpt>
      <trkpt lat="48.096508048474789" lon="14.461845383048058">
        <ele>239.39999389648401</ele>
        <time>2012-10-22T10:06:18Z</time>
      </trkpt>
      <trkpt lat="48.0967025924474" lon="14.46217630058527">
        <ele>239.39999389648401</ele>
        <time>2012-10-22T10:06:25Z</time>
      </trkpt>
      <trkpt lat="48.096923790872097" lon="14.462589276954532">
        <ele>239.39999389648401</ele>
        <time>2012-10-22T10:06:33Z</time>
      </trkpt>
      <trkpt lat="48.096992522478104" lon="14.462681729346514">
        <ele>239.39999389648401</ele>
        <time>2012-10-22T10:06:35Z</time>
      </trkpt>
      <trkpt lat="48.097114562988281" lon="14.462788598611951">
        <ele>239.39999389648401</ele>
        <time>2012-10-22T10:06:38Z</time>
      </trkpt>
      <trkpt lat="48.097156556323171" lon="14.462814331054688">
        <ele>239.39999389648401</ele>
        <time>2012-10-22T10:06:39Z</time>
      </trkpt>
      <trkpt lat="48.097331989556551" lon="14.462875351309776">
        <ele>239.39999389648401</ele>
        <time>2012-10-22T10:06:43Z</time>
      </trkpt>
      <trkpt lat="48.097377754747868" lon="14.462882056832314">
        <ele>239.39999389648401</ele>
        <time>2012-10-22T10:06:44Z</time>
      </trkpt>
      <trkpt lat="48.097572298720479" lon="14.462857246398926">
        <ele>239.39999389648401</ele>
        <time>2012-10-22T10:06:48Z</time>
      </trkpt>
      <trkpt lat="48.097866084426641" lon="14.462784742936492">
        <ele>239.39999389648401</ele>
        <time>2012-10-22T10:06:54Z</time>
      </trkpt>
      <trkpt lat="48.097919477149844" lon="14.462768565863371">
        <ele>239.39999389648401</ele>
        <time>2012-10-22T10:06:55Z</time>
      </trkpt>
      <trkpt lat="48.098297081887722" lon="14.462686507031322">
        <ele>239</ele>
        <time>2012-10-22T10:07:02Z</time>
      </trkpt>
      <trkpt lat="48.098354330286384" lon="14.462697990238667">
        <ele>238.39999389648401</ele>
        <time>2012-10-22T10:07:03Z</time>
      </trkpt>
      <trkpt lat="48.098407723009586" lon="14.462720872834325">
        <ele>238</ele>
        <time>2012-10-22T10:07:04Z</time>
      </trkpt>
      <trkpt lat="48.098461115732789" lon="14.462754232808948">
        <ele>237.60000610351599</ele>
        <time>2012-10-22T10:07:05Z</time>
      </trkpt>
      <trkpt lat="48.098510736599565" lon="14.462797148153186">
        <ele>237.19999694824199</ele>
        <time>2012-10-22T10:07:06Z</time>
      </trkpt>
      <trkpt lat="48.09856035746634" lon="14.462842913344502">
        <ele>236.80000305175801</ele>
        <time>2012-10-22T10:07:07Z</time>
      </trkpt>
      <trkpt lat="48.098606122657657" lon="14.462888678535819">
        <ele>236.19999694824199</ele>
        <time>2012-10-22T10:07:08Z</time>
      </trkpt>
      <trkpt lat="48.098651887848973" lon="14.462937377393246">
        <ele>235.80000305175801</ele>
        <time>2012-10-22T10:07:09Z</time>
      </trkpt>
      <trkpt lat="48.09869765304029" lon="14.462984064593911">
        <ele>235.39999389648401</ele>
        <time>2012-10-22T10:07:10Z</time>
      </trkpt>
      <trkpt lat="48.098743418231606" lon="14.463030835613608">
        <ele>235</ele>
        <time>2012-10-22T10:07:11Z</time>
      </trkpt>
      <trkpt lat="48.098789183422923" lon="14.463081378489733">
        <ele>234.39999389648401</ele>
        <time>2012-10-22T10:07:12Z</time>
      </trkpt>
      <trkpt lat="48.098838804289699" lon="14.463140470907092">
        <ele>233.80000305175801</ele>
        <time>2012-10-22T10:07:13Z</time>
      </trkpt>
      <trkpt lat="48.098884569481015" lon="14.463207274675369">
        <ele>233.19999694824199</ele>
        <time>2012-10-22T10:07:14Z</time>
      </trkpt>
      <trkpt lat="48.098930334672332" lon="14.463273994624615">
        <ele>232.39999389648401</ele>
        <time>2012-10-22T10:07:15Z</time>
      </trkpt>
      <trkpt lat="48.098972328007221" lon="14.463338870555162">
        <ele>231.80000305175801</ele>
        <time>2012-10-22T10:07:16Z</time>
      </trkpt>
      <trkpt lat="48.099014321342111" lon="14.463401818647981">
        <ele>231.19999694824199</ele>
        <time>2012-10-22T10:07:17Z</time>
      </trkpt>
      <trkpt lat="48.099052459001541" lon="14.463466610759497">
        <ele>230.39999389648401</ele>
        <time>2012-10-22T10:07:18Z</time>
      </trkpt>
      <trkpt lat="48.099086740985513" lon="14.463522937148809">
        <ele>229.60000610351599</ele>
        <time>2012-10-22T10:07:19Z</time>
      </trkpt>
      <trkpt lat="48.099121106788516" lon="14.463575324043632">
        <ele>228.80000305175801</ele>
        <time>2012-10-22T10:07:20Z</time>
      </trkpt>
      <trkpt lat="48.09915161691606" lon="14.463624022901058">
        <ele>228.19999694824199</ele>
        <time>2012-10-22T10:07:21Z</time>
      </trkpt>
      <trkpt lat="48.099178355187178" lon="14.463665010407567">
        <ele>227.39999389648401</ele>
        <time>2012-10-22T10:07:22Z</time>
      </trkpt>
      <trkpt lat="48.099208865314722" lon="14.463700298219919">
        <ele>226.80000305175801</ele>
        <time>2012-10-22T10:07:23Z</time>
      </trkpt>
      <trkpt lat="48.099239375442266" lon="14.463729886338115">
        <ele>226.19999694824199</ele>
        <time>2012-10-22T10:07:24Z</time>
      </trkpt>
      <trkpt lat="48.099266029894352" lon="14.463760396465659">
        <ele>225</ele>
        <time>2012-10-22T10:07:25Z</time>
      </trkpt>
      <trkpt lat="48.09928891249001" lon="14.463801383972168">
        <ele>224.39999389648401</ele>
        <time>2012-10-22T10:07:26Z</time>
      </trkpt>
      <trkpt lat="48.099311795085669" lon="14.463848154991865">
        <ele>223.80000305175801</ele>
        <time>2012-10-22T10:07:27Z</time>
      </trkpt>
      <trkpt lat="48.099338533356786" lon="14.463910097256303">
        <ele>223.80000305175801</ele>
        <time>2012-10-22T10:07:28Z</time>
      </trkpt>
      <trkpt lat="48.099388154223561" lon="14.464033143594861">
        <ele>223.39999389648401</ele>
        <time>2012-10-22T10:07:30Z</time>
      </trkpt>
      <trkpt lat="48.099403409287333" lon="14.464085614308715">
        <ele>223</ele>
        <time>2012-10-22T10:07:31Z</time>
      </trkpt>
      <trkpt lat="48.099418664351106" lon="14.464131379500031">
        <ele>222.39999389648401</ele>
        <time>2012-10-22T10:07:32Z</time>
      </trkpt>
      <trkpt lat="48.099430063739419" lon="14.464175216853619">
        <ele>222</ele>
        <time>2012-10-22T10:07:33Z</time>
      </trkpt>
      <trkpt lat="48.099445318803191" lon="14.464217210188508">
        <ele>221.60000610351599</ele>
        <time>2012-10-22T10:07:34Z</time>
      </trkpt>
      <trkpt lat="48.099464429542422" lon="14.464243864640594">
        <ele>221.60000610351599</ele>
        <time>2012-10-22T10:07:35Z</time>
      </trkpt>
      <trkpt lat="48.099567443132401" lon="14.464213354513049">
        <ele>221.60000610351599</ele>
        <time>2012-10-22T10:07:38Z</time>
      </trkpt>
      <trkpt lat="48.099636090919375" lon="14.464142778888345">
        <ele>221.60000610351599</ele>
        <time>2012-10-22T10:07:40Z</time>
      </trkpt>
      <trkpt lat="48.099788641557097" lon="14.463975895196199">
        <ele>221.60000610351599</ele>
        <time>2012-10-22T10:07:44Z</time>
      </trkpt>
      <trkpt lat="48.100078571587801" lon="14.46369837038219">
        <ele>221.60000610351599</ele>
        <time>2012-10-22T10:07:51Z</time>
      </trkpt>
      <trkpt lat="48.100414266809821" lon="14.463511453941464">
        <ele>221.60000610351599</ele>
        <time>2012-10-22T10:07:58Z</time>
      </trkpt>
      <trkpt lat="48.100749962031841" lon="14.463369380682707">
        <ele>221.60000610351599</ele>
        <time>2012-10-22T10:08:05Z</time>
      </trkpt>
      <trkpt lat="48.101100912317634" lon="14.463244406506419">
        <ele>221.60000610351599</ele>
        <time>2012-10-22T10:08:12Z</time>
      </trkpt>
      <trkpt lat="48.101463345810771" lon="14.463129993528128">
        <ele>221.60000610351599</ele>
        <time>2012-10-22T10:08:19Z</time>
      </trkpt>
      <trkpt lat="48.101837178692222" lon="14.463012730702758">
        <ele>221.60000610351599</ele>
        <time>2012-10-22T10:08:26Z</time>
      </trkpt>
      <trkpt lat="48.102325424551964" lon="14.462853390723467">
        <ele>221.60000610351599</ele>
        <time>2012-10-22T10:08:35Z</time>
      </trkpt>
      <trkpt lat="48.102809898555279" lon="14.462695140391588">
        <ele>221.60000610351599</ele>
        <time>2012-10-22T10:08:44Z</time>
      </trkpt>
      <trkpt lat="48.103290516883135" lon="14.462519623339176">
        <ele>221.60000610351599</ele>
        <time>2012-10-22T10:08:53Z</time>
      </trkpt>
      <trkpt lat="48.103694943711162" lon="14.462313679978251">
        <ele>221.60000610351599</ele>
        <time>2012-10-22T10:09:01Z</time>
      </trkpt>
      <trkpt lat="48.104003900662065" lon="14.46202090010047">
        <ele>221.60000610351599</ele>
        <time>2012-10-22T10:09:08Z</time>
      </trkpt>
      <trkpt lat="48.104263320565224" lon="14.461713787168264">
        <ele>221.60000610351599</ele>
        <time>2012-10-22T10:09:15Z</time>
      </trkpt>
      <trkpt lat="48.104301458224654" lon="14.461698532104492">
        <ele>221.60000610351599</ele>
        <time>2012-10-22T10:09:16Z</time>
      </trkpt>
      <trkpt lat="48.10438921675086" lon="14.461799617856741">
        <ele>221.60000610351599</ele>
        <time>2012-10-22T10:09:19Z</time>
      </trkpt>
      <trkpt lat="48.10440824367106" lon="14.461859716102481">
        <ele>221.60000610351599</ele>
        <time>2012-10-22T10:09:20Z</time>
      </trkpt>
      <trkpt lat="48.104553250595927" lon="14.462223993614316">
        <ele>221.19999694824199</ele>
        <time>2012-10-22T10:09:26Z</time>
      </trkpt>
      <trkpt lat="48.104579905048013" lon="14.462283169850707">
        <ele>220.80000305175801</ele>
        <time>2012-10-22T10:09:27Z</time>
      </trkpt>
      <trkpt lat="48.104610415175557" lon="14.462343184277415">
        <ele>220</ele>
        <time>2012-10-22T10:09:28Z</time>
      </trkpt>
      <trkpt lat="48.104640925303102" lon="14.462405210360885">
        <ele>219.60000610351599</ele>
        <time>2012-10-22T10:09:29Z</time>
      </trkpt>
      <trkpt lat="48.104797331616282" lon="14.462698912248015">
        <ele>219.60000610351599</ele>
        <time>2012-10-22T10:09:34Z</time>
      </trkpt>
      <trkpt lat="48.105075862258673" lon="14.463279694318771">
        <ele>219.60000610351599</ele>
        <time>2012-10-22T10:09:43Z</time>
      </trkpt>
      <trkpt lat="48.105373419821262" lon="14.463934907689691">
        <ele>219.60000610351599</ele>
        <time>2012-10-22T10:09:53Z</time>
      </trkpt>
      <trkpt lat="48.105667121708393" lon="14.464574782177806">
        <ele>219.60000610351599</ele>
        <time>2012-10-22T10:10:03Z</time>
      </trkpt>
      <trkpt lat="48.105834927409887" lon="14.465039223432541">
        <ele>219.60000610351599</ele>
        <time>2012-10-22T10:10:10Z</time>
      </trkpt>
      <trkpt lat="48.10583115555346" lon="14.465341558679938">
        <ele>219.60000610351599</ele>
        <time>2012-10-22T10:10:14Z</time>
      </trkpt>
      <trkpt lat="48.105800645425916" lon="14.465495115146041">
        <ele>219.60000610351599</ele>
        <time>2012-10-22T10:10:16Z</time>
      </trkpt>
      <trkpt lat="48.105705259367824" lon="14.46585277095437">
        <ele>219.60000610351599</ele>
        <time>2012-10-22T10:10:21Z</time>
      </trkpt>
      <trkpt lat="48.105586990714073" lon="14.466454507783055">
        <ele>219.60000610351599</ele>
        <time>2012-10-22T10:10:29Z</time>
      </trkpt>
      <trkpt lat="48.105564108118415" lon="14.466756843030453">
        <ele>219.19999694824199</ele>
        <time>2012-10-22T10:10:33Z</time>
      </trkpt>
      <trkpt lat="48.105560336261988" lon="14.466832196339965">
        <ele>218.60000610351599</ele>
        <time>2012-10-22T10:10:34Z</time>
      </trkpt>
      <trkpt lat="48.105556480586529" lon="14.466905621811748">
        <ele>218.19999694824199</ele>
        <time>2012-10-22T10:10:35Z</time>
      </trkpt>
      <trkpt lat="48.105552708730102" lon="14.466977119445801">
        <ele>217.80000305175801</ele>
        <time>2012-10-22T10:10:36Z</time>
      </trkpt>
      <trkpt lat="48.105548853054643" lon="14.467051466926932">
        <ele>217.39999389648401</ele>
        <time>2012-10-22T10:10:37Z</time>
      </trkpt>
      <trkpt lat="48.105525970458984" lon="14.467636104673147">
        <ele>217.39999389648401</ele>
        <time>2012-10-22T10:10:45Z</time>
      </trkpt>
      <trkpt lat="48.105464950203896" lon="14.46814346127212">
        <ele>217.39999389648401</ele>
        <time>2012-10-22T10:10:52Z</time>
      </trkpt>
      <trkpt lat="48.105316171422601" lon="14.468560209497809">
        <ele>217.39999389648401</ele>
        <time>2012-10-22T10:10:58Z</time>
      </trkpt>
      <trkpt lat="48.105163536965847" lon="14.468936892226338">
        <ele>217.39999389648401</ele>
        <time>2012-10-22T10:11:04Z</time>
      </trkpt>
      <trkpt lat="48.105045352131128" lon="14.469266887754202">
        <ele>217.39999389648401</ele>
        <time>2012-10-22T10:11:10Z</time>
      </trkpt>
      <trkpt lat="48.105037724599242" lon="14.46932983584702">
        <ele>217.39999389648401</ele>
        <time>2012-10-22T10:11:11Z</time>
      </trkpt>
      <trkpt lat="48.105064379051328" lon="14.469458581879735">
        <ele>217.39999389648401</ele>
        <time>2012-10-22T10:11:13Z</time>
      </trkpt>
      <trkpt lat="48.105163536965847" lon="14.469594955444336">
        <ele>217.39999389648401</ele>
        <time>2012-10-22T10:11:16Z</time>
      </trkpt>
      <trkpt lat="48.105205530300736" lon="14.469628315418959">
        <ele>217.39999389648401</ele>
        <time>2012-10-22T10:11:17Z</time>
      </trkpt>
      <trkpt lat="48.105491604655981" lon="14.469853369519114">
        <ele>217.39999389648401</ele>
        <time>2012-10-22T10:11:24Z</time>
      </trkpt>
      <trkpt lat="48.105724370107055" lon="14.470069874078035">
        <ele>217.39999389648401</ele>
        <time>2012-10-22T10:11:30Z</time>
      </trkpt>
      <trkpt lat="48.105934169143438" lon="14.470356954261661">
        <ele>217.39999389648401</ele>
        <time>2012-10-22T10:11:36Z</time>
      </trkpt>
      <trkpt lat="48.10618587769568" lon="14.47069357149303">
        <ele>217.39999389648401</ele>
        <time>2012-10-22T10:11:43Z</time>
      </trkpt>
      <trkpt lat="48.106445297598839" lon="14.470973946154118">
        <ele>217.39999389648401</ele>
        <time>2012-10-22T10:11:50Z</time>
      </trkpt>
      <trkpt lat="48.106758110225201" lon="14.471239065751433">
        <ele>217.39999389648401</ele>
        <time>2012-10-22T10:11:57Z</time>
      </trkpt>
      <trkpt lat="48.107143426313996" lon="14.471536623314023">
        <ele>217.39999389648401</ele>
        <time>2012-10-22T10:12:05Z</time>
      </trkpt>
      <trkpt lat="48.107509631663561" lon="14.471905678510666">
        <ele>217.39999389648401</ele>
        <time>2012-10-22T10:12:13Z</time>
      </trkpt>
      <trkpt lat="48.107925374060869" lon="14.472376825287938">
        <ele>217</ele>
        <time>2012-10-22T10:12:22Z</time>
      </trkpt>
      <trkpt lat="48.107967367395759" lon="14.472429296001792">
        <ele>216.60000610351599</ele>
        <time>2012-10-22T10:12:23Z</time>
      </trkpt>
      <trkpt lat="48.108013132587075" lon="14.472483610734344">
        <ele>216.19999694824199</ele>
        <time>2012-10-22T10:12:24Z</time>
      </trkpt>
      <trkpt lat="48.108055125921965" lon="14.472536081448197">
        <ele>215.80000305175801</ele>
        <time>2012-10-22T10:12:25Z</time>
      </trkpt>
      <trkpt lat="48.108093263581395" lon="14.472586624324322">
        <ele>215.39999389648401</ele>
        <time>2012-10-22T10:12:26Z</time>
      </trkpt>
      <trkpt lat="48.108207676559687" lon="14.472761135548353">
        <ele>215.39999389648401</ele>
        <time>2012-10-22T10:12:29Z</time>
      </trkpt>
      <trkpt lat="48.108509089797735" lon="14.473231276497245">
        <ele>215.39999389648401</ele>
        <time>2012-10-22T10:12:38Z</time>
      </trkpt>
      <trkpt lat="48.108779909089208" lon="14.473591782152653">
        <ele>215.39999389648401</ele>
        <time>2012-10-22T10:12:45Z</time>
      </trkpt>
      <trkpt lat="48.1088752951473" lon="14.473752966150641">
        <ele>215.39999389648401</ele>
        <time>2012-10-22T10:12:48Z</time>
      </trkpt>
      <trkpt lat="48.108947714790702" lon="14.473927477374673">
        <ele>215.39999389648401</ele>
        <time>2012-10-22T10:12:51Z</time>
      </trkpt>
      <trkpt lat="48.109069839119911" lon="14.474212629720569">
        <ele>215.39999389648401</ele>
        <time>2012-10-22T10:12:56Z</time>
      </trkpt>
      <trkpt lat="48.109180480241776" lon="14.474391918629408">
        <ele>215.39999389648401</ele>
        <time>2012-10-22T10:12:59Z</time>
      </trkpt>
      <trkpt lat="48.109306376427412" lon="14.474542625248432">
        <ele>215.39999389648401</ele>
        <time>2012-10-22T10:13:02Z</time>
      </trkpt>
      <trkpt lat="48.109485665336251" lon="14.474693331867456">
        <ele>215.39999389648401</ele>
        <time>2012-10-22T10:13:06Z</time>
      </trkpt>
      <trkpt lat="48.10980224981904" lon="14.47488309815526">
        <ele>215.39999389648401</ele>
        <time>2012-10-22T10:13:12Z</time>
      </trkpt>
      <trkpt lat="48.110023532062769" lon="14.475093819200993">
        <ele>215.39999389648401</ele>
        <time>2012-10-22T10:13:17Z</time>
      </trkpt>
      <trkpt lat="48.110404992476106" lon="14.475461030378938">
        <ele>215.39999389648401</ele>
        <time>2012-10-22T10:13:25Z</time>
      </trkpt>
      <trkpt lat="48.110500294715166" lon="14.475555410608649">
        <ele>215.39999389648401</ele>
        <time>2012-10-22T10:13:27Z</time>
      </trkpt>
      <trkpt lat="48.110679667443037" lon="14.47573184967041">
        <ele>215.39999389648401</ele>
        <time>2012-10-22T10:13:31Z</time>
      </trkpt>
      <trkpt lat="48.110977141186595" lon="14.476005518808961">
        <ele>215.39999389648401</ele>
        <time>2012-10-22T10:13:38Z</time>
      </trkpt>
      <trkpt lat="48.111228933557868" lon="14.476258317008615">
        <ele>215.39999389648401</ele>
        <time>2012-10-22T10:13:44Z</time>
      </trkpt>
      <trkpt lat="48.111553229391575" lon="14.476558724418283">
        <ele>215.39999389648401</ele>
        <time>2012-10-22T10:13:50Z</time>
      </trkpt>
      <trkpt lat="48.111824048683047" lon="14.47683909907937">
        <ele>215.39999389648401</ele>
        <time>2012-10-22T10:13:56Z</time>
      </trkpt>
      <trkpt lat="48.111907951533794" lon="14.476939179003239">
        <ele>215.39999389648401</ele>
        <time>2012-10-22T10:13:58Z</time>
      </trkpt>
      <trkpt lat="48.111999481916428" lon="14.477012604475021">
        <ele>215.39999389648401</ele>
        <time>2012-10-22T10:14:00Z</time>
      </trkpt>
      <trkpt lat="48.112102495506406" lon="14.477045042440295">
        <ele>215.39999389648401</ele>
        <time>2012-10-22T10:14:02Z</time>
      </trkpt>
      <trkpt lat="48.112354287877679" lon="14.477086029946804">
        <ele>215.39999389648401</ele>
        <time>2012-10-22T10:14:06Z</time>
      </trkpt>
      <trkpt lat="48.112476328387856" lon="14.477072702720761">
        <ele>215.39999389648401</ele>
        <time>2012-10-22T10:14:08Z</time>
      </trkpt>
      <trkpt lat="48.112594597041607" lon="14.477034565061331">
        <ele>215.39999389648401</ele>
        <time>2012-10-22T10:14:10Z</time>
      </trkpt>
      <trkpt lat="48.112743375822902" lon="14.476969689130783">
        <ele>215.39999389648401</ele>
        <time>2012-10-22T10:14:13Z</time>
      </trkpt>
      <trkpt lat="48.113067587837577" lon="14.476788556203246">
        <ele>215.39999389648401</ele>
        <time>2012-10-22T10:14:20Z</time>
      </trkpt>
      <trkpt lat="48.113384256139398" lon="14.476599711924791">
        <ele>215.39999389648401</ele>
        <time>2012-10-22T10:14:27Z</time>
      </trkpt>
      <trkpt lat="48.113433877006173" lon="14.476585378870368">
        <ele>215.39999389648401</ele>
        <time>2012-10-22T10:14:28Z</time>
      </trkpt>
      <trkpt lat="48.113491041585803" lon="14.476575823500752">
        <ele>215.39999389648401</ele>
        <time>2012-10-22T10:14:29Z</time>
      </trkpt>
      <trkpt lat="48.113712323829532" lon="14.476586300879717">
        <ele>215.39999389648401</ele>
        <time>2012-10-22T10:14:33Z</time>
      </trkpt>
      <trkpt lat="48.11403276398778" lon="14.476613039150834">
        <ele>215.39999389648401</ele>
        <time>2012-10-22T10:14:40Z</time>
      </trkpt>
      <trkpt lat="48.114307438954711" lon="14.476684536784887">
        <ele>215.39999389648401</ele>
        <time>2012-10-22T10:14:47Z</time>
      </trkpt>
      <trkpt lat="48.114463845267892" lon="14.476793250069022">
        <ele>215.39999389648401</ele>
        <time>2012-10-22T10:14:51Z</time>
      </trkpt>
      <trkpt lat="48.114559147506952" lon="14.476832393556833">
        <ele>215.39999389648401</ele>
        <time>2012-10-22T10:14:53Z</time>
      </trkpt>
      <trkpt lat="48.114604912698269" lon="14.476860053837299">
        <ele>215</ele>
        <time>2012-10-22T10:14:54Z</time>
      </trkpt>
      <trkpt lat="48.114650761708617" lon="14.476894419640303">
        <ele>214.60000610351599</ele>
        <time>2012-10-22T10:14:55Z</time>
      </trkpt>
      <trkpt lat="48.114692671224475" lon="14.476932557299733">
        <ele>214.19999694824199</ele>
        <time>2012-10-22T10:14:56Z</time>
      </trkpt>
      <trkpt lat="48.114738436415792" lon="14.476972538977861">
        <ele>213.80000305175801</ele>
        <time>2012-10-22T10:14:57Z</time>
      </trkpt>
      <trkpt lat="48.114784201607108" lon="14.477014532312751">
        <ele>213.39999389648401</ele>
        <time>2012-10-22T10:14:58Z</time>
      </trkpt>
      <trkpt lat="48.115196255967021" lon="14.477418875321746">
        <ele>213.39999389648401</ele>
        <time>2012-10-22T10:15:07Z</time>
      </trkpt>
      <trkpt lat="48.115306813269854" lon="14.477586764842272">
        <ele>213.39999389648401</ele>
        <time>2012-10-22T10:15:10Z</time>
      </trkpt>
      <trkpt lat="48.115345034748316" lon="14.477721210569143">
        <ele>213.39999389648401</ele>
        <time>2012-10-22T10:15:12Z</time>
      </trkpt>
      <trkpt lat="48.115379316732287" lon="14.47800443507731">
        <ele>213.39999389648401</ele>
        <time>2012-10-22T10:15:16Z</time>
      </trkpt>
      <trkpt lat="48.115386944264174" lon="14.478078866377473">
        <ele>213.39999389648401</ele>
        <time>2012-10-22T10:15:17Z</time>
      </trkpt>
      <trkpt lat="48.11539457179606" lon="14.478225717321038">
        <ele>213.39999389648401</ele>
        <time>2012-10-22T10:15:19Z</time>
      </trkpt>
      <trkpt lat="48.115436565130949" lon="14.478506091982126">
        <ele>213.39999389648401</ele>
        <time>2012-10-22T10:15:23Z</time>
      </trkpt>
      <trkpt lat="48.115455592051148" lon="14.478564262390137">
        <ele>213.39999389648401</ele>
        <time>2012-10-22T10:15:24Z</time>
      </trkpt>
      <trkpt lat="48.115528095513582" lon="14.478717818856239">
        <ele>213.39999389648401</ele>
        <time>2012-10-22T10:15:27Z</time>
      </trkpt>
      <trkpt lat="48.11559297144413" lon="14.478802643716335">
        <ele>213.39999389648401</ele>
        <time>2012-10-22T10:15:29Z</time>
      </trkpt>
      <trkpt lat="48.115707384422421" lon="14.4789132848382">
        <ele>213.39999389648401</ele>
        <time>2012-10-22T10:15:32Z</time>
      </trkpt>
      <trkpt lat="48.116046935319901" lon="14.479172704741359">
        <ele>213.39999389648401</ele>
        <time>2012-10-22T10:15:40Z</time>
      </trkpt>
      <trkpt lat="48.116096472367644" lon="14.479200365021825">
        <ele>213.39999389648401</ele>
        <time>2012-10-22T10:15:41Z</time>
      </trkpt>
      <trkpt lat="48.116199485957623" lon="14.479237580671906">
        <ele>213.39999389648401</ele>
        <time>2012-10-22T10:15:43Z</time>
      </trkpt>
      <trkpt lat="48.116313898935914" lon="14.479246130213141">
        <ele>213.39999389648401</ele>
        <time>2012-10-22T10:15:45Z</time>
      </trkpt>
      <trkpt lat="48.116378774866462" lon="14.479237580671906">
        <ele>213.39999389648401</ele>
        <time>2012-10-22T10:15:46Z</time>
      </trkpt>
      <trkpt lat="48.116573318839073" lon="14.479172704741359">
        <ele>213</ele>
        <time>2012-10-22T10:15:49Z</time>
      </trkpt>
      <trkpt lat="48.116634339094162" lon="14.479146972298622">
        <ele>212.60000610351599</ele>
        <time>2012-10-22T10:15:50Z</time>
      </trkpt>
      <trkpt lat="48.116687815636396" lon="14.479113612323999">
        <ele>212.19999694824199</ele>
        <time>2012-10-22T10:15:51Z</time>
      </trkpt>
      <trkpt lat="48.116744980216026" lon="14.479083102196455">
        <ele>211.60000610351599</ele>
        <time>2012-10-22T10:15:52Z</time>
      </trkpt>
      <trkpt lat="48.116798372939229" lon="14.479048736393452">
        <ele>211.19999694824199</ele>
        <time>2012-10-22T10:15:53Z</time>
      </trkpt>
      <trkpt lat="48.116893758997321" lon="14.478963827714324">
        <ele>211.19999694824199</ele>
        <time>2012-10-22T10:15:55Z</time>
      </trkpt>
      <trkpt lat="48.116935752332211" lon="14.478915212675929">
        <ele>211.19999694824199</ele>
        <time>2012-10-22T10:15:56Z</time>
      </trkpt>
      <trkpt lat="48.11707304790616" lon="14.47867683134973">
        <ele>211.19999694824199</ele>
        <time>2012-10-22T10:16:01Z</time>
      </trkpt>
      <trkpt lat="48.117118813097477" lon="14.478572811931372">
        <ele>212.19999694824199</ele>
        <time>2012-10-22T10:16:03Z</time>
      </trkpt>
      <trkpt lat="48.117145551368594" lon="14.47852042503655">
        <ele>212.60000610351599</ele>
        <time>2012-10-22T10:16:04Z</time>
      </trkpt>
      <trkpt lat="48.117176061496139" lon="14.478465104475617">
        <ele>213</ele>
        <time>2012-10-22T10:16:05Z</time>
      </trkpt>
      <trkpt lat="48.117206571623683" lon="14.478410705924034">
        <ele>213.39999389648401</ele>
        <time>2012-10-22T10:16:06Z</time>
      </trkpt>
      <trkpt lat="48.117320984601974" lon="14.478181879967451">
        <ele>213.39999389648401</ele>
        <time>2012-10-22T10:16:10Z</time>
      </trkpt>
      <trkpt lat="48.117557521909475" lon="14.477640157565475">
        <ele>213.39999389648401</ele>
        <time>2012-10-22T10:16:19Z</time>
      </trkpt>
      <trkpt lat="48.117710072547197" lon="14.477107068523765">
        <ele>213.39999389648401</ele>
        <time>2012-10-22T10:16:27Z</time>
      </trkpt>
      <trkpt lat="48.117893217131495" lon="14.476571045815945">
        <ele>213.39999389648401</ele>
        <time>2012-10-22T10:16:35Z</time>
      </trkpt>
      <trkpt lat="48.11808398924768" lon="14.47622680105269">
        <ele>213.39999389648401</ele>
        <time>2012-10-22T10:16:41Z</time>
      </trkpt>
      <trkpt lat="48.118301415815949" lon="14.475830085575581">
        <ele>213.39999389648401</ele>
        <time>2012-10-22T10:16:48Z</time>
      </trkpt>
      <trkpt lat="48.11847684904933" lon="14.47551341727376">
        <ele>213.80000305175801</ele>
        <time>2012-10-22T10:16:54Z</time>
      </trkpt>
      <trkpt lat="48.118511214852333" lon="14.475462874397635">
        <ele>214.19999694824199</ele>
        <time>2012-10-22T10:16:55Z</time>
      </trkpt>
      <trkpt lat="48.118541724979877" lon="14.475404703989625">
        <ele>214.60000610351599</ele>
        <time>2012-10-22T10:16:56Z</time>
      </trkpt>
      <trkpt lat="48.118576090782881" lon="14.475346533581614">
        <ele>215</ele>
        <time>2012-10-22T10:16:57Z</time>
      </trkpt>
      <trkpt lat="48.118606600910425" lon="14.475287441164255">
        <ele>215.39999389648401</ele>
        <time>2012-10-22T10:16:58Z</time>
      </trkpt>
      <trkpt lat="48.118724785745144" lon="14.475039504468441">
        <ele>215.39999389648401</ele>
        <time>2012-10-22T10:17:02Z</time>
      </trkpt>
      <trkpt lat="48.118888819590211" lon="14.474578835070133">
        <ele>215.39999389648401</ele>
        <time>2012-10-22T10:17:09Z</time>
      </trkpt>
      <trkpt lat="48.119087219238281" lon="14.474066700786352">
        <ele>215.39999389648401</ele>
        <time>2012-10-22T10:17:17Z</time>
      </trkpt>
      <trkpt lat="48.119209259748459" lon="14.473612820729613">
        <ele>215.39999389648401</ele>
        <time>2012-10-22T10:17:24Z</time>
      </trkpt>
      <trkpt lat="48.119331384077668" lon="14.473061542958021">
        <ele>215.39999389648401</ele>
        <time>2012-10-22T10:17:32Z</time>
      </trkpt>
      <trkpt lat="48.119419058784842" lon="14.472561813890934">
        <ele>215.39999389648401</ele>
        <time>2012-10-22T10:17:39Z</time>
      </trkpt>
      <trkpt lat="48.119503045454621" lon="14.471928561106324">
        <ele>215.39999389648401</ele>
        <time>2012-10-22T10:17:48Z</time>
      </trkpt>
      <trkpt lat="48.119609830901027" lon="14.471428832039237">
        <ele>215.39999389648401</ele>
        <time>2012-10-22T10:17:55Z</time>
      </trkpt>
      <trkpt lat="48.119708988815546" lon="14.470914853736758">
        <ele>215.39999389648401</ele>
        <time>2012-10-22T10:18:02Z</time>
      </trkpt>
      <trkpt lat="48.119789119809866" lon="14.470325438305736">
        <ele>215.39999389648401</ele>
        <time>2012-10-22T10:18:10Z</time>
      </trkpt>
      <trkpt lat="48.119903532788157" lon="14.469836270436645">
        <ele>215.39999389648401</ele>
        <time>2012-10-22T10:18:17Z</time>
      </trkpt>
      <trkpt lat="48.120025657117367" lon="14.469422372058034">
        <ele>215.39999389648401</ele>
        <time>2012-10-22T10:18:23Z</time>
      </trkpt>
      <trkpt lat="48.120170580223203" lon="14.468928342685103">
        <ele>215.39999389648401</ele>
        <time>2012-10-22T10:18:30Z</time>
      </trkpt>
      <trkpt lat="48.12023545615375" lon="14.468544954434037">
        <ele>215.39999389648401</ele>
        <time>2012-10-22T10:18:35Z</time>
      </trkpt>
      <trkpt lat="48.120223972946405" lon="14.468383770436049">
        <ele>215.39999389648401</ele>
        <time>2012-10-22T10:18:37Z</time>
      </trkpt>
      <trkpt lat="48.120166808366776" lon="14.468077663332224">
        <ele>215.39999389648401</ele>
        <time>2012-10-22T10:18:41Z</time>
      </trkpt>
      <trkpt lat="48.120109559968114" lon="14.467855459079146">
        <ele>215.39999389648401</ele>
        <time>2012-10-22T10:18:44Z</time>
      </trkpt>
      <trkpt lat="48.119941670447588" lon="14.4671964738518">
        <ele>215.39999389648401</ele>
        <time>2012-10-22T10:18:53Z</time>
      </trkpt>
      <trkpt lat="48.11981962993741" lon="14.466712921857834">
        <ele>215.39999389648401</ele>
        <time>2012-10-22T10:19:00Z</time>
      </trkpt>
      <trkpt lat="48.119773864746094" lon="14.466413520276546">
        <ele>215.39999389648401</ele>
        <time>2012-10-22T10:19:05Z</time>
      </trkpt>
      <trkpt lat="48.119831113144755" lon="14.466230375692248">
        <ele>215.39999389648401</ele>
        <time>2012-10-22T10:19:09Z</time>
      </trkpt>
      <trkpt lat="48.119846368208528" lon="14.466196093708277">
        <ele>215.80000305175801</ele>
        <time>2012-10-22T10:19:10Z</time>
      </trkpt>
      <trkpt lat="48.119869250804186" lon="14.466155022382736">
        <ele>216.19999694824199</ele>
        <time>2012-10-22T10:19:11Z</time>
      </trkpt>
      <trkpt lat="48.119892133399844" lon="14.466114034876227">
        <ele>216.60000610351599</ele>
        <time>2012-10-22T10:19:12Z</time>
      </trkpt>
      <trkpt lat="48.11991878785193" lon="14.466078747063875">
        <ele>217</ele>
        <time>2012-10-22T10:19:13Z</time>
      </trkpt>
      <trkpt lat="48.119949381798506" lon="14.46605016477406">
        <ele>217.39999389648401</ele>
        <time>2012-10-22T10:19:14Z</time>
      </trkpt>
      <trkpt lat="48.120159180834889" lon="14.46595192886889">
        <ele>217.39999389648401</ele>
        <time>2012-10-22T10:19:20Z</time>
      </trkpt>
      <trkpt lat="48.120243083685637" lon="14.465918568894267">
        <ele>217.39999389648401</ele>
        <time>2012-10-22T10:19:22Z</time>
      </trkpt>
      <trkpt lat="48.120468137785792" lon="14.465867020189762">
        <ele>217.39999389648401</ele>
        <time>2012-10-22T10:19:27Z</time>
      </trkpt>
      <trkpt lat="48.120944984257221" lon="14.465709691867232">
        <ele>217.39999389648401</ele>
        <time>2012-10-22T10:19:37Z</time>
      </trkpt>
      <trkpt lat="48.121364582329988" lon="14.465550435706973">
        <ele>217.39999389648401</ele>
        <time>2012-10-22T10:19:46Z</time>
      </trkpt>
      <trkpt lat="48.121749898418784" lon="14.465481787919998">
        <ele>217.39999389648401</ele>
        <time>2012-10-22T10:19:54Z</time>
      </trkpt>
      <trkpt lat="48.122249627485871" lon="14.465407356619835">
        <ele>217.39999389648401</ele>
        <time>2012-10-22T10:20:04Z</time>
      </trkpt>
      <trkpt lat="48.122699735686183" lon="14.465335858985782">
        <ele>217.39999389648401</ele>
        <time>2012-10-22T10:20:13Z</time>
      </trkpt>
      <trkpt lat="48.122852286323905" lon="14.465343486517668">
        <ele>217.39999389648401</ele>
        <time>2012-10-22T10:20:16Z</time>
      </trkpt>
      <trkpt lat="48.122997293248773" lon="14.465382546186447">
        <ele>217.39999389648401</ele>
        <time>2012-10-22T10:20:19Z</time>
      </trkpt>
      <trkpt lat="48.123180354014039" lon="14.465436022728682">
        <ele>217.39999389648401</ele>
        <time>2012-10-22T10:20:23Z</time>
      </trkpt>
      <trkpt lat="48.123321505263448" lon="14.465411212295294">
        <ele>217.39999389648401</ele>
        <time>2012-10-22T10:20:26Z</time>
      </trkpt>
      <trkpt lat="48.123424518853426" lon="14.465405428782105">
        <ele>217.39999389648401</ele>
        <time>2012-10-22T10:20:28Z</time>
      </trkpt>
      <trkpt lat="48.123588552698493" lon="14.465437866747379">
        <ele>217.39999389648401</ele>
        <time>2012-10-22T10:20:31Z</time>
      </trkpt>
      <trkpt lat="48.124145530164242" lon="14.465558985248208">
        <ele>217.39999389648401</ele>
        <time>2012-10-22T10:20:41Z</time>
      </trkpt>
      <trkpt lat="48.124656658619642" lon="14.465664848685265">
        <ele>217.39999389648401</ele>
        <time>2012-10-22T10:20:50Z</time>
      </trkpt>
      <trkpt lat="48.1250992231071" lon="14.465750679373741">
        <ele>217</ele>
        <time>2012-10-22T10:20:58Z</time>
      </trkpt>
      <trkpt lat="48.125152615830302" lon="14.465761156752706">
        <ele>216.19999694824199</ele>
        <time>2012-10-22T10:20:59Z</time>
      </trkpt>
      <trkpt lat="48.125209780409932" lon="14.465773561969399">
        <ele>215.80000305175801</ele>
        <time>2012-10-22T10:21:00Z</time>
      </trkpt>
      <trkpt lat="48.125263173133135" lon="14.465785045176744">
        <ele>215.39999389648401</ele>
        <time>2012-10-22T10:21:01Z</time>
      </trkpt>
      <trkpt lat="48.125701881945133" lon="14.465866098180413">
        <ele>215.39999389648401</ele>
        <time>2012-10-22T10:21:09Z</time>
      </trkpt>
      <trkpt lat="48.1261214800179" lon="14.466004399582744">
        <ele>215.39999389648401</ele>
        <time>2012-10-22T10:21:17Z</time>
      </trkpt>
      <trkpt lat="48.126235976815224" lon="14.466048236936331">
        <ele>215</ele>
        <time>2012-10-22T10:21:19Z</time>
      </trkpt>
      <trkpt lat="48.126285513862967" lon="14.466062569990754">
        <ele>214.60000610351599</ele>
        <time>2012-10-22T10:21:20Z</time>
      </trkpt>
      <trkpt lat="48.126327507197857" lon="14.466071119531989">
        <ele>214</ele>
        <time>2012-10-22T10:21:21Z</time>
      </trkpt>
      <trkpt lat="48.12636187300086" lon="14.466083524748683">
        <ele>213.60000610351599</ele>
        <time>2012-10-22T10:21:22Z</time>
      </trkpt>
      <trkpt lat="48.126384755596519" lon="14.466106407344341">
        <ele>213.19999694824199</ele>
        <time>2012-10-22T10:21:23Z</time>
      </trkpt>
      <trkpt lat="48.126403782516718" lon="14.466152172535658">
        <ele>213.19999694824199</ele>
        <time>2012-10-22T10:21:24Z</time>
      </trkpt>
      <trkpt lat="48.126403782516718" lon="14.466213192790747">
        <ele>213.19999694824199</ele>
        <time>2012-10-22T10:21:25Z</time>
      </trkpt>
      <trkpt lat="48.126403782516718" lon="14.466283768415451">
        <ele>212.80000305175801</ele>
        <time>2012-10-22T10:21:26Z</time>
      </trkpt>
      <trkpt lat="48.126407638192177" lon="14.46636482141912">
        <ele>212.39999389648401</ele>
        <time>2012-10-22T10:21:27Z</time>
      </trkpt>
      <trkpt lat="48.126407638192177" lon="14.46644595824182">
        <ele>211.80000305175801</ele>
        <time>2012-10-22T10:21:28Z</time>
      </trkpt>
      <trkpt lat="48.126411410048604" lon="14.466528855264187">
        <ele>211.39999389648401</ele>
        <time>2012-10-22T10:21:29Z</time>
      </trkpt>
      <trkpt lat="48.126407638192177" lon="14.466612841933966">
        <ele>211</ele>
        <time>2012-10-22T10:21:30Z</time>
      </trkpt>
      <trkpt lat="48.126392383128405" lon="14.467021962627769">
        <ele>211</ele>
        <time>2012-10-22T10:21:35Z</time>
      </trkpt>
      <trkpt lat="48.126403782516718" lon="14.467100165784359">
        <ele>211</ele>
        <time>2012-10-22T10:21:36Z</time>
      </trkpt>
      <trkpt lat="48.126457175239921" lon="14.467244166880846">
        <ele>211</ele>
        <time>2012-10-22T10:21:38Z</time>
      </trkpt>
      <trkpt lat="48.126647947356105" lon="14.467418678104877">
        <ele>211</ele>
        <time>2012-10-22T10:21:42Z</time>
      </trkpt>
      <trkpt lat="48.126701340079308" lon="14.467453043907881">
        <ele>211</ele>
        <time>2012-10-22T10:21:43Z</time>
      </trkpt>
      <trkpt lat="48.126758588477969" lon="14.46749210357666">
        <ele>210.60000610351599</ele>
        <time>2012-10-22T10:21:44Z</time>
      </trkpt>
      <trkpt lat="48.126819608733058" lon="14.46753216907382">
        <ele>210.19999694824199</ele>
        <time>2012-10-22T10:21:45Z</time>
      </trkpt>
      <trkpt lat="48.126880628988147" lon="14.467579862102866">
        <ele>209.60000610351599</ele>
        <time>2012-10-22T10:21:46Z</time>
      </trkpt>
      <trkpt lat="48.126937877386808" lon="14.467630404978991">
        <ele>209.19999694824199</ele>
        <time>2012-10-22T10:21:47Z</time>
      </trkpt>
      <trkpt lat="48.12699512578547" lon="14.467685725539923">
        <ele>208.80000305175801</ele>
        <time>2012-10-22T10:21:48Z</time>
      </trkpt>
      <trkpt lat="48.127223951742053" lon="14.467938439920545">
        <ele>208.80000305175801</ele>
        <time>2012-10-22T10:21:53Z</time>
      </trkpt>
      <trkpt lat="48.127441378310323" lon="14.468132983893156">
        <ele>208.80000305175801</ele>
        <time>2012-10-22T10:21:58Z</time>
      </trkpt>
      <trkpt lat="48.127490999177098" lon="14.468162572011352">
        <ele>208.39999389648401</ele>
        <time>2012-10-22T10:21:59Z</time>
      </trkpt>
      <trkpt lat="48.12754824757576" lon="14.468189226463437">
        <ele>208</ele>
        <time>2012-10-22T10:22:00Z</time>
      </trkpt>
      <trkpt lat="48.127601640298963" lon="14.468209259212017">
        <ele>207.60000610351599</ele>
        <time>2012-10-22T10:22:01Z</time>
      </trkpt>
      <trkpt lat="48.127655033022165" lon="14.468224514275789">
        <ele>207.19999694824199</ele>
        <time>2012-10-22T10:22:02Z</time>
      </trkpt>
      <trkpt lat="48.127708425745368" lon="14.468238847330213">
        <ele>206.60000610351599</ele>
        <time>2012-10-22T10:22:03Z</time>
      </trkpt>
      <trkpt lat="48.12776567414403" lon="14.468253096565604">
        <ele>206</ele>
        <time>2012-10-22T10:22:05Z</time>
      </trkpt>
      <trkpt lat="48.127815211191773" lon="14.468258880078793">
        <ele>205.39999389648401</ele>
        <time>2012-10-22T10:22:06Z</time>
      </trkpt>
      <trkpt lat="48.127861060202122" lon="14.468271285295486">
        <ele>204.80000305175801</ele>
        <time>2012-10-22T10:22:07Z</time>
      </trkpt>
      <trkpt lat="48.127906825393438" lon="14.468290312215686">
        <ele>204.19999694824199</ele>
        <time>2012-10-22T10:22:08Z</time>
      </trkpt>
      <trkpt lat="48.127952590584755" lon="14.46832082234323">
        <ele>203.60000610351599</ele>
        <time>2012-10-22T10:22:09Z</time>
      </trkpt>
      <trkpt lat="48.128002127632499" lon="14.468374215066433">
        <ele>203</ele>
        <time>2012-10-22T10:22:10Z</time>
      </trkpt>
      <trkpt lat="48.128051748499274" lon="14.468436241149902">
        <ele>202.39999389648401</ele>
        <time>2012-10-22T10:22:11Z</time>
      </trkpt>
      <trkpt lat="48.12810136936605" lon="14.468516372144222">
        <ele>201.80000305175801</ele>
        <time>2012-10-22T10:22:12Z</time>
      </trkpt>
      <trkpt lat="48.128150906413794" lon="14.468589797616005">
        <ele>201.19999694824199</ele>
        <time>2012-10-22T10:22:13Z</time>
      </trkpt>
      <trkpt lat="48.128200527280569" lon="14.468650817871094">
        <ele>200</ele>
        <time>2012-10-22T10:22:14Z</time>
      </trkpt>
      <trkpt lat="48.128250148147345" lon="14.468708066269755">
        <ele>199.39999389648401</ele>
        <time>2012-10-22T10:22:15Z</time>
      </trkpt>
      <trkpt lat="48.128562960773706" lon="14.46911140345037">
        <ele>199.39999389648401</ele>
        <time>2012-10-22T10:22:22Z</time>
      </trkpt>
      <trkpt lat="48.128936793655157" lon="14.469577772542834">
        <ele>199.39999389648401</ele>
        <time>2012-10-22T10:22:31Z</time>
      </trkpt>
      <trkpt lat="48.129348764196038" lon="14.470102312043309">
        <ele>199.39999389648401</ele>
        <time>2012-10-22T10:22:41Z</time>
      </trkpt>
      <trkpt lat="48.129570046439767" lon="14.47039601393044">
        <ele>199.39999389648401</ele>
        <time>2012-10-22T10:22:47Z</time>
      </trkpt>
      <trkpt lat="48.129856120795012" lon="14.470774624496698">
        <ele>199.39999389648401</ele>
        <time>2012-10-22T10:22:55Z</time>
      </trkpt>
      <trkpt lat="48.129894258454442" lon="14.470813767984509">
        <ele>199.39999389648401</ele>
        <time>2012-10-22T10:22:56Z</time>
      </trkpt>
      <trkpt lat="48.13007740303874" lon="14.470997834578156">
        <ele>199</ele>
        <time>2012-10-22T10:23:00Z</time>
      </trkpt>
      <trkpt lat="48.130138423293829" lon="14.471053155139089">
        <ele>198.60000610351599</ele>
        <time>2012-10-22T10:23:01Z</time>
      </trkpt>
      <trkpt lat="48.130203215405345" lon="14.47110746987164">
        <ele>198.19999694824199</ele>
        <time>2012-10-22T10:23:02Z</time>
      </trkpt>
      <trkpt lat="48.130268091335893" lon="14.471168490126729">
        <ele>197.60000610351599</ele>
        <time>2012-10-22T10:23:03Z</time>
      </trkpt>
      <trkpt lat="48.130325339734554" lon="14.471233366057277">
        <ele>196.80000305175801</ele>
        <time>2012-10-22T10:23:04Z</time>
      </trkpt>
      <trkpt lat="48.130378732457757" lon="14.471299163997173">
        <ele>196.19999694824199</ele>
        <time>2012-10-22T10:23:05Z</time>
      </trkpt>
      <trkpt lat="48.13043212518096" lon="14.471368817612529">
        <ele>195.80000305175801</ele>
        <time>2012-10-22T10:23:06Z</time>
      </trkpt>
      <trkpt lat="48.130477890372276" lon="14.471431765705347">
        <ele>195.39999389648401</ele>
        <time>2012-10-22T10:23:07Z</time>
      </trkpt>
      <trkpt lat="48.130523655563593" lon="14.471492785960436">
        <ele>194.80000305175801</ele>
        <time>2012-10-22T10:23:08Z</time>
      </trkpt>
      <trkpt lat="48.130661034956574" lon="14.471665369346738">
        <ele>194.80000305175801</ele>
        <time>2012-10-22T10:23:11Z</time>
      </trkpt>
      <trkpt lat="48.131042495369911" lon="14.472146993502975">
        <ele>194.80000305175801</ele>
        <time>2012-10-22T10:23:20Z</time>
      </trkpt>
      <trkpt lat="48.131412472575903" lon="14.472601879388094">
        <ele>194.80000305175801</ele>
        <time>2012-10-22T10:23:29Z</time>
      </trkpt>
      <trkpt lat="48.131683375686407" lon="14.472950901836157">
        <ele>194.80000305175801</ele>
        <time>2012-10-22T10:23:37Z</time>
      </trkpt>
      <trkpt lat="48.131835926324129" lon="14.473148379474878">
        <ele>194.80000305175801</ele>
        <time>2012-10-22T10:23:43Z</time>
      </trkpt>
      <trkpt lat="48.131870292127132" lon="14.473146451637149">
        <ele>194.80000305175801</ele>
        <time>2012-10-22T10:23:44Z</time>
      </trkpt>
      <trkpt lat="48.131935084238648" lon="14.473095908761024">
        <ele>194.80000305175801</ele>
        <time>2012-10-22T10:23:46Z</time>
      </trkpt>
      <trkpt lat="48.132041953504086" lon="14.472952829673886">
        <ele>194.80000305175801</ele>
        <time>2012-10-22T10:23:49Z</time>
      </trkpt>
      <trkpt lat="48.132137339562178" lon="14.472796423360705">
        <ele>194.80000305175801</ele>
        <time>2012-10-22T10:23:52Z</time>
      </trkpt>
      <trkpt lat="48.132316628471017" lon="14.472467433661222">
        <ele>194.80000305175801</ele>
        <time>2012-10-22T10:23:58Z</time>
      </trkpt>
      <trkpt lat="48.132522571831942" lon="14.472158392891288">
        <ele>194.80000305175801</ele>
        <time>2012-10-22T10:24:05Z</time>
      </trkpt>
      <trkpt lat="48.132690461352468" lon="14.471916239708662">
        <ele>194.80000305175801</ele>
        <time>2012-10-22T10:24:11Z</time>
      </trkpt>
      <trkpt lat="48.13296128064394" lon="14.471488930284977">
        <ele>194.80000305175801</ele>
        <time>2012-10-22T10:24:19Z</time>
      </trkpt>
      <trkpt lat="48.133190190419555" lon="14.471158012747765">
        <ele>194.80000305175801</ele>
        <time>2012-10-22T10:24:26Z</time>
      </trkpt>
      <trkpt lat="48.133235955610871" lon="14.47108936496079">
        <ele>194.80000305175801</ele>
        <time>2012-10-22T10:24:30Z</time>
      </trkpt>
      <trkpt lat="48.133239727467299" lon="14.471081737428904">
        <ele>194.39999389648401</ele>
        <time>2012-10-22T10:24:32Z</time>
      </trkpt>
      <trkpt lat="48.133239727467299" lon="14.471081737428904">
        <ele>194</ele>
        <time>2012-10-22T10:24:33Z</time>
      </trkpt>
      <trkpt lat="48.133239727467299" lon="14.471081737428904">
        <ele>193.60000610351599</ele>
        <time>2012-10-22T10:24:34Z</time>
      </trkpt>
      <trkpt lat="48.133243583142757" lon="14.471079809591174">
        <ele>193.19999694824199</ele>
        <time>2012-10-22T10:24:35Z</time>
      </trkpt>
      <trkpt lat="48.133247354999185" lon="14.471074109897017">
        <ele>192.80000305175801</ele>
        <time>2012-10-22T10:24:36Z</time>
      </trkpt>
      <trkpt lat="48.133270237594843" lon="14.471080815419555">
        <ele>192.80000305175801</ele>
        <time>2012-10-22T10:24:39Z</time>
      </trkpt>
      <trkpt lat="48.13329697586596" lon="14.471116103231907">
        <ele>192.80000305175801</ele>
        <time>2012-10-22T10:24:41Z</time>
      </trkpt>
      <trkpt lat="48.133430499583483" lon="14.471180895343423">
        <ele>192.80000305175801</ele>
        <time>2012-10-22T10:24:46Z</time>
      </trkpt>
      <trkpt lat="48.133716573938727" lon="14.471338307484984">
        <ele>192.80000305175801</ele>
        <time>2012-10-22T10:24:52Z</time>
      </trkpt>
      <trkpt lat="48.13410566188395" lon="14.471544250845909">
        <ele>192.80000305175801</ele>
        <time>2012-10-22T10:25:00Z</time>
      </trkpt>
      <trkpt lat="48.134548226371408" lon="14.471774082630873">
        <ele>192.80000305175801</ele>
        <time>2012-10-22T10:25:09Z</time>
      </trkpt>
      <trkpt lat="48.134864810854197" lon="14.471930488944054">
        <ele>192.39999389648401</ele>
        <time>2012-10-22T10:25:15Z</time>
      </trkpt>
      <trkpt lat="48.134922059252858" lon="14.47195814922452">
        <ele>191.80000305175801</ele>
        <time>2012-10-22T10:25:16Z</time>
      </trkpt>
      <trkpt lat="48.134975451976061" lon="14.471984887495637">
        <ele>191.39999389648401</ele>
        <time>2012-10-22T10:25:17Z</time>
      </trkpt>
      <trkpt lat="48.135028844699264" lon="14.472006764262915">
        <ele>191</ele>
        <time>2012-10-22T10:25:18Z</time>
      </trkpt>
      <trkpt lat="48.135082237422466" lon="14.472023025155067">
        <ele>190.60000610351599</ele>
        <time>2012-10-22T10:25:19Z</time>
      </trkpt>
      <trkpt lat="48.135181395336986" lon="14.472041130065918">
        <ele>190.60000610351599</ele>
        <time>2012-10-22T10:25:21Z</time>
      </trkpt>
      <trkpt lat="48.135231016203761" lon="14.472040208056569">
        <ele>190.60000610351599</ele>
        <time>2012-10-22T10:25:22Z</time>
      </trkpt>
      <trkpt lat="48.135665869340301" lon="14.472026797011495">
        <ele>190.60000610351599</ele>
        <time>2012-10-22T10:25:31Z</time>
      </trkpt>
      <trkpt lat="48.13600542023778" lon="14.472106928005815">
        <ele>190.60000610351599</ele>
        <time>2012-10-22T10:25:38Z</time>
      </trkpt>
      <trkpt lat="48.136421162635088" lon="14.472245229408145">
        <ele>190.60000610351599</ele>
        <time>2012-10-22T10:25:47Z</time>
      </trkpt>
      <trkpt lat="48.136806478723884" lon="14.472285294905305">
        <ele>190.60000610351599</ele>
        <time>2012-10-22T10:25:55Z</time>
      </trkpt>
      <trkpt lat="48.137191794812679" lon="14.472316727042198">
        <ele>190.60000610351599</ele>
        <time>2012-10-22T10:26:03Z</time>
      </trkpt>
      <trkpt lat="48.137634275481105" lon="14.472410185262561">
        <ele>190.60000610351599</ele>
        <time>2012-10-22T10:26:12Z</time>
      </trkpt>
      <trkpt lat="48.138023363426328" lon="14.472522754222155">
        <ele>190.60000610351599</ele>
        <time>2012-10-22T10:26:20Z</time>
      </trkpt>
      <trkpt lat="48.138427706435323" lon="14.472626689821482">
        <ele>190.60000610351599</ele>
        <time>2012-10-22T10:26:28Z</time>
      </trkpt>
      <trkpt lat="48.138767257332802" lon="14.47274973616004">
        <ele>190.60000610351599</ele>
        <time>2012-10-22T10:26:35Z</time>
      </trkpt>
      <trkpt lat="48.138813022524118" lon="14.472788795828819">
        <ele>190.60000610351599</ele>
        <time>2012-10-22T10:26:36Z</time>
      </trkpt>
      <trkpt lat="48.138973200693727" lon="14.472993817180395">
        <ele>190.60000610351599</ele>
        <time>2012-10-22T10:26:40Z</time>
      </trkpt>
      <trkpt lat="48.139011422172189" lon="14.473051065579057">
        <ele>190.60000610351599</ele>
        <time>2012-10-22T10:26:41Z</time>
      </trkpt>
      <trkpt lat="48.139297496527433" lon="14.473418276757002">
        <ele>190.60000610351599</ele>
        <time>2012-10-22T10:26:48Z</time>
      </trkpt>
      <trkpt lat="48.139347117394209" lon="14.473450630903244">
        <ele>190.60000610351599</ele>
        <time>2012-10-22T10:26:49Z</time>
      </trkpt>
      <trkpt lat="48.139701839536428" lon="14.473648108541965">
        <ele>190.60000610351599</ele>
        <time>2012-10-22T10:26:56Z</time>
      </trkpt>
      <trkpt lat="48.13981625251472" lon="14.473677612841129">
        <ele>190.60000610351599</ele>
        <time>2012-10-22T10:26:58Z</time>
      </trkpt>
      <trkpt lat="48.139930749312043" lon="14.473644252866507">
        <ele>190.60000610351599</ele>
        <time>2012-10-22T10:27:00Z</time>
      </trkpt>
      <trkpt lat="48.140090927481651" lon="14.473528834059834">
        <ele>190.60000610351599</ele>
        <time>2012-10-22T10:27:03Z</time>
      </trkpt>
      <trkpt lat="48.140190085396171" lon="14.473443003371358">
        <ele>190.60000610351599</ele>
        <time>2012-10-22T10:27:05Z</time>
      </trkpt>
      <trkpt lat="48.140522008761764" lon="14.473112085834146">
        <ele>190.60000610351599</ele>
        <time>2012-10-22T10:27:12Z</time>
      </trkpt>
      <trkpt lat="48.140830965712667" lon="14.472641944885254">
        <ele>190.60000610351599</ele>
        <time>2012-10-22T10:27:20Z</time>
      </trkpt>
      <trkpt lat="48.141090385615826" lon="14.472314799204469">
        <ele>190.60000610351599</ele>
        <time>2012-10-22T10:27:26Z</time>
      </trkpt>
      <trkpt lat="48.141403198242188" lon="14.471982959657907">
        <ele>190.60000610351599</ele>
        <time>2012-10-22T10:27:33Z</time>
      </trkpt>
      <trkpt lat="48.141574859619141" lon="14.471770310774446">
        <ele>190.60000610351599</ele>
        <time>2012-10-22T10:27:37Z</time>
      </trkpt>
      <trkpt lat="48.141685500741005" lon="14.47158238850534">
        <ele>190.60000610351599</ele>
        <time>2012-10-22T10:27:40Z</time>
      </trkpt>
      <trkpt lat="48.141803769394755" lon="14.471196150407195">
        <ele>190.60000610351599</ele>
        <time>2012-10-22T10:27:45Z</time>
      </trkpt>
      <trkpt lat="48.141941064968705" lon="14.470845200121403">
        <ele>190.60000610351599</ele>
        <time>2012-10-22T10:27:50Z</time>
      </trkpt>
      <trkpt lat="48.141983058303595" lon="14.470784179866314">
        <ele>190.60000610351599</ele>
        <time>2012-10-22T10:27:51Z</time>
      </trkpt>
      <trkpt lat="48.142097471281886" lon="14.470539093017578">
        <ele>190.60000610351599</ele>
        <time>2012-10-22T10:27:55Z</time>
      </trkpt>
      <trkpt lat="48.142116582021117" lon="14.470465667545795">
        <ele>190.60000610351599</ele>
        <time>2012-10-22T10:27:56Z</time>
      </trkpt>
      <trkpt lat="48.142097471281886" lon="14.470171965658665">
        <ele>190.60000610351599</ele>
        <time>2012-10-22T10:28:00Z</time>
      </trkpt>
      <trkpt lat="48.142082216218114" lon="14.470097534358501">
        <ele>190.60000610351599</ele>
        <time>2012-10-22T10:28:01Z</time>
      </trkpt>
      <trkpt lat="48.141990685835481" lon="14.469483392313123">
        <ele>190.60000610351599</ele>
        <time>2012-10-22T10:28:09Z</time>
      </trkpt>
      <trkpt lat="48.141979202628136" lon="14.468999840319157">
        <ele>190.60000610351599</ele>
        <time>2012-10-22T10:28:16Z</time>
      </trkpt>
      <trkpt lat="48.141975430771708" lon="14.468936892226338">
        <ele>190.60000610351599</ele>
        <time>2012-10-22T10:28:17Z</time>
      </trkpt>
      <trkpt lat="48.141922038048506" lon="14.468668922781944">
        <ele>190.60000610351599</ele>
        <time>2012-10-22T10:28:22Z</time>
      </trkpt>
      <trkpt lat="48.141860933974385" lon="14.468488711863756">
        <ele>190.60000610351599</ele>
        <time>2012-10-22T10:28:27Z</time>
      </trkpt>
      <trkpt lat="48.141796141862869" lon="14.468352338299155">
        <ele>191</ele>
        <time>2012-10-22T10:28:32Z</time>
      </trkpt>
      <trkpt lat="48.141784658655524" lon="14.468324678018689">
        <ele>191.39999389648401</ele>
        <time>2012-10-22T10:28:33Z</time>
      </trkpt>
      <trkpt lat="48.141773259267211" lon="14.468295089900494">
        <ele>191.80000305175801</ele>
        <time>2012-10-22T10:28:34Z</time>
      </trkpt>
      <trkpt lat="48.141769403591752" lon="14.468257874250412">
        <ele>192.19999694824199</ele>
        <time>2012-10-22T10:28:35Z</time>
      </trkpt>
      <trkpt lat="48.141761776059866" lon="14.46822258643806">
        <ele>192.60000610351599</ele>
        <time>2012-10-22T10:28:36Z</time>
      </trkpt>
      <trkpt lat="48.14171215519309" lon="14.468059558421373">
        <ele>192.60000610351599</ele>
        <time>2012-10-22T10:28:41Z</time>
      </trkpt>
      <trkpt lat="48.14171215519309" lon="14.467837354168296">
        <ele>192.60000610351599</ele>
        <time>2012-10-22T10:28:47Z</time>
      </trkpt>
      <trkpt lat="48.141719782724977" lon="14.467802066355944">
        <ele>193</ele>
        <time>2012-10-22T10:28:48Z</time>
      </trkpt>
      <trkpt lat="48.141727410256863" lon="14.46776770055294">
        <ele>193.39999389648401</ele>
        <time>2012-10-22T10:28:49Z</time>
      </trkpt>
      <trkpt lat="48.141738893464208" lon="14.467735262587667">
        <ele>194.19999694824199</ele>
        <time>2012-10-22T10:28:50Z</time>
      </trkpt>
      <trkpt lat="48.141750376671553" lon="14.467706680297852">
        <ele>194.60000610351599</ele>
        <time>2012-10-22T10:28:51Z</time>
      </trkpt>
      <trkpt lat="48.14179228618741" lon="14.467625627294183">
        <ele>194.60000610351599</ele>
        <time>2012-10-22T10:28:54Z</time>
      </trkpt>
      <trkpt lat="48.141902927309275" lon="14.467451116070151">
        <ele>194.60000610351599</ele>
        <time>2012-10-22T10:29:01Z</time>
      </trkpt>
      <trkpt lat="48.141918182373047" lon="14.467423455789685">
        <ele>194.60000610351599</ele>
        <time>2012-10-22T10:29:02Z</time>
      </trkpt>
      <trkpt lat="48.141994457691908" lon="14.46723461151123">
        <ele>195</ele>
        <time>2012-10-22T10:29:08Z</time>
      </trkpt>
      <trkpt lat="48.14200971275568" lon="14.467206951230764">
        <ele>195.39999389648401</ele>
        <time>2012-10-22T10:29:09Z</time>
      </trkpt>
      <trkpt lat="48.142024967819452" lon="14.46717644110322">
        <ele>195.80000305175801</ele>
        <time>2012-10-22T10:29:10Z</time>
      </trkpt>
      <trkpt lat="48.142040222883224" lon="14.467144003137946">
        <ele>196.19999694824199</ele>
        <time>2012-10-22T10:29:11Z</time>
      </trkpt>
      <trkpt lat="48.142051706090569" lon="14.467111565172672">
        <ele>196.80000305175801</ele>
        <time>2012-10-22T10:29:12Z</time>
      </trkpt>
      <trkpt lat="48.142124209553003" lon="14.466963792219758">
        <ele>196.80000305175801</ele>
        <time>2012-10-22T10:29:17Z</time>
      </trkpt>
      <trkpt lat="48.142257649451494" lon="14.4668407458812">
        <ele>196.80000305175801</ele>
        <time>2012-10-22T10:29:24Z</time>
      </trkpt>
      <trkpt lat="48.142372146248817" lon="14.466894138604403">
        <ele>196.80000305175801</ele>
        <time>2012-10-22T10:29:28Z</time>
      </trkpt>
      <trkpt lat="48.14256283454597" lon="14.46699807420373">
        <ele>196.80000305175801</ele>
        <time>2012-10-22T10:29:34Z</time>
      </trkpt>
      <trkpt lat="48.142646821215749" lon="14.466997152194381">
        <ele>196.80000305175801</ele>
        <time>2012-10-22T10:29:36Z</time>
      </trkpt>
      <trkpt lat="48.142726868391037" lon="14.466947531327605">
        <ele>196.80000305175801</ele>
        <time>2012-10-22T10:29:38Z</time>
      </trkpt>
      <trkpt lat="48.142868019640446" lon="14.466886511072516">
        <ele>196.80000305175801</ele>
        <time>2012-10-22T10:29:43Z</time>
      </trkpt>
      <trkpt lat="48.142982516437769" lon="14.466828340664506">
        <ele>197.19999694824199</ele>
        <time>2012-10-22T10:29:50Z</time>
      </trkpt>
      <trkpt lat="48.142997771501541" lon="14.466814007610083">
        <ele>197.60000610351599</ele>
        <time>2012-10-22T10:29:51Z</time>
      </trkpt>
      <trkpt lat="48.143020654097199" lon="14.466799758374691">
        <ele>198</ele>
        <time>2012-10-22T10:29:52Z</time>
      </trkpt>
      <trkpt lat="48.143043536692858" lon="14.466787353157997">
        <ele>198.39999389648401</ele>
        <time>2012-10-22T10:29:53Z</time>
      </trkpt>
      <trkpt lat="48.143062563613057" lon="14.466773020103574">
        <ele>198.80000305175801</ele>
        <time>2012-10-22T10:29:54Z</time>
      </trkpt>
      <trkpt lat="48.143154177814722" lon="14.466694816946983">
        <ele>199.39999389648401</ele>
        <time>2012-10-22T10:29:59Z</time>
      </trkpt>
      <trkpt lat="48.143173204734921" lon="14.466682411730289">
        <ele>199.80000305175801</ele>
        <time>2012-10-22T10:30:00Z</time>
      </trkpt>
      <trkpt lat="48.143192315474153" lon="14.466668162494898">
        <ele>200.19999694824199</ele>
        <time>2012-10-22T10:30:01Z</time>
      </trkpt>
      <trkpt lat="48.143207570537925" lon="14.466649973765016">
        <ele>200.60000610351599</ele>
        <time>2012-10-22T10:30:02Z</time>
      </trkpt>
      <trkpt lat="48.143226597458124" lon="14.466633796691895">
        <ele>201.19999694824199</ele>
        <time>2012-10-22T10:30:03Z</time>
      </trkpt>
      <trkpt lat="48.143283845856786" lon="14.466591803357005">
        <ele>201.60000610351599</ele>
        <time>2012-10-22T10:30:06Z</time>
      </trkpt>
      <trkpt lat="48.143302956596017" lon="14.46658325381577">
        <ele>202</ele>
        <time>2012-10-22T10:30:07Z</time>
      </trkpt>
      <trkpt lat="48.143318211659789" lon="14.466577554121614">
        <ele>202.60000610351599</ele>
        <time>2012-10-22T10:30:08Z</time>
      </trkpt>
      <trkpt lat="48.143337238579988" lon="14.46656514890492">
        <ele>203</ele>
        <time>2012-10-22T10:30:09Z</time>
      </trkpt>
      <trkpt lat="48.143348721787333" lon="14.466546038165689">
        <ele>203.39999389648401</ele>
        <time>2012-10-22T10:30:10Z</time>
      </trkpt>
      <trkpt lat="48.143367748707533" lon="14.466505972668529">
        <ele>203.39999389648401</ele>
        <time>2012-10-22T10:30:12Z</time>
      </trkpt>
      <trkpt lat="48.143463134765625" lon="14.466440174728632">
        <ele>203.39999389648401</ele>
        <time>2012-10-22T10:30:17Z</time>
      </trkpt>
      <trkpt lat="48.14365005120635" lon="14.466361971572042">
        <ele>203.39999389648401</ele>
        <time>2012-10-22T10:30:24Z</time>
      </trkpt>
      <trkpt lat="48.143875105306506" lon="14.466244708746672">
        <ele>203.39999389648401</ele>
        <time>2012-10-22T10:30:31Z</time>
      </trkpt>
      <trkpt lat="48.144042994827032" lon="14.46614739485085">
        <ele>203.39999389648401</ele>
        <time>2012-10-22T10:30:37Z</time>
      </trkpt>
      <trkpt lat="48.144088760018349" lon="14.466061564162374">
        <ele>203.39999389648401</ele>
        <time>2012-10-22T10:30:40Z</time>
      </trkpt>
      <trkpt lat="48.144104015082121" lon="14.465952850878239">
        <ele>203.39999389648401</ele>
        <time>2012-10-22T10:30:42Z</time>
      </trkpt>
      <trkpt lat="48.144115414470434" lon="14.465604750439525">
        <ele>203.39999389648401</ele>
        <time>2012-10-22T10:30:49Z</time>
      </trkpt>
      <trkpt lat="48.144130669534206" lon="14.465440716594458">
        <ele>203.39999389648401</ele>
        <time>2012-10-22T10:30:54Z</time>
      </trkpt>
      <trkpt lat="48.144153635948896" lon="14.465408362448215">
        <ele>203.39999389648401</ele>
        <time>2012-10-22T10:30:56Z</time>
      </trkpt>
      <trkpt lat="48.144294703379273" lon="14.465323453769088">
        <ele>203.39999389648401</ele>
        <time>2012-10-22T10:31:01Z</time>
      </trkpt>
      <trkpt lat="48.144603744149208" lon="14.465189008042216">
        <ele>203.39999389648401</ele>
        <time>2012-10-22T10:31:09Z</time>
      </trkpt>
      <trkpt lat="48.144809687510133" lon="14.465097393840551">
        <ele>203.39999389648401</ele>
        <time>2012-10-22T10:31:14Z</time>
      </trkpt>
      <trkpt lat="48.144855536520481" lon="14.465093621984124">
        <ele>203.39999389648401</ele>
        <time>2012-10-22T10:31:15Z</time>
      </trkpt>
      <trkpt lat="48.145145382732153" lon="14.464990608394146">
        <ele>203.39999389648401</ele>
        <time>2012-10-22T10:31:21Z</time>
      </trkpt>
      <trkpt lat="48.145484933629632" lon="14.464797992259264">
        <ele>203.39999389648401</ele>
        <time>2012-10-22T10:31:28Z</time>
      </trkpt>
      <trkpt lat="48.145950296893716" lon="14.464578637853265">
        <ele>203.39999389648401</ele>
        <time>2012-10-22T10:31:37Z</time>
      </trkpt>
      <trkpt lat="48.146461509168148" lon="14.464348806068301">
        <ele>203.39999389648401</ele>
        <time>2012-10-22T10:31:47Z</time>
      </trkpt>
      <trkpt lat="48.146858224645257" lon="14.464166667312384">
        <ele>203.39999389648401</ele>
        <time>2012-10-22T10:31:55Z</time>
      </trkpt>
      <trkpt lat="48.14724731259048" lon="14.463992156088352">
        <ele>203.39999389648401</ele>
        <time>2012-10-22T10:32:03Z</time>
      </trkpt>
      <trkpt lat="48.147560125216842" lon="14.463848154991865">
        <ele>203.39999389648401</ele>
        <time>2012-10-22T10:32:10Z</time>
      </trkpt>
      <trkpt lat="48.147987350821495" lon="14.463683115318418">
        <ele>203.39999389648401</ele>
        <time>2012-10-22T10:32:19Z</time>
      </trkpt>
      <trkpt lat="48.148475680500269" lon="14.463578257709742">
        <ele>203.39999389648401</ele>
        <time>2012-10-22T10:32:29Z</time>
      </trkpt>
      <trkpt lat="48.148826630786061" lon="14.463532408699393">
        <ele>203.39999389648401</ele>
        <time>2012-10-22T10:32:36Z</time>
      </trkpt>
      <trkpt lat="48.149173725396395" lon="14.463531486690044">
        <ele>203.39999389648401</ele>
        <time>2012-10-22T10:32:43Z</time>
      </trkpt>
      <trkpt lat="48.149337759241462" lon="14.463574402034283">
        <ele>203.39999389648401</ele>
        <time>2012-10-22T10:32:48Z</time>
      </trkpt>
      <trkpt lat="48.149391151964664" lon="14.463549591600895">
        <ele>203.39999389648401</ele>
        <time>2012-10-22T10:32:53Z</time>
      </trkpt>
      <trkpt lat="48.149402635172009" lon="14.46354104205966">
        <ele>203.39999389648401</ele>
        <time>2012-10-22T10:32:54Z</time>
      </trkpt>
      <trkpt lat="48.14947891049087" lon="14.463474238291383">
        <ele>203.39999389648401</ele>
        <time>2012-10-22T10:32:59Z</time>
      </trkpt>
      <trkpt lat="48.149513276293874" lon="14.463485721498728">
        <ele>203.39999389648401</ele>
        <time>2012-10-22T10:33:00Z</time>
      </trkpt>
      <trkpt lat="48.149623833596706" lon="14.463533414527774">
        <ele>203.39999389648401</ele>
        <time>2012-10-22T10:33:03Z</time>
      </trkpt>
      <trkpt lat="48.149871854111552" lon="14.463707925751805">
        <ele>203.39999389648401</ele>
        <time>2012-10-22T10:33:09Z</time>
      </trkpt>
      <trkpt lat="48.150028260424733" lon="14.463832816109061">
        <ele>203.39999389648401</ele>
        <time>2012-10-22T10:33:13Z</time>
      </trkpt>
      <trkpt lat="48.150108307600021" lon="14.463906325399876">
        <ele>203.39999389648401</ele>
        <time>2012-10-22T10:33:15Z</time>
      </trkpt>
      <trkpt lat="48.150440230965614" lon="14.464183766394854">
        <ele>203.39999389648401</ele>
        <time>2012-10-22T10:33:23Z</time>
      </trkpt>
      <trkpt lat="48.150768298655748" lon="14.464373616501689">
        <ele>203.39999389648401</ele>
        <time>2012-10-22T10:33:30Z</time>
      </trkpt>
      <trkpt lat="48.150955215096474" lon="14.464431786909699">
        <ele>203.39999389648401</ele>
        <time>2012-10-22T10:33:34Z</time>
      </trkpt>
      <trkpt lat="48.151058228686452" lon="14.464455591514707">
        <ele>203.39999389648401</ele>
        <time>2012-10-22T10:33:36Z</time>
      </trkpt>
      <trkpt lat="48.151405323296785" lon="14.464500434696674">
        <ele>203.39999389648401</ele>
        <time>2012-10-22T10:33:43Z</time>
      </trkpt>
      <trkpt lat="48.151798266917467" lon="14.46455005556345">
        <ele>203.39999389648401</ele>
        <time>2012-10-22T10:33:51Z</time>
      </trkpt>
      <trkpt lat="48.152080569416285" lon="14.464552905410528">
        <ele>203.39999389648401</ele>
        <time>2012-10-22T10:33:57Z</time>
      </trkpt>
      <trkpt lat="48.152172099798918" lon="14.464514767751098">
        <ele>203.39999389648401</ele>
        <time>2012-10-22T10:33:59Z</time>
      </trkpt>
      <trkpt lat="48.152393382042646" lon="14.464434636756778">
        <ele>203.39999389648401</ele>
        <time>2012-10-22T10:34:04Z</time>
      </trkpt>
      <trkpt lat="48.152462029829621" lon="14.464444192126393">
        <ele>203.39999389648401</ele>
        <time>2012-10-22T10:34:06Z</time>
      </trkpt>
      <trkpt lat="48.152557332068682" lon="14.464503284543753">
        <ele>203.39999389648401</ele>
        <time>2012-10-22T10:34:10Z</time>
      </trkpt>
      <trkpt lat="48.152694711461663" lon="14.464626330882311">
        <ele>203.39999389648401</ele>
        <time>2012-10-22T10:34:14Z</time>
      </trkpt>
      <trkpt lat="48.152770986780524" lon="14.464669246226549">
        <ele>203.39999389648401</ele>
        <time>2012-10-22T10:34:16Z</time>
      </trkpt>
      <trkpt lat="48.152812980115414" lon="14.464680645614862">
        <ele>203.39999389648401</ele>
        <time>2012-10-22T10:34:17Z</time>
      </trkpt>
      <trkpt lat="48.153030406683683" lon="14.464722638949752">
        <ele>203.39999389648401</ele>
        <time>2012-10-22T10:34:22Z</time>
      </trkpt>
      <trkpt lat="48.153427122160792" lon="14.464774103835225">
        <ele>203.39999389648401</ele>
        <time>2012-10-22T10:34:30Z</time>
      </trkpt>
      <trkpt lat="48.153644548729062" lon="14.464802769944072">
        <ele>203</ele>
        <time>2012-10-22T10:34:34Z</time>
      </trkpt>
      <trkpt lat="48.153697941452265" lon="14.464806541800499">
        <ele>202.19999694824199</ele>
        <time>2012-10-22T10:34:35Z</time>
      </trkpt>
      <trkpt lat="48.153755189850926" lon="14.464812241494656">
        <ele>201.80000305175801</ele>
        <time>2012-10-22T10:34:36Z</time>
      </trkpt>
      <trkpt lat="48.153816210106015" lon="14.464817019179463">
        <ele>201.39999389648401</ele>
        <time>2012-10-22T10:34:37Z</time>
      </trkpt>
      <trkpt lat="48.154151905328035" lon="14.464856162667274">
        <ele>201.39999389648401</ele>
        <time>2012-10-22T10:34:43Z</time>
      </trkpt>
      <trkpt lat="48.154602013528347" lon="14.464919110760093">
        <ele>201.39999389648401</ele>
        <time>2012-10-22T10:34:51Z</time>
      </trkpt>
      <trkpt lat="48.155036950483918" lon="14.464979209005833">
        <ele>201.39999389648401</ele>
        <time>2012-10-22T10:34:59Z</time>
      </trkpt>
      <trkpt lat="48.155437437817454" lon="14.465073589235544">
        <ele>201.39999389648401</ele>
        <time>2012-10-22T10:35:07Z</time>
      </trkpt>
      <trkpt lat="48.15582275390625" lon="14.465229073539376">
        <ele>201.39999389648401</ele>
        <time>2012-10-22T10:35:15Z</time>
      </trkpt>
      <trkpt lat="48.156192814931273" lon="14.465465527027845">
        <ele>201.39999389648401</ele>
        <time>2012-10-22T10:35:23Z</time>
      </trkpt>
      <trkpt lat="48.156547537073493" lon="14.465761156752706">
        <ele>201.39999389648401</ele>
        <time>2012-10-22T10:35:31Z</time>
      </trkpt>
      <trkpt lat="48.156982390210032" lon="14.466136917471886">
        <ele>201.39999389648401</ele>
        <time>2012-10-22T10:35:41Z</time>
      </trkpt>
      <trkpt lat="48.157321941107512" lon="14.466439252719283">
        <ele>201.39999389648401</ele>
        <time>2012-10-22T10:35:49Z</time>
      </trkpt>
      <trkpt lat="48.157688146457076" lon="14.466777797788382">
        <ele>201.39999389648401</ele>
        <time>2012-10-22T10:35:58Z</time>
      </trkpt>
      <trkpt lat="48.158069606870413" lon="14.467144925147295">
        <ele>201.39999389648401</ele>
        <time>2012-10-22T10:36:07Z</time>
      </trkpt>
      <trkpt lat="48.158397674560547" lon="14.467480620369315">
        <ele>201.39999389648401</ele>
        <time>2012-10-22T10:36:15Z</time>
      </trkpt>
      <trkpt lat="48.158699003979564" lon="14.467805838212371">
        <ele>201.39999389648401</ele>
        <time>2012-10-22T10:36:22Z</time>
      </trkpt>
      <trkpt lat="48.158973678946495" lon="14.468157794326544">
        <ele>201.39999389648401</ele>
        <time>2012-10-22T10:36:29Z</time>
      </trkpt>
      <trkpt lat="48.159229243174195" lon="14.468520144000649">
        <ele>201.39999389648401</ele>
        <time>2012-10-22T10:36:36Z</time>
      </trkpt>
      <trkpt lat="48.159507773816586" lon="14.468953153118491">
        <ele>201.39999389648401</ele>
        <time>2012-10-22T10:36:44Z</time>
      </trkpt>
      <trkpt lat="48.159767109900713" lon="14.469417594373226">
        <ele>201.39999389648401</ele>
        <time>2012-10-22T10:36:52Z</time>
      </trkpt>
      <trkpt lat="48.159946482628584" lon="14.469720851629972">
        <ele>201.39999389648401</ele>
        <time>2012-10-22T10:36:58Z</time>
      </trkpt>
      <trkpt lat="48.160068523138762" lon="14.469750439748168">
        <ele>201.39999389648401</ele>
        <time>2012-10-22T10:37:02Z</time>
      </trkpt>
      <trkpt lat="48.160182936117053" lon="14.469561595469713">
        <ele>201.39999389648401</ele>
        <time>2012-10-22T10:37:06Z</time>
      </trkpt>
      <trkpt lat="48.16020967438817" lon="14.469511974602938">
        <ele>201.39999389648401</ele>
        <time>2012-10-22T10:37:07Z</time>
      </trkpt>
      <trkpt lat="48.160385107621551" lon="14.469140069559216">
        <ele>201.39999389648401</ele>
        <time>2012-10-22T10:37:13Z</time>
      </trkpt>
      <trkpt lat="48.160579651594162" lon="14.468839662149549">
        <ele>201.39999389648401</ele>
        <time>2012-10-22T10:37:19Z</time>
      </trkpt>
      <trkpt lat="48.160659782588482" lon="14.468777636066079">
        <ele>201.39999389648401</ele>
        <time>2012-10-22T10:37:21Z</time>
      </trkpt>
      <trkpt lat="48.160789450630546" lon="14.46875668130815">
        <ele>201.39999389648401</ele>
        <time>2012-10-22T10:37:24Z</time>
      </trkpt>
      <trkpt lat="48.161025987938046" lon="14.468873022124171">
        <ele>201.39999389648401</ele>
        <time>2012-10-22T10:37:29Z</time>
      </trkpt>
      <trkpt lat="48.161079380661249" lon="14.468909231945872">
        <ele>201.39999389648401</ele>
        <time>2012-10-22T10:37:30Z</time>
      </trkpt>
      <trkpt lat="48.161407448351383" lon="14.46911140345037">
        <ele>201.39999389648401</ele>
        <time>2012-10-22T10:37:36Z</time>
      </trkpt>
      <trkpt lat="48.161792764440179" lon="14.469240149483085">
        <ele>201.39999389648401</ele>
        <time>2012-10-22T10:37:43Z</time>
      </trkpt>
      <trkpt lat="48.162307748571038" lon="14.469411810860038">
        <ele>201.39999389648401</ele>
        <time>2012-10-22T10:37:53Z</time>
      </trkpt>
      <trkpt lat="48.162773111835122" lon="14.469561595469713">
        <ele>201.39999389648401</ele>
        <time>2012-10-22T10:38:02Z</time>
      </trkpt>
      <trkpt lat="48.16317368298769" lon="14.469690341502428">
        <ele>201.39999389648401</ele>
        <time>2012-10-22T10:38:10Z</time>
      </trkpt>
      <trkpt lat="48.163421619683504" lon="14.469789499416947">
        <ele>201.39999389648401</ele>
        <time>2012-10-22T10:38:15Z</time>
      </trkpt>
      <trkpt lat="48.1635513715446" lon="14.469873402267694">
        <ele>201.39999389648401</ele>
        <time>2012-10-22T10:38:18Z</time>
      </trkpt>
      <trkpt lat="48.163661928847432" lon="14.469987899065018">
        <ele>201.39999389648401</ele>
        <time>2012-10-22T10:38:21Z</time>
      </trkpt>
      <trkpt lat="48.163780197501183" lon="14.470109939575195">
        <ele>201.39999389648401</ele>
        <time>2012-10-22T10:38:24Z</time>
      </trkpt>
      <trkpt lat="48.164089238271117" lon="14.470447562634945">
        <ele>201.39999389648401</ele>
        <time>2012-10-22T10:38:32Z</time>
      </trkpt>
      <trkpt lat="48.164310436695814" lon="14.470703126862645">
        <ele>201.39999389648401</ele>
        <time>2012-10-22T10:38:38Z</time>
      </trkpt>
      <trkpt lat="48.164337174966931" lon="14.470729865133762">
        <ele>201.39999389648401</ele>
        <time>2012-10-22T10:38:39Z</time>
      </trkpt>
      <trkpt lat="48.164447816088796" lon="14.470795663073659">
        <ele>201.39999389648401</ele>
        <time>2012-10-22T10:38:44Z</time>
      </trkpt>
      <trkpt lat="48.164470698684454" lon="14.470820389688015">
        <ele>201.39999389648401</ele>
        <time>2012-10-22T10:38:48Z</time>
      </trkpt>
      <trkpt lat="48.164493581280112" lon="14.470856683328748">
        <ele>201.39999389648401</ele>
        <time>2012-10-22T10:38:55Z</time>
      </trkpt>
      <trkpt lat="48.164504980668426" lon="14.470874788239598">
        <ele>201.39999389648401</ele>
        <time>2012-10-22T10:38:56Z</time>
      </trkpt>
      <trkpt lat="48.164604222401977" lon="14.47096916846931">
        <ele>201.39999389648401</ele>
        <time>2012-10-22T10:39:00Z</time>
      </trkpt>
      <trkpt lat="48.164794910699129" lon="14.471113169565797">
        <ele>201.39999389648401</ele>
        <time>2012-10-22T10:39:06Z</time>
      </trkpt>
      <trkpt lat="48.165004709735513" lon="14.471231438219547">
        <ele>201.39999389648401</ele>
        <time>2012-10-22T10:39:12Z</time>
      </trkpt>
      <trkpt lat="48.165203109383583" lon="14.471296314150095">
        <ele>201.39999389648401</ele>
        <time>2012-10-22T10:39:17Z</time>
      </trkpt>
      <trkpt lat="48.165580714121461" lon="14.471368817612529">
        <ele>201.39999389648401</ele>
        <time>2012-10-22T10:39:24Z</time>
      </trkpt>
      <trkpt lat="48.16562270745635" lon="14.471394550055265">
        <ele>201.39999389648401</ele>
        <time>2012-10-22T10:39:25Z</time>
      </trkpt>
      <trkpt lat="48.165767630562186" lon="14.471521368250251">
        <ele>201.39999389648401</ele>
        <time>2012-10-22T10:39:29Z</time>
      </trkpt>
      <trkpt lat="48.165851617231965" lon="14.471599571406841">
        <ele>200.60000610351599</ele>
        <time>2012-10-22T10:39:31Z</time>
      </trkpt>
      <trkpt lat="48.165885899215937" lon="14.471639636904001">
        <ele>200.19999694824199</ele>
        <time>2012-10-22T10:39:32Z</time>
      </trkpt>
      <trkpt lat="48.165927892550826" lon="14.471677774563432">
        <ele>199.80000305175801</ele>
        <time>2012-10-22T10:39:33Z</time>
      </trkpt>
      <trkpt lat="48.165966030210257" lon="14.471715912222862">
        <ele>199.39999389648401</ele>
        <time>2012-10-22T10:39:34Z</time>
      </trkpt>
      <trkpt lat="48.166046161204576" lon="14.471757905557752">
        <ele>199.39999389648401</ele>
        <time>2012-10-22T10:39:36Z</time>
      </trkpt>
      <trkpt lat="48.16633609123528" lon="14.47185798548162">
        <ele>199.39999389648401</ele>
        <time>2012-10-22T10:39:42Z</time>
      </trkpt>
      <trkpt lat="48.166439021006227" lon="14.47188095189631">
        <ele>199.39999389648401</ele>
        <time>2012-10-22T10:39:44Z</time>
      </trkpt>
      <trkpt lat="48.166645048186183" lon="14.47188095189631">
        <ele>199.39999389648401</ele>
        <time>2012-10-22T10:39:48Z</time>
      </trkpt>
      <trkpt lat="48.16672895103693" lon="14.471882795915008">
        <ele>199.39999389648401</ele>
        <time>2012-10-22T10:39:50Z</time>
      </trkpt>
      <trkpt lat="48.166904468089342" lon="14.471884723752737">
        <ele>199.39999389648401</ele>
        <time>2012-10-22T10:39:54Z</time>
      </trkpt>
      <trkpt lat="48.167274445295334" lon="14.471937194466591">
        <ele>199.39999389648401</ele>
        <time>2012-10-22T10:40:01Z</time>
      </trkpt>
      <trkpt lat="48.167663533240557" lon="14.472020175307989">
        <ele>199.39999389648401</ele>
        <time>2012-10-22T10:40:09Z</time>
      </trkpt>
      <trkpt lat="48.167976345866919" lon="14.472145065665245">
        <ele>199.39999389648401</ele>
        <time>2012-10-22T10:40:16Z</time>
      </trkpt>
      <trkpt lat="48.168178517371416" lon="14.472230896353722">
        <ele>199.39999389648401</ele>
        <time>2012-10-22T10:40:23Z</time>
      </trkpt>
      <trkpt lat="48.168239621445537" lon="14.472290072590113">
        <ele>199.39999389648401</ele>
        <time>2012-10-22T10:40:27Z</time>
      </trkpt>
      <trkpt lat="48.168262504041195" lon="14.472325360402465">
        <ele>199.39999389648401</ele>
        <time>2012-10-22T10:40:28Z</time>
      </trkpt>
      <trkpt lat="48.168399799615145" lon="14.472446478903294">
        <ele>199.39999389648401</ele>
        <time>2012-10-22T10:40:32Z</time>
      </trkpt>
      <trkpt lat="48.168441792950034" lon="14.472478833049536">
        <ele>199.39999389648401</ele>
        <time>2012-10-22T10:40:33Z</time>
      </trkpt>
      <trkpt lat="48.168483702465892" lon="14.472506493330002">
        <ele>199.39999389648401</ele>
        <time>2012-10-22T10:40:34Z</time>
      </trkpt>
      <trkpt lat="48.168613454326987" lon="14.472587546333671">
        <ele>199.39999389648401</ele>
        <time>2012-10-22T10:40:37Z</time>
      </trkpt>
      <trkpt lat="48.16870498470962" lon="14.472666755318642">
        <ele>199.39999389648401</ele>
        <time>2012-10-22T10:40:39Z</time>
      </trkpt>
      <trkpt lat="48.168968176469207" lon="14.472920391708612">
        <ele>199.39999389648401</ele>
        <time>2012-10-22T10:40:45Z</time>
      </trkpt>
      <trkpt lat="48.169307727366686" lon="14.473258936777711">
        <ele>199.39999389648401</ele>
        <time>2012-10-22T10:40:53Z</time>
      </trkpt>
      <trkpt lat="48.16943739540875" lon="14.473392460495234">
        <ele>198.80000305175801</ele>
        <time>2012-10-22T10:40:56Z</time>
      </trkpt>
      <trkpt lat="48.169479388743639" lon="14.47344015352428">
        <ele>198.39999389648401</ele>
        <time>2012-10-22T10:40:57Z</time>
      </trkpt>
      <trkpt lat="48.169521298259497" lon="14.473484996706247">
        <ele>198</ele>
        <time>2012-10-22T10:40:58Z</time>
      </trkpt>
      <trkpt lat="48.169563291594386" lon="14.473528834059834">
        <ele>197.60000610351599</ele>
        <time>2012-10-22T10:40:59Z</time>
      </trkpt>
      <trkpt lat="48.169605284929276" lon="14.473571749404073">
        <ele>197.19999694824199</ele>
        <time>2012-10-22T10:41:00Z</time>
      </trkpt>
      <trkpt lat="48.169651050120592" lon="14.473615670576692">
        <ele>197.19999694824199</ele>
        <time>2012-10-22T10:41:01Z</time>
      </trkpt>
      <trkpt lat="48.169815083965659" lon="14.473813064396381">
        <ele>197.19999694824199</ele>
        <time>2012-10-22T10:41:06Z</time>
      </trkpt>
      <trkpt lat="48.169868476688862" lon="14.474053373560309">
        <ele>197.19999694824199</ele>
        <time>2012-10-22T10:41:10Z</time>
      </trkpt>
      <trkpt lat="48.169879876077175" lon="14.474244145676494">
        <ele>197.19999694824199</ele>
        <time>2012-10-22T10:41:15Z</time>
      </trkpt>
      <trkpt lat="48.169895131140947" lon="14.47426887229085">
        <ele>197.19999694824199</ele>
        <time>2012-10-22T10:41:16Z</time>
      </trkpt>
      <trkpt lat="48.169948607683182" lon="14.474292760714889">
        <ele>197.19999694824199</ele>
        <time>2012-10-22T10:41:18Z</time>
      </trkpt>
      <trkpt lat="48.170105013996363" lon="14.474334754049778">
        <ele>197.19999694824199</ele>
        <time>2012-10-22T10:41:22Z</time>
      </trkpt>
      <trkpt lat="48.170150779187679" lon="14.474355708807707">
        <ele>197.19999694824199</ele>
        <time>2012-10-22T10:41:23Z</time>
      </trkpt>
      <trkpt lat="48.170398715883493" lon="14.474517814815044">
        <ele>197.19999694824199</ele>
        <time>2012-10-22T10:41:29Z</time>
      </trkpt>
      <trkpt lat="48.170440709218383" lon="14.474559808149934">
        <ele>197.19999694824199</ele>
        <time>2012-10-22T10:41:30Z</time>
      </trkpt>
      <trkpt lat="48.170677162706852" lon="14.47480489499867">
        <ele>197.19999694824199</ele>
        <time>2012-10-22T10:41:36Z</time>
      </trkpt>
      <trkpt lat="48.170970948413014" lon="14.475071942433715">
        <ele>197.19999694824199</ele>
        <time>2012-10-22T10:41:43Z</time>
      </trkpt>
      <trkpt lat="48.171344781294465" lon="14.475309401750565">
        <ele>197.19999694824199</ele>
        <time>2012-10-22T10:41:51Z</time>
      </trkpt>
      <trkpt lat="48.171718614175916" lon="14.47549631819129">
        <ele>197.19999694824199</ele>
        <time>2012-10-22T10:41:59Z</time>
      </trkpt>
      <trkpt lat="48.172153467312455" lon="14.475729921832681">
        <ele>197.19999694824199</ele>
        <time>2012-10-22T10:42:08Z</time>
      </trkpt>
      <trkpt lat="48.172584548592567" lon="14.475968386977911">
        <ele>197.19999694824199</ele>
        <time>2012-10-22T10:42:17Z</time>
      </trkpt>
      <trkpt lat="48.172966009005904" lon="14.4761848077178">
        <ele>197.19999694824199</ele>
        <time>2012-10-22T10:42:25Z</time>
      </trkpt>
      <trkpt lat="48.173393234610558" lon="14.476460488513112">
        <ele>197.19999694824199</ele>
        <time>2012-10-22T10:42:34Z</time>
      </trkpt>
      <trkpt lat="48.173717530444264" lon="14.476679842919111">
        <ele>197.19999694824199</ele>
        <time>2012-10-22T10:42:41Z</time>
      </trkpt>
      <trkpt lat="48.174140900373459" lon="14.476927779614925">
        <ele>197.19999694824199</ele>
        <time>2012-10-22T10:42:50Z</time>
      </trkpt>
      <trkpt lat="48.174476595595479" lon="14.477053675800562">
        <ele>197.19999694824199</ele>
        <time>2012-10-22T10:42:57Z</time>
      </trkpt>
      <trkpt lat="48.174785636365414" lon="14.477161383256316">
        <ele>197.19999694824199</ele>
        <time>2012-10-22T10:43:04Z</time>
      </trkpt>
      <trkpt lat="48.174823774024844" lon="14.477170016616583">
        <ele>197.19999694824199</ele>
        <time>2012-10-22T10:43:05Z</time>
      </trkpt>
      <trkpt lat="48.175090821459889" lon="14.477229109033942">
        <ele>197.19999694824199</ele>
        <time>2012-10-22T10:43:11Z</time>
      </trkpt>
      <trkpt lat="48.175441771745682" lon="14.477303540334105">
        <ele>197.19999694824199</ele>
        <time>2012-10-22T10:43:18Z</time>
      </trkpt>
      <trkpt lat="48.175922390073538" lon="14.477419881150126">
        <ele>197.19999694824199</ele>
        <time>2012-10-22T10:43:27Z</time>
      </trkpt>
      <trkpt lat="48.176288595423102" lon="14.477493306621909">
        <ele>197.19999694824199</ele>
        <time>2012-10-22T10:43:34Z</time>
      </trkpt>
      <trkpt lat="48.176677683368325" lon="14.477578131482005">
        <ele>197.19999694824199</ele>
        <time>2012-10-22T10:43:42Z</time>
      </trkpt>
      <trkpt lat="48.176994351670146" lon="14.477638229727745">
        <ele>197.19999694824199</ele>
        <time>2012-10-22T10:43:49Z</time>
      </trkpt>
      <trkpt lat="48.177375812083483" lon="14.477700255811214">
        <ele>197.19999694824199</ele>
        <time>2012-10-22T10:43:57Z</time>
      </trkpt>
      <trkpt lat="48.177665742114186" lon="14.477753648534417">
        <ele>197.19999694824199</ele>
        <time>2012-10-22T10:44:03Z</time>
      </trkpt>
      <trkpt lat="48.178058601915836" lon="14.477808969095349">
        <ele>197.19999694824199</ele>
        <time>2012-10-22T10:44:11Z</time>
      </trkpt>
      <trkpt lat="48.178257001563907" lon="14.477833779528737">
        <ele>196.80000305175801</ele>
        <time>2012-10-22T10:44:15Z</time>
      </trkpt>
      <trkpt lat="48.17830653861165" lon="14.477840401232243">
        <ele>196.39999389648401</ele>
        <time>2012-10-22T10:44:16Z</time>
      </trkpt>
      <trkpt lat="48.178356159478426" lon="14.477850878611207">
        <ele>196</ele>
        <time>2012-10-22T10:44:17Z</time>
      </trkpt>
      <trkpt lat="48.178405780345201" lon="14.477860433980823">
        <ele>195.60000610351599</ele>
        <time>2012-10-22T10:44:18Z</time>
      </trkpt>
      <trkpt lat="48.178455317392945" lon="14.47786521166563">
        <ele>195.19999694824199</ele>
        <time>2012-10-22T10:44:19Z</time>
      </trkpt>
      <trkpt lat="48.178806267678738" lon="14.477891949936748">
        <ele>195.19999694824199</ele>
        <time>2012-10-22T10:44:26Z</time>
      </trkpt>
      <trkpt lat="48.179126707836986" lon="14.477898571640253">
        <ele>195.19999694824199</ele>
        <time>2012-10-22T10:44:32Z</time>
      </trkpt>
      <trkpt lat="48.179386127740145" lon="14.477894799783826">
        <ele>195.19999694824199</ele>
        <time>2012-10-22T10:44:38Z</time>
      </trkpt>
      <trkpt lat="48.179416637867689" lon="14.477904355153441">
        <ele>195.19999694824199</ele>
        <time>2012-10-22T10:44:41Z</time>
      </trkpt>
      <trkpt lat="48.179424265399575" lon="14.477900499477983">
        <ele>195.19999694824199</ele>
        <time>2012-10-22T10:44:46Z</time>
      </trkpt>
      <trkpt lat="48.179443376138806" lon="14.477895721793175">
        <ele>195.19999694824199</ele>
        <time>2012-10-22T10:44:47Z</time>
      </trkpt>
      <trkpt lat="48.179546389728785" lon="14.477881472557783">
        <ele>195.19999694824199</ele>
        <time>2012-10-22T10:44:50Z</time>
      </trkpt>
      <trkpt lat="48.179588299244642" lon="14.477871917188168">
        <ele>195.19999694824199</ele>
        <time>2012-10-22T10:44:51Z</time>
      </trkpt>
      <trkpt lat="48.179916366934776" lon="14.477834701538086">
        <ele>195.19999694824199</ele>
        <time>2012-10-22T10:44:58Z</time>
      </trkpt>
      <trkpt lat="48.180274944752455" lon="14.47776697576046">
        <ele>195.19999694824199</ele>
        <time>2012-10-22T10:45:05Z</time>
      </trkpt>
      <trkpt lat="48.180702170357108" lon="14.477663040161133">
        <ele>195.19999694824199</ele>
        <time>2012-10-22T10:45:13Z</time>
      </trkpt>
      <trkpt lat="48.181247748434544" lon="14.477528594434261">
        <ele>195.19999694824199</ele>
        <time>2012-10-22T10:45:23Z</time>
      </trkpt>
      <trkpt lat="48.181667346507311" lon="14.477417031303048">
        <ele>195.19999694824199</ele>
        <time>2012-10-22T10:45:31Z</time>
      </trkpt>
      <trkpt lat="48.182086944580078" lon="14.477272024378181">
        <ele>195.19999694824199</ele>
        <time>2012-10-22T10:45:40Z</time>
      </trkpt>
      <trkpt lat="48.182495143264532" lon="14.477185271680355">
        <ele>195.19999694824199</ele>
        <time>2012-10-22T10:45:48Z</time>
      </trkpt>
      <trkpt lat="48.18273545242846" lon="14.477138500660658">
        <ele>195.19999694824199</ele>
        <time>2012-10-22T10:45:53Z</time>
      </trkpt>
      <trkpt lat="48.182830838486552" lon="14.477134728804231">
        <ele>195.19999694824199</ele>
        <time>2012-10-22T10:45:55Z</time>
      </trkpt>
      <trkpt lat="48.183155050501227" lon="14.477091813459992">
        <ele>195.19999694824199</ele>
        <time>2012-10-22T10:46:02Z</time>
      </trkpt>
      <trkpt lat="48.183525111526251" lon="14.47709365747869">
        <ele>195.19999694824199</ele>
        <time>2012-10-22T10:46:10Z</time>
      </trkpt>
      <trkpt lat="48.183845551684499" lon="14.477150905877352">
        <ele>195.19999694824199</ele>
        <time>2012-10-22T10:46:17Z</time>
      </trkpt>
      <trkpt lat="48.184406301006675" lon="14.477305384352803">
        <ele>195.19999694824199</ele>
        <time>2012-10-22T10:46:29Z</time>
      </trkpt>
      <trkpt lat="48.184787761420012" lon="14.47741225361824">
        <ele>195.19999694824199</ele>
        <time>2012-10-22T10:46:37Z</time>
      </trkpt>
      <trkpt lat="48.185115829110146" lon="14.477500934153795">
        <ele>195.19999694824199</ele>
        <time>2012-10-22T10:46:44Z</time>
      </trkpt>
      <trkpt lat="48.185550682246685" lon="14.47761157527566">
        <ele>195.19999694824199</ele>
        <time>2012-10-22T10:46:53Z</time>
      </trkpt>
      <trkpt lat="48.185932142660022" lon="14.477665890008211">
        <ele>195.19999694824199</ele>
        <time>2012-10-22T10:47:01Z</time>
      </trkpt>
      <trkpt lat="48.186313603073359" lon="14.477672595530748">
        <ele>195.19999694824199</ele>
        <time>2012-10-22T10:47:09Z</time>
      </trkpt>
      <trkpt lat="48.186679808422923" lon="14.477664967998862">
        <ele>195.19999694824199</ele>
        <time>2012-10-22T10:47:17Z</time>
      </trkpt>
      <trkpt lat="48.18704224191606" lon="14.477675445377827">
        <ele>195.19999694824199</ele>
        <time>2012-10-22T10:47:25Z</time>
      </trkpt>
      <trkpt lat="48.187499977648258" lon="14.477734537795186">
        <ele>195.19999694824199</ele>
        <time>2012-10-22T10:47:35Z</time>
      </trkpt>
      <trkpt lat="48.187934914603829" lon="14.477844256907701">
        <ele>195.19999694824199</ele>
        <time>2012-10-22T10:47:44Z</time>
      </trkpt>
      <trkpt lat="48.188266754150391" lon="14.477959591895342">
        <ele>195.19999694824199</ele>
        <time>2012-10-22T10:47:52Z</time>
      </trkpt>
      <trkpt lat="48.188476553186774" lon="14.47802253998816">
        <ele>195.60000610351599</ele>
        <time>2012-10-22T10:47:57Z</time>
      </trkpt>
      <trkpt lat="48.188514690846205" lon="14.478034023195505">
        <ele>196</ele>
        <time>2012-10-22T10:47:58Z</time>
      </trkpt>
      <trkpt lat="48.188552828505635" lon="14.478049278259277">
        <ele>196.39999389648401</ele>
        <time>2012-10-22T10:47:59Z</time>
      </trkpt>
      <trkpt lat="48.188590966165066" lon="14.478063611313701">
        <ele>196.80000305175801</ele>
        <time>2012-10-22T10:48:00Z</time>
      </trkpt>
      <trkpt lat="48.188629187643528" lon="14.478074088692665">
        <ele>197.19999694824199</ele>
        <time>2012-10-22T10:48:01Z</time>
      </trkpt>
      <trkpt lat="48.18886186927557" lon="14.478130331262946">
        <ele>197.19999694824199</ele>
        <time>2012-10-22T10:48:07Z</time>
      </trkpt>
      <trkpt lat="48.189125061035156" lon="14.478168468922377">
        <ele>197.60000610351599</ele>
        <time>2012-10-22T10:48:14Z</time>
      </trkpt>
      <trkpt lat="48.189163198694587" lon="14.478171318769455">
        <ele>198</ele>
        <time>2012-10-22T10:48:15Z</time>
      </trkpt>
      <trkpt lat="48.189201336354017" lon="14.478175174444914">
        <ele>198.39999389648401</ele>
        <time>2012-10-22T10:48:16Z</time>
      </trkpt>
      <trkpt lat="48.189239474013448" lon="14.478176096454263">
        <ele>198.80000305175801</ele>
        <time>2012-10-22T10:48:17Z</time>
      </trkpt>
      <trkpt lat="48.189273839816451" lon="14.478177102282643">
        <ele>199.19999694824199</ele>
        <time>2012-10-22T10:48:18Z</time>
      </trkpt>
      <trkpt lat="48.189311977475882" lon="14.478178024291992">
        <ele>199.19999694824199</ele>
        <time>2012-10-22T10:48:19Z</time>
      </trkpt>
      <trkpt lat="48.189643900841475" lon="14.478166541084647">
        <ele>199.19999694824199</ele>
        <time>2012-10-22T10:48:28Z</time>
      </trkpt>
      <trkpt lat="48.189754458144307" lon="14.478153213858604">
        <ele>199.60000610351599</ele>
        <time>2012-10-22T10:48:31Z</time>
      </trkpt>
      <trkpt lat="48.189796451479197" lon="14.478148436173797">
        <ele>200</ele>
        <time>2012-10-22T10:48:32Z</time>
      </trkpt>
      <trkpt lat="48.1898308172822" lon="14.478139886632562">
        <ele>200.39999389648401</ele>
        <time>2012-10-22T10:48:33Z</time>
      </trkpt>
      <trkpt lat="48.18986895494163" lon="14.478135108947754">
        <ele>200.80000305175801</ele>
        <time>2012-10-22T10:48:34Z</time>
      </trkpt>
      <trkpt lat="48.189907092601061" lon="14.478127481415868">
        <ele>201.19999694824199</ele>
        <time>2012-10-22T10:48:35Z</time>
      </trkpt>
      <trkpt lat="48.189979512244463" lon="14.478118931874633">
        <ele>201.19999694824199</ele>
        <time>2012-10-22T10:48:37Z</time>
      </trkpt>
      <trkpt lat="48.190197022631764" lon="14.478046428412199">
        <ele>201.19999694824199</ele>
        <time>2012-10-22T10:48:43Z</time>
      </trkpt>
      <trkpt lat="48.190311435610056" lon="14.478015918284655">
        <ele>201.60000610351599</ele>
        <time>2012-10-22T10:48:46Z</time>
      </trkpt>
      <trkpt lat="48.190345801413059" lon="14.478003513067961">
        <ele>202</ele>
        <time>2012-10-22T10:48:47Z</time>
      </trkpt>
      <trkpt lat="48.190380083397031" lon="14.477992029860616">
        <ele>202.39999389648401</ele>
        <time>2012-10-22T10:48:48Z</time>
      </trkpt>
      <trkpt lat="48.190414449200034" lon="14.477978702634573">
        <ele>202.80000305175801</ele>
        <time>2012-10-22T10:48:49Z</time>
      </trkpt>
      <trkpt lat="48.19044110365212" lon="14.47796730324626">
        <ele>203.19999694824199</ele>
        <time>2012-10-22T10:48:50Z</time>
      </trkpt>
      <trkpt lat="48.190498352050781" lon="14.477933859452605">
        <ele>203.19999694824199</ele>
        <time>2012-10-22T10:48:52Z</time>
      </trkpt>
      <trkpt lat="48.190681496635079" lon="14.477846184745431">
        <ele>203.19999694824199</ele>
        <time>2012-10-22T10:48:58Z</time>
      </trkpt>
      <trkpt lat="48.190830191597342" lon="14.47776697576046">
        <ele>204</ele>
        <time>2012-10-22T10:49:03Z</time>
      </trkpt>
      <trkpt lat="48.190860785543919" lon="14.477749792858958">
        <ele>204.39999389648401</ele>
        <time>2012-10-22T10:49:04Z</time>
      </trkpt>
      <trkpt lat="48.190883668139577" lon="14.477734537795186">
        <ele>204.80000305175801</ele>
        <time>2012-10-22T10:49:05Z</time>
      </trkpt>
      <trkpt lat="48.190910322591662" lon="14.477721210569143">
        <ele>205.19999694824199</ele>
        <time>2012-10-22T10:49:06Z</time>
      </trkpt>
      <trkpt lat="48.191139232367277" lon="14.477594392374158">
        <ele>205.19999694824199</ele>
        <time>2012-10-22T10:49:14Z</time>
      </trkpt>
      <trkpt lat="48.19131089374423" lon="14.477483751252294">
        <ele>205.19999694824199</ele>
        <time>2012-10-22T10:49:20Z</time>
      </trkpt>
      <trkpt lat="48.191371913999319" lon="14.477444607764482">
        <ele>205.60000610351599</ele>
        <time>2012-10-22T10:49:22Z</time>
      </trkpt>
      <trkpt lat="48.191402424126863" lon="14.477423653006554">
        <ele>206</ele>
        <time>2012-10-22T10:49:23Z</time>
      </trkpt>
      <trkpt lat="48.191432934254408" lon="14.477403620257974">
        <ele>206.39999389648401</ele>
        <time>2012-10-22T10:49:24Z</time>
      </trkpt>
      <trkpt lat="48.191467300057411" lon="14.477379815652966">
        <ele>206.80000305175801</ele>
        <time>2012-10-22T10:49:25Z</time>
      </trkpt>
      <trkpt lat="48.191501582041383" lon="14.477358777076006">
        <ele>207.39999389648401</ele>
        <time>2012-10-22T10:49:26Z</time>
      </trkpt>
      <trkpt lat="48.191535947844386" lon="14.477336900308728">
        <ele>207.39999389648401</ele>
        <time>2012-10-22T10:49:27Z</time>
      </trkpt>
      <trkpt lat="48.191799139603972" lon="14.477158533409238">
        <ele>207.39999389648401</ele>
        <time>2012-10-22T10:49:34Z</time>
      </trkpt>
      <trkpt lat="48.192073814570904" lon="14.477012604475021">
        <ele>207.39999389648401</ele>
        <time>2012-10-22T10:49:41Z</time>
      </trkpt>
      <trkpt lat="48.19224170409143" lon="14.477122323587537">
        <ele>207.39999389648401</ele>
        <time>2012-10-22T10:49:46Z</time>
      </trkpt>
      <trkpt lat="48.192428620532155" lon="14.47707555256784">
        <ele>207.39999389648401</ele>
        <time>2012-10-22T10:49:50Z</time>
      </trkpt>
      <trkpt lat="48.192687956616282" lon="14.476921074092388">
        <ele>207.39999389648401</ele>
        <time>2012-10-22T10:49:57Z</time>
      </trkpt>
      <trkpt lat="48.192943604663014" lon="14.476712197065353">
        <ele>207.39999389648401</ele>
        <time>2012-10-22T10:50:05Z</time>
      </trkpt>
      <trkpt lat="48.193069417029619" lon="14.476589234545827">
        <ele>207.80000305175801</ele>
        <time>2012-10-22T10:50:09Z</time>
      </trkpt>
      <trkpt lat="48.193100010976195" lon="14.476552940905094">
        <ele>208.19999694824199</ele>
        <time>2012-10-22T10:50:10Z</time>
      </trkpt>
      <trkpt lat="48.193126665428281" lon="14.476514803245664">
        <ele>208.60000610351599</ele>
        <time>2012-10-22T10:50:11Z</time>
      </trkpt>
      <trkpt lat="48.193157175555825" lon="14.476474737748504">
        <ele>209</ele>
        <time>2012-10-22T10:50:12Z</time>
      </trkpt>
      <trkpt lat="48.19318768568337" lon="14.476436600089073">
        <ele>209.39999389648401</ele>
        <time>2012-10-22T10:50:13Z</time>
      </trkpt>
      <trkpt lat="48.193218195810914" lon="14.476400390267372">
        <ele>209.39999389648401</ele>
        <time>2012-10-22T10:50:14Z</time>
      </trkpt>
      <trkpt lat="48.193496726453304" lon="14.476098977029324">
        <ele>209.39999389648401</ele>
        <time>2012-10-22T10:50:23Z</time>
      </trkpt>
      <trkpt lat="48.193527236580849" lon="14.476063689216971">
        <ele>209.80000305175801</ele>
        <time>2012-10-22T10:50:24Z</time>
      </trkpt>
      <trkpt lat="48.193557746708393" lon="14.476026557385921">
        <ele>210.19999694824199</ele>
        <time>2012-10-22T10:50:25Z</time>
      </trkpt>
      <trkpt lat="48.193592112511396" lon="14.475990263745189">
        <ele>210.60000610351599</ele>
        <time>2012-10-22T10:50:26Z</time>
      </trkpt>
      <trkpt lat="48.193622622638941" lon="14.47595028206706">
        <ele>211</ele>
        <time>2012-10-22T10:50:27Z</time>
      </trkpt>
      <trkpt lat="48.193653132766485" lon="14.475915916264057">
        <ele>211.39999389648401</ele>
        <time>2012-10-22T10:50:28Z</time>
      </trkpt>
      <trkpt lat="48.193813310936093" lon="14.475742327049375">
        <ele>211.39999389648401</ele>
        <time>2012-10-22T10:50:33Z</time>
      </trkpt>
      <trkpt lat="48.194061247631907" lon="14.475478213280439">
        <ele>211.80000305175801</ele>
        <time>2012-10-22T10:50:41Z</time>
      </trkpt>
      <trkpt lat="48.194095613434911" lon="14.475446697324514">
        <ele>212.60000610351599</ele>
        <time>2012-10-22T10:50:42Z</time>
      </trkpt>
      <trkpt lat="48.194126123562455" lon="14.475415265187621">
        <ele>213</ele>
        <time>2012-10-22T10:50:43Z</time>
      </trkpt>
      <trkpt lat="48.19415663369" lon="14.475379977375269">
        <ele>213.39999389648401</ele>
        <time>2012-10-22T10:50:44Z</time>
      </trkpt>
      <trkpt lat="48.194309268146753" lon="14.475206388160586">
        <ele>213.39999389648401</ele>
        <time>2012-10-22T10:50:49Z</time>
      </trkpt>
      <trkpt lat="48.194629708305001" lon="14.474902125075459">
        <ele>213.39999389648401</ele>
        <time>2012-10-22T10:50:58Z</time>
      </trkpt>
      <trkpt lat="48.195003541186452" lon="14.474642788991332">
        <ele>213.39999389648401</ele>
        <time>2012-10-22T10:51:07Z</time>
      </trkpt>
      <trkpt lat="48.195495642721653" lon="14.474403401836753">
        <ele>213.39999389648401</ele>
        <time>2012-10-22T10:51:17Z</time>
      </trkpt>
      <trkpt lat="48.195949522778392" lon="14.474290832877159">
        <ele>213.39999389648401</ele>
        <time>2012-10-22T10:51:25Z</time>
      </trkpt>
      <trkpt lat="48.196449251845479" lon="14.474255545064807">
        <ele>213.39999389648401</ele>
        <time>2012-10-22T10:51:33Z</time>
      </trkpt>
      <trkpt lat="48.196491245180368" lon="14.474255545064807">
        <ele>213</ele>
        <time>2012-10-22T10:51:34Z</time>
      </trkpt>
      <trkpt lat="48.196525610983372" lon="14.474254623055458">
        <ele>212.60000610351599</ele>
        <time>2012-10-22T10:51:35Z</time>
      </trkpt>
      <trkpt lat="48.196552265435457" lon="14.474264178425074">
        <ele>212</ele>
        <time>2012-10-22T10:51:36Z</time>
      </trkpt>
      <trkpt lat="48.196559892967343" lon="14.474294688552618">
        <ele>211.60000610351599</ele>
        <time>2012-10-22T10:51:37Z</time>
      </trkpt>
      <trkpt lat="48.196571376174688" lon="14.474344225600362">
        <ele>211.19999694824199</ele>
        <time>2012-10-22T10:51:38Z</time>
      </trkpt>
      <trkpt lat="48.196575148031116" lon="14.474400551989675">
        <ele>211.19999694824199</ele>
        <time>2012-10-22T10:51:39Z</time>
      </trkpt>
      <trkpt lat="48.196594258770347" lon="14.4747428689152">
        <ele>210.80000305175801</ele>
        <time>2012-10-22T10:51:43Z</time>
      </trkpt>
      <trkpt lat="48.196598030626774" lon="14.474840182811022">
        <ele>210.39999389648401</ele>
        <time>2012-10-22T10:51:44Z</time>
      </trkpt>
      <trkpt lat="48.196601886302233" lon="14.474943196401">
        <ele>209.80000305175801</ele>
        <time>2012-10-22T10:51:45Z</time>
      </trkpt>
      <trkpt lat="48.196598030626774" lon="14.475051909685135">
        <ele>209.39999389648401</ele>
        <time>2012-10-22T10:51:46Z</time>
      </trkpt>
      <trkpt lat="48.196601886302233" lon="14.475162466987967">
        <ele>209</ele>
        <time>2012-10-22T10:51:47Z</time>
      </trkpt>
      <trkpt lat="48.196601886302233" lon="14.475272186100483">
        <ele>208.60000610351599</ele>
        <time>2012-10-22T10:51:48Z</time>
      </trkpt>
      <trkpt lat="48.19660565815866" lon="14.475388526916504">
        <ele>208.19999694824199</ele>
        <time>2012-10-22T10:51:49Z</time>
      </trkpt>
      <trkpt lat="48.196609513834119" lon="14.475495312362909">
        <ele>207.80000305175801</ele>
        <time>2012-10-22T10:51:50Z</time>
      </trkpt>
      <trkpt lat="48.196620913222432" lon="14.475603103637695">
        <ele>207.39999389648401</ele>
        <time>2012-10-22T10:51:51Z</time>
      </trkpt>
      <trkpt lat="48.196636168286204" lon="14.475707039237022">
        <ele>206.80000305175801</ele>
        <time>2012-10-22T10:51:52Z</time>
      </trkpt>
      <trkpt lat="48.196655279025435" lon="14.475814830511808">
        <ele>206.19999694824199</ele>
        <time>2012-10-22T10:51:53Z</time>
      </trkpt>
      <trkpt lat="48.196674305945635" lon="14.475918766111135">
        <ele>205.80000305175801</ele>
        <time>2012-10-22T10:51:54Z</time>
      </trkpt>
      <trkpt lat="48.196697272360325" lon="14.476025551557541">
        <ele>205.19999694824199</ele>
        <time>2012-10-22T10:51:55Z</time>
      </trkpt>
      <trkpt lat="48.196720154955983" lon="14.476132420822978">
        <ele>204.19999694824199</ele>
        <time>2012-10-22T10:51:56Z</time>
      </trkpt>
      <trkpt lat="48.196743037551641" lon="14.47624683380127">
        <ele>203.60000610351599</ele>
        <time>2012-10-22T10:51:57Z</time>
      </trkpt>
      <trkpt lat="48.196769692003727" lon="14.476349847391248">
        <ele>203</ele>
        <time>2012-10-22T10:51:58Z</time>
      </trkpt>
      <trkpt lat="48.196788802742958" lon="14.476452860981226">
        <ele>202.39999389648401</ele>
        <time>2012-10-22T10:51:59Z</time>
      </trkpt>
      <trkpt lat="48.196811685338616" lon="14.476563418284059">
        <ele>201.80000305175801</ele>
        <time>2012-10-22T10:52:00Z</time>
      </trkpt>
      <trkpt lat="48.19682308472693" lon="14.476668359711766">
        <ele>201.19999694824199</ele>
        <time>2012-10-22T10:52:01Z</time>
      </trkpt>
      <trkpt lat="48.196838339790702" lon="14.476770367473364">
        <ele>200.39999389648401</ele>
        <time>2012-10-22T10:52:02Z</time>
      </trkpt>
      <trkpt lat="48.196853678673506" lon="14.476861981675029">
        <ele>199.80000305175801</ele>
        <time>2012-10-22T10:52:03Z</time>
      </trkpt>
      <trkpt lat="48.196861306205392" lon="14.47693825699389">
        <ele>199.19999694824199</ele>
        <time>2012-10-22T10:52:04Z</time>
      </trkpt>
      <trkpt lat="48.196872705593705" lon="14.477017382159829">
        <ele>198.60000610351599</ele>
        <time>2012-10-22T10:52:05Z</time>
      </trkpt>
      <trkpt lat="48.196887960657477" lon="14.4770965911448">
        <ele>198</ele>
        <time>2012-10-22T10:52:06Z</time>
      </trkpt>
      <trkpt lat="48.196895588189363" lon="14.477176638320088">
        <ele>197.60000610351599</ele>
        <time>2012-10-22T10:52:07Z</time>
      </trkpt>
      <trkpt lat="48.196910843253136" lon="14.477272024378181">
        <ele>197</ele>
        <time>2012-10-22T10:52:08Z</time>
      </trkpt>
      <trkpt lat="48.196933725848794" lon="14.47737218812108">
        <ele>196.39999389648401</ele>
        <time>2012-10-22T10:52:09Z</time>
      </trkpt>
      <trkpt lat="48.196968091651797" lon="14.4774713460356">
        <ele>195.80000305175801</ele>
        <time>2012-10-22T10:52:10Z</time>
      </trkpt>
      <trkpt lat="48.197006229311228" lon="14.47756958194077">
        <ele>195.39999389648401</ele>
        <time>2012-10-22T10:52:11Z</time>
      </trkpt>
      <trkpt lat="48.197059622034431" lon="14.477680223062634">
        <ele>194.80000305175801</ele>
        <time>2012-10-22T10:52:12Z</time>
      </trkpt>
      <trkpt lat="48.197116870433092" lon="14.477774603292346">
        <ele>194.19999694824199</ele>
        <time>2012-10-22T10:52:13Z</time>
      </trkpt>
      <trkpt lat="48.197177890688181" lon="14.477858506143093">
        <ele>193.60000610351599</ele>
        <time>2012-10-22T10:52:14Z</time>
      </trkpt>
      <trkpt lat="48.197242766618729" lon="14.477932015433908">
        <ele>193.19999694824199</ele>
        <time>2012-10-22T10:52:15Z</time>
      </trkpt>
      <trkpt lat="48.197315186262131" lon="14.477988258004189">
        <ele>192.60000610351599</ele>
        <time>2012-10-22T10:52:16Z</time>
      </trkpt>
      <trkpt lat="48.197391545400023" lon="14.478033101186156">
        <ele>192</ele>
        <time>2012-10-22T10:52:17Z</time>
      </trkpt>
      <trkpt lat="48.197467820718884" lon="14.478066461160779">
        <ele>191.60000610351599</ele>
        <time>2012-10-22T10:52:18Z</time>
      </trkpt>
      <trkpt lat="48.197551723569632" lon="14.478096971288323">
        <ele>191.19999694824199</ele>
        <time>2012-10-22T10:52:19Z</time>
      </trkpt>
      <trkpt lat="48.197631854563951" lon="14.478119853883982">
        <ele>190.80000305175801</ele>
        <time>2012-10-22T10:52:20Z</time>
      </trkpt>
      <trkpt lat="48.197711985558271" lon="14.478139886632562">
        <ele>190.39999389648401</ele>
        <time>2012-10-22T10:52:21Z</time>
      </trkpt>
      <trkpt lat="48.197784405201674" lon="14.478157991543412">
        <ele>189.60000610351599</ele>
        <time>2012-10-22T10:52:22Z</time>
      </trkpt>
      <trkpt lat="48.198078190907836" lon="14.478185651823878">
        <ele>189.60000610351599</ele>
        <time>2012-10-22T10:52:26Z</time>
      </trkpt>
      <trkpt lat="48.198295617476106" lon="14.478204762563109">
        <ele>189.19999694824199</ele>
        <time>2012-10-22T10:52:29Z</time>
      </trkpt>
      <trkpt lat="48.198360409587622" lon="14.478214234113693">
        <ele>188.60000610351599</ele>
        <time>2012-10-22T10:52:30Z</time>
      </trkpt>
      <trkpt lat="48.198425285518169" lon="14.47822286747396">
        <ele>188.19999694824199</ele>
        <time>2012-10-22T10:52:31Z</time>
      </trkpt>
      <trkpt lat="48.198490161448717" lon="14.478229489177465">
        <ele>187.80000305175801</ele>
        <time>2012-10-22T10:52:32Z</time>
      </trkpt>
      <trkpt lat="48.198554953560233" lon="14.478234266862273">
        <ele>187.39999389648401</ele>
        <time>2012-10-22T10:52:33Z</time>
      </trkpt>
      <trkpt lat="48.198776235803962" lon="14.478284809738398">
        <ele>187.39999389648401</ele>
        <time>2012-10-22T10:52:37Z</time>
      </trkpt>
      <trkpt lat="48.198856366798282" lon="14.478370640426874">
        <ele>187.39999389648401</ele>
        <time>2012-10-22T10:52:39Z</time>
      </trkpt>
      <trkpt lat="48.198883021250367" lon="14.478585217148066">
        <ele>187.39999389648401</ele>
        <time>2012-10-22T10:52:42Z</time>
      </trkpt>
      <trkpt lat="48.198875393718481" lon="14.478735001757741">
        <ele>187.39999389648401</ele>
        <time>2012-10-22T10:52:44Z</time>
      </trkpt>
      <trkpt lat="48.198871621862054" lon="14.479023925960064">
        <ele>187.39999389648401</ele>
        <time>2012-10-22T10:52:48Z</time>
      </trkpt>
      <trkpt lat="48.198902131989598" lon="14.479281418025494">
        <ele>187.39999389648401</ele>
        <time>2012-10-22T10:52:52Z</time>
      </trkpt>
      <trkpt lat="48.198940269649029" lon="14.47932718321681">
        <ele>187.39999389648401</ele>
        <time>2012-10-22T10:52:53Z</time>
      </trkpt>
      <trkpt lat="48.199081420898438" lon="14.479381581768394">
        <ele>187.39999389648401</ele>
        <time>2012-10-22T10:52:56Z</time>
      </trkpt>
      <trkpt lat="48.199131041765213" lon="14.479390131309628">
        <ele>187.39999389648401</ele>
        <time>2012-10-22T10:52:57Z</time>
      </trkpt>
      <trkpt lat="48.19943237118423" lon="14.479433046653867">
        <ele>187.39999389648401</ele>
        <time>2012-10-22T10:53:03Z</time>
      </trkpt>
      <trkpt lat="48.199813831597567" lon="14.479488367214799">
        <ele>187.39999389648401</ele>
        <time>2012-10-22T10:53:11Z</time>
      </trkpt>
      <trkpt lat="48.200141899287701" lon="14.479539832100272">
        <ele>187.39999389648401</ele>
        <time>2012-10-22T10:53:18Z</time>
      </trkpt>
      <trkpt lat="48.200233429670334" lon="14.479558020830154">
        <ele>187.39999389648401</ele>
        <time>2012-10-22T10:53:20Z</time>
      </trkpt>
      <trkpt lat="48.20048145018518" lon="14.479581825435162">
        <ele>187.39999389648401</ele>
        <time>2012-10-22T10:53:25Z</time>
      </trkpt>
      <trkpt lat="48.200828544795513" lon="14.479649551212788">
        <ele>187.39999389648401</ele>
        <time>2012-10-22T10:53:32Z</time>
      </trkpt>
      <trkpt lat="48.201217632740736" lon="14.4797249045223">
        <ele>187.39999389648401</ele>
        <time>2012-10-22T10:53:39Z</time>
      </trkpt>
      <trkpt lat="48.201450314372778" lon="14.479790702462196">
        <ele>187</ele>
        <time>2012-10-22T10:53:43Z</time>
      </trkpt>
      <trkpt lat="48.20150756277144" lon="14.47980210185051">
        <ele>186.60000610351599</ele>
        <time>2012-10-22T10:53:44Z</time>
      </trkpt>
      <trkpt lat="48.201564811170101" lon="14.479810735210776">
        <ele>186.19999694824199</ele>
        <time>2012-10-22T10:53:45Z</time>
      </trkpt>
      <trkpt lat="48.20162583142519" lon="14.47982213459909">
        <ele>185.80000305175801</ele>
        <time>2012-10-22T10:53:46Z</time>
      </trkpt>
      <trkpt lat="48.201683079823852" lon="14.479839317500591">
        <ele>185.39999389648401</ele>
        <time>2012-10-22T10:53:47Z</time>
      </trkpt>
      <trkpt lat="48.202030174434185" lon="14.479936631396413">
        <ele>185.39999389648401</ele>
        <time>2012-10-22T10:53:53Z</time>
      </trkpt>
      <trkpt lat="48.202346842736006" lon="14.479977618902922">
        <ele>185.39999389648401</ele>
        <time>2012-10-22T10:53:59Z</time>
      </trkpt>
      <trkpt lat="48.202709192410111" lon="14.479946102946997">
        <ele>185.39999389648401</ele>
        <time>2012-10-22T10:54:07Z</time>
      </trkpt>
      <trkpt lat="48.202793095260859" lon="14.479946102946997">
        <ele>185.39999389648401</ele>
        <time>2012-10-22T10:54:09Z</time>
      </trkpt>
      <trkpt lat="48.202968612313271" lon="14.479944258928299">
        <ele>185.39999389648401</ele>
        <time>2012-10-22T10:54:13Z</time>
      </trkpt>
      <trkpt lat="48.203350072726607" lon="14.479948030784726">
        <ele>185.39999389648401</ele>
        <time>2012-10-22T10:54:21Z</time>
      </trkpt>
      <trkpt lat="48.203826919198036" lon="14.479981390759349">
        <ele>185.39999389648401</ele>
        <time>2012-10-22T10:54:30Z</time>
      </trkpt>
      <trkpt lat="48.204132104292512" lon="14.479956664144993">
        <ele>185.39999389648401</ele>
        <time>2012-10-22T10:54:36Z</time>
      </trkpt>
      <trkpt lat="48.204483054578304" lon="14.479924226179719">
        <ele>185.39999389648401</ele>
        <time>2012-10-22T10:54:43Z</time>
      </trkpt>
      <trkpt lat="48.204811122268438" lon="14.479886088520288">
        <ele>185.39999389648401</ele>
        <time>2012-10-22T10:54:50Z</time>
      </trkpt>
      <trkpt lat="48.205169700086117" lon="14.479815512895584">
        <ele>185.39999389648401</ele>
        <time>2012-10-22T10:54:57Z</time>
      </trkpt>
      <trkpt lat="48.205570187419653" lon="14.47976304218173">
        <ele>185.39999389648401</ele>
        <time>2012-10-22T10:55:05Z</time>
      </trkpt>
      <trkpt lat="48.205863973125815" lon="14.479760192334652">
        <ele>185.39999389648401</ele>
        <time>2012-10-22T10:55:11Z</time>
      </trkpt>
      <trkpt lat="48.206008896231651" lon="14.479735381901264">
        <ele>185.39999389648401</ele>
        <time>2012-10-22T10:55:14Z</time>
      </trkpt>
      <trkpt lat="48.206161530688405" lon="14.47968483902514">
        <ele>185.39999389648401</ele>
        <time>2012-10-22T10:55:18Z</time>
      </trkpt>
      <trkpt lat="48.206176785752177" lon="14.479706799611449">
        <ele>185.39999389648401</ele>
        <time>2012-10-22T10:55:19Z</time>
      </trkpt>
      <trkpt lat="48.206192040815949" lon="14.479790702462196">
        <ele>185.39999389648401</ele>
        <time>2012-10-22T10:55:21Z</time>
      </trkpt>
      <trkpt lat="48.206207295879722" lon="14.479925148189068">
        <ele>185</ele>
        <time>2012-10-22T10:55:23Z</time>
      </trkpt>
      <trkpt lat="48.206211067736149" lon="14.48000050149858">
        <ele>184.60000610351599</ele>
        <time>2012-10-22T10:55:24Z</time>
      </trkpt>
      <trkpt lat="48.206218695268035" lon="14.480073926970363">
        <ele>184.19999694824199</ele>
        <time>2012-10-22T10:55:25Z</time>
      </trkpt>
      <trkpt lat="48.206222550943494" lon="14.480139724910259">
        <ele>183.80000305175801</ele>
        <time>2012-10-22T10:55:26Z</time>
      </trkpt>
      <trkpt lat="48.206226322799921" lon="14.480190267786384">
        <ele>183.39999389648401</ele>
        <time>2012-10-22T10:55:27Z</time>
      </trkpt>
      <trkpt lat="48.206237806007266" lon="14.480232261121273">
        <ele>183</ele>
        <time>2012-10-22T10:55:28Z</time>
      </trkpt>
      <trkpt lat="48.206260688602924" lon="14.480272326618433">
        <ele>182.60000610351599</ele>
        <time>2012-10-22T10:55:29Z</time>
      </trkpt>
      <trkpt lat="48.206295054405928" lon="14.48029805906117">
        <ele>182</ele>
        <time>2012-10-22T10:55:30Z</time>
      </trkpt>
      <trkpt lat="48.206344591453671" lon="14.480309458449483">
        <ele>181.60000610351599</ele>
        <time>2012-10-22T10:55:31Z</time>
      </trkpt>
      <trkpt lat="48.20640561170876" lon="14.480315241962671">
        <ele>181.19999694824199</ele>
        <time>2012-10-22T10:55:32Z</time>
      </trkpt>
      <trkpt lat="48.206684142351151" lon="14.480351451784372">
        <ele>180.80000305175801</ele>
        <time>2012-10-22T10:55:37Z</time>
      </trkpt>
      <trkpt lat="48.206733679398894" lon="14.480361929163337">
        <ele>180.39999389648401</ele>
        <time>2012-10-22T10:55:38Z</time>
      </trkpt>
      <trkpt lat="48.206790927797556" lon="14.48037626221776">
        <ele>179.60000610351599</ele>
        <time>2012-10-22T10:55:39Z</time>
      </trkpt>
      <trkpt lat="48.206844320520759" lon="14.480400066822767">
        <ele>179.19999694824199</ele>
        <time>2012-10-22T10:55:40Z</time>
      </trkpt>
      <trkpt lat="48.207057975232601" lon="14.480492603033781">
        <ele>179.19999694824199</ele>
        <time>2012-10-22T10:55:44Z</time>
      </trkpt>
      <trkpt lat="48.207397442311049" lon="14.480707179754972">
        <ele>179.19999694824199</ele>
        <time>2012-10-22T10:55:51Z</time>
      </trkpt>
      <trkpt lat="48.207679744809866" lon="14.480937933549285">
        <ele>179.19999694824199</ele>
        <time>2012-10-22T10:55:57Z</time>
      </trkpt>
      <trkpt lat="48.207725510001183" lon="14.480986632406712">
        <ele>179.19999694824199</ele>
        <time>2012-10-22T10:55:58Z</time>
      </trkpt>
      <trkpt lat="48.208034550771117" lon="14.481296511366963">
        <ele>179.19999694824199</ele>
        <time>2012-10-22T10:56:04Z</time>
      </trkpt>
      <trkpt lat="48.208312997594476" lon="14.481627428904176">
        <ele>179.19999694824199</ele>
        <time>2012-10-22T10:56:10Z</time>
      </trkpt>
      <trkpt lat="48.208568561822176" lon="14.481915514916182">
        <ele>179.19999694824199</ele>
        <time>2012-10-22T10:56:16Z</time>
      </trkpt>
      <trkpt lat="48.208728823810816" lon="14.482084242627025">
        <ele>179.19999694824199</ele>
        <time>2012-10-22T10:56:20Z</time>
      </trkpt>
      <trkpt lat="48.208805099129677" lon="14.482157668098807">
        <ele>179.19999694824199</ele>
        <time>2012-10-22T10:56:22Z</time>
      </trkpt>
      <trkpt lat="48.209167448803782" lon="14.482462853193283">
        <ele>179.19999694824199</ele>
        <time>2012-10-22T10:56:31Z</time>
      </trkpt>
      <trkpt lat="48.209533654153347" lon="14.482757560908794">
        <ele>179.19999694824199</ele>
        <time>2012-10-22T10:56:40Z</time>
      </trkpt>
      <trkpt lat="48.209842694923282" lon="14.483060818165541">
        <ele>179.19999694824199</ele>
        <time>2012-10-22T10:56:48Z</time>
      </trkpt>
      <trkpt lat="48.209976218640804" lon="14.483173387125134">
        <ele>179.19999694824199</ele>
        <time>2012-10-22T10:56:51Z</time>
      </trkpt>
      <trkpt lat="48.210105886682868" lon="14.483284950256348">
        <ele>179.19999694824199</ele>
        <time>2012-10-22T10:56:54Z</time>
      </trkpt>
      <trkpt lat="48.21041869930923" lon="14.483502376824617">
        <ele>179.19999694824199</ele>
        <time>2012-10-22T10:57:02Z</time>
      </trkpt>
      <trkpt lat="48.210723884403706" lon="14.483693148940802">
        <ele>179.19999694824199</ele>
        <time>2012-10-22T10:57:10Z</time>
      </trkpt>
      <trkpt lat="48.211036697030067" lon="14.483900098130107">
        <ele>179.19999694824199</ele>
        <time>2012-10-22T10:57:17Z</time>
      </trkpt>
      <trkpt lat="48.211284633725882" lon="14.484053570777178">
        <ele>179.19999694824199</ele>
        <time>2012-10-22T10:57:23Z</time>
      </trkpt>
      <trkpt lat="48.211608845740557" lon="14.484239565208554">
        <ele>179.19999694824199</ele>
        <time>2012-10-22T10:57:31Z</time>
      </trkpt>
      <trkpt lat="48.211856866255403" lon="14.484351128339767">
        <ele>178.80000305175801</ele>
        <time>2012-10-22T10:57:37Z</time>
      </trkpt>
      <trkpt lat="48.211891148239374" lon="14.48436931706965">
        <ele>178.39999389648401</ele>
        <time>2012-10-22T10:57:38Z</time>
      </trkpt>
      <trkpt lat="48.211936913430691" lon="14.484385494142771">
        <ele>178</ele>
        <time>2012-10-22T10:57:39Z</time>
      </trkpt>
      <trkpt lat="48.211959879845381" lon="14.484396893531084">
        <ele>177.60000610351599</ele>
        <time>2012-10-22T10:57:40Z</time>
      </trkpt>
      <trkpt lat="48.211990389972925" lon="14.484415082260966">
        <ele>177.19999694824199</ele>
        <time>2012-10-22T10:57:41Z</time>
      </trkpt>
      <trkpt lat="48.2120590377599" lon="14.484476102516055">
        <ele>177.19999694824199</ele>
        <time>2012-10-22T10:57:43Z</time>
      </trkpt>
      <trkpt lat="48.212245954200625" lon="14.484576266258955">
        <ele>177.19999694824199</ele>
        <time>2012-10-22T10:57:48Z</time>
      </trkpt>
      <trkpt lat="48.212585421279073" lon="14.484778437763453">
        <ele>177.19999694824199</ele>
        <time>2012-10-22T10:57:56Z</time>
      </trkpt>
      <trkpt lat="48.212951626628637" lon="14.485046407207847">
        <ele>177.19999694824199</ele>
        <time>2012-10-22T10:58:05Z</time>
      </trkpt>
      <trkpt lat="48.213214902207255" lon="14.485257128253579">
        <ele>177.19999694824199</ele>
        <time>2012-10-22T10:58:12Z</time>
      </trkpt>
      <trkpt lat="48.213260667398572" lon="14.485265761613846">
        <ele>177.19999694824199</ele>
        <time>2012-10-22T10:58:13Z</time>
      </trkpt>
      <trkpt lat="48.213611617684364" lon="14.485317226499319">
        <ele>177.19999694824199</ele>
        <time>2012-10-22T10:58:21Z</time>
      </trkpt>
      <trkpt lat="48.21379853412509" lon="14.48527816683054">
        <ele>177.19999694824199</ele>
        <time>2012-10-22T10:58:27Z</time>
      </trkpt>
      <trkpt lat="48.214050326496363" lon="14.485169369727373">
        <ele>177.19999694824199</ele>
        <time>2012-10-22T10:58:35Z</time>
      </trkpt>
      <trkpt lat="48.214130373671651" lon="14.48515604250133">
        <ele>177.19999694824199</ele>
        <time>2012-10-22T10:58:37Z</time>
      </trkpt>
      <trkpt lat="48.214267753064632" lon="14.485165597870946">
        <ele>177.19999694824199</ele>
        <time>2012-10-22T10:58:40Z</time>
      </trkpt>
      <trkpt lat="48.21430966258049" lon="14.485152270644903">
        <ele>177.19999694824199</ele>
        <time>2012-10-22T10:58:41Z</time>
      </trkpt>
      <trkpt lat="48.214496579021215" lon="14.485120754688978">
        <ele>177.19999694824199</ele>
        <time>2012-10-22T10:58:45Z</time>
      </trkpt>
      <trkpt lat="48.214584337547421" lon="14.485124610364437">
        <ele>177.19999694824199</ele>
        <time>2012-10-22T10:58:47Z</time>
      </trkpt>
      <trkpt lat="48.214813247323036" lon="14.485100721940398">
        <ele>177.19999694824199</ele>
        <time>2012-10-22T10:58:52Z</time>
      </trkpt>
      <trkpt lat="48.215118432417512" lon="14.48505780659616">
        <ele>177.19999694824199</ele>
        <time>2012-10-22T10:58:59Z</time>
      </trkpt>
      <trkpt lat="48.215465527027845" lon="14.485016819089651">
        <ele>177.19999694824199</ele>
        <time>2012-10-22T10:59:07Z</time>
      </trkpt>
      <trkpt lat="48.21565629914403" lon="14.484979603439569">
        <ele>177.19999694824199</ele>
        <time>2012-10-22T10:59:13Z</time>
      </trkpt>
      <trkpt lat="48.215679181739688" lon="14.484987230971456">
        <ele>177.19999694824199</ele>
        <time>2012-10-22T10:59:14Z</time>
      </trkpt>
      <trkpt lat="48.215721091255546" lon="14.485052106902003">
        <ele>177.19999694824199</ele>
        <time>2012-10-22T10:59:17Z</time>
      </trkpt>
      <trkpt lat="48.215751685202122" lon="14.485118826851249">
        <ele>177.19999694824199</ele>
        <time>2012-10-22T10:59:19Z</time>
      </trkpt>
      <trkpt lat="48.215793594717979" lon="14.48527523316443">
        <ele>177.19999694824199</ele>
        <time>2012-10-22T10:59:22Z</time>
      </trkpt>
      <trkpt lat="48.215923346579075" lon="14.485705392435193">
        <ele>177.19999694824199</ele>
        <time>2012-10-22T10:59:29Z</time>
      </trkpt>
      <trkpt lat="48.216011021286249" lon="14.485934218391776">
        <ele>177.19999694824199</ele>
        <time>2012-10-22T10:59:33Z</time>
      </trkpt>
      <trkpt lat="48.216072041541338" lon="14.486041087657213">
        <ele>177.19999694824199</ele>
        <time>2012-10-22T10:59:35Z</time>
      </trkpt>
      <trkpt lat="48.216251414269209" lon="14.486287096515298">
        <ele>177.19999694824199</ele>
        <time>2012-10-22T10:59:40Z</time>
      </trkpt>
      <trkpt lat="48.216331461444497" lon="14.486367227509618">
        <ele>177.19999694824199</ele>
        <time>2012-10-22T10:59:42Z</time>
      </trkpt>
      <trkpt lat="48.216613763943315" lon="14.486551294103265">
        <ele>177.19999694824199</ele>
        <time>2012-10-22T10:59:48Z</time>
      </trkpt>
      <trkpt lat="48.216991452500224" lon="14.486695295199752">
        <ele>177.19999694824199</ele>
        <time>2012-10-22T10:59:56Z</time>
      </trkpt>
      <trkpt lat="48.217372912913561" lon="14.486833596602082">
        <ele>177.19999694824199</ele>
        <time>2012-10-22T11:00:04Z</time>
      </trkpt>
      <trkpt lat="48.217754373326898" lon="14.486984219402075">
        <ele>177.19999694824199</ele>
        <time>2012-10-22T11:00:12Z</time>
      </trkpt>
      <trkpt lat="48.218086212873459" lon="14.487108271569014">
        <ele>177.19999694824199</ele>
        <time>2012-10-22T11:00:19Z</time>
      </trkpt>
      <trkpt lat="48.218463901430368" lon="14.487250344827771">
        <ele>177.19999694824199</ele>
        <time>2012-10-22T11:00:27Z</time>
      </trkpt>
      <trkpt lat="48.218898754566908" lon="14.48740960098803">
        <ele>177.19999694824199</ele>
        <time>2012-10-22T11:00:36Z</time>
      </trkpt>
      <trkpt lat="48.218948375433683" lon="14.487422006204724">
        <ele>177.19999694824199</ele>
        <time>2012-10-22T11:00:37Z</time>
      </trkpt>
      <trkpt lat="48.219100926071405" lon="14.487430555745959">
        <ele>177.19999694824199</ele>
        <time>2012-10-22T11:00:41Z</time>
      </trkpt>
      <trkpt lat="48.219123808667064" lon="14.48742862790823">
        <ele>176.80000305175801</ele>
        <time>2012-10-22T11:00:42Z</time>
      </trkpt>
      <trkpt lat="48.219146691262722" lon="14.487426783889532">
        <ele>176.39999389648401</ele>
        <time>2012-10-22T11:00:43Z</time>
      </trkpt>
      <trkpt lat="48.219173429533839" lon="14.48742963373661">
        <ele>176</ele>
        <time>2012-10-22T11:00:44Z</time>
      </trkpt>
      <trkpt lat="48.21919254027307" lon="14.487432483583689">
        <ele>175.60000610351599</ele>
        <time>2012-10-22T11:00:45Z</time>
      </trkpt>
      <trkpt lat="48.219215422868729" lon="14.487434411421418">
        <ele>175.19999694824199</ele>
        <time>2012-10-22T11:00:46Z</time>
      </trkpt>
      <trkpt lat="48.219352718442678" lon="14.487487804144621">
        <ele>175.19999694824199</ele>
        <time>2012-10-22T11:00:52Z</time>
      </trkpt>
      <trkpt lat="48.219558745622635" lon="14.487450588494539">
        <ele>175.19999694824199</ele>
        <time>2012-10-22T11:00:59Z</time>
      </trkpt>
      <trkpt lat="48.219657903537154" lon="14.48738956823945">
        <ele>175.19999694824199</ele>
        <time>2012-10-22T11:01:04Z</time>
      </trkpt>
      <trkpt lat="48.219760917127132" lon="14.487264594063163">
        <ele>175.19999694824199</ele>
        <time>2012-10-22T11:01:08Z</time>
      </trkpt>
      <trkpt lat="48.219791427254677" lon="14.48703384026885">
        <ele>175.19999694824199</ele>
        <time>2012-10-22T11:01:12Z</time>
      </trkpt>
      <trkpt lat="48.219840964302421" lon="14.486603764817119">
        <ele>175.19999694824199</ele>
        <time>2012-10-22T11:01:19Z</time>
      </trkpt>
      <trkpt lat="48.219879185780883" lon="14.486256586387753">
        <ele>175.19999694824199</ele>
        <time>2012-10-22T11:01:25Z</time>
      </trkpt>
      <trkpt lat="48.219924950972199" lon="14.486047709360719">
        <ele>175.60000610351599</ele>
        <time>2012-10-22T11:01:29Z</time>
      </trkpt>
      <trkpt lat="48.219943977892399" lon="14.486005799844861">
        <ele>176</ele>
        <time>2012-10-22T11:01:30Z</time>
      </trkpt>
      <trkpt lat="48.219966860488057" lon="14.485968584194779">
        <ele>176.39999389648401</ele>
        <time>2012-10-22T11:01:31Z</time>
      </trkpt>
      <trkpt lat="48.219989743083715" lon="14.485934218391776">
        <ele>176.80000305175801</ele>
        <time>2012-10-22T11:01:32Z</time>
      </trkpt>
      <trkpt lat="48.220016481354833" lon="14.485903708264232">
        <ele>177.19999694824199</ele>
        <time>2012-10-22T11:01:33Z</time>
      </trkpt>
      <trkpt lat="48.220108011737466" lon="14.485850315541029">
        <ele>177.19999694824199</ele>
        <time>2012-10-22T11:01:36Z</time>
      </trkpt>
      <trkpt lat="48.220287300646305" lon="14.48586942628026">
        <ele>177.19999694824199</ele>
        <time>2012-10-22T11:01:41Z</time>
      </trkpt>
      <trkpt lat="48.220493327826262" lon="14.486032454296947">
        <ele>177.19999694824199</ele>
        <time>2012-10-22T11:01:47Z</time>
      </trkpt>
      <trkpt lat="48.220794657245278" lon="14.486285168677568">
        <ele>177.19999694824199</ele>
        <time>2012-10-22T11:01:55Z</time>
      </trkpt>
      <trkpt lat="48.221137979999185" lon="14.486545594409108">
        <ele>177.19999694824199</ele>
        <time>2012-10-22T11:02:04Z</time>
      </trkpt>
      <trkpt lat="48.221172345802188" lon="14.486567471176386">
        <ele>177.19999694824199</ele>
        <time>2012-10-22T11:02:05Z</time>
      </trkpt>
      <trkpt lat="48.221374517306685" lon="14.486722033470869">
        <ele>177.19999694824199</ele>
        <time>2012-10-22T11:02:10Z</time>
      </trkpt>
      <trkpt lat="48.221652964130044" lon="14.486954715102911">
        <ele>177.19999694824199</ele>
        <time>2012-10-22T11:02:17Z</time>
      </trkpt>
      <trkpt lat="48.221965776756406" lon="14.48721312917769">
        <ele>177.19999694824199</ele>
        <time>2012-10-22T11:02:25Z</time>
      </trkpt>
      <trkpt lat="48.222209941595793" lon="14.487420078366995">
        <ele>177.19999694824199</ele>
        <time>2012-10-22T11:02:33Z</time>
      </trkpt>
      <trkpt lat="48.222366347908974" lon="14.487513536587358">
        <ele>177.19999694824199</ele>
        <time>2012-10-22T11:02:39Z</time>
      </trkpt>
      <trkpt lat="48.222522754222155" lon="14.487595595419407">
        <ele>177.19999694824199</ele>
        <time>2012-10-22T11:02:46Z</time>
      </trkpt>
      <trkpt lat="48.222656277939677" lon="14.48764706030488">
        <ele>177.19999694824199</ele>
        <time>2012-10-22T11:02:52Z</time>
      </trkpt>
      <trkpt lat="48.222740180790424" lon="14.487514458596706">
        <ele>177.19999694824199</ele>
        <time>2012-10-22T11:02:57Z</time>
      </trkpt>
      <trkpt lat="48.222869848832488" lon="14.487538347020745">
        <ele>177.19999694824199</ele>
        <time>2012-10-22T11:03:01Z</time>
      </trkpt>
      <trkpt lat="48.222911842167377" lon="14.487554524093866">
        <ele>177.19999694824199</ele>
        <time>2012-10-22T11:03:02Z</time>
      </trkpt>
      <trkpt lat="48.22312549687922" lon="14.487597439438105">
        <ele>177.19999694824199</ele>
        <time>2012-10-22T11:03:07Z</time>
      </trkpt>
      <trkpt lat="48.223415343090892" lon="14.487647982314229">
        <ele>177.19999694824199</ele>
        <time>2012-10-22T11:03:13Z</time>
      </trkpt>
      <trkpt lat="48.22385405190289" lon="14.487729035317898">
        <ele>177.19999694824199</ele>
        <time>2012-10-22T11:03:22Z</time>
      </trkpt>
      <trkpt lat="48.224243139848113" lon="14.487771028652787">
        <ele>177.19999694824199</ele>
        <time>2012-10-22T11:03:30Z</time>
      </trkpt>
      <trkpt lat="48.224437683820724" lon="14.487792989239097">
        <ele>177.19999694824199</ele>
        <time>2012-10-22T11:03:36Z</time>
      </trkpt>
      <trkpt lat="48.22470473125577" lon="14.487818721681833">
        <ele>177.19999694824199</ele>
        <time>2012-10-22T11:03:43Z</time>
      </trkpt>
      <trkpt lat="48.225029027089477" lon="14.487803466618061">
        <ele>177.19999694824199</ele>
        <time>2012-10-22T11:03:50Z</time>
      </trkpt>
      <trkpt lat="48.225509645417333" lon="14.487693747505546">
        <ele>177.19999694824199</ele>
        <time>2012-10-22T11:04:00Z</time>
      </trkpt>
      <trkpt lat="48.225898733362556" lon="14.487658459693193">
        <ele>177.19999694824199</ele>
        <time>2012-10-22T11:04:09Z</time>
      </trkpt>
      <trkpt lat="48.226223029196262" lon="14.487675642594695">
        <ele>177.19999694824199</ele>
        <time>2012-10-22T11:04:16Z</time>
      </trkpt>
      <trkpt lat="48.22656249627471" lon="14.487685197964311">
        <ele>177.19999694824199</ele>
        <time>2012-10-22T11:04:23Z</time>
      </trkpt>
      <trkpt lat="48.227027859538794" lon="14.487692825496197">
        <ele>177.19999694824199</ele>
        <time>2012-10-22T11:04:32Z</time>
      </trkpt>
      <trkpt lat="48.227130873128772" lon="14.48768611997366">
        <ele>177.19999694824199</ele>
        <time>2012-10-22T11:04:34Z</time>
      </trkpt>
      <trkpt lat="48.227336900308728" lon="14.487649910151958">
        <ele>177.19999694824199</ele>
        <time>2012-10-22T11:04:38Z</time>
      </trkpt>
      <trkpt lat="48.227855656296015" lon="14.487532647326589">
        <ele>177.19999694824199</ele>
        <time>2012-10-22T11:04:48Z</time>
      </trkpt>
      <trkpt lat="48.22824097238481" lon="14.487460143864155">
        <ele>177.19999694824199</ele>
        <time>2012-10-22T11:04:55Z</time>
      </trkpt>
      <trkpt lat="48.228672053664923" lon="14.487364757806063">
        <ele>177.19999694824199</ele>
        <time>2012-10-22T11:05:03Z</time>
      </trkpt>
      <trkpt lat="48.229202292859554" lon="14.487195024266839">
        <ele>177.19999694824199</ele>
        <time>2012-10-22T11:05:13Z</time>
      </trkpt>
      <trkpt lat="48.229671511799097" lon="14.487047167494893">
        <ele>177.19999694824199</ele>
        <time>2012-10-22T11:05:22Z</time>
      </trkpt>
      <trkpt lat="48.230167385190725" lon="14.486889839172363">
        <ele>177.19999694824199</ele>
        <time>2012-10-22T11:05:32Z</time>
      </trkpt>
      <trkpt lat="48.230434432625771" lon="14.486765870824456">
        <ele>177.19999694824199</ele>
        <time>2012-10-22T11:05:39Z</time>
      </trkpt>
      <trkpt lat="48.230545073747635" lon="14.486741060391068">
        <ele>177.19999694824199</ele>
        <time>2012-10-22T11:05:44Z</time>
      </trkpt>
      <trkpt lat="48.230625120922923" lon="14.486739132553339">
        <ele>177.19999694824199</ele>
        <time>2012-10-22T11:05:50Z</time>
      </trkpt>
      <trkpt lat="48.230674741789699" lon="14.486739132553339">
        <ele>177.19999694824199</ele>
        <time>2012-10-22T11:05:57Z</time>
      </trkpt>
      <trkpt lat="48.230785382911563" lon="14.48672010563314">
        <ele>177.19999694824199</ele>
        <time>2012-10-22T11:06:01Z</time>
      </trkpt>
      <trkpt lat="48.230926534160972" lon="14.486574176698923">
        <ele>177.19999694824199</ele>
        <time>2012-10-22T11:06:06Z</time>
      </trkpt>
      <trkpt lat="48.23094941675663" lon="14.486526483669877">
        <ele>177.19999694824199</ele>
        <time>2012-10-22T11:06:07Z</time>
      </trkpt>
      <trkpt lat="48.231018064543605" lon="14.486348116770387">
        <ele>177.19999694824199</ele>
        <time>2012-10-22T11:06:10Z</time>
      </trkpt>
      <trkpt lat="48.231094339862466" lon="14.486192716285586">
        <ele>177.19999694824199</ele>
        <time>2012-10-22T11:06:13Z</time>
      </trkpt>
      <trkpt lat="48.231189725920558" lon="14.486041087657213">
        <ele>177.19999694824199</ele>
        <time>2012-10-22T11:06:16Z</time>
      </trkpt>
      <trkpt lat="48.231498682871461" lon="14.485535658895969">
        <ele>177.19999694824199</ele>
        <time>2012-10-22T11:06:25Z</time>
      </trkpt>
      <trkpt lat="48.231754330918193" lon="14.485041629523039">
        <ele>177.19999694824199</ele>
        <time>2012-10-22T11:06:33Z</time>
      </trkpt>
      <trkpt lat="48.232044260948896" lon="14.484470402821898">
        <ele>177.19999694824199</ele>
        <time>2012-10-22T11:06:42Z</time>
      </trkpt>
      <trkpt lat="48.232074771076441" lon="14.484404604882002">
        <ele>176.80000305175801</ele>
        <time>2012-10-22T11:06:43Z</time>
      </trkpt>
      <trkpt lat="48.232105281203985" lon="14.484339728951454">
        <ele>176.39999389648401</ele>
        <time>2012-10-22T11:06:44Z</time>
      </trkpt>
      <trkpt lat="48.23213579133153" lon="14.484274853020906">
        <ele>175.60000610351599</ele>
        <time>2012-10-22T11:06:45Z</time>
      </trkpt>
      <trkpt lat="48.232170073315501" lon="14.48420905508101">
        <ele>175.19999694824199</ele>
        <time>2012-10-22T11:06:46Z</time>
      </trkpt>
      <trkpt lat="48.232334107160568" lon="14.483866654336452">
        <ele>175.19999694824199</ele>
        <time>2012-10-22T11:06:51Z</time>
      </trkpt>
      <trkpt lat="48.232593527063727" lon="14.483325937762856">
        <ele>175.19999694824199</ele>
        <time>2012-10-22T11:06:59Z</time>
      </trkpt>
      <trkpt lat="48.232856718823314" lon="14.482777593657374">
        <ele>175.19999694824199</ele>
        <time>2012-10-22T11:07:07Z</time>
      </trkpt>
      <trkpt lat="48.233043635264039" lon="14.482395211234689">
        <ele>175.19999694824199</ele>
        <time>2012-10-22T11:07:14Z</time>
      </trkpt>
      <trkpt lat="48.233093256130815" lon="14.482292197644711">
        <ele>175.19999694824199</ele>
        <time>2012-10-22T11:07:20Z</time>
      </trkpt>
      <trkpt lat="48.233100883662701" lon="14.48229119181633">
        <ele>175.19999694824199</ele>
        <time>2012-10-22T11:07:25Z</time>
      </trkpt>
      <trkpt lat="48.233100883662701" lon="14.48229119181633">
        <ele>175.19999694824199</ele>
        <time>2012-10-22T11:07:38Z</time>
      </trkpt>
    </trkseg>
  </trk>

</gpx>
